<?xml version='1.0' encoding='UTF-8'?><gpx version="1.1" creator="JPX - https://github.com/jenetics/jpx" xmlns="http://www.topografix.com/GPX/1/1"><trk><trkseg><trkpt lat="45.85418090884118" lon="9.275815300227615"><ele>392.0</ele><time>2026-03-28T08:43:45.002Z</time></trkpt><trkpt lat="45.8541078766638" lon="9.275769201271912"><ele>392.0</ele><time>2026-03-28T08:43:55.002Z</time></trkpt><trkpt lat="45.85403907902112" lon="9.275770775558284"><ele>392.0</ele><time>2026-03-28T08:45:18.002Z</time></trkpt><trkpt lat="45.85392421513797" lon="9.276537324057294"><ele>392.0</ele><time>2026-03-28T08:47:02.003Z</time></trkpt><trkpt lat="45.85405502929496" lon="9.275789207077748"><ele>392.0</ele><time>2026-03-28T08:47:05.003Z</time></trkpt><trkpt lat="45.854013884769955" lon="9.27568761969075"><ele>392.0</ele><time>2026-03-28T08:51:15.006Z</time></trkpt><trkpt lat="45.853941163130266" lon="9.275621866698584"><ele>392.0</ele><time>2026-03-28T08:51:17.006Z</time></trkpt><trkpt lat="45.85381819055107" lon="9.275709317313558"><ele>392.0</ele><time>2026-03-28T08:51:19.006Z</time></trkpt><trkpt lat="45.853731849685666" lon="9.275782971993289"><ele>392.0</ele><time>2026-03-28T08:51:20.006Z</time></trkpt><trkpt lat="45.85365649009786" lon="9.275827848136602"><ele>392.0</ele><time>2026-03-28T08:51:21.006Z</time></trkpt><trkpt lat="45.85359282391704" lon="9.27585871402659"><ele>392.0</ele><time>2026-03-28T08:51:22.006Z</time></trkpt><trkpt lat="45.85352088672968" lon="9.275871430682775"><ele>392.0</ele><time>2026-03-28T08:51:23.006Z</time></trkpt><trkpt lat="45.85341022298717" lon="9.275820865278996"><ele>392.0</ele><time>2026-03-28T08:51:24.006Z</time></trkpt><trkpt lat="45.853289559015" lon="9.27579195830537"><ele>392.0</ele><time>2026-03-28T08:51:25.006Z</time></trkpt><trkpt lat="45.85315143848545" lon="9.27576419918265"><ele>392.0</ele><time>2026-03-28T08:51:26.006Z</time></trkpt><trkpt lat="45.853033841502246" lon="9.275774004401487"><ele>392.0</ele><time>2026-03-28T08:51:27.006Z</time></trkpt><trkpt lat="45.85292598374733" lon="9.275781323207438"><ele>392.0</ele><time>2026-03-28T08:51:28.006Z</time></trkpt><trkpt lat="45.85283146712311" lon="9.275787100638253"><ele>392.0</ele><time>2026-03-28T08:51:29.006Z</time></trkpt><trkpt lat="45.852747885804405" lon="9.275784158247099"><ele>392.0</ele><time>2026-03-28T08:51:30.006Z</time></trkpt><trkpt lat="45.85266690980328" lon="9.275782319821435"><ele>392.49999999999994</ele><time>2026-03-28T08:51:31.006Z</time></trkpt><trkpt lat="45.852576596542185" lon="9.275783910586073"><ele>393.0</ele><time>2026-03-28T08:51:32.006Z</time></trkpt><trkpt lat="45.852504071692124" lon="9.275781308655427"><ele>393.5</ele><time>2026-03-28T08:51:33.006Z</time></trkpt><trkpt lat="45.85242736786987" lon="9.27576864661203"><ele>394.0</ele><time>2026-03-28T08:51:34.006Z</time></trkpt><trkpt lat="45.852352486209774" lon="9.275757318474113"><ele>394.49999999999994</ele><time>2026-03-28T08:51:35.006Z</time></trkpt><trkpt lat="45.852279530235336" lon="9.275740776922717"><ele>395.0</ele><time>2026-03-28T08:51:36.006Z</time></trkpt><trkpt lat="45.85220385757761" lon="9.27568560259564"><ele>395.0</ele><time>2026-03-28T08:51:37.006Z</time></trkpt><trkpt lat="45.85213061877108" lon="9.27562772941083"><ele>395.0</ele><time>2026-03-28T08:51:38.006Z</time></trkpt><trkpt lat="45.852076803280745" lon="9.275537734930714"><ele>395.0</ele><time>2026-03-28T08:51:39.006Z</time></trkpt><trkpt lat="45.85202798415575" lon="9.275425701122307"><ele>395.0</ele><time>2026-03-28T08:51:40.006Z</time></trkpt><trkpt lat="45.851976308939314" lon="9.275294925624175"><ele>395.0</ele><time>2026-03-28T08:51:41.006Z</time></trkpt><trkpt lat="45.85193159564098" lon="9.275153381087184"><ele>395.2</ele><time>2026-03-28T08:51:42.006Z</time></trkpt><trkpt lat="45.85188782066413" lon="9.275019383977364"><ele>395.4</ele><time>2026-03-28T08:51:43.006Z</time></trkpt><trkpt lat="45.851837189509425" lon="9.274884864870277"><ele>395.6</ele><time>2026-03-28T08:51:44.006Z</time></trkpt><trkpt lat="45.85179860943744" lon="9.274765571655562"><ele>395.8</ele><time>2026-03-28T08:51:45.006Z</time></trkpt><trkpt lat="45.851750094481645" lon="9.274648856822923"><ele>396.0</ele><time>2026-03-28T08:51:46.006Z</time></trkpt><trkpt lat="45.851700750241996" lon="9.27454199796401"><ele>396.4</ele><time>2026-03-28T08:51:47.006Z</time></trkpt><trkpt lat="45.851637965993746" lon="9.274440429765988"><ele>396.8</ele><time>2026-03-28T08:51:48.006Z</time></trkpt><trkpt lat="45.85157252262294" lon="9.274330536868032"><ele>397.2</ele><time>2026-03-28T08:51:49.006Z</time></trkpt><trkpt lat="45.85149923696567" lon="9.274216564118232"><ele>397.59999999999997</ele><time>2026-03-28T08:51:50.006Z</time></trkpt><trkpt lat="45.85144731110902" lon="9.274114867726425"><ele>398.0</ele><time>2026-03-28T08:51:51.006Z</time></trkpt><trkpt lat="45.85139770900199" lon="9.274034217401317"><ele>398.0</ele><time>2026-03-28T08:51:52.006Z</time></trkpt><trkpt lat="45.8513362579757" lon="9.273923795248692"><ele>398.0</ele><time>2026-03-28T08:51:54.006Z</time></trkpt><trkpt lat="45.85137703525082" lon="9.273788275594054"><ele>398.0</ele><time>2026-03-28T08:51:57.006Z</time></trkpt><trkpt lat="45.85145317235505" lon="9.27369161282892"><ele>398.0</ele><time>2026-03-28T08:51:58.006Z</time></trkpt><trkpt lat="45.85154301317196" lon="9.273601597558878"><ele>398.0</ele><time>2026-03-28T08:51:59.006Z</time></trkpt><trkpt lat="45.851621853075805" lon="9.273515595035173"><ele>397.99999999999994</ele><time>2026-03-28T08:52:00.006Z</time></trkpt><trkpt lat="45.85169902822424" lon="9.27343063886755"><ele>398.0</ele><time>2026-03-28T08:52:01.006Z</time></trkpt><trkpt lat="45.85177882749974" lon="9.273347570575794"><ele>398.0</ele><time>2026-03-28T08:52:02.006Z</time></trkpt><trkpt lat="45.85185107646254" lon="9.273281182644238"><ele>398.0</ele><time>2026-03-28T08:52:03.007Z</time></trkpt><trkpt lat="45.8519137137899" lon="9.27322690486464"><ele>397.99999999999994</ele><time>2026-03-28T08:52:04.007Z</time></trkpt><trkpt lat="45.851954448641095" lon="9.27315563614438"><ele>398.0</ele><time>2026-03-28T08:52:06.007Z</time></trkpt><trkpt lat="45.851926446107775" lon="9.273024499114797"><ele>397.79999999999995</ele><time>2026-03-28T08:52:09.007Z</time></trkpt><trkpt lat="45.85189050726236" lon="9.27291348928162"><ele>397.6</ele><time>2026-03-28T08:52:10.007Z</time></trkpt><trkpt lat="45.8518468795482" lon="9.27278545783533"><ele>397.4</ele><time>2026-03-28T08:52:11.007Z</time></trkpt><trkpt lat="45.85180583302022" lon="9.272663778530124"><ele>397.20000000000005</ele><time>2026-03-28T08:52:12.007Z</time></trkpt><trkpt lat="45.85177112890172" lon="9.272556046789633"><ele>397.0</ele><time>2026-03-28T08:52:13.007Z</time></trkpt><trkpt lat="45.85175671842894" lon="9.272422516676853"><ele>397.0</ele><time>2026-03-28T08:52:14.007Z</time></trkpt><trkpt lat="45.851736106164125" lon="9.272294831903752"><ele>397.0</ele><time>2026-03-28T08:52:15.007Z</time></trkpt><trkpt lat="45.85170307657836" lon="9.27215791047733"><ele>397.0</ele><time>2026-03-28T08:52:16.007Z</time></trkpt><trkpt lat="45.851670565670176" lon="9.27202978015513"><ele>397.0</ele><time>2026-03-28T08:52:17.007Z</time></trkpt><trkpt lat="45.85163967831803" lon="9.271895033307409"><ele>397.0</ele><time>2026-03-28T08:52:18.007Z</time></trkpt><trkpt lat="45.85160523812158" lon="9.271784741192636"><ele>397.00000000000006</ele><time>2026-03-28T08:52:19.007Z</time></trkpt><trkpt lat="45.851556581591325" lon="9.271714377205642"><ele>397.0</ele><time>2026-03-28T08:52:20.007Z</time></trkpt><trkpt lat="45.85150000776618" lon="9.271652948051537"><ele>397.0</ele><time>2026-03-28T08:52:21.007Z</time></trkpt><trkpt lat="45.85138494063294" lon="9.271619523537709"><ele>397.0</ele><time>2026-03-28T08:52:22.007Z</time></trkpt><trkpt lat="45.85129406971721" lon="9.271596726889044"><ele>397.00000000000006</ele><time>2026-03-28T08:52:23.007Z</time></trkpt><trkpt lat="45.85122129252054" lon="9.271555063993995"><ele>397.0</ele><time>2026-03-28T08:52:24.007Z</time></trkpt><trkpt lat="45.85114719904491" lon="9.271522184122984"><ele>397.00000000000006</ele><time>2026-03-28T08:52:25.007Z</time></trkpt><trkpt lat="45.85108099700674" lon="9.271482318731161"><ele>397.0</ele><time>2026-03-28T08:52:26.007Z</time></trkpt><trkpt lat="45.851010830555985" lon="9.271440793919584"><ele>397.0</ele><time>2026-03-28T08:52:27.007Z</time></trkpt><trkpt lat="45.85092750922949" lon="9.271379735847905"><ele>397.0</ele><time>2026-03-28T08:52:28.007Z</time></trkpt><trkpt lat="45.85085829539446" lon="9.271329301178834"><ele>397.00000000000006</ele><time>2026-03-28T08:52:29.007Z</time></trkpt><trkpt lat="45.85078220964953" lon="9.271281253856586"><ele>397.0</ele><time>2026-03-28T08:52:30.007Z</time></trkpt><trkpt lat="45.85070229873893" lon="9.271237747138459"><ele>396.33333333333337</ele><time>2026-03-28T08:52:31.007Z</time></trkpt><trkpt lat="45.85062596672229" lon="9.27120165931748"><ele>395.6666666666667</ele><time>2026-03-28T08:52:32.007Z</time></trkpt><trkpt lat="45.85054420304647" lon="9.271196228353837"><ele>395.0</ele><time>2026-03-28T08:52:33.007Z</time></trkpt><trkpt lat="45.85046267490003" lon="9.27121512156798"><ele>394.33333333333337</ele><time>2026-03-28T08:52:34.007Z</time></trkpt><trkpt lat="45.85039374940402" lon="9.271253627214014"><ele>393.6666666666667</ele><time>2026-03-28T08:52:35.007Z</time></trkpt><trkpt lat="45.85032209103673" lon="9.271287405920699"><ele>393.0</ele><time>2026-03-28T08:52:36.007Z</time></trkpt><trkpt lat="45.85025359692112" lon="9.271311943141432"><ele>393.0</ele><time>2026-03-28T08:52:37.007Z</time></trkpt><trkpt lat="45.85018783455293" lon="9.271333454433645"><ele>393.0</ele><time>2026-03-28T08:52:38.007Z</time></trkpt><trkpt lat="45.85005969879431" lon="9.271405179182192"><ele>393.0</ele><time>2026-03-28T08:52:40.007Z</time></trkpt><trkpt lat="45.849982853148134" lon="9.271428142550507"><ele>393.0</ele><time>2026-03-28T08:52:41.007Z</time></trkpt><trkpt lat="45.84990141134142" lon="9.271462039819825"><ele>393.0</ele><time>2026-03-28T08:52:43.007Z</time></trkpt><trkpt lat="45.84980217094312" lon="9.271498252256682"><ele>393.0</ele><time>2026-03-28T08:52:45.007Z</time></trkpt><trkpt lat="45.84973085319756" lon="9.271563686362049"><ele>393.0</ele><time>2026-03-28T08:52:52.007Z</time></trkpt><trkpt lat="45.84965534797215" lon="9.271596629369796"><ele>393.0</ele><time>2026-03-28T08:52:55.007Z</time></trkpt><trkpt lat="45.8496098189587" lon="9.271664974505185"><ele>393.0</ele><time>2026-03-28T08:52:58.007Z</time></trkpt><trkpt lat="45.849599993551585" lon="9.271768427069233"><ele>393.0</ele><time>2026-03-28T08:53:00.007Z</time></trkpt><trkpt lat="45.84961555829022" lon="9.271924390654743"><ele>393.0</ele><time>2026-03-28T08:53:02.007Z</time></trkpt><trkpt lat="45.84964486200494" lon="9.272026068732876"><ele>393.0</ele><time>2026-03-28T08:53:03.007Z</time></trkpt><trkpt lat="45.84965269195946" lon="9.27214708327723"><ele>393.0</ele><time>2026-03-28T08:53:04.007Z</time></trkpt><trkpt lat="45.849664089254574" lon="9.272249127001098"><ele>393.0</ele><time>2026-03-28T08:53:05.007Z</time></trkpt><trkpt lat="45.84967829343317" lon="9.272353812900265"><ele>393.0</ele><time>2026-03-28T08:53:06.007Z</time></trkpt><trkpt lat="45.84968263527402" lon="9.272529258957261"><ele>393.0</ele><time>2026-03-28T08:53:08.007Z</time></trkpt><trkpt lat="45.84967816295534" lon="9.272629790639721"><ele>393.0</ele><time>2026-03-28T08:53:09.007Z</time></trkpt><trkpt lat="45.84967373812983" lon="9.272726506059826"><ele>393.79999999999995</ele><time>2026-03-28T08:53:10.007Z</time></trkpt><trkpt lat="45.84961491479994" lon="9.272845406892657"><ele>394.6</ele><time>2026-03-28T08:53:12.007Z</time></trkpt><trkpt lat="45.84953241338705" lon="9.272927512850686"><ele>395.4</ele><time>2026-03-28T08:53:14.007Z</time></trkpt><trkpt lat="45.84943463802754" lon="9.27300750798866"><ele>396.20000000000005</ele><time>2026-03-28T08:53:16.007Z</time></trkpt><trkpt lat="45.84936883364622" lon="9.27309080785059"><ele>397.0</ele><time>2026-03-28T08:53:18.007Z</time></trkpt><trkpt lat="45.849273883548754" lon="9.27309031682378"><ele>397.33333333333337</ele><time>2026-03-28T08:53:20.007Z</time></trkpt><trkpt lat="45.84922144221682" lon="9.273033529549885"><ele>397.6666666666667</ele><time>2026-03-28T08:53:21.007Z</time></trkpt><trkpt lat="45.84916553677292" lon="9.27297794059048"><ele>398.0</ele><time>2026-03-28T08:53:22.007Z</time></trkpt><trkpt lat="45.849054125997284" lon="9.27287031853255"><ele>398.33333333333337</ele><time>2026-03-28T08:53:24.008Z</time></trkpt><trkpt lat="45.848983961399775" lon="9.272807757644031"><ele>398.6666666666667</ele><time>2026-03-28T08:53:25.008Z</time></trkpt><trkpt lat="45.84891141695902" lon="9.272753984818733"><ele>399.0</ele><time>2026-03-28T08:53:26.008Z</time></trkpt><trkpt lat="45.848819808184835" lon="9.272697432912882"><ele>399.0</ele><time>2026-03-28T08:53:27.008Z</time></trkpt><trkpt lat="45.84873236868372" lon="9.272665336926"><ele>399.0</ele><time>2026-03-28T08:53:28.008Z</time></trkpt><trkpt lat="45.84864193308015" lon="9.272646456756748"><ele>399.0</ele><time>2026-03-28T08:53:29.008Z</time></trkpt><trkpt lat="45.84855846846397" lon="9.272639170613154"><ele>399.0</ele><time>2026-03-28T08:53:30.008Z</time></trkpt><trkpt lat="45.84846252583277" lon="9.272646712880642"><ele>399.0</ele><time>2026-03-28T08:53:31.008Z</time></trkpt><trkpt lat="45.848360162955686" lon="9.2726616477454"><ele>397.75</ele><time>2026-03-28T08:53:32.008Z</time></trkpt><trkpt lat="45.848250297369" lon="9.27266869731933"><ele>396.5</ele><time>2026-03-28T08:53:33.008Z</time></trkpt><trkpt lat="45.848122866639024" lon="9.272679841164516"><ele>395.25</ele><time>2026-03-28T08:53:34.008Z</time></trkpt><trkpt lat="45.84799219567418" lon="9.272692286592068"><ele>394.0</ele><time>2026-03-28T08:53:35.008Z</time></trkpt><trkpt lat="45.84784849624361" lon="9.272705513110223"><ele>394.0</ele><time>2026-03-28T08:53:36.008Z</time></trkpt><trkpt lat="45.847696673571086" lon="9.272728692486131"><ele>394.0</ele><time>2026-03-28T08:53:37.008Z</time></trkpt><trkpt lat="45.84753639177404" lon="9.272747277404498"><ele>394.0</ele><time>2026-03-28T08:53:38.008Z</time></trkpt><trkpt lat="45.847365020365444" lon="9.272784893830428"><ele>394.0</ele><time>2026-03-28T08:53:39.008Z</time></trkpt><trkpt lat="45.84718817765837" lon="9.2727967857856"><ele>394.0</ele><time>2026-03-28T08:53:40.008Z</time></trkpt><trkpt lat="45.84701263452617" lon="9.272816601094345"><ele>394.0</ele><time>2026-03-28T08:53:41.008Z</time></trkpt><trkpt lat="45.846823742982984" lon="9.272816580046893"><ele>393.6666666666667</ele><time>2026-03-28T08:53:42.008Z</time></trkpt><trkpt lat="45.84663396651636" lon="9.27283104869819"><ele>393.33333333333337</ele><time>2026-03-28T08:53:43.008Z</time></trkpt><trkpt lat="45.84644187717658" lon="9.272850971427399"><ele>393.0</ele><time>2026-03-28T08:53:44.008Z</time></trkpt><trkpt lat="45.84626293618166" lon="9.272870840747865"><ele>393.0</ele><time>2026-03-28T08:53:45.008Z</time></trkpt><trkpt lat="45.84609712547073" lon="9.272877648508267"><ele>393.0</ele><time>2026-03-28T08:53:46.008Z</time></trkpt><trkpt lat="45.845927822546514" lon="9.272895449313895"><ele>393.0</ele><time>2026-03-28T08:53:47.008Z</time></trkpt><trkpt lat="45.845779536350506" lon="9.272908178784258"><ele>392.25</ele><time>2026-03-28T08:53:48.008Z</time></trkpt><trkpt lat="45.84563624478274" lon="9.2729201236703"><ele>391.5</ele><time>2026-03-28T08:53:49.008Z</time></trkpt><trkpt lat="45.84550162321168" lon="9.272930617716723"><ele>390.75</ele><time>2026-03-28T08:53:50.008Z</time></trkpt><trkpt lat="45.845366023250065" lon="9.272940192253651"><ele>390.0</ele><time>2026-03-28T08:53:51.008Z</time></trkpt><trkpt lat="45.84522778414949" lon="9.272942185871841"><ele>390.5</ele><time>2026-03-28T08:53:52.008Z</time></trkpt><trkpt lat="45.845097781223274" lon="9.272941855735073"><ele>391.0</ele><time>2026-03-28T08:53:53.008Z</time></trkpt><trkpt lat="45.84496864988955" lon="9.272962688170926"><ele>391.5</ele><time>2026-03-28T08:53:54.008Z</time></trkpt><trkpt lat="45.84483082594775" lon="9.272978784331931"><ele>392.0</ele><time>2026-03-28T08:53:55.008Z</time></trkpt><trkpt lat="45.84469682354464" lon="9.272986863949756"><ele>392.0</ele><time>2026-03-28T08:53:56.008Z</time></trkpt><trkpt lat="45.84452463546903" lon="9.273022343658997"><ele>392.0</ele><time>2026-03-28T08:53:57.008Z</time></trkpt><trkpt lat="45.84430956960098" lon="9.273042254247864"><ele>392.0</ele><time>2026-03-28T08:53:58.008Z</time></trkpt><trkpt lat="45.84405419207069" lon="9.273065229160112"><ele>393.0</ele><time>2026-03-28T08:53:59.008Z</time></trkpt><trkpt lat="45.84382431723968" lon="9.273080348516329"><ele>394.0</ele><time>2026-03-28T08:54:00.008Z</time></trkpt><trkpt lat="45.843613076522836" lon="9.273117041405847"><ele>395.0</ele><time>2026-03-28T08:54:01.008Z</time></trkpt><trkpt lat="45.84341754933171" lon="9.273135130682086"><ele>395.25</ele><time>2026-03-28T08:54:02.008Z</time></trkpt><trkpt lat="45.84324626905055" lon="9.273140808248845"><ele>395.5</ele><time>2026-03-28T08:54:03.008Z</time></trkpt><trkpt lat="45.84311301047668" lon="9.273144671304383"><ele>395.75</ele><time>2026-03-28T08:54:04.008Z</time></trkpt><trkpt lat="45.84299940547172" lon="9.273149301168436"><ele>396.0</ele><time>2026-03-28T08:54:05.008Z</time></trkpt><trkpt lat="45.84289997373413" lon="9.273148103142"><ele>396.0</ele><time>2026-03-28T08:54:06.008Z</time></trkpt><trkpt lat="45.84283516101851" lon="9.273152568418885"><ele>396.0</ele><time>2026-03-28T08:54:07.008Z</time></trkpt><trkpt lat="45.84277003324303" lon="9.273162888016353"><ele>396.0</ele><time>2026-03-28T08:54:08.008Z</time></trkpt><trkpt lat="45.84270298215063" lon="9.27317163406484"><ele>396.0</ele><time>2026-03-28T08:54:09.008Z</time></trkpt><trkpt lat="45.84263743173521" lon="9.27318312277473"><ele>396.0</ele><time>2026-03-28T08:54:10.008Z</time></trkpt><trkpt lat="45.84255658701873" lon="9.273154797170369"><ele>396.0</ele><time>2026-03-28T08:54:11.008Z</time></trkpt><trkpt lat="45.842476912100295" lon="9.273153181415495"><ele>396.0</ele><time>2026-03-28T08:54:12.008Z</time></trkpt><trkpt lat="45.84239386966402" lon="9.273187448087675"><ele>395.75</ele><time>2026-03-28T08:54:13.008Z</time></trkpt><trkpt lat="45.842307403997005" lon="9.273222303637942"><ele>395.5</ele><time>2026-03-28T08:54:14.008Z</time></trkpt><trkpt lat="45.842197750684555" lon="9.273225354232945"><ele>395.25</ele><time>2026-03-28T08:54:16.008Z</time></trkpt><trkpt lat="45.84208097701087" lon="9.273238689254582"><ele>395.0</ele><time>2026-03-28T08:54:17.008Z</time></trkpt><trkpt lat="45.841930032231964" lon="9.273245337252554"><ele>394.3333333333333</ele><time>2026-03-28T08:54:18.008Z</time></trkpt><trkpt lat="45.841765838488634" lon="9.273260905538605"><ele>393.66666666666663</ele><time>2026-03-28T08:54:19.008Z</time></trkpt><trkpt lat="45.8415942585751" lon="9.273277539624086"><ele>393.0</ele><time>2026-03-28T08:54:20.008Z</time></trkpt><trkpt lat="45.84140535970663" lon="9.273311099285243"><ele>393.0</ele><time>2026-03-28T08:54:21.008Z</time></trkpt><trkpt lat="45.84116200274228" lon="9.273341695712789"><ele>393.0</ele><time>2026-03-28T08:54:22.008Z</time></trkpt><trkpt lat="45.84089065336258" lon="9.273373452564527"><ele>389.5</ele><time>2026-03-28T08:54:23.008Z</time></trkpt><trkpt lat="45.84057330783816" lon="9.273398967564512"><ele>386.0</ele><time>2026-03-28T08:54:24.008Z</time></trkpt><trkpt lat="45.84026119200071" lon="9.273429549238065"><ele>385.0</ele><time>2026-03-28T08:54:25.008Z</time></trkpt><trkpt lat="45.83997850196783" lon="9.27345438629143"><ele>384.0</ele><time>2026-03-28T08:54:26.008Z</time></trkpt><trkpt lat="45.83971797151126" lon="9.273476744476321"><ele>384.0</ele><time>2026-03-28T08:54:27.008Z</time></trkpt><trkpt lat="45.83947062354024" lon="9.273487868826992"><ele>384.0</ele><time>2026-03-28T08:54:28.008Z</time></trkpt><trkpt lat="45.83923260850587" lon="9.273490571906438"><ele>382.6666666666667</ele><time>2026-03-28T08:54:29.008Z</time></trkpt><trkpt lat="45.83900562059784" lon="9.27349862034775"><ele>381.33333333333337</ele><time>2026-03-28T08:54:30.008Z</time></trkpt><trkpt lat="45.83879177016733" lon="9.273518259562215"><ele>380.0</ele><time>2026-03-28T08:54:31.008Z</time></trkpt><trkpt lat="45.8385811761895" lon="9.273542852387369"><ele>380.33333333333337</ele><time>2026-03-28T08:54:32.008Z</time></trkpt><trkpt lat="45.83837064146417" lon="9.273562614890324"><ele>380.6666666666667</ele><time>2026-03-28T08:54:33.008Z</time></trkpt><trkpt lat="45.838164333427514" lon="9.273564195694338"><ele>381.0</ele><time>2026-03-28T08:54:34.008Z</time></trkpt><trkpt lat="45.83796168372657" lon="9.27354294254924"><ele>381.0</ele><time>2026-03-28T08:54:35.008Z</time></trkpt><trkpt lat="45.83777385023738" lon="9.273494972624446"><ele>381.0</ele><time>2026-03-28T08:54:36.008Z</time></trkpt><trkpt lat="45.83759961636725" lon="9.273431769486395"><ele>381.0</ele><time>2026-03-28T08:54:37.008Z</time></trkpt><trkpt lat="45.83742288176207" lon="9.273353178911492"><ele>383.33333333333337</ele><time>2026-03-28T08:54:38.008Z</time></trkpt><trkpt lat="45.837244199802115" lon="9.273258788088292"><ele>385.6666666666667</ele><time>2026-03-28T08:54:39.008Z</time></trkpt><trkpt lat="45.837066729459146" lon="9.273151792520133"><ele>388.0</ele><time>2026-03-28T08:54:40.008Z</time></trkpt><trkpt lat="45.83690046084564" lon="9.273042560127045"><ele>393.6666666666667</ele><time>2026-03-28T08:54:41.008Z</time></trkpt><trkpt lat="45.83673988990632" lon="9.27293192815349"><ele>399.33333333333337</ele><time>2026-03-28T08:54:42.008Z</time></trkpt><trkpt lat="45.83657681390655" lon="9.272829096318109"><ele>405.0</ele><time>2026-03-28T08:54:43.008Z</time></trkpt><trkpt lat="45.83641890586848" lon="9.272728771787834"><ele>405.0</ele><time>2026-03-28T08:54:44.008Z</time></trkpt><trkpt lat="45.83625450992503" lon="9.272620891345495"><ele>405.0</ele><time>2026-03-28T08:54:45.009Z</time></trkpt><trkpt lat="45.83608879800736" lon="9.272518498517329"><ele>405.0</ele><time>2026-03-28T08:54:46.009Z</time></trkpt><trkpt lat="45.83591846938204" lon="9.27240940688768"><ele>400.33333333333337</ele><time>2026-03-28T08:54:47.009Z</time></trkpt><trkpt lat="45.835749998382184" lon="9.272317321567153"><ele>395.6666666666667</ele><time>2026-03-28T08:54:48.009Z</time></trkpt><trkpt lat="45.83558895484226" lon="9.272222543404713"><ele>391.0</ele><time>2026-03-28T08:54:49.009Z</time></trkpt><trkpt lat="45.83543457681457" lon="9.272130875257075"><ele>393.6666666666667</ele><time>2026-03-28T08:54:50.009Z</time></trkpt><trkpt lat="45.83527608418967" lon="9.272032957617435"><ele>396.33333333333337</ele><time>2026-03-28T08:54:51.009Z</time></trkpt><trkpt lat="45.83511337914078" lon="9.271931106712382"><ele>399.0</ele><time>2026-03-28T08:54:52.009Z</time></trkpt><trkpt lat="45.83495663333991" lon="9.27183076749434"><ele>399.0</ele><time>2026-03-28T08:54:53.009Z</time></trkpt><trkpt lat="45.834802874847924" lon="9.27172196000942"><ele>399.0</ele><time>2026-03-28T08:54:54.009Z</time></trkpt><trkpt lat="45.834643320923824" lon="9.27158850742261"><ele>399.0</ele><time>2026-03-28T08:54:55.009Z</time></trkpt><trkpt lat="45.83446979928744" lon="9.27141224256503"><ele>401.33333333333337</ele><time>2026-03-28T08:54:56.009Z</time></trkpt><trkpt lat="45.83430841903103" lon="9.271242633406331"><ele>403.6666666666667</ele><time>2026-03-28T08:54:57.009Z</time></trkpt><trkpt lat="45.834150995530266" lon="9.271053519274677"><ele>406.0</ele><time>2026-03-28T08:54:58.009Z</time></trkpt><trkpt lat="45.833979214167684" lon="9.270887240052543"><ele>406.0</ele><time>2026-03-28T08:54:59.009Z</time></trkpt><trkpt lat="45.833815740853346" lon="9.270718959969987"><ele>406.0</ele><time>2026-03-28T08:55:00.009Z</time></trkpt><trkpt lat="45.833671959642764" lon="9.270552757528453"><ele>406.0</ele><time>2026-03-28T08:55:01.009Z</time></trkpt><trkpt lat="45.83353283356839" lon="9.270370026492744"><ele>402.6666666666667</ele><time>2026-03-28T08:55:02.009Z</time></trkpt><trkpt lat="45.83339660162895" lon="9.270205679169614"><ele>399.33333333333337</ele><time>2026-03-28T08:55:03.009Z</time></trkpt><trkpt lat="45.83326542010898" lon="9.270021502116675"><ele>396.0</ele><time>2026-03-28T08:55:04.009Z</time></trkpt><trkpt lat="45.83313662678515" lon="9.26982784007716"><ele>405.66666666666663</ele><time>2026-03-28T08:55:05.009Z</time></trkpt><trkpt lat="45.83301964950615" lon="9.26964185230522"><ele>415.3333333333333</ele><time>2026-03-28T08:55:06.009Z</time></trkpt><trkpt lat="45.83289311252334" lon="9.26943142740419"><ele>425.0</ele><time>2026-03-28T08:55:07.009Z</time></trkpt><trkpt lat="45.83277773898011" lon="9.26923979155938"><ele>425.0</ele><time>2026-03-28T08:55:08.009Z</time></trkpt><trkpt lat="45.83265635558976" lon="9.269051444156787"><ele>425.0</ele><time>2026-03-28T08:55:09.009Z</time></trkpt><trkpt lat="45.8325235510508" lon="9.268851497320554"><ele>425.0</ele><time>2026-03-28T08:55:10.009Z</time></trkpt><trkpt lat="45.83239323556542" lon="9.26865318520967"><ele>420.0</ele><time>2026-03-28T08:55:11.009Z</time></trkpt><trkpt lat="45.832259680371315" lon="9.268451328051235"><ele>415.0</ele><time>2026-03-28T08:55:12.009Z</time></trkpt><trkpt lat="45.83211458944161" lon="9.268263349005403"><ele>410.0</ele><time>2026-03-28T08:55:13.009Z</time></trkpt><trkpt lat="45.83197426689248" lon="9.268087276940339"><ele>403.66666666666663</ele><time>2026-03-28T08:55:14.009Z</time></trkpt><trkpt lat="45.83183752280912" lon="9.267901641831894"><ele>397.33333333333337</ele><time>2026-03-28T08:55:15.009Z</time></trkpt><trkpt lat="45.83170285762054" lon="9.267701421552173"><ele>391.0</ele><time>2026-03-28T08:55:16.009Z</time></trkpt><trkpt lat="45.831562148245595" lon="9.267488226933747"><ele>391.0</ele><time>2026-03-28T08:55:17.009Z</time></trkpt><trkpt lat="45.83142856577686" lon="9.267285556985183"><ele>391.0</ele><time>2026-03-28T08:55:18.009Z</time></trkpt><trkpt lat="45.83129654189373" lon="9.267096514423523"><ele>391.0</ele><time>2026-03-28T08:55:19.009Z</time></trkpt><trkpt lat="45.831169185834696" lon="9.26689859613494"><ele>391.33333333333337</ele><time>2026-03-28T08:55:20.009Z</time></trkpt><trkpt lat="45.831042530529324" lon="9.26668497755739"><ele>391.66666666666663</ele><time>2026-03-28T08:55:21.009Z</time></trkpt><trkpt lat="45.8309174124189" lon="9.266472091876622"><ele>392.0</ele><time>2026-03-28T08:55:22.009Z</time></trkpt><trkpt lat="45.8307926281808" lon="9.266227870434118"><ele>394.66666666666663</ele><time>2026-03-28T08:55:23.009Z</time></trkpt><trkpt lat="45.830671946288945" lon="9.265984882366917"><ele>397.33333333333337</ele><time>2026-03-28T08:55:24.009Z</time></trkpt><trkpt lat="45.83055628642387" lon="9.265744342374235"><ele>400.0</ele><time>2026-03-28T08:55:25.009Z</time></trkpt><trkpt lat="45.83044081023033" lon="9.265506489808882"><ele>394.33333333333337</ele><time>2026-03-28T08:55:26.009Z</time></trkpt><trkpt lat="45.83032103000264" lon="9.265266000637991"><ele>388.6666666666667</ele><time>2026-03-28T08:55:27.009Z</time></trkpt><trkpt lat="45.830202817579114" lon="9.265028282643653"><ele>383.0</ele><time>2026-03-28T08:55:28.009Z</time></trkpt><trkpt lat="45.830090113945246" lon="9.264781167309149"><ele>390.33333333333337</ele><time>2026-03-28T08:55:29.009Z</time></trkpt><trkpt lat="45.82997370705407" lon="9.26454470853538"><ele>397.6666666666667</ele><time>2026-03-28T08:55:30.009Z</time></trkpt><trkpt lat="45.82985718367221" lon="9.264299146083651"><ele>405.0</ele><time>2026-03-28T08:55:31.009Z</time></trkpt><trkpt lat="45.829735492334805" lon="9.26406320741204"><ele>401.0</ele><time>2026-03-28T08:55:32.009Z</time></trkpt><trkpt lat="45.829604654692346" lon="9.263820054255921"><ele>397.0</ele><time>2026-03-28T08:55:33.009Z</time></trkpt><trkpt lat="45.829453201131166" lon="9.263608805273138"><ele>393.0</ele><time>2026-03-28T08:55:34.009Z</time></trkpt><trkpt lat="45.829297884975254" lon="9.263426649013452"><ele>393.0</ele><time>2026-03-28T08:55:35.009Z</time></trkpt><trkpt lat="45.829134717590364" lon="9.263244583385385"><ele>393.0</ele><time>2026-03-28T08:55:36.009Z</time></trkpt><trkpt lat="45.82897058363313" lon="9.263074117632863"><ele>393.0</ele><time>2026-03-28T08:55:37.009Z</time></trkpt><trkpt lat="45.828801013533" lon="9.26287855337149"><ele>392.0</ele><time>2026-03-28T08:55:38.009Z</time></trkpt><trkpt lat="45.828641049973605" lon="9.262682738249607"><ele>391.0</ele><time>2026-03-28T08:55:39.009Z</time></trkpt><trkpt lat="45.82845093325922" lon="9.262474472964646"><ele>390.0</ele><time>2026-03-28T08:55:40.009Z</time></trkpt><trkpt lat="45.828276271987605" lon="9.262353953646292"><ele>407.0</ele><time>2026-03-28T08:55:41.009Z</time></trkpt><trkpt lat="45.828059405873766" lon="9.262254224902568"><ele>424.0</ele><time>2026-03-28T08:55:42.009Z</time></trkpt><trkpt lat="45.82783932731554" lon="9.262180217191078"><ele>419.0</ele><time>2026-03-28T08:55:43.009Z</time></trkpt><trkpt lat="45.827626463896905" lon="9.26213011316292"><ele>414.0</ele><time>2026-03-28T08:55:44.009Z</time></trkpt><trkpt lat="45.82742413154615" lon="9.262089081656905"><ele>409.0</ele><time>2026-03-28T08:55:45.009Z</time></trkpt><trkpt lat="45.82722850287183" lon="9.26204942432849"><ele>409.0</ele><time>2026-03-28T08:55:46.009Z</time></trkpt><trkpt lat="45.82703397788624" lon="9.261992417919537"><ele>409.0</ele><time>2026-03-28T08:55:47.009Z</time></trkpt><trkpt lat="45.82682868419459" lon="9.26190830560159"><ele>409.0</ele><time>2026-03-28T08:55:48.009Z</time></trkpt><trkpt lat="45.82663422244617" lon="9.261822497329106"><ele>403.33333333333337</ele><time>2026-03-28T08:55:49.009Z</time></trkpt><trkpt lat="45.82646060799896" lon="9.26173471134503"><ele>397.66666666666663</ele><time>2026-03-28T08:55:50.009Z</time></trkpt><trkpt lat="45.826303799135516" lon="9.261631096804784"><ele>392.0</ele><time>2026-03-28T08:55:51.009Z</time></trkpt><trkpt lat="45.8261618423041" lon="9.26152742459663"><ele>395.3333333333333</ele><time>2026-03-28T08:55:52.009Z</time></trkpt><trkpt lat="45.826023626910874" lon="9.261413690193008"><ele>398.66666666666663</ele><time>2026-03-28T08:55:53.009Z</time></trkpt><trkpt lat="45.825887948988324" lon="9.261325162268548"><ele>402.0</ele><time>2026-03-28T08:55:54.009Z</time></trkpt><trkpt lat="45.825760035417396" lon="9.261232101064381"><ele>402.0</ele><time>2026-03-28T08:55:55.009Z</time></trkpt><trkpt lat="45.82564587965022" lon="9.261161077063324"><ele>402.0</ele><time>2026-03-28T08:55:56.009Z</time></trkpt><trkpt lat="45.8255218613397" lon="9.261087825675613"><ele>402.0</ele><time>2026-03-28T08:55:57.009Z</time></trkpt><trkpt lat="45.82540418388857" lon="9.261015252200266"><ele>402.0</ele><time>2026-03-28T08:55:58.009Z</time></trkpt><trkpt lat="45.825296423988796" lon="9.260944194814623"><ele>402.0</ele><time>2026-03-28T08:55:59.009Z</time></trkpt><trkpt lat="45.82519717336374" lon="9.260879594791561"><ele>402.0</ele><time>2026-03-28T08:56:00.009Z</time></trkpt><trkpt lat="45.825108408959494" lon="9.260816996961479"><ele>402.0</ele><time>2026-03-28T08:56:01.009Z</time></trkpt><trkpt lat="45.825041178396965" lon="9.260765735215248"><ele>402.0</ele><time>2026-03-28T08:56:02.009Z</time></trkpt><trkpt lat="45.82494872557476" lon="9.260704578337728"><ele>402.0</ele><time>2026-03-28T08:56:04.009Z</time></trkpt><trkpt lat="45.82484670732452" lon="9.26064898364431"><ele>402.6666666666667</ele><time>2026-03-28T08:56:06.01Z</time></trkpt><trkpt lat="45.824784050493" lon="9.260598249469973"><ele>403.33333333333337</ele><time>2026-03-28T08:56:07.01Z</time></trkpt><trkpt lat="45.824725131503584" lon="9.260545979352333"><ele>404.0</ele><time>2026-03-28T08:56:08.01Z</time></trkpt><trkpt lat="45.8246690022032" lon="9.260499940309918"><ele>404.6666666666667</ele><time>2026-03-28T08:56:09.01Z</time></trkpt><trkpt lat="45.82456143389863" lon="9.260412210469411"><ele>405.33333333333337</ele><time>2026-03-28T08:56:11.01Z</time></trkpt><trkpt lat="45.824498717352874" lon="9.26034387106685"><ele>406.0</ele><time>2026-03-28T08:56:12.01Z</time></trkpt><trkpt lat="45.824430004256136" lon="9.260264862976054"><ele>406.0</ele><time>2026-03-28T08:56:13.01Z</time></trkpt><trkpt lat="45.82435353610397" lon="9.26017820917758"><ele>406.0</ele><time>2026-03-28T08:56:14.01Z</time></trkpt><trkpt lat="45.82427489374308" lon="9.26008840248026"><ele>406.0</ele><time>2026-03-28T08:56:15.01Z</time></trkpt><trkpt lat="45.82420881572464" lon="9.260013472273856"><ele>406.0</ele><time>2026-03-28T08:56:16.01Z</time></trkpt><trkpt lat="45.8241506900394" lon="9.259950651336002"><ele>406.0</ele><time>2026-03-28T08:56:17.01Z</time></trkpt><trkpt lat="45.824056423753525" lon="9.259852507702613"><ele>405.50000000000006</ele><time>2026-03-28T08:56:19.01Z</time></trkpt><trkpt lat="45.82398461117627" lon="9.259773362395526"><ele>405.0</ele><time>2026-03-28T08:56:21.01Z</time></trkpt><trkpt lat="45.823916953360666" lon="9.259689764035834"><ele>404.5</ele><time>2026-03-28T08:56:23.01Z</time></trkpt><trkpt lat="45.8238464340404" lon="9.259557708717466"><ele>404.0</ele><time>2026-03-28T08:56:25.01Z</time></trkpt><trkpt lat="45.823803640755564" lon="9.259479152414025"><ele>403.50000000000006</ele><time>2026-03-28T08:56:26.01Z</time></trkpt><trkpt lat="45.823756064510796" lon="9.259416009712844"><ele>403.0</ele><time>2026-03-28T08:56:27.01Z</time></trkpt><trkpt lat="45.82363823946451" lon="9.259451649641358"><ele>403.0</ele><time>2026-03-28T08:56:29.01Z</time></trkpt><trkpt lat="45.82360683619808" lon="9.259544343697515"><ele>403.0</ele><time>2026-03-28T08:56:30.01Z</time></trkpt><trkpt lat="45.82361149986953" lon="9.259658034330647"><ele>403.0</ele><time>2026-03-28T08:56:31.01Z</time></trkpt><trkpt lat="45.823644483602145" lon="9.25982761552805"><ele>403.0</ele><time>2026-03-28T08:56:32.01Z</time></trkpt><trkpt lat="45.8237022623267" lon="9.260012290211039"><ele>403.0</ele><time>2026-03-28T08:56:33.01Z</time></trkpt><trkpt lat="45.823751078376176" lon="9.260173395051307"><ele>399.5</ele><time>2026-03-28T08:56:34.01Z</time></trkpt><trkpt lat="45.82378526139057" lon="9.260341610729455"><ele>396.0</ele><time>2026-03-28T08:56:35.01Z</time></trkpt><trkpt lat="45.82379976571527" lon="9.260521781394067"><ele>392.5</ele><time>2026-03-28T08:56:36.01Z</time></trkpt><trkpt lat="45.82377684761804" lon="9.260688701114704"><ele>389.0</ele><time>2026-03-28T08:56:37.01Z</time></trkpt><trkpt lat="45.8237374859402" lon="9.260899030868186"><ele>387.3333333333333</ele><time>2026-03-28T08:56:38.01Z</time></trkpt><trkpt lat="45.823672765432" lon="9.261117852033626"><ele>385.66666666666663</ele><time>2026-03-28T08:56:39.01Z</time></trkpt><trkpt lat="45.82361050844655" lon="9.261334927319057"><ele>384.0</ele><time>2026-03-28T08:56:40.01Z</time></trkpt><trkpt lat="45.8235491089355" lon="9.261570654367375"><ele>383.3333333333333</ele><time>2026-03-28T08:56:41.01Z</time></trkpt><trkpt lat="45.8234853004333" lon="9.261836054328954"><ele>382.66666666666663</ele><time>2026-03-28T08:56:42.01Z</time></trkpt><trkpt lat="45.82342577152313" lon="9.262100070549304"><ele>382.0</ele><time>2026-03-28T08:56:43.01Z</time></trkpt><trkpt lat="45.8233604738689" lon="9.262370364526538"><ele>383.0</ele><time>2026-03-28T08:56:44.01Z</time></trkpt><trkpt lat="45.82329042430583" lon="9.26264734161732"><ele>384.0</ele><time>2026-03-28T08:56:45.01Z</time></trkpt><trkpt lat="45.82322379943958" lon="9.262914303868307"><ele>385.0</ele><time>2026-03-28T08:56:46.01Z</time></trkpt><trkpt lat="45.823161981761835" lon="9.263166868581928"><ele>385.0</ele><time>2026-03-28T08:56:47.01Z</time></trkpt><trkpt lat="45.82309591768451" lon="9.26340955611175"><ele>385.0</ele><time>2026-03-28T08:56:48.01Z</time></trkpt><trkpt lat="45.823041926602016" lon="9.263645142953344"><ele>385.0</ele><time>2026-03-28T08:56:49.01Z</time></trkpt><trkpt lat="45.82298377067956" lon="9.263877090739214"><ele>383.33333333333337</ele><time>2026-03-28T08:56:50.01Z</time></trkpt><trkpt lat="45.82291053749903" lon="9.264084270794624"><ele>381.6666666666667</ele><time>2026-03-28T08:56:51.01Z</time></trkpt><trkpt lat="45.82281120931675" lon="9.264277734008157"><ele>380.0</ele><time>2026-03-28T08:56:52.01Z</time></trkpt><trkpt lat="45.82269481100691" lon="9.264410075300013"><ele>380.6666666666667</ele><time>2026-03-28T08:56:53.01Z</time></trkpt><trkpt lat="45.822541010615794" lon="9.264512619442304"><ele>381.3333333333333</ele><time>2026-03-28T08:56:54.01Z</time></trkpt><trkpt lat="45.82235259936098" lon="9.264568357476854"><ele>382.0</ele><time>2026-03-28T08:56:55.01Z</time></trkpt><trkpt lat="45.82213682707256" lon="9.264594105526564"><ele>382.0</ele><time>2026-03-28T08:56:56.01Z</time></trkpt><trkpt lat="45.82193225033236" lon="9.264589701555952"><ele>382.0</ele><time>2026-03-28T08:56:57.01Z</time></trkpt><trkpt lat="45.82175337976382" lon="9.264590644724125"><ele>382.0</ele><time>2026-03-28T08:56:58.01Z</time></trkpt><trkpt lat="45.82159049283655" lon="9.264598128714109"><ele>381.5</ele><time>2026-03-28T08:56:59.01Z</time></trkpt><trkpt lat="45.82144391854026" lon="9.264608499410986"><ele>381.0</ele><time>2026-03-28T08:57:00.01Z</time></trkpt><trkpt lat="45.82129630328788" lon="9.264619127493162"><ele>380.5</ele><time>2026-03-28T08:57:01.01Z</time></trkpt><trkpt lat="45.821160478818584" lon="9.264646086653812"><ele>380.0</ele><time>2026-03-28T08:57:02.01Z</time></trkpt><trkpt lat="45.82103765978706" lon="9.26471412408559"><ele>379.75</ele><time>2026-03-28T08:57:03.01Z</time></trkpt><trkpt lat="45.82092930402445" lon="9.264811539217161"><ele>379.5</ele><time>2026-03-28T08:57:04.01Z</time></trkpt><trkpt lat="45.82084189123534" lon="9.264939135923507"><ele>379.25</ele><time>2026-03-28T08:57:05.01Z</time></trkpt><trkpt lat="45.82077267298677" lon="9.265085749398862"><ele>379.0</ele><time>2026-03-28T08:57:06.01Z</time></trkpt><trkpt lat="45.82072419002981" lon="9.26527537990166"><ele>379.0</ele><time>2026-03-28T08:57:07.01Z</time></trkpt><trkpt lat="45.820696398983976" lon="9.265443333992353"><ele>379.0</ele><time>2026-03-28T08:57:08.01Z</time></trkpt><trkpt lat="45.82067478439195" lon="9.265610065347431"><ele>379.0</ele><time>2026-03-28T08:57:09.01Z</time></trkpt><trkpt lat="45.82066039642506" lon="9.265754904259762"><ele>379.0</ele><time>2026-03-28T08:57:10.01Z</time></trkpt><trkpt lat="45.82063532701064" lon="9.26587368472427"><ele>379.0</ele><time>2026-03-28T08:57:11.01Z</time></trkpt><trkpt lat="45.820590037505234" lon="9.265981809489562"><ele>379.0</ele><time>2026-03-28T08:57:12.01Z</time></trkpt><trkpt lat="45.8205234164361" lon="9.266064895843398"><ele>379.0</ele><time>2026-03-28T08:57:13.01Z</time></trkpt><trkpt lat="45.82042283941125" lon="9.26614598483707"><ele>379.0</ele><time>2026-03-28T08:57:14.01Z</time></trkpt><trkpt lat="45.820328217979146" lon="9.266280768166679"><ele>379.0</ele><time>2026-03-28T08:57:15.01Z</time></trkpt><trkpt lat="45.82024729258437" lon="9.266446787097099"><ele>378.66666666666663</ele><time>2026-03-28T08:57:16.01Z</time></trkpt><trkpt lat="45.82013430492866" lon="9.266588186808534"><ele>378.3333333333333</ele><time>2026-03-28T08:57:17.01Z</time></trkpt><trkpt lat="45.82001376795772" lon="9.266726672919912"><ele>378.0</ele><time>2026-03-28T08:57:18.01Z</time></trkpt><trkpt lat="45.81988047727935" lon="9.266856314769692"><ele>378.0</ele><time>2026-03-28T08:57:19.01Z</time></trkpt><trkpt lat="45.81975248480118" lon="9.266992242502871"><ele>378.0</ele><time>2026-03-28T08:57:20.01Z</time></trkpt><trkpt lat="45.81961934627509" lon="9.267125288548227"><ele>378.0</ele><time>2026-03-28T08:57:21.01Z</time></trkpt><trkpt lat="45.81948281029689" lon="9.267256660875628"><ele>378.3333333333333</ele><time>2026-03-28T08:57:22.01Z</time></trkpt><trkpt lat="45.81934586383369" lon="9.267398143532645"><ele>378.66666666666663</ele><time>2026-03-28T08:57:23.01Z</time></trkpt><trkpt lat="45.81919904387874" lon="9.267547181597592"><ele>379.0</ele><time>2026-03-28T08:57:24.01Z</time></trkpt><trkpt lat="45.81905345101985" lon="9.267700514133853"><ele>379.0</ele><time>2026-03-28T08:57:25.01Z</time></trkpt><trkpt lat="45.81890499590404" lon="9.267854963534607"><ele>379.0</ele><time>2026-03-28T08:57:26.01Z</time></trkpt><trkpt lat="45.81875607551751" lon="9.268014722979776"><ele>379.0</ele><time>2026-03-28T08:57:27.011Z</time></trkpt><trkpt lat="45.818604843521406" lon="9.268171163183407"><ele>381.66666666666663</ele><time>2026-03-28T08:57:28.011Z</time></trkpt><trkpt lat="45.81845085745993" lon="9.268327563782444"><ele>384.3333333333333</ele><time>2026-03-28T08:57:29.011Z</time></trkpt><trkpt lat="45.81829966175205" lon="9.268473642678936"><ele>387.0</ele><time>2026-03-28T08:57:30.011Z</time></trkpt><trkpt lat="45.81815519181844" lon="9.268625394096565"><ele>387.0</ele><time>2026-03-28T08:57:31.011Z</time></trkpt><trkpt lat="45.81802183217961" lon="9.268788054907414"><ele>387.0</ele><time>2026-03-28T08:57:32.011Z</time></trkpt><trkpt lat="45.81790581773398" lon="9.268967496662459"><ele>387.0</ele><time>2026-03-28T08:57:33.011Z</time></trkpt><trkpt lat="45.817795464151835" lon="9.269175468405098"><ele>388.0</ele><time>2026-03-28T08:57:34.011Z</time></trkpt><trkpt lat="45.8177262408125" lon="9.269390252765183"><ele>389.0</ele><time>2026-03-28T08:57:35.011Z</time></trkpt><trkpt lat="45.81765676933203" lon="9.26962748452573"><ele>390.0</ele><time>2026-03-28T08:57:36.011Z</time></trkpt><trkpt lat="45.81762081675019" lon="9.269857737340798"><ele>385.0</ele><time>2026-03-28T08:57:37.011Z</time></trkpt><trkpt lat="45.817585863922424" lon="9.270084785043592"><ele>380.0</ele><time>2026-03-28T08:57:38.011Z</time></trkpt><trkpt lat="45.81754129175848" lon="9.2703301149631"><ele>375.0</ele><time>2026-03-28T08:57:39.011Z</time></trkpt><trkpt lat="45.81750560253433" lon="9.270565614549541"><ele>376.3333333333333</ele><time>2026-03-28T08:57:40.011Z</time></trkpt><trkpt lat="45.81745716562631" lon="9.270787336524748"><ele>377.66666666666663</ele><time>2026-03-28T08:57:41.011Z</time></trkpt><trkpt lat="45.817411789165206" lon="9.271008000695275"><ele>379.0</ele><time>2026-03-28T08:57:42.011Z</time></trkpt><trkpt lat="45.817371476971694" lon="9.271217674488389"><ele>379.0</ele><time>2026-03-28T08:57:43.011Z</time></trkpt><trkpt lat="45.81731931130077" lon="9.271404858355643"><ele>379.0</ele><time>2026-03-28T08:57:44.011Z</time></trkpt><trkpt lat="45.817280226415335" lon="9.271605659318995"><ele>379.0</ele><time>2026-03-28T08:57:45.011Z</time></trkpt><trkpt lat="45.81723667310009" lon="9.271811380663326"><ele>379.0</ele><time>2026-03-28T08:57:46.011Z</time></trkpt><trkpt lat="45.817196946126" lon="9.272022137961653"><ele>380.66666666666663</ele><time>2026-03-28T08:57:47.011Z</time></trkpt><trkpt lat="45.817145988286235" lon="9.272231371078787"><ele>382.3333333333333</ele><time>2026-03-28T08:57:48.011Z</time></trkpt><trkpt lat="45.81711937782942" lon="9.272441534762248"><ele>384.0</ele><time>2026-03-28T08:57:49.011Z</time></trkpt><trkpt lat="45.81706869398824" lon="9.272640954916339"><ele>385.66666666666663</ele><time>2026-03-28T08:57:50.011Z</time></trkpt><trkpt lat="45.81702426898148" lon="9.27284664660974"><ele>387.3333333333333</ele><time>2026-03-28T08:57:51.011Z</time></trkpt><trkpt lat="45.8169806170108" lon="9.273065431156216"><ele>389.0</ele><time>2026-03-28T08:57:52.011Z</time></trkpt><trkpt lat="45.81693536356237" lon="9.273277969396714"><ele>390.0</ele><time>2026-03-28T08:57:53.011Z</time></trkpt><trkpt lat="45.81689057595671" lon="9.273477577046396"><ele>391.0</ele><time>2026-03-28T08:57:54.011Z</time></trkpt><trkpt lat="45.8168487206577" lon="9.273671217945088"><ele>392.0</ele><time>2026-03-28T08:57:55.011Z</time></trkpt><trkpt lat="45.8168062503334" lon="9.27387688035128"><ele>393.0</ele><time>2026-03-28T08:57:56.011Z</time></trkpt><trkpt lat="45.81676138334072" lon="9.274073498263444"><ele>393.0</ele><time>2026-03-28T08:57:57.011Z</time></trkpt><trkpt lat="45.81675876873707" lon="9.274292506146308"><ele>393.0</ele><time>2026-03-28T08:57:58.011Z</time></trkpt><trkpt lat="45.81680812003648" lon="9.274463722989665"><ele>393.0</ele><time>2026-03-28T08:57:59.011Z</time></trkpt><trkpt lat="45.81686666996844" lon="9.274607863839519"><ele>393.0</ele><time>2026-03-28T08:58:00.011Z</time></trkpt><trkpt lat="45.816911625009745" lon="9.274729843762392"><ele>391.6666666666667</ele><time>2026-03-28T08:58:01.011Z</time></trkpt><trkpt lat="45.816943946739116" lon="9.274827805017019"><ele>390.33333333333337</ele><time>2026-03-28T08:58:02.011Z</time></trkpt><trkpt lat="45.816934928086496" lon="9.274954863942007"><ele>389.0</ele><time>2026-03-28T08:58:04.011Z</time></trkpt><trkpt lat="45.81683286026848" lon="9.275010760741765"><ele>387.6666666666667</ele><time>2026-03-28T08:58:06.011Z</time></trkpt><trkpt lat="45.81675079203428" lon="9.274978787890248"><ele>386.33333333333337</ele><time>2026-03-28T08:58:07.011Z</time></trkpt><trkpt lat="45.816699503690586" lon="9.274875822118773"><ele>385.0</ele><time>2026-03-28T08:58:08.011Z</time></trkpt><trkpt lat="45.81663548807628" lon="9.274695062377168"><ele>378.5</ele><time>2026-03-28T08:58:09.011Z</time></trkpt><trkpt lat="45.81658361219442" lon="9.27450817546231"><ele>372.0</ele><time>2026-03-28T08:58:10.011Z</time></trkpt><trkpt lat="45.81654319495957" lon="9.274339819316474"><ele>365.5</ele><time>2026-03-28T08:58:11.011Z</time></trkpt><trkpt lat="45.81652838319911" lon="9.274165521056501"><ele>359.0</ele><time>2026-03-28T08:58:12.011Z</time></trkpt><trkpt lat="45.81653423571785" lon="9.273978445926925"><ele>359.25</ele><time>2026-03-28T08:58:13.011Z</time></trkpt><trkpt lat="45.816559195053244" lon="9.273788969731784"><ele>359.5</ele><time>2026-03-28T08:58:14.011Z</time></trkpt><trkpt lat="45.81659957240204" lon="9.273611626818553"><ele>359.75</ele><time>2026-03-28T08:58:15.011Z</time></trkpt><trkpt lat="45.81663158584964" lon="9.27343789494505"><ele>360.0</ele><time>2026-03-28T08:58:16.011Z</time></trkpt><trkpt lat="45.8166576752313" lon="9.273255405844237"><ele>358.5</ele><time>2026-03-28T08:58:17.011Z</time></trkpt><trkpt lat="45.81668186109836" lon="9.273056748466242"><ele>357.0</ele><time>2026-03-28T08:58:18.011Z</time></trkpt><trkpt lat="45.81669585262937" lon="9.272868676261337"><ele>355.5</ele><time>2026-03-28T08:58:19.011Z</time></trkpt><trkpt lat="45.81670776837777" lon="9.272675817883464"><ele>354.0</ele><time>2026-03-28T08:58:20.011Z</time></trkpt><trkpt lat="45.81671541104006" lon="9.272487878833974"><ele>354.0</ele><time>2026-03-28T08:58:21.011Z</time></trkpt><trkpt lat="45.816721103376686" lon="9.272315691009062"><ele>354.0</ele><time>2026-03-28T08:58:22.011Z</time></trkpt><trkpt lat="45.81672027870833" lon="9.27216346923502"><ele>354.0</ele><time>2026-03-28T08:58:23.011Z</time></trkpt><trkpt lat="45.816727959530844" lon="9.27201728673549"><ele>354.0</ele><time>2026-03-28T08:58:24.011Z</time></trkpt><trkpt lat="45.81672450511217" lon="9.271875779235241"><ele>354.0</ele><time>2026-03-28T08:58:25.011Z</time></trkpt><trkpt lat="45.81672607547322" lon="9.271728328954282"><ele>353.25</ele><time>2026-03-28T08:58:26.011Z</time></trkpt><trkpt lat="45.81671855526916" lon="9.27154090958001"><ele>352.5</ele><time>2026-03-28T08:58:27.011Z</time></trkpt><trkpt lat="45.816719398510436" lon="9.271339752122287"><ele>351.75</ele><time>2026-03-28T08:58:28.011Z</time></trkpt><trkpt lat="45.81672157644564" lon="9.271118435358737"><ele>351.0</ele><time>2026-03-28T08:58:29.011Z</time></trkpt><trkpt lat="45.81671887493326" lon="9.27089959476662"><ele>351.0</ele><time>2026-03-28T08:58:30.011Z</time></trkpt><trkpt lat="45.816726677070754" lon="9.270677610205476"><ele>351.0</ele><time>2026-03-28T08:58:31.011Z</time></trkpt><trkpt lat="45.81673173030529" lon="9.270472302858279"><ele>351.0</ele><time>2026-03-28T08:58:32.011Z</time></trkpt><trkpt lat="45.81673818227513" lon="9.270280188962678"><ele>351.0</ele><time>2026-03-28T08:58:33.011Z</time></trkpt><trkpt lat="45.81674083932221" lon="9.270107247336654"><ele>350.8333333333333</ele><time>2026-03-28T08:58:34.011Z</time></trkpt><trkpt lat="45.816743265198895" lon="9.26994895736312"><ele>350.6666666666667</ele><time>2026-03-28T08:58:35.011Z</time></trkpt><trkpt lat="45.81674813326482" lon="9.269816387496682"><ele>350.5</ele><time>2026-03-28T08:58:36.011Z</time></trkpt><trkpt lat="45.816745511403205" lon="9.269717059236957"><ele>350.33333333333337</ele><time>2026-03-28T08:58:37.011Z</time></trkpt><trkpt lat="45.81673389769995" lon="9.269626376941838"><ele>350.1666666666667</ele><time>2026-03-28T08:58:38.011Z</time></trkpt><trkpt lat="45.81664214218119" lon="9.269541924169953"><ele>350.0</ele><time>2026-03-28T08:58:40.011Z</time></trkpt><trkpt lat="45.81656689109562" lon="9.26956908951711"><ele>350.0</ele><time>2026-03-28T08:58:41.011Z</time></trkpt><trkpt lat="45.8164799143797" lon="9.269629965256856"><ele>350.0</ele><time>2026-03-28T08:58:42.011Z</time></trkpt><trkpt lat="45.81641766828017" lon="9.269744078488717"><ele>350.0</ele><time>2026-03-28T08:58:43.011Z</time></trkpt><trkpt lat="45.81638639770305" lon="9.269892214032522"><ele>350.0</ele><time>2026-03-28T08:58:44.011Z</time></trkpt><trkpt lat="45.81637222881002" lon="9.270038104097269"><ele>350.0</ele><time>2026-03-28T08:58:45.011Z</time></trkpt><trkpt lat="45.816349274748205" lon="9.270178530043802"><ele>349.8</ele><time>2026-03-28T08:58:46.011Z</time></trkpt><trkpt lat="45.816318174277924" lon="9.270317388862974"><ele>349.6</ele><time>2026-03-28T08:58:47.011Z</time></trkpt><trkpt lat="45.81628586770397" lon="9.270469686542544"><ele>349.4</ele><time>2026-03-28T08:58:48.012Z</time></trkpt><trkpt lat="45.81625197575857" lon="9.270612987642465"><ele>349.2</ele><time>2026-03-28T08:58:49.012Z</time></trkpt><trkpt lat="45.81622300777673" lon="9.270768321502409"><ele>349.0</ele><time>2026-03-28T08:58:50.012Z</time></trkpt><trkpt lat="45.81619269975348" lon="9.27090955224105"><ele>349.2</ele><time>2026-03-28T08:58:51.012Z</time></trkpt><trkpt lat="45.816162250259715" lon="9.271047245907418"><ele>349.4</ele><time>2026-03-28T08:58:52.012Z</time></trkpt><trkpt lat="45.81613163818199" lon="9.2711784945223"><ele>349.6</ele><time>2026-03-28T08:58:53.012Z</time></trkpt><trkpt lat="45.81609883597734" lon="9.271310915678027"><ele>349.8</ele><time>2026-03-28T08:58:54.012Z</time></trkpt><trkpt lat="45.816062698718966" lon="9.271457908247946"><ele>350.0</ele><time>2026-03-28T08:58:55.012Z</time></trkpt><trkpt lat="45.816010813313795" lon="9.27160313005029"><ele>347.4</ele><time>2026-03-28T08:58:56.012Z</time></trkpt><trkpt lat="45.81593819877307" lon="9.2717326852886"><ele>344.8</ele><time>2026-03-28T08:58:57.012Z</time></trkpt><trkpt lat="45.81585496176261" lon="9.271837342116507"><ele>342.20000000000005</ele><time>2026-03-28T08:58:58.012Z</time></trkpt><trkpt lat="45.815764659424" lon="9.27191908904135"><ele>339.6</ele><time>2026-03-28T08:58:59.012Z</time></trkpt><trkpt lat="45.81567339337569" lon="9.272001992434815"><ele>337.0</ele><time>2026-03-28T08:59:00.012Z</time></trkpt><trkpt lat="45.81558118739406" lon="9.272085747450248"><ele>337.0</ele><time>2026-03-28T08:59:01.012Z</time></trkpt><trkpt lat="45.81548878068151" lon="9.272171194564159"><ele>337.0</ele><time>2026-03-28T08:59:02.012Z</time></trkpt><trkpt lat="45.81540218035545" lon="9.27226468087087"><ele>337.0</ele><time>2026-03-28T08:59:03.012Z</time></trkpt><trkpt lat="45.815341032178985" lon="9.272363806142936"><ele>337.0</ele><time>2026-03-28T08:59:04.012Z</time></trkpt><trkpt lat="45.815315027233275" lon="9.272478239005544"><ele>337.0</ele><time>2026-03-28T08:59:05.012Z</time></trkpt><trkpt lat="45.81530405435074" lon="9.272630910595199"><ele>337.66666666666663</ele><time>2026-03-28T08:59:06.012Z</time></trkpt><trkpt lat="45.81530645073998" lon="9.272820863812232"><ele>338.3333333333333</ele><time>2026-03-28T08:59:07.012Z</time></trkpt><trkpt lat="45.81531264884399" lon="9.273020182133497"><ele>339.0</ele><time>2026-03-28T08:59:08.012Z</time></trkpt><trkpt lat="45.815342352306125" lon="9.27327925504083"><ele>339.6666666666667</ele><time>2026-03-28T08:59:09.012Z</time></trkpt><trkpt lat="45.81537260909682" lon="9.27352462982794"><ele>340.33333333333337</ele><time>2026-03-28T08:59:10.012Z</time></trkpt><trkpt lat="45.8153949552809" lon="9.27377055687283"><ele>341.0</ele><time>2026-03-28T08:59:11.012Z</time></trkpt><trkpt lat="45.8153989069669" lon="9.274027148114948"><ele>339.0</ele><time>2026-03-28T08:59:12.012Z</time></trkpt><trkpt lat="45.815418435900824" lon="9.27431892639677"><ele>337.0</ele><time>2026-03-28T08:59:13.012Z</time></trkpt><trkpt lat="45.815449482843455" lon="9.274612200515186"><ele>335.0</ele><time>2026-03-28T08:59:14.012Z</time></trkpt><trkpt lat="45.815474074516544" lon="9.27489747120639"><ele>333.0</ele><time>2026-03-28T08:59:15.012Z</time></trkpt><trkpt lat="45.81549803392806" lon="9.275177138376725"><ele>331.0</ele><time>2026-03-28T08:59:16.012Z</time></trkpt><trkpt lat="45.8155195499286" lon="9.275442767914154"><ele>329.0</ele><time>2026-03-28T08:59:17.012Z</time></trkpt><trkpt lat="45.8155524785279" lon="9.27571235197166"><ele>325.6666666666667</ele><time>2026-03-28T08:59:18.012Z</time></trkpt><trkpt lat="45.8155831918263" lon="9.27596707862862"><ele>322.3333333333333</ele><time>2026-03-28T08:59:19.012Z</time></trkpt><trkpt lat="45.81563112475053" lon="9.276230355854855"><ele>319.0</ele><time>2026-03-28T08:59:20.012Z</time></trkpt><trkpt lat="45.81569124964007" lon="9.276482335702482"><ele>317.3333333333333</ele><time>2026-03-28T08:59:21.012Z</time></trkpt><trkpt lat="45.815769626709276" lon="9.276727670416486"><ele>315.6666666666667</ele><time>2026-03-28T08:59:22.012Z</time></trkpt><trkpt lat="45.815824137259575" lon="9.276962924067881"><ele>314.0</ele><time>2026-03-28T08:59:23.012Z</time></trkpt><trkpt lat="45.81588384689197" lon="9.277210321844494"><ele>312.33333333333337</ele><time>2026-03-28T08:59:24.012Z</time></trkpt><trkpt lat="45.81594712153418" lon="9.277444989467769"><ele>310.6666666666667</ele><time>2026-03-28T08:59:25.012Z</time></trkpt><trkpt lat="45.81600663296" lon="9.277678610965056"><ele>309.0</ele><time>2026-03-28T08:59:26.012Z</time></trkpt><trkpt lat="45.81606782889164" lon="9.277909281924524"><ele>310.6666666666667</ele><time>2026-03-28T08:59:27.012Z</time></trkpt><trkpt lat="45.81612174465785" lon="9.278136821915078"><ele>312.33333333333337</ele><time>2026-03-28T08:59:28.012Z</time></trkpt><trkpt lat="45.816172715750845" lon="9.278364630185196"><ele>314.0</ele><time>2026-03-28T08:59:29.012Z</time></trkpt><trkpt lat="45.816230834070645" lon="9.278596019388628"><ele>314.0</ele><time>2026-03-28T08:59:30.012Z</time></trkpt><trkpt lat="45.816276613599925" lon="9.278829437548408"><ele>314.0</ele><time>2026-03-28T08:59:31.012Z</time></trkpt><trkpt lat="45.816304395866744" lon="9.279067856313231"><ele>314.0</ele><time>2026-03-28T08:59:32.012Z</time></trkpt><trkpt lat="45.816301095444885" lon="9.27931238144595"><ele>311.6666666666667</ele><time>2026-03-28T08:59:33.012Z</time></trkpt><trkpt lat="45.81627135190278" lon="9.27954013598436"><ele>309.3333333333333</ele><time>2026-03-28T08:59:34.012Z</time></trkpt><trkpt lat="45.81620983017153" lon="9.279746107726647"><ele>307.0</ele><time>2026-03-28T08:59:35.012Z</time></trkpt><trkpt lat="45.81613282011903" lon="9.279948328223657"><ele>305.66666666666663</ele><time>2026-03-28T08:59:36.012Z</time></trkpt><trkpt lat="45.81606239089003" lon="9.2801530798287"><ele>304.3333333333333</ele><time>2026-03-28T08:59:37.012Z</time></trkpt><trkpt lat="45.815996572256154" lon="9.280354187092351"><ele>303.0</ele><time>2026-03-28T08:59:38.012Z</time></trkpt><trkpt lat="45.81592455998781" lon="9.280552590447577"><ele>300.0</ele><time>2026-03-28T08:59:39.012Z</time></trkpt><trkpt lat="45.81585385387661" lon="9.280741884028378"><ele>297.0</ele><time>2026-03-28T08:59:40.012Z</time></trkpt><trkpt lat="45.81579058978798" lon="9.280926623918084"><ele>294.0</ele><time>2026-03-28T08:59:41.012Z</time></trkpt><trkpt lat="45.815729424562406" lon="9.281106375183732"><ele>291.0</ele><time>2026-03-28T08:59:42.012Z</time></trkpt><trkpt lat="45.81567017789365" lon="9.281283601573916"><ele>291.25</ele><time>2026-03-28T08:59:43.012Z</time></trkpt><trkpt lat="45.815613647697354" lon="9.28145210036349"><ele>291.5</ele><time>2026-03-28T08:59:44.012Z</time></trkpt><trkpt lat="45.81555245936563" lon="9.281625283308484"><ele>291.75</ele><time>2026-03-28T08:59:45.012Z</time></trkpt><trkpt lat="45.815488531456836" lon="9.281795235454052"><ele>292.0</ele><time>2026-03-28T08:59:46.012Z</time></trkpt><trkpt lat="45.815426283249785" lon="9.281968119694818"><ele>292.0</ele><time>2026-03-28T08:59:47.012Z</time></trkpt><trkpt lat="45.81536520504039" lon="9.282139291277428"><ele>292.0</ele><time>2026-03-28T08:59:48.012Z</time></trkpt><trkpt lat="45.81530437300964" lon="9.282313377885355"><ele>292.0</ele><time>2026-03-28T08:59:49.012Z</time></trkpt><trkpt lat="45.81524035551082" lon="9.282476237937718"><ele>292.0</ele><time>2026-03-28T08:59:50.012Z</time></trkpt><trkpt lat="45.81518776233948" lon="9.282659596291367"><ele>288.5</ele><time>2026-03-28T08:59:51.012Z</time></trkpt><trkpt lat="45.81513122530024" lon="9.282829816328277"><ele>285.0</ele><time>2026-03-28T08:59:52.012Z</time></trkpt><trkpt lat="45.81507786951174" lon="9.282999098081703"><ele>281.5</ele><time>2026-03-28T08:59:53.012Z</time></trkpt><trkpt lat="45.815040461624285" lon="9.283184515315991"><ele>278.0</ele><time>2026-03-28T08:59:54.012Z</time></trkpt><trkpt lat="45.81500929917398" lon="9.283370631625212"><ele>278.0</ele><time>2026-03-28T08:59:55.012Z</time></trkpt><trkpt lat="45.81497665334669" lon="9.283554880053059"><ele>278.0</ele><time>2026-03-28T08:59:56.012Z</time></trkpt><trkpt lat="45.814954286038976" lon="9.283737091282832"><ele>278.0</ele><time>2026-03-28T08:59:57.012Z</time></trkpt><trkpt lat="45.81492466435114" lon="9.283921055825344"><ele>278.0</ele><time>2026-03-28T08:59:58.012Z</time></trkpt><trkpt lat="45.814897364346784" lon="9.284116223872086"><ele>277.33333333333337</ele><time>2026-03-28T08:59:59.012Z</time></trkpt><trkpt lat="45.81484335988793" lon="9.284368016015588"><ele>276.6666666666667</ele><time>2026-03-28T09:00:00.012Z</time></trkpt><trkpt lat="45.81481093770024" lon="9.284635054716963"><ele>276.0</ele><time>2026-03-28T09:00:01.012Z</time></trkpt><trkpt lat="45.814777411315376" lon="9.284912088648108"><ele>275.6666666666667</ele><time>2026-03-28T09:00:02.012Z</time></trkpt><trkpt lat="45.81472687412527" lon="9.285163420486915"><ele>275.33333333333337</ele><time>2026-03-28T09:00:03.012Z</time></trkpt><trkpt lat="45.81469096328434" lon="9.285409949504517"><ele>275.0</ele><time>2026-03-28T09:00:04.012Z</time></trkpt><trkpt lat="45.81465727400771" lon="9.285645988525033"><ele>274.75</ele><time>2026-03-28T09:00:05.012Z</time></trkpt><trkpt lat="45.814621463743876" lon="9.28586493230156"><ele>274.5</ele><time>2026-03-28T09:00:06.012Z</time></trkpt><trkpt lat="45.81457610692589" lon="9.286069219295678"><ele>274.25</ele><time>2026-03-28T09:00:07.012Z</time></trkpt><trkpt lat="45.814524537846026" lon="9.2862561814287"><ele>274.0</ele><time>2026-03-28T09:00:08.012Z</time></trkpt><trkpt lat="45.81452556713929" lon="9.286469707471959"><ele>274.0</ele><time>2026-03-28T09:00:09.013Z</time></trkpt><trkpt lat="45.814454263131914" lon="9.286625203915161"><ele>274.0</ele><time>2026-03-28T09:00:10.013Z</time></trkpt><trkpt lat="45.81437293887643" lon="9.28673724729076"><ele>274.0</ele><time>2026-03-28T09:00:11.013Z</time></trkpt><trkpt lat="45.81428566013507" lon="9.286796176351027"><ele>274.0</ele><time>2026-03-28T09:00:12.013Z</time></trkpt><trkpt lat="45.8142056355449" lon="9.286768479060012"><ele>274.0</ele><time>2026-03-28T09:00:13.013Z</time></trkpt><trkpt lat="45.814140939481156" lon="9.286776196926434"><ele>272.8</ele><time>2026-03-28T09:00:19.013Z</time></trkpt><trkpt lat="45.81403794454152" lon="9.28678999803859"><ele>271.59999999999997</ele><time>2026-03-28T09:00:57.013Z</time></trkpt><trkpt lat="45.81393859420713" lon="9.286786881415084"><ele>270.4</ele><time>2026-03-28T09:00:59.013Z</time></trkpt><trkpt lat="45.81383582473528" lon="9.286776932949989"><ele>269.2</ele><time>2026-03-28T09:01:01.013Z</time></trkpt><trkpt lat="45.81373164830734" lon="9.286778872969759"><ele>268.0</ele><time>2026-03-28T09:01:04.013Z</time></trkpt><trkpt lat="45.81356303396011" lon="9.286999267199853"><ele>268.0</ele><time>2026-03-28T09:01:05.013Z</time></trkpt><trkpt lat="45.813567319701534" lon="9.287149678348928"><ele>268.0</ele><time>2026-03-28T09:01:06.013Z</time></trkpt><trkpt lat="45.81357912309482" lon="9.28730148891376"><ele>268.0</ele><time>2026-03-28T09:01:07.013Z</time></trkpt><trkpt lat="45.813589853318746" lon="9.28740780392604"><ele>268.0</ele><time>2026-03-28T09:01:08.013Z</time></trkpt><trkpt lat="45.813604936848265" lon="9.287540378533365"><ele>268.0</ele><time>2026-03-28T09:01:09.013Z</time></trkpt><trkpt lat="45.813636940295595" lon="9.287685458279032"><ele>268.5</ele><time>2026-03-28T09:01:10.013Z</time></trkpt><trkpt lat="45.81364261403988" lon="9.287836706129251"><ele>269.0</ele><time>2026-03-28T09:01:11.013Z</time></trkpt><trkpt lat="45.813661598044604" lon="9.288003098157832"><ele>269.5</ele><time>2026-03-28T09:01:12.013Z</time></trkpt><trkpt lat="45.81368764116534" lon="9.288193329445942"><ele>270.0</ele><time>2026-03-28T09:01:13.013Z</time></trkpt><trkpt lat="45.81371862108485" lon="9.288394931540127"><ele>270.0</ele><time>2026-03-28T09:01:14.013Z</time></trkpt><trkpt lat="45.81374264719924" lon="9.28858190531967"><ele>270.0</ele><time>2026-03-28T09:01:15.013Z</time></trkpt><trkpt lat="45.813769826752896" lon="9.288784664810256"><ele>270.0</ele><time>2026-03-28T09:01:16.013Z</time></trkpt><trkpt lat="45.8137988964158" lon="9.288990294561197"><ele>270.0</ele><time>2026-03-28T09:01:17.013Z</time></trkpt><trkpt lat="45.81383535464924" lon="9.289197469226352"><ele>269.0</ele><time>2026-03-28T09:01:18.013Z</time></trkpt><trkpt lat="45.813882502102885" lon="9.289409163298425"><ele>268.0</ele><time>2026-03-28T09:01:19.013Z</time></trkpt><trkpt lat="45.813939647641554" lon="9.289622925827224"><ele>267.0</ele><time>2026-03-28T09:01:20.013Z</time></trkpt><trkpt lat="45.81398735895414" lon="9.289833799454437"><ele>267.0</ele><time>2026-03-28T09:01:21.013Z</time></trkpt><trkpt lat="45.81404593874502" lon="9.290034633549233"><ele>267.0</ele><time>2026-03-28T09:01:22.013Z</time></trkpt><trkpt lat="45.814093080229306" lon="9.290219673611016"><ele>267.0</ele><time>2026-03-28T09:01:23.013Z</time></trkpt><trkpt lat="45.814128266550505" lon="9.29037885329069"><ele>267.0</ele><time>2026-03-28T09:01:24.013Z</time></trkpt><trkpt lat="45.81415507115463" lon="9.290510032147115"><ele>266.2</ele><time>2026-03-28T09:01:25.013Z</time></trkpt><trkpt lat="45.814178536402856" lon="9.290625784662723"><ele>265.4</ele><time>2026-03-28T09:01:26.013Z</time></trkpt><trkpt lat="45.81420679460567" lon="9.2907880445878"><ele>264.6</ele><time>2026-03-28T09:01:28.013Z</time></trkpt><trkpt lat="45.814189264910944" lon="9.290928110279387"><ele>263.8</ele><time>2026-03-28T09:01:30.014Z</time></trkpt><trkpt lat="45.814162220139835" lon="9.291053796071942"><ele>263.0</ele><time>2026-03-28T09:01:32.014Z</time></trkpt><trkpt lat="45.81418062469858" lon="9.291212884283105"><ele>263.0</ele><time>2026-03-28T09:01:34.014Z</time></trkpt><trkpt lat="45.814221502868214" lon="9.291290840652852"><ele>263.0</ele><time>2026-03-28T09:01:35.014Z</time></trkpt><trkpt lat="45.814287377109" lon="9.291393428820042"><ele>263.0</ele><time>2026-03-28T09:01:36.014Z</time></trkpt><trkpt lat="45.814349943085645" lon="9.29149309815254"><ele>263.0</ele><time>2026-03-28T09:01:37.014Z</time></trkpt><trkpt lat="45.81440795756519" lon="9.291609211538404"><ele>263.0</ele><time>2026-03-28T09:01:38.014Z</time></trkpt><trkpt lat="45.81445583638064" lon="9.291744467485582"><ele>263.5</ele><time>2026-03-28T09:01:39.014Z</time></trkpt><trkpt lat="45.81450193737991" lon="9.291893021966532"><ele>264.0</ele><time>2026-03-28T09:01:40.014Z</time></trkpt><trkpt lat="45.814542509565236" lon="9.29205535200597"><ele>264.5</ele><time>2026-03-28T09:01:41.014Z</time></trkpt><trkpt lat="45.81457508227851" lon="9.292219755066336"><ele>265.0</ele><time>2026-03-28T09:01:42.014Z</time></trkpt><trkpt lat="45.81460596504718" lon="9.292400044987946"><ele>265.0</ele><time>2026-03-28T09:01:43.014Z</time></trkpt><trkpt lat="45.814639055601866" lon="9.292586608999494"><ele>265.0</ele><time>2026-03-28T09:01:44.014Z</time></trkpt><trkpt lat="45.814673224371994" lon="9.292762463962555"><ele>265.0</ele><time>2026-03-28T09:01:45.014Z</time></trkpt><trkpt lat="45.814716027612015" lon="9.292933794314262"><ele>265.0</ele><time>2026-03-28T09:01:46.014Z</time></trkpt><trkpt lat="45.81475986356557" lon="9.293098885711473"><ele>265.0</ele><time>2026-03-28T09:01:47.014Z</time></trkpt><trkpt lat="45.81480858755203" lon="9.293263012730241"><ele>265.0</ele><time>2026-03-28T09:01:48.014Z</time></trkpt><trkpt lat="45.81485807165653" lon="9.29341822392499"><ele>265.0</ele><time>2026-03-28T09:01:49.014Z</time></trkpt><trkpt lat="45.814913999736326" lon="9.29357936543598"><ele>265.0</ele><time>2026-03-28T09:01:50.014Z</time></trkpt><trkpt lat="45.81497646726127" lon="9.293744076481014"><ele>265.0</ele><time>2026-03-28T09:01:51.014Z</time></trkpt><trkpt lat="45.81503946077485" lon="9.293901869189497"><ele>265.0</ele><time>2026-03-28T09:01:52.014Z</time></trkpt><trkpt lat="45.815092948117965" lon="9.294043593821673"><ele>265.0</ele><time>2026-03-28T09:01:53.014Z</time></trkpt><trkpt lat="45.815144132790124" lon="9.294177421911623"><ele>265.0</ele><time>2026-03-28T09:01:54.014Z</time></trkpt><trkpt lat="45.81519344672048" lon="9.294307973712137"><ele>265.0</ele><time>2026-03-28T09:01:55.014Z</time></trkpt><trkpt lat="45.815242221804745" lon="9.294433736469427"><ele>266.3333333333333</ele><time>2026-03-28T09:01:56.014Z</time></trkpt><trkpt lat="45.81528344407185" lon="9.294549060505494"><ele>267.66666666666663</ele><time>2026-03-28T09:01:57.014Z</time></trkpt><trkpt lat="45.81532338497936" lon="9.294661307692543"><ele>269.0</ele><time>2026-03-28T09:01:58.014Z</time></trkpt><trkpt lat="45.81536259664914" lon="9.294772400540161"><ele>270.3333333333333</ele><time>2026-03-28T09:01:59.014Z</time></trkpt><trkpt lat="45.815402871395946" lon="9.294882608450564"><ele>271.6666666666667</ele><time>2026-03-28T09:02:00.014Z</time></trkpt><trkpt lat="45.81544471432188" lon="9.294998299653034"><ele>273.0</ele><time>2026-03-28T09:02:01.014Z</time></trkpt><trkpt lat="45.815488292730215" lon="9.295125931455672"><ele>273.0</ele><time>2026-03-28T09:02:02.014Z</time></trkpt><trkpt lat="45.81552769567238" lon="9.295258287065568"><ele>273.0</ele><time>2026-03-28T09:02:03.014Z</time></trkpt><trkpt lat="45.815564947739105" lon="9.295394115194497"><ele>273.0</ele><time>2026-03-28T09:02:04.014Z</time></trkpt><trkpt lat="45.81559938543848" lon="9.295531433217183"><ele>273.0</ele><time>2026-03-28T09:02:05.014Z</time></trkpt><trkpt lat="45.81562986508812" lon="9.295678609060323"><ele>273.0</ele><time>2026-03-28T09:02:06.014Z</time></trkpt><trkpt lat="45.8156647114878" lon="9.295820598975006"><ele>273.1666666666667</ele><time>2026-03-28T09:02:07.014Z</time></trkpt><trkpt lat="45.81569113402226" lon="9.295951587983406"><ele>273.3333333333333</ele><time>2026-03-28T09:02:08.014Z</time></trkpt><trkpt lat="45.81572030094014" lon="9.296091296194549"><ele>273.5</ele><time>2026-03-28T09:02:09.014Z</time></trkpt><trkpt lat="45.815746821633915" lon="9.296211900993836"><ele>273.66666666666663</ele><time>2026-03-28T09:02:10.014Z</time></trkpt><trkpt lat="45.81577174696248" lon="9.29632611288878"><ele>273.8333333333333</ele><time>2026-03-28T09:02:11.014Z</time></trkpt><trkpt lat="45.81579030767748" lon="9.296429318370626"><ele>274.0</ele><time>2026-03-28T09:02:12.014Z</time></trkpt><trkpt lat="45.8158062209908" lon="9.296540983745523"><ele>274.16666666666663</ele><time>2026-03-28T09:02:13.014Z</time></trkpt><trkpt lat="45.815826495293955" lon="9.296659584491147"><ele>274.3333333333333</ele><time>2026-03-28T09:02:14.014Z</time></trkpt><trkpt lat="45.815844531998124" lon="9.296781022980184"><ele>274.5</ele><time>2026-03-28T09:02:15.014Z</time></trkpt><trkpt lat="45.81586025795036" lon="9.29689443113899"><ele>274.6666666666667</ele><time>2026-03-28T09:02:16.014Z</time></trkpt><trkpt lat="45.815870623593135" lon="9.296991433721638"><ele>274.83333333333337</ele><time>2026-03-28T09:02:17.014Z</time></trkpt><trkpt lat="45.81588125026053" lon="9.297089147235257"><ele>275.0</ele><time>2026-03-28T09:02:18.014Z</time></trkpt><trkpt lat="45.815892208758974" lon="9.297183003200946"><ele>274.83333333333337</ele><time>2026-03-28T09:02:19.014Z</time></trkpt><trkpt lat="45.81590036560324" lon="9.297276453276215"><ele>274.6666666666667</ele><time>2026-03-28T09:02:20.014Z</time></trkpt><trkpt lat="45.815908234696515" lon="9.29737798203671"><ele>274.5</ele><time>2026-03-28T09:02:21.014Z</time></trkpt><trkpt lat="45.81591355527503" lon="9.297487135686719"><ele>274.3333333333333</ele><time>2026-03-28T09:02:22.014Z</time></trkpt><trkpt lat="45.81591884166979" lon="9.297601126249655"><ele>274.16666666666663</ele><time>2026-03-28T09:02:23.014Z</time></trkpt><trkpt lat="45.81592051809059" lon="9.297721952345775"><ele>274.0</ele><time>2026-03-28T09:02:24.014Z</time></trkpt><trkpt lat="45.815923217370376" lon="9.297831639736502"><ele>274.0</ele><time>2026-03-28T09:02:25.014Z</time></trkpt><trkpt lat="45.815926440667184" lon="9.297931568872377"><ele>274.0</ele><time>2026-03-28T09:02:26.014Z</time></trkpt><trkpt lat="45.81590940236121" lon="9.298091442014425"><ele>274.0</ele><time>2026-03-28T09:02:28.014Z</time></trkpt><trkpt lat="45.815861769991535" lon="9.29822171898907"><ele>274.0</ele><time>2026-03-28T09:02:30.014Z</time></trkpt><trkpt lat="45.81578149128748" lon="9.298345830480676"><ele>274.0</ele><time>2026-03-28T09:02:32.014Z</time></trkpt><trkpt lat="45.815771089887164" lon="9.298489325260467"><ele>273.8</ele><time>2026-03-28T09:02:34.014Z</time></trkpt><trkpt lat="45.8158235776331" lon="9.298610066107504"><ele>273.59999999999997</ele><time>2026-03-28T09:02:36.014Z</time></trkpt><trkpt lat="45.81588691653011" lon="9.298734969483728"><ele>273.4</ele><time>2026-03-28T09:02:38.014Z</time></trkpt><trkpt lat="45.8159249424393" lon="9.29886927208603"><ele>273.2</ele><time>2026-03-28T09:02:40.014Z</time></trkpt><trkpt lat="45.81592890033459" lon="9.299019455694916"><ele>273.0</ele><time>2026-03-28T09:02:42.014Z</time></trkpt><trkpt lat="45.81593107472583" lon="9.299128884057632"><ele>273.4</ele><time>2026-03-28T09:02:43.014Z</time></trkpt><trkpt lat="45.81593124644496" lon="9.299259480984682"><ele>273.8</ele><time>2026-03-28T09:02:44.014Z</time></trkpt><trkpt lat="45.81592971760896" lon="9.299398080003613"><ele>274.2</ele><time>2026-03-28T09:02:45.014Z</time></trkpt><trkpt lat="45.81592956178654" lon="9.299547187625956"><ele>274.6</ele><time>2026-03-28T09:02:46.014Z</time></trkpt><trkpt lat="45.81593371163816" lon="9.299704099653948"><ele>275.0</ele><time>2026-03-28T09:02:47.014Z</time></trkpt><trkpt lat="45.81593771501061" lon="9.299860724324295"><ele>275.4</ele><time>2026-03-28T09:02:48.014Z</time></trkpt><trkpt lat="45.81594003725808" lon="9.300007112987982"><ele>275.8</ele><time>2026-03-28T09:02:49.014Z</time></trkpt><trkpt lat="45.815943878135194" lon="9.300164648722227"><ele>276.2</ele><time>2026-03-28T09:02:50.014Z</time></trkpt><trkpt lat="45.81594991390978" lon="9.300328718965396"><ele>276.6</ele><time>2026-03-28T09:02:51.015Z</time></trkpt><trkpt lat="45.81595613044542" lon="9.300499412809888"><ele>277.0</ele><time>2026-03-28T09:02:52.015Z</time></trkpt><trkpt lat="45.815961759652296" lon="9.3006839342246"><ele>277.75</ele><time>2026-03-28T09:02:53.015Z</time></trkpt><trkpt lat="45.81597775329969" lon="9.300875739126107"><ele>278.5</ele><time>2026-03-28T09:02:54.015Z</time></trkpt><trkpt lat="45.81600116950043" lon="9.301045433159809"><ele>279.25</ele><time>2026-03-28T09:02:55.015Z</time></trkpt><trkpt lat="45.816032581458444" lon="9.301217830027502"><ele>280.0</ele><time>2026-03-28T09:02:56.015Z</time></trkpt><trkpt lat="45.816067347864355" lon="9.301395214063444"><ele>280.5</ele><time>2026-03-28T09:02:57.015Z</time></trkpt><trkpt lat="45.81611698214331" lon="9.301579710853547"><ele>281.0</ele><time>2026-03-28T09:02:58.015Z</time></trkpt><trkpt lat="45.816171932927475" lon="9.301750588801251"><ele>281.5</ele><time>2026-03-28T09:02:59.015Z</time></trkpt><trkpt lat="45.81622535149516" lon="9.30191471312836"><ele>282.0</ele><time>2026-03-28T09:03:00.015Z</time></trkpt><trkpt lat="45.816286091415236" lon="9.30208588045857"><ele>281.25</ele><time>2026-03-28T09:03:01.015Z</time></trkpt><trkpt lat="45.816348121455555" lon="9.302252645982596"><ele>280.5</ele><time>2026-03-28T09:03:02.015Z</time></trkpt><trkpt lat="45.8164032343925" lon="9.30241379936185"><ele>279.75</ele><time>2026-03-28T09:03:03.015Z</time></trkpt><trkpt lat="45.81646362938253" lon="9.302580251631099"><ele>279.0</ele><time>2026-03-28T09:03:04.015Z</time></trkpt><trkpt lat="45.816526650455586" lon="9.302749963659846"><ele>279.0</ele><time>2026-03-28T09:03:05.015Z</time></trkpt><trkpt lat="45.816586893867246" lon="9.302919955043492"><ele>279.0</ele><time>2026-03-28T09:03:06.015Z</time></trkpt><trkpt lat="45.81664763340334" lon="9.303099423315343"><ele>279.0</ele><time>2026-03-28T09:03:07.015Z</time></trkpt><trkpt lat="45.81671125110321" lon="9.303287051019623"><ele>279.0</ele><time>2026-03-28T09:03:08.015Z</time></trkpt><trkpt lat="45.81676667530657" lon="9.303471227377045"><ele>280.25</ele><time>2026-03-28T09:03:09.015Z</time></trkpt><trkpt lat="45.816816640085676" lon="9.303652770245515"><ele>281.5</ele><time>2026-03-28T09:03:10.015Z</time></trkpt><trkpt lat="45.8168672051072" lon="9.303831224449619"><ele>282.75</ele><time>2026-03-28T09:03:11.015Z</time></trkpt><trkpt lat="45.81691004836141" lon="9.303996969965144"><ele>284.0</ele><time>2026-03-28T09:03:12.015Z</time></trkpt><trkpt lat="45.81694830569782" lon="9.30415294461088"><ele>283.5</ele><time>2026-03-28T09:03:13.015Z</time></trkpt><trkpt lat="45.81698883838627" lon="9.304312926386505"><ele>283.0</ele><time>2026-03-28T09:03:14.015Z</time></trkpt><trkpt lat="45.81701174243444" lon="9.30448208587697"><ele>282.5</ele><time>2026-03-28T09:03:15.015Z</time></trkpt><trkpt lat="45.817041747494855" lon="9.304634562909662"><ele>282.0</ele><time>2026-03-28T09:03:16.015Z</time></trkpt><trkpt lat="45.81708327841032" lon="9.304785128096404"><ele>282.0</ele><time>2026-03-28T09:03:17.015Z</time></trkpt><trkpt lat="45.81710983478247" lon="9.304938265011579"><ele>282.0</ele><time>2026-03-28T09:03:18.015Z</time></trkpt><trkpt lat="45.81713609774408" lon="9.305089543492041"><ele>282.0</ele><time>2026-03-28T09:03:19.015Z</time></trkpt><trkpt lat="45.81715991633989" lon="9.305237805349789"><ele>282.0</ele><time>2026-03-28T09:03:20.015Z</time></trkpt><trkpt lat="45.81718544800299" lon="9.305386834653678"><ele>282.0</ele><time>2026-03-28T09:03:21.015Z</time></trkpt><trkpt lat="45.817216500927096" lon="9.30555131500724"><ele>281.2</ele><time>2026-03-28T09:03:22.015Z</time></trkpt><trkpt lat="45.817250906908356" lon="9.305707966453841"><ele>280.4</ele><time>2026-03-28T09:03:23.015Z</time></trkpt><trkpt lat="45.817278982401014" lon="9.30585544069828"><ele>279.6</ele><time>2026-03-28T09:03:24.015Z</time></trkpt><trkpt lat="45.81730880952224" lon="9.305987411034756"><ele>278.8</ele><time>2026-03-28T09:03:25.015Z</time></trkpt><trkpt lat="45.81732984447632" lon="9.306102254156801"><ele>278.0</ele><time>2026-03-28T09:03:26.015Z</time></trkpt><trkpt lat="45.81734413159079" lon="9.306200261889144"><ele>278.0</ele><time>2026-03-28T09:03:27.015Z</time></trkpt><trkpt lat="45.81737284290539" lon="9.306336235766837"><ele>278.0</ele><time>2026-03-28T09:03:29.015Z</time></trkpt><trkpt lat="45.8173580359896" lon="9.306443312360352"><ele>278.0</ele><time>2026-03-28T09:03:31.015Z</time></trkpt><trkpt lat="45.817366786069854" lon="9.306567574412643"><ele>278.0</ele><time>2026-03-28T09:03:34.015Z</time></trkpt><trkpt lat="45.81733196858757" lon="9.306649483748105"><ele>278.0</ele><time>2026-03-28T09:03:35.015Z</time></trkpt><trkpt lat="45.817270883539756" lon="9.306755152538823"><ele>278.0</ele><time>2026-03-28T09:03:36.015Z</time></trkpt><trkpt lat="45.81716254833377" lon="9.306832440698178"><ele>277.5</ele><time>2026-03-28T09:03:37.015Z</time></trkpt><trkpt lat="45.81705236509511" lon="9.306930733033866"><ele>277.0</ele><time>2026-03-28T09:03:38.015Z</time></trkpt><trkpt lat="45.816950715150654" lon="9.30703514010942"><ele>276.5</ele><time>2026-03-28T09:03:39.015Z</time></trkpt><trkpt lat="45.81683365147844" lon="9.307152555051353"><ele>276.0</ele><time>2026-03-28T09:03:40.015Z</time></trkpt><trkpt lat="45.816722475460985" lon="9.307276403232725"><ele>274.6666666666667</ele><time>2026-03-28T09:03:41.015Z</time></trkpt><trkpt lat="45.816602139681656" lon="9.307401248987683"><ele>273.33333333333337</ele><time>2026-03-28T09:03:42.015Z</time></trkpt><trkpt lat="45.81647942656559" lon="9.307540145936338"><ele>272.0</ele><time>2026-03-28T09:03:43.004Z</time></trkpt><trkpt lat="45.81634768723691" lon="9.30769673824027"><ele>272.0</ele><time>2026-03-28T09:03:44.004Z</time></trkpt><trkpt lat="45.8162187505105" lon="9.307852954159356"><ele>272.0</ele><time>2026-03-28T09:03:45.004Z</time></trkpt><trkpt lat="45.816099745724514" lon="9.307996392475856"><ele>272.0</ele><time>2026-03-28T09:03:46.004Z</time></trkpt><trkpt lat="45.815982175879455" lon="9.308121512536108"><ele>271.5</ele><time>2026-03-28T09:03:47.004Z</time></trkpt><trkpt lat="45.8158694658917" lon="9.308243999690362"><ele>271.0</ele><time>2026-03-28T09:03:48.004Z</time></trkpt><trkpt lat="45.81577077328553" lon="9.30833594289703"><ele>270.5</ele><time>2026-03-28T09:03:49.004Z</time></trkpt><trkpt lat="45.815677860120054" lon="9.308417198544504"><ele>270.0</ele><time>2026-03-28T09:03:50.004Z</time></trkpt><trkpt lat="45.81559752166479" lon="9.308499982550387"><ele>270.0</ele><time>2026-03-28T09:03:51.004Z</time></trkpt><trkpt lat="45.81553645703352" lon="9.308591294209005"><ele>270.0</ele><time>2026-03-28T09:03:52.004Z</time></trkpt><trkpt lat="45.81548489769579" lon="9.308680080765244"><ele>270.0</ele><time>2026-03-28T09:03:53.004Z</time></trkpt><trkpt lat="45.81544604071921" lon="9.308757488174216"><ele>270.0</ele><time>2026-03-28T09:03:54.004Z</time></trkpt><trkpt lat="45.81537155174444" lon="9.308908766869791"><ele>270.0</ele><time>2026-03-28T09:03:56.004Z</time></trkpt><trkpt lat="45.81532882124304" lon="9.309005936596154"><ele>270.0</ele><time>2026-03-28T09:03:57.004Z</time></trkpt><trkpt lat="45.81525791015139" lon="9.309089768765233"><ele>270.0</ele><time>2026-03-28T09:03:58.004Z</time></trkpt><trkpt lat="45.815182122889084" lon="9.309187142320729"><ele>270.0</ele><time>2026-03-28T09:03:59.004Z</time></trkpt><trkpt lat="45.81509250534751" lon="9.309273684798816"><ele>270.0</ele><time>2026-03-28T09:04:00.004Z</time></trkpt><trkpt lat="45.81500284966306" lon="9.309363739075197"><ele>270.0</ele><time>2026-03-28T09:04:01.004Z</time></trkpt><trkpt lat="45.8148938769568" lon="9.309452760452004"><ele>270.0</ele><time>2026-03-28T09:04:02.004Z</time></trkpt><trkpt lat="45.81473777373871" lon="9.309572215856576"><ele>269.3333333333333</ele><time>2026-03-28T09:04:03.004Z</time></trkpt><trkpt lat="45.814560201941056" lon="9.309711678135516"><ele>268.66666666666663</ele><time>2026-03-28T09:04:04.004Z</time></trkpt><trkpt lat="45.81436140410695" lon="9.309840755512038"><ele>268.0</ele><time>2026-03-28T09:04:05.004Z</time></trkpt><trkpt lat="45.81417241679775" lon="9.309934810016246"><ele>267.66666666666663</ele><time>2026-03-28T09:04:06.004Z</time></trkpt><trkpt lat="45.813978896270044" lon="9.310026785361238"><ele>267.3333333333333</ele><time>2026-03-28T09:04:07.004Z</time></trkpt><trkpt lat="45.81380051994839" lon="9.31012618940446"><ele>267.0</ele><time>2026-03-28T09:04:08.004Z</time></trkpt><trkpt lat="45.813635898417544" lon="9.310244551057567"><ele>267.0</ele><time>2026-03-28T09:04:09.004Z</time></trkpt><trkpt lat="45.81348935870228" lon="9.310398885165728"><ele>267.0</ele><time>2026-03-28T09:04:10.004Z</time></trkpt><trkpt lat="45.81335228858563" lon="9.310551162082065"><ele>267.0</ele><time>2026-03-28T09:04:11.004Z</time></trkpt><trkpt lat="45.81320634122531" lon="9.310674279736109"><ele>266.0</ele><time>2026-03-28T09:04:12.004Z</time></trkpt><trkpt lat="45.81305522869027" lon="9.310779424316351"><ele>265.0</ele><time>2026-03-28T09:04:13.004Z</time></trkpt><trkpt lat="45.812897425367076" lon="9.310854195082731"><ele>264.0</ele><time>2026-03-28T09:04:14.004Z</time></trkpt><trkpt lat="45.81273363159334" lon="9.310902355739117"><ele>263.3333333333333</ele><time>2026-03-28T09:04:15.004Z</time></trkpt><trkpt lat="45.812567889415924" lon="9.310945150580682"><ele>262.66666666666663</ele><time>2026-03-28T09:04:16.004Z</time></trkpt><trkpt lat="45.812416643372906" lon="9.310982124500104"><ele>262.0</ele><time>2026-03-28T09:04:17.004Z</time></trkpt><trkpt lat="45.812256786863024" lon="9.311020488719445"><ele>262.0</ele><time>2026-03-28T09:04:18.004Z</time></trkpt><trkpt lat="45.81209522512238" lon="9.311056308471521"><ele>262.0</ele><time>2026-03-28T09:04:19.004Z</time></trkpt><trkpt lat="45.81194036563454" lon="9.311186782221379"><ele>262.0</ele><time>2026-03-28T09:04:20.004Z</time></trkpt><trkpt lat="45.81179174407967" lon="9.311341485737428"><ele>263.66666666666663</ele><time>2026-03-28T09:04:21.004Z</time></trkpt><trkpt lat="45.8116645339666" lon="9.311485931466963"><ele>265.3333333333333</ele><time>2026-03-28T09:04:22.004Z</time></trkpt><trkpt lat="45.81153703982955" lon="9.311610792682723"><ele>267.0</ele><time>2026-03-28T09:04:23.004Z</time></trkpt><trkpt lat="45.81140805524499" lon="9.311735694165836"><ele>267.0</ele><time>2026-03-28T09:04:24.004Z</time></trkpt><trkpt lat="45.81128133689803" lon="9.311864819293227"><ele>267.0</ele><time>2026-03-28T09:04:25.004Z</time></trkpt><trkpt lat="45.811153166415224" lon="9.311999857023599"><ele>267.0</ele><time>2026-03-28T09:04:26.004Z</time></trkpt><trkpt lat="45.81102525539804" lon="9.31213642755068"><ele>266.6666666666667</ele><time>2026-03-28T09:04:27.004Z</time></trkpt><trkpt lat="45.81089592355979" lon="9.312264393862641"><ele>266.33333333333337</ele><time>2026-03-28T09:04:28.004Z</time></trkpt><trkpt lat="45.81076463536199" lon="9.312401426832801"><ele>266.0</ele><time>2026-03-28T09:04:29.003Z</time></trkpt><trkpt lat="45.81062778607861" lon="9.312525212059969"><ele>266.0</ele><time>2026-03-28T09:04:30.003Z</time></trkpt><trkpt lat="45.81048114647286" lon="9.31265546699262"><ele>266.0</ele><time>2026-03-28T09:04:31.003Z</time></trkpt><trkpt lat="45.81032292313192" lon="9.312786637618087"><ele>266.0</ele><time>2026-03-28T09:04:32.003Z</time></trkpt><trkpt lat="45.810158142834396" lon="9.312903268337841"><ele>266.0</ele><time>2026-03-28T09:04:33.003Z</time></trkpt><trkpt lat="45.80998937295734" lon="9.313002809781999"><ele>266.0</ele><time>2026-03-28T09:04:34.003Z</time></trkpt><trkpt lat="45.809829143896664" lon="9.313097117883693"><ele>266.0</ele><time>2026-03-28T09:04:35.003Z</time></trkpt><trkpt lat="45.809666630429966" lon="9.313182732111596"><ele>266.0</ele><time>2026-03-28T09:04:36.003Z</time></trkpt><trkpt lat="45.80950540807733" lon="9.313270381890277"><ele>266.0</ele><time>2026-03-28T09:04:37.003Z</time></trkpt><trkpt lat="45.80934351377193" lon="9.31335053598946"><ele>266.0</ele><time>2026-03-28T09:04:38.003Z</time></trkpt><trkpt lat="45.80919148850491" lon="9.313442632157663"><ele>268.25</ele><time>2026-03-28T09:04:39.003Z</time></trkpt><trkpt lat="45.809059974801805" lon="9.313533023525173"><ele>270.5</ele><time>2026-03-28T09:04:40.003Z</time></trkpt><trkpt lat="45.808930523015675" lon="9.313636084685836"><ele>272.75</ele><time>2026-03-28T09:04:41.003Z</time></trkpt><trkpt lat="45.808818374031084" lon="9.313723747744055"><ele>275.0</ele><time>2026-03-28T09:04:42.003Z</time></trkpt><trkpt lat="45.80873035361592" lon="9.313812437482564"><ele>275.0</ele><time>2026-03-28T09:04:43.003Z</time></trkpt><trkpt lat="45.80865121358187" lon="9.31389262958662"><ele>275.0</ele><time>2026-03-28T09:04:44.003Z</time></trkpt><trkpt lat="45.808605211250935" lon="9.314005405583545"><ele>275.0</ele><time>2026-03-28T09:04:45.003Z</time></trkpt><trkpt lat="45.80842435906148" lon="9.313997012376715"><ele>275.0</ele><time>2026-03-28T09:04:47.003Z</time></trkpt><trkpt lat="45.80831529433264" lon="9.313954028216635"><ele>273.4</ele><time>2026-03-28T09:04:48.003Z</time></trkpt><trkpt lat="45.80820568061785" lon="9.313891540470042"><ele>271.8</ele><time>2026-03-28T09:04:49.003Z</time></trkpt><trkpt lat="45.80810475419862" lon="9.313820252127641"><ele>270.2</ele><time>2026-03-28T09:04:50.003Z</time></trkpt><trkpt lat="45.808019475682194" lon="9.313741922081824"><ele>268.6</ele><time>2026-03-28T09:04:51.003Z</time></trkpt><trkpt lat="45.80795055110803" lon="9.313678335974366"><ele>267.0</ele><time>2026-03-28T09:04:52.003Z</time></trkpt><trkpt lat="45.807894230642006" lon="9.313569910580586"><ele>267.0</ele><time>2026-03-28T09:04:53.003Z</time></trkpt><trkpt lat="45.807840253653005" lon="9.313462922701133"><ele>267.0</ele><time>2026-03-28T09:04:54.003Z</time></trkpt><trkpt lat="45.80776124814353" lon="9.31338389614878"><ele>267.0</ele><time>2026-03-28T09:04:55.003Z</time></trkpt><trkpt lat="45.80762965660673" lon="9.313289292479645"><ele>267.0</ele><time>2026-03-28T09:04:56.003Z</time></trkpt><trkpt lat="45.80748375748432" lon="9.31318943098701"><ele>266.0</ele><time>2026-03-28T09:04:57.003Z</time></trkpt><trkpt lat="45.80732220282606" lon="9.313081491752875"><ele>265.0</ele><time>2026-03-28T09:04:58.003Z</time></trkpt><trkpt lat="45.80713785465054" lon="9.313078514127028"><ele>264.0</ele><time>2026-03-28T09:04:59.003Z</time></trkpt><trkpt lat="45.80698032275667" lon="9.313074660297584"><ele>264.25</ele><time>2026-03-28T09:05:00.003Z</time></trkpt><trkpt lat="45.80682964599796" lon="9.313059219269508"><ele>264.5</ele><time>2026-03-28T09:05:01.003Z</time></trkpt><trkpt lat="45.80669545268032" lon="9.313015106625867"><ele>264.75</ele><time>2026-03-28T09:05:02.003Z</time></trkpt><trkpt lat="45.80657470014248" lon="9.312938417799856"><ele>265.0</ele><time>2026-03-28T09:05:03.003Z</time></trkpt><trkpt lat="45.80645686306853" lon="9.312820942787654"><ele>264.3333333333333</ele><time>2026-03-28T09:05:04.003Z</time></trkpt><trkpt lat="45.80632626495183" lon="9.312697293235486"><ele>263.6666666666667</ele><time>2026-03-28T09:05:05.003Z</time></trkpt><trkpt lat="45.80616634895443" lon="9.312562731757659"><ele>263.0</ele><time>2026-03-28T09:05:06.003Z</time></trkpt><trkpt lat="45.80599762871448" lon="9.312413698048639"><ele>264.0</ele><time>2026-03-28T09:05:07.003Z</time></trkpt><trkpt lat="45.80580790780201" lon="9.31223598617488"><ele>265.0</ele><time>2026-03-28T09:05:08.003Z</time></trkpt><trkpt lat="45.80561484641362" lon="9.312062542875617"><ele>265.0</ele><time>2026-03-28T09:05:09.003Z</time></trkpt><trkpt lat="45.80543365923943" lon="9.311893076692913"><ele>265.0</ele><time>2026-03-28T09:05:10.003Z</time></trkpt><trkpt lat="45.8052550788217" lon="9.311721288365995"><ele>265.0</ele><time>2026-03-28T09:05:11.003Z</time></trkpt><trkpt lat="45.805076225131636" lon="9.311551844909804"><ele>265.66666666666663</ele><time>2026-03-28T09:05:12.003Z</time></trkpt><trkpt lat="45.80489954061238" lon="9.311381862529544"><ele>266.3333333333333</ele><time>2026-03-28T09:05:13.003Z</time></trkpt><trkpt lat="45.80471581228206" lon="9.311204815390006"><ele>267.0</ele><time>2026-03-28T09:05:14.003Z</time></trkpt><trkpt lat="45.80453211994112" lon="9.311033983462028"><ele>267.0</ele><time>2026-03-28T09:05:15.003Z</time></trkpt><trkpt lat="45.80434354281041" lon="9.310860330437281"><ele>267.0</ele><time>2026-03-28T09:05:16.003Z</time></trkpt><trkpt lat="45.804142106425715" lon="9.310669746250774"><ele>267.0</ele><time>2026-03-28T09:05:17.003Z</time></trkpt><trkpt lat="45.803945264123946" lon="9.310477216805445"><ele>267.0</ele><time>2026-03-28T09:05:18.003Z</time></trkpt><trkpt lat="45.80372782580869" lon="9.310271411089417"><ele>267.0</ele><time>2026-03-28T09:05:19.003Z</time></trkpt><trkpt lat="45.803511958394445" lon="9.310064675762558"><ele>267.0</ele><time>2026-03-28T09:05:20.003Z</time></trkpt><trkpt lat="45.803311220725234" lon="9.309873815691056"><ele>265.5</ele><time>2026-03-28T09:05:21.003Z</time></trkpt><trkpt lat="45.803111603637106" lon="9.309683527580619"><ele>264.0</ele><time>2026-03-28T09:05:22.003Z</time></trkpt><trkpt lat="45.802913890235956" lon="9.309488126444974"><ele>264.0</ele><time>2026-03-28T09:05:23.003Z</time></trkpt><trkpt lat="45.80272166210185" lon="9.30928665668771"><ele>264.0</ele><time>2026-03-28T09:05:24.003Z</time></trkpt><trkpt lat="45.802532590819816" lon="9.309089693464717"><ele>264.5</ele><time>2026-03-28T09:05:25.003Z</time></trkpt><trkpt lat="45.802337859831454" lon="9.308892055449462"><ele>265.0</ele><time>2026-03-28T09:05:26.003Z</time></trkpt><trkpt lat="45.802134257481775" lon="9.308700484707408"><ele>265.0</ele><time>2026-03-28T09:05:27.003Z</time></trkpt><trkpt lat="45.801920386429124" lon="9.308498957546384"><ele>265.0</ele><time>2026-03-28T09:05:28.003Z</time></trkpt><trkpt lat="45.80170488889187" lon="9.308296337885544"><ele>264.0</ele><time>2026-03-28T09:05:29.003Z</time></trkpt><trkpt lat="45.80149505252512" lon="9.308096565201124"><ele>263.0</ele><time>2026-03-28T09:05:30.003Z</time></trkpt><trkpt lat="45.80128353722191" lon="9.307894988621351"><ele>263.0</ele><time>2026-03-28T09:05:31.003Z</time></trkpt><trkpt lat="45.80106692539172" lon="9.307693755550764"><ele>263.0</ele><time>2026-03-28T09:05:32.003Z</time></trkpt><trkpt lat="45.80085113677097" lon="9.307487893540836"><ele>263.0</ele><time>2026-03-28T09:05:33.003Z</time></trkpt><trkpt lat="45.80063952473826" lon="9.307279140576492"><ele>263.0</ele><time>2026-03-28T09:05:34.003Z</time></trkpt><trkpt lat="45.80040823323768" lon="9.307060391634902"><ele>262.5</ele><time>2026-03-28T09:05:35.003Z</time></trkpt><trkpt lat="45.800183657892845" lon="9.306845579775091"><ele>262.0</ele><time>2026-03-28T09:05:36.003Z</time></trkpt><trkpt lat="45.79995365026636" lon="9.306634384012238"><ele>262.5</ele><time>2026-03-28T09:05:37.003Z</time></trkpt><trkpt lat="45.799728086584366" lon="9.306426519288136"><ele>263.0</ele><time>2026-03-28T09:05:38.003Z</time></trkpt><trkpt lat="45.79949464159935" lon="9.306217865337766"><ele>264.0</ele><time>2026-03-28T09:05:39.003Z</time></trkpt><trkpt lat="45.79926269365779" lon="9.306012598267928"><ele>265.0</ele><time>2026-03-28T09:05:40.003Z</time></trkpt><trkpt lat="45.79903096292366" lon="9.305798986346364"><ele>265.0</ele><time>2026-03-28T09:05:41.003Z</time></trkpt><trkpt lat="45.79880303690996" lon="9.305581202120486"><ele>265.0</ele><time>2026-03-28T09:05:42.003Z</time></trkpt><trkpt lat="45.79857600534828" lon="9.305359813360726"><ele>264.5</ele><time>2026-03-28T09:05:43.003Z</time></trkpt><trkpt lat="45.79834808961086" lon="9.30513879589683"><ele>264.0</ele><time>2026-03-28T09:05:44.003Z</time></trkpt><trkpt lat="45.79811382429497" lon="9.304919806386042"><ele>264.5</ele><time>2026-03-28T09:05:45.003Z</time></trkpt><trkpt lat="45.797883493173224" lon="9.304704771273611"><ele>265.0</ele><time>2026-03-28T09:05:46.003Z</time></trkpt><trkpt lat="45.797665598286905" lon="9.30448712621682"><ele>266.0</ele><time>2026-03-28T09:05:47.003Z</time></trkpt><trkpt lat="45.797440302462086" lon="9.304272829948253"><ele>267.0</ele><time>2026-03-28T09:05:48.003Z</time></trkpt><trkpt lat="45.79721830043066" lon="9.30406253738248"><ele>268.0</ele><time>2026-03-28T09:05:49.003Z</time></trkpt><trkpt lat="45.79699330767948" lon="9.303849365300193"><ele>269.0</ele><time>2026-03-28T09:05:50.003Z</time></trkpt><trkpt lat="45.79676818858788" lon="9.30363736364753"><ele>269.0</ele><time>2026-03-28T09:05:51.003Z</time></trkpt><trkpt lat="45.79653992885809" lon="9.303423526278563"><ele>269.0</ele><time>2026-03-28T09:05:52.003Z</time></trkpt><trkpt lat="45.7963142573579" lon="9.3032045185151"><ele>271.5</ele><time>2026-03-28T09:05:53.003Z</time></trkpt><trkpt lat="45.79609986139565" lon="9.302991496763505"><ele>274.0</ele><time>2026-03-28T09:05:54.003Z</time></trkpt><trkpt lat="45.7958786374203" lon="9.302783168715232"><ele>274.5</ele><time>2026-03-28T09:05:55.004Z</time></trkpt><trkpt lat="45.79565597799659" lon="9.302569897660392"><ele>275.0</ele><time>2026-03-28T09:05:56.004Z</time></trkpt><trkpt lat="45.795428181444755" lon="9.30235479859592"><ele>275.0</ele><time>2026-03-28T09:05:57.004Z</time></trkpt><trkpt lat="45.795197424795376" lon="9.302138835658743"><ele>275.0</ele><time>2026-03-28T09:05:58.004Z</time></trkpt><trkpt lat="45.79497671464607" lon="9.301926865882884"><ele>275.0</ele><time>2026-03-28T09:05:59.004Z</time></trkpt><trkpt lat="45.79476456200366" lon="9.301721838634284"><ele>275.0</ele><time>2026-03-28T09:06:00.004Z</time></trkpt><trkpt lat="45.79456451540892" lon="9.301529400175209"><ele>275.5</ele><time>2026-03-28T09:06:01.004Z</time></trkpt><trkpt lat="45.79436355162649" lon="9.30135281917455"><ele>276.0</ele><time>2026-03-28T09:06:02.004Z</time></trkpt><trkpt lat="45.7941647514549" lon="9.301172878758512"><ele>276.0</ele><time>2026-03-28T09:06:03.004Z</time></trkpt><trkpt lat="45.79396306377658" lon="9.300989139908303"><ele>276.0</ele><time>2026-03-28T09:06:04.004Z</time></trkpt><trkpt lat="45.793751250231736" lon="9.300794855197186"><ele>276.0</ele><time>2026-03-28T09:06:05.004Z</time></trkpt><trkpt lat="45.79353814376202" lon="9.300601732492632"><ele>276.0</ele><time>2026-03-28T09:06:06.004Z</time></trkpt><trkpt lat="45.793321299667376" lon="9.300406107932574"><ele>276.0</ele><time>2026-03-28T09:06:07.004Z</time></trkpt><trkpt lat="45.7930928663563" lon="9.300207551155967"><ele>276.0</ele><time>2026-03-28T09:06:08.004Z</time></trkpt><trkpt lat="45.79285307410826" lon="9.300016746443527"><ele>275.0</ele><time>2026-03-28T09:06:09.004Z</time></trkpt><trkpt lat="45.79260131904942" lon="9.299836116391228"><ele>274.0</ele><time>2026-03-28T09:06:10.004Z</time></trkpt><trkpt lat="45.79234550326222" lon="9.299656176252237"><ele>274.0</ele><time>2026-03-28T09:06:11.004Z</time></trkpt><trkpt lat="45.79210347706673" lon="9.299492408859436"><ele>274.0</ele><time>2026-03-28T09:06:12.004Z</time></trkpt><trkpt lat="45.79186822140604" lon="9.299329387901405"><ele>272.0</ele><time>2026-03-28T09:06:13.004Z</time></trkpt><trkpt lat="45.79163864005175" lon="9.299170163218795"><ele>270.0</ele><time>2026-03-28T09:06:14.004Z</time></trkpt><trkpt lat="45.791415660612614" lon="9.299016381783098"><ele>271.5</ele><time>2026-03-28T09:06:15.004Z</time></trkpt><trkpt lat="45.79118181991851" lon="9.298864164275868"><ele>273.0</ele><time>2026-03-28T09:06:16.004Z</time></trkpt><trkpt lat="45.79094184117232" lon="9.298707744882552"><ele>273.0</ele><time>2026-03-28T09:06:17.004Z</time></trkpt><trkpt lat="45.79069531146609" lon="9.298543814925047"><ele>273.0</ele><time>2026-03-28T09:06:18.004Z</time></trkpt><trkpt lat="45.79044891593169" lon="9.298377967776391"><ele>273.0</ele><time>2026-03-28T09:06:19.004Z</time></trkpt><trkpt lat="45.79020119577673" lon="9.298213740156774"><ele>273.0</ele><time>2026-03-28T09:06:20.004Z</time></trkpt><trkpt lat="45.789952890418846" lon="9.29804927477877"><ele>274.5</ele><time>2026-03-28T09:06:21.004Z</time></trkpt><trkpt lat="45.78970527031756" lon="9.297881340359273"><ele>276.0</ele><time>2026-03-28T09:06:22.004Z</time></trkpt><trkpt lat="45.7894590057544" lon="9.297716841937403"><ele>274.0</ele><time>2026-03-28T09:06:23.004Z</time></trkpt><trkpt lat="45.78921457207792" lon="9.297556111089843"><ele>272.0</ele><time>2026-03-28T09:06:24.004Z</time></trkpt><trkpt lat="45.78896865310269" lon="9.29739062299761"><ele>272.0</ele><time>2026-03-28T09:06:25.004Z</time></trkpt><trkpt lat="45.78871884665673" lon="9.297221345678421"><ele>272.0</ele><time>2026-03-28T09:06:26.004Z</time></trkpt><trkpt lat="45.78847322814347" lon="9.297060098232695"><ele>272.0</ele><time>2026-03-28T09:06:27.004Z</time></trkpt><trkpt lat="45.78823069252082" lon="9.29689684023182"><ele>272.0</ele><time>2026-03-28T09:06:28.004Z</time></trkpt><trkpt lat="45.78799638443282" lon="9.296740459892298"><ele>272.0</ele><time>2026-03-28T09:06:29.004Z</time></trkpt><trkpt lat="45.78777147856434" lon="9.296586135569052"><ele>272.0</ele><time>2026-03-28T09:06:30.004Z</time></trkpt><trkpt lat="45.78754369603411" lon="9.296425425768842"><ele>269.5</ele><time>2026-03-28T09:06:31.004Z</time></trkpt><trkpt lat="45.78732022313708" lon="9.296284161991226"><ele>267.0</ele><time>2026-03-28T09:06:32.004Z</time></trkpt><trkpt lat="45.78709233285587" lon="9.296132516007395"><ele>267.0</ele><time>2026-03-28T09:06:33.004Z</time></trkpt><trkpt lat="45.78686285100381" lon="9.295981492221658"><ele>267.0</ele><time>2026-03-28T09:06:34.004Z</time></trkpt><trkpt lat="45.78663031249255" lon="9.295831058241422"><ele>266.5</ele><time>2026-03-28T09:06:35.003Z</time></trkpt><trkpt lat="45.786395689061266" lon="9.295679663771745"><ele>266.0</ele><time>2026-03-28T09:06:36.003Z</time></trkpt><trkpt lat="45.786160991909675" lon="9.295532496267505"><ele>265.5</ele><time>2026-03-28T09:06:37.003Z</time></trkpt><trkpt lat="45.78592623675525" lon="9.295385602764851"><ele>265.0</ele><time>2026-03-28T09:06:38.003Z</time></trkpt><trkpt lat="45.785687223798995" lon="9.295233242422626"><ele>265.0</ele><time>2026-03-28T09:06:39.003Z</time></trkpt><trkpt lat="45.78544823207242" lon="9.295076458273927"><ele>265.0</ele><time>2026-03-28T09:06:40.003Z</time></trkpt><trkpt lat="45.78520279007151" lon="9.294920665334653"><ele>265.0</ele><time>2026-03-28T09:06:41.003Z</time></trkpt><trkpt lat="45.78496169815642" lon="9.294761201041206"><ele>265.0</ele><time>2026-03-28T09:06:42.003Z</time></trkpt><trkpt lat="45.78471917586423" lon="9.294597265718542"><ele>267.5</ele><time>2026-03-28T09:06:43.003Z</time></trkpt><trkpt lat="45.784494019784916" lon="9.294440661545783"><ele>270.0</ele><time>2026-03-28T09:06:44.003Z</time></trkpt><trkpt lat="45.78427955566009" lon="9.294276161909744"><ele>270.5</ele><time>2026-03-28T09:06:45.003Z</time></trkpt><trkpt lat="45.784067299302315" lon="9.294113958569131"><ele>271.0</ele><time>2026-03-28T09:06:46.003Z</time></trkpt><trkpt lat="45.783852944933734" lon="9.293957212366426"><ele>272.0</ele><time>2026-03-28T09:06:47.003Z</time></trkpt><trkpt lat="45.7836300172719" lon="9.293802263574936"><ele>273.0</ele><time>2026-03-28T09:06:48.003Z</time></trkpt><trkpt lat="45.78340384172903" lon="9.29365308583596"><ele>273.0</ele><time>2026-03-28T09:06:49.003Z</time></trkpt><trkpt lat="45.783173133172035" lon="9.293498620908277"><ele>273.0</ele><time>2026-03-28T09:06:50.003Z</time></trkpt><trkpt lat="45.78294831904558" lon="9.293338600855954"><ele>273.0</ele><time>2026-03-28T09:06:51.003Z</time></trkpt><trkpt lat="45.782737581549206" lon="9.293188373331883"><ele>273.0</ele><time>2026-03-28T09:06:52.003Z</time></trkpt><trkpt lat="45.78252781452127" lon="9.293043508232362"><ele>271.5</ele><time>2026-03-28T09:06:53.003Z</time></trkpt><trkpt lat="45.782315712096704" lon="9.29290170547697"><ele>270.0</ele><time>2026-03-28T09:06:54.003Z</time></trkpt><trkpt lat="45.782105550080175" lon="9.292769973770493"><ele>270.0</ele><time>2026-03-28T09:06:55.003Z</time></trkpt><trkpt lat="45.78188951124972" lon="9.292637151271697"><ele>270.0</ele><time>2026-03-28T09:06:56.003Z</time></trkpt><trkpt lat="45.78167649360361" lon="9.292495674227041"><ele>269.6666666666667</ele><time>2026-03-28T09:06:57.003Z</time></trkpt><trkpt lat="45.78147310788698" lon="9.292350496642547"><ele>269.33333333333337</ele><time>2026-03-28T09:06:58.003Z</time></trkpt><trkpt lat="45.78127957389659" lon="9.292216549802417"><ele>269.0</ele><time>2026-03-28T09:06:59.003Z</time></trkpt><trkpt lat="45.78108413745877" lon="9.292087772670286"><ele>267.6666666666667</ele><time>2026-03-28T09:07:00.003Z</time></trkpt><trkpt lat="45.78089025917794" lon="9.291963670955575"><ele>266.3333333333333</ele><time>2026-03-28T09:07:01.003Z</time></trkpt><trkpt lat="45.78070620966784" lon="9.29184939130023"><ele>265.0</ele><time>2026-03-28T09:07:02.003Z</time></trkpt><trkpt lat="45.78052574714687" lon="9.291740007248606"><ele>265.0</ele><time>2026-03-28T09:07:03.003Z</time></trkpt><trkpt lat="45.78035363744998" lon="9.291619928387739"><ele>265.0</ele><time>2026-03-28T09:07:04.003Z</time></trkpt><trkpt lat="45.78018218219002" lon="9.29150128624907"><ele>265.0</ele><time>2026-03-28T09:07:05.003Z</time></trkpt><trkpt lat="45.78000954715927" lon="9.291387370335114"><ele>263.66666666666663</ele><time>2026-03-28T09:07:06.003Z</time></trkpt><trkpt lat="45.779838676113144" lon="9.291277938026896"><ele>262.3333333333333</ele><time>2026-03-28T09:07:07.003Z</time></trkpt><trkpt lat="45.77965787524903" lon="9.291165951613452"><ele>261.0</ele><time>2026-03-28T09:07:08.003Z</time></trkpt><trkpt lat="45.779466795536365" lon="9.291050877213888"><ele>261.6666666666667</ele><time>2026-03-28T09:07:09.003Z</time></trkpt><trkpt lat="45.77928103894622" lon="9.290914411621836"><ele>262.33333333333337</ele><time>2026-03-28T09:07:10.003Z</time></trkpt><trkpt lat="45.779074818384245" lon="9.290763530396717"><ele>263.0</ele><time>2026-03-28T09:07:11.003Z</time></trkpt><trkpt lat="45.77885431313157" lon="9.290609951466832"><ele>262.5</ele><time>2026-03-28T09:07:12.003Z</time></trkpt><trkpt lat="45.77862828774993" lon="9.290457749205194"><ele>262.0</ele><time>2026-03-28T09:07:13.003Z</time></trkpt><trkpt lat="45.77838722568595" lon="9.290299716531468"><ele>263.0</ele><time>2026-03-28T09:07:14.003Z</time></trkpt><trkpt lat="45.77816084520877" lon="9.290157974991835"><ele>264.0</ele><time>2026-03-28T09:07:15.003Z</time></trkpt><trkpt lat="45.77792204513111" lon="9.289997236400202"><ele>264.0</ele><time>2026-03-28T09:07:16.003Z</time></trkpt><trkpt lat="45.777661185931976" lon="9.289823330398429"><ele>264.0</ele><time>2026-03-28T09:07:17.003Z</time></trkpt><trkpt lat="45.777414329422946" lon="9.289659272784386"><ele>264.0</ele><time>2026-03-28T09:07:18.003Z</time></trkpt><trkpt lat="45.777181148653646" lon="9.28950620366061"><ele>264.0</ele><time>2026-03-28T09:07:19.003Z</time></trkpt><trkpt lat="45.77695369387567" lon="9.28935649705003"><ele>262.5</ele><time>2026-03-28T09:07:20.003Z</time></trkpt><trkpt lat="45.77673150640342" lon="9.289209122856498"><ele>261.0</ele><time>2026-03-28T09:07:21.003Z</time></trkpt><trkpt lat="45.776507256083924" lon="9.289079057105441"><ele>261.0</ele><time>2026-03-28T09:07:22.003Z</time></trkpt><trkpt lat="45.776270255879844" lon="9.288955248899644"><ele>261.0</ele><time>2026-03-28T09:07:23.003Z</time></trkpt><trkpt lat="45.776031668652045" lon="9.288836297954214"><ele>263.0</ele><time>2026-03-28T09:07:24.003Z</time></trkpt><trkpt lat="45.775779907839045" lon="9.28870966464937"><ele>265.0</ele><time>2026-03-28T09:07:25.003Z</time></trkpt><trkpt lat="45.775531182492195" lon="9.288602998498414"><ele>265.0</ele><time>2026-03-28T09:07:26.003Z</time></trkpt><trkpt lat="45.77528591724953" lon="9.288524404178123"><ele>265.0</ele><time>2026-03-28T09:07:27.003Z</time></trkpt><trkpt lat="45.77503583034627" lon="9.288459203720466"><ele>266.0</ele><time>2026-03-28T09:07:28.003Z</time></trkpt><trkpt lat="45.774785087926105" lon="9.288405486426239"><ele>267.0</ele><time>2026-03-28T09:07:29.003Z</time></trkpt><trkpt lat="45.77453725464441" lon="9.28835775733807"><ele>267.0</ele><time>2026-03-28T09:07:30.003Z</time></trkpt><trkpt lat="45.774287516235404" lon="9.288319488205918"><ele>267.0</ele><time>2026-03-28T09:07:31.003Z</time></trkpt><trkpt lat="45.7740314306306" lon="9.288298496212702"><ele>267.0</ele><time>2026-03-28T09:07:32.003Z</time></trkpt><trkpt lat="45.773757277212034" lon="9.288287042958181"><ele>267.0</ele><time>2026-03-28T09:07:33.003Z</time></trkpt><trkpt lat="45.77348299842279" lon="9.288277179379415"><ele>267.0</ele><time>2026-03-28T09:07:34.003Z</time></trkpt><trkpt lat="45.773216381390895" lon="9.28825893149937"><ele>267.0</ele><time>2026-03-28T09:07:35.003Z</time></trkpt><trkpt lat="45.77294261364057" lon="9.288240863319768"><ele>267.0</ele><time>2026-03-28T09:07:36.003Z</time></trkpt><trkpt lat="45.77266349514893" lon="9.288220324925625"><ele>267.0</ele><time>2026-03-28T09:07:37.004Z</time></trkpt><trkpt lat="45.7723943828735" lon="9.288200548309668"><ele>267.0</ele><time>2026-03-28T09:07:38.004Z</time></trkpt><trkpt lat="45.77211978656389" lon="9.288180435373354"><ele>267.0</ele><time>2026-03-28T09:07:39.004Z</time></trkpt><trkpt lat="45.77185708747401" lon="9.288164414166216"><ele>268.0</ele><time>2026-03-28T09:07:40.004Z</time></trkpt><trkpt lat="45.77158212083958" lon="9.288145424116415"><ele>269.0</ele><time>2026-03-28T09:07:41.004Z</time></trkpt><trkpt lat="45.77131353316381" lon="9.288130021316574"><ele>269.0</ele><time>2026-03-28T09:07:42.004Z</time></trkpt><trkpt lat="45.771041285673306" lon="9.288112230963835"><ele>269.0</ele><time>2026-03-28T09:07:43.004Z</time></trkpt><trkpt lat="45.77077251215582" lon="9.288097385260215"><ele>269.0</ele><time>2026-03-28T09:07:44.004Z</time></trkpt><trkpt lat="45.77050597425763" lon="9.288084793003229"><ele>269.0</ele><time>2026-03-28T09:07:45.004Z</time></trkpt><trkpt lat="45.770237808161994" lon="9.288070314488692"><ele>270.0</ele><time>2026-03-28T09:07:46.004Z</time></trkpt><trkpt lat="45.769978734841494" lon="9.288051362358503"><ele>271.0</ele><time>2026-03-28T09:07:47.004Z</time></trkpt><trkpt lat="45.76972105024363" lon="9.288033641372571"><ele>271.0</ele><time>2026-03-28T09:07:48.004Z</time></trkpt><trkpt lat="45.769464215518624" lon="9.28801858038775"><ele>271.0</ele><time>2026-03-28T09:07:49.004Z</time></trkpt><trkpt lat="45.769206457148606" lon="9.288002314162854"><ele>272.5</ele><time>2026-03-28T09:07:50.004Z</time></trkpt><trkpt lat="45.76894860643035" lon="9.287983330646815"><ele>274.0</ele><time>2026-03-28T09:07:51.004Z</time></trkpt><trkpt lat="45.76868811718161" lon="9.287966774843214"><ele>276.0</ele><time>2026-03-28T09:07:52.004Z</time></trkpt><trkpt lat="45.76842414916913" lon="9.287951723751924"><ele>278.0</ele><time>2026-03-28T09:07:53.004Z</time></trkpt><trkpt lat="45.768161809606056" lon="9.287932289991629"><ele>278.0</ele><time>2026-03-28T09:07:54.004Z</time></trkpt><trkpt lat="45.7679040160374" lon="9.287914582298248"><ele>278.0</ele><time>2026-03-28T09:07:55.004Z</time></trkpt><trkpt lat="45.76764473423912" lon="9.28789019824888"><ele>279.5</ele><time>2026-03-28T09:07:56.004Z</time></trkpt><trkpt lat="45.767388922752524" lon="9.287876616462732"><ele>281.0</ele><time>2026-03-28T09:07:57.004Z</time></trkpt><trkpt lat="45.76714454071301" lon="9.28786395382876"><ele>281.0</ele><time>2026-03-28T09:07:58.004Z</time></trkpt><trkpt lat="45.76689263076965" lon="9.287848216327768"><ele>281.0</ele><time>2026-03-28T09:07:59.004Z</time></trkpt><trkpt lat="45.76663794374719" lon="9.287831486615328"><ele>285.5</ele><time>2026-03-28T09:08:00.004Z</time></trkpt><trkpt lat="45.766389292629675" lon="9.28781845150198"><ele>290.0</ele><time>2026-03-28T09:08:01.004Z</time></trkpt><trkpt lat="45.76613951973947" lon="9.287799976583043"><ele>291.0</ele><time>2026-03-28T09:08:02.004Z</time></trkpt><trkpt lat="45.76589232428539" lon="9.28778207949775"><ele>292.0</ele><time>2026-03-28T09:08:03.004Z</time></trkpt><trkpt lat="45.76564963284067" lon="9.287758632457678"><ele>292.0</ele><time>2026-03-28T09:08:04.004Z</time></trkpt><trkpt lat="45.765414828860585" lon="9.287736481383593"><ele>292.0</ele><time>2026-03-28T09:08:05.004Z</time></trkpt><trkpt lat="45.76517785208533" lon="9.287700016381827"><ele>292.0</ele><time>2026-03-28T09:08:06.004Z</time></trkpt><trkpt lat="45.76493657947631" lon="9.287651297514307"><ele>292.0</ele><time>2026-03-28T09:08:07.004Z</time></trkpt><trkpt lat="45.76469467762357" lon="9.287580689431369"><ele>292.0</ele><time>2026-03-28T09:08:08.004Z</time></trkpt><trkpt lat="45.76446311932221" lon="9.287491683259246"><ele>292.0</ele><time>2026-03-28T09:08:09.004Z</time></trkpt><trkpt lat="45.76422948703404" lon="9.287391888212202"><ele>293.5</ele><time>2026-03-28T09:08:10.004Z</time></trkpt><trkpt lat="45.76399933122894" lon="9.287276524009537"><ele>295.0</ele><time>2026-03-28T09:08:11.004Z</time></trkpt><trkpt lat="45.763778428689854" lon="9.287136644065317"><ele>295.0</ele><time>2026-03-28T09:08:12.004Z</time></trkpt><trkpt lat="45.763558556217234" lon="9.286970596430308"><ele>295.0</ele><time>2026-03-28T09:08:13.004Z</time></trkpt><trkpt lat="45.763336480705796" lon="9.286772897462832"><ele>295.0</ele><time>2026-03-28T09:08:14.004Z</time></trkpt><trkpt lat="45.76312582021371" lon="9.286557138831649"><ele>295.0</ele><time>2026-03-28T09:08:15.004Z</time></trkpt><trkpt lat="45.76292090699751" lon="9.28632581758202"><ele>293.5</ele><time>2026-03-28T09:08:16.004Z</time></trkpt><trkpt lat="45.762720158036544" lon="9.286080212495312"><ele>292.0</ele><time>2026-03-28T09:08:17.004Z</time></trkpt><trkpt lat="45.762528443171355" lon="9.285820561227519"><ele>293.0</ele><time>2026-03-28T09:08:18.004Z</time></trkpt><trkpt lat="45.76235319125451" lon="9.285541773976474"><ele>294.0</ele><time>2026-03-28T09:08:19.004Z</time></trkpt><trkpt lat="45.76219085013778" lon="9.285256455973027"><ele>294.0</ele><time>2026-03-28T09:08:20.004Z</time></trkpt><trkpt lat="45.76204459636107" lon="9.284972182814064"><ele>294.0</ele><time>2026-03-28T09:08:21.004Z</time></trkpt><trkpt lat="45.761909301541905" lon="9.284672392353217"><ele>293.5</ele><time>2026-03-28T09:08:22.004Z</time></trkpt><trkpt lat="45.761873963517196" lon="9.284284977790595"><ele>293.0</ele><time>2026-03-28T09:08:23.004Z</time></trkpt><trkpt lat="45.761744715853155" lon="9.283970716537189"><ele>295.5</ele><time>2026-03-28T09:08:24.004Z</time></trkpt><trkpt lat="45.76161114407749" lon="9.283649049661477"><ele>298.0</ele><time>2026-03-28T09:08:25.004Z</time></trkpt><trkpt lat="45.7614784033278" lon="9.283331509413525"><ele>299.5</ele><time>2026-03-28T09:08:26.004Z</time></trkpt><trkpt lat="45.76134783902107" lon="9.283019173070615"><ele>301.0</ele><time>2026-03-28T09:08:27.004Z</time></trkpt><trkpt lat="45.76121794334387" lon="9.282708436224443"><ele>301.5</ele><time>2026-03-28T09:08:28.004Z</time></trkpt><trkpt lat="45.76099402147663" lon="9.282472288601856"><ele>302.0</ele><time>2026-03-28T09:08:29.004Z</time></trkpt><trkpt lat="45.760859204126156" lon="9.28215492194305"><ele>302.0</ele><time>2026-03-28T09:08:30.004Z</time></trkpt><trkpt lat="45.760725980730534" lon="9.281829710983546"><ele>302.0</ele><time>2026-03-28T09:08:31.004Z</time></trkpt><trkpt lat="45.76059411421696" lon="9.281508228748253"><ele>299.0</ele><time>2026-03-28T09:08:32.004Z</time></trkpt><trkpt lat="45.760456301777005" lon="9.281188743724817"><ele>296.0</ele><time>2026-03-28T09:08:33.004Z</time></trkpt><trkpt lat="45.76032894882119" lon="9.280876400733643"><ele>295.5</ele><time>2026-03-28T09:08:34.004Z</time></trkpt><trkpt lat="45.76019764355315" lon="9.28056255960344"><ele>295.0</ele><time>2026-03-28T09:08:35.004Z</time></trkpt><trkpt lat="45.76006905648148" lon="9.280245841343215"><ele>295.0</ele><time>2026-03-28T09:08:36.004Z</time></trkpt><trkpt lat="45.7599337258157" lon="9.279923288523113"><ele>295.0</ele><time>2026-03-28T09:08:37.004Z</time></trkpt><trkpt lat="45.75979827205361" lon="9.279601104874427"><ele>294.0</ele><time>2026-03-28T09:08:38.004Z</time></trkpt><trkpt lat="45.75966766916149" lon="9.279281242084767"><ele>293.0</ele><time>2026-03-28T09:08:39.004Z</time></trkpt><trkpt lat="45.75953630865972" lon="9.27896556826996"><ele>292.5</ele><time>2026-03-28T09:08:40.004Z</time></trkpt><trkpt lat="45.75940719659565" lon="9.278654137493026"><ele>292.0</ele><time>2026-03-28T09:08:41.003Z</time></trkpt><trkpt lat="45.75928017534285" lon="9.27834359161181"><ele>291.0</ele><time>2026-03-28T09:08:42.004Z</time></trkpt><trkpt lat="45.759160657208184" lon="9.278044993200117"><ele>290.0</ele><time>2026-03-28T09:08:43.004Z</time></trkpt><trkpt lat="45.75904462682397" lon="9.277748913906043"><ele>290.0</ele><time>2026-03-28T09:08:44.003Z</time></trkpt><trkpt lat="45.75892450566807" lon="9.277458164854881"><ele>290.0</ele><time>2026-03-28T09:08:45.003Z</time></trkpt><trkpt lat="45.758800836910595" lon="9.277167802634324"><ele>290.5</ele><time>2026-03-28T09:08:46.003Z</time></trkpt><trkpt lat="45.75865723312635" lon="9.276879670184867"><ele>291.0</ele><time>2026-03-28T09:08:47.003Z</time></trkpt><trkpt lat="45.75850039606957" lon="9.276591316452663"><ele>288.5</ele><time>2026-03-28T09:08:48.003Z</time></trkpt><trkpt lat="45.758331509576834" lon="9.276308507522677"><ele>286.0</ele><time>2026-03-28T09:08:49.003Z</time></trkpt><trkpt lat="45.758158471122094" lon="9.276030913469285"><ele>286.0</ele><time>2026-03-28T09:08:50.004Z</time></trkpt><trkpt lat="45.75797879504019" lon="9.275758145730803"><ele>286.0</ele><time>2026-03-28T09:08:51.003Z</time></trkpt><trkpt lat="45.75779762165319" lon="9.275478121125836"><ele>284.0</ele><time>2026-03-28T09:08:52.003Z</time></trkpt><trkpt lat="45.757618087651686" lon="9.275192809935572"><ele>282.0</ele><time>2026-03-28T09:08:53.003Z</time></trkpt><trkpt lat="45.757442668533784" lon="9.274895693484362"><ele>281.0</ele><time>2026-03-28T09:08:54.003Z</time></trkpt><trkpt lat="45.757274878495096" lon="9.274590256691875"><ele>280.0</ele><time>2026-03-28T09:08:55.003Z</time></trkpt><trkpt lat="45.757092853951086" lon="9.274281754456801"><ele>280.0</ele><time>2026-03-28T09:08:56.003Z</time></trkpt><trkpt lat="45.756905202862555" lon="9.273986533965783"><ele>280.0</ele><time>2026-03-28T09:08:57.003Z</time></trkpt><trkpt lat="45.75671765673262" lon="9.273698029952575"><ele>279.5</ele><time>2026-03-28T09:08:58.003Z</time></trkpt><trkpt lat="45.75653511655324" lon="9.273427593761946"><ele>279.0</ele><time>2026-03-28T09:08:59.003Z</time></trkpt><trkpt lat="45.756359848448255" lon="9.273162322904517"><ele>279.5</ele><time>2026-03-28T09:09:00.003Z</time></trkpt><trkpt lat="45.7561806635915" lon="9.27289778722322"><ele>280.0</ele><time>2026-03-28T09:09:01.003Z</time></trkpt><trkpt lat="45.755999427729314" lon="9.272630666657546"><ele>279.0</ele><time>2026-03-28T09:09:02.003Z</time></trkpt><trkpt lat="45.75582212297145" lon="9.272364493307196"><ele>278.0</ele><time>2026-03-28T09:09:03.003Z</time></trkpt><trkpt lat="45.755636552435774" lon="9.272101877879381"><ele>278.0</ele><time>2026-03-28T09:09:04.003Z</time></trkpt><trkpt lat="45.755443571639404" lon="9.271836417793791"><ele>278.0</ele><time>2026-03-28T09:09:05.003Z</time></trkpt><trkpt lat="45.75524560426566" lon="9.271577636184073"><ele>276.5</ele><time>2026-03-28T09:09:06.003Z</time></trkpt><trkpt lat="45.755048721706316" lon="9.271319759116572"><ele>275.0</ele><time>2026-03-28T09:09:07.003Z</time></trkpt><trkpt lat="45.75485701981931" lon="9.271058678368998"><ele>275.0</ele><time>2026-03-28T09:09:08.003Z</time></trkpt><trkpt lat="45.75467033413618" lon="9.270796033165368"><ele>275.0</ele><time>2026-03-28T09:09:09.003Z</time></trkpt><trkpt lat="45.75449162127109" lon="9.270534628563826"><ele>275.5</ele><time>2026-03-28T09:09:10.003Z</time></trkpt><trkpt lat="45.75432768001955" lon="9.270284168870187"><ele>276.0</ele><time>2026-03-28T09:09:11.003Z</time></trkpt><trkpt lat="45.75416447050649" lon="9.270033171177893"><ele>276.0</ele><time>2026-03-28T09:09:12.003Z</time></trkpt><trkpt lat="45.753999793544416" lon="9.26978610229876"><ele>276.0</ele><time>2026-03-28T09:09:13.003Z</time></trkpt><trkpt lat="45.7538354294364" lon="9.269537389094397"><ele>276.5</ele><time>2026-03-28T09:09:14.003Z</time></trkpt><trkpt lat="45.753669118009604" lon="9.269281882915386"><ele>277.0</ele><time>2026-03-28T09:09:15.003Z</time></trkpt><trkpt lat="45.75350187278428" lon="9.269025980688731"><ele>276.5</ele><time>2026-03-28T09:09:16.003Z</time></trkpt><trkpt lat="45.75333569003163" lon="9.26876992358274"><ele>276.0</ele><time>2026-03-28T09:09:17.003Z</time></trkpt><trkpt lat="45.7531695187909" lon="9.268514237686466"><ele>276.0</ele><time>2026-03-28T09:09:18.003Z</time></trkpt><trkpt lat="45.75300269758221" lon="9.26826538165829"><ele>276.0</ele><time>2026-03-28T09:09:19.003Z</time></trkpt><trkpt lat="45.7528333058147" lon="9.268012218488542"><ele>275.5</ele><time>2026-03-28T09:09:20.003Z</time></trkpt><trkpt lat="45.75266949396554" lon="9.26776929704867"><ele>275.0</ele><time>2026-03-28T09:09:21.003Z</time></trkpt><trkpt lat="45.75251222208794" lon="9.267532998239531"><ele>275.0</ele><time>2026-03-28T09:09:22.003Z</time></trkpt><trkpt lat="45.75234576741509" lon="9.267296184236946"><ele>275.0</ele><time>2026-03-28T09:09:23.003Z</time></trkpt><trkpt lat="45.75219261610914" lon="9.267075622486372"><ele>275.0</ele><time>2026-03-28T09:09:24.004Z</time></trkpt><trkpt lat="45.75204737008998" lon="9.266867796913887"><ele>275.0</ele><time>2026-03-28T09:09:25.004Z</time></trkpt><trkpt lat="45.75190105060977" lon="9.26665806444135"><ele>275.0</ele><time>2026-03-28T09:09:26.004Z</time></trkpt><trkpt lat="45.75174614197352" lon="9.266452137609075"><ele>278.33333333333337</ele><time>2026-03-28T09:09:27.004Z</time></trkpt><trkpt lat="45.75158267939294" lon="9.266246032323982"><ele>281.6666666666667</ele><time>2026-03-28T09:09:28.004Z</time></trkpt><trkpt lat="45.75140799794665" lon="9.266036029940368"><ele>285.0</ele><time>2026-03-28T09:09:29.004Z</time></trkpt><trkpt lat="45.75125126669342" lon="9.265846432989626"><ele>285.0</ele><time>2026-03-28T09:09:30.004Z</time></trkpt><trkpt lat="45.75108582786939" lon="9.265665054595768"><ele>285.0</ele><time>2026-03-28T09:09:31.004Z</time></trkpt><trkpt lat="45.75093469992205" lon="9.26549231946374"><ele>285.0</ele><time>2026-03-28T09:09:32.004Z</time></trkpt><trkpt lat="45.75079262213057" lon="9.265326854134074"><ele>283.6666666666667</ele><time>2026-03-28T09:09:33.004Z</time></trkpt><trkpt lat="45.75066630600733" lon="9.265168258600825"><ele>282.33333333333337</ele><time>2026-03-28T09:09:34.004Z</time></trkpt><trkpt lat="45.75054086024891" lon="9.264990533892737"><ele>281.0</ele><time>2026-03-28T09:09:35.004Z</time></trkpt><trkpt lat="45.7504213905824" lon="9.264790930497554"><ele>283.0</ele><time>2026-03-28T09:09:36.004Z</time></trkpt><trkpt lat="45.750309101694846" lon="9.26460845554297"><ele>285.0</ele><time>2026-03-28T09:09:37.004Z</time></trkpt><trkpt lat="45.750197377433366" lon="9.264425429303902"><ele>287.0</ele><time>2026-03-28T09:09:38.004Z</time></trkpt><trkpt lat="45.75008535321975" lon="9.26424967773218"><ele>280.0</ele><time>2026-03-28T09:09:39.004Z</time></trkpt><trkpt lat="45.749979408845235" lon="9.264081973389956"><ele>273.0</ele><time>2026-03-28T09:09:40.004Z</time></trkpt><trkpt lat="45.74986898509867" lon="9.263915353452699"><ele>266.0</ele><time>2026-03-28T09:09:41.004Z</time></trkpt><trkpt lat="45.74975441317737" lon="9.263733444128391"><ele>266.0</ele><time>2026-03-28T09:09:42.004Z</time></trkpt><trkpt lat="45.749624723066205" lon="9.263522393734664"><ele>266.0</ele><time>2026-03-28T09:09:43.004Z</time></trkpt><trkpt lat="45.74950184148765" lon="9.263317604130252"><ele>266.0</ele><time>2026-03-28T09:09:44.004Z</time></trkpt><trkpt lat="45.74938190315831" lon="9.263118193285539"><ele>265.33333333333337</ele><time>2026-03-28T09:09:45.004Z</time></trkpt><trkpt lat="45.74926810167745" lon="9.262933099833244"><ele>264.6666666666667</ele><time>2026-03-28T09:09:46.004Z</time></trkpt><trkpt lat="45.74916862817079" lon="9.262774287700045"><ele>264.0</ele><time>2026-03-28T09:09:47.004Z</time></trkpt><trkpt lat="45.74907869983374" lon="9.262628051346619"><ele>264.0</ele><time>2026-03-28T09:09:48.004Z</time></trkpt><trkpt lat="45.74898801397805" lon="9.26247987651684"><ele>264.0</ele><time>2026-03-28T09:09:49.004Z</time></trkpt><trkpt lat="45.74891364180864" lon="9.262362545667255"><ele>264.0</ele><time>2026-03-28T09:09:50.004Z</time></trkpt><trkpt lat="45.748844456958395" lon="9.26226942061463"><ele>264.0</ele><time>2026-03-28T09:09:51.004Z</time></trkpt><trkpt lat="45.748788908589084" lon="9.262200196953543"><ele>264.0</ele><time>2026-03-28T09:09:52.004Z</time></trkpt><trkpt lat="45.74873078391657" lon="9.2621602865334"><ele>264.0</ele><time>2026-03-28T09:09:55.004Z</time></trkpt><trkpt lat="45.748677501143014" lon="9.26211193764457"><ele>264.0</ele><time>2026-03-28T09:10:01.004Z</time></trkpt><trkpt lat="45.748601109736846" lon="9.262025545301917"><ele>264.0</ele><time>2026-03-28T09:10:03.004Z</time></trkpt><trkpt lat="45.74850225776843" lon="9.26199559984859"><ele>264.0</ele><time>2026-03-28T09:10:05.004Z</time></trkpt><trkpt lat="45.74843085065933" lon="9.262140083375922"><ele>264.0</ele><time>2026-03-28T09:10:07.004Z</time></trkpt><trkpt lat="45.74847843047577" lon="9.26226709873079"><ele>264.0</ele><time>2026-03-28T09:10:08.004Z</time></trkpt><trkpt lat="45.748539594092314" lon="9.262423566391906"><ele>264.0</ele><time>2026-03-28T09:10:09.004Z</time></trkpt><trkpt lat="45.74862744042879" lon="9.262662341297194"><ele>264.0</ele><time>2026-03-28T09:10:10.004Z</time></trkpt><trkpt lat="45.748705972255614" lon="9.262936207768668"><ele>263.0</ele><time>2026-03-28T09:10:11.004Z</time></trkpt><trkpt lat="45.7487889756917" lon="9.263228918130125"><ele>262.0</ele><time>2026-03-28T09:10:12.004Z</time></trkpt><trkpt lat="45.748870076425376" lon="9.263515968228797"><ele>261.0</ele><time>2026-03-28T09:10:13.004Z</time></trkpt><trkpt lat="45.74894842861859" lon="9.263782884708089"><ele>260.6666666666667</ele><time>2026-03-28T09:10:14.004Z</time></trkpt><trkpt lat="45.74903497562973" lon="9.264047182112431"><ele>260.33333333333337</ele><time>2026-03-28T09:10:15.004Z</time></trkpt><trkpt lat="45.749117828932874" lon="9.264255874872708"><ele>260.0</ele><time>2026-03-28T09:10:16.004Z</time></trkpt><trkpt lat="45.749196045275134" lon="9.264387487408879"><ele>260.0</ele><time>2026-03-28T09:10:17.004Z</time></trkpt><trkpt lat="45.74925875431673" lon="9.26452732035121"><ele>260.0</ele><time>2026-03-28T09:10:18.004Z</time></trkpt><trkpt lat="45.74928351786002" lon="9.264678576305014"><ele>260.0</ele><time>2026-03-28T09:10:19.004Z</time></trkpt><trkpt lat="45.74931482832018" lon="9.264856630012076"><ele>260.0</ele><time>2026-03-28T09:10:20.004Z</time></trkpt><trkpt lat="45.749374973487846" lon="9.265022603246056"><ele>260.75</ele><time>2026-03-28T09:10:21.004Z</time></trkpt><trkpt lat="45.7494434744807" lon="9.265198025213113"><ele>261.5</ele><time>2026-03-28T09:10:22.004Z</time></trkpt><trkpt lat="45.749492092195744" lon="9.265362468886742"><ele>262.25</ele><time>2026-03-28T09:10:23.004Z</time></trkpt><trkpt lat="45.74952987749125" lon="9.265539853829079"><ele>263.0</ele><time>2026-03-28T09:10:24.004Z</time></trkpt><trkpt lat="45.74955192109214" lon="9.265711750410206"><ele>263.8</ele><time>2026-03-28T09:10:25.004Z</time></trkpt><trkpt lat="45.749547839040346" lon="9.265869999929095"><ele>264.6</ele><time>2026-03-28T09:10:26.004Z</time></trkpt><trkpt lat="45.749523158513234" lon="9.266005002847328"><ele>265.4</ele><time>2026-03-28T09:10:27.004Z</time></trkpt><trkpt lat="45.749509686524156" lon="9.266150111209255"><ele>266.2</ele><time>2026-03-28T09:10:28.004Z</time></trkpt><trkpt lat="45.74951291185639" lon="9.266292102003094"><ele>267.0</ele><time>2026-03-28T09:10:29.004Z</time></trkpt><trkpt lat="45.74951294478198" lon="9.266465958166087"><ele>268.6666666666667</ele><time>2026-03-28T09:10:30.004Z</time></trkpt><trkpt lat="45.74949400817658" lon="9.266671773231609"><ele>270.33333333333337</ele><time>2026-03-28T09:10:31.004Z</time></trkpt><trkpt lat="45.74945267278868" lon="9.26689682399748"><ele>272.0</ele><time>2026-03-28T09:10:32.004Z</time></trkpt><trkpt lat="45.7493965052884" lon="9.267112666098397"><ele>272.0</ele><time>2026-03-28T09:10:33.004Z</time></trkpt><trkpt lat="45.74935043296463" lon="9.267307742307633"><ele>272.0</ele><time>2026-03-28T09:10:34.004Z</time></trkpt><trkpt lat="45.7493036568965" lon="9.267508157566118"><ele>272.0</ele><time>2026-03-28T09:10:35.004Z</time></trkpt><trkpt lat="45.74925737131659" lon="9.267718304606921"><ele>272.0</ele><time>2026-03-28T09:10:36.004Z</time></trkpt><trkpt lat="45.749214687878904" lon="9.26793092091092"><ele>272.33333333333337</ele><time>2026-03-28T09:10:37.004Z</time></trkpt><trkpt lat="45.749170827902425" lon="9.268140421154573"><ele>272.6666666666667</ele><time>2026-03-28T09:10:38.004Z</time></trkpt><trkpt lat="45.74912108573936" lon="9.268348948272603"><ele>273.0</ele><time>2026-03-28T09:10:39.004Z</time></trkpt><trkpt lat="45.749076343881654" lon="9.268565888049949"><ele>273.0</ele><time>2026-03-28T09:10:40.004Z</time></trkpt><trkpt lat="45.74902875435453" lon="9.268784496281352"><ele>273.0</ele><time>2026-03-28T09:10:41.004Z</time></trkpt><trkpt lat="45.748977163605616" lon="9.269004496206028"><ele>273.0</ele><time>2026-03-28T09:10:42.004Z</time></trkpt><trkpt lat="45.74892511054957" lon="9.269227777559438"><ele>273.6666666666667</ele><time>2026-03-28T09:10:43.004Z</time></trkpt><trkpt lat="45.74887491342339" lon="9.26944620866158"><ele>274.33333333333337</ele><time>2026-03-28T09:10:44.004Z</time></trkpt><trkpt lat="45.7488269236482" lon="9.269660597174125"><ele>275.0</ele><time>2026-03-28T09:10:45.005Z</time></trkpt><trkpt lat="45.74878165722865" lon="9.26988599427017"><ele>276.0</ele><time>2026-03-28T09:10:46.005Z</time></trkpt><trkpt lat="45.74873654653931" lon="9.270107851919379"><ele>277.0</ele><time>2026-03-28T09:10:47.003Z</time></trkpt><trkpt lat="45.748691801243275" lon="9.270312300502653"><ele>278.0</ele><time>2026-03-28T09:10:48.004Z</time></trkpt><trkpt lat="45.74865433450382" lon="9.270510704993915"><ele>278.0</ele><time>2026-03-28T09:10:49.004Z</time></trkpt><trkpt lat="45.748606795345985" lon="9.270697455003502"><ele>278.0</ele><time>2026-03-28T09:10:50.004Z</time></trkpt><trkpt lat="45.74855264116115" lon="9.270880525448076"><ele>278.0</ele><time>2026-03-28T09:10:51.003Z</time></trkpt><trkpt lat="45.74850506139843" lon="9.27106733569985"><ele>278.0</ele><time>2026-03-28T09:10:52.003Z</time></trkpt><trkpt lat="45.74846282257537" lon="9.271266026060303"><ele>278.5</ele><time>2026-03-28T09:10:53.004Z</time></trkpt><trkpt lat="45.74842261473832" lon="9.271467962325142"><ele>279.0</ele><time>2026-03-28T09:10:54.003Z</time></trkpt><trkpt lat="45.74837753614729" lon="9.27166649955237"><ele>279.5</ele><time>2026-03-28T09:10:55.003Z</time></trkpt><trkpt lat="45.748331247661994" lon="9.271839607170014"><ele>280.0</ele><time>2026-03-28T09:10:56.004Z</time></trkpt><trkpt lat="45.74829042598801" lon="9.271988383965136"><ele>280.0</ele><time>2026-03-28T09:10:57.004Z</time></trkpt><trkpt lat="45.748261773132874" lon="9.272123016824015"><ele>280.0</ele><time>2026-03-28T09:10:58.004Z</time></trkpt><trkpt lat="45.748241848662886" lon="9.272219272453357"><ele>280.0</ele><time>2026-03-28T09:10:59.004Z</time></trkpt><trkpt lat="45.748209465932206" lon="9.272355670440641"><ele>280.0</ele><time>2026-03-28T09:11:04.004Z</time></trkpt><trkpt lat="45.748165270275" lon="9.272501156069133"><ele>280.0</ele><time>2026-03-28T09:11:06.004Z</time></trkpt><trkpt lat="45.74812631437768" lon="9.272647438221677"><ele>280.0</ele><time>2026-03-28T09:11:08.004Z</time></trkpt><trkpt lat="45.748149591760566" lon="9.272820508874698"><ele>280.0</ele><time>2026-03-28T09:11:10.004Z</time></trkpt><trkpt lat="45.74815975431113" lon="9.272943962204652"><ele>280.0</ele><time>2026-03-28T09:11:11.004Z</time></trkpt><trkpt lat="45.74815442869988" lon="9.273134448268198"><ele>280.0</ele><time>2026-03-28T09:11:12.004Z</time></trkpt><trkpt lat="45.74814073511537" lon="9.273318623715802"><ele>280.0</ele><time>2026-03-28T09:11:13.004Z</time></trkpt><trkpt lat="45.74812948000607" lon="9.273485967193556"><ele>280.0</ele><time>2026-03-28T09:11:14.004Z</time></trkpt><trkpt lat="45.74812045565213" lon="9.273647152545722"><ele>280.0</ele><time>2026-03-28T09:11:15.004Z</time></trkpt><trkpt lat="45.748111307785955" lon="9.273820116978676"><ele>280.0</ele><time>2026-03-28T09:11:16.004Z</time></trkpt><trkpt lat="45.74809892568446" lon="9.27400829445613"><ele>279.5</ele><time>2026-03-28T09:11:17.004Z</time></trkpt><trkpt lat="45.74808376409043" lon="9.274203917461845"><ele>279.0</ele><time>2026-03-28T09:11:18.004Z</time></trkpt><trkpt lat="45.74806179810295" lon="9.274404585663229"><ele>278.5</ele><time>2026-03-28T09:11:19.004Z</time></trkpt><trkpt lat="45.74804436774779" lon="9.274617856811226"><ele>278.0</ele><time>2026-03-28T09:11:20.004Z</time></trkpt><trkpt lat="45.74802924079283" lon="9.27483303832664"><ele>277.6666666666667</ele><time>2026-03-28T09:11:21.004Z</time></trkpt><trkpt lat="45.74801398145087" lon="9.275052658559389"><ele>277.3333333333333</ele><time>2026-03-28T09:11:22.004Z</time></trkpt><trkpt lat="45.74799504958189" lon="9.275285017058161"><ele>277.0</ele><time>2026-03-28T09:11:23.004Z</time></trkpt><trkpt lat="45.74797313378766" lon="9.275522397512022"><ele>277.0</ele><time>2026-03-28T09:11:24.004Z</time></trkpt><trkpt lat="45.74794849856973" lon="9.27576306700451"><ele>277.0</ele><time>2026-03-28T09:11:25.004Z</time></trkpt><trkpt lat="45.74792722383937" lon="9.275995957621086"><ele>277.0</ele><time>2026-03-28T09:11:26.004Z</time></trkpt><trkpt lat="45.74791331886974" lon="9.276229931751594"><ele>277.0</ele><time>2026-03-28T09:11:27.004Z</time></trkpt><trkpt lat="45.747904743157775" lon="9.276457004253635"><ele>277.0</ele><time>2026-03-28T09:11:28.004Z</time></trkpt><trkpt lat="45.74790777459242" lon="9.27667242089414"><ele>277.0</ele><time>2026-03-28T09:11:29.004Z</time></trkpt><trkpt lat="45.74791991757431" lon="9.276891389801538"><ele>277.0</ele><time>2026-03-28T09:11:30.004Z</time></trkpt><trkpt lat="45.747940109799345" lon="9.277118110532527"><ele>277.0</ele><time>2026-03-28T09:11:31.004Z</time></trkpt><trkpt lat="45.74796218041345" lon="9.27734782532549"><ele>277.0</ele><time>2026-03-28T09:11:32.004Z</time></trkpt><trkpt lat="45.74799100725215" lon="9.277575791068816"><ele>277.66666666666663</ele><time>2026-03-28T09:11:33.004Z</time></trkpt><trkpt lat="45.74802462522782" lon="9.277811859814882"><ele>278.3333333333333</ele><time>2026-03-28T09:11:34.004Z</time></trkpt><trkpt lat="45.748059586696236" lon="9.278055315351017"><ele>279.0</ele><time>2026-03-28T09:11:35.004Z</time></trkpt><trkpt lat="45.748100742295755" lon="9.278308512471622"><ele>279.0</ele><time>2026-03-28T09:11:36.004Z</time></trkpt><trkpt lat="45.7481394055454" lon="9.278548633359808"><ele>279.0</ele><time>2026-03-28T09:11:37.004Z</time></trkpt><trkpt lat="45.74818145955323" lon="9.278781056500046"><ele>279.0</ele><time>2026-03-28T09:11:38.004Z</time></trkpt><trkpt lat="45.74822534416673" lon="9.279012743169186"><ele>279.6666666666667</ele><time>2026-03-28T09:11:39.004Z</time></trkpt><trkpt lat="45.74827081456196" lon="9.27924386130302"><ele>280.33333333333337</ele><time>2026-03-28T09:11:40.004Z</time></trkpt><trkpt lat="45.748315671604345" lon="9.279479741925773"><ele>281.0</ele><time>2026-03-28T09:11:41.004Z</time></trkpt><trkpt lat="45.74835939040674" lon="9.279723977218685"><ele>281.33333333333337</ele><time>2026-03-28T09:11:42.004Z</time></trkpt><trkpt lat="45.74840370444551" lon="9.279967396920695"><ele>281.6666666666667</ele><time>2026-03-28T09:11:43.004Z</time></trkpt><trkpt lat="45.74845039484827" lon="9.280218321425798"><ele>282.0</ele><time>2026-03-28T09:11:44.004Z</time></trkpt><trkpt lat="45.74849797636126" lon="9.2804676481977"><ele>281.3333333333333</ele><time>2026-03-28T09:11:45.004Z</time></trkpt><trkpt lat="45.748544494647795" lon="9.280703145626246"><ele>280.66666666666663</ele><time>2026-03-28T09:11:46.004Z</time></trkpt><trkpt lat="45.748589113948476" lon="9.280942238979115"><ele>280.0</ele><time>2026-03-28T09:11:47.004Z</time></trkpt><trkpt lat="45.748626777539755" lon="9.28116205248672"><ele>280.0</ele><time>2026-03-28T09:11:48.004Z</time></trkpt><trkpt lat="45.74866203476762" lon="9.281369198558945"><ele>280.0</ele><time>2026-03-28T09:11:49.004Z</time></trkpt><trkpt lat="45.748692410686814" lon="9.281558949475139"><ele>280.0</ele><time>2026-03-28T09:11:50.004Z</time></trkpt><trkpt lat="45.74872744574341" lon="9.281735549526681"><ele>280.0</ele><time>2026-03-28T09:11:51.004Z</time></trkpt><trkpt lat="45.748756488509635" lon="9.2819090010863"><ele>280.25</ele><time>2026-03-28T09:11:52.004Z</time></trkpt><trkpt lat="45.74878921469165" lon="9.282075132452633"><ele>280.5</ele><time>2026-03-28T09:11:53.004Z</time></trkpt><trkpt lat="45.74882256260617" lon="9.282247106483336"><ele>280.75</ele><time>2026-03-28T09:11:54.004Z</time></trkpt><trkpt lat="45.74885457912964" lon="9.282424044774404"><ele>281.0</ele><time>2026-03-28T09:11:55.004Z</time></trkpt><trkpt lat="45.748893532131184" lon="9.282602131468497"><ele>281.0</ele><time>2026-03-28T09:11:56.004Z</time></trkpt><trkpt lat="45.74892657788676" lon="9.282796070586752"><ele>281.0</ele><time>2026-03-28T09:11:57.004Z</time></trkpt><trkpt lat="45.74896484910372" lon="9.28299654602428"><ele>281.0</ele><time>2026-03-28T09:11:58.004Z</time></trkpt><trkpt lat="45.74899893888576" lon="9.283196768326675"><ele>281.0</ele><time>2026-03-28T09:11:59.004Z</time></trkpt><trkpt lat="45.749033072601506" lon="9.283400393834016"><ele>281.0</ele><time>2026-03-28T09:12:00.005Z</time></trkpt><trkpt lat="45.74907761795556" lon="9.283617321337024"><ele>281.0</ele><time>2026-03-28T09:12:01.005Z</time></trkpt><trkpt lat="45.749129613235915" lon="9.283839885422447"><ele>281.0</ele><time>2026-03-28T09:12:02.005Z</time></trkpt><trkpt lat="45.749189128142774" lon="9.284058429387104"><ele>281.0</ele><time>2026-03-28T09:12:03.005Z</time></trkpt><trkpt lat="45.7492579369629" lon="9.284281925837767"><ele>281.0</ele><time>2026-03-28T09:12:04.005Z</time></trkpt><trkpt lat="45.749339860446796" lon="9.284514771701389"><ele>281.0</ele><time>2026-03-28T09:12:05.005Z</time></trkpt><trkpt lat="45.749425094742826" lon="9.28473574822114"><ele>282.0</ele><time>2026-03-28T09:12:06.005Z</time></trkpt><trkpt lat="45.74952002603189" lon="9.284957306700353"><ele>283.0</ele><time>2026-03-28T09:12:07.005Z</time></trkpt><trkpt lat="45.749625334970155" lon="9.285170826316836"><ele>284.0</ele><time>2026-03-28T09:12:08.005Z</time></trkpt><trkpt lat="45.74973171559972" lon="9.285356129330951"><ele>284.0</ele><time>2026-03-28T09:12:09.005Z</time></trkpt><trkpt lat="45.74981799675718" lon="9.28549491780526"><ele>284.0</ele><time>2026-03-28T09:12:10.005Z</time></trkpt><trkpt lat="45.74990138527765" lon="9.285622646515343"><ele>284.0</ele><time>2026-03-28T09:12:11.005Z</time></trkpt><trkpt lat="45.749977601716736" lon="9.285742595266454"><ele>284.0</ele><time>2026-03-28T09:12:12.005Z</time></trkpt><trkpt lat="45.75004557126241" lon="9.285845573982328"><ele>284.1666666666667</ele><time>2026-03-28T09:12:13.005Z</time></trkpt><trkpt lat="45.7501099001138" lon="9.285942576360638"><ele>284.33333333333337</ele><time>2026-03-28T09:12:14.005Z</time></trkpt><trkpt lat="45.75016202387383" lon="9.28602706666315"><ele>284.5</ele><time>2026-03-28T09:12:15.005Z</time></trkpt><trkpt lat="45.75021258045641" lon="9.286108215292243"><ele>284.6666666666667</ele><time>2026-03-28T09:12:16.005Z</time></trkpt><trkpt lat="45.75026096476721" lon="9.286177874795076"><ele>284.8333333333333</ele><time>2026-03-28T09:12:17.005Z</time></trkpt><trkpt lat="45.75031118618327" lon="9.286252259558172"><ele>285.0</ele><time>2026-03-28T09:12:18.005Z</time></trkpt><trkpt lat="45.750380879955394" lon="9.286355076309574"><ele>286.0</ele><time>2026-03-28T09:12:19.005Z</time></trkpt><trkpt lat="45.75047244763279" lon="9.286493457924982"><ele>287.0</ele><time>2026-03-28T09:12:20.005Z</time></trkpt><trkpt lat="45.750556488186284" lon="9.28662874261606"><ele>288.0</ele><time>2026-03-28T09:12:21.005Z</time></trkpt><trkpt lat="45.750647011635756" lon="9.28677662288103"><ele>289.0</ele><time>2026-03-28T09:12:22.005Z</time></trkpt><trkpt lat="45.75074029065824" lon="9.286920091329126"><ele>289.0</ele><time>2026-03-28T09:12:23.005Z</time></trkpt><trkpt lat="45.75086193537933" lon="9.287100410284328"><ele>289.0</ele><time>2026-03-28T09:12:24.005Z</time></trkpt><trkpt lat="45.750988549527406" lon="9.287335740305753"><ele>289.0</ele><time>2026-03-28T09:12:25.005Z</time></trkpt><trkpt lat="45.75115019672257" lon="9.287590669719247"><ele>294.0</ele><time>2026-03-28T09:12:26.005Z</time></trkpt><trkpt lat="45.75130858164412" lon="9.287853518311515"><ele>299.0</ele><time>2026-03-28T09:12:27.005Z</time></trkpt><trkpt lat="45.75146050971238" lon="9.288089505648092"><ele>300.6666666666667</ele><time>2026-03-28T09:12:28.005Z</time></trkpt><trkpt lat="45.7516053168347" lon="9.28831770378868"><ele>302.3333333333333</ele><time>2026-03-28T09:12:29.005Z</time></trkpt><trkpt lat="45.75174694065633" lon="9.288537358926952"><ele>304.0</ele><time>2026-03-28T09:12:30.005Z</time></trkpt><trkpt lat="45.75188381760489" lon="9.288746043691383"><ele>301.66666666666663</ele><time>2026-03-28T09:12:31.005Z</time></trkpt><trkpt lat="45.75201609868852" lon="9.28895578162836"><ele>299.3333333333333</ele><time>2026-03-28T09:12:32.005Z</time></trkpt><trkpt lat="45.75212960293907" lon="9.28916009399088"><ele>297.0</ele><time>2026-03-28T09:12:33.005Z</time></trkpt><trkpt lat="45.75221979205469" lon="9.289369366990728"><ele>297.0</ele><time>2026-03-28T09:12:34.005Z</time></trkpt><trkpt lat="45.75230091607824" lon="9.289608438971781"><ele>297.0</ele><time>2026-03-28T09:12:35.005Z</time></trkpt><trkpt lat="45.75236232488413" lon="9.289869049451722"><ele>297.0</ele><time>2026-03-28T09:12:36.005Z</time></trkpt><trkpt lat="45.752404333610684" lon="9.290126899357187"><ele>296.0</ele><time>2026-03-28T09:12:37.005Z</time></trkpt><trkpt lat="45.75242515923478" lon="9.290369777246863"><ele>295.0</ele><time>2026-03-28T09:12:38.005Z</time></trkpt><trkpt lat="45.75242265204509" lon="9.290604620142082"><ele>294.0</ele><time>2026-03-28T09:12:39.005Z</time></trkpt><trkpt lat="45.75239838283092" lon="9.290821639426209"><ele>293.75</ele><time>2026-03-28T09:12:40.005Z</time></trkpt><trkpt lat="45.75236481250864" lon="9.291019260464415"><ele>293.5</ele><time>2026-03-28T09:12:41.005Z</time></trkpt><trkpt lat="45.752322961123106" lon="9.291206686938017"><ele>293.25</ele><time>2026-03-28T09:12:42.005Z</time></trkpt><trkpt lat="45.75229306277934" lon="9.291418890772531"><ele>293.0</ele><time>2026-03-28T09:12:43.005Z</time></trkpt><trkpt lat="45.752285766936474" lon="9.291629213310257"><ele>293.5</ele><time>2026-03-28T09:12:44.005Z</time></trkpt><trkpt lat="45.75228087629305" lon="9.29183215626587"><ele>294.0</ele><time>2026-03-28T09:12:45.005Z</time></trkpt><trkpt lat="45.75229470490147" lon="9.292022272331904"><ele>294.5</ele><time>2026-03-28T09:12:46.005Z</time></trkpt><trkpt lat="45.752323979001964" lon="9.29220018035715"><ele>295.0</ele><time>2026-03-28T09:12:47.005Z</time></trkpt><trkpt lat="45.752384061851274" lon="9.292401176688056"><ele>295.0</ele><time>2026-03-28T09:12:48.005Z</time></trkpt><trkpt lat="45.75245142914137" lon="9.292630607963666"><ele>295.0</ele><time>2026-03-28T09:12:49.005Z</time></trkpt><trkpt lat="45.75250109969974" lon="9.29288330211801"><ele>295.0</ele><time>2026-03-28T09:12:50.005Z</time></trkpt><trkpt lat="45.75252480337905" lon="9.29312817939827"><ele>294.66666666666663</ele><time>2026-03-28T09:12:51.005Z</time></trkpt><trkpt lat="45.7525379236068" lon="9.293366282339177"><ele>294.3333333333333</ele><time>2026-03-28T09:12:52.005Z</time></trkpt><trkpt lat="45.752541089507865" lon="9.293595462085356"><ele>294.0</ele><time>2026-03-28T09:12:53.004Z</time></trkpt><trkpt lat="45.75254391783942" lon="9.293818279865405"><ele>293.75</ele><time>2026-03-28T09:12:54.004Z</time></trkpt><trkpt lat="45.75254952219675" lon="9.294023652512882"><ele>293.5</ele><time>2026-03-28T09:12:55.004Z</time></trkpt><trkpt lat="45.7525530320244" lon="9.294202909984572"><ele>293.25</ele><time>2026-03-28T09:12:56.004Z</time></trkpt><trkpt lat="45.752552343310946" lon="9.294367824589738"><ele>293.0</ele><time>2026-03-28T09:12:57.004Z</time></trkpt><trkpt lat="45.75255238082365" lon="9.294523379829549"><ele>293.0</ele><time>2026-03-28T09:12:58.004Z</time></trkpt><trkpt lat="45.7525450842935" lon="9.294669098844349"><ele>293.0</ele><time>2026-03-28T09:12:59.004Z</time></trkpt><trkpt lat="45.75252802713792" lon="9.294807189104173"><ele>293.0</ele><time>2026-03-28T09:13:00.004Z</time></trkpt><trkpt lat="45.75252173146737" lon="9.294947430894583"><ele>293.0</ele><time>2026-03-28T09:13:01.004Z</time></trkpt><trkpt lat="45.75253466937173" lon="9.295110839487025"><ele>293.0</ele><time>2026-03-28T09:13:02.004Z</time></trkpt><trkpt lat="45.752578059428714" lon="9.29532998392448"><ele>293.33333333333337</ele><time>2026-03-28T09:13:03.004Z</time></trkpt><trkpt lat="45.752601727036094" lon="9.295569986424386"><ele>293.6666666666667</ele><time>2026-03-28T09:13:04.004Z</time></trkpt><trkpt lat="45.752616524589726" lon="9.295811847740124"><ele>294.0</ele><time>2026-03-28T09:13:05.004Z</time></trkpt><trkpt lat="45.75262338135418" lon="9.29602838280548"><ele>294.0</ele><time>2026-03-28T09:13:06.004Z</time></trkpt><trkpt lat="45.752629156269485" lon="9.296281899070426"><ele>294.0</ele><time>2026-03-28T09:13:07.004Z</time></trkpt><trkpt lat="45.75263875088219" lon="9.296513532031664"><ele>294.0</ele><time>2026-03-28T09:13:08.004Z</time></trkpt><trkpt lat="45.752646813080446" lon="9.296759380519616"><ele>294.3333333333333</ele><time>2026-03-28T09:13:09.004Z</time></trkpt><trkpt lat="45.752661647256495" lon="9.297011983160878"><ele>294.66666666666663</ele><time>2026-03-28T09:13:10.004Z</time></trkpt><trkpt lat="45.75264014586062" lon="9.29724758181002"><ele>295.0</ele><time>2026-03-28T09:13:11.004Z</time></trkpt><trkpt lat="45.75265254033051" lon="9.29746420875574"><ele>295.0</ele><time>2026-03-28T09:13:12.004Z</time></trkpt><trkpt lat="45.75265312365231" lon="9.297693164578785"><ele>295.0</ele><time>2026-03-28T09:13:13.004Z</time></trkpt><trkpt lat="45.75265802798367" lon="9.297929491330903"><ele>295.0</ele><time>2026-03-28T09:13:14.004Z</time></trkpt><trkpt lat="45.75266451035067" lon="9.298176213699165"><ele>296.0</ele><time>2026-03-28T09:13:15.004Z</time></trkpt><trkpt lat="45.75267142995422" lon="9.298449718783045"><ele>297.0</ele><time>2026-03-28T09:13:16.004Z</time></trkpt><trkpt lat="45.75268365139276" lon="9.298735006874047"><ele>298.0</ele><time>2026-03-28T09:13:17.004Z</time></trkpt><trkpt lat="45.75269196769644" lon="9.299018315924242"><ele>300.3333333333333</ele><time>2026-03-28T09:13:18.004Z</time></trkpt><trkpt lat="45.75270345661379" lon="9.29930490359085"><ele>302.6666666666667</ele><time>2026-03-28T09:13:19.004Z</time></trkpt><trkpt lat="45.752713100386046" lon="9.299575861094633"><ele>305.0</ele><time>2026-03-28T09:13:20.004Z</time></trkpt><trkpt lat="45.752728059776764" lon="9.29983566900584"><ele>306.6666666666667</ele><time>2026-03-28T09:13:21.004Z</time></trkpt><trkpt lat="45.75274095051799" lon="9.300080472536198"><ele>308.3333333333333</ele><time>2026-03-28T09:13:22.004Z</time></trkpt><trkpt lat="45.75274246310336" lon="9.300337799897544"><ele>310.0</ele><time>2026-03-28T09:13:23.004Z</time></trkpt><trkpt lat="45.752753956520266" lon="9.30059324208269"><ele>311.66666666666663</ele><time>2026-03-28T09:13:24.004Z</time></trkpt><trkpt lat="45.75274648226568" lon="9.300849495293955"><ele>313.3333333333333</ele><time>2026-03-28T09:13:25.004Z</time></trkpt><trkpt lat="45.752741340925894" lon="9.301095256116259"><ele>315.0</ele><time>2026-03-28T09:13:26.004Z</time></trkpt><trkpt lat="45.75272453075509" lon="9.301336576712488"><ele>316.6666666666667</ele><time>2026-03-28T09:13:27.004Z</time></trkpt><trkpt lat="45.75269185333047" lon="9.301567112482731"><ele>318.33333333333337</ele><time>2026-03-28T09:13:28.004Z</time></trkpt><trkpt lat="45.752647771178296" lon="9.301791086648986"><ele>320.0</ele><time>2026-03-28T09:13:29.004Z</time></trkpt><trkpt lat="45.75258652953461" lon="9.302008224251907"><ele>320.0</ele><time>2026-03-28T09:13:30.004Z</time></trkpt><trkpt lat="45.752506476516324" lon="9.302212090545456"><ele>320.0</ele><time>2026-03-28T09:13:31.004Z</time></trkpt><trkpt lat="45.7524267671768" lon="9.302403964757803"><ele>320.0</ele><time>2026-03-28T09:13:32.004Z</time></trkpt><trkpt lat="45.75236247363961" lon="9.302591216071011"><ele>321.25</ele><time>2026-03-28T09:13:33.004Z</time></trkpt><trkpt lat="45.752313677443254" lon="9.30277775490724"><ele>322.5</ele><time>2026-03-28T09:13:34.004Z</time></trkpt><trkpt lat="45.75229399929445" lon="9.302974493485278"><ele>323.75</ele><time>2026-03-28T09:13:35.004Z</time></trkpt><trkpt lat="45.75228979458925" lon="9.303182872135089"><ele>325.0</ele><time>2026-03-28T09:13:36.004Z</time></trkpt><trkpt lat="45.75230843610516" lon="9.303390055169494"><ele>326.0</ele><time>2026-03-28T09:13:37.004Z</time></trkpt><trkpt lat="45.75236237349766" lon="9.303587775307797"><ele>327.0</ele><time>2026-03-28T09:13:38.004Z</time></trkpt><trkpt lat="45.75243492801212" lon="9.3037693285957"><ele>328.0</ele><time>2026-03-28T09:13:39.004Z</time></trkpt><trkpt lat="45.75253115897317" lon="9.303937105957418"><ele>329.0</ele><time>2026-03-28T09:13:40.004Z</time></trkpt><trkpt lat="45.75264400815037" lon="9.304092518604095"><ele>331.33333333333337</ele><time>2026-03-28T09:13:41.004Z</time></trkpt><trkpt lat="45.75277738738817" lon="9.304232619082397"><ele>333.6666666666667</ele><time>2026-03-28T09:13:42.004Z</time></trkpt><trkpt lat="45.752914606362744" lon="9.304366059000012"><ele>336.0</ele><time>2026-03-28T09:13:43.004Z</time></trkpt><trkpt lat="45.75305180216906" lon="9.304500708606872"><ele>336.0</ele><time>2026-03-28T09:13:44.004Z</time></trkpt><trkpt lat="45.753182034597216" lon="9.304643693371725"><ele>336.0</ele><time>2026-03-28T09:13:45.004Z</time></trkpt><trkpt lat="45.753310157283394" lon="9.3047866636343"><ele>336.0</ele><time>2026-03-28T09:13:46.004Z</time></trkpt><trkpt lat="45.75343769974929" lon="9.3049274644385"><ele>335.3333333333333</ele><time>2026-03-28T09:13:47.004Z</time></trkpt><trkpt lat="45.75356593894768" lon="9.305059180491826"><ele>334.66666666666663</ele><time>2026-03-28T09:13:48.004Z</time></trkpt><trkpt lat="45.753696506543335" lon="9.305185762488977"><ele>334.0</ele><time>2026-03-28T09:13:49.004Z</time></trkpt><trkpt lat="45.753828264427" lon="9.30530913657487"><ele>334.0</ele><time>2026-03-28T09:13:50.004Z</time></trkpt><trkpt lat="45.753958082268525" lon="9.305434055756281"><ele>334.0</ele><time>2026-03-28T09:13:51.004Z</time></trkpt><trkpt lat="45.75408216388002" lon="9.305552780613525"><ele>334.0</ele><time>2026-03-28T09:13:52.004Z</time></trkpt><trkpt lat="45.754203416057976" lon="9.305672185790664"><ele>333.75</ele><time>2026-03-28T09:13:53.004Z</time></trkpt><trkpt lat="45.75431697457428" lon="9.305784261711457"><ele>333.5</ele><time>2026-03-28T09:13:54.004Z</time></trkpt><trkpt lat="45.75442763403494" lon="9.305896764214072"><ele>333.25</ele><time>2026-03-28T09:13:55.004Z</time></trkpt><trkpt lat="45.75453452896509" lon="9.30600737205186"><ele>333.0</ele><time>2026-03-28T09:13:56.004Z</time></trkpt><trkpt lat="45.7546352949079" lon="9.30611136956407"><ele>333.5</ele><time>2026-03-28T09:13:57.004Z</time></trkpt><trkpt lat="45.75473146078762" lon="9.306220587554654"><ele>334.0</ele><time>2026-03-28T09:13:58.004Z</time></trkpt><trkpt lat="45.75482070289462" lon="9.306334397824575"><ele>334.5</ele><time>2026-03-28T09:13:59.004Z</time></trkpt><trkpt lat="45.754914015537324" lon="9.306460787002944"><ele>335.0</ele><time>2026-03-28T09:14:00.004Z</time></trkpt><trkpt lat="45.7550037568784" lon="9.306596093219484"><ele>335.75</ele><time>2026-03-28T09:14:01.004Z</time></trkpt><trkpt lat="45.75508297867841" lon="9.306751160842678"><ele>336.5</ele><time>2026-03-28T09:14:02.005Z</time></trkpt><trkpt lat="45.75514360542844" lon="9.30691940147368"><ele>337.25</ele><time>2026-03-28T09:14:03.005Z</time></trkpt><trkpt lat="45.75519729138893" lon="9.307087967481078"><ele>338.0</ele><time>2026-03-28T09:14:04.005Z</time></trkpt><trkpt lat="45.75524055948924" lon="9.307262523828253"><ele>338.75</ele><time>2026-03-28T09:14:05.005Z</time></trkpt><trkpt lat="45.755268915734234" lon="9.307450047434353"><ele>339.5</ele><time>2026-03-28T09:14:06.005Z</time></trkpt><trkpt lat="45.755287470709916" lon="9.307648252533827"><ele>340.25</ele><time>2026-03-28T09:14:07.005Z</time></trkpt><trkpt lat="45.755300196419796" lon="9.307846198794495"><ele>341.0</ele><time>2026-03-28T09:14:08.005Z</time></trkpt><trkpt lat="45.755310880367226" lon="9.308042473432293"><ele>341.6666666666667</ele><time>2026-03-28T09:14:09.005Z</time></trkpt><trkpt lat="45.75531113271264" lon="9.30825767566866"><ele>342.3333333333333</ele><time>2026-03-28T09:14:10.005Z</time></trkpt><trkpt lat="45.755295223689984" lon="9.308478523654902"><ele>343.0</ele><time>2026-03-28T09:14:11.005Z</time></trkpt><trkpt lat="45.75526462293082" lon="9.308692630836877"><ele>343.0</ele><time>2026-03-28T09:14:12.005Z</time></trkpt><trkpt lat="45.75522506050747" lon="9.308904268489856"><ele>343.0</ele><time>2026-03-28T09:14:13.005Z</time></trkpt><trkpt lat="45.755178616816245" lon="9.309108570327199"><ele>343.0</ele><time>2026-03-28T09:14:14.005Z</time></trkpt><trkpt lat="45.75513533577419" lon="9.309306190136967"><ele>343.0</ele><time>2026-03-28T09:14:15.005Z</time></trkpt><trkpt lat="45.75509114305202" lon="9.309505776569859"><ele>344.5</ele><time>2026-03-28T09:14:16.005Z</time></trkpt><trkpt lat="45.755038540493125" lon="9.309707718762931"><ele>346.0</ele><time>2026-03-28T09:14:17.005Z</time></trkpt><trkpt lat="45.754988194755484" lon="9.30990809744361"><ele>347.5</ele><time>2026-03-28T09:14:18.005Z</time></trkpt><trkpt lat="45.75493835687472" lon="9.310107415223426"><ele>349.0</ele><time>2026-03-28T09:14:19.005Z</time></trkpt><trkpt lat="45.754884425687735" lon="9.310308936494994"><ele>349.0</ele><time>2026-03-28T09:14:20.005Z</time></trkpt><trkpt lat="45.7548255376056" lon="9.310512245397053"><ele>349.0</ele><time>2026-03-28T09:14:21.005Z</time></trkpt><trkpt lat="45.75477203194017" lon="9.31071426720628"><ele>349.0</ele><time>2026-03-28T09:14:22.005Z</time></trkpt><trkpt lat="45.75471073691468" lon="9.310928239886007"><ele>349.0</ele><time>2026-03-28T09:14:23.005Z</time></trkpt><trkpt lat="45.75464954240488" lon="9.311148917303484"><ele>349.0</ele><time>2026-03-28T09:14:24.005Z</time></trkpt><trkpt lat="45.754590629228865" lon="9.311374030100156"><ele>349.0</ele><time>2026-03-28T09:14:25.005Z</time></trkpt><trkpt lat="45.75452682375974" lon="9.311593826513882"><ele>348.66666666666663</ele><time>2026-03-28T09:14:26.005Z</time></trkpt><trkpt lat="45.754468916774975" lon="9.311808338937075"><ele>348.3333333333333</ele><time>2026-03-28T09:14:27.005Z</time></trkpt><trkpt lat="45.754412495888936" lon="9.312017375390113"><ele>348.0</ele><time>2026-03-28T09:14:28.005Z</time></trkpt><trkpt lat="45.75435792950953" lon="9.312224302206776"><ele>347.3333333333333</ele><time>2026-03-28T09:14:29.005Z</time></trkpt><trkpt lat="45.75430447103543" lon="9.312430489866543"><ele>346.66666666666663</ele><time>2026-03-28T09:14:30.005Z</time></trkpt><trkpt lat="45.75425305993252" lon="9.312637759327913"><ele>346.0</ele><time>2026-03-28T09:14:31.005Z</time></trkpt><trkpt lat="45.75420111801357" lon="9.312847597336683"><ele>346.0</ele><time>2026-03-28T09:14:32.005Z</time></trkpt><trkpt lat="45.75415022651588" lon="9.313058581085237"><ele>346.0</ele><time>2026-03-28T09:14:33.005Z</time></trkpt><trkpt lat="45.75409782640942" lon="9.313267858146846"><ele>346.0</ele><time>2026-03-28T09:14:34.005Z</time></trkpt><trkpt lat="45.754041446238396" lon="9.313480220060761"><ele>346.0</ele><time>2026-03-28T09:14:35.005Z</time></trkpt><trkpt lat="45.753984873417856" lon="9.313698901316055"><ele>346.0</ele><time>2026-03-28T09:14:36.005Z</time></trkpt><trkpt lat="45.75392544913419" lon="9.313918356937913"><ele>346.0</ele><time>2026-03-28T09:14:37.005Z</time></trkpt><trkpt lat="45.753865705113" lon="9.314138943479572"><ele>345.75</ele><time>2026-03-28T09:14:38.005Z</time></trkpt><trkpt lat="45.75380976883764" lon="9.314352629206986"><ele>345.5</ele><time>2026-03-28T09:14:39.005Z</time></trkpt><trkpt lat="45.7537587770095" lon="9.314556893208598"><ele>345.25</ele><time>2026-03-28T09:14:40.005Z</time></trkpt><trkpt lat="45.753699032524935" lon="9.314732107108924"><ele>345.0</ele><time>2026-03-28T09:14:41.005Z</time></trkpt><trkpt lat="45.75364370567822" lon="9.314911363849292"><ele>345.0</ele><time>2026-03-28T09:14:42.005Z</time></trkpt><trkpt lat="45.75358333558033" lon="9.315090578256525"><ele>345.0</ele><time>2026-03-28T09:14:43.005Z</time></trkpt><trkpt lat="45.753533723936194" lon="9.315273598569922"><ele>345.0</ele><time>2026-03-28T09:14:44.005Z</time></trkpt><trkpt lat="45.753489375574645" lon="9.315452766182965"><ele>345.0</ele><time>2026-03-28T09:14:45.005Z</time></trkpt><trkpt lat="45.753438622449856" lon="9.315625117950487"><ele>345.0</ele><time>2026-03-28T09:14:46.005Z</time></trkpt><trkpt lat="45.75338774243436" lon="9.315807649618762"><ele>345.0</ele><time>2026-03-28T09:14:47.005Z</time></trkpt><trkpt lat="45.75333564489393" lon="9.315990241959097"><ele>345.0</ele><time>2026-03-28T09:14:48.005Z</time></trkpt><trkpt lat="45.753287099901215" lon="9.316170823730861"><ele>345.0</ele><time>2026-03-28T09:14:49.005Z</time></trkpt><trkpt lat="45.753239278809176" lon="9.316359061122878"><ele>345.25</ele><time>2026-03-28T09:14:50.005Z</time></trkpt><trkpt lat="45.753192108516025" lon="9.316558998133107"><ele>345.5</ele><time>2026-03-28T09:14:51.005Z</time></trkpt><trkpt lat="45.753139953920765" lon="9.316761504837185"><ele>345.75</ele><time>2026-03-28T09:14:52.005Z</time></trkpt><trkpt lat="45.75309014765512" lon="9.316962209698955"><ele>346.0</ele><time>2026-03-28T09:14:53.005Z</time></trkpt><trkpt lat="45.753037698417" lon="9.317165413035598"><ele>346.0</ele><time>2026-03-28T09:14:54.005Z</time></trkpt><trkpt lat="45.752986527119354" lon="9.317367124568584"><ele>346.0</ele><time>2026-03-28T09:14:55.005Z</time></trkpt><trkpt lat="45.75293336313026" lon="9.317565483329039"><ele>346.0</ele><time>2026-03-28T09:14:56.005Z</time></trkpt><trkpt lat="45.752881500824365" lon="9.317759858911572"><ele>346.0</ele><time>2026-03-28T09:14:57.005Z</time></trkpt><trkpt lat="45.7528348634145" lon="9.317944859895217"><ele>345.75</ele><time>2026-03-28T09:14:58.005Z</time></trkpt><trkpt lat="45.75278972537252" lon="9.318122165719092"><ele>345.5</ele><time>2026-03-28T09:14:59.005Z</time></trkpt><trkpt lat="45.75274420113566" lon="9.318291287466304"><ele>345.25</ele><time>2026-03-28T09:15:00.005Z</time></trkpt><trkpt lat="45.75270237854331" lon="9.318455252997683"><ele>345.0</ele><time>2026-03-28T09:15:01.005Z</time></trkpt><trkpt lat="45.752661769651816" lon="9.31860438875751"><ele>344.6</ele><time>2026-03-28T09:15:02.005Z</time></trkpt><trkpt lat="45.75262205851327" lon="9.31874268889319"><ele>344.2</ele><time>2026-03-28T09:15:03.004Z</time></trkpt><trkpt lat="45.75258520905803" lon="9.318868517129603"><ele>343.79999999999995</ele><time>2026-03-28T09:15:04.004Z</time></trkpt><trkpt lat="45.75254981476606" lon="9.31898913540008"><ele>343.4</ele><time>2026-03-28T09:15:05.004Z</time></trkpt><trkpt lat="45.75250553757756" lon="9.319097537319175"><ele>343.0</ele><time>2026-03-28T09:15:06.004Z</time></trkpt><trkpt lat="45.75246112194567" lon="9.319192953981549"><ele>343.66666666666663</ele><time>2026-03-28T09:15:07.004Z</time></trkpt><trkpt lat="45.75241466476158" lon="9.319271346066637"><ele>344.3333333333333</ele><time>2026-03-28T09:15:08.005Z</time></trkpt><trkpt lat="45.752352292040115" lon="9.319407299813063"><ele>345.0</ele><time>2026-03-28T09:15:10.004Z</time></trkpt><trkpt lat="45.752313131562005" lon="9.319504718065021"><ele>345.6666666666667</ele><time>2026-03-28T09:15:11.004Z</time></trkpt><trkpt lat="45.752252030221946" lon="9.319594521650396"><ele>346.33333333333337</ele><time>2026-03-28T09:15:12.005Z</time></trkpt><trkpt lat="45.75219322672198" lon="9.319666967915817"><ele>347.0</ele><time>2026-03-28T09:15:13.005Z</time></trkpt><trkpt lat="45.75214752578928" lon="9.319748536713314"><ele>347.0</ele><time>2026-03-28T09:15:14.005Z</time></trkpt><trkpt lat="45.752133970873786" lon="9.319857369936175"><ele>347.0</ele><time>2026-03-28T09:15:15.005Z</time></trkpt><trkpt lat="45.752151987087736" lon="9.319973983417473"><ele>347.0</ele><time>2026-03-28T09:15:16.005Z</time></trkpt><trkpt lat="45.75217972742577" lon="9.320115435032353"><ele>347.0</ele><time>2026-03-28T09:15:17.005Z</time></trkpt><trkpt lat="45.75217691247679" lon="9.320273183547007"><ele>347.0</ele><time>2026-03-28T09:15:18.005Z</time></trkpt><trkpt lat="45.75215832868135" lon="9.320450413308182"><ele>347.6666666666667</ele><time>2026-03-28T09:15:19.005Z</time></trkpt><trkpt lat="45.7521240833003" lon="9.320657200376646"><ele>348.3333333333333</ele><time>2026-03-28T09:15:20.005Z</time></trkpt><trkpt lat="45.75206601648669" lon="9.320890631639339"><ele>349.0</ele><time>2026-03-28T09:15:21.005Z</time></trkpt><trkpt lat="45.7520018893041" lon="9.321112915477293"><ele>349.0</ele><time>2026-03-28T09:15:22.005Z</time></trkpt><trkpt lat="45.751949238285256" lon="9.321306025660471"><ele>349.0</ele><time>2026-03-28T09:15:23.005Z</time></trkpt><trkpt lat="45.75190970579602" lon="9.321484901338065"><ele>349.0</ele><time>2026-03-28T09:15:24.005Z</time></trkpt><trkpt lat="45.75187048209695" lon="9.321637617220135"><ele>349.0</ele><time>2026-03-28T09:15:25.005Z</time></trkpt><trkpt lat="45.75183463329796" lon="9.321786457055282"><ele>348.6</ele><time>2026-03-28T09:15:26.005Z</time></trkpt><trkpt lat="45.75179472127436" lon="9.321926614629174"><ele>348.2</ele><time>2026-03-28T09:15:27.005Z</time></trkpt><trkpt lat="45.75174858631539" lon="9.322055020526502"><ele>347.8</ele><time>2026-03-28T09:15:28.005Z</time></trkpt><trkpt lat="45.75169273421263" lon="9.32219326427137"><ele>347.40000000000003</ele><time>2026-03-28T09:15:29.005Z</time></trkpt><trkpt lat="45.751643838183085" lon="9.322353049156192"><ele>347.0</ele><time>2026-03-28T09:15:30.005Z</time></trkpt><trkpt lat="45.751592089351604" lon="9.322543822533692"><ele>347.0</ele><time>2026-03-28T09:15:31.005Z</time></trkpt><trkpt lat="45.75153488657309" lon="9.322778147351366"><ele>347.0</ele><time>2026-03-28T09:15:32.005Z</time></trkpt><trkpt lat="45.75147541558168" lon="9.323017588918345"><ele>347.0</ele><time>2026-03-28T09:15:33.005Z</time></trkpt><trkpt lat="45.75141721016666" lon="9.32324962583342"><ele>347.0</ele><time>2026-03-28T09:15:34.005Z</time></trkpt><trkpt lat="45.751355866644005" lon="9.323484634238827"><ele>347.0</ele><time>2026-03-28T09:15:35.005Z</time></trkpt><trkpt lat="45.751297501875904" lon="9.323714681916405"><ele>347.0</ele><time>2026-03-28T09:15:36.005Z</time></trkpt><trkpt lat="45.75124282882586" lon="9.323938515054962"><ele>347.0</ele><time>2026-03-28T09:15:37.005Z</time></trkpt><trkpt lat="45.75119256103421" lon="9.32416669685676"><ele>347.0</ele><time>2026-03-28T09:15:38.005Z</time></trkpt><trkpt lat="45.75113905941984" lon="9.32438938605249"><ele>347.0</ele><time>2026-03-28T09:15:39.005Z</time></trkpt><trkpt lat="45.751086836176" lon="9.324588945238569"><ele>347.5</ele><time>2026-03-28T09:15:40.005Z</time></trkpt><trkpt lat="45.751037507798685" lon="9.324777784900196"><ele>348.0</ele><time>2026-03-28T09:15:41.005Z</time></trkpt><trkpt lat="45.75099047473605" lon="9.324970631676136"><ele>348.5</ele><time>2026-03-28T09:15:42.005Z</time></trkpt><trkpt lat="45.750941776275965" lon="9.325194641340708"><ele>349.0</ele><time>2026-03-28T09:15:43.005Z</time></trkpt><trkpt lat="45.75088924206851" lon="9.32543828378506"><ele>349.0</ele><time>2026-03-28T09:15:44.005Z</time></trkpt><trkpt lat="45.75079135713174" lon="9.325685533414363"><ele>349.0</ele><time>2026-03-28T09:15:45.005Z</time></trkpt><trkpt lat="45.750714519564504" lon="9.325975765191057"><ele>349.0</ele><time>2026-03-28T09:15:46.005Z</time></trkpt><trkpt lat="45.750652386811836" lon="9.326281766717651"><ele>349.0</ele><time>2026-03-28T09:15:47.005Z</time></trkpt><trkpt lat="45.750567099510036" lon="9.326566987057536"><ele>349.0</ele><time>2026-03-28T09:15:48.005Z</time></trkpt><trkpt lat="45.75049103117916" lon="9.32682947677512"><ele>349.0</ele><time>2026-03-28T09:15:49.005Z</time></trkpt><trkpt lat="45.75042434447035" lon="9.327060367527311"><ele>349.75</ele><time>2026-03-28T09:15:50.005Z</time></trkpt><trkpt lat="45.750364731527" lon="9.32726021377631"><ele>350.5</ele><time>2026-03-28T09:15:51.005Z</time></trkpt><trkpt lat="45.750312160797826" lon="9.327454609880657"><ele>351.25</ele><time>2026-03-28T09:15:52.005Z</time></trkpt><trkpt lat="45.75025974873456" lon="9.32764793520398"><ele>352.0</ele><time>2026-03-28T09:15:53.005Z</time></trkpt><trkpt lat="45.7502073277951" lon="9.327829444915993"><ele>352.75</ele><time>2026-03-28T09:15:54.005Z</time></trkpt><trkpt lat="45.75015630972607" lon="9.328008305897978"><ele>353.5</ele><time>2026-03-28T09:15:55.005Z</time></trkpt><trkpt lat="45.750108636161904" lon="9.328194856727226"><ele>354.25</ele><time>2026-03-28T09:15:56.005Z</time></trkpt><trkpt lat="45.750061049194976" lon="9.32837193836219"><ele>355.0</ele><time>2026-03-28T09:15:57.005Z</time></trkpt><trkpt lat="45.7500199780499" lon="9.328534044691631"><ele>355.0</ele><time>2026-03-28T09:15:58.005Z</time></trkpt><trkpt lat="45.749980384227804" lon="9.328687310253303"><ele>355.0</ele><time>2026-03-28T09:15:59.005Z</time></trkpt><trkpt lat="45.74993503835716" lon="9.328846170944768"><ele>355.0</ele><time>2026-03-28T09:16:00.005Z</time></trkpt><trkpt lat="45.74989296016851" lon="9.32902348378283"><ele>355.0</ele><time>2026-03-28T09:16:01.005Z</time></trkpt><trkpt lat="45.749850972103175" lon="9.32919866470815"><ele>355.0</ele><time>2026-03-28T09:16:02.005Z</time></trkpt><trkpt lat="45.749818857156605" lon="9.329375436840436"><ele>355.0</ele><time>2026-03-28T09:16:03.005Z</time></trkpt><trkpt lat="45.7497908136296" lon="9.329551698317754"><ele>355.0</ele><time>2026-03-28T09:16:04.005Z</time></trkpt><trkpt lat="45.74976600742167" lon="9.329737687223613"><ele>355.0</ele><time>2026-03-28T09:16:05.005Z</time></trkpt><trkpt lat="45.74974229659333" lon="9.329910731617066"><ele>355.0</ele><time>2026-03-28T09:16:06.005Z</time></trkpt><trkpt lat="45.749722239189566" lon="9.330079289634899"><ele>355.0</ele><time>2026-03-28T09:16:07.005Z</time></trkpt><trkpt lat="45.74970304576888" lon="9.330265935049292"><ele>355.0</ele><time>2026-03-28T09:16:08.005Z</time></trkpt><trkpt lat="45.74969128579484" lon="9.33049507163061"><ele>355.0</ele><time>2026-03-28T09:16:09.005Z</time></trkpt><trkpt lat="45.74967752077092" lon="9.33073058010847"><ele>355.0</ele><time>2026-03-28T09:16:10.005Z</time></trkpt><trkpt lat="45.7496619813793" lon="9.330974397308172"><ele>355.0</ele><time>2026-03-28T09:16:11.005Z</time></trkpt><trkpt lat="45.74964499650158" lon="9.331231574258947"><ele>355.0</ele><time>2026-03-28T09:16:12.005Z</time></trkpt><trkpt lat="45.749623962087924" lon="9.331494053140386"><ele>354.66666666666663</ele><time>2026-03-28T09:16:13.005Z</time></trkpt><trkpt lat="45.74960699535744" lon="9.331749281975931"><ele>354.3333333333333</ele><time>2026-03-28T09:16:14.005Z</time></trkpt><trkpt lat="45.74959012346469" lon="9.331978908744432"><ele>354.0</ele><time>2026-03-28T09:16:15.005Z</time></trkpt><trkpt lat="45.74957907014795" lon="9.332184792319856"><ele>354.25</ele><time>2026-03-28T09:16:16.005Z</time></trkpt><trkpt lat="45.74956647066456" lon="9.332374558520522"><ele>354.5</ele><time>2026-03-28T09:16:17.005Z</time></trkpt><trkpt lat="45.74955863249014" lon="9.332549767506881"><ele>354.75</ele><time>2026-03-28T09:16:18.005Z</time></trkpt><trkpt lat="45.749548264361515" lon="9.332725095216356"><ele>355.0</ele><time>2026-03-28T09:16:19.005Z</time></trkpt><trkpt lat="45.74951430251373" lon="9.33289897743799"><ele>354.75</ele><time>2026-03-28T09:16:20.006Z</time></trkpt><trkpt lat="45.749468653384646" lon="9.333067730392777"><ele>354.5</ele><time>2026-03-28T09:16:21.006Z</time></trkpt><trkpt lat="45.74943869623513" lon="9.333227303044872"><ele>354.25</ele><time>2026-03-28T09:16:22.006Z</time></trkpt><trkpt lat="45.74944589527273" lon="9.333393909364027"><ele>354.0</ele><time>2026-03-28T09:16:23.006Z</time></trkpt><trkpt lat="45.74946283443786" lon="9.333586196042292"><ele>354.0</ele><time>2026-03-28T09:16:24.006Z</time></trkpt><trkpt lat="45.749453393756575" lon="9.333783872915188"><ele>354.0</ele><time>2026-03-28T09:16:25.006Z</time></trkpt><trkpt lat="45.749424852760285" lon="9.333976564447159"><ele>354.0</ele><time>2026-03-28T09:16:26.006Z</time></trkpt><trkpt lat="45.74937551668973" lon="9.334201938101591"><ele>354.0</ele><time>2026-03-28T09:16:27.006Z</time></trkpt><trkpt lat="45.749319070812085" lon="9.334471150003655"><ele>356.0</ele><time>2026-03-28T09:16:28.006Z</time></trkpt><trkpt lat="45.74926125629807" lon="9.334774493113011"><ele>358.0</ele><time>2026-03-28T09:16:29.006Z</time></trkpt><trkpt lat="45.74921464039305" lon="9.33506367155411"><ele>360.0</ele><time>2026-03-28T09:16:30.006Z</time></trkpt><trkpt lat="45.74916831395609" lon="9.335351099605994"><ele>358.6666666666667</ele><time>2026-03-28T09:16:31.006Z</time></trkpt><trkpt lat="45.749109049843405" lon="9.335641756770855"><ele>357.33333333333337</ele><time>2026-03-28T09:16:32.006Z</time></trkpt><trkpt lat="45.74904645039402" lon="9.335920301695914"><ele>356.0</ele><time>2026-03-28T09:16:33.006Z</time></trkpt><trkpt lat="45.74897535466791" lon="9.336197540809568"><ele>354.0</ele><time>2026-03-28T09:16:34.006Z</time></trkpt><trkpt lat="45.74888713706604" lon="9.336465102421906"><ele>352.0</ele><time>2026-03-28T09:16:35.006Z</time></trkpt><trkpt lat="45.748782243374514" lon="9.336735617746944"><ele>350.0</ele><time>2026-03-28T09:16:36.006Z</time></trkpt><trkpt lat="45.748673481784394" lon="9.337004202425007"><ele>348.6666666666667</ele><time>2026-03-28T09:16:37.006Z</time></trkpt><trkpt lat="45.748559784145726" lon="9.337262307138824"><ele>347.3333333333333</ele><time>2026-03-28T09:16:38.006Z</time></trkpt><trkpt lat="45.74844435314977" lon="9.337503764874715"><ele>346.0</ele><time>2026-03-28T09:16:39.006Z</time></trkpt><trkpt lat="45.74832689939961" lon="9.337746973566368"><ele>348.66666666666663</ele><time>2026-03-28T09:16:40.006Z</time></trkpt><trkpt lat="45.74820896022966" lon="9.33799566459225"><ele>351.3333333333333</ele><time>2026-03-28T09:16:41.006Z</time></trkpt><trkpt lat="45.74810126417668" lon="9.338247277514666"><ele>354.0</ele><time>2026-03-28T09:16:42.006Z</time></trkpt><trkpt lat="45.74800799543008" lon="9.338514880236014"><ele>354.0</ele><time>2026-03-28T09:16:43.006Z</time></trkpt><trkpt lat="45.74792258933723" lon="9.338796089249916"><ele>354.0</ele><time>2026-03-28T09:16:44.006Z</time></trkpt><trkpt lat="45.74784876463868" lon="9.339076688603466"><ele>354.0</ele><time>2026-03-28T09:16:45.006Z</time></trkpt><trkpt lat="45.74778816183578" lon="9.339373150396439"><ele>354.5</ele><time>2026-03-28T09:16:46.006Z</time></trkpt><trkpt lat="45.74772789945492" lon="9.339684538325294"><ele>355.0</ele><time>2026-03-28T09:16:47.006Z</time></trkpt><trkpt lat="45.74766325961891" lon="9.339993174560147"><ele>355.0</ele><time>2026-03-28T09:16:48.006Z</time></trkpt><trkpt lat="45.747596203550856" lon="9.340310696429759"><ele>355.0</ele><time>2026-03-28T09:16:49.006Z</time></trkpt><trkpt lat="45.7475312387375" lon="9.340623681761729"><ele>355.0</ele><time>2026-03-28T09:16:50.006Z</time></trkpt><trkpt lat="45.74747029324521" lon="9.340934132176272"><ele>355.0</ele><time>2026-03-28T09:16:51.006Z</time></trkpt><trkpt lat="45.74741224133474" lon="9.341232611617267"><ele>355.0</ele><time>2026-03-28T09:16:52.005Z</time></trkpt><trkpt lat="45.747348761806464" lon="9.341529460418096"><ele>354.66666666666663</ele><time>2026-03-28T09:16:53.005Z</time></trkpt><trkpt lat="45.74727398902772" lon="9.341810852625164"><ele>354.3333333333333</ele><time>2026-03-28T09:16:54.004Z</time></trkpt><trkpt lat="45.747176076536945" lon="9.34206535732384"><ele>354.0</ele><time>2026-03-28T09:16:55.004Z</time></trkpt><trkpt lat="45.747069910751684" lon="9.342308341910853"><ele>354.0</ele><time>2026-03-28T09:16:56.004Z</time></trkpt><trkpt lat="45.74696324457042" lon="9.342561974368152"><ele>354.0</ele><time>2026-03-28T09:16:57.004Z</time></trkpt><trkpt lat="45.74682424161209" lon="9.342799759016533"><ele>354.0</ele><time>2026-03-28T09:16:58.003Z</time></trkpt><trkpt lat="45.746677869913874" lon="9.343081935359093"><ele>354.0</ele><time>2026-03-28T09:16:59.003Z</time></trkpt><trkpt lat="45.74652394577223" lon="9.343376247060288"><ele>354.0</ele><time>2026-03-28T09:17:00.003Z</time></trkpt><trkpt lat="45.74637112499967" lon="9.343666164619217"><ele>345.5</ele><time>2026-03-28T09:17:01.003Z</time></trkpt><trkpt lat="45.74622039527499" lon="9.343954108984954"><ele>337.0</ele><time>2026-03-28T09:17:02.002Z</time></trkpt><trkpt lat="45.74606649594016" lon="9.344245588906125"><ele>343.0</ele><time>2026-03-28T09:17:03.002Z</time></trkpt><trkpt lat="45.74591211780332" lon="9.344538155040356"><ele>349.0</ele><time>2026-03-28T09:17:04.002Z</time></trkpt><trkpt lat="45.74574410302636" lon="9.34486286317931"><ele>349.0</ele><time>2026-03-28T09:17:05.001Z</time></trkpt><trkpt lat="45.74557686788306" lon="9.345193013736734"><ele>349.0</ele><time>2026-03-28T09:17:06Z</time></trkpt><trkpt lat="45.74542126725569" lon="9.345552269927365"><ele>352.0</ele><time>2026-03-28T09:17:07Z</time></trkpt><trkpt lat="45.74529091797176" lon="9.345916555988802"><ele>355.0</ele><time>2026-03-28T09:17:08Z</time></trkpt><trkpt lat="45.74517482614451" lon="9.34627825445364"><ele>349.5</ele><time>2026-03-28T09:17:09Z</time></trkpt><trkpt lat="45.745029957487276" lon="9.34662872376072"><ele>344.0</ele><time>2026-03-28T09:17:09.999Z</time></trkpt><trkpt lat="45.74492574002113" lon="9.3469523643229"><ele>340.0</ele><time>2026-03-28T09:17:11Z</time></trkpt><trkpt lat="45.74482651123909" lon="9.347253951959328"><ele>336.0</ele><time>2026-03-28T09:17:12Z</time></trkpt><trkpt lat="45.74472046120792" lon="9.34754478444691"><ele>336.0</ele><time>2026-03-28T09:17:13Z</time></trkpt><trkpt lat="45.744608602644" lon="9.347815252266377"><ele>336.0</ele><time>2026-03-28T09:17:13.999Z</time></trkpt><trkpt lat="45.74450816746272" lon="9.348065268651514"><ele>336.0</ele><time>2026-03-28T09:17:14.999Z</time></trkpt><trkpt lat="45.74435646066512" lon="9.348270360899093"><ele>339.0</ele><time>2026-03-28T09:17:15.999Z</time></trkpt><trkpt lat="45.74418960845299" lon="9.348449240874967"><ele>342.0</ele><time>2026-03-28T09:17:16.999Z</time></trkpt><trkpt lat="45.74401655041088" lon="9.34861729657815"><ele>345.0</ele><time>2026-03-28T09:17:17.999Z</time></trkpt><trkpt lat="45.74384520766553" lon="9.348785083544904"><ele>347.6666666666667</ele><time>2026-03-28T09:17:18.999Z</time></trkpt><trkpt lat="45.74368064036281" lon="9.34895372338639"><ele>350.33333333333337</ele><time>2026-03-28T09:17:19.999Z</time></trkpt><trkpt lat="45.743516449643515" lon="9.349127383614112"><ele>353.0</ele><time>2026-03-28T09:17:20.999Z</time></trkpt><trkpt lat="45.743367726290195" lon="9.34930468046785"><ele>353.0</ele><time>2026-03-28T09:17:21.999Z</time></trkpt><trkpt lat="45.7432293247271" lon="9.349503679640613"><ele>353.0</ele><time>2026-03-28T09:17:22.999Z</time></trkpt><trkpt lat="45.74309893740005" lon="9.34973837853421"><ele>353.0</ele><time>2026-03-28T09:17:23.999Z</time></trkpt><trkpt lat="45.74297962379813" lon="9.35001008265568"><ele>345.5</ele><time>2026-03-28T09:17:24.999Z</time></trkpt><trkpt lat="45.742878594162455" lon="9.350300270497167"><ele>338.0</ele><time>2026-03-28T09:17:25.999Z</time></trkpt><trkpt lat="45.74278654107831" lon="9.350604642354273"><ele>339.6666666666667</ele><time>2026-03-28T09:17:26.999Z</time></trkpt><trkpt lat="45.742705759547235" lon="9.350902964632349"><ele>341.3333333333333</ele><time>2026-03-28T09:17:27.999Z</time></trkpt><trkpt lat="45.7426297894305" lon="9.35119410816508"><ele>343.0</ele><time>2026-03-28T09:17:28.999Z</time></trkpt><trkpt lat="45.7425468924842" lon="9.351477166155005"><ele>343.0</ele><time>2026-03-28T09:17:29.999Z</time></trkpt><trkpt lat="45.742467826057165" lon="9.35175111085797"><ele>343.0</ele><time>2026-03-28T09:17:30.999Z</time></trkpt><trkpt lat="45.74237474766225" lon="9.352013684042541"><ele>343.0</ele><time>2026-03-28T09:17:31.999Z</time></trkpt><trkpt lat="45.74226879118241" lon="9.352266981588306"><ele>341.3333333333333</ele><time>2026-03-28T09:17:32.999Z</time></trkpt><trkpt lat="45.74215462390038" lon="9.35250056764062"><ele>339.6666666666667</ele><time>2026-03-28T09:17:33.999Z</time></trkpt><trkpt lat="45.742029696703355" lon="9.35272220785997"><ele>338.0</ele><time>2026-03-28T09:17:34.999Z</time></trkpt><trkpt lat="45.74190587466524" lon="9.352942543180308"><ele>340.0</ele><time>2026-03-28T09:17:35.999Z</time></trkpt><trkpt lat="45.741800043666736" lon="9.35315569064189"><ele>342.0</ele><time>2026-03-28T09:17:36.999Z</time></trkpt><trkpt lat="45.7416914766525" lon="9.353354600391862"><ele>344.0</ele><time>2026-03-28T09:17:37.999Z</time></trkpt><trkpt lat="45.74158835503395" lon="9.353549643017105"><ele>344.0</ele><time>2026-03-28T09:17:38.999Z</time></trkpt><trkpt lat="45.74148505431823" lon="9.353749076684194"><ele>344.0</ele><time>2026-03-28T09:17:39.999Z</time></trkpt><trkpt lat="45.74138671820482" lon="9.353951390148275"><ele>344.0</ele><time>2026-03-28T09:17:40.999Z</time></trkpt><trkpt lat="45.74129397909889" lon="9.354134824971203"><ele>344.33333333333337</ele><time>2026-03-28T09:17:41.999Z</time></trkpt><trkpt lat="45.74120529009886" lon="9.354311711105556"><ele>344.6666666666667</ele><time>2026-03-28T09:17:42.999Z</time></trkpt><trkpt lat="45.74111603229292" lon="9.354487158654287"><ele>345.0</ele><time>2026-03-28T09:17:43.999Z</time></trkpt><trkpt lat="45.74102694779888" lon="9.354664221853122"><ele>345.6666666666667</ele><time>2026-03-28T09:17:44.999Z</time></trkpt><trkpt lat="45.740933023918316" lon="9.354842002148477"><ele>346.33333333333337</ele><time>2026-03-28T09:17:45.999Z</time></trkpt><trkpt lat="45.74083829369687" lon="9.355023489249133"><ele>347.0</ele><time>2026-03-28T09:17:46.999Z</time></trkpt><trkpt lat="45.74074551531401" lon="9.355204389375407"><ele>347.0</ele><time>2026-03-28T09:17:47.999Z</time></trkpt><trkpt lat="45.74065305955842" lon="9.355373488593257"><ele>347.0</ele><time>2026-03-28T09:17:48.999Z</time></trkpt><trkpt lat="45.740568090752895" lon="9.355552605651535"><ele>347.0</ele><time>2026-03-28T09:17:49.999Z</time></trkpt><trkpt lat="45.74048779983432" lon="9.355742926270983"><ele>345.33333333333337</ele><time>2026-03-28T09:17:50.999Z</time></trkpt><trkpt lat="45.74041620835622" lon="9.355936886175028"><ele>343.6666666666667</ele><time>2026-03-28T09:17:51.999Z</time></trkpt><trkpt lat="45.74034617420106" lon="9.35613052653863"><ele>342.0</ele><time>2026-03-28T09:17:52.999Z</time></trkpt><trkpt lat="45.740276739713856" lon="9.356331914371784"><ele>344.0</ele><time>2026-03-28T09:17:53.999Z</time></trkpt><trkpt lat="45.74021471098594" lon="9.35654135194246"><ele>346.0</ele><time>2026-03-28T09:17:54.999Z</time></trkpt><trkpt lat="45.74015535337836" lon="9.356751758200408"><ele>348.0</ele><time>2026-03-28T09:17:55.999Z</time></trkpt><trkpt lat="45.74009473978994" lon="9.356979915203125"><ele>347.0</ele><time>2026-03-28T09:17:56.999Z</time></trkpt><trkpt lat="45.74001534886834" lon="9.357241320159389"><ele>346.0</ele><time>2026-03-28T09:17:57.999Z</time></trkpt><trkpt lat="45.73994881433225" lon="9.35749344315587"><ele>345.0</ele><time>2026-03-28T09:17:58.999Z</time></trkpt><trkpt lat="45.73988161199786" lon="9.357740370445168"><ele>345.0</ele><time>2026-03-28T09:17:59.999Z</time></trkpt><trkpt lat="45.739819889686686" lon="9.357976101543295"><ele>345.0</ele><time>2026-03-28T09:18:00.999Z</time></trkpt><trkpt lat="45.73976002873072" lon="9.358192108031444"><ele>345.0</ele><time>2026-03-28T09:18:01.999Z</time></trkpt><trkpt lat="45.73970342858985" lon="9.358395169355976"><ele>344.25</ele><time>2026-03-28T09:18:02.999Z</time></trkpt><trkpt lat="45.739650548006225" lon="9.358588211017596"><ele>343.5</ele><time>2026-03-28T09:18:03.999Z</time></trkpt><trkpt lat="45.73960645204597" lon="9.358777196590562"><ele>342.75</ele><time>2026-03-28T09:18:04.999Z</time></trkpt><trkpt lat="45.739559637089656" lon="9.35895497186337"><ele>342.0</ele><time>2026-03-28T09:18:05.999Z</time></trkpt><trkpt lat="45.73951827636941" lon="9.359114390917215"><ele>342.0</ele><time>2026-03-28T09:18:06.999Z</time></trkpt><trkpt lat="45.73947390781997" lon="9.359275838662128"><ele>342.0</ele><time>2026-03-28T09:18:07.999Z</time></trkpt><trkpt lat="45.73943336074586" lon="9.359437788544696"><ele>342.0</ele><time>2026-03-28T09:18:08.999Z</time></trkpt><trkpt lat="45.739390087222084" lon="9.359604757939458"><ele>342.0</ele><time>2026-03-28T09:18:09.999Z</time></trkpt><trkpt lat="45.739340327803006" lon="9.359770589848852"><ele>341.0</ele><time>2026-03-28T09:18:10.999Z</time></trkpt><trkpt lat="45.739288998267284" lon="9.359952302234953"><ele>340.0</ele><time>2026-03-28T09:18:11.999Z</time></trkpt><trkpt lat="45.73923679919428" lon="9.360141498832668"><ele>339.0</ele><time>2026-03-28T09:18:12.999Z</time></trkpt><trkpt lat="45.73919092670734" lon="9.360322199146177"><ele>338.0</ele><time>2026-03-28T09:18:13.999Z</time></trkpt><trkpt lat="45.73914308698886" lon="9.360515648808338"><ele>337.5</ele><time>2026-03-28T09:18:14.999Z</time></trkpt><trkpt lat="45.73908615037129" lon="9.36072108994462"><ele>337.0</ele><time>2026-03-28T09:18:15.999Z</time></trkpt><trkpt lat="45.73902997245455" lon="9.360909486819391"><ele>336.5</ele><time>2026-03-28T09:18:16.999Z</time></trkpt><trkpt lat="45.738975339790215" lon="9.361096740283186"><ele>336.0</ele><time>2026-03-28T09:18:17.999Z</time></trkpt><trkpt lat="45.73892242406497" lon="9.361279448872246"><ele>336.5</ele><time>2026-03-28T09:18:18.999Z</time></trkpt><trkpt lat="45.73886969577506" lon="9.361454783885053"><ele>337.0</ele><time>2026-03-28T09:18:19.999Z</time></trkpt><trkpt lat="45.738817650003384" lon="9.361626737524958"><ele>337.5</ele><time>2026-03-28T09:18:20.999Z</time></trkpt><trkpt lat="45.73876436974495" lon="9.361806356082706"><ele>338.0</ele><time>2026-03-28T09:18:21.999Z</time></trkpt><trkpt lat="45.73871003452872" lon="9.361983842926076"><ele>338.0</ele><time>2026-03-28T09:18:22.999Z</time></trkpt><trkpt lat="45.73866019304988" lon="9.36216871933907"><ele>338.0</ele><time>2026-03-28T09:18:23.999Z</time></trkpt><trkpt lat="45.73860702155712" lon="9.36237449234961"><ele>338.0</ele><time>2026-03-28T09:18:24.999Z</time></trkpt><trkpt lat="45.738554684669914" lon="9.362579943161915"><ele>338.0</ele><time>2026-03-28T09:18:25.999Z</time></trkpt><trkpt lat="45.738504617270536" lon="9.362779330562633"><ele>337.5</ele><time>2026-03-28T09:18:26.999Z</time></trkpt><trkpt lat="45.738454283593704" lon="9.362972088278093"><ele>337.0</ele><time>2026-03-28T09:18:27.999Z</time></trkpt><trkpt lat="45.738407655535504" lon="9.363132230030809"><ele>336.5</ele><time>2026-03-28T09:18:28.999Z</time></trkpt><trkpt lat="45.73837121345155" lon="9.36328014262937"><ele>336.0</ele><time>2026-03-28T09:18:29.999Z</time></trkpt><trkpt lat="45.73833842079156" lon="9.363419769555598"><ele>335.6</ele><time>2026-03-28T09:18:30.999Z</time></trkpt><trkpt lat="45.7383042684797" lon="9.363545552073628"><ele>335.20000000000005</ele><time>2026-03-28T09:18:31.999Z</time></trkpt><trkpt lat="45.73826933273417" lon="9.363670682198531"><ele>334.79999999999995</ele><time>2026-03-28T09:18:32.999Z</time></trkpt><trkpt lat="45.738232708192875" lon="9.363802585621947"><ele>334.4</ele><time>2026-03-28T09:18:33.999Z</time></trkpt><trkpt lat="45.738191391465044" lon="9.363930112372797"><ele>334.0</ele><time>2026-03-28T09:18:34.999Z</time></trkpt><trkpt lat="45.73814382133568" lon="9.364056871812187"><ele>333.79999999999995</ele><time>2026-03-28T09:18:35.999Z</time></trkpt><trkpt lat="45.73809428555077" lon="9.364172175281027"><ele>333.59999999999997</ele><time>2026-03-28T09:18:36.999Z</time></trkpt><trkpt lat="45.73804546993735" lon="9.364288468731381"><ele>333.4</ele><time>2026-03-28T09:18:37.999Z</time></trkpt><trkpt lat="45.73799661681479" lon="9.364411357826237"><ele>333.2</ele><time>2026-03-28T09:18:38.999Z</time></trkpt><trkpt lat="45.73795190061258" lon="9.364541531838915"><ele>333.0</ele><time>2026-03-28T09:18:39.999Z</time></trkpt><trkpt lat="45.73791870388446" lon="9.364690522240378"><ele>333.25</ele><time>2026-03-28T09:18:40.999Z</time></trkpt><trkpt lat="45.73788443404304" lon="9.364844079271354"><ele>333.5</ele><time>2026-03-28T09:18:41.999Z</time></trkpt><trkpt lat="45.73784852421564" lon="9.365033443299703"><ele>333.75</ele><time>2026-03-28T09:18:42.999Z</time></trkpt><trkpt lat="45.73781081989321" lon="9.365233696114803"><ele>334.0</ele><time>2026-03-28T09:18:43.999Z</time></trkpt><trkpt lat="45.73776541914022" lon="9.365454288915881"><ele>333.66666666666663</ele><time>2026-03-28T09:18:44.999Z</time></trkpt><trkpt lat="45.73769821052232" lon="9.365698977066112"><ele>333.3333333333333</ele><time>2026-03-28T09:18:45.999Z</time></trkpt><trkpt lat="45.7376324253504" lon="9.365954357488281"><ele>333.0</ele><time>2026-03-28T09:18:46.999Z</time></trkpt><trkpt lat="45.73756581464141" lon="9.366205295760977"><ele>333.6666666666667</ele><time>2026-03-28T09:18:47.999Z</time></trkpt><trkpt lat="45.73749548113361" lon="9.366458032058814"><ele>334.33333333333337</ele><time>2026-03-28T09:18:48.999Z</time></trkpt><trkpt lat="45.73741752037503" lon="9.36674037449205"><ele>335.0</ele><time>2026-03-28T09:18:49.999Z</time></trkpt><trkpt lat="45.73733238087975" lon="9.36705971074739"><ele>335.0</ele><time>2026-03-28T09:18:50.999Z</time></trkpt><trkpt lat="45.73726064723828" lon="9.367357109652952"><ele>335.0</ele><time>2026-03-28T09:18:51.999Z</time></trkpt><trkpt lat="45.73722062381476" lon="9.367645018559902"><ele>335.0</ele><time>2026-03-28T09:18:52.999Z</time></trkpt><trkpt lat="45.73719332867717" lon="9.367920218054355"><ele>335.0</ele><time>2026-03-28T09:18:53.999Z</time></trkpt><trkpt lat="45.737172131103435" lon="9.368174059230588"><ele>335.0</ele><time>2026-03-28T09:18:54.999Z</time></trkpt><trkpt lat="45.73715511678735" lon="9.368397968479195"><ele>335.0</ele><time>2026-03-28T09:18:55.999Z</time></trkpt><trkpt lat="45.73714621244117" lon="9.368603439093667"><ele>335.0</ele><time>2026-03-28T09:18:56.999Z</time></trkpt><trkpt lat="45.737144123598334" lon="9.368790122559636"><ele>335.0</ele><time>2026-03-28T09:18:57.999Z</time></trkpt><trkpt lat="45.737145868017656" lon="9.368955108302886"><ele>335.0</ele><time>2026-03-28T09:18:58.999Z</time></trkpt><trkpt lat="45.73714783827495" lon="9.369098359515103"><ele>335.0</ele><time>2026-03-28T09:18:59.999Z</time></trkpt><trkpt lat="45.73714828653856" lon="9.369221421432083"><ele>335.0</ele><time>2026-03-28T09:19:00.999Z</time></trkpt><trkpt lat="45.737150424139706" lon="9.369336231060451"><ele>335.5</ele><time>2026-03-28T09:19:01.999Z</time></trkpt><trkpt lat="45.737145378773434" lon="9.369452783074943"><ele>336.0</ele><time>2026-03-28T09:19:02.999Z</time></trkpt><trkpt lat="45.737144074390045" lon="9.369590496116308"><ele>336.5</ele><time>2026-03-28T09:19:03.999Z</time></trkpt><trkpt lat="45.737155175437856" lon="9.369772607154674"><ele>337.0</ele><time>2026-03-28T09:19:04.999Z</time></trkpt><trkpt lat="45.737163402154735" lon="9.370007080280294"><ele>337.3333333333333</ele><time>2026-03-28T09:19:05.999Z</time></trkpt><trkpt lat="45.73716617922822" lon="9.370242387590492"><ele>337.6666666666667</ele><time>2026-03-28T09:19:06.999Z</time></trkpt><trkpt lat="45.73716549941298" lon="9.370516578785207"><ele>338.0</ele><time>2026-03-28T09:19:07.999Z</time></trkpt><trkpt lat="45.73717190326312" lon="9.370794413136844"><ele>338.33333333333337</ele><time>2026-03-28T09:19:08.999Z</time></trkpt><trkpt lat="45.73717893055236" lon="9.371072435461514"><ele>338.6666666666667</ele><time>2026-03-28T09:19:09.999Z</time></trkpt><trkpt lat="45.7371809105019" lon="9.3713149053938"><ele>339.0</ele><time>2026-03-28T09:19:10.998Z</time></trkpt><trkpt lat="45.73718218485723" lon="9.37154794504446"><ele>339.3333333333333</ele><time>2026-03-28T09:19:11.998Z</time></trkpt><trkpt lat="45.73718712293528" lon="9.371782328558163"><ele>339.66666666666663</ele><time>2026-03-28T09:19:12.998Z</time></trkpt><trkpt lat="45.73718776465154" lon="9.3720024430091"><ele>340.0</ele><time>2026-03-28T09:19:13.997Z</time></trkpt><trkpt lat="45.73719383630749" lon="9.372236627013018"><ele>340.0</ele><time>2026-03-28T09:19:14.998Z</time></trkpt><trkpt lat="45.73719969976993" lon="9.372476375104663"><ele>340.0</ele><time>2026-03-28T09:19:15.998Z</time></trkpt><trkpt lat="45.7372030447823" lon="9.372713141345395"><ele>340.0</ele><time>2026-03-28T09:19:16.998Z</time></trkpt><trkpt lat="45.73720618798856" lon="9.372950525926717"><ele>341.0</ele><time>2026-03-28T09:19:17.998Z</time></trkpt><trkpt lat="45.737185949810275" lon="9.373217215479045"><ele>342.0</ele><time>2026-03-28T09:19:18.998Z</time></trkpt><trkpt lat="45.73719411954372" lon="9.373518437536273"><ele>343.0</ele><time>2026-03-28T09:19:19.998Z</time></trkpt><trkpt lat="45.73718507247196" lon="9.373785141948396"><ele>344.3333333333333</ele><time>2026-03-28T09:19:20.998Z</time></trkpt><trkpt lat="45.737181618394345" lon="9.374038076925082"><ele>345.6666666666667</ele><time>2026-03-28T09:19:21.998Z</time></trkpt><trkpt lat="45.73717986717128" lon="9.374255243173241"><ele>347.0</ele><time>2026-03-28T09:19:22.998Z</time></trkpt><trkpt lat="45.73717649675859" lon="9.374439517497551"><ele>347.0</ele><time>2026-03-28T09:19:23.998Z</time></trkpt><trkpt lat="45.73716950018995" lon="9.374590732145952"><ele>347.0</ele><time>2026-03-28T09:19:24.998Z</time></trkpt><trkpt lat="45.737161533194566" lon="9.374735494970084"><ele>347.0</ele><time>2026-03-28T09:19:25.998Z</time></trkpt><trkpt lat="45.73715374747593" lon="9.374905951845223"><ele>347.0</ele><time>2026-03-28T09:19:26.998Z</time></trkpt><trkpt lat="45.73713527839016" lon="9.375111572990829"><ele>349.0</ele><time>2026-03-28T09:19:27.998Z</time></trkpt><trkpt lat="45.73708782079994" lon="9.375335858126748"><ele>351.0</ele><time>2026-03-28T09:19:28.998Z</time></trkpt><trkpt lat="45.737031877247894" lon="9.37554342332725"><ele>353.0</ele><time>2026-03-28T09:19:29.998Z</time></trkpt><trkpt lat="45.736992131723184" lon="9.375758063788483"><ele>352.75</ele><time>2026-03-28T09:19:30.998Z</time></trkpt><trkpt lat="45.73695839147445" lon="9.375971579676822"><ele>352.5</ele><time>2026-03-28T09:19:31.998Z</time></trkpt><trkpt lat="45.73691537030825" lon="9.37616177255931"><ele>352.25</ele><time>2026-03-28T09:19:32.998Z</time></trkpt><trkpt lat="45.73686933278428" lon="9.376337847307717"><ele>352.0</ele><time>2026-03-28T09:19:33.998Z</time></trkpt><trkpt lat="45.73682348150141" lon="9.376503217314008"><ele>352.0</ele><time>2026-03-28T09:19:34.998Z</time></trkpt><trkpt lat="45.73677138598017" lon="9.376641774016166"><ele>352.0</ele><time>2026-03-28T09:19:35.998Z</time></trkpt><trkpt lat="45.736706663401" lon="9.376745408757056"><ele>352.0</ele><time>2026-03-28T09:19:36.998Z</time></trkpt><trkpt lat="45.73662383958261" lon="9.37680868775085"><ele>352.0</ele><time>2026-03-28T09:19:37.998Z</time></trkpt><trkpt lat="45.73654914221721" lon="9.376859410099579"><ele>352.0</ele><time>2026-03-28T09:19:38.998Z</time></trkpt><trkpt lat="45.73650810957346" lon="9.376952526308417"><ele>352.0</ele><time>2026-03-28T09:19:39.998Z</time></trkpt><trkpt lat="45.736506345669056" lon="9.377066759747434"><ele>352.0</ele><time>2026-03-28T09:19:40.998Z</time></trkpt><trkpt lat="45.736535196074605" lon="9.377211758352333"><ele>352.0</ele><time>2026-03-28T09:19:41.998Z</time></trkpt><trkpt lat="45.73654642749862" lon="9.377369188935756"><ele>352.0</ele><time>2026-03-28T09:19:42.998Z</time></trkpt><trkpt lat="45.736506049606305" lon="9.377558499798745"><ele>352.0</ele><time>2026-03-28T09:19:43.998Z</time></trkpt><trkpt lat="45.73644066104484" lon="9.377784178025951"><ele>352.3333333333333</ele><time>2026-03-28T09:19:44.998Z</time></trkpt><trkpt lat="45.736363800086025" lon="9.378005040447666"><ele>352.6666666666667</ele><time>2026-03-28T09:19:45.998Z</time></trkpt><trkpt lat="45.73629279213267" lon="9.378242028265571"><ele>353.0</ele><time>2026-03-28T09:19:46.998Z</time></trkpt><trkpt lat="45.73622048290898" lon="9.378496208274298"><ele>353.0</ele><time>2026-03-28T09:19:47.998Z</time></trkpt><trkpt lat="45.736146282510504" lon="9.378752037208715"><ele>353.0</ele><time>2026-03-28T09:19:48.998Z</time></trkpt><trkpt lat="45.73607711046181" lon="9.378994060159604"><ele>353.0</ele><time>2026-03-28T09:19:49.998Z</time></trkpt><trkpt lat="45.73601399375682" lon="9.379208749824318"><ele>349.6666666666667</ele><time>2026-03-28T09:19:50.998Z</time></trkpt><trkpt lat="45.735944544719764" lon="9.379434242860327"><ele>346.3333333333333</ele><time>2026-03-28T09:19:51.998Z</time></trkpt><trkpt lat="45.73587258880629" lon="9.379678077346137"><ele>343.0</ele><time>2026-03-28T09:19:52.998Z</time></trkpt><trkpt lat="45.73579627914903" lon="9.379923277668771"><ele>342.3333333333333</ele><time>2026-03-28T09:19:53.998Z</time></trkpt><trkpt lat="45.735718020540475" lon="9.38018021089516"><ele>341.6666666666667</ele><time>2026-03-28T09:19:54.998Z</time></trkpt><trkpt lat="45.73563861533369" lon="9.380445622868804"><ele>341.0</ele><time>2026-03-28T09:19:55.998Z</time></trkpt><trkpt lat="45.73556360774071" lon="9.380708394042244"><ele>343.6666666666667</ele><time>2026-03-28T09:19:56.998Z</time></trkpt><trkpt lat="45.73548971828752" lon="9.380951545123398"><ele>346.3333333333333</ele><time>2026-03-28T09:19:57.998Z</time></trkpt><trkpt lat="45.73540941368578" lon="9.381191306952667"><ele>349.0</ele><time>2026-03-28T09:19:58.998Z</time></trkpt><trkpt lat="45.735320568353394" lon="9.381423108015827"><ele>352.3333333333333</ele><time>2026-03-28T09:19:59.998Z</time></trkpt><trkpt lat="45.7352230419865" lon="9.38163955611146"><ele>355.6666666666667</ele><time>2026-03-28T09:20:00.998Z</time></trkpt><trkpt lat="45.73512282990328" lon="9.381843316637305"><ele>359.0</ele><time>2026-03-28T09:20:01.998Z</time></trkpt><trkpt lat="45.73502039666756" lon="9.382038473180005"><ele>353.0</ele><time>2026-03-28T09:20:02.998Z</time></trkpt><trkpt lat="45.73492225458876" lon="9.382227703801174"><ele>347.0</ele><time>2026-03-28T09:20:03.998Z</time></trkpt><trkpt lat="45.73482711833744" lon="9.38242907721782"><ele>341.0</ele><time>2026-03-28T09:20:04.998Z</time></trkpt><trkpt lat="45.73473297052353" lon="9.38265325194643"><ele>341.0</ele><time>2026-03-28T09:20:05.998Z</time></trkpt><trkpt lat="45.73464295950228" lon="9.382915796217766"><ele>341.0</ele><time>2026-03-28T09:20:06.998Z</time></trkpt><trkpt lat="45.73454642182897" lon="9.383215511704659"><ele>341.0</ele><time>2026-03-28T09:20:07.998Z</time></trkpt><trkpt lat="45.734478986188414" lon="9.383505624401586"><ele>341.0</ele><time>2026-03-28T09:20:08.998Z</time></trkpt><trkpt lat="45.734433421520926" lon="9.383788604386993"><ele>341.0</ele><time>2026-03-28T09:20:09.998Z</time></trkpt><trkpt lat="45.734400998413015" lon="9.384058284979153"><ele>341.0</ele><time>2026-03-28T09:20:10.998Z</time></trkpt><trkpt lat="45.734360811479384" lon="9.384327510616542"><ele>341.33333333333337</ele><time>2026-03-28T09:20:11.998Z</time></trkpt><trkpt lat="45.73431745892716" lon="9.384603625985516"><ele>341.6666666666667</ele><time>2026-03-28T09:20:12.998Z</time></trkpt><trkpt lat="45.73426777078653" lon="9.384877502406997"><ele>342.0</ele><time>2026-03-28T09:20:13.998Z</time></trkpt><trkpt lat="45.73420702924366" lon="9.385163809478902"><ele>342.0</ele><time>2026-03-28T09:20:14.998Z</time></trkpt><trkpt lat="45.734135660950244" lon="9.38544280438334"><ele>342.0</ele><time>2026-03-28T09:20:15.998Z</time></trkpt><trkpt lat="45.7340509334686" lon="9.385714786666858"><ele>342.0</ele><time>2026-03-28T09:20:16.998Z</time></trkpt><trkpt lat="45.73394531139071" lon="9.385981472244902"><ele>342.0</ele><time>2026-03-28T09:20:17.998Z</time></trkpt><trkpt lat="45.7338259999032" lon="9.386207543502938"><ele>342.0</ele><time>2026-03-28T09:20:18.998Z</time></trkpt><trkpt lat="45.73368313345259" lon="9.386400328663818"><ele>342.0</ele><time>2026-03-28T09:20:19.998Z</time></trkpt><trkpt lat="45.733511794411285" lon="9.386565990930965"><ele>338.6666666666667</ele><time>2026-03-28T09:20:20.998Z</time></trkpt><trkpt lat="45.7333199956891" lon="9.386719022582726"><ele>335.33333333333337</ele><time>2026-03-28T09:20:21.998Z</time></trkpt><trkpt lat="45.733116712037436" lon="9.386865401601225"><ele>332.0</ele><time>2026-03-28T09:20:22.998Z</time></trkpt><trkpt lat="45.732909011895714" lon="9.387013458705804"><ele>332.0</ele><time>2026-03-28T09:20:23.998Z</time></trkpt><trkpt lat="45.73270084389282" lon="9.387160664121001"><ele>332.0</ele><time>2026-03-28T09:20:24.998Z</time></trkpt><trkpt lat="45.73248732004975" lon="9.387305554476626"><ele>328.6666666666667</ele><time>2026-03-28T09:20:25.998Z</time></trkpt><trkpt lat="45.732303086554595" lon="9.387453344352558"><ele>325.3333333333333</ele><time>2026-03-28T09:20:26.998Z</time></trkpt><trkpt lat="45.73213353775714" lon="9.387620641106333"><ele>322.0</ele><time>2026-03-28T09:20:27.998Z</time></trkpt><trkpt lat="45.731982457261516" lon="9.387804981158961"><ele>321.0</ele><time>2026-03-28T09:20:28.998Z</time></trkpt><trkpt lat="45.731843899829954" lon="9.387999375521277"><ele>320.0</ele><time>2026-03-28T09:20:29.998Z</time></trkpt><trkpt lat="45.73172192828028" lon="9.388206574588116"><ele>319.0</ele><time>2026-03-28T09:20:30.998Z</time></trkpt><trkpt lat="45.731626472214664" lon="9.38846042991852"><ele>318.3333333333333</ele><time>2026-03-28T09:20:31.998Z</time></trkpt><trkpt lat="45.731547650308705" lon="9.388763813418393"><ele>317.6666666666667</ele><time>2026-03-28T09:20:32.998Z</time></trkpt><trkpt lat="45.731496859420474" lon="9.389072408008085"><ele>317.0</ele><time>2026-03-28T09:20:33.998Z</time></trkpt><trkpt lat="45.73145628347587" lon="9.389355240157407"><ele>316.33333333333337</ele><time>2026-03-28T09:20:34.998Z</time></trkpt><trkpt lat="45.731416569367035" lon="9.389618130584875"><ele>315.6666666666667</ele><time>2026-03-28T09:20:35.998Z</time></trkpt><trkpt lat="45.731380299294486" lon="9.38986365964288"><ele>315.0</ele><time>2026-03-28T09:20:36.998Z</time></trkpt><trkpt lat="45.731347315656826" lon="9.390082699781571"><ele>315.0</ele><time>2026-03-28T09:20:37.998Z</time></trkpt><trkpt lat="45.731314770956516" lon="9.39027169541025"><ele>315.0</ele><time>2026-03-28T09:20:38.998Z</time></trkpt><trkpt lat="45.731273740932764" lon="9.390430185692072"><ele>315.0</ele><time>2026-03-28T09:20:39.998Z</time></trkpt><trkpt lat="45.73122320086028" lon="9.390587493576303"><ele>315.0</ele><time>2026-03-28T09:20:40.998Z</time></trkpt><trkpt lat="45.73118292665328" lon="9.390742208575453"><ele>314.75</ele><time>2026-03-28T09:20:41.998Z</time></trkpt><trkpt lat="45.731180514562375" lon="9.390905374207119"><ele>314.5</ele><time>2026-03-28T09:20:42.998Z</time></trkpt><trkpt lat="45.73119608527762" lon="9.39112767872172"><ele>314.25</ele><time>2026-03-28T09:20:43.998Z</time></trkpt><trkpt lat="45.731153502514694" lon="9.391344619810026"><ele>314.0</ele><time>2026-03-28T09:20:44.998Z</time></trkpt><trkpt lat="45.731120680313076" lon="9.391567600132902"><ele>312.6666666666667</ele><time>2026-03-28T09:20:45.998Z</time></trkpt><trkpt lat="45.73108610446066" lon="9.391794677661801"><ele>311.3333333333333</ele><time>2026-03-28T09:20:46.998Z</time></trkpt><trkpt lat="45.731051269897854" lon="9.39202702702068"><ele>310.0</ele><time>2026-03-28T09:20:47.998Z</time></trkpt><trkpt lat="45.73101758712416" lon="9.392259911908393"><ele>309.66666666666663</ele><time>2026-03-28T09:20:48.998Z</time></trkpt><trkpt lat="45.730984059656734" lon="9.3924917253704"><ele>309.3333333333333</ele><time>2026-03-28T09:20:49.998Z</time></trkpt><trkpt lat="45.730948125193905" lon="9.392740181600717"><ele>309.0</ele><time>2026-03-28T09:20:50.998Z</time></trkpt><trkpt lat="45.73092610954864" lon="9.39301974843406"><ele>309.0</ele><time>2026-03-28T09:20:51.998Z</time></trkpt><trkpt lat="45.73086986658449" lon="9.393299469653138"><ele>309.0</ele><time>2026-03-28T09:20:52.998Z</time></trkpt><trkpt lat="45.730824388505006" lon="9.393608124308434"><ele>309.0</ele><time>2026-03-28T09:20:53.998Z</time></trkpt><trkpt lat="45.73078094898284" lon="9.393896801982239"><ele>308.3333333333333</ele><time>2026-03-28T09:20:54.998Z</time></trkpt><trkpt lat="45.73073617808501" lon="9.394184472875855"><ele>307.66666666666663</ele><time>2026-03-28T09:20:55.998Z</time></trkpt><trkpt lat="45.73069381757064" lon="9.394465208785176"><ele>307.0</ele><time>2026-03-28T09:20:56.998Z</time></trkpt><trkpt lat="45.73065395047345" lon="9.394757066924564"><ele>308.3333333333333</ele><time>2026-03-28T09:20:57.998Z</time></trkpt><trkpt lat="45.730608560264685" lon="9.395055878767304"><ele>309.6666666666667</ele><time>2026-03-28T09:20:58.999Z</time></trkpt><trkpt lat="45.73056519358793" lon="9.39535707304679"><ele>311.0</ele><time>2026-03-28T09:20:59.999Z</time></trkpt><trkpt lat="45.730523986432495" lon="9.39564511010065"><ele>311.6666666666667</ele><time>2026-03-28T09:21:00.999Z</time></trkpt><trkpt lat="45.730485302652866" lon="9.395922189237465"><ele>312.3333333333333</ele><time>2026-03-28T09:21:01.999Z</time></trkpt><trkpt lat="45.73044673212511" lon="9.3961978530306"><ele>313.0</ele><time>2026-03-28T09:21:02.999Z</time></trkpt><trkpt lat="45.73040153206307" lon="9.396460464049397"><ele>311.66666666666663</ele><time>2026-03-28T09:21:03.999Z</time></trkpt><trkpt lat="45.73035207131389" lon="9.396714395795055"><ele>310.3333333333333</ele><time>2026-03-28T09:21:04.999Z</time></trkpt><trkpt lat="45.73029397535709" lon="9.396958466622829"><ele>309.0</ele><time>2026-03-28T09:21:05.999Z</time></trkpt><trkpt lat="45.73022593331534" lon="9.397198006658787"><ele>307.6666666666667</ele><time>2026-03-28T09:21:06.999Z</time></trkpt><trkpt lat="45.730155445297115" lon="9.397433634018409"><ele>306.33333333333337</ele><time>2026-03-28T09:21:07.999Z</time></trkpt><trkpt lat="45.73007794294646" lon="9.397672332570727"><ele>305.0</ele><time>2026-03-28T09:21:08.999Z</time></trkpt><trkpt lat="45.729988746896574" lon="9.397916771343855"><ele>303.6666666666667</ele><time>2026-03-28T09:21:09.999Z</time></trkpt><trkpt lat="45.72989340804014" lon="9.398144189821894"><ele>302.3333333333333</ele><time>2026-03-28T09:21:10.999Z</time></trkpt><trkpt lat="45.72979114845418" lon="9.398361629290799"><ele>301.0</ele><time>2026-03-28T09:21:11.999Z</time></trkpt><trkpt lat="45.72968317576545" lon="9.398578280787294"><ele>301.0</ele><time>2026-03-28T09:21:12.999Z</time></trkpt><trkpt lat="45.729574859602195" lon="9.398783505381862"><ele>301.0</ele><time>2026-03-28T09:21:13.999Z</time></trkpt><trkpt lat="45.72945982185468" lon="9.398996367758924"><ele>301.0</ele><time>2026-03-28T09:21:14.999Z</time></trkpt><trkpt lat="45.72934843995129" lon="9.39920965564264"><ele>299.0</ele><time>2026-03-28T09:21:15.999Z</time></trkpt><trkpt lat="45.7292409134734" lon="9.399411421211157"><ele>297.0</ele><time>2026-03-28T09:21:16.997Z</time></trkpt><trkpt lat="45.72914092795356" lon="9.399601258208964"><ele>295.0</ele><time>2026-03-28T09:21:17.997Z</time></trkpt><trkpt lat="45.72904318264303" lon="9.399786364332149"><ele>295.0</ele><time>2026-03-28T09:21:18.997Z</time></trkpt><trkpt lat="45.728942567728815" lon="9.39996216790441"><ele>295.0</ele><time>2026-03-28T09:21:19.997Z</time></trkpt><trkpt lat="45.728850316158706" lon="9.400132271305406"><ele>295.0</ele><time>2026-03-28T09:21:20.998Z</time></trkpt><trkpt lat="45.72876354881142" lon="9.400291024194976"><ele>295.0</ele><time>2026-03-28T09:21:21.998Z</time></trkpt><trkpt lat="45.728693782001955" lon="9.400436148282365"><ele>295.0</ele><time>2026-03-28T09:21:22.998Z</time></trkpt><trkpt lat="45.728624515472326" lon="9.400552355702997"><ele>295.0</ele><time>2026-03-28T09:21:23.998Z</time></trkpt><trkpt lat="45.72856101933728" lon="9.400664061826811"><ele>295.0</ele><time>2026-03-28T09:21:24.998Z</time></trkpt><trkpt lat="45.72850105533619" lon="9.400767075389279"><ele>295.0</ele><time>2026-03-28T09:21:25.998Z</time></trkpt><trkpt lat="45.728448319004904" lon="9.400868709668584"><ele>295.0</ele><time>2026-03-28T09:21:26.998Z</time></trkpt><trkpt lat="45.72839524839085" lon="9.400979552492496"><ele>295.0</ele><time>2026-03-28T09:21:27.998Z</time></trkpt><trkpt lat="45.72833593780795" lon="9.401077453417184"><ele>295.0</ele><time>2026-03-28T09:21:28.998Z</time></trkpt><trkpt lat="45.72826410329384" lon="9.40118485557059"><ele>295.0</ele><time>2026-03-28T09:21:29.998Z</time></trkpt><trkpt lat="45.728192655976216" lon="9.4013270314804"><ele>295.0</ele><time>2026-03-28T09:21:30.998Z</time></trkpt><trkpt lat="45.72812120533503" lon="9.401462833616682"><ele>295.0</ele><time>2026-03-28T09:21:31.998Z</time></trkpt><trkpt lat="45.728044455456065" lon="9.401604304135214"><ele>295.0</ele><time>2026-03-28T09:21:32.998Z</time></trkpt><trkpt lat="45.72796559531426" lon="9.40174501411526"><ele>295.0</ele><time>2026-03-28T09:21:33.998Z</time></trkpt><trkpt lat="45.72788777795553" lon="9.401884492754842"><ele>295.0</ele><time>2026-03-28T09:21:34.998Z</time></trkpt><trkpt lat="45.72781805475889" lon="9.402010195308419"><ele>295.0</ele><time>2026-03-28T09:21:35.998Z</time></trkpt><trkpt lat="45.72775853682552" lon="9.402130630581643"><ele>295.0</ele><time>2026-03-28T09:21:36.998Z</time></trkpt><trkpt lat="45.72769155158894" lon="9.402251736520451"><ele>295.0</ele><time>2026-03-28T09:21:37.998Z</time></trkpt><trkpt lat="45.72762065758857" lon="9.402377569095698"><ele>295.0</ele><time>2026-03-28T09:21:38.998Z</time></trkpt><trkpt lat="45.72754877145547" lon="9.402507718045316"><ele>295.0</ele><time>2026-03-28T09:21:39.998Z</time></trkpt><trkpt lat="45.727473993990245" lon="9.402615419430733"><ele>293.6</ele><time>2026-03-28T09:21:40.998Z</time></trkpt><trkpt lat="45.72740252586521" lon="9.402711369348408"><ele>292.2</ele><time>2026-03-28T09:21:41.998Z</time></trkpt><trkpt lat="45.727331962525604" lon="9.40279477852899"><ele>290.8</ele><time>2026-03-28T09:21:42.998Z</time></trkpt><trkpt lat="45.72726887276541" lon="9.40288995843617"><ele>289.4</ele><time>2026-03-28T09:21:43.998Z</time></trkpt><trkpt lat="45.7272093559715" lon="9.40299970186822"><ele>288.0</ele><time>2026-03-28T09:21:44.998Z</time></trkpt><trkpt lat="45.72714122599295" lon="9.403133447577272"><ele>288.0</ele><time>2026-03-28T09:21:45.998Z</time></trkpt><trkpt lat="45.727071445414374" lon="9.403275124011778"><ele>288.0</ele><time>2026-03-28T09:21:46.998Z</time></trkpt><trkpt lat="45.7269986990605" lon="9.403419037266042"><ele>288.0</ele><time>2026-03-28T09:21:47.998Z</time></trkpt><trkpt lat="45.726925921999864" lon="9.40356188621537"><ele>288.0</ele><time>2026-03-28T09:21:48.998Z</time></trkpt><trkpt lat="45.72685139869318" lon="9.403697326426284"><ele>287.6</ele><time>2026-03-28T09:21:49.998Z</time></trkpt><trkpt lat="45.7267808802754" lon="9.403831029153608"><ele>287.20000000000005</ele><time>2026-03-28T09:21:50.998Z</time></trkpt><trkpt lat="45.72671269525573" lon="9.403961694997273"><ele>286.8</ele><time>2026-03-28T09:21:51.998Z</time></trkpt><trkpt lat="45.72665028980515" lon="9.40407739217922"><ele>286.40000000000003</ele><time>2026-03-28T09:21:52.998Z</time></trkpt><trkpt lat="45.72659230988649" lon="9.404184306246579"><ele>286.0</ele><time>2026-03-28T09:21:53.998Z</time></trkpt><trkpt lat="45.72653612937093" lon="9.404285422982523"><ele>286.0</ele><time>2026-03-28T09:21:54.998Z</time></trkpt><trkpt lat="45.726480969104244" lon="9.404384737787364"><ele>286.0</ele><time>2026-03-28T09:21:55.998Z</time></trkpt><trkpt lat="45.72642448310435" lon="9.404487525965186"><ele>286.0</ele><time>2026-03-28T09:21:56.998Z</time></trkpt><trkpt lat="45.72636060807123" lon="9.404599601801277"><ele>286.0</ele><time>2026-03-28T09:21:57.998Z</time></trkpt><trkpt lat="45.72629532091301" lon="9.404724877152574"><ele>286.0</ele><time>2026-03-28T09:21:58.998Z</time></trkpt><trkpt lat="45.72622957873152" lon="9.404846168072558"><ele>286.16666666666663</ele><time>2026-03-28T09:21:59.998Z</time></trkpt><trkpt lat="45.726167333549675" lon="9.404958264401834"><ele>286.3333333333333</ele><time>2026-03-28T09:22:00.998Z</time></trkpt><trkpt lat="45.72611103153255" lon="9.40505877404181"><ele>286.5</ele><time>2026-03-28T09:22:01.998Z</time></trkpt><trkpt lat="45.72606237014884" lon="9.405145126288978"><ele>286.6666666666667</ele><time>2026-03-28T09:22:02.998Z</time></trkpt><trkpt lat="45.72602215044818" lon="9.405216088558415"><ele>286.83333333333337</ele><time>2026-03-28T09:22:03.998Z</time></trkpt><trkpt lat="45.72594754238731" lon="9.405344527193291"><ele>287.0</ele><time>2026-03-28T09:22:05.998Z</time></trkpt><trkpt lat="45.72585540198303" lon="9.405430319033831"><ele>287.25</ele><time>2026-03-28T09:22:07.998Z</time></trkpt><trkpt lat="45.72575461948422" lon="9.405560978431017"><ele>287.5</ele><time>2026-03-28T09:22:09.998Z</time></trkpt><trkpt lat="45.72571475273592" lon="9.405696788814247"><ele>287.75</ele><time>2026-03-28T09:22:10.998Z</time></trkpt><trkpt lat="45.72566788116402" lon="9.405860533589328"><ele>288.0</ele><time>2026-03-28T09:22:11.998Z</time></trkpt><trkpt lat="45.725573510990074" lon="9.40600391878754"><ele>288.0</ele><time>2026-03-28T09:22:12.998Z</time></trkpt><trkpt lat="45.72547033178441" lon="9.406193074644305"><ele>288.0</ele><time>2026-03-28T09:22:13.998Z</time></trkpt><trkpt lat="45.725352130490286" lon="9.406438361278992"><ele>288.0</ele><time>2026-03-28T09:22:14.998Z</time></trkpt><trkpt lat="45.72525920013472" lon="9.40671287467107"><ele>288.0</ele><time>2026-03-28T09:22:15.998Z</time></trkpt><trkpt lat="45.72516360444172" lon="9.406969331424666"><ele>288.0</ele><time>2026-03-28T09:22:16.998Z</time></trkpt><trkpt lat="45.725095585133694" lon="9.40723243509868"><ele>288.0</ele><time>2026-03-28T09:22:17.998Z</time></trkpt><trkpt lat="45.725035277794646" lon="9.40749284143231"><ele>288.0</ele><time>2026-03-28T09:22:18.998Z</time></trkpt><trkpt lat="45.72499044241671" lon="9.4077631061934"><ele>288.0</ele><time>2026-03-28T09:22:19.998Z</time></trkpt><trkpt lat="45.724961326263774" lon="9.408040730408173"><ele>288.0</ele><time>2026-03-28T09:22:20.998Z</time></trkpt><trkpt lat="45.72495149999711" lon="9.408329821571522"><ele>287.6666666666667</ele><time>2026-03-28T09:22:21.998Z</time></trkpt><trkpt lat="45.7249496081775" lon="9.40861663081466"><ele>287.33333333333337</ele><time>2026-03-28T09:22:22.998Z</time></trkpt><trkpt lat="45.72495267086634" lon="9.408890088678989"><ele>287.0</ele><time>2026-03-28T09:22:23.998Z</time></trkpt><trkpt lat="45.724964679613514" lon="9.409157579539576"><ele>286.0</ele><time>2026-03-28T09:22:24.998Z</time></trkpt><trkpt lat="45.72497662780778" lon="9.409397285318567"><ele>285.0</ele><time>2026-03-28T09:22:25.998Z</time></trkpt><trkpt lat="45.72496668066327" lon="9.409607896589957"><ele>284.0</ele><time>2026-03-28T09:22:26.998Z</time></trkpt><trkpt lat="45.72499008184322" lon="9.409791385356556"><ele>283.0</ele><time>2026-03-28T09:22:27.998Z</time></trkpt><trkpt lat="45.72499390463984" lon="9.409948840928612"><ele>283.0</ele><time>2026-03-28T09:22:28.998Z</time></trkpt><trkpt lat="45.7249957424012" lon="9.410086666056513"><ele>283.0</ele><time>2026-03-28T09:22:29.998Z</time></trkpt><trkpt lat="45.7250013307011" lon="9.410202422345824"><ele>283.0</ele><time>2026-03-28T09:22:30.998Z</time></trkpt><trkpt lat="45.724983316085265" lon="9.41030448574559"><ele>283.0</ele><time>2026-03-28T09:22:31.998Z</time></trkpt><trkpt lat="45.724985422439666" lon="9.410395425818448"><ele>283.0</ele><time>2026-03-28T09:22:32.998Z</time></trkpt><trkpt lat="45.724975946643085" lon="9.41048570823425"><ele>283.0</ele><time>2026-03-28T09:22:33.998Z</time></trkpt><trkpt lat="45.724977787574616" lon="9.410614389064962"><ele>283.0</ele><time>2026-03-28T09:22:34.998Z</time></trkpt><trkpt lat="45.72498355162109" lon="9.41076264594394"><ele>283.0</ele><time>2026-03-28T09:22:35.998Z</time></trkpt><trkpt lat="45.72498781412876" lon="9.410943864762146"><ele>283.0</ele><time>2026-03-28T09:22:36.998Z</time></trkpt><trkpt lat="45.724996209993144" lon="9.411132337838513"><ele>283.0</ele><time>2026-03-28T09:22:37.998Z</time></trkpt><trkpt lat="45.725005387098264" lon="9.411324558211673"><ele>283.5</ele><time>2026-03-28T09:22:38.998Z</time></trkpt><trkpt lat="45.725012312771774" lon="9.411512486541044"><ele>284.0</ele><time>2026-03-28T09:22:39.998Z</time></trkpt><trkpt lat="45.72502156610473" lon="9.411702148710447"><ele>284.5</ele><time>2026-03-28T09:22:40.998Z</time></trkpt><trkpt lat="45.7250308540289" lon="9.411890850728398"><ele>285.0</ele><time>2026-03-28T09:22:41.998Z</time></trkpt><trkpt lat="45.72503414611445" lon="9.412072479420404"><ele>285.0</ele><time>2026-03-28T09:22:42.998Z</time></trkpt><trkpt lat="45.72503485194407" lon="9.412221676573218"><ele>285.0</ele><time>2026-03-28T09:22:43.998Z</time></trkpt><trkpt lat="45.725034449260235" lon="9.412327657372195"><ele>285.0</ele><time>2026-03-28T09:22:44.998Z</time></trkpt><trkpt lat="45.72503349099041" lon="9.412464065068287"><ele>285.0</ele><time>2026-03-28T09:22:46.998Z</time></trkpt><trkpt lat="45.72503709222484" lon="9.412663917459463"><ele>285.0</ele><time>2026-03-28T09:22:48.998Z</time></trkpt><trkpt lat="45.725025306460616" lon="9.412775609571106"><ele>285.0</ele><time>2026-03-28T09:22:49.998Z</time></trkpt><trkpt lat="45.72501892544774" lon="9.412935716241186"><ele>285.0</ele><time>2026-03-28T09:22:51.999Z</time></trkpt><trkpt lat="45.72501276051492" lon="9.413050507901264"><ele>285.0</ele><time>2026-03-28T09:22:52.999Z</time></trkpt><trkpt lat="45.72500209549537" lon="9.413159340746759"><ele>285.0</ele><time>2026-03-28T09:22:53.999Z</time></trkpt><trkpt lat="45.72499590741361" lon="9.413249199629496"><ele>285.0</ele><time>2026-03-28T09:22:54.999Z</time></trkpt><trkpt lat="45.72498773542258" lon="9.413387486216955"><ele>285.0</ele><time>2026-03-28T09:22:56.999Z</time></trkpt><trkpt lat="45.724988880360215" lon="9.413554462615267"><ele>285.0</ele><time>2026-03-28T09:22:58.999Z</time></trkpt><trkpt lat="45.724987012652306" lon="9.413681814618204"><ele>285.0</ele><time>2026-03-28T09:22:59.999Z</time></trkpt><trkpt lat="45.72498258318667" lon="9.41380725060152"><ele>285.0</ele><time>2026-03-28T09:23:00.999Z</time></trkpt><trkpt lat="45.72497701388831" lon="9.41393433518088"><ele>285.0</ele><time>2026-03-28T09:23:01.999Z</time></trkpt><trkpt lat="45.724975434249615" lon="9.414040305839112"><ele>285.0</ele><time>2026-03-28T09:23:02.999Z</time></trkpt><trkpt lat="45.72496759709988" lon="9.414211397935263"><ele>284.75</ele><time>2026-03-28T09:23:04.999Z</time></trkpt><trkpt lat="45.72496898327498" lon="9.414310675028148"><ele>284.5</ele><time>2026-03-28T09:23:05.999Z</time></trkpt><trkpt lat="45.724958959943514" lon="9.414455173523518"><ele>284.25</ele><time>2026-03-28T09:23:06.999Z</time></trkpt><trkpt lat="45.724957712312865" lon="9.414787042444388"><ele>284.0</ele><time>2026-03-28T09:23:08.999Z</time></trkpt><trkpt lat="45.72495391884262" lon="9.414928144278747"><ele>284.0</ele><time>2026-03-28T09:23:09.999Z</time></trkpt><trkpt lat="45.724948028761126" lon="9.415052426168138"><ele>284.0</ele><time>2026-03-28T09:23:10.999Z</time></trkpt><trkpt lat="45.724938843939206" lon="9.415183436702703"><ele>284.0</ele><time>2026-03-28T09:23:12.999Z</time></trkpt><trkpt lat="45.72491839446042" lon="9.415268896487468"><ele>284.0</ele><time>2026-03-28T09:23:15.999Z</time></trkpt><trkpt lat="45.72490521116561" lon="9.415403806192861"><ele>284.0</ele><time>2026-03-28T09:23:17.999Z</time></trkpt><trkpt lat="45.72488095245762" lon="9.41550981199217"><ele>284.0</ele><time>2026-03-28T09:23:19.999Z</time></trkpt><trkpt lat="45.72487525666856" lon="9.415614774572537"><ele>284.0</ele><time>2026-03-28T09:23:24.998Z</time></trkpt><trkpt lat="45.724858278631075" lon="9.415718570422168"><ele>284.0</ele><time>2026-03-28T09:23:28.997Z</time></trkpt><trkpt lat="45.72481388927276" lon="9.415847820189137"><ele>284.0</ele><time>2026-03-28T09:23:33.998Z</time></trkpt><trkpt lat="45.72483237203552" lon="9.415940363535938"><ele>284.0</ele><time>2026-03-28T09:23:35.998Z</time></trkpt><trkpt lat="45.72498849603638" lon="9.415892748960552"><ele>284.0</ele><time>2026-03-28T09:23:37.998Z</time></trkpt><trkpt lat="45.72516064957584" lon="9.415850792172163"><ele>282.6666666666667</ele><time>2026-03-28T09:23:38.998Z</time></trkpt><trkpt lat="45.72532879415832" lon="9.415770944944134"><ele>281.3333333333333</ele><time>2026-03-28T09:23:39.998Z</time></trkpt><trkpt lat="45.72546521607585" lon="9.415655514871045"><ele>280.0</ele><time>2026-03-28T09:23:40.998Z</time></trkpt><trkpt lat="45.72560708488893" lon="9.415606550356735"><ele>280.0</ele><time>2026-03-28T09:23:41.998Z</time></trkpt><trkpt lat="45.72574436984755" lon="9.415568272197751"><ele>280.0</ele><time>2026-03-28T09:23:42.998Z</time></trkpt><trkpt lat="45.72586600352815" lon="9.415527952490143"><ele>280.0</ele><time>2026-03-28T09:23:43.998Z</time></trkpt><trkpt lat="45.72599059033334" lon="9.415509410061759"><ele>280.0</ele><time>2026-03-28T09:23:44.998Z</time></trkpt><trkpt lat="45.72611289815414" lon="9.415532524353113"><ele>280.25</ele><time>2026-03-28T09:23:45.998Z</time></trkpt><trkpt lat="45.726227493661526" lon="9.41551840748025"><ele>280.5</ele><time>2026-03-28T09:23:46.998Z</time></trkpt><trkpt lat="45.72634072933509" lon="9.415531283888729"><ele>280.75</ele><time>2026-03-28T09:23:47.998Z</time></trkpt><trkpt lat="45.72645912689244" lon="9.415532931968317"><ele>281.0</ele><time>2026-03-28T09:23:48.998Z</time></trkpt><trkpt lat="45.72658070444171" lon="9.41553950192922"><ele>281.0</ele><time>2026-03-28T09:23:49.998Z</time></trkpt><trkpt lat="45.72670065197694" lon="9.415550085716939"><ele>281.0</ele><time>2026-03-28T09:23:50.998Z</time></trkpt><trkpt lat="45.72681957408266" lon="9.415568299997243"><ele>281.0</ele><time>2026-03-28T09:23:51.998Z</time></trkpt><trkpt lat="45.72693211747302" lon="9.415580575083068"><ele>281.0</ele><time>2026-03-28T09:23:52.998Z</time></trkpt><trkpt lat="45.72704782336786" lon="9.415605959368499"><ele>279.0</ele><time>2026-03-28T09:23:53.998Z</time></trkpt><trkpt lat="45.72716320295539" lon="9.415634058660508"><ele>277.0</ele><time>2026-03-28T09:23:54.998Z</time></trkpt><trkpt lat="45.72727664251074" lon="9.415668549317648"><ele>275.0</ele><time>2026-03-28T09:23:55.998Z</time></trkpt><trkpt lat="45.72740075968584" lon="9.41571463349309"><ele>273.0</ele><time>2026-03-28T09:23:56.998Z</time></trkpt><trkpt lat="45.72752659830754" lon="9.415764897554046"><ele>273.0</ele><time>2026-03-28T09:23:57.998Z</time></trkpt><trkpt lat="45.72764650992705" lon="9.415818659677644"><ele>273.0</ele><time>2026-03-28T09:23:58.998Z</time></trkpt><trkpt lat="45.7277655463023" lon="9.415881484888638"><ele>273.0</ele><time>2026-03-28T09:23:59.998Z</time></trkpt><trkpt lat="45.72789166518507" lon="9.415955575565262"><ele>273.0</ele><time>2026-03-28T09:24:00.998Z</time></trkpt><trkpt lat="45.72802072585947" lon="9.41604306882215"><ele>274.0</ele><time>2026-03-28T09:24:01.998Z</time></trkpt><trkpt lat="45.72814955014002" lon="9.416147387557242"><ele>275.0</ele><time>2026-03-28T09:24:02.998Z</time></trkpt><trkpt lat="45.72827580691421" lon="9.416255914474643"><ele>276.0</ele><time>2026-03-28T09:24:03.998Z</time></trkpt><trkpt lat="45.728401139832506" lon="9.416378506701367"><ele>277.0</ele><time>2026-03-28T09:24:04.998Z</time></trkpt><trkpt lat="45.72853413704918" lon="9.416524946126907"><ele>272.3333333333333</ele><time>2026-03-28T09:24:05.998Z</time></trkpt><trkpt lat="45.72865976164334" lon="9.416684786089306"><ele>267.6666666666667</ele><time>2026-03-28T09:24:06.998Z</time></trkpt><trkpt lat="45.72877310005973" lon="9.416852445063222"><ele>263.0</ele><time>2026-03-28T09:24:07.998Z</time></trkpt><trkpt lat="45.72888248461108" lon="9.417031743557637"><ele>264.0</ele><time>2026-03-28T09:24:08.998Z</time></trkpt><trkpt lat="45.72899109672548" lon="9.417213023341807"><ele>265.0</ele><time>2026-03-28T09:24:09.998Z</time></trkpt><trkpt lat="45.72909911738968" lon="9.417383720546313"><ele>266.0</ele><time>2026-03-28T09:24:10.998Z</time></trkpt><trkpt lat="45.72921235082685" lon="9.417539081230931"><ele>266.0</ele><time>2026-03-28T09:24:11.998Z</time></trkpt><trkpt lat="45.72933355311187" lon="9.417681839139854"><ele>266.0</ele><time>2026-03-28T09:24:12.998Z</time></trkpt><trkpt lat="45.72946061310023" lon="9.417818909444286"><ele>266.0</ele><time>2026-03-28T09:24:13.998Z</time></trkpt><trkpt lat="45.729595106954186" lon="9.41794447722729"><ele>265.0</ele><time>2026-03-28T09:24:14.998Z</time></trkpt><trkpt lat="45.72973027223939" lon="9.418060491523217"><ele>264.0</ele><time>2026-03-28T09:24:15.998Z</time></trkpt><trkpt lat="45.72986972734154" lon="9.418174092702268"><ele>263.0</ele><time>2026-03-28T09:24:16.998Z</time></trkpt><trkpt lat="45.73001128979758" lon="9.41829893636164"><ele>263.0</ele><time>2026-03-28T09:24:17.998Z</time></trkpt><trkpt lat="45.73015341135603" lon="9.418433058009402"><ele>263.0</ele><time>2026-03-28T09:24:18.998Z</time></trkpt><trkpt lat="45.73028876863583" lon="9.418568406774064"><ele>263.0</ele><time>2026-03-28T09:24:19.998Z</time></trkpt><trkpt lat="45.730420488560185" lon="9.41870641149557"><ele>262.33333333333337</ele><time>2026-03-28T09:24:20.998Z</time></trkpt><trkpt lat="45.730549904049816" lon="9.418835818415658"><ele>261.6666666666667</ele><time>2026-03-28T09:24:21.998Z</time></trkpt><trkpt lat="45.73068317241891" lon="9.418969603814318"><ele>261.0</ele><time>2026-03-28T09:24:22.998Z</time></trkpt><trkpt lat="45.73081416393882" lon="9.419099371058092"><ele>261.0</ele><time>2026-03-28T09:24:23.998Z</time></trkpt><trkpt lat="45.73093606785918" lon="9.419220806378732"><ele>261.0</ele><time>2026-03-28T09:24:24.998Z</time></trkpt><trkpt lat="45.731055086252724" lon="9.41934038504225"><ele>261.0</ele><time>2026-03-28T09:24:25.998Z</time></trkpt><trkpt lat="45.73117282789813" lon="9.419453904283849"><ele>261.0</ele><time>2026-03-28T09:24:26.998Z</time></trkpt><trkpt lat="45.731286059166244" lon="9.419557227389893"><ele>260.5</ele><time>2026-03-28T09:24:27.998Z</time></trkpt><trkpt lat="45.73139073955997" lon="9.419664375983675"><ele>260.0</ele><time>2026-03-28T09:24:28.998Z</time></trkpt><trkpt lat="45.731495091492384" lon="9.419762257845226"><ele>259.5</ele><time>2026-03-28T09:24:29.998Z</time></trkpt><trkpt lat="45.73158914475972" lon="9.419849210362433"><ele>259.0</ele><time>2026-03-28T09:24:30.998Z</time></trkpt><trkpt lat="45.7316903242707" lon="9.419903288068607"><ele>259.0</ele><time>2026-03-28T09:24:31.998Z</time></trkpt><trkpt lat="45.73179692323682" lon="9.419937652258144"><ele>259.0</ele><time>2026-03-28T09:24:32.998Z</time></trkpt><trkpt lat="45.731909840523805" lon="9.419950382987947"><ele>259.0</ele><time>2026-03-28T09:24:33.998Z</time></trkpt><trkpt lat="45.73201111033427" lon="9.419942309321241"><ele>259.0</ele><time>2026-03-28T09:24:34.998Z</time></trkpt><trkpt lat="45.73208193059164" lon="9.419958231829057"><ele>259.0</ele><time>2026-03-28T09:24:35.998Z</time></trkpt><trkpt lat="45.73214263789367" lon="9.419982905262147"><ele>259.0</ele><time>2026-03-28T09:24:36.998Z</time></trkpt><trkpt lat="45.73219234094519" lon="9.420053200346924"><ele>259.0</ele><time>2026-03-28T09:24:37.998Z</time></trkpt><trkpt lat="45.73224069402078" lon="9.420156301954963"><ele>259.0</ele><time>2026-03-28T09:24:38.998Z</time></trkpt><trkpt lat="45.73229536241812" lon="9.420265706639865"><ele>259.0</ele><time>2026-03-28T09:24:39.998Z</time></trkpt><trkpt lat="45.73235822347113" lon="9.420393959891742"><ele>259.0</ele><time>2026-03-28T09:24:40.998Z</time></trkpt><trkpt lat="45.732398015197475" lon="9.42051194666655"><ele>259.0</ele><time>2026-03-28T09:24:41.998Z</time></trkpt><trkpt lat="45.73242394543074" lon="9.420618526071113"><ele>259.0</ele><time>2026-03-28T09:24:42.998Z</time></trkpt><trkpt lat="45.73243942476802" lon="9.420720543126757"><ele>259.0</ele><time>2026-03-28T09:24:43.998Z</time></trkpt><trkpt lat="45.73244027685917" lon="9.42090916618379"><ele>259.0</ele><time>2026-03-28T09:24:45.998Z</time></trkpt><trkpt lat="45.732439977723175" lon="9.42101491663775"><ele>259.0</ele><time>2026-03-28T09:24:46.998Z</time></trkpt><trkpt lat="45.73244663175181" lon="9.4211173952108"><ele>259.0</ele><time>2026-03-28T09:24:47.998Z</time></trkpt><trkpt lat="45.73245044323339" lon="9.421208877000282"><ele>259.0</ele><time>2026-03-28T09:24:48.998Z</time></trkpt><trkpt lat="45.73246468938526" lon="9.421302686039931"><ele>259.0</ele><time>2026-03-28T09:24:49.998Z</time></trkpt><trkpt lat="45.73247672106487" lon="9.42139364271333"><ele>259.0</ele><time>2026-03-28T09:24:50.998Z</time></trkpt><trkpt lat="45.732489509064045" lon="9.421493154931877"><ele>259.0</ele><time>2026-03-28T09:24:51.998Z</time></trkpt><trkpt lat="45.7325022881567" lon="9.421594859292451"><ele>259.0</ele><time>2026-03-28T09:24:52.998Z</time></trkpt><trkpt lat="45.73252027291502" lon="9.421705028439268"><ele>259.0</ele><time>2026-03-28T09:24:53.998Z</time></trkpt><trkpt lat="45.73253876165364" lon="9.421814956596185"><ele>259.0</ele><time>2026-03-28T09:24:54.998Z</time></trkpt><trkpt lat="45.73256045210953" lon="9.421917168251397"><ele>259.3333333333333</ele><time>2026-03-28T09:24:55.998Z</time></trkpt><trkpt lat="45.73257914800902" lon="9.422023158241295"><ele>259.66666666666663</ele><time>2026-03-28T09:24:56.998Z</time></trkpt><trkpt lat="45.7325838701421" lon="9.422124073607202"><ele>260.0</ele><time>2026-03-28T09:24:57.998Z</time></trkpt><trkpt lat="45.732599060688415" lon="9.422222075706397"><ele>260.3333333333333</ele><time>2026-03-28T09:24:58.998Z</time></trkpt><trkpt lat="45.73260400776682" lon="9.42233911318072"><ele>260.6666666666667</ele><time>2026-03-28T09:24:59.998Z</time></trkpt><trkpt lat="45.73259997802096" lon="9.422478285922212"><ele>261.0</ele><time>2026-03-28T09:25:00.998Z</time></trkpt><trkpt lat="45.732595719334654" lon="9.422615347388472"><ele>261.0</ele><time>2026-03-28T09:25:01.998Z</time></trkpt><trkpt lat="45.73257190474917" lon="9.422761459299206"><ele>261.0</ele><time>2026-03-28T09:25:02.998Z</time></trkpt><trkpt lat="45.732568352588" lon="9.42293403923133"><ele>261.0</ele><time>2026-03-28T09:25:03.998Z</time></trkpt><trkpt lat="45.73255937400755" lon="9.42311574521953"><ele>261.0</ele><time>2026-03-28T09:25:04.998Z</time></trkpt><trkpt lat="45.732548099119605" lon="9.423305671633669"><ele>261.0</ele><time>2026-03-28T09:25:05.998Z</time></trkpt><trkpt lat="45.73252986196612" lon="9.423493076332603"><ele>261.0</ele><time>2026-03-28T09:25:06.998Z</time></trkpt><trkpt lat="45.73251503807407" lon="9.423682493095816"><ele>261.0</ele><time>2026-03-28T09:25:07.998Z</time></trkpt><trkpt lat="45.732452919753854" lon="9.423872495054017"><ele>261.0</ele><time>2026-03-28T09:25:08.998Z</time></trkpt><trkpt lat="45.73237186374394" lon="9.424052646342881"><ele>260.0</ele><time>2026-03-28T09:25:09.999Z</time></trkpt><trkpt lat="45.73227529075949" lon="9.424254842989193"><ele>259.0</ele><time>2026-03-28T09:25:10.999Z</time></trkpt><trkpt lat="45.73216157396842" lon="9.424461311807104"><ele>258.0</ele><time>2026-03-28T09:25:11.999Z</time></trkpt><trkpt lat="45.732066220148205" lon="9.424682794873565"><ele>256.3333333333333</ele><time>2026-03-28T09:25:12.999Z</time></trkpt><trkpt lat="45.731955983404795" lon="9.424929957090528"><ele>254.66666666666666</ele><time>2026-03-28T09:25:13.999Z</time></trkpt><trkpt lat="45.731839494360436" lon="9.42518181626708"><ele>253.0</ele><time>2026-03-28T09:25:14.999Z</time></trkpt><trkpt lat="45.73172439150999" lon="9.42541834675623"><ele>255.66666666666666</ele><time>2026-03-28T09:25:15.999Z</time></trkpt><trkpt lat="45.73160716948859" lon="9.425654937342257"><ele>258.3333333333333</ele><time>2026-03-28T09:25:16.999Z</time></trkpt><trkpt lat="45.73149217407718" lon="9.42588852034365"><ele>261.0</ele><time>2026-03-28T09:25:17.999Z</time></trkpt><trkpt lat="45.731378094959524" lon="9.426128303896446"><ele>262.0</ele><time>2026-03-28T09:25:18.999Z</time></trkpt><trkpt lat="45.73126972767372" lon="9.426377756743594"><ele>263.0</ele><time>2026-03-28T09:25:19.999Z</time></trkpt><trkpt lat="45.73116486045397" lon="9.426637164981367"><ele>264.0</ele><time>2026-03-28T09:25:20.999Z</time></trkpt><trkpt lat="45.73107933138217" lon="9.426900488744257"><ele>262.3333333333333</ele><time>2026-03-28T09:25:21.999Z</time></trkpt><trkpt lat="45.73099777425997" lon="9.427169659280887"><ele>260.66666666666663</ele><time>2026-03-28T09:25:22.999Z</time></trkpt><trkpt lat="45.73090207392748" lon="9.427419198609558"><ele>259.0</ele><time>2026-03-28T09:25:23.999Z</time></trkpt><trkpt lat="45.73078677745361" lon="9.427652796885393"><ele>259.0</ele><time>2026-03-28T09:25:24.999Z</time></trkpt><trkpt lat="45.73064613754168" lon="9.427909518632259"><ele>259.0</ele><time>2026-03-28T09:25:25.999Z</time></trkpt><trkpt lat="45.730493925231336" lon="9.428164352009603"><ele>259.3333333333333</ele><time>2026-03-28T09:25:26.999Z</time></trkpt><trkpt lat="45.73035011870994" lon="9.428411572535799"><ele>259.6666666666667</ele><time>2026-03-28T09:25:27.999Z</time></trkpt><trkpt lat="45.73020955940002" lon="9.428650943466348"><ele>260.0</ele><time>2026-03-28T09:25:28.998Z</time></trkpt><trkpt lat="45.73007620056626" lon="9.428883590436588"><ele>260.0</ele><time>2026-03-28T09:25:29.997Z</time></trkpt><trkpt lat="45.72994606361003" lon="9.429125258510654"><ele>260.0</ele><time>2026-03-28T09:25:30.997Z</time></trkpt><trkpt lat="45.729819040310446" lon="9.429366725301037"><ele>260.0</ele><time>2026-03-28T09:25:31.998Z</time></trkpt><trkpt lat="45.72969170933502" lon="9.42959619030155"><ele>260.33333333333337</ele><time>2026-03-28T09:25:32.997Z</time></trkpt><trkpt lat="45.72956246678354" lon="9.429827139803468"><ele>260.6666666666667</ele><time>2026-03-28T09:25:33.997Z</time></trkpt><trkpt lat="45.72943116974061" lon="9.430068788366034"><ele>261.0</ele><time>2026-03-28T09:25:34.997Z</time></trkpt><trkpt lat="45.729298700744366" lon="9.430337730302995"><ele>259.5</ele><time>2026-03-28T09:25:35.997Z</time></trkpt><trkpt lat="45.729171323220434" lon="9.43062375580351"><ele>258.0</ele><time>2026-03-28T09:25:36.997Z</time></trkpt><trkpt lat="45.729066303286665" lon="9.430912165982992"><ele>258.0</ele><time>2026-03-28T09:25:37.997Z</time></trkpt><trkpt lat="45.72896587190751" lon="9.431210131933334"><ele>258.0</ele><time>2026-03-28T09:25:38.998Z</time></trkpt><trkpt lat="45.72887293733176" lon="9.431518662637226"><ele>253.0</ele><time>2026-03-28T09:25:39.998Z</time></trkpt><trkpt lat="45.72878678308485" lon="9.431831612247487"><ele>248.0</ele><time>2026-03-28T09:25:40.998Z</time></trkpt><trkpt lat="45.72870362865745" lon="9.432131673028511"><ele>248.0</ele><time>2026-03-28T09:25:41.998Z</time></trkpt><trkpt lat="45.72862494338336" lon="9.43243837755462"><ele>248.0</ele><time>2026-03-28T09:25:42.998Z</time></trkpt><trkpt lat="45.72854616333086" lon="9.432741826055548"><ele>252.66666666666669</ele><time>2026-03-28T09:25:43.998Z</time></trkpt><trkpt lat="45.72847000914526" lon="9.433033851453347"><ele>257.3333333333333</ele><time>2026-03-28T09:25:44.998Z</time></trkpt><trkpt lat="45.7283932209121" lon="9.433322862355446"><ele>262.0</ele><time>2026-03-28T09:25:45.998Z</time></trkpt><trkpt lat="45.72832278150171" lon="9.433594728667977"><ele>260.0</ele><time>2026-03-28T09:25:46.998Z</time></trkpt><trkpt lat="45.72825304838264" lon="9.433852351542578"><ele>258.0</ele><time>2026-03-28T09:25:47.998Z</time></trkpt><trkpt lat="45.72819434623053" lon="9.434101428998963"><ele>256.0</ele><time>2026-03-28T09:25:48.998Z</time></trkpt><trkpt lat="45.72814440447789" lon="9.434357987356286"><ele>256.0</ele><time>2026-03-28T09:25:49.998Z</time></trkpt><trkpt lat="45.72809926267354" lon="9.43460927874763"><ele>256.0</ele><time>2026-03-28T09:25:50.998Z</time></trkpt><trkpt lat="45.72804807880131" lon="9.434868971662217"><ele>256.0</ele><time>2026-03-28T09:25:51.998Z</time></trkpt><trkpt lat="45.72799140105358" lon="9.435116741124258"><ele>254.66666666666666</ele><time>2026-03-28T09:25:52.998Z</time></trkpt><trkpt lat="45.727904033063155" lon="9.435341127026572"><ele>253.33333333333331</ele><time>2026-03-28T09:25:53.998Z</time></trkpt><trkpt lat="45.72783570798409" lon="9.435556608860157"><ele>252.0</ele><time>2026-03-28T09:25:54.998Z</time></trkpt><trkpt lat="45.72777321595026" lon="9.435746768288803"><ele>251.5</ele><time>2026-03-28T09:25:55.998Z</time></trkpt><trkpt lat="45.72771790241829" lon="9.435909688990257"><ele>251.0</ele><time>2026-03-28T09:25:56.998Z</time></trkpt><trkpt lat="45.72765542757764" lon="9.43607482272515"><ele>250.5</ele><time>2026-03-28T09:25:57.998Z</time></trkpt><trkpt lat="45.72759439348899" lon="9.436243996833111"><ele>250.0</ele><time>2026-03-28T09:25:58.998Z</time></trkpt><trkpt lat="45.72752336482822" lon="9.436422686255257"><ele>250.0</ele><time>2026-03-28T09:25:59.998Z</time></trkpt><trkpt lat="45.72744014480404" lon="9.436601033041416"><ele>250.0</ele><time>2026-03-28T09:26:00.998Z</time></trkpt><trkpt lat="45.72734661627498" lon="9.436782310018597"><ele>250.0</ele><time>2026-03-28T09:26:01.998Z</time></trkpt><trkpt lat="45.72725897502343" lon="9.436953448827497"><ele>250.0</ele><time>2026-03-28T09:26:02.998Z</time></trkpt><trkpt lat="45.727172468020235" lon="9.437115123991811"><ele>250.0</ele><time>2026-03-28T09:26:03.998Z</time></trkpt><trkpt lat="45.72709410641408" lon="9.43726030915995"><ele>250.0</ele><time>2026-03-28T09:26:04.998Z</time></trkpt><trkpt lat="45.727033791067164" lon="9.437366238281436"><ele>250.0</ele><time>2026-03-28T09:26:05.998Z</time></trkpt><trkpt lat="45.72698733767133" lon="9.437454396396967"><ele>250.0</ele><time>2026-03-28T09:26:06.998Z</time></trkpt><trkpt lat="45.72692650772563" lon="9.437567072001817"><ele>249.75</ele><time>2026-03-28T09:26:07.998Z</time></trkpt><trkpt lat="45.7268596371304" lon="9.437693510349247"><ele>249.5</ele><time>2026-03-28T09:26:08.998Z</time></trkpt><trkpt lat="45.72679442764324" lon="9.43781651643363"><ele>249.25</ele><time>2026-03-28T09:26:09.998Z</time></trkpt><trkpt lat="45.72671402970686" lon="9.437942886023443"><ele>249.0</ele><time>2026-03-28T09:26:10.998Z</time></trkpt><trkpt lat="45.726624700672" lon="9.438089680329833"><ele>247.33333333333331</ele><time>2026-03-28T09:26:11.998Z</time></trkpt><trkpt lat="45.726526446944085" lon="9.438249456642852"><ele>245.66666666666666</ele><time>2026-03-28T09:26:12.998Z</time></trkpt><trkpt lat="45.72642082143836" lon="9.438414228580847"><ele>244.0</ele><time>2026-03-28T09:26:13.998Z</time></trkpt><trkpt lat="45.72630813826095" lon="9.438574455924543"><ele>244.0</ele><time>2026-03-28T09:26:14.998Z</time></trkpt><trkpt lat="45.72619735715444" lon="9.438720058578705"><ele>244.0</ele><time>2026-03-28T09:26:15.998Z</time></trkpt><trkpt lat="45.726058241991375" lon="9.438868072666247"><ele>244.0</ele><time>2026-03-28T09:26:16.998Z</time></trkpt><trkpt lat="45.72592315400368" lon="9.439011289795754"><ele>242.0</ele><time>2026-03-28T09:26:17.998Z</time></trkpt><trkpt lat="45.72578501717205" lon="9.43914338422391"><ele>240.0</ele><time>2026-03-28T09:26:18.998Z</time></trkpt><trkpt lat="45.72564517730687" lon="9.439269155805215"><ele>238.0</ele><time>2026-03-28T09:26:19.998Z</time></trkpt><trkpt lat="45.7255045933119" lon="9.43939573568177"><ele>238.0</ele><time>2026-03-28T09:26:20.998Z</time></trkpt><trkpt lat="45.72536658290447" lon="9.439518270893908"><ele>238.0</ele><time>2026-03-28T09:26:21.998Z</time></trkpt><trkpt lat="45.72522929790964" lon="9.439638082480613"><ele>238.0</ele><time>2026-03-28T09:26:22.998Z</time></trkpt><trkpt lat="45.72508823064145" lon="9.439762285612517"><ele>237.66666666666666</ele><time>2026-03-28T09:26:23.998Z</time></trkpt><trkpt lat="45.724936481585836" lon="9.439890486512951"><ele>237.33333333333331</ele><time>2026-03-28T09:26:24.998Z</time></trkpt><trkpt lat="45.724785727317844" lon="9.440020045814872"><ele>237.0</ele><time>2026-03-28T09:26:25.998Z</time></trkpt><trkpt lat="45.72463786920984" lon="9.440148420573383"><ele>237.0</ele><time>2026-03-28T09:26:26.998Z</time></trkpt><trkpt lat="45.72449538643159" lon="9.440275095773428"><ele>237.0</ele><time>2026-03-28T09:26:27.998Z</time></trkpt><trkpt lat="45.72435807287803" lon="9.440390109250899"><ele>237.0</ele><time>2026-03-28T09:26:28.998Z</time></trkpt><trkpt lat="45.724228985698026" lon="9.44049663231724"><ele>236.8</ele><time>2026-03-28T09:26:29.998Z</time></trkpt><trkpt lat="45.724105554595035" lon="9.44059554961506"><ele>236.6</ele><time>2026-03-28T09:26:30.998Z</time></trkpt><trkpt lat="45.72400564796066" lon="9.440683631758167"><ele>236.40000000000003</ele><time>2026-03-28T09:26:31.998Z</time></trkpt><trkpt lat="45.723931860159496" lon="9.440760822327324"><ele>236.20000000000002</ele><time>2026-03-28T09:26:32.998Z</time></trkpt><trkpt lat="45.72387678476743" lon="9.440853986671502"><ele>236.0</ele><time>2026-03-28T09:26:33.998Z</time></trkpt><trkpt lat="45.72387188067205" lon="9.440977032425836"><ele>236.0</ele><time>2026-03-28T09:26:34.998Z</time></trkpt><trkpt lat="45.723910004850204" lon="9.441104765263692"><ele>236.00000000000003</ele><time>2026-03-28T09:26:35.998Z</time></trkpt><trkpt lat="45.72396460891496" lon="9.441250992163521"><ele>236.00000000000003</ele><time>2026-03-28T09:26:36.998Z</time></trkpt><trkpt lat="45.724010310938354" lon="9.441396379801649"><ele>236.0</ele><time>2026-03-28T09:26:37.998Z</time></trkpt><trkpt lat="45.72405684199236" lon="9.441544563269352"><ele>236.0</ele><time>2026-03-28T09:26:38.998Z</time></trkpt><trkpt lat="45.72410355457785" lon="9.441686654565558"><ele>236.0</ele><time>2026-03-28T09:26:39.998Z</time></trkpt><trkpt lat="45.72414729633785" lon="9.441839342745563"><ele>236.0</ele><time>2026-03-28T09:26:40.998Z</time></trkpt><trkpt lat="45.724199491028315" lon="9.442016364513227"><ele>236.0</ele><time>2026-03-28T09:26:41.998Z</time></trkpt><trkpt lat="45.72425232146196" lon="9.442205579982092"><ele>236.0</ele><time>2026-03-28T09:26:42.998Z</time></trkpt><trkpt lat="45.72430147018026" lon="9.442380206409847"><ele>236.20000000000002</ele><time>2026-03-28T09:26:43.998Z</time></trkpt><trkpt lat="45.72434925227009" lon="9.442544182409808"><ele>236.40000000000003</ele><time>2026-03-28T09:26:44.998Z</time></trkpt><trkpt lat="45.72439724859717" lon="9.442688626686401"><ele>236.6</ele><time>2026-03-28T09:26:45.998Z</time></trkpt><trkpt lat="45.72443967954467" lon="9.442811160736925"><ele>236.8</ele><time>2026-03-28T09:26:46.998Z</time></trkpt><trkpt lat="45.72447364942161" lon="9.442930017349841"><ele>237.0</ele><time>2026-03-28T09:26:47.998Z</time></trkpt><trkpt lat="45.724512026819646" lon="9.44304489792056"><ele>237.2</ele><time>2026-03-28T09:26:48.998Z</time></trkpt><trkpt lat="45.72454454135464" lon="9.44314768368662"><ele>237.39999999999998</ele><time>2026-03-28T09:26:49.998Z</time></trkpt><trkpt lat="45.72457073720257" lon="9.44326363382903"><ele>237.60000000000002</ele><time>2026-03-28T09:26:51.998Z</time></trkpt><trkpt lat="45.72462799506435" lon="9.443337968051694"><ele>237.8</ele><time>2026-03-28T09:26:55.998Z</time></trkpt><trkpt lat="45.72473268077177" lon="9.44331135856123"><ele>238.0</ele><time>2026-03-28T09:26:56.998Z</time></trkpt><trkpt lat="45.72484455414466" lon="9.44325011858231"><ele>238.0</ele><time>2026-03-28T09:26:57.998Z</time></trkpt><trkpt lat="45.72497980129937" lon="9.443158252956914"><ele>238.0</ele><time>2026-03-28T09:26:58.998Z</time></trkpt><trkpt lat="45.725144450136625" lon="9.443053449699548"><ele>238.0</ele><time>2026-03-28T09:26:59.998Z</time></trkpt><trkpt lat="45.72532803738702" lon="9.442942933584396"><ele>238.0</ele><time>2026-03-28T09:27:00.998Z</time></trkpt><trkpt lat="45.725508475924855" lon="9.442843870362541"><ele>238.0</ele><time>2026-03-28T09:27:01.998Z</time></trkpt><trkpt lat="45.72567697803557" lon="9.442742710186375"><ele>238.0</ele><time>2026-03-28T09:27:02.998Z</time></trkpt><trkpt lat="45.72582920025073" lon="9.442652637162636"><ele>238.0</ele><time>2026-03-28T09:27:03.998Z</time></trkpt><trkpt lat="45.725979018421796" lon="9.442576767458707"><ele>238.0</ele><time>2026-03-28T09:27:04.998Z</time></trkpt><trkpt lat="45.726136668114876" lon="9.442486940971703"><ele>238.0</ele><time>2026-03-28T09:27:05.998Z</time></trkpt><trkpt lat="45.72631249238371" lon="9.442394040839833"><ele>237.33333333333331</ele><time>2026-03-28T09:27:06.998Z</time></trkpt><trkpt lat="45.72649244880776" lon="9.442311272409686"><ele>236.66666666666669</ele><time>2026-03-28T09:27:07.998Z</time></trkpt><trkpt lat="45.726675669600695" lon="9.44224767428357"><ele>236.0</ele><time>2026-03-28T09:27:08.998Z</time></trkpt><trkpt lat="45.72686000053749" lon="9.44219424786309"><ele>235.33333333333334</ele><time>2026-03-28T09:27:09.998Z</time></trkpt><trkpt lat="45.72703265882092" lon="9.442156393220632"><ele>234.66666666666669</ele><time>2026-03-28T09:27:10.998Z</time></trkpt><trkpt lat="45.727189619378166" lon="9.442123110824136"><ele>234.0</ele><time>2026-03-28T09:27:11.998Z</time></trkpt><trkpt lat="45.72735972785939" lon="9.442066885829794"><ele>234.0</ele><time>2026-03-28T09:27:12.998Z</time></trkpt><trkpt lat="45.72753847339665" lon="9.441998929471556"><ele>234.0</ele><time>2026-03-28T09:27:13.998Z</time></trkpt><trkpt lat="45.727721132230855" lon="9.441899660846364"><ele>234.0</ele><time>2026-03-28T09:27:14.998Z</time></trkpt><trkpt lat="45.727905813427" lon="9.441787736011616"><ele>234.66666666666669</ele><time>2026-03-28T09:27:15.998Z</time></trkpt><trkpt lat="45.72809153869418" lon="9.441670794059672"><ele>235.33333333333334</ele><time>2026-03-28T09:27:16.998Z</time></trkpt><trkpt lat="45.72827529307599" lon="9.441561171144155"><ele>236.0</ele><time>2026-03-28T09:27:17.998Z</time></trkpt><trkpt lat="45.72846105219306" lon="9.44144986039129"><ele>237.33333333333334</ele><time>2026-03-28T09:27:18.998Z</time></trkpt><trkpt lat="45.728647383259535" lon="9.441348965064247"><ele>238.66666666666669</ele><time>2026-03-28T09:27:19.998Z</time></trkpt><trkpt lat="45.728842023646386" lon="9.4412598593167"><ele>240.0</ele><time>2026-03-28T09:27:20.999Z</time></trkpt><trkpt lat="45.72903081686747" lon="9.441181589325836"><ele>240.0</ele><time>2026-03-28T09:27:21.999Z</time></trkpt><trkpt lat="45.72922640458312" lon="9.441109061719498"><ele>240.0</ele><time>2026-03-28T09:27:22.999Z</time></trkpt><trkpt lat="45.72942224836333" lon="9.441035930033136"><ele>240.0</ele><time>2026-03-28T09:27:23.999Z</time></trkpt><trkpt lat="45.729607812223755" lon="9.440979578318968"><ele>240.0</ele><time>2026-03-28T09:27:24.999Z</time></trkpt><trkpt lat="45.72979574629837" lon="9.440973295419079"><ele>240.0</ele><time>2026-03-28T09:27:25.999Z</time></trkpt><trkpt lat="45.730000576682826" lon="9.441009950847977"><ele>240.0</ele><time>2026-03-28T09:27:26.999Z</time></trkpt><trkpt lat="45.73023552690348" lon="9.441093312853992"><ele>239.0</ele><time>2026-03-28T09:27:27.999Z</time></trkpt><trkpt lat="45.730474788985624" lon="9.441208552144712"><ele>238.0</ele><time>2026-03-28T09:27:28.999Z</time></trkpt><trkpt lat="45.73069727107774" lon="9.441323267285986"><ele>238.33333333333331</ele><time>2026-03-28T09:27:29.999Z</time></trkpt><trkpt lat="45.73090379628118" lon="9.441426360361497"><ele>238.66666666666669</ele><time>2026-03-28T09:27:30.999Z</time></trkpt><trkpt lat="45.731111598552545" lon="9.441526115270502"><ele>239.0</ele><time>2026-03-28T09:27:31.999Z</time></trkpt><trkpt lat="45.73132161630517" lon="9.441630248929227"><ele>239.0</ele><time>2026-03-28T09:27:32.999Z</time></trkpt><trkpt lat="45.731508842672234" lon="9.441733569290623"><ele>239.0</ele><time>2026-03-28T09:27:33.997Z</time></trkpt><trkpt lat="45.73167958860229" lon="9.441857904317715"><ele>239.0</ele><time>2026-03-28T09:27:34.998Z</time></trkpt><trkpt lat="45.731827101163276" lon="9.442009498298647"><ele>240.0</ele><time>2026-03-28T09:27:35.998Z</time></trkpt><trkpt lat="45.73196151891478" lon="9.44218545402108"><ele>241.0</ele><time>2026-03-28T09:27:36.997Z</time></trkpt><trkpt lat="45.73210418561802" lon="9.44236572553208"><ele>242.0</ele><time>2026-03-28T09:27:37.997Z</time></trkpt><trkpt lat="45.73223612167345" lon="9.442536015926951"><ele>242.0</ele><time>2026-03-28T09:27:38.997Z</time></trkpt><trkpt lat="45.73236247238948" lon="9.442699669092063"><ele>242.0</ele><time>2026-03-28T09:27:39.998Z</time></trkpt><trkpt lat="45.73247812285545" lon="9.442843185381562"><ele>242.0</ele><time>2026-03-28T09:27:40.997Z</time></trkpt><trkpt lat="45.732596775463165" lon="9.442981162577684"><ele>242.0</ele><time>2026-03-28T09:27:41.997Z</time></trkpt><trkpt lat="45.732712797688556" lon="9.443122060188507"><ele>242.0</ele><time>2026-03-28T09:27:42.997Z</time></trkpt><trkpt lat="45.73282706676258" lon="9.443259003825393"><ele>242.0</ele><time>2026-03-28T09:27:43.997Z</time></trkpt><trkpt lat="45.73293021316212" lon="9.443392835070489"><ele>242.0</ele><time>2026-03-28T09:27:44.997Z</time></trkpt><trkpt lat="45.73304205837514" lon="9.443511999973303"><ele>242.0</ele><time>2026-03-28T09:27:45.997Z</time></trkpt><trkpt lat="45.733158172943234" lon="9.443613677575032"><ele>242.0</ele><time>2026-03-28T09:27:46.997Z</time></trkpt><trkpt lat="45.73327938538045" lon="9.443684020917743"><ele>242.0</ele><time>2026-03-28T09:27:47.997Z</time></trkpt><trkpt lat="45.73341456775022" lon="9.443727848426168"><ele>242.0</ele><time>2026-03-28T09:27:48.997Z</time></trkpt><trkpt lat="45.73357311352758" lon="9.44374906944516"><ele>242.33333333333334</ele><time>2026-03-28T09:27:49.997Z</time></trkpt><trkpt lat="45.73374503882005" lon="9.443765030562718"><ele>242.66666666666669</ele><time>2026-03-28T09:27:50.997Z</time></trkpt><trkpt lat="45.733913082111606" lon="9.443779030425132"><ele>243.0</ele><time>2026-03-28T09:27:51.997Z</time></trkpt><trkpt lat="45.734056483530296" lon="9.443789209697345"><ele>239.25</ele><time>2026-03-28T09:27:52.997Z</time></trkpt><trkpt lat="45.734191005927904" lon="9.44380298881917"><ele>235.5</ele><time>2026-03-28T09:27:53.997Z</time></trkpt><trkpt lat="45.73431583962493" lon="9.443812113162576"><ele>231.75</ele><time>2026-03-28T09:27:54.997Z</time></trkpt><trkpt lat="45.7344438005854" lon="9.443820359001482"><ele>228.0</ele><time>2026-03-28T09:27:55.997Z</time></trkpt><trkpt lat="45.734581515793735" lon="9.443829999272724"><ele>228.0</ele><time>2026-03-28T09:27:56.997Z</time></trkpt><trkpt lat="45.73472830006834" lon="9.443842255351305"><ele>228.0</ele><time>2026-03-28T09:27:57.997Z</time></trkpt><trkpt lat="45.73486512197592" lon="9.443869781182556"><ele>228.0</ele><time>2026-03-28T09:27:58.997Z</time></trkpt><trkpt lat="45.73499503523038" lon="9.443927539656295"><ele>228.0</ele><time>2026-03-28T09:27:59.997Z</time></trkpt><trkpt lat="45.73512068717083" lon="9.444012026673704"><ele>229.75</ele><time>2026-03-28T09:28:00.997Z</time></trkpt><trkpt lat="45.73524141963631" lon="9.44411481439647"><ele>231.5</ele><time>2026-03-28T09:28:01.997Z</time></trkpt><trkpt lat="45.73535999608263" lon="9.444244575004824"><ele>233.25</ele><time>2026-03-28T09:28:02.997Z</time></trkpt><trkpt lat="45.73547202435996" lon="9.44439766924287"><ele>235.0</ele><time>2026-03-28T09:28:03.997Z</time></trkpt><trkpt lat="45.735567695438434" lon="9.444574963104944"><ele>234.0</ele><time>2026-03-28T09:28:04.997Z</time></trkpt><trkpt lat="45.735634938913854" lon="9.444764362665024"><ele>233.0</ele><time>2026-03-28T09:28:05.998Z</time></trkpt><trkpt lat="45.735686223214216" lon="9.444943039975666"><ele>232.0</ele><time>2026-03-28T09:28:06.998Z</time></trkpt><trkpt lat="45.73573599451095" lon="9.44511234017"><ele>231.0</ele><time>2026-03-28T09:28:07.998Z</time></trkpt><trkpt lat="45.73576935548459" lon="9.445267676580308"><ele>231.0</ele><time>2026-03-28T09:28:08.998Z</time></trkpt><trkpt lat="45.735818415293394" lon="9.44540993390818"><ele>231.00000000000003</ele><time>2026-03-28T09:28:09.998Z</time></trkpt><trkpt lat="45.735866600940746" lon="9.445544593800028"><ele>231.00000000000003</ele><time>2026-03-28T09:28:10.998Z</time></trkpt><trkpt lat="45.735928598950096" lon="9.4456551346723"><ele>231.0</ele><time>2026-03-28T09:28:11.998Z</time></trkpt><trkpt lat="45.736010524246204" lon="9.445770908670845"><ele>231.0</ele><time>2026-03-28T09:28:12.998Z</time></trkpt><trkpt lat="45.73612003746966" lon="9.445890047721855"><ele>232.5</ele><time>2026-03-28T09:28:13.998Z</time></trkpt><trkpt lat="45.73623515782305" lon="9.445970624719891"><ele>234.0</ele><time>2026-03-28T09:28:14.998Z</time></trkpt><trkpt lat="45.736347293539204" lon="9.446030284548996"><ele>235.5</ele><time>2026-03-28T09:28:15.998Z</time></trkpt><trkpt lat="45.73645173748928" lon="9.446064514980483"><ele>237.0</ele><time>2026-03-28T09:28:16.998Z</time></trkpt><trkpt lat="45.73655859221982" lon="9.446088755193612"><ele>237.0</ele><time>2026-03-28T09:28:17.998Z</time></trkpt><trkpt lat="45.73666230396352" lon="9.446118052463527"><ele>237.0</ele><time>2026-03-28T09:28:18.998Z</time></trkpt><trkpt lat="45.73675556677433" lon="9.44615294019803"><ele>237.0</ele><time>2026-03-28T09:28:19.998Z</time></trkpt><trkpt lat="45.736850489168106" lon="9.446187966547647"><ele>237.0</ele><time>2026-03-28T09:28:20.998Z</time></trkpt><trkpt lat="45.73694948493086" lon="9.446217180747768"><ele>237.0</ele><time>2026-03-28T09:28:21.998Z</time></trkpt><trkpt lat="45.73705070541916" lon="9.446249660876665"><ele>237.2</ele><time>2026-03-28T09:28:22.998Z</time></trkpt><trkpt lat="45.7371446946059" lon="9.446279432138786"><ele>237.39999999999998</ele><time>2026-03-28T09:28:23.998Z</time></trkpt><trkpt lat="45.73724436048508" lon="9.446309465696654"><ele>237.60000000000002</ele><time>2026-03-28T09:28:24.998Z</time></trkpt><trkpt lat="45.73734629339763" lon="9.446342921373644"><ele>237.8</ele><time>2026-03-28T09:28:25.998Z</time></trkpt><trkpt lat="45.73743960809355" lon="9.446374778780246"><ele>238.0</ele><time>2026-03-28T09:28:26.998Z</time></trkpt><trkpt lat="45.737534567575594" lon="9.4463977547549"><ele>236.0</ele><time>2026-03-28T09:28:27.998Z</time></trkpt><trkpt lat="45.73763379631167" lon="9.446393584333288"><ele>234.0</ele><time>2026-03-28T09:28:28.998Z</time></trkpt><trkpt lat="45.73773247571349" lon="9.446374321187292"><ele>232.0</ele><time>2026-03-28T09:28:29.998Z</time></trkpt><trkpt lat="45.73782713972043" lon="9.44635282695244"><ele>230.0</ele><time>2026-03-28T09:28:30.998Z</time></trkpt><trkpt lat="45.73791118170368" lon="9.446340154275525"><ele>228.0</ele><time>2026-03-28T09:28:31.998Z</time></trkpt><trkpt lat="45.73799205062245" lon="9.446336068448186"><ele>227.66666666666666</ele><time>2026-03-28T09:28:32.998Z</time></trkpt><trkpt lat="45.73807177972664" lon="9.446353899260766"><ele>227.33333333333331</ele><time>2026-03-28T09:28:33.998Z</time></trkpt><trkpt lat="45.738144114747264" lon="9.44638383610403"><ele>227.0</ele><time>2026-03-28T09:28:34.998Z</time></trkpt><trkpt lat="45.738212539960244" lon="9.446456802352927"><ele>226.66666666666666</ele><time>2026-03-28T09:28:35.998Z</time></trkpt><trkpt lat="45.73826253998426" lon="9.446573975089501"><ele>226.33333333333331</ele><time>2026-03-28T09:28:36.998Z</time></trkpt><trkpt lat="45.738289537482565" lon="9.446697874391198"><ele>226.0</ele><time>2026-03-28T09:28:37.998Z</time></trkpt><trkpt lat="45.73831238412717" lon="9.446829245782952"><ele>225.99999999999997</ele><time>2026-03-28T09:28:38.998Z</time></trkpt><trkpt lat="45.73836243937321" lon="9.44695082006447"><ele>226.0</ele><time>2026-03-28T09:28:39.998Z</time></trkpt><trkpt lat="45.7384178810898" lon="9.447048838879082"><ele>226.0</ele><time>2026-03-28T09:28:40.998Z</time></trkpt><trkpt lat="45.73849018140606" lon="9.447126697458927"><ele>226.0</ele><time>2026-03-28T09:28:41.998Z</time></trkpt><trkpt lat="45.738569976819" lon="9.447179026947762"><ele>225.99999999999997</ele><time>2026-03-28T09:28:42.998Z</time></trkpt><trkpt lat="45.73862352903688" lon="9.44724284366244"><ele>226.0</ele><time>2026-03-28T09:28:43.998Z</time></trkpt><trkpt lat="45.7386816458497" lon="9.447284063064028"><ele>222.66666666666666</ele><time>2026-03-28T09:28:44.998Z</time></trkpt><trkpt lat="45.738743045192315" lon="9.447324831172562"><ele>219.33333333333331</ele><time>2026-03-28T09:28:45.998Z</time></trkpt><trkpt lat="45.738803299028866" lon="9.447360100813963"><ele>216.0</ele><time>2026-03-28T09:28:46.998Z</time></trkpt><trkpt lat="45.73889593710601" lon="9.447386698048243"><ele>212.66666666666669</ele><time>2026-03-28T09:28:48.998Z</time></trkpt><trkpt lat="45.73895094715373" lon="9.447430800312308"><ele>209.33333333333334</ele><time>2026-03-28T09:28:50.998Z</time></trkpt><trkpt lat="45.73901965009235" lon="9.447454759267027"><ele>206.0</ele><time>2026-03-28T09:28:54.998Z</time></trkpt><trkpt lat="45.739131813863445" lon="9.447475568180524"><ele>206.00000000000003</ele><time>2026-03-28T09:28:56.998Z</time></trkpt><trkpt lat="45.73920380497874" lon="9.447484037725756"><ele>206.0</ele><time>2026-03-28T09:28:57.998Z</time></trkpt><trkpt lat="45.73929260033977" lon="9.44752177442292"><ele>206.0</ele><time>2026-03-28T09:28:59.998Z</time></trkpt><trkpt lat="45.739342794717246" lon="9.447582161910931"><ele>206.0</ele><time>2026-03-28T09:29:01.998Z</time></trkpt><trkpt lat="45.73933128850261" lon="9.447741692745982"><ele>206.00000000000003</ele><time>2026-03-28T09:29:02.998Z</time></trkpt><trkpt lat="45.73932830777634" lon="9.447854461075586"><ele>206.0</ele><time>2026-03-28T09:29:03.998Z</time></trkpt><trkpt lat="45.739321732087554" lon="9.447996644803276"><ele>203.60000000000002</ele><time>2026-03-28T09:29:04.998Z</time></trkpt><trkpt lat="45.73931088114413" lon="9.448171728936924"><ele>201.2</ele><time>2026-03-28T09:29:05.998Z</time></trkpt><trkpt lat="45.73929554202396" lon="9.448318918395618"><ele>198.8</ele><time>2026-03-28T09:29:06.998Z</time></trkpt><trkpt lat="45.739280514178326" lon="9.448467844630425"><ele>196.39999999999998</ele><time>2026-03-28T09:29:07.998Z</time></trkpt><trkpt lat="45.73926909047849" lon="9.448614639634425"><ele>194.0</ele><time>2026-03-28T09:29:08.998Z</time></trkpt><trkpt lat="45.73925918280456" lon="9.448760060830335"><ele>194.39999999999998</ele><time>2026-03-28T09:29:09.998Z</time></trkpt><trkpt lat="45.73924828850927" lon="9.44890396710736"><ele>194.8</ele><time>2026-03-28T09:29:10.998Z</time></trkpt><trkpt lat="45.7392440294478" lon="9.449039527131452"><ele>195.2</ele><time>2026-03-28T09:29:11.998Z</time></trkpt><trkpt lat="45.73924055912423" lon="9.44917262510993"><ele>195.60000000000002</ele><time>2026-03-28T09:29:12.998Z</time></trkpt><trkpt lat="45.73923503107664" lon="9.449302843424961"><ele>196.0</ele><time>2026-03-28T09:29:13.998Z</time></trkpt><trkpt lat="45.73922046285876" lon="9.449420353039844"><ele>195.99999999999997</ele><time>2026-03-28T09:29:14.998Z</time></trkpt><trkpt lat="45.73921555673695" lon="9.449535018185234"><ele>196.0</ele><time>2026-03-28T09:29:15.998Z</time></trkpt><trkpt lat="45.73921104364246" lon="9.449656096249472"><ele>196.0</ele><time>2026-03-28T09:29:16.998Z</time></trkpt><trkpt lat="45.739207251534175" lon="9.449773356647826"><ele>196.0</ele><time>2026-03-28T09:29:17.998Z</time></trkpt><trkpt lat="45.739208680504625" lon="9.449890535786627"><ele>195.99999999999997</ele><time>2026-03-28T09:29:18.998Z</time></trkpt><trkpt lat="45.73920763024474" lon="9.449993324309709"><ele>196.0</ele><time>2026-03-28T09:29:19.998Z</time></trkpt><trkpt lat="45.73920484567691" lon="9.450088438625434"><ele>196.60000000000002</ele><time>2026-03-28T09:29:20.998Z</time></trkpt><trkpt lat="45.73919842122236" lon="9.450262621023832"><ele>197.2</ele><time>2026-03-28T09:29:22.998Z</time></trkpt><trkpt lat="45.73915876315341" lon="9.450425533427794"><ele>197.8</ele><time>2026-03-28T09:29:24.998Z</time></trkpt><trkpt lat="45.739144705595095" lon="9.450566143500778"><ele>198.39999999999998</ele><time>2026-03-28T09:29:26.998Z</time></trkpt><trkpt lat="45.73920488444728" lon="9.450679468182964"><ele>199.0</ele><time>2026-03-28T09:29:28.998Z</time></trkpt><trkpt lat="45.73932642997724" lon="9.450751938266809"><ele>199.0</ele><time>2026-03-28T09:29:30.998Z</time></trkpt><trkpt lat="45.73941702745479" lon="9.450817571246512"><ele>199.0</ele><time>2026-03-28T09:29:31.998Z</time></trkpt><trkpt lat="45.73952806513152" lon="9.450936378255978"><ele>199.0</ele><time>2026-03-28T09:29:32.998Z</time></trkpt><trkpt lat="45.7396401544027" lon="9.451075466049083"><ele>199.0</ele><time>2026-03-28T09:29:33.998Z</time></trkpt><trkpt lat="45.739754390747244" lon="9.451211409656757"><ele>199.33333333333331</ele><time>2026-03-28T09:29:34.998Z</time></trkpt><trkpt lat="45.73986979850315" lon="9.451349357876873"><ele>199.66666666666669</ele><time>2026-03-28T09:29:35.998Z</time></trkpt><trkpt lat="45.739988601802274" lon="9.451491651653035"><ele>200.0</ele><time>2026-03-28T09:29:36.998Z</time></trkpt><trkpt lat="45.74010329613888" lon="9.45163018787746"><ele>199.75</ele><time>2026-03-28T09:29:37.998Z</time></trkpt><trkpt lat="45.74021863620636" lon="9.451763179793325"><ele>199.5</ele><time>2026-03-28T09:29:38.998Z</time></trkpt><trkpt lat="45.740328525732636" lon="9.451883266986282"><ele>199.25</ele><time>2026-03-28T09:29:39.998Z</time></trkpt><trkpt lat="45.74042812726763" lon="9.451994869938323"><ele>199.0</ele><time>2026-03-28T09:29:40.998Z</time></trkpt><trkpt lat="45.74051810086965" lon="9.452098175836479"><ele>199.6</ele><time>2026-03-28T09:29:41.998Z</time></trkpt><trkpt lat="45.740607587760415" lon="9.452197825303355"><ele>200.2</ele><time>2026-03-28T09:29:42.997Z</time></trkpt><trkpt lat="45.74068445435285" lon="9.452292809538019"><ele>200.79999999999998</ele><time>2026-03-28T09:29:43.997Z</time></trkpt><trkpt lat="45.74075532547087" lon="9.452383049698165"><ele>201.39999999999998</ele><time>2026-03-28T09:29:44.997Z</time></trkpt><trkpt lat="45.74082387064653" lon="9.452475463365136"><ele>202.0</ele><time>2026-03-28T09:29:45.997Z</time></trkpt><trkpt lat="45.74088749342475" lon="9.452579355862246"><ele>202.0</ele><time>2026-03-28T09:29:46.997Z</time></trkpt><trkpt lat="45.74093916679992" lon="9.452701043926636"><ele>202.0</ele><time>2026-03-28T09:29:47.997Z</time></trkpt><trkpt lat="45.740986556701344" lon="9.45283527770243"><ele>202.0</ele><time>2026-03-28T09:29:48.997Z</time></trkpt><trkpt lat="45.741020788876014" lon="9.452972133300491"><ele>202.0</ele><time>2026-03-28T09:29:49.997Z</time></trkpt><trkpt lat="45.74104776345371" lon="9.453127439042037"><ele>202.0</ele><time>2026-03-28T09:29:50.997Z</time></trkpt><trkpt lat="45.74106209576889" lon="9.453298152402702"><ele>202.2</ele><time>2026-03-28T09:29:51.997Z</time></trkpt><trkpt lat="45.74106586612762" lon="9.453466768858725"><ele>202.39999999999998</ele><time>2026-03-28T09:29:52.997Z</time></trkpt><trkpt lat="45.74106875095104" lon="9.453632491775998"><ele>202.60000000000002</ele><time>2026-03-28T09:29:53.997Z</time></trkpt><trkpt lat="45.74107493305152" lon="9.453791229246756"><ele>202.8</ele><time>2026-03-28T09:29:54.997Z</time></trkpt><trkpt lat="45.741078479800606" lon="9.453938910331049"><ele>203.0</ele><time>2026-03-28T09:29:55.997Z</time></trkpt><trkpt lat="45.741079176694655" lon="9.454068092820473"><ele>203.66666666666669</ele><time>2026-03-28T09:29:56.997Z</time></trkpt><trkpt lat="45.74107822178376" lon="9.454177949749159"><ele>204.33333333333334</ele><time>2026-03-28T09:29:57.997Z</time></trkpt><trkpt lat="45.74107631820167" lon="9.454281810742197"><ele>205.0</ele><time>2026-03-28T09:29:58.997Z</time></trkpt><trkpt lat="45.7410667983839" lon="9.454376868376912"><ele>205.66666666666669</ele><time>2026-03-28T09:29:59.997Z</time></trkpt><trkpt lat="45.7410447436482" lon="9.454469239305105"><ele>206.33333333333334</ele><time>2026-03-28T09:30:00.997Z</time></trkpt><trkpt lat="45.74099902012469" lon="9.454590445991851"><ele>207.0</ele><time>2026-03-28T09:30:01.997Z</time></trkpt><trkpt lat="45.740960093788914" lon="9.454742307562553"><ele>206.75</ele><time>2026-03-28T09:30:02.997Z</time></trkpt><trkpt lat="45.74095029548483" lon="9.454915314370112"><ele>206.5</ele><time>2026-03-28T09:30:03.997Z</time></trkpt><trkpt lat="45.74097603740862" lon="9.455074655877702"><ele>206.25</ele><time>2026-03-28T09:30:04.997Z</time></trkpt><trkpt lat="45.74103186879228" lon="9.455209973817464"><ele>206.0</ele><time>2026-03-28T09:30:05.997Z</time></trkpt><trkpt lat="45.74109392519607" lon="9.45533978982788"><ele>206.5</ele><time>2026-03-28T09:30:06.997Z</time></trkpt><trkpt lat="45.74113973125302" lon="9.455473380109183"><ele>207.0</ele><time>2026-03-28T09:30:07.997Z</time></trkpt><trkpt lat="45.74116256016146" lon="9.455625763761434"><ele>207.5</ele><time>2026-03-28T09:30:08.997Z</time></trkpt><trkpt lat="45.741185355048984" lon="9.455825425550444"><ele>208.0</ele><time>2026-03-28T09:30:09.997Z</time></trkpt><trkpt lat="45.74118837662976" lon="9.456077634264403"><ele>209.0</ele><time>2026-03-28T09:30:10.997Z</time></trkpt><trkpt lat="45.741217498104696" lon="9.456341811046297"><ele>210.0</ele><time>2026-03-28T09:30:11.997Z</time></trkpt><trkpt lat="45.74122775276214" lon="9.456584163341752"><ele>211.0</ele><time>2026-03-28T09:30:12.997Z</time></trkpt><trkpt lat="45.741239835195806" lon="9.456852143526618"><ele>211.0</ele><time>2026-03-28T09:30:13.997Z</time></trkpt><trkpt lat="45.74125445152365" lon="9.457107446733396"><ele>211.0</ele><time>2026-03-28T09:30:14.997Z</time></trkpt><trkpt lat="45.74126690847964" lon="9.457371168536593"><ele>211.0</ele><time>2026-03-28T09:30:15.997Z</time></trkpt><trkpt lat="45.741276919754974" lon="9.457646929974306"><ele>212.33333333333331</ele><time>2026-03-28T09:30:16.997Z</time></trkpt><trkpt lat="45.74128276720027" lon="9.457921413588679"><ele>213.66666666666669</ele><time>2026-03-28T09:30:17.997Z</time></trkpt><trkpt lat="45.74128736584924" lon="9.458166512680878"><ele>215.0</ele><time>2026-03-28T09:30:18.997Z</time></trkpt><trkpt lat="45.74129651129717" lon="9.458390995946493"><ele>216.0</ele><time>2026-03-28T09:30:19.997Z</time></trkpt><trkpt lat="45.74130545548743" lon="9.458591369416169"><ele>217.0</ele><time>2026-03-28T09:30:20.997Z</time></trkpt><trkpt lat="45.74131429901071" lon="9.458774345325752"><ele>218.0</ele><time>2026-03-28T09:30:21.997Z</time></trkpt><trkpt lat="45.741315192144945" lon="9.458943568985521"><ele>219.0</ele><time>2026-03-28T09:30:22.997Z</time></trkpt><trkpt lat="45.741292079629304" lon="9.459128789677969"><ele>219.75</ele><time>2026-03-28T09:30:23.997Z</time></trkpt><trkpt lat="45.74128776513271" lon="9.459304133462947"><ele>220.5</ele><time>2026-03-28T09:30:24.997Z</time></trkpt><trkpt lat="45.74129946885331" lon="9.45950036302686"><ele>221.25</ele><time>2026-03-28T09:30:25.997Z</time></trkpt><trkpt lat="45.7413075536305" lon="9.459635916089088"><ele>222.0</ele><time>2026-03-28T09:30:26.997Z</time></trkpt><trkpt lat="45.741316203247884" lon="9.459780939443396"><ele>222.5</ele><time>2026-03-28T09:30:27.997Z</time></trkpt><trkpt lat="45.74132527230841" lon="9.45993299538869"><ele>223.0</ele><time>2026-03-28T09:30:28.997Z</time></trkpt><trkpt lat="45.74133533882659" lon="9.460101775000332"><ele>223.5</ele><time>2026-03-28T09:30:29.997Z</time></trkpt><trkpt lat="45.741346451184334" lon="9.460288089548726"><ele>224.0</ele><time>2026-03-28T09:30:30.997Z</time></trkpt><trkpt lat="45.74135440740264" lon="9.460461066879018"><ele>224.66666666666669</ele><time>2026-03-28T09:30:31.997Z</time></trkpt><trkpt lat="45.74135753694423" lon="9.460617126933505"><ele>225.33333333333334</ele><time>2026-03-28T09:30:32.997Z</time></trkpt><trkpt lat="45.741346036333134" lon="9.460730096627206"><ele>226.0</ele><time>2026-03-28T09:30:33.997Z</time></trkpt><trkpt lat="45.74135475222823" lon="9.460831840937448"><ele>226.66666666666669</ele><time>2026-03-28T09:30:34.997Z</time></trkpt><trkpt lat="45.741346209709505" lon="9.460952532385923"><ele>227.33333333333334</ele><time>2026-03-28T09:30:35.997Z</time></trkpt><trkpt lat="45.741352571936346" lon="9.4610982310392"><ele>228.0</ele><time>2026-03-28T09:30:36.997Z</time></trkpt><trkpt lat="45.74132166703472" lon="9.461281087862394"><ele>230.33333333333331</ele><time>2026-03-28T09:30:37.997Z</time></trkpt><trkpt lat="45.74126239124362" lon="9.461506513503943"><ele>232.66666666666666</ele><time>2026-03-28T09:30:38.997Z</time></trkpt><trkpt lat="45.74119637302896" lon="9.461749103678374"><ele>235.0</ele><time>2026-03-28T09:30:39.997Z</time></trkpt><trkpt lat="45.74112865523389" lon="9.461999396652926"><ele>233.66666666666666</ele><time>2026-03-28T09:30:40.997Z</time></trkpt><trkpt lat="45.74106522240508" lon="9.462246185616554"><ele>232.33333333333331</ele><time>2026-03-28T09:30:41.997Z</time></trkpt><trkpt lat="45.74100270173978" lon="9.462485261440978"><ele>231.0</ele><time>2026-03-28T09:30:42.997Z</time></trkpt><trkpt lat="45.74095305033363" lon="9.462712130204807"><ele>232.0</ele><time>2026-03-28T09:30:43.997Z</time></trkpt><trkpt lat="45.74092528323632" lon="9.46295097873265"><ele>233.0</ele><time>2026-03-28T09:30:44.997Z</time></trkpt><trkpt lat="45.740926362113015" lon="9.463203673992455"><ele>234.0</ele><time>2026-03-28T09:30:45.997Z</time></trkpt><trkpt lat="45.74096159534239" lon="9.463481018530207"><ele>234.0</ele><time>2026-03-28T09:30:46.997Z</time></trkpt><trkpt lat="45.74101121390115" lon="9.463721191022975"><ele>234.0</ele><time>2026-03-28T09:30:47.997Z</time></trkpt><trkpt lat="45.741056580369026" lon="9.463937071443988"><ele>234.0</ele><time>2026-03-28T09:30:48.997Z</time></trkpt><trkpt lat="45.74109289203416" lon="9.464136857180884"><ele>237.5</ele><time>2026-03-28T09:30:49.997Z</time></trkpt><trkpt lat="45.741111097176656" lon="9.46431630269428"><ele>241.0</ele><time>2026-03-28T09:30:50.997Z</time></trkpt><trkpt lat="45.74109767010991" lon="9.46448089677427"><ele>244.5</ele><time>2026-03-28T09:30:51.997Z</time></trkpt><trkpt lat="45.74104041374951" lon="9.46463964661341"><ele>248.0</ele><time>2026-03-28T09:30:52.997Z</time></trkpt><trkpt lat="45.74093285813613" lon="9.464791170979213"><ele>248.0</ele><time>2026-03-28T09:30:53.997Z</time></trkpt><trkpt lat="45.74079367874524" lon="9.46491363020537"><ele>248.0</ele><time>2026-03-28T09:30:54.997Z</time></trkpt><trkpt lat="45.740664587218404" lon="9.465006126043548"><ele>248.0</ele><time>2026-03-28T09:30:55.997Z</time></trkpt><trkpt lat="45.74055507833217" lon="9.46509749879172"><ele>248.0</ele><time>2026-03-28T09:30:56.997Z</time></trkpt><trkpt lat="45.74045877856664" lon="9.465201270388722"><ele>248.0</ele><time>2026-03-28T09:30:57.997Z</time></trkpt><trkpt lat="45.74037314038566" lon="9.465301074569053"><ele>248.0</ele><time>2026-03-28T09:30:58.997Z</time></trkpt><trkpt lat="45.74030923768476" lon="9.465400677839089"><ele>248.0</ele><time>2026-03-28T09:30:59.997Z</time></trkpt><trkpt lat="45.74026774209856" lon="9.465507496524955"><ele>248.0</ele><time>2026-03-28T09:31:00.997Z</time></trkpt><trkpt lat="45.740242723839145" lon="9.465623980385912"><ele>248.0</ele><time>2026-03-28T09:31:01.997Z</time></trkpt><trkpt lat="45.74023818647836" lon="9.46576870535787"><ele>249.0</ele><time>2026-03-28T09:31:02.997Z</time></trkpt><trkpt lat="45.740249214301286" lon="9.465910770415537"><ele>250.0</ele><time>2026-03-28T09:31:03.997Z</time></trkpt><trkpt lat="45.74026115376355" lon="9.466059829018642"><ele>251.0</ele><time>2026-03-28T09:31:04.997Z</time></trkpt><trkpt lat="45.740277141115435" lon="9.46622512005831"><ele>252.0</ele><time>2026-03-28T09:31:05.997Z</time></trkpt><trkpt lat="45.74029714194703" lon="9.466403822181578"><ele>253.0</ele><time>2026-03-28T09:31:06.998Z</time></trkpt><trkpt lat="45.740316995852325" lon="9.46655927189995"><ele>253.0</ele><time>2026-03-28T09:31:07.998Z</time></trkpt><trkpt lat="45.74033338868454" lon="9.466698065963815"><ele>253.0</ele><time>2026-03-28T09:31:08.998Z</time></trkpt><trkpt lat="45.74034279336093" lon="9.466818575395482"><ele>253.0</ele><time>2026-03-28T09:31:09.998Z</time></trkpt><trkpt lat="45.740346212046404" lon="9.466928594278114"><ele>253.0</ele><time>2026-03-28T09:31:10.998Z</time></trkpt><trkpt lat="45.74037260500991" lon="9.467092861983366"><ele>253.0</ele><time>2026-03-28T09:31:11.998Z</time></trkpt><trkpt lat="45.74041433428957" lon="9.467315994506821"><ele>253.75</ele><time>2026-03-28T09:31:12.998Z</time></trkpt><trkpt lat="45.74044518594331" lon="9.467530618083194"><ele>254.5</ele><time>2026-03-28T09:31:13.998Z</time></trkpt><trkpt lat="45.74047257011577" lon="9.467740615336954"><ele>255.25</ele><time>2026-03-28T09:31:14.998Z</time></trkpt><trkpt lat="45.740502947560614" lon="9.467938900661533"><ele>256.0</ele><time>2026-03-28T09:31:15.998Z</time></trkpt><trkpt lat="45.74053168283036" lon="9.468120499775752"><ele>256.5</ele><time>2026-03-28T09:31:16.998Z</time></trkpt><trkpt lat="45.740563958803286" lon="9.468308351693896"><ele>257.0</ele><time>2026-03-28T09:31:17.998Z</time></trkpt><trkpt lat="45.740593269350505" lon="9.468506475793763"><ele>257.5</ele><time>2026-03-28T09:31:18.998Z</time></trkpt><trkpt lat="45.740620628887726" lon="9.468706042804932"><ele>258.0</ele><time>2026-03-28T09:31:19.998Z</time></trkpt><trkpt lat="45.740652029562845" lon="9.468899715700266"><ele>258.75</ele><time>2026-03-28T09:31:20.998Z</time></trkpt><trkpt lat="45.74066309270484" lon="9.469090507015837"><ele>259.5</ele><time>2026-03-28T09:31:21.998Z</time></trkpt><trkpt lat="45.74070173524434" lon="9.469262631397855"><ele>260.25</ele><time>2026-03-28T09:31:22.998Z</time></trkpt><trkpt lat="45.74069936040335" lon="9.46943334842886"><ele>261.0</ele><time>2026-03-28T09:31:23.998Z</time></trkpt><trkpt lat="45.74072194540163" lon="9.469605446237244"><ele>261.2</ele><time>2026-03-28T09:31:24.998Z</time></trkpt><trkpt lat="45.74074682616185" lon="9.469786009704555"><ele>261.40000000000003</ele><time>2026-03-28T09:31:25.998Z</time></trkpt><trkpt lat="45.740765993047454" lon="9.46995178253636"><ele>261.6</ele><time>2026-03-28T09:31:26.998Z</time></trkpt><trkpt lat="45.740778630823826" lon="9.470093451425317"><ele>261.8</ele><time>2026-03-28T09:31:27.998Z</time></trkpt><trkpt lat="45.74078228668259" lon="9.470213015591675"><ele>262.0</ele><time>2026-03-28T09:31:28.998Z</time></trkpt><trkpt lat="45.740781775511486" lon="9.470303608800602"><ele>262.0</ele><time>2026-03-28T09:31:29.998Z</time></trkpt><trkpt lat="45.74079202915458" lon="9.470415133281048"><ele>262.0</ele><time>2026-03-28T09:31:31.998Z</time></trkpt><trkpt lat="45.74079225235395" lon="9.470541244108553"><ele>262.0</ele><time>2026-03-28T09:31:33.998Z</time></trkpt><trkpt lat="45.74076935231118" lon="9.470625835871765"><ele>262.0</ele><time>2026-03-28T09:31:36.998Z</time></trkpt><trkpt lat="45.74071820528743" lon="9.470721150865444"><ele>262.0</ele><time>2026-03-28T09:31:42.998Z</time></trkpt><trkpt lat="45.74068742068246" lon="9.470805597227583"><ele>262.0</ele><time>2026-03-28T09:31:44.998Z</time></trkpt><trkpt lat="45.74067268366802" lon="9.47093207823037"><ele>262.16666666666663</ele><time>2026-03-28T09:31:46.997Z</time></trkpt><trkpt lat="45.740665676845346" lon="9.471031099764705"><ele>262.3333333333333</ele><time>2026-03-28T09:31:49.998Z</time></trkpt><trkpt lat="45.74069994232967" lon="9.471140524776022"><ele>262.5</ele><time>2026-03-28T09:31:55.997Z</time></trkpt><trkpt lat="45.74067983446537" lon="9.471310273654469"><ele>262.6666666666667</ele><time>2026-03-28T09:31:57.997Z</time></trkpt><trkpt lat="45.74067431547119" lon="9.471418335098683"><ele>262.83333333333337</ele><time>2026-03-28T09:31:58.997Z</time></trkpt><trkpt lat="45.74065561764334" lon="9.471531234022274"><ele>263.0</ele><time>2026-03-28T09:31:59.997Z</time></trkpt><trkpt lat="45.74063416746448" lon="9.471651303944029"><ele>263.0</ele><time>2026-03-28T09:32:00.997Z</time></trkpt><trkpt lat="45.740616266646434" lon="9.471781309135414"><ele>263.0</ele><time>2026-03-28T09:32:01.997Z</time></trkpt><trkpt lat="45.7406021237492" lon="9.47188791736899"><ele>263.0</ele><time>2026-03-28T09:32:02.997Z</time></trkpt><trkpt lat="45.74058039230901" lon="9.472034450081738"><ele>263.0</ele><time>2026-03-28T09:32:04.997Z</time></trkpt><trkpt lat="45.74056802921922" lon="9.472221962544282"><ele>263.0</ele><time>2026-03-28T09:32:06.997Z</time></trkpt><trkpt lat="45.74057473370064" lon="9.47238777148667"><ele>263.4</ele><time>2026-03-28T09:32:08.997Z</time></trkpt><trkpt lat="45.74059981961237" lon="9.472498334369954"><ele>263.8</ele><time>2026-03-28T09:32:10.997Z</time></trkpt><trkpt lat="45.74063647542248" lon="9.472628087266946"><ele>264.2</ele><time>2026-03-28T09:32:13.997Z</time></trkpt><trkpt lat="45.740687782513916" lon="9.472751754871133"><ele>264.6</ele><time>2026-03-28T09:32:15.997Z</time></trkpt><trkpt lat="45.74073586818912" lon="9.4728834878967"><ele>265.0</ele><time>2026-03-28T09:32:17.997Z</time></trkpt><trkpt lat="45.74075514838711" lon="9.473073356092131"><ele>265.2</ele><time>2026-03-28T09:32:19.997Z</time></trkpt><trkpt lat="45.740732805693945" lon="9.473164273210157"><ele>265.4</ele><time>2026-03-28T09:32:20.997Z</time></trkpt><trkpt lat="45.74069997058505" lon="9.473242307100769"><ele>265.6</ele><time>2026-03-28T09:32:21.997Z</time></trkpt><trkpt lat="45.74060740261694" lon="9.473366236785191"><ele>265.8</ele><time>2026-03-28T09:32:23.997Z</time></trkpt><trkpt lat="45.740541902433975" lon="9.473467949776188"><ele>266.0</ele><time>2026-03-28T09:32:25.997Z</time></trkpt><trkpt lat="45.74048288042812" lon="9.473591374329951"><ele>266.0</ele><time>2026-03-28T09:32:27.997Z</time></trkpt><trkpt lat="45.74044479430216" lon="9.473671870226868"><ele>266.0</ele><time>2026-03-28T09:32:28.998Z</time></trkpt><trkpt lat="45.74041305487111" lon="9.473750259806515"><ele>266.0</ele><time>2026-03-28T09:32:29.998Z</time></trkpt><trkpt lat="45.74034259911085" lon="9.47389205189814"><ele>266.0</ele><time>2026-03-28T09:32:31.998Z</time></trkpt><trkpt lat="45.740300074063164" lon="9.473973249270049"><ele>266.0</ele><time>2026-03-28T09:32:32.998Z</time></trkpt><trkpt lat="45.740282254092904" lon="9.474071368435052"><ele>266.0</ele><time>2026-03-28T09:32:33.998Z</time></trkpt><trkpt lat="45.74026667266859" lon="9.474163548610733"><ele>266.0</ele><time>2026-03-28T09:32:34.998Z</time></trkpt><trkpt lat="45.740257001866574" lon="9.47426750317291"><ele>266.0</ele><time>2026-03-28T09:32:35.998Z</time></trkpt><trkpt lat="45.74024874230166" lon="9.47437726306763"><ele>266.0</ele><time>2026-03-28T09:32:36.998Z</time></trkpt><trkpt lat="45.74024158572798" lon="9.474503035349361"><ele>266.0</ele><time>2026-03-28T09:32:37.998Z</time></trkpt><trkpt lat="45.740223776444935" lon="9.474641883261604"><ele>266.0</ele><time>2026-03-28T09:32:38.998Z</time></trkpt><trkpt lat="45.740196589115" lon="9.474785344262951"><ele>266.0</ele><time>2026-03-28T09:32:39.998Z</time></trkpt><trkpt lat="45.74018067402769" lon="9.47491886937863"><ele>266.0</ele><time>2026-03-28T09:32:40.998Z</time></trkpt><trkpt lat="45.74016468130433" lon="9.475041936450832"><ele>266.0</ele><time>2026-03-28T09:32:41.998Z</time></trkpt><trkpt lat="45.74014442033139" lon="9.475149722247508"><ele>266.0</ele><time>2026-03-28T09:32:42.998Z</time></trkpt><trkpt lat="45.740123209770374" lon="9.475235278146563"><ele>266.0</ele><time>2026-03-28T09:32:43.998Z</time></trkpt><trkpt lat="45.74009296976893" lon="9.475385501822018"><ele>266.0</ele><time>2026-03-28T09:32:45.998Z</time></trkpt><trkpt lat="45.74007855381934" lon="9.47548068924127"><ele>266.0</ele><time>2026-03-28T09:32:46.998Z</time></trkpt><trkpt lat="45.740063100715425" lon="9.475598333657189"><ele>266.0</ele><time>2026-03-28T09:32:47.998Z</time></trkpt><trkpt lat="45.7400332412191" lon="9.475748176274765"><ele>266.0</ele><time>2026-03-28T09:32:48.998Z</time></trkpt><trkpt lat="45.74001703648621" lon="9.475884641350435"><ele>266.0</ele><time>2026-03-28T09:32:49.998Z</time></trkpt><trkpt lat="45.739994890437714" lon="9.476039890323388"><ele>266.0</ele><time>2026-03-28T09:32:50.998Z</time></trkpt><trkpt lat="45.739971094360456" lon="9.476208937476692"><ele>266.0</ele><time>2026-03-28T09:32:51.998Z</time></trkpt><trkpt lat="45.73995452521512" lon="9.476359565623902"><ele>266.0</ele><time>2026-03-28T09:32:52.998Z</time></trkpt><trkpt lat="45.73993727257847" lon="9.476499866630967"><ele>266.0</ele><time>2026-03-28T09:32:53.998Z</time></trkpt><trkpt lat="45.73992272036789" lon="9.476631372176863"><ele>266.0</ele><time>2026-03-28T09:32:54.998Z</time></trkpt><trkpt lat="45.73989778323645" lon="9.476747117005385"><ele>266.0</ele><time>2026-03-28T09:32:55.998Z</time></trkpt><trkpt lat="45.73987793304676" lon="9.476871528778133"><ele>266.0</ele><time>2026-03-28T09:32:56.998Z</time></trkpt><trkpt lat="45.73985872548194" lon="9.476993540343546"><ele>266.33333333333337</ele><time>2026-03-28T09:32:57.998Z</time></trkpt><trkpt lat="45.73984538629911" lon="9.477114206204174"><ele>266.6666666666667</ele><time>2026-03-28T09:32:58.998Z</time></trkpt><trkpt lat="45.73982722617629" lon="9.477230006925085"><ele>267.0</ele><time>2026-03-28T09:32:59.998Z</time></trkpt><trkpt lat="45.73980897943354" lon="9.477353276627081"><ele>267.3333333333333</ele><time>2026-03-28T09:33:00.998Z</time></trkpt><trkpt lat="45.739778164097935" lon="9.47748049403503"><ele>267.66666666666663</ele><time>2026-03-28T09:33:01.998Z</time></trkpt><trkpt lat="45.739758793746184" lon="9.47761413837155"><ele>268.0</ele><time>2026-03-28T09:33:02.998Z</time></trkpt><trkpt lat="45.739742388177284" lon="9.477752623656633"><ele>268.0</ele><time>2026-03-28T09:33:03.998Z</time></trkpt><trkpt lat="45.739724757752846" lon="9.477889100751186"><ele>268.0</ele><time>2026-03-28T09:33:04.998Z</time></trkpt><trkpt lat="45.73970588332336" lon="9.478015629579527"><ele>268.0</ele><time>2026-03-28T09:33:05.998Z</time></trkpt><trkpt lat="45.73968455563548" lon="9.478140653538022"><ele>268.0</ele><time>2026-03-28T09:33:06.998Z</time></trkpt><trkpt lat="45.73967060911493" lon="9.478261313679598"><ele>268.0</ele><time>2026-03-28T09:33:07.998Z</time></trkpt><trkpt lat="45.7396537462919" lon="9.478358229459289"><ele>268.0</ele><time>2026-03-28T09:33:08.998Z</time></trkpt><trkpt lat="45.73964269606511" lon="9.478449986061037"><ele>268.0</ele><time>2026-03-28T09:33:09.998Z</time></trkpt><trkpt lat="45.73962152587296" lon="9.478550901887843"><ele>268.0</ele><time>2026-03-28T09:33:10.998Z</time></trkpt><trkpt lat="45.739597310151616" lon="9.478668482943432"><ele>268.0</ele><time>2026-03-28T09:33:11.998Z</time></trkpt><trkpt lat="45.739586452437344" lon="9.478768105711438"><ele>268.0</ele><time>2026-03-28T09:33:12.998Z</time></trkpt><trkpt lat="45.739574451743614" lon="9.478862576979894"><ele>268.0</ele><time>2026-03-28T09:33:13.998Z</time></trkpt><trkpt lat="45.7395448416353" lon="9.479036587847025"><ele>268.0</ele><time>2026-03-28T09:33:15.998Z</time></trkpt><trkpt lat="45.73953098712299" lon="9.479130369551763"><ele>268.0</ele><time>2026-03-28T09:33:16.998Z</time></trkpt><trkpt lat="45.73950347955315" lon="9.479286489878879"><ele>268.0</ele><time>2026-03-28T09:33:18.998Z</time></trkpt><trkpt lat="45.73947781513902" lon="9.47942785874819"><ele>268.0</ele><time>2026-03-28T09:33:20.998Z</time></trkpt><trkpt lat="45.73944798645713" lon="9.479566765986029"><ele>268.0</ele><time>2026-03-28T09:33:22.998Z</time></trkpt><trkpt lat="45.739429910510964" lon="9.47973247200648"><ele>268.0</ele><time>2026-03-28T09:33:24.998Z</time></trkpt><trkpt lat="45.73941082216858" lon="9.479844902859536"><ele>268.16666666666663</ele><time>2026-03-28T09:33:25.998Z</time></trkpt><trkpt lat="45.73938577147958" lon="9.479967699020722"><ele>268.3333333333333</ele><time>2026-03-28T09:33:26.998Z</time></trkpt><trkpt lat="45.73934226495395" lon="9.480082488073647"><ele>268.5</ele><time>2026-03-28T09:33:27.998Z</time></trkpt><trkpt lat="45.73929157878411" lon="9.480186205081074"><ele>268.6666666666667</ele><time>2026-03-28T09:33:28.998Z</time></trkpt><trkpt lat="45.739231671675576" lon="9.48027217193444"><ele>268.83333333333337</ele><time>2026-03-28T09:33:29.998Z</time></trkpt><trkpt lat="45.73917240497755" lon="9.480345941438843"><ele>269.0</ele><time>2026-03-28T09:33:30.998Z</time></trkpt><trkpt lat="45.73911610783344" lon="9.480425592206625"><ele>267.59999999999997</ele><time>2026-03-28T09:33:31.998Z</time></trkpt><trkpt lat="45.73905457641532" lon="9.480525701498628"><ele>266.2</ele><time>2026-03-28T09:33:32.998Z</time></trkpt><trkpt lat="45.73898801548245" lon="9.480633299484333"><ele>264.79999999999995</ele><time>2026-03-28T09:33:33.998Z</time></trkpt><trkpt lat="45.73891291516154" lon="9.480741848848046"><ele>263.4</ele><time>2026-03-28T09:33:34.998Z</time></trkpt><trkpt lat="45.738835612590016" lon="9.480845194027417"><ele>262.0</ele><time>2026-03-28T09:33:35.998Z</time></trkpt><trkpt lat="45.73878522045552" lon="9.480953716095925"><ele>262.0</ele><time>2026-03-28T09:33:36.998Z</time></trkpt><trkpt lat="45.73877221201125" lon="9.481059450141608"><ele>262.0</ele><time>2026-03-28T09:33:37.998Z</time></trkpt><trkpt lat="45.738788300326746" lon="9.48115118849869"><ele>262.0</ele><time>2026-03-28T09:33:38.998Z</time></trkpt><trkpt lat="45.738837969125285" lon="9.481218229415274"><ele>262.0</ele><time>2026-03-28T09:33:39.998Z</time></trkpt><trkpt lat="45.73891034900852" lon="9.481306294052928"><ele>262.0</ele><time>2026-03-28T09:33:40.998Z</time></trkpt><trkpt lat="45.73902653483166" lon="9.481303805874008"><ele>262.0</ele><time>2026-03-28T09:33:41.998Z</time></trkpt><trkpt lat="45.73912916927874" lon="9.481226198395225"><ele>262.0</ele><time>2026-03-28T09:33:42.998Z</time></trkpt><trkpt lat="45.73920315270152" lon="9.481139380644281"><ele>262.0</ele><time>2026-03-28T09:33:43.998Z</time></trkpt><trkpt lat="45.73927393736937" lon="9.481057757638721"><ele>262.0</ele><time>2026-03-28T09:33:44.998Z</time></trkpt><trkpt lat="45.73934985139245" lon="9.480971214754042"><ele>262.0</ele><time>2026-03-28T09:33:45.998Z</time></trkpt><trkpt lat="45.739425863168485" lon="9.480889844391479"><ele>262.0</ele><time>2026-03-28T09:33:46.998Z</time></trkpt><trkpt lat="45.73950418485936" lon="9.480819045978315"><ele>261.8</ele><time>2026-03-28T09:33:47.998Z</time></trkpt><trkpt lat="45.73957007638795" lon="9.48077095178279"><ele>261.6</ele><time>2026-03-28T09:33:48.998Z</time></trkpt><trkpt lat="45.73965191475119" lon="9.480733172760228"><ele>261.40000000000003</ele><time>2026-03-28T09:33:50.998Z</time></trkpt><trkpt lat="45.73973141103485" lon="9.480734298913223"><ele>261.2</ele><time>2026-03-28T09:33:52.997Z</time></trkpt><trkpt lat="45.73984720749873" lon="9.480830319748174"><ele>261.0</ele><time>2026-03-28T09:33:54.997Z</time></trkpt><trkpt lat="45.7398910903157" lon="9.480945282060457"><ele>261.0</ele><time>2026-03-28T09:33:55.996Z</time></trkpt><trkpt lat="45.73989443335379" lon="9.48106490199318"><ele>261.0</ele><time>2026-03-28T09:33:56.996Z</time></trkpt><trkpt lat="45.73986901339207" lon="9.481179033611282"><ele>261.0</ele><time>2026-03-28T09:33:57.997Z</time></trkpt><trkpt lat="45.739831066966445" lon="9.481293999062713"><ele>261.0</ele><time>2026-03-28T09:33:58.996Z</time></trkpt><trkpt lat="45.73979741548499" lon="9.481401170790074"><ele>261.0</ele><time>2026-03-28T09:33:59.997Z</time></trkpt><trkpt lat="45.739763490861996" lon="9.481510285129946"><ele>261.0</ele><time>2026-03-28T09:34:00.997Z</time></trkpt><trkpt lat="45.73972830253973" lon="9.48163004162242"><ele>261.0</ele><time>2026-03-28T09:34:01.997Z</time></trkpt><trkpt lat="45.7396914603609" lon="9.48174935544775"><ele>261.0</ele><time>2026-03-28T09:34:02.997Z</time></trkpt><trkpt lat="45.73965366051865" lon="9.481860551369987"><ele>261.0</ele><time>2026-03-28T09:34:03.997Z</time></trkpt><trkpt lat="45.73960294871365" lon="9.481974066646126"><ele>261.0</ele><time>2026-03-28T09:34:04.997Z</time></trkpt><trkpt lat="45.73954303414445" lon="9.48208643401287"><ele>261.0</ele><time>2026-03-28T09:34:05.997Z</time></trkpt><trkpt lat="45.73948070647212" lon="9.482177013062358"><ele>261.0</ele><time>2026-03-28T09:34:06.997Z</time></trkpt><trkpt lat="45.73940645362867" lon="9.48225303792998"><ele>261.0</ele><time>2026-03-28T09:34:07.997Z</time></trkpt><trkpt lat="45.739334979176974" lon="9.4823292233661"><ele>261.0</ele><time>2026-03-28T09:34:08.997Z</time></trkpt><trkpt lat="45.73927451603964" lon="9.48239403617045"><ele>261.0</ele><time>2026-03-28T09:34:09.997Z</time></trkpt><trkpt lat="45.73921582399916" lon="9.482461490888394"><ele>261.0</ele><time>2026-03-28T09:34:10.997Z</time></trkpt><trkpt lat="45.73916356910767" lon="9.482540541215648"><ele>261.0</ele><time>2026-03-28T09:34:11.997Z</time></trkpt><trkpt lat="45.73911079582496" lon="9.482626457117934"><ele>261.2</ele><time>2026-03-28T09:34:12.997Z</time></trkpt><trkpt lat="45.7390627434226" lon="9.482715968520226"><ele>261.40000000000003</ele><time>2026-03-28T09:34:13.997Z</time></trkpt><trkpt lat="45.739018200560764" lon="9.48281717010547"><ele>261.6</ele><time>2026-03-28T09:34:14.997Z</time></trkpt><trkpt lat="45.738984065715776" lon="9.482929832779732"><ele>261.8</ele><time>2026-03-28T09:34:15.997Z</time></trkpt><trkpt lat="45.7389464893294" lon="9.483060152732772"><ele>262.0</ele><time>2026-03-28T09:34:16.997Z</time></trkpt><trkpt lat="45.738906767345306" lon="9.483203053286957"><ele>262.0</ele><time>2026-03-28T09:34:17.997Z</time></trkpt><trkpt lat="45.73887855139085" lon="9.483337818032233"><ele>262.0</ele><time>2026-03-28T09:34:18.997Z</time></trkpt><trkpt lat="45.73885578549875" lon="9.483470245551487"><ele>262.0</ele><time>2026-03-28T09:34:19.997Z</time></trkpt><trkpt lat="45.73879206614188" lon="9.483592894187499"><ele>262.0</ele><time>2026-03-28T09:34:20.997Z</time></trkpt><trkpt lat="45.73876957964084" lon="9.483734805000324"><ele>262.0</ele><time>2026-03-28T09:34:21.997Z</time></trkpt><trkpt lat="45.73875013282515" lon="9.483878974942938"><ele>263.4</ele><time>2026-03-28T09:34:22.997Z</time></trkpt><trkpt lat="45.73873607761093" lon="9.48402648123551"><ele>264.79999999999995</ele><time>2026-03-28T09:34:23.997Z</time></trkpt><trkpt lat="45.73872279014045" lon="9.484178170215989"><ele>266.2</ele><time>2026-03-28T09:34:24.997Z</time></trkpt><trkpt lat="45.738717740489776" lon="9.484330686240865"><ele>267.59999999999997</ele><time>2026-03-28T09:34:25.997Z</time></trkpt><trkpt lat="45.73870043991876" lon="9.48448327969086"><ele>269.0</ele><time>2026-03-28T09:34:26.997Z</time></trkpt><trkpt lat="45.738678430682114" lon="9.484637973618375"><ele>269.25</ele><time>2026-03-28T09:34:27.997Z</time></trkpt><trkpt lat="45.73864475601399" lon="9.484786303299924"><ele>269.5</ele><time>2026-03-28T09:34:28.997Z</time></trkpt><trkpt lat="45.73860408775426" lon="9.484928432224294"><ele>269.75</ele><time>2026-03-28T09:34:29.997Z</time></trkpt><trkpt lat="45.738559874803144" lon="9.485088848325908"><ele>270.0</ele><time>2026-03-28T09:34:30.997Z</time></trkpt><trkpt lat="45.73852156339321" lon="9.485246566230579"><ele>267.8</ele><time>2026-03-28T09:34:31.997Z</time></trkpt><trkpt lat="45.73849003662264" lon="9.485403504500821"><ele>265.6</ele><time>2026-03-28T09:34:32.997Z</time></trkpt><trkpt lat="45.73846580902791" lon="9.48554763408919"><ele>263.4</ele><time>2026-03-28T09:34:33.997Z</time></trkpt><trkpt lat="45.73844642646364" lon="9.485697115865795"><ele>261.2</ele><time>2026-03-28T09:34:34.997Z</time></trkpt><trkpt lat="45.738425801798954" lon="9.485837740010707"><ele>259.0</ele><time>2026-03-28T09:34:35.997Z</time></trkpt><trkpt lat="45.73840692666408" lon="9.48597488385661"><ele>259.0</ele><time>2026-03-28T09:34:36.997Z</time></trkpt><trkpt lat="45.73838996346925" lon="9.486105963161108"><ele>259.0</ele><time>2026-03-28T09:34:37.997Z</time></trkpt><trkpt lat="45.73836069821077" lon="9.486228826167833"><ele>259.0</ele><time>2026-03-28T09:34:38.997Z</time></trkpt><trkpt lat="45.73832001388545" lon="9.48633149494847"><ele>259.0</ele><time>2026-03-28T09:34:39.997Z</time></trkpt><trkpt lat="45.7382709964549" lon="9.4864120365043"><ele>259.0</ele><time>2026-03-28T09:34:40.997Z</time></trkpt><trkpt lat="45.738212803576516" lon="9.486480364139627"><ele>259.0</ele><time>2026-03-28T09:34:41.997Z</time></trkpt><trkpt lat="45.73815193755098" lon="9.486522035805123"><ele>259.5</ele><time>2026-03-28T09:34:42.997Z</time></trkpt><trkpt lat="45.738080901621586" lon="9.486547009742663"><ele>260.0</ele><time>2026-03-28T09:34:43.997Z</time></trkpt><trkpt lat="45.73800030040636" lon="9.48655398419953"><ele>260.5</ele><time>2026-03-28T09:34:44.997Z</time></trkpt><trkpt lat="45.73792445071751" lon="9.486541408849051"><ele>261.0</ele><time>2026-03-28T09:34:45.997Z</time></trkpt><trkpt lat="45.7378644245231" lon="9.486507099673943"><ele>261.5</ele><time>2026-03-28T09:34:46.997Z</time></trkpt><trkpt lat="45.7378151585902" lon="9.486425178758132"><ele>262.0</ele><time>2026-03-28T09:34:47.997Z</time></trkpt><trkpt lat="45.73773951494644" lon="9.486329403973917"><ele>262.16666666666663</ele><time>2026-03-28T09:34:48.997Z</time></trkpt><trkpt lat="45.73768336552293" lon="9.486219679104495"><ele>262.3333333333333</ele><time>2026-03-28T09:34:49.997Z</time></trkpt><trkpt lat="45.737634440191165" lon="9.486134213740613"><ele>262.5</ele><time>2026-03-28T09:34:50.997Z</time></trkpt><trkpt lat="45.73758141053287" lon="9.486043159787474"><ele>262.6666666666667</ele><time>2026-03-28T09:34:51.997Z</time></trkpt><trkpt lat="45.737525537107025" lon="9.485968231232706"><ele>262.83333333333337</ele><time>2026-03-28T09:34:52.997Z</time></trkpt><trkpt lat="45.73747811740815" lon="9.485904739989286"><ele>263.0</ele><time>2026-03-28T09:34:53.997Z</time></trkpt><trkpt lat="45.7373756173349" lon="9.485786191686573"><ele>263.0</ele><time>2026-03-28T09:34:55.997Z</time></trkpt><trkpt lat="45.73730447442609" lon="9.485759002763801"><ele>263.0</ele><time>2026-03-28T09:34:56.997Z</time></trkpt><trkpt lat="45.73719247471466" lon="9.485727004583582"><ele>263.0</ele><time>2026-03-28T09:34:58.997Z</time></trkpt><trkpt lat="45.73712314516369" lon="9.48565418643207"><ele>263.0</ele><time>2026-03-28T09:34:59.997Z</time></trkpt><trkpt lat="45.73704139069484" lon="9.485563340796155"><ele>263.0</ele><time>2026-03-28T09:35:00.997Z</time></trkpt><trkpt lat="45.73696103287781" lon="9.485525595055378"><ele>263.0</ele><time>2026-03-28T09:35:01.997Z</time></trkpt><trkpt lat="45.73688891795012" lon="9.485560338231508"><ele>263.0</ele><time>2026-03-28T09:35:02.997Z</time></trkpt><trkpt lat="45.736817166382004" lon="9.485630031148235"><ele>263.0</ele><time>2026-03-28T09:35:03.997Z</time></trkpt><trkpt lat="45.736756549387195" lon="9.48569770298263"><ele>263.0</ele><time>2026-03-28T09:35:04.997Z</time></trkpt><trkpt lat="45.736687206398344" lon="9.485750611175387"><ele>263.0</ele><time>2026-03-28T09:35:05.997Z</time></trkpt><trkpt lat="45.73657958850975" lon="9.485807884242266"><ele>263.0</ele><time>2026-03-28T09:35:06.997Z</time></trkpt><trkpt lat="45.73642037092617" lon="9.485889744506393"><ele>264.0</ele><time>2026-03-28T09:35:07.997Z</time></trkpt><trkpt lat="45.736249111100136" lon="9.48597817305969"><ele>265.0</ele><time>2026-03-28T09:35:08.997Z</time></trkpt><trkpt lat="45.736097393704185" lon="9.486118454893832"><ele>266.0</ele><time>2026-03-28T09:35:09.997Z</time></trkpt><trkpt lat="45.73595165290275" lon="9.486256836736603"><ele>267.0</ele><time>2026-03-28T09:35:10.997Z</time></trkpt><trkpt lat="45.73579853362657" lon="9.486401744472237"><ele>268.0</ele><time>2026-03-28T09:35:11.997Z</time></trkpt><trkpt lat="45.735642797241695" lon="9.486572006342339"><ele>269.0</ele><time>2026-03-28T09:35:12.997Z</time></trkpt><trkpt lat="45.735479060122934" lon="9.486723443715778"><ele>269.0</ele><time>2026-03-28T09:35:13.997Z</time></trkpt><trkpt lat="45.73531697273684" lon="9.486875472703323"><ele>269.0</ele><time>2026-03-28T09:35:14.997Z</time></trkpt><trkpt lat="45.73515791222188" lon="9.487040099841686"><ele>269.0</ele><time>2026-03-28T09:35:15.997Z</time></trkpt><trkpt lat="45.735002694302416" lon="9.487222825064642"><ele>268.6666666666667</ele><time>2026-03-28T09:35:16.997Z</time></trkpt><trkpt lat="45.734855004139064" lon="9.4874232483583"><ele>268.3333333333333</ele><time>2026-03-28T09:35:17.997Z</time></trkpt><trkpt lat="45.73471705499914" lon="9.487653577378811"><ele>268.0</ele><time>2026-03-28T09:35:18.997Z</time></trkpt><trkpt lat="45.73458811808359" lon="9.48788911149811"><ele>267.3333333333333</ele><time>2026-03-28T09:35:19.997Z</time></trkpt><trkpt lat="45.7344667223179" lon="9.488134952003234"><ele>266.6666666666667</ele><time>2026-03-28T09:35:20.997Z</time></trkpt><trkpt lat="45.734364684649606" lon="9.488380403029126"><ele>266.0</ele><time>2026-03-28T09:35:21.998Z</time></trkpt><trkpt lat="45.734270999548684" lon="9.488644175428522"><ele>268.0</ele><time>2026-03-28T09:35:22.998Z</time></trkpt><trkpt lat="45.73417821739028" lon="9.48893646976416"><ele>270.0</ele><time>2026-03-28T09:35:23.998Z</time></trkpt><trkpt lat="45.73409707711138" lon="9.489266283005753"><ele>271.0</ele><time>2026-03-28T09:35:24.998Z</time></trkpt><trkpt lat="45.73400513793054" lon="9.489611195616824"><ele>272.0</ele><time>2026-03-28T09:35:25.998Z</time></trkpt><trkpt lat="45.733911856220246" lon="9.489932222741363"><ele>272.0</ele><time>2026-03-28T09:35:26.998Z</time></trkpt><trkpt lat="45.73382041857664" lon="9.490214617801113"><ele>272.0</ele><time>2026-03-28T09:35:27.998Z</time></trkpt><trkpt lat="45.73375028845981" lon="9.490485801286207"><ele>272.0</ele><time>2026-03-28T09:35:28.998Z</time></trkpt><trkpt lat="45.7336820816838" lon="9.490756619661882"><ele>273.0</ele><time>2026-03-28T09:35:29.998Z</time></trkpt><trkpt lat="45.733608265697974" lon="9.491038454282828"><ele>274.0</ele><time>2026-03-28T09:35:30.998Z</time></trkpt><trkpt lat="45.73352905128894" lon="9.491327192080652"><ele>275.0</ele><time>2026-03-28T09:35:31.998Z</time></trkpt><trkpt lat="45.73345054445003" lon="9.49160648761117"><ele>276.6666666666667</ele><time>2026-03-28T09:35:32.998Z</time></trkpt><trkpt lat="45.73337229498856" lon="9.491900100293403"><ele>278.3333333333333</ele><time>2026-03-28T09:35:33.998Z</time></trkpt><trkpt lat="45.73330197123164" lon="9.492175842931863"><ele>280.0</ele><time>2026-03-28T09:35:34.998Z</time></trkpt><trkpt lat="45.73323839745349" lon="9.492420242312"><ele>282.3333333333333</ele><time>2026-03-28T09:35:35.998Z</time></trkpt><trkpt lat="45.73315968953518" lon="9.492638148063078"><ele>284.6666666666667</ele><time>2026-03-28T09:35:36.998Z</time></trkpt><trkpt lat="45.73310256060498" lon="9.492843361186017"><ele>287.0</ele><time>2026-03-28T09:35:37.998Z</time></trkpt><trkpt lat="45.733053886149044" lon="9.493016636093373"><ele>286.6</ele><time>2026-03-28T09:35:38.998Z</time></trkpt><trkpt lat="45.73302659524424" lon="9.493183632066852"><ele>286.2</ele><time>2026-03-28T09:35:39.998Z</time></trkpt><trkpt lat="45.732960489716575" lon="9.493299026516382"><ele>285.8</ele><time>2026-03-28T09:35:40.998Z</time></trkpt><trkpt lat="45.73287409679876" lon="9.493370015823716"><ele>285.4</ele><time>2026-03-28T09:35:41.998Z</time></trkpt><trkpt lat="45.732780150181995" lon="9.49340292839825"><ele>285.0</ele><time>2026-03-28T09:35:42.998Z</time></trkpt><trkpt lat="45.7326998614178" lon="9.493469812646579"><ele>285.0</ele><time>2026-03-28T09:35:43.998Z</time></trkpt><trkpt lat="45.73267073072289" lon="9.493606231565593"><ele>285.0</ele><time>2026-03-28T09:35:44.998Z</time></trkpt><trkpt lat="45.73269102413561" lon="9.493769758279631"><ele>285.0</ele><time>2026-03-28T09:35:45.998Z</time></trkpt><trkpt lat="45.732735580264716" lon="9.493945281146578"><ele>285.0</ele><time>2026-03-28T09:35:46.998Z</time></trkpt><trkpt lat="45.73275353275009" lon="9.49413813947878"><ele>286.0</ele><time>2026-03-28T09:35:47.998Z</time></trkpt><trkpt lat="45.732719546108875" lon="9.494358867639896"><ele>287.0</ele><time>2026-03-28T09:35:48.998Z</time></trkpt><trkpt lat="45.73264895708205" lon="9.494609970478663"><ele>288.0</ele><time>2026-03-28T09:35:49.998Z</time></trkpt><trkpt lat="45.73255379703615" lon="9.494891697993431"><ele>288.0</ele><time>2026-03-28T09:35:50.998Z</time></trkpt><trkpt lat="45.732477444395386" lon="9.495161432165771"><ele>288.0</ele><time>2026-03-28T09:35:51.998Z</time></trkpt><trkpt lat="45.73240868406847" lon="9.495414366109447"><ele>288.0</ele><time>2026-03-28T09:35:52.998Z</time></trkpt><trkpt lat="45.7323509196318" lon="9.495681506723265"><ele>288.0</ele><time>2026-03-28T09:35:53.998Z</time></trkpt><trkpt lat="45.732292467438604" lon="9.495967993704342"><ele>288.0</ele><time>2026-03-28T09:35:54.998Z</time></trkpt><trkpt lat="45.732250748406756" lon="9.496276391039771"><ele>288.0</ele><time>2026-03-28T09:35:55.998Z</time></trkpt><trkpt lat="45.73220925969681" lon="9.496552372351305"><ele>290.3333333333333</ele><time>2026-03-28T09:35:56.998Z</time></trkpt><trkpt lat="45.73216956289799" lon="9.49682946059484"><ele>292.66666666666663</ele><time>2026-03-28T09:35:57.997Z</time></trkpt><trkpt lat="45.7321294883123" lon="9.497096487545466"><ele>295.0</ele><time>2026-03-28T09:35:58.997Z</time></trkpt><trkpt lat="45.73208619443264" lon="9.497362015805034"><ele>296.66666666666663</ele><time>2026-03-28T09:35:59.997Z</time></trkpt><trkpt lat="45.73204153688891" lon="9.497622649736186"><ele>298.3333333333333</ele><time>2026-03-28T09:36:00.997Z</time></trkpt><trkpt lat="45.731998542832336" lon="9.497890652572124"><ele>300.0</ele><time>2026-03-28T09:36:01.997Z</time></trkpt><trkpt lat="45.73195585838823" lon="9.498142735275819"><ele>301.0</ele><time>2026-03-28T09:36:02.997Z</time></trkpt><trkpt lat="45.73191296233865" lon="9.498381285355329"><ele>302.0</ele><time>2026-03-28T09:36:03.997Z</time></trkpt><trkpt lat="45.73187376090263" lon="9.498611665969547"><ele>303.0</ele><time>2026-03-28T09:36:04.996Z</time></trkpt><trkpt lat="45.73183995135253" lon="9.49884294250206"><ele>300.3333333333333</ele><time>2026-03-28T09:36:05.996Z</time></trkpt><trkpt lat="45.731810731635925" lon="9.499081651752265"><ele>297.66666666666663</ele><time>2026-03-28T09:36:06.997Z</time></trkpt><trkpt lat="45.73177619956494" lon="9.499315682475233"><ele>295.0</ele><time>2026-03-28T09:36:07.997Z</time></trkpt><trkpt lat="45.731740659703135" lon="9.499550046336932"><ele>296.66666666666663</ele><time>2026-03-28T09:36:08.997Z</time></trkpt><trkpt lat="45.73170461985967" lon="9.499777740941024"><ele>298.3333333333333</ele><time>2026-03-28T09:36:09.996Z</time></trkpt><trkpt lat="45.73166855660356" lon="9.499997524766803"><ele>300.0</ele><time>2026-03-28T09:36:10.996Z</time></trkpt><trkpt lat="45.731635781860206" lon="9.500206696323678"><ele>301.0</ele><time>2026-03-28T09:36:11.996Z</time></trkpt><trkpt lat="45.731605611034226" lon="9.500431281531446"><ele>302.0</ele><time>2026-03-28T09:36:12.996Z</time></trkpt><trkpt lat="45.73155651239717" lon="9.500644484489406"><ele>303.0</ele><time>2026-03-28T09:36:13.996Z</time></trkpt><trkpt lat="45.73153431355443" lon="9.500871523419248"><ele>303.0</ele><time>2026-03-28T09:36:14.996Z</time></trkpt><trkpt lat="45.731473841045016" lon="9.501079028348375"><ele>303.0</ele><time>2026-03-28T09:36:15.996Z</time></trkpt><trkpt lat="45.73143548567631" lon="9.501335735926206"><ele>303.0</ele><time>2026-03-28T09:36:16.996Z</time></trkpt><trkpt lat="45.731407414261525" lon="9.501590215707546"><ele>303.3333333333333</ele><time>2026-03-28T09:36:17.996Z</time></trkpt><trkpt lat="45.73138799084462" lon="9.501845081114903"><ele>303.66666666666663</ele><time>2026-03-28T09:36:18.997Z</time></trkpt><trkpt lat="45.73138262717993" lon="9.50209553428034"><ele>304.0</ele><time>2026-03-28T09:36:19.997Z</time></trkpt><trkpt lat="45.731390019531965" lon="9.50234777923385"><ele>304.66666666666663</ele><time>2026-03-28T09:36:20.997Z</time></trkpt><trkpt lat="45.73140401340995" lon="9.502588137262348"><ele>305.3333333333333</ele><time>2026-03-28T09:36:21.997Z</time></trkpt><trkpt lat="45.73142197432496" lon="9.502826133365074"><ele>306.0</ele><time>2026-03-28T09:36:22.997Z</time></trkpt><trkpt lat="45.73144066651521" lon="9.502996132331102"><ele>306.0</ele><time>2026-03-28T09:36:23.997Z</time></trkpt><trkpt lat="45.731456956314986" lon="9.503131851267755"><ele>306.0</ele><time>2026-03-28T09:36:24.997Z</time></trkpt><trkpt lat="45.731472147950655" lon="9.503264154019208"><ele>306.0</ele><time>2026-03-28T09:36:25.997Z</time></trkpt><trkpt lat="45.731479527931405" lon="9.50337534187039"><ele>306.0</ele><time>2026-03-28T09:36:26.997Z</time></trkpt><trkpt lat="45.73148679948885" lon="9.503478557846178"><ele>306.0</ele><time>2026-03-28T09:36:27.997Z</time></trkpt><trkpt lat="45.73149267357793" lon="9.503578678394772"><ele>306.0</ele><time>2026-03-28T09:36:28.997Z</time></trkpt><trkpt lat="45.73151120681134" lon="9.503766679358066"><ele>306.40000000000003</ele><time>2026-03-28T09:36:30.997Z</time></trkpt><trkpt lat="45.73152687661138" lon="9.503889505472305"><ele>306.8</ele><time>2026-03-28T09:36:31.997Z</time></trkpt><trkpt lat="45.73154228552477" lon="9.504027248745116"><ele>307.20000000000005</ele><time>2026-03-28T09:36:32.997Z</time></trkpt><trkpt lat="45.731555856705285" lon="9.504172612091944"><ele>307.6</ele><time>2026-03-28T09:36:33.997Z</time></trkpt><trkpt lat="45.73156701546331" lon="9.504343989171085"><ele>308.0</ele><time>2026-03-28T09:36:34.997Z</time></trkpt><trkpt lat="45.73157491398654" lon="9.504534580569276"><ele>308.25</ele><time>2026-03-28T09:36:35.997Z</time></trkpt><trkpt lat="45.73157405424791" lon="9.50473446287166"><ele>308.5</ele><time>2026-03-28T09:36:36.997Z</time></trkpt><trkpt lat="45.73157658081176" lon="9.504951030653745"><ele>308.75</ele><time>2026-03-28T09:36:37.997Z</time></trkpt><trkpt lat="45.731580769725866" lon="9.505143878246269"><ele>309.0</ele><time>2026-03-28T09:36:38.997Z</time></trkpt><trkpt lat="45.731590197547604" lon="9.505344970085618"><ele>309.6666666666667</ele><time>2026-03-28T09:36:39.997Z</time></trkpt><trkpt lat="45.731595506555294" lon="9.505576442997311"><ele>310.33333333333337</ele><time>2026-03-28T09:36:40.997Z</time></trkpt><trkpt lat="45.73159617633256" lon="9.505831552499178"><ele>311.0</ele><time>2026-03-28T09:36:41.997Z</time></trkpt><trkpt lat="45.73159286829092" lon="9.50611941642211"><ele>313.0</ele><time>2026-03-28T09:36:42.997Z</time></trkpt><trkpt lat="45.731584992175954" lon="9.506408974657282"><ele>315.0</ele><time>2026-03-28T09:36:43.997Z</time></trkpt><trkpt lat="45.73156903243898" lon="9.506705322240357"><ele>317.0</ele><time>2026-03-28T09:36:44.997Z</time></trkpt><trkpt lat="45.73154019824194" lon="9.506988368951154"><ele>316.33333333333337</ele><time>2026-03-28T09:36:45.997Z</time></trkpt><trkpt lat="45.7315042594309" lon="9.507245966659887"><ele>315.6666666666667</ele><time>2026-03-28T09:36:46.997Z</time></trkpt><trkpt lat="45.73146910173841" lon="9.50748390540719"><ele>315.0</ele><time>2026-03-28T09:36:47.997Z</time></trkpt><trkpt lat="45.731441481151634" lon="9.507708735478591"><ele>313.3333333333333</ele><time>2026-03-28T09:36:48.997Z</time></trkpt><trkpt lat="45.73141104874379" lon="9.507925416809782"><ele>311.66666666666663</ele><time>2026-03-28T09:36:49.997Z</time></trkpt><trkpt lat="45.73137848315103" lon="9.508140668954736"><ele>310.0</ele><time>2026-03-28T09:36:50.997Z</time></trkpt><trkpt lat="45.73134612270821" lon="9.508366610000753"><ele>310.0</ele><time>2026-03-28T09:36:51.997Z</time></trkpt><trkpt lat="45.73131714715265" lon="9.508598820866442"><ele>310.0</ele><time>2026-03-28T09:36:52.997Z</time></trkpt><trkpt lat="45.73128595062997" lon="9.508825347699238"><ele>310.0</ele><time>2026-03-28T09:36:53.997Z</time></trkpt><trkpt lat="45.73125274198584" lon="9.509053278555513"><ele>309.66666666666663</ele><time>2026-03-28T09:36:54.997Z</time></trkpt><trkpt lat="45.731221563852735" lon="9.50928143200893"><ele>309.3333333333333</ele><time>2026-03-28T09:36:55.997Z</time></trkpt><trkpt lat="45.73119074384694" lon="9.509514047890015"><ele>309.0</ele><time>2026-03-28T09:36:56.997Z</time></trkpt><trkpt lat="45.731156306501404" lon="9.509742074103311"><ele>309.0</ele><time>2026-03-28T09:36:57.997Z</time></trkpt><trkpt lat="45.73111847912869" lon="9.509986962718145"><ele>309.0</ele><time>2026-03-28T09:36:58.997Z</time></trkpt><trkpt lat="45.73108203589772" lon="9.510248661803995"><ele>309.0</ele><time>2026-03-28T09:36:59.997Z</time></trkpt><trkpt lat="45.731046933180636" lon="9.510501373353529"><ele>306.3333333333333</ele><time>2026-03-28T09:37:00.997Z</time></trkpt><trkpt lat="45.73101678362674" lon="9.510735812560561"><ele>303.66666666666663</ele><time>2026-03-28T09:37:01.997Z</time></trkpt><trkpt lat="45.730981062664085" lon="9.510982266997337"><ele>301.0</ele><time>2026-03-28T09:37:02.997Z</time></trkpt><trkpt lat="45.730944995364396" lon="9.511220717071323"><ele>300.0</ele><time>2026-03-28T09:37:03.997Z</time></trkpt><trkpt lat="45.73091171089225" lon="9.51144657325726"><ele>299.0</ele><time>2026-03-28T09:37:04.997Z</time></trkpt><trkpt lat="45.73088168237177" lon="9.511678225918795"><ele>298.0</ele><time>2026-03-28T09:37:05.997Z</time></trkpt><trkpt lat="45.73084766586824" lon="9.511904766486305"><ele>297.3333333333333</ele><time>2026-03-28T09:37:06.997Z</time></trkpt><trkpt lat="45.73081348864959" lon="9.512126113878761"><ele>296.6666666666667</ele><time>2026-03-28T09:37:07.997Z</time></trkpt><trkpt lat="45.730779728299815" lon="9.512338506123292"><ele>296.0</ele><time>2026-03-28T09:37:08.997Z</time></trkpt><trkpt lat="45.73074918648209" lon="9.51255492859934"><ele>296.0</ele><time>2026-03-28T09:37:09.997Z</time></trkpt><trkpt lat="45.73071400088392" lon="9.512794470098026"><ele>296.0</ele><time>2026-03-28T09:37:10.997Z</time></trkpt><trkpt lat="45.730675397451364" lon="9.51305537009462"><ele>296.0</ele><time>2026-03-28T09:37:11.997Z</time></trkpt><trkpt lat="45.730633330602316" lon="9.513363929306113"><ele>295.5</ele><time>2026-03-28T09:37:12.997Z</time></trkpt><trkpt lat="45.73058251683221" lon="9.513725797897365"><ele>295.0</ele><time>2026-03-28T09:37:13.997Z</time></trkpt><trkpt lat="45.73052981449174" lon="9.514090113496758"><ele>295.0</ele><time>2026-03-28T09:37:14.997Z</time></trkpt><trkpt lat="45.730483227818176" lon="9.514407600505914"><ele>295.0</ele><time>2026-03-28T09:37:15.997Z</time></trkpt><trkpt lat="45.730439908551396" lon="9.51471057413106"><ele>295.0</ele><time>2026-03-28T09:37:16.997Z</time></trkpt><trkpt lat="45.73039421909128" lon="9.515010122997626"><ele>295.0</ele><time>2026-03-28T09:37:17.997Z</time></trkpt><trkpt lat="45.730348855841754" lon="9.515289827960167"><ele>295.0</ele><time>2026-03-28T09:37:18.997Z</time></trkpt><trkpt lat="45.730302730509685" lon="9.515583409063815"><ele>295.0</ele><time>2026-03-28T09:37:19.997Z</time></trkpt><trkpt lat="45.73026061989116" lon="9.515878304355448"><ele>294.66666666666663</ele><time>2026-03-28T09:37:20.997Z</time></trkpt><trkpt lat="45.73021826689061" lon="9.516162801936245"><ele>294.3333333333333</ele><time>2026-03-28T09:37:21.997Z</time></trkpt><trkpt lat="45.73017753181064" lon="9.516453245568743"><ele>294.0</ele><time>2026-03-28T09:37:22.997Z</time></trkpt><trkpt lat="45.730136287338205" lon="9.516745924601253"><ele>294.0</ele><time>2026-03-28T09:37:23.997Z</time></trkpt><trkpt lat="45.73009289517026" lon="9.517040890918594"><ele>294.0</ele><time>2026-03-28T09:37:24.997Z</time></trkpt><trkpt lat="45.73004976987326" lon="9.517332398741782"><ele>294.0</ele><time>2026-03-28T09:37:25.997Z</time></trkpt><trkpt lat="45.73001118131728" lon="9.517621790927485"><ele>294.3333333333333</ele><time>2026-03-28T09:37:26.997Z</time></trkpt><trkpt lat="45.72998660749718" lon="9.517922408197276"><ele>294.66666666666663</ele><time>2026-03-28T09:37:27.997Z</time></trkpt><trkpt lat="45.72997110030234" lon="9.518215488329012"><ele>295.0</ele><time>2026-03-28T09:37:28.997Z</time></trkpt><trkpt lat="45.72996615921702" lon="9.51849584782511"><ele>294.66666666666663</ele><time>2026-03-28T09:37:29.997Z</time></trkpt><trkpt lat="45.72997073299435" lon="9.518762176557422"><ele>294.3333333333333</ele><time>2026-03-28T09:37:30.997Z</time></trkpt><trkpt lat="45.72997946100094" lon="9.519010166968071"><ele>294.0</ele><time>2026-03-28T09:37:31.997Z</time></trkpt><trkpt lat="45.729992610040135" lon="9.519243615599667"><ele>294.0</ele><time>2026-03-28T09:37:32.997Z</time></trkpt><trkpt lat="45.73000675772169" lon="9.519467765195506"><ele>294.0</ele><time>2026-03-28T09:37:33.997Z</time></trkpt><trkpt lat="45.73001948164781" lon="9.519687987047982"><ele>294.0</ele><time>2026-03-28T09:37:34.997Z</time></trkpt><trkpt lat="45.73004195270566" lon="9.51992757472819"><ele>293.6666666666667</ele><time>2026-03-28T09:37:35.997Z</time></trkpt><trkpt lat="45.73006319133874" lon="9.52015321607531"><ele>293.33333333333337</ele><time>2026-03-28T09:37:36.997Z</time></trkpt><trkpt lat="45.73008037456848" lon="9.520369924826657"><ele>293.0</ele><time>2026-03-28T09:37:37.997Z</time></trkpt><trkpt lat="45.730095348514325" lon="9.520578502726117"><ele>293.0</ele><time>2026-03-28T09:37:38.997Z</time></trkpt><trkpt lat="45.73010966367501" lon="9.520773416085087"><ele>293.0</ele><time>2026-03-28T09:37:39.997Z</time></trkpt><trkpt lat="45.73012235214242" lon="9.520958226825005"><ele>293.0</ele><time>2026-03-28T09:37:40.997Z</time></trkpt><trkpt lat="45.73013216295537" lon="9.521135518910228"><ele>293.0</ele><time>2026-03-28T09:37:41.997Z</time></trkpt><trkpt lat="45.7301418974543" lon="9.521303822278636"><ele>293.25</ele><time>2026-03-28T09:37:42.997Z</time></trkpt><trkpt lat="45.73014702319078" lon="9.521468379519128"><ele>293.5</ele><time>2026-03-28T09:37:43.997Z</time></trkpt><trkpt lat="45.730159671894334" lon="9.521648830013804"><ele>293.75</ele><time>2026-03-28T09:37:44.997Z</time></trkpt><trkpt lat="45.730196054284214" lon="9.521883687304987"><ele>294.0</ele><time>2026-03-28T09:37:45.997Z</time></trkpt><trkpt lat="45.73022962416544" lon="9.522177036010179"><ele>294.5</ele><time>2026-03-28T09:37:46.997Z</time></trkpt><trkpt lat="45.73024797537582" lon="9.522535222489525"><ele>295.0</ele><time>2026-03-28T09:37:47.997Z</time></trkpt><trkpt lat="45.730269966420174" lon="9.522907883044766"><ele>295.0</ele><time>2026-03-28T09:37:48.997Z</time></trkpt><trkpt lat="45.730303994398284" lon="9.523275798041892"><ele>295.0</ele><time>2026-03-28T09:37:49.997Z</time></trkpt><trkpt lat="45.73033160236605" lon="9.523631509379523"><ele>296.0</ele><time>2026-03-28T09:37:50.997Z</time></trkpt><trkpt lat="45.73034279991899" lon="9.523972966754144"><ele>297.0</ele><time>2026-03-28T09:37:51.997Z</time></trkpt><trkpt lat="45.730336749517335" lon="9.524299587551223"><ele>298.0</ele><time>2026-03-28T09:37:52.997Z</time></trkpt><trkpt lat="45.730310018335636" lon="9.524607754384386"><ele>299.0</ele><time>2026-03-28T09:37:53.997Z</time></trkpt><trkpt lat="45.73026750252215" lon="9.524903505910952"><ele>300.0</ele><time>2026-03-28T09:37:54.997Z</time></trkpt><trkpt lat="45.730212102220804" lon="9.525201978586345"><ele>296.6666666666667</ele><time>2026-03-28T09:37:55.997Z</time></trkpt><trkpt lat="45.73014976046838" lon="9.525494998383422"><ele>293.33333333333337</ele><time>2026-03-28T09:37:56.997Z</time></trkpt><trkpt lat="45.73008873658206" lon="9.525793519643367"><ele>290.0</ele><time>2026-03-28T09:37:57.997Z</time></trkpt><trkpt lat="45.73003250951246" lon="9.526079372418243"><ele>289.6666666666667</ele><time>2026-03-28T09:37:58.997Z</time></trkpt><trkpt lat="45.72997803889377" lon="9.526342396431064"><ele>289.3333333333333</ele><time>2026-03-28T09:37:59.997Z</time></trkpt><trkpt lat="45.72992257056762" lon="9.526609092346645"><ele>289.0</ele><time>2026-03-28T09:38:00.997Z</time></trkpt><trkpt lat="45.729867667905246" lon="9.526864227966955"><ele>289.3333333333333</ele><time>2026-03-28T09:38:01.997Z</time></trkpt><trkpt lat="45.72982102130727" lon="9.52709492601709"><ele>289.6666666666667</ele><time>2026-03-28T09:38:02.997Z</time></trkpt><trkpt lat="45.7297670739501" lon="9.527336341042009"><ele>290.0</ele><time>2026-03-28T09:38:03.997Z</time></trkpt><trkpt lat="45.72971792748049" lon="9.527563974187789"><ele>290.0</ele><time>2026-03-28T09:38:04.997Z</time></trkpt><trkpt lat="45.729667371185776" lon="9.527786105914654"><ele>290.0</ele><time>2026-03-28T09:38:05.997Z</time></trkpt><trkpt lat="45.72961952445019" lon="9.528042936343988"><ele>290.0</ele><time>2026-03-28T09:38:06.996Z</time></trkpt><trkpt lat="45.72956924010393" lon="9.528294673927372"><ele>290.0</ele><time>2026-03-28T09:38:07.997Z</time></trkpt><trkpt lat="45.72951826959632" lon="9.528536678957119"><ele>290.0</ele><time>2026-03-28T09:38:08.997Z</time></trkpt><trkpt lat="45.72946311078039" lon="9.528779427065157"><ele>290.0</ele><time>2026-03-28T09:38:09.996Z</time></trkpt><trkpt lat="45.7294083559189" lon="9.52901370674002"><ele>289.33333333333337</ele><time>2026-03-28T09:38:10.997Z</time></trkpt><trkpt lat="45.729344926295234" lon="9.529254739372377"><ele>288.6666666666667</ele><time>2026-03-28T09:38:11.997Z</time></trkpt><trkpt lat="45.72927670920234" lon="9.529485314194053"><ele>288.0</ele><time>2026-03-28T09:38:12.997Z</time></trkpt><trkpt lat="45.72920537516751" lon="9.529716774231902"><ele>288.0</ele><time>2026-03-28T09:38:13.996Z</time></trkpt><trkpt lat="45.72912505236967" lon="9.52996626038501"><ele>288.0</ele><time>2026-03-28T09:38:14.996Z</time></trkpt><trkpt lat="45.72903821882023" lon="9.530180928353134"><ele>288.0</ele><time>2026-03-28T09:38:15.997Z</time></trkpt><trkpt lat="45.72894871156974" lon="9.530405393075467"><ele>288.3333333333333</ele><time>2026-03-28T09:38:16.997Z</time></trkpt><trkpt lat="45.72887923335993" lon="9.530644339722187"><ele>288.66666666666663</ele><time>2026-03-28T09:38:17.997Z</time></trkpt><trkpt lat="45.72878369549201" lon="9.530878270417023"><ele>289.0</ele><time>2026-03-28T09:38:18.997Z</time></trkpt><trkpt lat="45.728679802562745" lon="9.531094177248457"><ele>288.66666666666663</ele><time>2026-03-28T09:38:19.997Z</time></trkpt><trkpt lat="45.72858196641841" lon="9.531324960323829"><ele>288.3333333333333</ele><time>2026-03-28T09:38:20.997Z</time></trkpt><trkpt lat="45.72848515833374" lon="9.531548391354871"><ele>288.0</ele><time>2026-03-28T09:38:21.997Z</time></trkpt><trkpt lat="45.72838888885682" lon="9.531764828223123"><ele>287.6666666666667</ele><time>2026-03-28T09:38:22.997Z</time></trkpt><trkpt lat="45.728294507956804" lon="9.53199005253005"><ele>287.33333333333337</ele><time>2026-03-28T09:38:23.997Z</time></trkpt><trkpt lat="45.72820143776854" lon="9.532224475664284"><ele>287.0</ele><time>2026-03-28T09:38:24.997Z</time></trkpt><trkpt lat="45.72811008126689" lon="9.532451708466661"><ele>286.33333333333337</ele><time>2026-03-28T09:38:25.997Z</time></trkpt><trkpt lat="45.7280132800999" lon="9.532686625584384"><ele>285.6666666666667</ele><time>2026-03-28T09:38:26.997Z</time></trkpt><trkpt lat="45.727911054502776" lon="9.532920991831555"><ele>285.0</ele><time>2026-03-28T09:38:27.997Z</time></trkpt><trkpt lat="45.72780675924249" lon="9.53315370061788"><ele>284.3333333333333</ele><time>2026-03-28T09:38:28.997Z</time></trkpt><trkpt lat="45.72770767027038" lon="9.533388541759788"><ele>283.66666666666663</ele><time>2026-03-28T09:38:29.997Z</time></trkpt><trkpt lat="45.727614590587905" lon="9.53361018545091"><ele>283.0</ele><time>2026-03-28T09:38:30.997Z</time></trkpt><trkpt lat="45.72752111399629" lon="9.533838498106435"><ele>283.0</ele><time>2026-03-28T09:38:31.997Z</time></trkpt><trkpt lat="45.727431186640416" lon="9.534062555775984"><ele>283.0</ele><time>2026-03-28T09:38:32.997Z</time></trkpt><trkpt lat="45.7273483831836" lon="9.534290193069525"><ele>283.0</ele><time>2026-03-28T09:38:33.997Z</time></trkpt><trkpt lat="45.72727241896624" lon="9.534521927743949"><ele>282.66666666666663</ele><time>2026-03-28T09:38:34.997Z</time></trkpt><trkpt lat="45.72720688254973" lon="9.534760194527161"><ele>282.3333333333333</ele><time>2026-03-28T09:38:35.997Z</time></trkpt><trkpt lat="45.72715629981637" lon="9.534999977989486"><ele>282.0</ele><time>2026-03-28T09:38:36.997Z</time></trkpt><trkpt lat="45.72711410758277" lon="9.535264712193506"><ele>281.3333333333333</ele><time>2026-03-28T09:38:37.997Z</time></trkpt><trkpt lat="45.72708364719489" lon="9.535527407186784"><ele>280.66666666666663</ele><time>2026-03-28T09:38:38.997Z</time></trkpt><trkpt lat="45.727067557979865" lon="9.535792100654698"><ele>280.0</ele><time>2026-03-28T09:38:39.997Z</time></trkpt><trkpt lat="45.727064783606295" lon="9.536060519366027"><ele>280.0</ele><time>2026-03-28T09:38:40.997Z</time></trkpt><trkpt lat="45.727074458367845" lon="9.536328793621557"><ele>280.0</ele><time>2026-03-28T09:38:41.997Z</time></trkpt><trkpt lat="45.72709191296991" lon="9.53659763924591"><ele>280.0</ele><time>2026-03-28T09:38:42.997Z</time></trkpt><trkpt lat="45.72710947634968" lon="9.536870038114275"><ele>279.3333333333333</ele><time>2026-03-28T09:38:43.997Z</time></trkpt><trkpt lat="45.72713325084119" lon="9.537142328336"><ele>278.6666666666667</ele><time>2026-03-28T09:38:44.997Z</time></trkpt><trkpt lat="45.72715226963475" lon="9.537413428131108"><ele>278.0</ele><time>2026-03-28T09:38:45.997Z</time></trkpt><trkpt lat="45.72717127671782" lon="9.537686736898792"><ele>278.33333333333337</ele><time>2026-03-28T09:38:46.997Z</time></trkpt><trkpt lat="45.72718953595121" lon="9.537945926888183"><ele>278.6666666666667</ele><time>2026-03-28T09:38:47.997Z</time></trkpt><trkpt lat="45.72720433853802" lon="9.538198165799237"><ele>279.0</ele><time>2026-03-28T09:38:48.997Z</time></trkpt><trkpt lat="45.727223697728576" lon="9.53846818793602"><ele>279.0</ele><time>2026-03-28T09:38:49.997Z</time></trkpt><trkpt lat="45.72724470049565" lon="9.538746404697571"><ele>279.0</ele><time>2026-03-28T09:38:50.997Z</time></trkpt><trkpt lat="45.72726600067462" lon="9.5390191314999"><ele>279.0</ele><time>2026-03-28T09:38:51.997Z</time></trkpt><trkpt lat="45.72728191624261" lon="9.539287185521971"><ele>278.3333333333333</ele><time>2026-03-28T09:38:52.997Z</time></trkpt><trkpt lat="45.72729744832721" lon="9.53955248459877"><ele>277.66666666666663</ele><time>2026-03-28T09:38:53.997Z</time></trkpt><trkpt lat="45.72731291871112" lon="9.53981226324272"><ele>277.0</ele><time>2026-03-28T09:38:54.997Z</time></trkpt><trkpt lat="45.727330343706456" lon="9.540070695924761"><ele>277.0</ele><time>2026-03-28T09:38:55.997Z</time></trkpt><trkpt lat="45.72734528581617" lon="9.540331776324996"><ele>277.0</ele><time>2026-03-28T09:38:56.997Z</time></trkpt><trkpt lat="45.72735930817426" lon="9.540581284924773"><ele>277.0</ele><time>2026-03-28T09:38:57.997Z</time></trkpt><trkpt lat="45.72737382202569" lon="9.540838344433809"><ele>277.0</ele><time>2026-03-28T09:38:58.997Z</time></trkpt><trkpt lat="45.72738759580131" lon="9.541108338825719"><ele>277.0</ele><time>2026-03-28T09:38:59.997Z</time></trkpt><trkpt lat="45.72740297185386" lon="9.541375477834618"><ele>277.0</ele><time>2026-03-28T09:39:00.997Z</time></trkpt><trkpt lat="45.72741545518306" lon="9.541645237298724"><ele>276.3333333333333</ele><time>2026-03-28T09:39:01.997Z</time></trkpt><trkpt lat="45.72742241257312" lon="9.541903986137127"><ele>275.6666666666667</ele><time>2026-03-28T09:39:02.997Z</time></trkpt><trkpt lat="45.72742942282082" lon="9.542158095232423"><ele>275.0</ele><time>2026-03-28T09:39:03.997Z</time></trkpt><trkpt lat="45.727429844519726" lon="9.542408320569924"><ele>274.6666666666667</ele><time>2026-03-28T09:39:04.997Z</time></trkpt><trkpt lat="45.72742333292782" lon="9.54266049566451"><ele>274.3333333333333</ele><time>2026-03-28T09:39:05.997Z</time></trkpt><trkpt lat="45.72741394221956" lon="9.54291952489766"><ele>274.0</ele><time>2026-03-28T09:39:06.997Z</time></trkpt><trkpt lat="45.727402672106734" lon="9.543169888018783"><ele>273.66666666666663</ele><time>2026-03-28T09:39:07.997Z</time></trkpt><trkpt lat="45.72738833211308" lon="9.543412256765048"><ele>273.3333333333333</ele><time>2026-03-28T09:39:08.997Z</time></trkpt><trkpt lat="45.72737055889049" lon="9.543640866608174"><ele>273.0</ele><time>2026-03-28T09:39:09.997Z</time></trkpt><trkpt lat="45.72735243393616" lon="9.543859272494663"><ele>272.6666666666667</ele><time>2026-03-28T09:39:10.997Z</time></trkpt><trkpt lat="45.72733170918558" lon="9.544086270460914"><ele>272.33333333333337</ele><time>2026-03-28T09:39:11.997Z</time></trkpt><trkpt lat="45.72731208638894" lon="9.544315669182115"><ele>272.0</ele><time>2026-03-28T09:39:12.997Z</time></trkpt><trkpt lat="45.727290811480295" lon="9.544545218921982"><ele>272.33333333333337</ele><time>2026-03-28T09:39:13.997Z</time></trkpt><trkpt lat="45.72726933630625" lon="9.544769313405165"><ele>272.6666666666667</ele><time>2026-03-28T09:39:14.997Z</time></trkpt><trkpt lat="45.7272484145832" lon="9.544998464430304"><ele>273.0</ele><time>2026-03-28T09:39:15.997Z</time></trkpt><trkpt lat="45.72722832919678" lon="9.545229624471787"><ele>273.3333333333333</ele><time>2026-03-28T09:39:16.997Z</time></trkpt><trkpt lat="45.727200897539674" lon="9.545454215499495"><ele>273.66666666666663</ele><time>2026-03-28T09:39:17.997Z</time></trkpt><trkpt lat="45.7271781575018" lon="9.545679132023347"><ele>274.0</ele><time>2026-03-28T09:39:18.997Z</time></trkpt><trkpt lat="45.727159111823156" lon="9.545890839703373"><ele>274.0</ele><time>2026-03-28T09:39:19.997Z</time></trkpt><trkpt lat="45.727139743814526" lon="9.54609768849567"><ele>274.0</ele><time>2026-03-28T09:39:20.997Z</time></trkpt><trkpt lat="45.72712867563473" lon="9.54630254816093"><ele>274.0</ele><time>2026-03-28T09:39:21.997Z</time></trkpt><trkpt lat="45.72711429881524" lon="9.546508178320265"><ele>274.0</ele><time>2026-03-28T09:39:22.997Z</time></trkpt><trkpt lat="45.72710097375708" lon="9.546716214252921"><ele>273.75</ele><time>2026-03-28T09:39:23.997Z</time></trkpt><trkpt lat="45.72708981151329" lon="9.546924574277854"><ele>273.5</ele><time>2026-03-28T09:39:24.997Z</time></trkpt><trkpt lat="45.72707255324199" lon="9.547125129019467"><ele>273.25</ele><time>2026-03-28T09:39:25.997Z</time></trkpt><trkpt lat="45.72705261197082" lon="9.547328403586336"><ele>273.0</ele><time>2026-03-28T09:39:26.998Z</time></trkpt><trkpt lat="45.72702740639971" lon="9.547537850426183"><ele>273.5</ele><time>2026-03-28T09:39:27.998Z</time></trkpt><trkpt lat="45.72699810514729" lon="9.547754937312622"><ele>274.0</ele><time>2026-03-28T09:39:28.998Z</time></trkpt><trkpt lat="45.72696044617575" lon="9.547955086091934"><ele>274.5</ele><time>2026-03-28T09:39:29.998Z</time></trkpt><trkpt lat="45.72691708072356" lon="9.548148579190649"><ele>275.0</ele><time>2026-03-28T09:39:30.998Z</time></trkpt><trkpt lat="45.72686771893587" lon="9.548348814410948"><ele>274.25</ele><time>2026-03-28T09:39:31.998Z</time></trkpt><trkpt lat="45.7268050014512" lon="9.54853790209451"><ele>273.5</ele><time>2026-03-28T09:39:32.998Z</time></trkpt><trkpt lat="45.726736712678516" lon="9.548726102483487"><ele>272.75</ele><time>2026-03-28T09:39:33.998Z</time></trkpt><trkpt lat="45.72666101428995" lon="9.548903770312084"><ele>272.0</ele><time>2026-03-28T09:39:34.998Z</time></trkpt><trkpt lat="45.72658190350489" lon="9.549075563724543"><ele>272.0</ele><time>2026-03-28T09:39:35.998Z</time></trkpt><trkpt lat="45.72650366027598" lon="9.54923268896322"><ele>272.0</ele><time>2026-03-28T09:39:36.998Z</time></trkpt><trkpt lat="45.726420483807125" lon="9.5493815840532"><ele>272.0</ele><time>2026-03-28T09:39:37.998Z</time></trkpt><trkpt lat="45.72632638805171" lon="9.549532563834237"><ele>272.0</ele><time>2026-03-28T09:39:38.998Z</time></trkpt><trkpt lat="45.726229874664995" lon="9.54968629357559"><ele>271.75</ele><time>2026-03-28T09:39:39.998Z</time></trkpt><trkpt lat="45.72613364511197" lon="9.549829267990406"><ele>271.5</ele><time>2026-03-28T09:39:40.998Z</time></trkpt><trkpt lat="45.72603151920876" lon="9.549959563416007"><ele>271.25</ele><time>2026-03-28T09:39:41.998Z</time></trkpt><trkpt lat="45.72593481691484" lon="9.550093000234352"><ele>271.0</ele><time>2026-03-28T09:39:42.998Z</time></trkpt><trkpt lat="45.725840578898705" lon="9.550230376023027"><ele>270.66666666666663</ele><time>2026-03-28T09:39:43.998Z</time></trkpt><trkpt lat="45.7257377702367" lon="9.550382050848524"><ele>270.3333333333333</ele><time>2026-03-28T09:39:44.998Z</time></trkpt><trkpt lat="45.72563216916716" lon="9.550542525574091"><ele>270.0</ele><time>2026-03-28T09:39:45.998Z</time></trkpt><trkpt lat="45.72552922521235" lon="9.55069903120054"><ele>270.0</ele><time>2026-03-28T09:39:46.998Z</time></trkpt><trkpt lat="45.72543752172959" lon="9.550839719041019"><ele>270.0</ele><time>2026-03-28T09:39:47.998Z</time></trkpt><trkpt lat="45.72534898344594" lon="9.55096988191712"><ele>270.0</ele><time>2026-03-28T09:39:48.998Z</time></trkpt><trkpt lat="45.72527002906751" lon="9.551094853480967"><ele>270.0</ele><time>2026-03-28T09:39:49.998Z</time></trkpt><trkpt lat="45.7251962792013" lon="9.55120330320628"><ele>270.0</ele><time>2026-03-28T09:39:50.998Z</time></trkpt><trkpt lat="45.725135858055" lon="9.551291811316121"><ele>270.0</ele><time>2026-03-28T09:39:51.998Z</time></trkpt><trkpt lat="45.725087130700565" lon="9.551365588427265"><ele>270.0</ele><time>2026-03-28T09:39:52.998Z</time></trkpt><trkpt lat="45.724993023503565" lon="9.551482868725934"><ele>270.0</ele><time>2026-03-28T09:39:54.998Z</time></trkpt><trkpt lat="45.72492807040711" lon="9.551514085155057"><ele>270.0</ele><time>2026-03-28T09:39:55.998Z</time></trkpt><trkpt lat="45.724860972594044" lon="9.551524655450212"><ele>270.0</ele><time>2026-03-28T09:39:56.998Z</time></trkpt><trkpt lat="45.72479555626944" lon="9.551537100897662"><ele>270.0</ele><time>2026-03-28T09:39:57.998Z</time></trkpt><trkpt lat="45.72473201545252" lon="9.551575363412287"><ele>270.0</ele><time>2026-03-28T09:39:58.998Z</time></trkpt><trkpt lat="45.72467686525671" lon="9.551653665107034"><ele>270.0</ele><time>2026-03-28T09:39:59.998Z</time></trkpt><trkpt lat="45.72465276447878" lon="9.55176400958211"><ele>270.0</ele><time>2026-03-28T09:40:00.998Z</time></trkpt><trkpt lat="45.72466346433813" lon="9.551891731356246"><ele>270.0</ele><time>2026-03-28T09:40:01.998Z</time></trkpt><trkpt lat="45.72471727803787" lon="9.551985464173466"><ele>270.0</ele><time>2026-03-28T09:40:02.998Z</time></trkpt><trkpt lat="45.72481465805438" lon="9.552048321445637"><ele>269.75</ele><time>2026-03-28T09:40:03.998Z</time></trkpt><trkpt lat="45.7249287045017" lon="9.552089433586234"><ele>269.5</ele><time>2026-03-28T09:40:04.998Z</time></trkpt><trkpt lat="45.72504696897769" lon="9.552150086019516"><ele>269.25</ele><time>2026-03-28T09:40:05.998Z</time></trkpt><trkpt lat="45.72515784105279" lon="9.552222414856688"><ele>269.0</ele><time>2026-03-28T09:40:06.998Z</time></trkpt><trkpt lat="45.7252738036676" lon="9.55229335194597"><ele>269.5</ele><time>2026-03-28T09:40:07.998Z</time></trkpt><trkpt lat="45.72541410282398" lon="9.5523719119483"><ele>270.0</ele><time>2026-03-28T09:40:08.998Z</time></trkpt><trkpt lat="45.725558369123334" lon="9.55245519892218"><ele>270.5</ele><time>2026-03-28T09:40:09.996Z</time></trkpt><trkpt lat="45.72567840899177" lon="9.55256168783276"><ele>271.0</ele><time>2026-03-28T09:40:10.997Z</time></trkpt><trkpt lat="45.725784220071134" lon="9.552696297771302"><ele>271.0</ele><time>2026-03-28T09:40:11.997Z</time></trkpt><trkpt lat="45.72590410525236" lon="9.552824272501145"><ele>271.0</ele><time>2026-03-28T09:40:12.997Z</time></trkpt><trkpt lat="45.72599896482473" lon="9.552996016098842"><ele>271.0</ele><time>2026-03-28T09:40:13.996Z</time></trkpt><trkpt lat="45.726084575076825" lon="9.553213798709312"><ele>271.0</ele><time>2026-03-28T09:40:14.996Z</time></trkpt><trkpt lat="45.726167806374654" lon="9.55341943165475"><ele>271.0</ele><time>2026-03-28T09:40:15.996Z</time></trkpt><trkpt lat="45.7262392860426" lon="9.553620471168037"><ele>271.0</ele><time>2026-03-28T09:40:16.997Z</time></trkpt><trkpt lat="45.72630341324701" lon="9.55380651147702"><ele>270.75</ele><time>2026-03-28T09:40:17.997Z</time></trkpt><trkpt lat="45.72636289578151" lon="9.553978165151694"><ele>270.5</ele><time>2026-03-28T09:40:18.996Z</time></trkpt><trkpt lat="45.72641928789091" lon="9.554139855642294"><ele>270.25</ele><time>2026-03-28T09:40:19.996Z</time></trkpt><trkpt lat="45.72648466252318" lon="9.554292197555958"><ele>270.0</ele><time>2026-03-28T09:40:20.996Z</time></trkpt><trkpt lat="45.72657084680086" lon="9.554436133955122"><ele>270.25</ele><time>2026-03-28T09:40:21.996Z</time></trkpt><trkpt lat="45.72666587993946" lon="9.554559914823425"><ele>270.5</ele><time>2026-03-28T09:40:22.996Z</time></trkpt><trkpt lat="45.72676466522644" lon="9.554672331430485"><ele>270.75</ele><time>2026-03-28T09:40:23.996Z</time></trkpt><trkpt lat="45.72686062023605" lon="9.554763004230939"><ele>271.0</ele><time>2026-03-28T09:40:24.996Z</time></trkpt><trkpt lat="45.72696175553436" lon="9.554843720193393"><ele>271.0</ele><time>2026-03-28T09:40:25.996Z</time></trkpt><trkpt lat="45.72707331707593" lon="9.554917854311116"><ele>271.0</ele><time>2026-03-28T09:40:26.996Z</time></trkpt><trkpt lat="45.72717984154964" lon="9.554967042383995"><ele>271.0</ele><time>2026-03-28T09:40:27.996Z</time></trkpt><trkpt lat="45.72728174607303" lon="9.554996462007779"><ele>271.0</ele><time>2026-03-28T09:40:28.996Z</time></trkpt><trkpt lat="45.727388151877975" lon="9.555017810963934"><ele>271.0</ele><time>2026-03-28T09:40:29.996Z</time></trkpt><trkpt lat="45.72750004755985" lon="9.555026429733804"><ele>271.0</ele><time>2026-03-28T09:40:30.996Z</time></trkpt><trkpt lat="45.72761136854053" lon="9.55502835901444"><ele>271.0</ele><time>2026-03-28T09:40:31.996Z</time></trkpt><trkpt lat="45.72771684945055" lon="9.555020551350243"><ele>271.0</ele><time>2026-03-28T09:40:32.996Z</time></trkpt><trkpt lat="45.72780993312969" lon="9.555015475322293"><ele>271.0</ele><time>2026-03-28T09:40:33.996Z</time></trkpt><trkpt lat="45.72790601149311" lon="9.555026950005093"><ele>271.0</ele><time>2026-03-28T09:40:34.996Z</time></trkpt><trkpt lat="45.727996150919864" lon="9.555066607903102"><ele>271.75</ele><time>2026-03-28T09:40:35.996Z</time></trkpt><trkpt lat="45.72808357045345" lon="9.555146853127019"><ele>272.5</ele><time>2026-03-28T09:40:36.996Z</time></trkpt><trkpt lat="45.728179329938804" lon="9.555225330994377"><ele>273.25</ele><time>2026-03-28T09:40:37.997Z</time></trkpt><trkpt lat="45.72821141748128" lon="9.555450610085593"><ele>274.0</ele><time>2026-03-28T09:40:38.997Z</time></trkpt><trkpt lat="45.728216687354134" lon="9.555699695657552"><ele>276.0</ele><time>2026-03-28T09:40:39.997Z</time></trkpt><trkpt lat="45.72822927909006" lon="9.555949629073437"><ele>278.0</ele><time>2026-03-28T09:40:40.997Z</time></trkpt><trkpt lat="45.72823722006359" lon="9.556181141187603"><ele>280.0</ele><time>2026-03-28T09:40:41.997Z</time></trkpt><trkpt lat="45.72823713197785" lon="9.556388535471918"><ele>280.25</ele><time>2026-03-28T09:40:42.997Z</time></trkpt><trkpt lat="45.72824659545868" lon="9.556571006395652"><ele>280.5</ele><time>2026-03-28T09:40:43.997Z</time></trkpt><trkpt lat="45.72825904015043" lon="9.556735527332838"><ele>280.75</ele><time>2026-03-28T09:40:44.997Z</time></trkpt><trkpt lat="45.72827659450695" lon="9.556907722802713"><ele>281.0</ele><time>2026-03-28T09:40:45.997Z</time></trkpt><trkpt lat="45.72829608930341" lon="9.557073592623631"><ele>280.0</ele><time>2026-03-28T09:40:46.997Z</time></trkpt><trkpt lat="45.72831975408786" lon="9.557243585950863"><ele>279.0</ele><time>2026-03-28T09:40:47.997Z</time></trkpt><trkpt lat="45.728348316394" lon="9.557410661498691"><ele>278.0</ele><time>2026-03-28T09:40:48.997Z</time></trkpt><trkpt lat="45.72838943064806" lon="9.55758610358297"><ele>277.0</ele><time>2026-03-28T09:40:49.997Z</time></trkpt><trkpt lat="45.72842848023229" lon="9.557765512918218"><ele>276.25</ele><time>2026-03-28T09:40:50.997Z</time></trkpt><trkpt lat="45.728467184719946" lon="9.5579449300197"><ele>275.5</ele><time>2026-03-28T09:40:51.997Z</time></trkpt><trkpt lat="45.728510089583025" lon="9.558123548085922"><ele>274.75</ele><time>2026-03-28T09:40:52.997Z</time></trkpt><trkpt lat="45.72855658428884" lon="9.558309190394057"><ele>274.0</ele><time>2026-03-28T09:40:53.997Z</time></trkpt><trkpt lat="45.72859960411455" lon="9.558493830274832"><ele>275.25</ele><time>2026-03-28T09:40:54.997Z</time></trkpt><trkpt lat="45.728641197103585" lon="9.55867398456047"><ele>276.5</ele><time>2026-03-28T09:40:55.997Z</time></trkpt><trkpt lat="45.728678284632004" lon="9.55885654483475"><ele>277.75</ele><time>2026-03-28T09:40:56.997Z</time></trkpt><trkpt lat="45.72871467036976" lon="9.559041248482698"><ele>279.0</ele><time>2026-03-28T09:40:57.997Z</time></trkpt><trkpt lat="45.7287453717677" lon="9.559222802780003"><ele>279.0</ele><time>2026-03-28T09:40:58.997Z</time></trkpt><trkpt lat="45.72876736515206" lon="9.559414792307983"><ele>279.0</ele><time>2026-03-28T09:40:59.997Z</time></trkpt><trkpt lat="45.72877978695751" lon="9.559602550916248"><ele>279.0</ele><time>2026-03-28T09:41:00.997Z</time></trkpt><trkpt lat="45.728784916505994" lon="9.559781855158574"><ele>279.0</ele><time>2026-03-28T09:41:01.997Z</time></trkpt><trkpt lat="45.728784091169935" lon="9.559947493705737"><ele>279.2</ele><time>2026-03-28T09:41:02.997Z</time></trkpt><trkpt lat="45.728783883523384" lon="9.560103762519349"><ele>279.4</ele><time>2026-03-28T09:41:03.997Z</time></trkpt><trkpt lat="45.72878315942339" lon="9.560242635998245"><ele>279.6</ele><time>2026-03-28T09:41:04.997Z</time></trkpt><trkpt lat="45.728782118979986" lon="9.560361604956293"><ele>279.8</ele><time>2026-03-28T09:41:05.997Z</time></trkpt><trkpt lat="45.728778024311865" lon="9.560469476557342"><ele>280.0</ele><time>2026-03-28T09:41:06.997Z</time></trkpt><trkpt lat="45.728765050512294" lon="9.560604465973872"><ele>280.0</ele><time>2026-03-28T09:41:08.997Z</time></trkpt><trkpt lat="45.72874353262303" lon="9.56075709473969"><ele>280.0</ele><time>2026-03-28T09:41:10.997Z</time></trkpt><trkpt lat="45.72871991055807" lon="9.560913487749533"><ele>280.0</ele><time>2026-03-28T09:41:12.997Z</time></trkpt><trkpt lat="45.728702619007" lon="9.561003457440899"><ele>280.0</ele><time>2026-03-28T09:41:13.997Z</time></trkpt><trkpt lat="45.72867039207512" lon="9.561099381575152"><ele>280.0</ele><time>2026-03-28T09:41:14.997Z</time></trkpt><trkpt lat="45.72861459115213" lon="9.56119160869977"><ele>280.0</ele><time>2026-03-28T09:41:15.997Z</time></trkpt><trkpt lat="45.72855064926646" lon="9.561300650654099"><ele>279.8</ele><time>2026-03-28T09:41:16.997Z</time></trkpt><trkpt lat="45.72851083536335" lon="9.561425218840807"><ele>279.6</ele><time>2026-03-28T09:41:17.997Z</time></trkpt><trkpt lat="45.728502535726186" lon="9.561564542877871"><ele>279.4</ele><time>2026-03-28T09:41:18.997Z</time></trkpt><trkpt lat="45.72853586345293" lon="9.561701248662411"><ele>279.2</ele><time>2026-03-28T09:41:19.997Z</time></trkpt><trkpt lat="45.72859543797448" lon="9.561820911470626"><ele>279.0</ele><time>2026-03-28T09:41:20.997Z</time></trkpt><trkpt lat="45.72865364364104" lon="9.561957057882902"><ele>279.5</ele><time>2026-03-28T09:41:21.997Z</time></trkpt><trkpt lat="45.72868850002235" lon="9.562116872557723"><ele>280.0</ele><time>2026-03-28T09:41:22.997Z</time></trkpt><trkpt lat="45.72870214596891" lon="9.562286941374662"><ele>280.5</ele><time>2026-03-28T09:41:23.997Z</time></trkpt><trkpt lat="45.72871200218124" lon="9.562474065605047"><ele>281.0</ele><time>2026-03-28T09:41:24.997Z</time></trkpt><trkpt lat="45.728713333538465" lon="9.562664809255129"><ele>281.0</ele><time>2026-03-28T09:41:25.997Z</time></trkpt><trkpt lat="45.728703687204764" lon="9.562855575822486"><ele>281.0</ele><time>2026-03-28T09:41:26.997Z</time></trkpt><trkpt lat="45.72868950656595" lon="9.563035557132546"><ele>281.0</ele><time>2026-03-28T09:41:27.997Z</time></trkpt><trkpt lat="45.72868043376871" lon="9.563222049597185"><ele>281.0</ele><time>2026-03-28T09:41:28.997Z</time></trkpt><trkpt lat="45.728667322356536" lon="9.563404095608277"><ele>281.0</ele><time>2026-03-28T09:41:29.997Z</time></trkpt><trkpt lat="45.72865679742692" lon="9.563603943057046"><ele>281.0</ele><time>2026-03-28T09:41:30.997Z</time></trkpt><trkpt lat="45.72864317774365" lon="9.56380743797347"><ele>281.0</ele><time>2026-03-28T09:41:31.997Z</time></trkpt><trkpt lat="45.7286292875976" lon="9.564020590537709"><ele>281.0</ele><time>2026-03-28T09:41:32.997Z</time></trkpt><trkpt lat="45.72861712386225" lon="9.564233628817053"><ele>281.33333333333337</ele><time>2026-03-28T09:41:33.997Z</time></trkpt><trkpt lat="45.728608817645686" lon="9.564452602256846"><ele>281.6666666666667</ele><time>2026-03-28T09:41:34.997Z</time></trkpt><trkpt lat="45.7285994832502" lon="9.564664280075734"><ele>282.0</ele><time>2026-03-28T09:41:35.997Z</time></trkpt><trkpt lat="45.72859337541717" lon="9.564877037513027"><ele>282.0</ele><time>2026-03-28T09:41:36.997Z</time></trkpt><trkpt lat="45.728593234987216" lon="9.565100645730508"><ele>282.0</ele><time>2026-03-28T09:41:37.997Z</time></trkpt><trkpt lat="45.72860287275656" lon="9.565321920357942"><ele>282.0</ele><time>2026-03-28T09:41:38.997Z</time></trkpt><trkpt lat="45.7286185415998" lon="9.565568949070832"><ele>282.0</ele><time>2026-03-28T09:41:39.997Z</time></trkpt><trkpt lat="45.728634756512115" lon="9.565821798024443"><ele>282.0</ele><time>2026-03-28T09:41:40.997Z</time></trkpt><trkpt lat="45.72865639654494" lon="9.56608598765184"><ele>282.0</ele><time>2026-03-28T09:41:41.997Z</time></trkpt><trkpt lat="45.7286883271335" lon="9.566360628825734"><ele>281.3333333333333</ele><time>2026-03-28T09:41:42.997Z</time></trkpt><trkpt lat="45.72872628504408" lon="9.566624420712353"><ele>280.66666666666663</ele><time>2026-03-28T09:41:43.997Z</time></trkpt><trkpt lat="45.72876616592589" lon="9.566881220566334"><ele>280.0</ele><time>2026-03-28T09:41:44.997Z</time></trkpt><trkpt lat="45.728817080642166" lon="9.56712948946226"><ele>280.0</ele><time>2026-03-28T09:41:45.997Z</time></trkpt><trkpt lat="45.728872491796245" lon="9.567379911876666"><ele>280.0</ele><time>2026-03-28T09:41:46.997Z</time></trkpt><trkpt lat="45.728924417338966" lon="9.5676265437839"><ele>280.0</ele><time>2026-03-28T09:41:47.997Z</time></trkpt><trkpt lat="45.72897173972769" lon="9.567875476636093"><ele>279.66666666666663</ele><time>2026-03-28T09:41:48.997Z</time></trkpt><trkpt lat="45.7290187223412" lon="9.568118986508557"><ele>279.3333333333333</ele><time>2026-03-28T09:41:49.997Z</time></trkpt><trkpt lat="45.72906534943533" lon="9.568365658132508"><ele>279.0</ele><time>2026-03-28T09:41:50.997Z</time></trkpt><trkpt lat="45.72911180745355" lon="9.568613623751338"><ele>277.6666666666667</ele><time>2026-03-28T09:41:51.997Z</time></trkpt><trkpt lat="45.72916202980372" lon="9.568876872183097"><ele>276.33333333333337</ele><time>2026-03-28T09:41:52.997Z</time></trkpt><trkpt lat="45.72921067422657" lon="9.56913229665966"><ele>275.0</ele><time>2026-03-28T09:41:53.997Z</time></trkpt><trkpt lat="45.729258306669344" lon="9.569384752448617"><ele>274.6666666666667</ele><time>2026-03-28T09:41:54.997Z</time></trkpt><trkpt lat="45.72930399843824" lon="9.569629161653937"><ele>274.3333333333333</ele><time>2026-03-28T09:41:55.997Z</time></trkpt><trkpt lat="45.729352119437166" lon="9.569872456801443"><ele>274.0</ele><time>2026-03-28T09:41:56.997Z</time></trkpt><trkpt lat="45.729400954601566" lon="9.57011171859875"><ele>276.0</ele><time>2026-03-28T09:41:57.997Z</time></trkpt><trkpt lat="45.72944798768257" lon="9.570349072386863"><ele>278.0</ele><time>2026-03-28T09:41:58.997Z</time></trkpt><trkpt lat="45.729490666645944" lon="9.570576606222213"><ele>280.0</ele><time>2026-03-28T09:41:59.997Z</time></trkpt><trkpt lat="45.729530137243046" lon="9.57078287999731"><ele>280.75</ele><time>2026-03-28T09:42:00.997Z</time></trkpt><trkpt lat="45.729569335264365" lon="9.570978597398096"><ele>281.5</ele><time>2026-03-28T09:42:01.997Z</time></trkpt><trkpt lat="45.729607269457624" lon="9.571175824466167"><ele>282.25</ele><time>2026-03-28T09:42:02.997Z</time></trkpt><trkpt lat="45.72964407236081" lon="9.57137056872941"><ele>283.0</ele><time>2026-03-28T09:42:03.997Z</time></trkpt><trkpt lat="45.72967680111725" lon="9.571559715191135"><ele>283.0</ele><time>2026-03-28T09:42:04.997Z</time></trkpt><trkpt lat="45.729712886824274" lon="9.571745742650188"><ele>283.0</ele><time>2026-03-28T09:42:05.997Z</time></trkpt><trkpt lat="45.7297442165901" lon="9.571933639236144"><ele>283.0</ele><time>2026-03-28T09:42:06.997Z</time></trkpt><trkpt lat="45.729775215376065" lon="9.57212222699727"><ele>283.0</ele><time>2026-03-28T09:42:07.997Z</time></trkpt><trkpt lat="45.729803605030135" lon="9.572300435771286"><ele>282.25</ele><time>2026-03-28T09:42:08.997Z</time></trkpt><trkpt lat="45.72983469022675" lon="9.57246393891573"><ele>281.5</ele><time>2026-03-28T09:42:09.997Z</time></trkpt><trkpt lat="45.72986793280198" lon="9.572619915593615"><ele>280.75</ele><time>2026-03-28T09:42:10.997Z</time></trkpt><trkpt lat="45.72991252044668" lon="9.572805820051485"><ele>280.0</ele><time>2026-03-28T09:42:11.997Z</time></trkpt><trkpt lat="45.72998437554619" lon="9.573028403326106"><ele>279.66666666666663</ele><time>2026-03-28T09:42:12.997Z</time></trkpt><trkpt lat="45.73006369020839" lon="9.573258210889493"><ele>279.3333333333333</ele><time>2026-03-28T09:42:13.997Z</time></trkpt><trkpt lat="45.730153637084335" lon="9.573479272236337"><ele>279.0</ele><time>2026-03-28T09:42:14.997Z</time></trkpt><trkpt lat="45.730257825072634" lon="9.573675516863867"><ele>279.3333333333333</ele><time>2026-03-28T09:42:15.996Z</time></trkpt><trkpt lat="45.730361774525086" lon="9.573851011367498"><ele>279.66666666666663</ele><time>2026-03-28T09:42:16.996Z</time></trkpt><trkpt lat="45.73046403583491" lon="9.574017347491758"><ele>280.0</ele><time>2026-03-28T09:42:17.996Z</time></trkpt><trkpt lat="45.73059221441194" lon="9.574201135784726"><ele>280.0</ele><time>2026-03-28T09:42:18.996Z</time></trkpt><trkpt lat="45.7307364662009" lon="9.574384902208482"><ele>280.0</ele><time>2026-03-28T09:42:19.996Z</time></trkpt><trkpt lat="45.730902962028125" lon="9.574594953837911"><ele>280.0</ele><time>2026-03-28T09:42:20.996Z</time></trkpt><trkpt lat="45.7310680245937" lon="9.574793059363085"><ele>279.66666666666663</ele><time>2026-03-28T09:42:21.996Z</time></trkpt><trkpt lat="45.73121941337509" lon="9.57498122885403"><ele>279.3333333333333</ele><time>2026-03-28T09:42:22.996Z</time></trkpt><trkpt lat="45.73138085727613" lon="9.575184132629587"><ele>279.0</ele><time>2026-03-28T09:42:23.996Z</time></trkpt><trkpt lat="45.73153433868936" lon="9.575373786635824"><ele>278.6666666666667</ele><time>2026-03-28T09:42:24.996Z</time></trkpt><trkpt lat="45.73167941571739" lon="9.575551629915509"><ele>278.33333333333337</ele><time>2026-03-28T09:42:25.996Z</time></trkpt><trkpt lat="45.73182543206535" lon="9.575736459471432"><ele>278.0</ele><time>2026-03-28T09:42:26.996Z</time></trkpt><trkpt lat="45.731985550209565" lon="9.575933281010773"><ele>278.6666666666667</ele><time>2026-03-28T09:42:27.996Z</time></trkpt><trkpt lat="45.732144041454866" lon="9.576134058945364"><ele>279.3333333333333</ele><time>2026-03-28T09:42:28.996Z</time></trkpt><trkpt lat="45.73230944925879" lon="9.576339492223713"><ele>280.0</ele><time>2026-03-28T09:42:29.996Z</time></trkpt><trkpt lat="45.73248002802632" lon="9.576554663317532"><ele>280.0</ele><time>2026-03-28T09:42:30.996Z</time></trkpt><trkpt lat="45.73264426361092" lon="9.576761306583286"><ele>280.0</ele><time>2026-03-28T09:42:31.996Z</time></trkpt><trkpt lat="45.73281011758544" lon="9.576972693428672"><ele>280.0</ele><time>2026-03-28T09:42:32.996Z</time></trkpt><trkpt lat="45.732963026322864" lon="9.577163965658295"><ele>280.0</ele><time>2026-03-28T09:42:33.996Z</time></trkpt><trkpt lat="45.733094536568274" lon="9.577326111513116"><ele>280.0</ele><time>2026-03-28T09:42:34.996Z</time></trkpt><trkpt lat="45.73321916471463" lon="9.577478235906032"><ele>280.0</ele><time>2026-03-28T09:42:35.996Z</time></trkpt><trkpt lat="45.733344413865034" lon="9.577632291283004"><ele>280.0</ele><time>2026-03-28T09:42:36.996Z</time></trkpt><trkpt lat="45.733463317352104" lon="9.577781750550324"><ele>280.0</ele><time>2026-03-28T09:42:37.996Z</time></trkpt><trkpt lat="45.733573228499594" lon="9.577925038821416"><ele>280.0</ele><time>2026-03-28T09:42:38.996Z</time></trkpt><trkpt lat="45.73367839155178" lon="9.57806018643204"><ele>280.0</ele><time>2026-03-28T09:42:39.996Z</time></trkpt><trkpt lat="45.733781872581574" lon="9.5781910557942"><ele>280.5</ele><time>2026-03-28T09:42:40.996Z</time></trkpt><trkpt lat="45.73388541754106" lon="9.578321467153575"><ele>281.0</ele><time>2026-03-28T09:42:41.996Z</time></trkpt><trkpt lat="45.73399020795248" lon="9.578455668190362"><ele>281.5</ele><time>2026-03-28T09:42:42.996Z</time></trkpt><trkpt lat="45.73410138019837" lon="9.57859391152557"><ele>282.0</ele><time>2026-03-28T09:42:43.996Z</time></trkpt><trkpt lat="45.734206924845374" lon="9.578725189542169"><ele>282.0</ele><time>2026-03-28T09:42:44.996Z</time></trkpt><trkpt lat="45.73431982242007" lon="9.578866266325102"><ele>282.0</ele><time>2026-03-28T09:42:45.996Z</time></trkpt><trkpt lat="45.73443906168727" lon="9.579012861563447"><ele>282.0</ele><time>2026-03-28T09:42:46.996Z</time></trkpt><trkpt lat="45.734563013131364" lon="9.579167037492851"><ele>282.0</ele><time>2026-03-28T09:42:47.996Z</time></trkpt><trkpt lat="45.734688955080706" lon="9.57932582121277"><ele>282.0</ele><time>2026-03-28T09:42:48.996Z</time></trkpt><trkpt lat="45.73481454221743" lon="9.579483961329926"><ele>282.0</ele><time>2026-03-28T09:42:49.996Z</time></trkpt><trkpt lat="45.734938550227255" lon="9.579637305564827"><ele>282.0</ele><time>2026-03-28T09:42:50.996Z</time></trkpt><trkpt lat="45.73505692662117" lon="9.57978276778588"><ele>282.0</ele><time>2026-03-28T09:42:51.996Z</time></trkpt><trkpt lat="45.73517229827643" lon="9.579918106155027"><ele>282.0</ele><time>2026-03-28T09:42:52.996Z</time></trkpt><trkpt lat="45.735290977735986" lon="9.580058696662597"><ele>282.25</ele><time>2026-03-28T09:42:53.996Z</time></trkpt><trkpt lat="45.7353993909472" lon="9.580196621482193"><ele>282.5</ele><time>2026-03-28T09:42:54.996Z</time></trkpt><trkpt lat="45.73550798712228" lon="9.580332628706373"><ele>282.75</ele><time>2026-03-28T09:42:55.996Z</time></trkpt><trkpt lat="45.735619071725154" lon="9.580472559538915"><ele>283.0</ele><time>2026-03-28T09:42:56.996Z</time></trkpt><trkpt lat="45.73572685778357" lon="9.5806092865868"><ele>283.0</ele><time>2026-03-28T09:42:57.996Z</time></trkpt><trkpt lat="45.73583432556241" lon="9.58074470404359"><ele>283.0</ele><time>2026-03-28T09:42:58.996Z</time></trkpt><trkpt lat="45.73594194380227" lon="9.580882612402347"><ele>283.0</ele><time>2026-03-28T09:42:59.996Z</time></trkpt><trkpt lat="45.73603987991626" lon="9.58100537220582"><ele>283.0</ele><time>2026-03-28T09:43:00.996Z</time></trkpt><trkpt lat="45.736131365839945" lon="9.581125126686054"><ele>283.2</ele><time>2026-03-28T09:43:01.996Z</time></trkpt><trkpt lat="45.736217931201125" lon="9.58123745201179"><ele>283.4</ele><time>2026-03-28T09:43:02.996Z</time></trkpt><trkpt lat="45.73629635563638" lon="9.581334724670054"><ele>283.59999999999997</ele><time>2026-03-28T09:43:03.996Z</time></trkpt><trkpt lat="45.73636595923907" lon="9.581427786527918"><ele>283.8</ele><time>2026-03-28T09:43:04.996Z</time></trkpt><trkpt lat="45.7364261260606" lon="9.581504691268531"><ele>284.0</ele><time>2026-03-28T09:43:05.996Z</time></trkpt><trkpt lat="45.73648342494919" lon="9.58157353225411"><ele>284.0</ele><time>2026-03-28T09:43:06.996Z</time></trkpt><trkpt lat="45.73656452090106" lon="9.581686406005279"><ele>284.0</ele><time>2026-03-28T09:43:08.996Z</time></trkpt><trkpt lat="45.736576282685945" lon="9.58178350297727"><ele>284.0</ele><time>2026-03-28T09:43:10.996Z</time></trkpt><trkpt lat="45.73658907269949" lon="9.581878036640006"><ele>284.0</ele><time>2026-03-28T09:43:12.996Z</time></trkpt><trkpt lat="45.73655798420941" lon="9.582100003341534"><ele>284.0</ele><time>2026-03-28T09:43:14.997Z</time></trkpt><trkpt lat="45.73659147760611" lon="9.58223015365707"><ele>283.59999999999997</ele><time>2026-03-28T09:43:15.997Z</time></trkpt><trkpt lat="45.73666473867732" lon="9.582331209039626"><ele>283.2</ele><time>2026-03-28T09:43:16.997Z</time></trkpt><trkpt lat="45.736757750336444" lon="9.582387352027247"><ele>282.79999999999995</ele><time>2026-03-28T09:43:17.997Z</time></trkpt><trkpt lat="45.73685751994388" lon="9.582405950304615"><ele>282.4</ele><time>2026-03-28T09:43:18.997Z</time></trkpt><trkpt lat="45.73696813202605" lon="9.582414564859805"><ele>282.0</ele><time>2026-03-28T09:43:19.997Z</time></trkpt><trkpt lat="45.73708398706404" lon="9.58244451493533"><ele>283.3333333333333</ele><time>2026-03-28T09:43:20.997Z</time></trkpt><trkpt lat="45.73722022346569" lon="9.58251495238596"><ele>284.66666666666663</ele><time>2026-03-28T09:43:21.997Z</time></trkpt><trkpt lat="45.73735848004265" lon="9.58263813177578"><ele>286.0</ele><time>2026-03-28T09:43:22.997Z</time></trkpt><trkpt lat="45.73750359777812" lon="9.58279608451831"><ele>286.0</ele><time>2026-03-28T09:43:23.997Z</time></trkpt><trkpt lat="45.737631519150185" lon="9.58295967335875"><ele>286.0</ele><time>2026-03-28T09:43:24.997Z</time></trkpt><trkpt lat="45.737760229443566" lon="9.58312746377079"><ele>286.0</ele><time>2026-03-28T09:43:25.997Z</time></trkpt><trkpt lat="45.73788218396323" lon="9.583298441394575"><ele>286.0</ele><time>2026-03-28T09:43:26.997Z</time></trkpt><trkpt lat="45.73801092163769" lon="9.583489933316557"><ele>286.0</ele><time>2026-03-28T09:43:27.997Z</time></trkpt><trkpt lat="45.73813873260767" lon="9.583679924159156"><ele>286.0</ele><time>2026-03-28T09:43:28.997Z</time></trkpt><trkpt lat="45.738275493319925" lon="9.583888539819958"><ele>286.66666666666663</ele><time>2026-03-28T09:43:29.997Z</time></trkpt><trkpt lat="45.738428172676684" lon="9.584117053451743"><ele>287.3333333333333</ele><time>2026-03-28T09:43:30.997Z</time></trkpt><trkpt lat="45.73858096969071" lon="9.584352671372189"><ele>288.0</ele><time>2026-03-28T09:43:31.997Z</time></trkpt><trkpt lat="45.73872800934185" lon="9.5845810196818"><ele>288.6666666666667</ele><time>2026-03-28T09:43:32.997Z</time></trkpt><trkpt lat="45.73888016829737" lon="9.584816603835016"><ele>289.33333333333337</ele><time>2026-03-28T09:43:33.997Z</time></trkpt><trkpt lat="45.73902214184469" lon="9.5850312339425"><ele>290.0</ele><time>2026-03-28T09:43:34.997Z</time></trkpt><trkpt lat="45.73916453337355" lon="9.585256745237794"><ele>290.5</ele><time>2026-03-28T09:43:35.997Z</time></trkpt><trkpt lat="45.73931962654174" lon="9.585496604595429"><ele>291.0</ele><time>2026-03-28T09:43:36.997Z</time></trkpt><trkpt lat="45.739478511185524" lon="9.585739062940178"><ele>291.0</ele><time>2026-03-28T09:43:37.997Z</time></trkpt><trkpt lat="45.73963813391588" lon="9.585990109426003"><ele>291.0</ele><time>2026-03-28T09:43:38.997Z</time></trkpt><trkpt lat="45.73979963638671" lon="9.58624118544261"><ele>290.0</ele><time>2026-03-28T09:43:39.997Z</time></trkpt><trkpt lat="45.73995768627742" lon="9.58648499124953"><ele>289.0</ele><time>2026-03-28T09:43:40.997Z</time></trkpt><trkpt lat="45.74012360248392" lon="9.586740938749571"><ele>289.5</ele><time>2026-03-28T09:43:41.997Z</time></trkpt><trkpt lat="45.74029774347033" lon="9.586998460065008"><ele>290.0</ele><time>2026-03-28T09:43:42.997Z</time></trkpt><trkpt lat="45.74046511775593" lon="9.587254583888104"><ele>290.0</ele><time>2026-03-28T09:43:43.997Z</time></trkpt><trkpt lat="45.74062171889357" lon="9.587493822952226"><ele>290.0</ele><time>2026-03-28T09:43:44.997Z</time></trkpt><trkpt lat="45.74076759807874" lon="9.587718106357615"><ele>290.0</ele><time>2026-03-28T09:43:45.997Z</time></trkpt><trkpt lat="45.74090901455338" lon="9.587926017743968"><ele>290.6666666666667</ele><time>2026-03-28T09:43:46.997Z</time></trkpt><trkpt lat="45.74104976578006" lon="9.588121230640288"><ele>291.3333333333333</ele><time>2026-03-28T09:43:47.997Z</time></trkpt><trkpt lat="45.7411827322743" lon="9.58831437089299"><ele>292.0</ele><time>2026-03-28T09:43:48.997Z</time></trkpt><trkpt lat="45.741300031422284" lon="9.588512284862915"><ele>291.0</ele><time>2026-03-28T09:43:49.997Z</time></trkpt><trkpt lat="45.741394393741054" lon="9.588725036047686"><ele>290.0</ele><time>2026-03-28T09:43:50.997Z</time></trkpt><trkpt lat="45.74145951980618" lon="9.58894387161709"><ele>289.0</ele><time>2026-03-28T09:43:51.997Z</time></trkpt><trkpt lat="45.74149735950178" lon="9.58916461056231"><ele>289.0</ele><time>2026-03-28T09:43:52.997Z</time></trkpt><trkpt lat="45.74151203758946" lon="9.58937903491829"><ele>289.0</ele><time>2026-03-28T09:43:53.997Z</time></trkpt><trkpt lat="45.741511417224004" lon="9.589585745228689"><ele>289.0</ele><time>2026-03-28T09:43:54.997Z</time></trkpt><trkpt lat="45.74149637447511" lon="9.58978398915267"><ele>289.0</ele><time>2026-03-28T09:43:55.997Z</time></trkpt><trkpt lat="45.74147809080629" lon="9.589982919374117"><ele>289.0</ele><time>2026-03-28T09:43:56.997Z</time></trkpt><trkpt lat="45.74146472720127" lon="9.590179987509211"><ele>289.0</ele><time>2026-03-28T09:43:57.997Z</time></trkpt><trkpt lat="45.741454694497016" lon="9.590375330184232"><ele>289.0</ele><time>2026-03-28T09:43:58.997Z</time></trkpt><trkpt lat="45.74144475688793" lon="9.590570721141722"><ele>289.0</ele><time>2026-03-28T09:43:59.997Z</time></trkpt><trkpt lat="45.74143252870175" lon="9.590760231324817"><ele>288.75</ele><time>2026-03-28T09:44:00.997Z</time></trkpt><trkpt lat="45.74142027241038" lon="9.590940657937194"><ele>288.5</ele><time>2026-03-28T09:44:01.997Z</time></trkpt><trkpt lat="45.74140797034325" lon="9.591119254996265"><ele>288.25</ele><time>2026-03-28T09:44:02.997Z</time></trkpt><trkpt lat="45.74139200370758" lon="9.591286432780517"><ele>288.0</ele><time>2026-03-28T09:44:03.997Z</time></trkpt><trkpt lat="45.74138117517838" lon="9.59145841807133"><ele>287.0</ele><time>2026-03-28T09:44:04.997Z</time></trkpt><trkpt lat="45.74137324660709" lon="9.591629353323949"><ele>286.0</ele><time>2026-03-28T09:44:05.997Z</time></trkpt><trkpt lat="45.74136084299892" lon="9.591811384660115"><ele>285.0</ele><time>2026-03-28T09:44:06.997Z</time></trkpt><trkpt lat="45.741344847629485" lon="9.59201934436683"><ele>284.0</ele><time>2026-03-28T09:44:07.997Z</time></trkpt><trkpt lat="45.741328808324425" lon="9.592230305656656"><ele>282.33333333333337</ele><time>2026-03-28T09:44:08.997Z</time></trkpt><trkpt lat="45.741312497052974" lon="9.59245180609693"><ele>280.6666666666667</ele><time>2026-03-28T09:44:09.997Z</time></trkpt><trkpt lat="45.74129969726413" lon="9.592683547521437"><ele>279.0</ele><time>2026-03-28T09:44:10.997Z</time></trkpt><trkpt lat="45.74128701734563" lon="9.592962241834675"><ele>276.6666666666667</ele><time>2026-03-28T09:44:11.997Z</time></trkpt><trkpt lat="45.74126269349229" lon="9.59325966398933"><ele>274.33333333333337</ele><time>2026-03-28T09:44:12.997Z</time></trkpt><trkpt lat="45.7412382520849" lon="9.593564492280398"><ele>272.0</ele><time>2026-03-28T09:44:13.997Z</time></trkpt><trkpt lat="45.741221552195434" lon="9.593866173294693"><ele>272.0</ele><time>2026-03-28T09:44:14.997Z</time></trkpt><trkpt lat="45.741200397723276" lon="9.59416887896944"><ele>272.0</ele><time>2026-03-28T09:44:15.997Z</time></trkpt><trkpt lat="45.74118235111076" lon="9.59446017801332"><ele>272.0</ele><time>2026-03-28T09:44:16.997Z</time></trkpt><trkpt lat="45.741165555526976" lon="9.594745470905947"><ele>273.0</ele><time>2026-03-28T09:44:17.997Z</time></trkpt><trkpt lat="45.74114789200184" lon="9.595017191988283"><ele>274.0</ele><time>2026-03-28T09:44:18.997Z</time></trkpt><trkpt lat="45.74113017599338" lon="9.595279682333237"><ele>275.0</ele><time>2026-03-28T09:44:19.997Z</time></trkpt><trkpt lat="45.741110169926806" lon="9.59554176953014"><ele>275.0</ele><time>2026-03-28T09:44:20.997Z</time></trkpt><trkpt lat="45.741092539144304" lon="9.59580125526704"><ele>275.0</ele><time>2026-03-28T09:44:21.996Z</time></trkpt><trkpt lat="45.74107867537914" lon="9.596072086045094"><ele>275.0</ele><time>2026-03-28T09:44:22.996Z</time></trkpt><trkpt lat="45.74107407693576" lon="9.596346551694317"><ele>274.0</ele><time>2026-03-28T09:44:23.996Z</time></trkpt><trkpt lat="45.74108742047158" lon="9.596618304713019"><ele>273.0</ele><time>2026-03-28T09:44:24.996Z</time></trkpt><trkpt lat="45.7411167807869" lon="9.596877301135256"><ele>272.0</ele><time>2026-03-28T09:44:25.996Z</time></trkpt><trkpt lat="45.74116280369892" lon="9.597138358131037"><ele>272.0</ele><time>2026-03-28T09:44:26.996Z</time></trkpt><trkpt lat="45.74122359009847" lon="9.597398849774375"><ele>272.0</ele><time>2026-03-28T09:44:27.996Z</time></trkpt><trkpt lat="45.74129654200129" lon="9.597662222531657"><ele>272.0</ele><time>2026-03-28T09:44:28.996Z</time></trkpt><trkpt lat="45.74137154746541" lon="9.597934350313414"><ele>272.0</ele><time>2026-03-28T09:44:29.996Z</time></trkpt><trkpt lat="45.74144612094721" lon="9.598192754500397"><ele>272.0</ele><time>2026-03-28T09:44:30.996Z</time></trkpt><trkpt lat="45.741515651566196" lon="9.598442343492728"><ele>272.0</ele><time>2026-03-28T09:44:31.996Z</time></trkpt><trkpt lat="45.74157910551444" lon="9.598677766166364"><ele>271.33333333333337</ele><time>2026-03-28T09:44:32.996Z</time></trkpt><trkpt lat="45.74163856115747" lon="9.598900696605481"><ele>270.6666666666667</ele><time>2026-03-28T09:44:33.996Z</time></trkpt><trkpt lat="45.74169903247822" lon="9.599126161891686"><ele>270.0</ele><time>2026-03-28T09:44:34.996Z</time></trkpt><trkpt lat="45.7417600498103" lon="9.599343672810958"><ele>270.0</ele><time>2026-03-28T09:44:35.996Z</time></trkpt><trkpt lat="45.74182172321527" lon="9.59955595477538"><ele>270.0</ele><time>2026-03-28T09:44:36.996Z</time></trkpt><trkpt lat="45.7418933669726" lon="9.599743020573806"><ele>270.0</ele><time>2026-03-28T09:44:37.996Z</time></trkpt><trkpt lat="45.74197797653958" lon="9.599912155882912"><ele>270.25</ele><time>2026-03-28T09:44:38.996Z</time></trkpt><trkpt lat="45.74208363833017" lon="9.600069160591602"><ele>270.5</ele><time>2026-03-28T09:44:39.996Z</time></trkpt><trkpt lat="45.74219957115539" lon="9.600194636960238"><ele>270.75</ele><time>2026-03-28T09:44:40.996Z</time></trkpt><trkpt lat="45.74231616422202" lon="9.600281006588352"><ele>271.0</ele><time>2026-03-28T09:44:41.996Z</time></trkpt><trkpt lat="45.74242581459507" lon="9.600336658903263"><ele>270.66666666666663</ele><time>2026-03-28T09:44:42.996Z</time></trkpt><trkpt lat="45.74252785543844" lon="9.60038057441265"><ele>270.3333333333333</ele><time>2026-03-28T09:44:43.996Z</time></trkpt><trkpt lat="45.742621716637636" lon="9.600413260602837"><ele>270.0</ele><time>2026-03-28T09:44:44.996Z</time></trkpt><trkpt lat="45.7427051772048" lon="9.60043655321875"><ele>269.6666666666667</ele><time>2026-03-28T09:44:45.996Z</time></trkpt><trkpt lat="45.74278597460051" lon="9.600456201866688"><ele>269.33333333333337</ele><time>2026-03-28T09:44:46.996Z</time></trkpt><trkpt lat="45.742860375894686" lon="9.60047434489441"><ele>269.0</ele><time>2026-03-28T09:44:47.996Z</time></trkpt><trkpt lat="45.74292346602174" lon="9.600490649369439"><ele>269.0</ele><time>2026-03-28T09:44:48.996Z</time></trkpt><trkpt lat="45.743036702345414" lon="9.60051824025049"><ele>269.0</ele><time>2026-03-28T09:44:50.996Z</time></trkpt><trkpt lat="45.743138416093934" lon="9.60053622048512"><ele>269.0</ele><time>2026-03-28T09:44:52.996Z</time></trkpt><trkpt lat="45.743218311968505" lon="9.60055433423437"><ele>269.0</ele><time>2026-03-28T09:44:54.996Z</time></trkpt><trkpt lat="45.743288672219386" lon="9.600577995949372"><ele>269.0</ele><time>2026-03-28T09:44:57.996Z</time></trkpt><trkpt lat="45.7433751945646" lon="9.600598860108615"><ele>269.0</ele><time>2026-03-28T09:45:01.996Z</time></trkpt><trkpt lat="45.743479096584565" lon="9.60062261473739"><ele>269.0</ele><time>2026-03-28T09:45:02.996Z</time></trkpt><trkpt lat="45.74358885251537" lon="9.60065590998685"><ele>269.0</ele><time>2026-03-28T09:45:03.996Z</time></trkpt><trkpt lat="45.74371182583696" lon="9.6006893334028"><ele>269.0</ele><time>2026-03-28T09:45:04.996Z</time></trkpt><trkpt lat="45.74385301872073" lon="9.600724148038571"><ele>269.75</ele><time>2026-03-28T09:45:05.996Z</time></trkpt><trkpt lat="45.74400323022445" lon="9.600761259819437"><ele>270.5</ele><time>2026-03-28T09:45:06.996Z</time></trkpt><trkpt lat="45.74414804452556" lon="9.60080071421582"><ele>271.25</ele><time>2026-03-28T09:45:07.996Z</time></trkpt><trkpt lat="45.744270142115084" lon="9.600834851175748"><ele>272.0</ele><time>2026-03-28T09:45:08.996Z</time></trkpt><trkpt lat="45.74437571413643" lon="9.6008377798097"><ele>272.6</ele><time>2026-03-28T09:45:09.996Z</time></trkpt><trkpt lat="45.74446860494786" lon="9.600883850980601"><ele>273.2</ele><time>2026-03-28T09:45:10.996Z</time></trkpt><trkpt lat="45.74456495223763" lon="9.600884625102175"><ele>273.8</ele><time>2026-03-28T09:45:11.996Z</time></trkpt><trkpt lat="45.74467304421826" lon="9.600922468284839"><ele>274.4</ele><time>2026-03-28T09:45:12.996Z</time></trkpt><trkpt lat="45.74481070469198" lon="9.600951877932236"><ele>275.0</ele><time>2026-03-28T09:45:13.996Z</time></trkpt><trkpt lat="45.74496110265616" lon="9.60100208921021"><ele>275.0</ele><time>2026-03-28T09:45:14.996Z</time></trkpt><trkpt lat="45.74512215815351" lon="9.601054589702915"><ele>275.0</ele><time>2026-03-28T09:45:15.996Z</time></trkpt><trkpt lat="45.745269688082175" lon="9.601103786545425"><ele>275.0</ele><time>2026-03-28T09:45:16.996Z</time></trkpt><trkpt lat="45.745411250724395" lon="9.601148481571606"><ele>275.33333333333337</ele><time>2026-03-28T09:45:17.996Z</time></trkpt><trkpt lat="45.74554940789828" lon="9.601186693730462"><ele>275.6666666666667</ele><time>2026-03-28T09:45:18.996Z</time></trkpt><trkpt lat="45.74570075123295" lon="9.601225250286003"><ele>276.0</ele><time>2026-03-28T09:45:19.996Z</time></trkpt><trkpt lat="45.745855640265276" lon="9.60126518467127"><ele>276.0</ele><time>2026-03-28T09:45:20.996Z</time></trkpt><trkpt lat="45.74602269927009" lon="9.601308323803593"><ele>276.0</ele><time>2026-03-28T09:45:21.996Z</time></trkpt><trkpt lat="45.7461808261933" lon="9.601350805144767"><ele>276.0</ele><time>2026-03-28T09:45:22.996Z</time></trkpt><trkpt lat="45.746317462874" lon="9.601381613743456"><ele>276.2</ele><time>2026-03-28T09:45:23.996Z</time></trkpt><trkpt lat="45.746439403276774" lon="9.601403711214822"><ele>276.40000000000003</ele><time>2026-03-28T09:45:24.996Z</time></trkpt><trkpt lat="45.74655929839053" lon="9.601425353349741"><ele>276.6</ele><time>2026-03-28T09:45:25.996Z</time></trkpt><trkpt lat="45.74666495562179" lon="9.601440855267496"><ele>276.8</ele><time>2026-03-28T09:45:26.996Z</time></trkpt><trkpt lat="45.74675032500098" lon="9.601452052253855"><ele>277.0</ele><time>2026-03-28T09:45:27.996Z</time></trkpt><trkpt lat="45.74681334637034" lon="9.601455113928028"><ele>277.0</ele><time>2026-03-28T09:45:28.996Z</time></trkpt><trkpt lat="45.74689129464578" lon="9.601474058282058"><ele>277.0</ele><time>2026-03-28T09:45:30.996Z</time></trkpt><trkpt lat="45.74701721575186" lon="9.60146331894293"><ele>277.0</ele><time>2026-03-28T09:45:59.996Z</time></trkpt><trkpt lat="45.74711870920241" lon="9.601471428817808"><ele>277.0</ele><time>2026-03-28T09:46:00.996Z</time></trkpt><trkpt lat="45.74721856042041" lon="9.601480692773148"><ele>277.0</ele><time>2026-03-28T09:46:01.996Z</time></trkpt><trkpt lat="45.74733746024114" lon="9.601501991072414"><ele>277.0</ele><time>2026-03-28T09:46:02.996Z</time></trkpt><trkpt lat="45.74747071866868" lon="9.601516577743281"><ele>277.0</ele><time>2026-03-28T09:46:03.996Z</time></trkpt><trkpt lat="45.74760050644743" lon="9.601529082843596"><ele>277.0</ele><time>2026-03-28T09:46:04.996Z</time></trkpt><trkpt lat="45.74775027666803" lon="9.601546629112686"><ele>277.0</ele><time>2026-03-28T09:46:05.996Z</time></trkpt><trkpt lat="45.74791205256193" lon="9.601566328171463"><ele>277.0</ele><time>2026-03-28T09:46:06.996Z</time></trkpt><trkpt lat="45.74806078814757" lon="9.601586457698698"><ele>277.0</ele><time>2026-03-28T09:46:07.996Z</time></trkpt><trkpt lat="45.74820081176799" lon="9.601607575761262"><ele>277.0</ele><time>2026-03-28T09:46:08.996Z</time></trkpt><trkpt lat="45.748331290357086" lon="9.601620261706195"><ele>277.0</ele><time>2026-03-28T09:46:09.996Z</time></trkpt><trkpt lat="45.748459031586364" lon="9.601643751486128"><ele>277.6</ele><time>2026-03-28T09:46:10.996Z</time></trkpt><trkpt lat="45.74857960044665" lon="9.601673609751932"><ele>278.2</ele><time>2026-03-28T09:46:11.996Z</time></trkpt><trkpt lat="45.74869176745129" lon="9.601701747403608"><ele>278.8</ele><time>2026-03-28T09:46:12.996Z</time></trkpt><trkpt lat="45.74878966703243" lon="9.601722748154815"><ele>279.4</ele><time>2026-03-28T09:46:13.996Z</time></trkpt><trkpt lat="45.74887720775034" lon="9.601755707894577"><ele>280.0</ele><time>2026-03-28T09:46:14.996Z</time></trkpt><trkpt lat="45.74895512880872" lon="9.60182005927232"><ele>280.0</ele><time>2026-03-28T09:46:15.996Z</time></trkpt><trkpt lat="45.74901714069642" lon="9.601884697309663"><ele>280.0</ele><time>2026-03-28T09:46:16.996Z</time></trkpt><trkpt lat="45.74910494005245" lon="9.601967352864119"><ele>280.0</ele><time>2026-03-28T09:46:18.996Z</time></trkpt><trkpt lat="45.74918111605928" lon="9.602021128596993"><ele>280.0</ele><time>2026-03-28T09:46:24.997Z</time></trkpt><trkpt lat="45.74926583271192" lon="9.602060111143977"><ele>280.0</ele><time>2026-03-28T09:46:25.997Z</time></trkpt><trkpt lat="45.749394015887454" lon="9.602071843466717"><ele>277.0</ele><time>2026-03-28T09:46:26.997Z</time></trkpt><trkpt lat="45.74955867053178" lon="9.602076819724392"><ele>274.0</ele><time>2026-03-28T09:46:27.996Z</time></trkpt><trkpt lat="45.74975664661935" lon="9.602097619348301"><ele>271.0</ele><time>2026-03-28T09:46:28.995Z</time></trkpt><trkpt lat="45.749945567984355" lon="9.602120238950027"><ele>271.0</ele><time>2026-03-28T09:46:29.995Z</time></trkpt><trkpt lat="45.750119384940774" lon="9.602145667039913"><ele>271.0</ele><time>2026-03-28T09:46:30.996Z</time></trkpt><trkpt lat="45.750283967982654" lon="9.602160881094353"><ele>271.0</ele><time>2026-03-28T09:46:31.996Z</time></trkpt><trkpt lat="45.75043718188421" lon="9.602156348358838"><ele>272.3333333333333</ele><time>2026-03-28T09:46:32.996Z</time></trkpt><trkpt lat="45.75059228979773" lon="9.602115878125684"><ele>273.6666666666667</ele><time>2026-03-28T09:46:33.996Z</time></trkpt><trkpt lat="45.75074941582358" lon="9.602015072716233"><ele>275.0</ele><time>2026-03-28T09:46:34.996Z</time></trkpt><trkpt lat="45.75090472388397" lon="9.601873527352842"><ele>273.6666666666667</ele><time>2026-03-28T09:46:35.996Z</time></trkpt><trkpt lat="45.75105577570668" lon="9.60171266895078"><ele>272.3333333333333</ele><time>2026-03-28T09:46:36.996Z</time></trkpt><trkpt lat="45.7511684840731" lon="9.601568753420473"><ele>271.0</ele><time>2026-03-28T09:46:37.996Z</time></trkpt><trkpt lat="45.751276692615484" lon="9.601474484867632"><ele>271.0</ele><time>2026-03-28T09:46:38.996Z</time></trkpt><trkpt lat="45.75139355353472" lon="9.601456239890638"><ele>271.0</ele><time>2026-03-28T09:46:39.996Z</time></trkpt><trkpt lat="45.751522759711115" lon="9.601524484011694"><ele>271.0</ele><time>2026-03-28T09:46:40.996Z</time></trkpt><trkpt lat="45.751623280456926" lon="9.6016050042102"><ele>271.0</ele><time>2026-03-28T09:46:41.996Z</time></trkpt><trkpt lat="45.75170847381439" lon="9.601661964147777"><ele>271.0</ele><time>2026-03-28T09:46:42.996Z</time></trkpt><trkpt lat="45.75179088603601" lon="9.601763585574885"><ele>271.0</ele><time>2026-03-28T09:46:44.996Z</time></trkpt><trkpt lat="45.75173920698285" lon="9.601888143234756"><ele>271.0</ele><time>2026-03-28T09:46:46.996Z</time></trkpt><trkpt lat="45.751661473870634" lon="9.601883646086767"><ele>271.0</ele><time>2026-03-28T09:46:47.996Z</time></trkpt><trkpt lat="45.75157012051801" lon="9.601777172317266"><ele>271.0</ele><time>2026-03-28T09:46:48.996Z</time></trkpt><trkpt lat="45.75146896686155" lon="9.601693112295187"><ele>271.0</ele><time>2026-03-28T09:46:49.996Z</time></trkpt><trkpt lat="45.75136015485812" lon="9.60168514490326"><ele>271.0</ele><time>2026-03-28T09:46:50.996Z</time></trkpt><trkpt lat="45.751234021831756" lon="9.601746522401164"><ele>271.0</ele><time>2026-03-28T09:46:51.996Z</time></trkpt><trkpt lat="45.751127952297686" lon="9.601870304618782"><ele>271.0</ele><time>2026-03-28T09:46:52.996Z</time></trkpt><trkpt lat="45.751057422803974" lon="9.602016348278996"><ele>268.0</ele><time>2026-03-28T09:46:53.996Z</time></trkpt><trkpt lat="45.750997762637276" lon="9.602173304682903"><ele>265.0</ele><time>2026-03-28T09:46:54.996Z</time></trkpt><trkpt lat="45.75092031886565" lon="9.602323770075108"><ele>262.0</ele><time>2026-03-28T09:46:55.996Z</time></trkpt><trkpt lat="45.75083309298018" lon="9.602452585153952"><ele>259.0</ele><time>2026-03-28T09:46:56.996Z</time></trkpt><trkpt lat="45.75074253759778" lon="9.60256998146929"><ele>259.0</ele><time>2026-03-28T09:46:57.996Z</time></trkpt><trkpt lat="45.75063096742463" lon="9.602650227437312"><ele>259.0</ele><time>2026-03-28T09:46:58.996Z</time></trkpt><trkpt lat="45.750517865207954" lon="9.602705712464736"><ele>259.0</ele><time>2026-03-28T09:46:59.996Z</time></trkpt><trkpt lat="45.75042567596933" lon="9.602784934757832"><ele>259.0</ele><time>2026-03-28T09:47:00.996Z</time></trkpt><trkpt lat="45.75038119918297" lon="9.602880614953916"><ele>259.0</ele><time>2026-03-28T09:47:01.996Z</time></trkpt><trkpt lat="45.75038083603809" lon="9.603001264880056"><ele>257.4</ele><time>2026-03-28T09:47:02.996Z</time></trkpt><trkpt lat="45.750414927269404" lon="9.603139423254008"><ele>255.79999999999998</ele><time>2026-03-28T09:47:03.996Z</time></trkpt><trkpt lat="45.750451918059746" lon="9.60324924445167"><ele>254.20000000000002</ele><time>2026-03-28T09:47:04.996Z</time></trkpt><trkpt lat="45.75047670085402" lon="9.60335811688051"><ele>252.60000000000002</ele><time>2026-03-28T09:47:05.996Z</time></trkpt><trkpt lat="45.75051493148946" lon="9.60348736633983"><ele>251.0</ele><time>2026-03-28T09:47:06.996Z</time></trkpt><trkpt lat="45.75054884349768" lon="9.60363167345537"><ele>251.0</ele><time>2026-03-28T09:47:07.996Z</time></trkpt><trkpt lat="45.750579819032104" lon="9.603774816920081"><ele>251.00000000000003</ele><time>2026-03-28T09:47:08.996Z</time></trkpt><trkpt lat="45.75061463288954" lon="9.603927519958182"><ele>251.00000000000003</ele><time>2026-03-28T09:47:09.997Z</time></trkpt><trkpt lat="45.75064917146157" lon="9.60407602339355"><ele>251.0</ele><time>2026-03-28T09:47:10.997Z</time></trkpt><trkpt lat="45.750681892019635" lon="9.604233029868498"><ele>251.0</ele><time>2026-03-28T09:47:11.997Z</time></trkpt><trkpt lat="45.750718440792866" lon="9.604403132078703"><ele>251.0</ele><time>2026-03-28T09:47:12.997Z</time></trkpt><trkpt lat="45.75075837878774" lon="9.604576484703344"><ele>251.0</ele><time>2026-03-28T09:47:13.997Z</time></trkpt><trkpt lat="45.75079880196519" lon="9.60476293057452"><ele>251.0</ele><time>2026-03-28T09:47:14.997Z</time></trkpt><trkpt lat="45.75083709614131" lon="9.604945412934427"><ele>251.0</ele><time>2026-03-28T09:47:15.997Z</time></trkpt><trkpt lat="45.75087512083064" lon="9.60511905811104"><ele>251.0</ele><time>2026-03-28T09:47:16.997Z</time></trkpt><trkpt lat="45.75091287660902" lon="9.605305173127606"><ele>251.0</ele><time>2026-03-28T09:47:17.997Z</time></trkpt><trkpt lat="45.75094232093005" lon="9.605487973500379"><ele>251.0</ele><time>2026-03-28T09:47:18.997Z</time></trkpt><trkpt lat="45.750966787656964" lon="9.605668955518874"><ele>251.0</ele><time>2026-03-28T09:47:19.997Z</time></trkpt><trkpt lat="45.75097904981066" lon="9.605831880497563"><ele>251.0</ele><time>2026-03-28T09:47:20.997Z</time></trkpt><trkpt lat="45.75098295491779" lon="9.605993295473759"><ele>251.00000000000003</ele><time>2026-03-28T09:47:21.997Z</time></trkpt><trkpt lat="45.750970109073" lon="9.606153778256441"><ele>251.00000000000003</ele><time>2026-03-28T09:47:22.997Z</time></trkpt><trkpt lat="45.75095166086745" lon="9.606315800410282"><ele>251.0</ele><time>2026-03-28T09:47:23.997Z</time></trkpt><trkpt lat="45.75093035645678" lon="9.606462003758041"><ele>251.0</ele><time>2026-03-28T09:47:24.997Z</time></trkpt><trkpt lat="45.75090696996883" lon="9.606607495673536"><ele>251.0</ele><time>2026-03-28T09:47:25.997Z</time></trkpt><trkpt lat="45.750879599563014" lon="9.606765789211856"><ele>251.00000000000003</ele><time>2026-03-28T09:47:26.997Z</time></trkpt><trkpt lat="45.750848432224025" lon="9.606912503253572"><ele>251.00000000000003</ele><time>2026-03-28T09:47:27.997Z</time></trkpt><trkpt lat="45.750824106474816" lon="9.607044698645652"><ele>251.0</ele><time>2026-03-28T09:47:28.997Z</time></trkpt><trkpt lat="45.75079795164579" lon="9.60716847010368"><ele>251.0</ele><time>2026-03-28T09:47:29.997Z</time></trkpt><trkpt lat="45.75077356211639" lon="9.6072823699206"><ele>251.00000000000003</ele><time>2026-03-28T09:47:30.997Z</time></trkpt><trkpt lat="45.75075283873556" lon="9.607397054954701"><ele>251.0</ele><time>2026-03-28T09:47:31.997Z</time></trkpt><trkpt lat="45.750729554563684" lon="9.607505635642458"><ele>251.0</ele><time>2026-03-28T09:47:32.997Z</time></trkpt><trkpt lat="45.75070376342574" lon="9.607604032970725"><ele>251.0</ele><time>2026-03-28T09:47:33.997Z</time></trkpt><trkpt lat="45.7506653129928" lon="9.607720496083468"><ele>251.00000000000003</ele><time>2026-03-28T09:47:34.997Z</time></trkpt><trkpt lat="45.750615162762664" lon="9.607851595982755"><ele>251.0</ele><time>2026-03-28T09:47:35.997Z</time></trkpt><trkpt lat="45.7505338433692" lon="9.607989568399422"><ele>251.0</ele><time>2026-03-28T09:47:36.997Z</time></trkpt><trkpt lat="45.75044150438849" lon="9.608128157458083"><ele>251.0</ele><time>2026-03-28T09:47:37.997Z</time></trkpt><trkpt lat="45.75034442022667" lon="9.608236101505655"><ele>251.0</ele><time>2026-03-28T09:47:38.997Z</time></trkpt><trkpt lat="45.75023165756067" lon="9.608311684228745"><ele>251.0</ele><time>2026-03-28T09:47:39.997Z</time></trkpt><trkpt lat="45.7501185614697" lon="9.608362072522407"><ele>251.0</ele><time>2026-03-28T09:47:40.997Z</time></trkpt><trkpt lat="45.750004659204976" lon="9.608408199962971"><ele>251.00000000000003</ele><time>2026-03-28T09:47:41.997Z</time></trkpt><trkpt lat="45.74989441475117" lon="9.60844751294933"><ele>251.00000000000003</ele><time>2026-03-28T09:47:42.997Z</time></trkpt><trkpt lat="45.749795921177416" lon="9.60848035998654"><ele>251.0</ele><time>2026-03-28T09:47:43.997Z</time></trkpt><trkpt lat="45.74970663814011" lon="9.60850981800221"><ele>251.0</ele><time>2026-03-28T09:47:44.997Z</time></trkpt><trkpt lat="45.749623526540944" lon="9.608538353774275"><ele>251.00000000000003</ele><time>2026-03-28T09:47:45.997Z</time></trkpt><trkpt lat="45.74954529092528" lon="9.608566477650504"><ele>251.0</ele><time>2026-03-28T09:47:46.997Z</time></trkpt><trkpt lat="45.74946102936569" lon="9.60858231282872"><ele>251.0</ele><time>2026-03-28T09:47:47.997Z</time></trkpt><trkpt lat="45.749378950895654" lon="9.608603551254214"><ele>251.0</ele><time>2026-03-28T09:47:48.997Z</time></trkpt><trkpt lat="45.74930225919289" lon="9.608624165793644"><ele>251.00000000000003</ele><time>2026-03-28T09:47:49.997Z</time></trkpt><trkpt lat="45.749229765392165" lon="9.608644079435445"><ele>251.0</ele><time>2026-03-28T09:47:50.997Z</time></trkpt><trkpt lat="45.74915693301637" lon="9.608655649720582"><ele>252.00000000000003</ele><time>2026-03-28T09:47:51.997Z</time></trkpt><trkpt lat="45.74907950536425" lon="9.608666172011262"><ele>253.0</ele><time>2026-03-28T09:47:52.997Z</time></trkpt><trkpt lat="45.748995529578764" lon="9.608680772764282"><ele>254.0</ele><time>2026-03-28T09:47:53.997Z</time></trkpt><trkpt lat="45.74890298636029" lon="9.608698895747597"><ele>255.0</ele><time>2026-03-28T09:47:54.997Z</time></trkpt><trkpt lat="45.74881413474473" lon="9.60870824124263"><ele>256.0</ele><time>2026-03-28T09:47:55.997Z</time></trkpt><trkpt lat="45.74872293944991" lon="9.60871364393722"><ele>257.0</ele><time>2026-03-28T09:47:56.997Z</time></trkpt><trkpt lat="45.74862333525629" lon="9.608724357744027"><ele>258.6</ele><time>2026-03-28T09:47:57.997Z</time></trkpt><trkpt lat="45.7485216246193" lon="9.608727354079939"><ele>260.2</ele><time>2026-03-28T09:47:58.997Z</time></trkpt><trkpt lat="45.74841297095067" lon="9.60873285032338"><ele>261.8</ele><time>2026-03-28T09:47:59.997Z</time></trkpt><trkpt lat="45.74830156888702" lon="9.608729175396498"><ele>263.4</ele><time>2026-03-28T09:48:00.997Z</time></trkpt><trkpt lat="45.74818771629947" lon="9.608716723852245"><ele>265.0</ele><time>2026-03-28T09:48:01.997Z</time></trkpt><trkpt lat="45.74807268288379" lon="9.608697484958341"><ele>265.0</ele><time>2026-03-28T09:48:02.997Z</time></trkpt><trkpt lat="45.74795493950538" lon="9.608668785200521"><ele>265.0</ele><time>2026-03-28T09:48:03.997Z</time></trkpt><trkpt lat="45.74783111480688" lon="9.60865032762775"><ele>265.0</ele><time>2026-03-28T09:48:04.997Z</time></trkpt><trkpt lat="45.74770936737606" lon="9.608622447921958"><ele>265.0</ele><time>2026-03-28T09:48:05.997Z</time></trkpt><trkpt lat="45.74759254090853" lon="9.608594978134915"><ele>261.66666666666663</ele><time>2026-03-28T09:48:06.997Z</time></trkpt><trkpt lat="45.747458450707086" lon="9.608579066383284"><ele>258.3333333333333</ele><time>2026-03-28T09:48:07.997Z</time></trkpt><trkpt lat="45.747307156010756" lon="9.60859560027478"><ele>255.0</ele><time>2026-03-28T09:48:08.997Z</time></trkpt><trkpt lat="45.74713551323351" lon="9.608655852248742"><ele>258.0</ele><time>2026-03-28T09:48:09.997Z</time></trkpt><trkpt lat="45.746976914843245" lon="9.608746686208837"><ele>261.0</ele><time>2026-03-28T09:48:10.997Z</time></trkpt><trkpt lat="45.7468358743275" lon="9.60883706832326"><ele>264.0</ele><time>2026-03-28T09:48:11.997Z</time></trkpt><trkpt lat="45.74670484845713" lon="9.608923337644937"><ele>264.25</ele><time>2026-03-28T09:48:12.997Z</time></trkpt><trkpt lat="45.7465838793109" lon="9.609006120054627"><ele>264.5</ele><time>2026-03-28T09:48:13.997Z</time></trkpt><trkpt lat="45.74647030479956" lon="9.609086859196424"><ele>264.75</ele><time>2026-03-28T09:48:14.997Z</time></trkpt><trkpt lat="45.74636071051416" lon="9.609139592604011"><ele>265.0</ele><time>2026-03-28T09:48:15.997Z</time></trkpt><trkpt lat="45.746240323186264" lon="9.60916124621356"><ele>265.0</ele><time>2026-03-28T09:48:16.997Z</time></trkpt><trkpt lat="45.74612367599653" lon="9.609161089781109"><ele>265.0</ele><time>2026-03-28T09:48:17.997Z</time></trkpt><trkpt lat="45.746021971747396" lon="9.609178877691845"><ele>265.0</ele><time>2026-03-28T09:48:18.997Z</time></trkpt><trkpt lat="45.74593998363502" lon="9.609198652217236"><ele>265.0</ele><time>2026-03-28T09:48:19.997Z</time></trkpt><trkpt lat="45.745870571719315" lon="9.609220007891572"><ele>265.0</ele><time>2026-03-28T09:48:20.997Z</time></trkpt><trkpt lat="45.74576943399856" lon="9.60924845863697"><ele>264.0</ele><time>2026-03-28T09:48:22.997Z</time></trkpt><trkpt lat="45.74575646578289" lon="9.60940849860484"><ele>263.0</ele><time>2026-03-28T09:48:23.997Z</time></trkpt><trkpt lat="45.74574785475849" lon="9.609500836383743"><ele>262.0</ele><time>2026-03-28T09:48:24.997Z</time></trkpt><trkpt lat="45.74577376059834" lon="9.609604404504761"><ele>261.0</ele><time>2026-03-28T09:48:25.997Z</time></trkpt><trkpt lat="45.74583916926661" lon="9.60972894115047"><ele>260.0</ele><time>2026-03-28T09:48:26.997Z</time></trkpt><trkpt lat="45.74589249761692" lon="9.609834764706005"><ele>263.4</ele><time>2026-03-28T09:48:27.997Z</time></trkpt><trkpt lat="45.745932062978156" lon="9.609926084542154"><ele>266.8</ele><time>2026-03-28T09:48:28.997Z</time></trkpt><trkpt lat="45.74598169607342" lon="9.610042022984876"><ele>270.2</ele><time>2026-03-28T09:48:29.997Z</time></trkpt><trkpt lat="45.74602404848384" lon="9.610165471147052"><ele>273.6</ele><time>2026-03-28T09:48:30.997Z</time></trkpt><trkpt lat="45.7460640440052" lon="9.610300068634107"><ele>277.0</ele><time>2026-03-28T09:48:31.997Z</time></trkpt><trkpt lat="45.74608661407133" lon="9.610428815573831"><ele>277.66666666666663</ele><time>2026-03-28T09:48:32.997Z</time></trkpt><trkpt lat="45.746103120828856" lon="9.610542409130822"><ele>278.3333333333333</ele><time>2026-03-28T09:48:33.996Z</time></trkpt><trkpt lat="45.74612140555709" lon="9.610639367019939"><ele>279.0</ele><time>2026-03-28T09:48:34.996Z</time></trkpt><trkpt lat="45.74613382795413" lon="9.610730470880565"><ele>279.6666666666667</ele><time>2026-03-28T09:48:35.996Z</time></trkpt><trkpt lat="45.746148955022335" lon="9.610884258062509"><ele>280.33333333333337</ele><time>2026-03-28T09:48:37.996Z</time></trkpt><trkpt lat="45.746176122005245" lon="9.611041327351707"><ele>281.0</ele><time>2026-03-28T09:48:39.996Z</time></trkpt><trkpt lat="45.74619351840546" lon="9.61115760080611"><ele>281.0</ele><time>2026-03-28T09:48:41.995Z</time></trkpt><trkpt lat="45.746230798154755" lon="9.61129143589018"><ele>281.0</ele><time>2026-03-28T09:48:43.996Z</time></trkpt><trkpt lat="45.74627887997128" lon="9.611404764028196"><ele>281.0</ele><time>2026-03-28T09:48:45.995Z</time></trkpt><trkpt lat="45.746334746858565" lon="9.611515633615536"><ele>281.0</ele><time>2026-03-28T09:48:47.996Z</time></trkpt><trkpt lat="45.74637908024165" lon="9.61161600942012"><ele>281.0</ele><time>2026-03-28T09:48:48.996Z</time></trkpt><trkpt lat="45.74645829516438" lon="9.611734625251817"><ele>281.0</ele><time>2026-03-28T09:48:49.996Z</time></trkpt><trkpt lat="45.74654520357546" lon="9.611874387101988"><ele>281.0</ele><time>2026-03-28T09:48:50.996Z</time></trkpt><trkpt lat="45.74663264525181" lon="9.612006050285695"><ele>281.0</ele><time>2026-03-28T09:48:51.996Z</time></trkpt><trkpt lat="45.74671981058847" lon="9.612138590638974"><ele>281.0</ele><time>2026-03-28T09:48:52.996Z</time></trkpt><trkpt lat="45.746805889478196" lon="9.612268625023095"><ele>282.40000000000003</ele><time>2026-03-28T09:48:53.996Z</time></trkpt><trkpt lat="45.746889290132614" lon="9.612391859684214"><ele>283.8</ele><time>2026-03-28T09:48:54.996Z</time></trkpt><trkpt lat="45.746960891845596" lon="9.612490853608982"><ele>285.20000000000005</ele><time>2026-03-28T09:48:55.996Z</time></trkpt><trkpt lat="45.74702196689816" lon="9.61257341770929"><ele>286.6</ele><time>2026-03-28T09:48:56.996Z</time></trkpt><trkpt lat="45.74708837204169" lon="9.612680982591815"><ele>288.0</ele><time>2026-03-28T09:48:58.996Z</time></trkpt><trkpt lat="45.74713758147027" lon="9.612764059285515"><ele>288.4</ele><time>2026-03-28T09:49:00.996Z</time></trkpt><trkpt lat="45.7471911493279" lon="9.612879048478309"><ele>288.8</ele><time>2026-03-28T09:49:02.996Z</time></trkpt><trkpt lat="45.74724626411091" lon="9.612968361810697"><ele>289.2</ele><time>2026-03-28T09:49:04.996Z</time></trkpt><trkpt lat="45.74726638840469" lon="9.613130635867869"><ele>289.6</ele><time>2026-03-28T09:49:05.996Z</time></trkpt><trkpt lat="45.7472747972643" lon="9.613285742957306"><ele>290.0</ele><time>2026-03-28T09:49:06.996Z</time></trkpt><trkpt lat="45.747223221959494" lon="9.613415060059836"><ele>290.0</ele><time>2026-03-28T09:49:07.996Z</time></trkpt><trkpt lat="45.747159426368036" lon="9.613490405420087"><ele>290.0</ele><time>2026-03-28T09:49:08.996Z</time></trkpt><trkpt lat="45.74698636704055" lon="9.613521078706693"><ele>290.0</ele><time>2026-03-28T09:49:10.996Z</time></trkpt><trkpt lat="45.74686662395428" lon="9.613525447107499"><ele>290.0</ele><time>2026-03-28T09:49:12.996Z</time></trkpt><trkpt lat="45.74679787945536" lon="9.61353492959888"><ele>290.0</ele><time>2026-03-28T09:49:13.996Z</time></trkpt><trkpt lat="45.74666800874415" lon="9.613559572791441"><ele>290.0</ele><time>2026-03-28T09:49:14.996Z</time></trkpt><trkpt lat="45.74655191029858" lon="9.613451475289617"><ele>290.0</ele><time>2026-03-28T09:49:15.996Z</time></trkpt><trkpt lat="45.746483131585" lon="9.613374551060083"><ele>290.0</ele><time>2026-03-28T09:49:16.996Z</time></trkpt><trkpt lat="45.74642854814819" lon="9.61331379003415"><ele>290.0</ele><time>2026-03-28T09:49:17.996Z</time></trkpt><trkpt lat="45.74637734543719" lon="9.613256792217138"><ele>290.0</ele><time>2026-03-28T09:49:18.996Z</time></trkpt><trkpt lat="45.74629853939549" lon="9.61316906723439"><ele>290.0</ele><time>2026-03-28T09:49:20.996Z</time></trkpt><trkpt lat="45.746217863444414" lon="9.613077256547346"><ele>290.0</ele><time>2026-03-28T09:49:27.996Z</time></trkpt><trkpt lat="45.74615069393739" lon="9.613062955168763"><ele>290.0</ele><time>2026-03-28T09:49:28.996Z</time></trkpt><trkpt lat="45.74607685150671" lon="9.612991123174037"><ele>290.0</ele><time>2026-03-28T09:49:29.996Z</time></trkpt><trkpt lat="45.745977302767635" lon="9.612889258778882"><ele>290.0</ele><time>2026-03-28T09:49:30.996Z</time></trkpt><trkpt lat="45.745881480856205" lon="9.612799374873283"><ele>289.75</ele><time>2026-03-28T09:49:31.996Z</time></trkpt><trkpt lat="45.7457933262657" lon="9.61272225731867"><ele>289.5</ele><time>2026-03-28T09:49:32.996Z</time></trkpt><trkpt lat="45.74569690530551" lon="9.612633633137628"><ele>289.25</ele><time>2026-03-28T09:49:33.996Z</time></trkpt><trkpt lat="45.74558270230555" lon="9.612531549216207"><ele>289.0</ele><time>2026-03-28T09:49:34.996Z</time></trkpt><trkpt lat="45.74547775690618" lon="9.612440337885506"><ele>289.0</ele><time>2026-03-28T09:49:35.996Z</time></trkpt><trkpt lat="45.745360592047255" lon="9.612339187682458"><ele>289.0</ele><time>2026-03-28T09:49:36.996Z</time></trkpt><trkpt lat="45.74524759459538" lon="9.612241101884056"><ele>289.0</ele><time>2026-03-28T09:49:37.996Z</time></trkpt><trkpt lat="45.74512837073203" lon="9.612136236966574"><ele>289.0</ele><time>2026-03-28T09:49:38.996Z</time></trkpt><trkpt lat="45.74500483423627" lon="9.612030701808653"><ele>288.5</ele><time>2026-03-28T09:49:39.996Z</time></trkpt><trkpt lat="45.74487979939128" lon="9.611932318411867"><ele>288.0</ele><time>2026-03-28T09:49:40.996Z</time></trkpt><trkpt lat="45.744751762111925" lon="9.611847358444653"><ele>287.5</ele><time>2026-03-28T09:49:41.996Z</time></trkpt><trkpt lat="45.74463146501318" lon="9.611769082927353"><ele>287.0</ele><time>2026-03-28T09:49:42.996Z</time></trkpt><trkpt lat="45.74450999278123" lon="9.611696340761766"><ele>287.0</ele><time>2026-03-28T09:49:43.996Z</time></trkpt><trkpt lat="45.744388462586144" lon="9.611604978213231"><ele>287.0</ele><time>2026-03-28T09:49:44.996Z</time></trkpt><trkpt lat="45.74426099711029" lon="9.611528297191013"><ele>287.0</ele><time>2026-03-28T09:49:45.996Z</time></trkpt><trkpt lat="45.74414089900103" lon="9.611458183888177"><ele>287.0</ele><time>2026-03-28T09:49:46.996Z</time></trkpt><trkpt lat="45.74402264357426" lon="9.611409941952274"><ele>286.6</ele><time>2026-03-28T09:49:47.996Z</time></trkpt><trkpt lat="45.743915483999345" lon="9.611340312915187"><ele>286.2</ele><time>2026-03-28T09:49:48.996Z</time></trkpt><trkpt lat="45.74381453249984" lon="9.611277414027889"><ele>285.8</ele><time>2026-03-28T09:49:49.996Z</time></trkpt><trkpt lat="45.74372220571222" lon="9.611221253266939"><ele>285.4</ele><time>2026-03-28T09:49:50.996Z</time></trkpt><trkpt lat="45.74363251221588" lon="9.611169181693617"><ele>285.0</ele><time>2026-03-28T09:49:51.996Z</time></trkpt><trkpt lat="45.743538087093555" lon="9.611118993238636"><ele>284.6</ele><time>2026-03-28T09:49:52.996Z</time></trkpt><trkpt lat="45.743459441186246" lon="9.611051397540136"><ele>284.2</ele><time>2026-03-28T09:49:53.996Z</time></trkpt><trkpt lat="45.743369320289645" lon="9.610995835817366"><ele>283.8</ele><time>2026-03-28T09:49:54.996Z</time></trkpt><trkpt lat="45.74327647356138" lon="9.610944504169504"><ele>283.4</ele><time>2026-03-28T09:49:55.996Z</time></trkpt><trkpt lat="45.74317414408687" lon="9.610888647016546"><ele>283.0</ele><time>2026-03-28T09:49:56.996Z</time></trkpt><trkpt lat="45.7430721391446" lon="9.61082827948777"><ele>283.0</ele><time>2026-03-28T09:49:57.997Z</time></trkpt><trkpt lat="45.742982252409846" lon="9.610772399171141"><ele>283.0</ele><time>2026-03-28T09:49:58.997Z</time></trkpt><trkpt lat="45.7428949558167" lon="9.610726147019435"><ele>283.0</ele><time>2026-03-28T09:49:59.997Z</time></trkpt><trkpt lat="45.74281438906399" lon="9.610691290375303"><ele>283.0</ele><time>2026-03-28T09:50:00.997Z</time></trkpt><trkpt lat="45.74274054476112" lon="9.61065700919871"><ele>283.0</ele><time>2026-03-28T09:50:01.997Z</time></trkpt><trkpt lat="45.74262600030213" lon="9.610599961227104"><ele>283.0</ele><time>2026-03-28T09:50:03.997Z</time></trkpt><trkpt lat="45.74252520418927" lon="9.610537007346986"><ele>283.0</ele><time>2026-03-28T09:50:05.997Z</time></trkpt><trkpt lat="45.742464966813415" lon="9.61049942096818"><ele>283.0</ele><time>2026-03-28T09:50:06.997Z</time></trkpt><trkpt lat="45.742403763954805" lon="9.61044242537726"><ele>283.0</ele><time>2026-03-28T09:50:07.997Z</time></trkpt><trkpt lat="45.74232482588193" lon="9.610341066141677"><ele>283.0</ele><time>2026-03-28T09:50:09.997Z</time></trkpt><trkpt lat="45.74226830539508" lon="9.610223507894155"><ele>283.0</ele><time>2026-03-28T09:50:11.997Z</time></trkpt><trkpt lat="45.74217872632826" lon="9.61012198677836"><ele>283.0</ele><time>2026-03-28T09:50:13.997Z</time></trkpt><trkpt lat="45.74208614244682" lon="9.610189029113133"><ele>283.0</ele><time>2026-03-28T09:50:14.997Z</time></trkpt><trkpt lat="45.74201627355428" lon="9.610330614463475"><ele>283.0</ele><time>2026-03-28T09:50:16.997Z</time></trkpt><trkpt lat="45.742038712778516" lon="9.61047592854147"><ele>283.0</ele><time>2026-03-28T09:50:18.997Z</time></trkpt><trkpt lat="45.742092995062926" lon="9.610531346983528"><ele>283.0</ele><time>2026-03-28T09:50:19.997Z</time></trkpt><trkpt lat="45.74215913131763" lon="9.610553695284768"><ele>283.0</ele><time>2026-03-28T09:50:20.997Z</time></trkpt><trkpt lat="45.74223811049171" lon="9.610549787406915"><ele>283.0</ele><time>2026-03-28T09:50:21.997Z</time></trkpt><trkpt lat="45.74231376539533" lon="9.610556931312306"><ele>283.0</ele><time>2026-03-28T09:50:22.997Z</time></trkpt><trkpt lat="45.74240388085352" lon="9.610583957795534"><ele>283.0</ele><time>2026-03-28T09:50:23.997Z</time></trkpt><trkpt lat="45.742517248166585" lon="9.610638332903402"><ele>283.0</ele><time>2026-03-28T09:50:24.997Z</time></trkpt><trkpt lat="45.74264014033526" lon="9.610696591921528"><ele>283.0</ele><time>2026-03-28T09:50:25.997Z</time></trkpt><trkpt lat="45.7427608431231" lon="9.610757708573477"><ele>283.0</ele><time>2026-03-28T09:50:26.997Z</time></trkpt><trkpt lat="45.74285897903353" lon="9.610818466537005"><ele>283.0</ele><time>2026-03-28T09:50:27.997Z</time></trkpt><trkpt lat="45.74294696369615" lon="9.610871705091919"><ele>283.0</ele><time>2026-03-28T09:50:28.997Z</time></trkpt><trkpt lat="45.743030914947475" lon="9.610918978034553"><ele>283.0</ele><time>2026-03-28T09:50:29.997Z</time></trkpt><trkpt lat="45.74310834989637" lon="9.610958789275289"><ele>283.0</ele><time>2026-03-28T09:50:30.997Z</time></trkpt><trkpt lat="45.74321334572719" lon="9.611004750006716"><ele>283.0</ele><time>2026-03-28T09:50:32.997Z</time></trkpt><trkpt lat="45.743278715850686" lon="9.611040345383987"><ele>283.0</ele><time>2026-03-28T09:50:33.997Z</time></trkpt><trkpt lat="45.74336028042414" lon="9.611089451287267"><ele>283.0</ele><time>2026-03-28T09:50:34.997Z</time></trkpt><trkpt lat="45.743481669223264" lon="9.611166971351025"><ele>283.0</ele><time>2026-03-28T09:50:35.997Z</time></trkpt><trkpt lat="45.74361309206819" lon="9.61124212812885"><ele>283.5</ele><time>2026-03-28T09:50:36.997Z</time></trkpt><trkpt lat="45.74373139817404" lon="9.611310494704496"><ele>284.0</ele><time>2026-03-28T09:50:37.997Z</time></trkpt><trkpt lat="45.74384360601134" lon="9.611378834399982"><ele>284.5</ele><time>2026-03-28T09:50:38.997Z</time></trkpt><trkpt lat="45.743945618911205" lon="9.611437541665605"><ele>285.0</ele><time>2026-03-28T09:50:39.995Z</time></trkpt><trkpt lat="45.744043278301724" lon="9.61148864182942"><ele>285.0</ele><time>2026-03-28T09:50:40.996Z</time></trkpt><trkpt lat="45.744134690373876" lon="9.611545944849691"><ele>285.0</ele><time>2026-03-28T09:50:41.996Z</time></trkpt><trkpt lat="45.74423464288183" lon="9.61160760082557"><ele>285.0</ele><time>2026-03-28T09:50:42.995Z</time></trkpt><trkpt lat="45.74433885717136" lon="9.611658731480038"><ele>285.0</ele><time>2026-03-28T09:50:43.995Z</time></trkpt><trkpt lat="45.74444547071569" lon="9.61171771086673"><ele>285.0</ele><time>2026-03-28T09:50:44.995Z</time></trkpt><trkpt lat="45.7445604563985" lon="9.611790773469204"><ele>285.5</ele><time>2026-03-28T09:50:45.996Z</time></trkpt><trkpt lat="45.74469409933775" lon="9.61187629599352"><ele>286.0</ele><time>2026-03-28T09:50:46.995Z</time></trkpt><trkpt lat="45.744823818797556" lon="9.611970322766224"><ele>286.5</ele><time>2026-03-28T09:50:47.995Z</time></trkpt><trkpt lat="45.74495346612509" lon="9.612064787120337"><ele>287.0</ele><time>2026-03-28T09:50:48.996Z</time></trkpt><trkpt lat="45.74509336831448" lon="9.61218702251941"><ele>287.6666666666667</ele><time>2026-03-28T09:50:49.995Z</time></trkpt><trkpt lat="45.74526157283885" lon="9.612336363607533"><ele>288.3333333333333</ele><time>2026-03-28T09:50:50.995Z</time></trkpt><trkpt lat="45.74542464855557" lon="9.612500320523278"><ele>289.0</ele><time>2026-03-28T09:50:51.995Z</time></trkpt><trkpt lat="45.74558983103895" lon="9.612675506441908"><ele>289.3333333333333</ele><time>2026-03-28T09:50:52.996Z</time></trkpt><trkpt lat="45.74574089052697" lon="9.612838685353893"><ele>289.6666666666667</ele><time>2026-03-28T09:50:53.996Z</time></trkpt><trkpt lat="45.74588368699184" lon="9.612990393631874"><ele>290.0</ele><time>2026-03-28T09:50:54.996Z</time></trkpt><trkpt lat="45.74603729925028" lon="9.613147993481782"><ele>290.0</ele><time>2026-03-28T09:50:55.996Z</time></trkpt><trkpt lat="45.746179761217064" lon="9.613304709590974"><ele>290.0</ele><time>2026-03-28T09:50:56.996Z</time></trkpt><trkpt lat="45.74630865353674" lon="9.61345164997307"><ele>290.0</ele><time>2026-03-28T09:50:57.996Z</time></trkpt><trkpt lat="45.746424884470244" lon="9.613579186466499"><ele>290.4</ele><time>2026-03-28T09:50:58.996Z</time></trkpt><trkpt lat="45.74651972928534" lon="9.613691170019504"><ele>290.8</ele><time>2026-03-28T09:50:59.996Z</time></trkpt><trkpt lat="45.74659607650278" lon="9.613801686255627"><ele>291.2</ele><time>2026-03-28T09:51:00.996Z</time></trkpt><trkpt lat="45.746655197355075" lon="9.613934478406518"><ele>291.6</ele><time>2026-03-28T09:51:01.996Z</time></trkpt><trkpt lat="45.746710715359406" lon="9.6140584326181"><ele>292.0</ele><time>2026-03-28T09:51:02.996Z</time></trkpt><trkpt lat="45.74677575377585" lon="9.61413638706064"><ele>292.0</ele><time>2026-03-28T09:51:03.996Z</time></trkpt><trkpt lat="45.746853463663236" lon="9.614173001184962"><ele>292.0</ele><time>2026-03-28T09:51:04.996Z</time></trkpt><trkpt lat="45.746930620572506" lon="9.614153874306878"><ele>292.0</ele><time>2026-03-28T09:51:05.996Z</time></trkpt><trkpt lat="45.74701769063745" lon="9.614082387898348"><ele>292.0</ele><time>2026-03-28T09:51:07.996Z</time></trkpt><trkpt lat="45.74708994337241" lon="9.613992701683873"><ele>292.0</ele><time>2026-03-28T09:51:09.996Z</time></trkpt><trkpt lat="45.74714909508717" lon="9.613957064793647"><ele>292.0</ele><time>2026-03-28T09:51:10.996Z</time></trkpt><trkpt lat="45.747217591803164" lon="9.613920967986822"><ele>292.25</ele><time>2026-03-28T09:51:11.996Z</time></trkpt><trkpt lat="45.747309356140406" lon="9.613880002683878"><ele>292.5</ele><time>2026-03-28T09:51:12.996Z</time></trkpt><trkpt lat="45.74741335860088" lon="9.613827292592605"><ele>292.75</ele><time>2026-03-28T09:51:13.996Z</time></trkpt><trkpt lat="45.74753253069214" lon="9.613748786156187"><ele>293.0</ele><time>2026-03-28T09:51:14.996Z</time></trkpt><trkpt lat="45.747646989900815" lon="9.613673345211748"><ele>292.75</ele><time>2026-03-28T09:51:15.996Z</time></trkpt><trkpt lat="45.747766097903764" lon="9.61359918031404"><ele>292.5</ele><time>2026-03-28T09:51:16.996Z</time></trkpt><trkpt lat="45.74788680260071" lon="9.613523590670335"><ele>292.25</ele><time>2026-03-28T09:51:17.996Z</time></trkpt><trkpt lat="45.74800279099167" lon="9.613455457987236"><ele>292.0</ele><time>2026-03-28T09:51:18.996Z</time></trkpt><trkpt lat="45.748120571629165" lon="9.613413053193769"><ele>292.0</ele><time>2026-03-28T09:51:19.996Z</time></trkpt><trkpt lat="45.74823674550766" lon="9.613304802976808"><ele>292.0</ele><time>2026-03-28T09:51:20.996Z</time></trkpt><trkpt lat="45.74836588441988" lon="9.613250940979848"><ele>292.0</ele><time>2026-03-28T09:51:21.996Z</time></trkpt><trkpt lat="45.7484830271517" lon="9.613179068340425"><ele>292.0</ele><time>2026-03-28T09:51:22.996Z</time></trkpt><trkpt lat="45.748616573854" lon="9.61309880920566"><ele>292.3333333333333</ele><time>2026-03-28T09:51:23.996Z</time></trkpt><trkpt lat="45.748750620583216" lon="9.612979228873117"><ele>292.6666666666667</ele><time>2026-03-28T09:51:24.996Z</time></trkpt><trkpt lat="45.748900130535525" lon="9.612883642864197"><ele>293.0</ele><time>2026-03-28T09:51:25.996Z</time></trkpt><trkpt lat="45.74903655597597" lon="9.61279482358169"><ele>293.0</ele><time>2026-03-28T09:51:26.996Z</time></trkpt><trkpt lat="45.74915934559608" lon="9.612718879647208"><ele>293.0</ele><time>2026-03-28T09:51:27.996Z</time></trkpt><trkpt lat="45.74927646184704" lon="9.612653112820702"><ele>293.0</ele><time>2026-03-28T09:51:28.996Z</time></trkpt><trkpt lat="45.7493696620931" lon="9.612600969975881"><ele>293.0</ele><time>2026-03-28T09:51:29.996Z</time></trkpt><trkpt lat="45.74944309740439" lon="9.612567815946115"><ele>293.0</ele><time>2026-03-28T09:51:30.996Z</time></trkpt><trkpt lat="45.74951969124045" lon="9.612515175545052"><ele>293.2</ele><time>2026-03-28T09:51:31.996Z</time></trkpt><trkpt lat="45.749603047802914" lon="9.61247265408937"><ele>293.4</ele><time>2026-03-28T09:51:32.996Z</time></trkpt><trkpt lat="45.7497026982214" lon="9.61243118661961"><ele>293.59999999999997</ele><time>2026-03-28T09:51:33.996Z</time></trkpt><trkpt lat="45.749792378263784" lon="9.612381694381185"><ele>293.8</ele><time>2026-03-28T09:51:34.996Z</time></trkpt><trkpt lat="45.74987843714335" lon="9.612342996604553"><ele>294.0</ele><time>2026-03-28T09:51:35.996Z</time></trkpt><trkpt lat="45.74996555733976" lon="9.612310356940853"><ele>294.0</ele><time>2026-03-28T09:51:36.996Z</time></trkpt><trkpt lat="45.75006407570571" lon="9.612269006837602"><ele>294.0</ele><time>2026-03-28T09:51:37.996Z</time></trkpt><trkpt lat="45.75017124659338" lon="9.61221486219088"><ele>294.0</ele><time>2026-03-28T09:51:38.996Z</time></trkpt><trkpt lat="45.75026801108035" lon="9.612176217545022"><ele>294.0</ele><time>2026-03-28T09:51:39.996Z</time></trkpt><trkpt lat="45.750357284890846" lon="9.612139577406179"><ele>294.0</ele><time>2026-03-28T09:51:40.996Z</time></trkpt><trkpt lat="45.75044877570338" lon="9.6121024337959"><ele>293.59999999999997</ele><time>2026-03-28T09:51:41.996Z</time></trkpt><trkpt lat="45.75055218092663" lon="9.612056354515436"><ele>293.2</ele><time>2026-03-28T09:51:42.996Z</time></trkpt><trkpt lat="45.75065336487076" lon="9.612011832546576"><ele>292.79999999999995</ele><time>2026-03-28T09:51:43.996Z</time></trkpt><trkpt lat="45.75075045706823" lon="9.611967638065389"><ele>292.4</ele><time>2026-03-28T09:51:44.996Z</time></trkpt><trkpt lat="45.75086985802543" lon="9.611911637872694"><ele>292.0</ele><time>2026-03-28T09:51:45.996Z</time></trkpt><trkpt lat="45.75100464123643" lon="9.6118436454092"><ele>291.3333333333333</ele><time>2026-03-28T09:51:46.996Z</time></trkpt><trkpt lat="45.751181773708865" lon="9.611766067720556"><ele>290.6666666666667</ele><time>2026-03-28T09:51:47.996Z</time></trkpt><trkpt lat="45.75134014102959" lon="9.611713540671092"><ele>290.0</ele><time>2026-03-28T09:51:48.996Z</time></trkpt><trkpt lat="45.75149357803141" lon="9.611650469678748"><ele>290.0</ele><time>2026-03-28T09:51:49.996Z</time></trkpt><trkpt lat="45.75162787722219" lon="9.611580527686247"><ele>290.0</ele><time>2026-03-28T09:51:50.996Z</time></trkpt><trkpt lat="45.75175227458229" lon="9.611525924997874"><ele>290.0</ele><time>2026-03-28T09:51:51.996Z</time></trkpt><trkpt lat="45.75187528776146" lon="9.611467593584642"><ele>290.0</ele><time>2026-03-28T09:51:52.996Z</time></trkpt><trkpt lat="45.7519964463161" lon="9.611407178811618"><ele>291.25</ele><time>2026-03-28T09:51:53.996Z</time></trkpt><trkpt lat="45.75211636515824" lon="9.61135694336533"><ele>292.5</ele><time>2026-03-28T09:51:54.996Z</time></trkpt><trkpt lat="45.75223751257644" lon="9.611306623533723"><ele>293.75</ele><time>2026-03-28T09:51:55.996Z</time></trkpt><trkpt lat="45.75236059700423" lon="9.611254769328447"><ele>295.0</ele><time>2026-03-28T09:51:56.996Z</time></trkpt><trkpt lat="45.75247890768211" lon="9.611206832213375"><ele>294.0</ele><time>2026-03-28T09:51:57.996Z</time></trkpt><trkpt lat="45.75259821587662" lon="9.61115722227126"><ele>293.0</ele><time>2026-03-28T09:51:58.996Z</time></trkpt><trkpt lat="45.75271144906781" lon="9.611102410036823"><ele>292.0</ele><time>2026-03-28T09:51:59.996Z</time></trkpt><trkpt lat="45.75281597676889" lon="9.611044593022045"><ele>291.0</ele><time>2026-03-28T09:52:00.996Z</time></trkpt><trkpt lat="45.7529229997739" lon="9.610999186105294"><ele>290.75</ele><time>2026-03-28T09:52:01.996Z</time></trkpt><trkpt lat="45.75303073831785" lon="9.610965953628856"><ele>290.5</ele><time>2026-03-28T09:52:02.996Z</time></trkpt><trkpt lat="45.753142162461224" lon="9.61094034455422"><ele>290.25</ele><time>2026-03-28T09:52:03.996Z</time></trkpt><trkpt lat="45.75325429215233" lon="9.610929453412224"><ele>290.0</ele><time>2026-03-28T09:52:04.996Z</time></trkpt><trkpt lat="45.75337854192881" lon="9.610924085852352"><ele>290.0</ele><time>2026-03-28T09:52:05.996Z</time></trkpt><trkpt lat="45.75351488418765" lon="9.610932792697145"><ele>290.0</ele><time>2026-03-28T09:52:06.996Z</time></trkpt><trkpt lat="45.75365923852591" lon="9.610944059855882"><ele>290.0</ele><time>2026-03-28T09:52:07.996Z</time></trkpt><trkpt lat="45.75380561765945" lon="9.610972369028671"><ele>290.0</ele><time>2026-03-28T09:52:08.996Z</time></trkpt><trkpt lat="45.75396073924382" lon="9.611009578774663"><ele>289.0</ele><time>2026-03-28T09:52:09.996Z</time></trkpt><trkpt lat="45.75412770034849" lon="9.611035999939393"><ele>288.0</ele><time>2026-03-28T09:52:10.996Z</time></trkpt><trkpt lat="45.75430586059069" lon="9.611064547204835"><ele>287.0</ele><time>2026-03-28T09:52:11.996Z</time></trkpt><trkpt lat="45.75448278896558" lon="9.611033233373037"><ele>286.0</ele><time>2026-03-28T09:52:12.996Z</time></trkpt><trkpt lat="45.7546643747239" lon="9.610990317145408"><ele>285.0</ele><time>2026-03-28T09:52:13.996Z</time></trkpt><trkpt lat="45.75484219699235" lon="9.610946257451566"><ele>284.0</ele><time>2026-03-28T09:52:14.996Z</time></trkpt><trkpt lat="45.75501334756914" lon="9.610903850831324"><ele>284.0</ele><time>2026-03-28T09:52:15.996Z</time></trkpt><trkpt lat="45.75516718717575" lon="9.610865308199866"><ele>284.0</ele><time>2026-03-28T09:52:16.996Z</time></trkpt><trkpt lat="45.75531172843073" lon="9.610808647167895"><ele>284.0</ele><time>2026-03-28T09:52:17.996Z</time></trkpt><trkpt lat="45.75545645476699" lon="9.610795747235288"><ele>285.25</ele><time>2026-03-28T09:52:18.996Z</time></trkpt><trkpt lat="45.75558735847485" lon="9.610769127370874"><ele>286.5</ele><time>2026-03-28T09:52:19.996Z</time></trkpt><trkpt lat="45.755712881356644" lon="9.610717977287583"><ele>287.75</ele><time>2026-03-28T09:52:20.996Z</time></trkpt><trkpt lat="45.755835890252605" lon="9.610655653466829"><ele>289.0</ele><time>2026-03-28T09:52:21.996Z</time></trkpt><trkpt lat="45.75595919189137" lon="9.610576454001508"><ele>289.75</ele><time>2026-03-28T09:52:22.996Z</time></trkpt><trkpt lat="45.75608312889837" lon="9.610500364056094"><ele>290.5</ele><time>2026-03-28T09:52:23.996Z</time></trkpt><trkpt lat="45.75620042832127" lon="9.610417005309902"><ele>291.25</ele><time>2026-03-28T09:52:24.996Z</time></trkpt><trkpt lat="45.756315781259545" lon="9.610325152292837"><ele>292.0</ele><time>2026-03-28T09:52:25.996Z</time></trkpt><trkpt lat="45.75643089966182" lon="9.610223253924042"><ele>292.0</ele><time>2026-03-28T09:52:26.996Z</time></trkpt><trkpt lat="45.75655316836529" lon="9.61011409856999"><ele>292.0</ele><time>2026-03-28T09:52:27.996Z</time></trkpt><trkpt lat="45.756678191052174" lon="9.610002114671337"><ele>292.0</ele><time>2026-03-28T09:52:28.996Z</time></trkpt><trkpt lat="45.756811280347144" lon="9.609877472463454"><ele>298.0</ele><time>2026-03-28T09:52:29.997Z</time></trkpt><trkpt lat="45.756942664699196" lon="9.609756384130115"><ele>304.0</ele><time>2026-03-28T09:52:30.997Z</time></trkpt><trkpt lat="45.75708338032461" lon="9.609647625462722"><ele>310.0</ele><time>2026-03-28T09:52:31.997Z</time></trkpt><trkpt lat="45.7572292137611" lon="9.60954121808452"><ele>302.3333333333333</ele><time>2026-03-28T09:52:32.997Z</time></trkpt><trkpt lat="45.75739825696093" lon="9.609450892382874"><ele>294.6666666666667</ele><time>2026-03-28T09:52:33.997Z</time></trkpt><trkpt lat="45.757590608445575" lon="9.609383165194114"><ele>287.0</ele><time>2026-03-28T09:52:34.997Z</time></trkpt><trkpt lat="45.75780235365543" lon="9.609335485247666"><ele>287.0</ele><time>2026-03-28T09:52:35.997Z</time></trkpt><trkpt lat="45.75801315173489" lon="9.609282979613486"><ele>287.0</ele><time>2026-03-28T09:52:36.997Z</time></trkpt><trkpt lat="45.7582028777329" lon="9.609227648653489"><ele>287.0</ele><time>2026-03-28T09:52:37.997Z</time></trkpt><trkpt lat="45.758377478010075" lon="9.609185278809829"><ele>294.33333333333337</ele><time>2026-03-28T09:52:38.997Z</time></trkpt><trkpt lat="45.75853794653468" lon="9.609143226900084"><ele>301.6666666666667</ele><time>2026-03-28T09:52:39.997Z</time></trkpt><trkpt lat="45.75868552129108" lon="9.609098497949255"><ele>309.0</ele><time>2026-03-28T09:52:40.997Z</time></trkpt><trkpt lat="45.75882973987672" lon="9.60905166900068"><ele>309.0</ele><time>2026-03-28T09:52:41.997Z</time></trkpt><trkpt lat="45.75897316158134" lon="9.608977902371695"><ele>309.0</ele><time>2026-03-28T09:52:42.997Z</time></trkpt><trkpt lat="45.75911286761804" lon="9.608885971541195"><ele>309.0</ele><time>2026-03-28T09:52:43.997Z</time></trkpt><trkpt lat="45.7592565992312" lon="9.60876232381378"><ele>312.3333333333333</ele><time>2026-03-28T09:52:44.997Z</time></trkpt><trkpt lat="45.759411918054944" lon="9.60864194356129"><ele>315.66666666666663</ele><time>2026-03-28T09:52:45.995Z</time></trkpt><trkpt lat="45.7595536275876" lon="9.608494237786246"><ele>319.0</ele><time>2026-03-28T09:52:46.995Z</time></trkpt><trkpt lat="45.7596846455379" lon="9.608331876081488"><ele>319.0</ele><time>2026-03-28T09:52:47.995Z</time></trkpt><trkpt lat="45.75979765070727" lon="9.608134355223118"><ele>319.0</ele><time>2026-03-28T09:52:48.995Z</time></trkpt><trkpt lat="45.759920877966984" lon="9.607957012673786"><ele>319.0</ele><time>2026-03-28T09:52:49.996Z</time></trkpt><trkpt lat="45.76001525978806" lon="9.607768626386973"><ele>310.3333333333333</ele><time>2026-03-28T09:52:50.996Z</time></trkpt><trkpt lat="45.760105736785405" lon="9.60757456925936"><ele>301.6666666666667</ele><time>2026-03-28T09:52:51.995Z</time></trkpt><trkpt lat="45.76019402560101" lon="9.607378731928693"><ele>293.0</ele><time>2026-03-28T09:52:52.995Z</time></trkpt><trkpt lat="45.76028114476433" lon="9.607185149714692"><ele>302.0</ele><time>2026-03-28T09:52:53.995Z</time></trkpt><trkpt lat="45.76035674699263" lon="9.606972064476235"><ele>311.0</ele><time>2026-03-28T09:52:54.995Z</time></trkpt><trkpt lat="45.76044197558226" lon="9.606784129154493"><ele>320.0</ele><time>2026-03-28T09:52:55.995Z</time></trkpt><trkpt lat="45.76052350726693" lon="9.606612589954844"><ele>320.0</ele><time>2026-03-28T09:52:56.995Z</time></trkpt><trkpt lat="45.760602857200546" lon="9.60645481247531"><ele>320.0</ele><time>2026-03-28T09:52:57.996Z</time></trkpt><trkpt lat="45.76068260731497" lon="9.606294790725004"><ele>320.0</ele><time>2026-03-28T09:52:58.995Z</time></trkpt><trkpt lat="45.76076763268231" lon="9.606150762438595"><ele>320.0</ele><time>2026-03-28T09:52:59.995Z</time></trkpt><trkpt lat="45.7608594982917" lon="9.606022104040418"><ele>318.75</ele><time>2026-03-28T09:53:00.995Z</time></trkpt><trkpt lat="45.760959247675565" lon="9.605914902522322"><ele>317.5</ele><time>2026-03-28T09:53:01.995Z</time></trkpt><trkpt lat="45.76107456311508" lon="9.605836823952043"><ele>316.25</ele><time>2026-03-28T09:53:02.995Z</time></trkpt><trkpt lat="45.761196913800696" lon="9.605773384077802"><ele>315.0</ele><time>2026-03-28T09:53:03.995Z</time></trkpt><trkpt lat="45.76132848325946" lon="9.605700879236881"><ele>315.0</ele><time>2026-03-28T09:53:04.995Z</time></trkpt><trkpt lat="45.76145834945637" lon="9.605629576646027"><ele>315.0</ele><time>2026-03-28T09:53:05.995Z</time></trkpt><trkpt lat="45.7615802572798" lon="9.605577236814709"><ele>315.0</ele><time>2026-03-28T09:53:06.995Z</time></trkpt><trkpt lat="45.761707158872724" lon="9.605548064723175"><ele>315.0</ele><time>2026-03-28T09:53:07.995Z</time></trkpt><trkpt lat="45.761843175047076" lon="9.605562825319511"><ele>309.0</ele><time>2026-03-28T09:53:08.995Z</time></trkpt><trkpt lat="45.76199166361838" lon="9.605633120937261"><ele>303.0</ele><time>2026-03-28T09:53:09.995Z</time></trkpt><trkpt lat="45.7621236031125" lon="9.605744087833518"><ele>297.0</ele><time>2026-03-28T09:53:10.995Z</time></trkpt><trkpt lat="45.762235282457006" lon="9.605878236256213"><ele>297.0</ele><time>2026-03-28T09:53:11.995Z</time></trkpt><trkpt lat="45.76233142245669" lon="9.60599714292016"><ele>297.0</ele><time>2026-03-28T09:53:12.995Z</time></trkpt><trkpt lat="45.762434060301736" lon="9.60611389148749"><ele>297.0</ele><time>2026-03-28T09:53:13.995Z</time></trkpt><trkpt lat="45.76253548661254" lon="9.606235487286025"><ele>297.0</ele><time>2026-03-28T09:53:14.995Z</time></trkpt><trkpt lat="45.76262343956005" lon="9.60636572976709"><ele>299.25</ele><time>2026-03-28T09:53:15.995Z</time></trkpt><trkpt lat="45.7626950540414" lon="9.60651931033769"><ele>301.5</ele><time>2026-03-28T09:53:16.995Z</time></trkpt><trkpt lat="45.76276858248576" lon="9.606688289529176"><ele>303.75</ele><time>2026-03-28T09:53:17.995Z</time></trkpt><trkpt lat="45.76284093362415" lon="9.60684958970759"><ele>306.0</ele><time>2026-03-28T09:53:18.995Z</time></trkpt><trkpt lat="45.76291795837449" lon="9.607018984802506"><ele>306.0</ele><time>2026-03-28T09:53:19.995Z</time></trkpt><trkpt lat="45.76308752548505" lon="9.60737193025664"><ele>306.0</ele><time>2026-03-28T09:53:21.995Z</time></trkpt><trkpt lat="45.76317095610387" lon="9.607545054935146"><ele>306.0</ele><time>2026-03-28T09:53:22.995Z</time></trkpt><trkpt lat="45.76328433343403" lon="9.607705893433979"><ele>305.3333333333333</ele><time>2026-03-28T09:53:23.995Z</time></trkpt><trkpt lat="45.76338057561881" lon="9.607880005748985"><ele>304.66666666666663</ele><time>2026-03-28T09:53:24.995Z</time></trkpt><trkpt lat="45.76346622978761" lon="9.608041339861035"><ele>304.0</ele><time>2026-03-28T09:53:25.995Z</time></trkpt><trkpt lat="45.763573840436734" lon="9.608203761794977"><ele>304.0</ele><time>2026-03-28T09:53:26.995Z</time></trkpt><trkpt lat="45.76368092416712" lon="9.608367680499494"><ele>304.0</ele><time>2026-03-28T09:53:27.995Z</time></trkpt><trkpt lat="45.76377872581059" lon="9.608522015074085"><ele>304.0</ele><time>2026-03-28T09:53:28.995Z</time></trkpt><trkpt lat="45.763885802986074" lon="9.6086940429571"><ele>308.3333333333333</ele><time>2026-03-28T09:53:29.995Z</time></trkpt><trkpt lat="45.76398996438395" lon="9.608858096703798"><ele>312.6666666666667</ele><time>2026-03-28T09:53:30.995Z</time></trkpt><trkpt lat="45.764093430527815" lon="9.609018287802503"><ele>317.0</ele><time>2026-03-28T09:53:31.995Z</time></trkpt><trkpt lat="45.76419195141714" lon="9.609175867797603"><ele>317.0</ele><time>2026-03-28T09:53:32.995Z</time></trkpt><trkpt lat="45.76429033324385" lon="9.609328498611044"><ele>317.0</ele><time>2026-03-28T09:53:33.995Z</time></trkpt><trkpt lat="45.76439076708946" lon="9.609481641469186"><ele>317.0</ele><time>2026-03-28T09:53:34.995Z</time></trkpt><trkpt lat="45.76448990218571" lon="9.60963742739975"><ele>317.0</ele><time>2026-03-28T09:53:35.995Z</time></trkpt><trkpt lat="45.76459244465095" lon="9.60979208146158"><ele>314.75</ele><time>2026-03-28T09:53:36.995Z</time></trkpt><trkpt lat="45.764688647325976" lon="9.609943552663887"><ele>312.5</ele><time>2026-03-28T09:53:37.995Z</time></trkpt><trkpt lat="45.764783604102576" lon="9.610097632158592"><ele>310.25</ele><time>2026-03-28T09:53:38.995Z</time></trkpt><trkpt lat="45.76487806974374" lon="9.610255382824585"><ele>308.0</ele><time>2026-03-28T09:53:39.995Z</time></trkpt><trkpt lat="45.76497292110952" lon="9.610410892667074"><ele>307.5</ele><time>2026-03-28T09:53:40.995Z</time></trkpt><trkpt lat="45.765071885216905" lon="9.61056811030752"><ele>307.0</ele><time>2026-03-28T09:53:41.995Z</time></trkpt><trkpt lat="45.765172819169244" lon="9.610723818062597"><ele>306.5</ele><time>2026-03-28T09:53:42.995Z</time></trkpt><trkpt lat="45.76526512749905" lon="9.610870381873553"><ele>306.0</ele><time>2026-03-28T09:53:43.995Z</time></trkpt><trkpt lat="45.76535110025473" lon="9.611004560411612"><ele>306.0</ele><time>2026-03-28T09:53:44.995Z</time></trkpt><trkpt lat="45.765435596801545" lon="9.611129148314582"><ele>306.0</ele><time>2026-03-28T09:53:45.995Z</time></trkpt><trkpt lat="45.76553055305555" lon="9.611231136217725"><ele>306.0</ele><time>2026-03-28T09:53:46.995Z</time></trkpt><trkpt lat="45.76564650192069" lon="9.611317053884017"><ele>306.0</ele><time>2026-03-28T09:53:47.995Z</time></trkpt><trkpt lat="45.76578565545038" lon="9.611363973467526"><ele>303.3333333333333</ele><time>2026-03-28T09:53:48.995Z</time></trkpt><trkpt lat="45.76594899751923" lon="9.611363759501515"><ele>300.66666666666663</ele><time>2026-03-28T09:53:49.995Z</time></trkpt><trkpt lat="45.76613739532346" lon="9.611335966073696"><ele>298.0</ele><time>2026-03-28T09:53:50.995Z</time></trkpt><trkpt lat="45.76630589879709" lon="9.61130172027727"><ele>298.0</ele><time>2026-03-28T09:53:51.995Z</time></trkpt><trkpt lat="45.76646779589134" lon="9.611273534104818"><ele>298.0</ele><time>2026-03-28T09:53:52.995Z</time></trkpt><trkpt lat="45.766628050803696" lon="9.611247680504581"><ele>298.0</ele><time>2026-03-28T09:53:53.995Z</time></trkpt><trkpt lat="45.76678321018071" lon="9.611220920390833"><ele>298.3333333333333</ele><time>2026-03-28T09:53:54.995Z</time></trkpt><trkpt lat="45.7669282805699" lon="9.611192313632403"><ele>298.6666666666667</ele><time>2026-03-28T09:53:55.995Z</time></trkpt><trkpt lat="45.76707704187557" lon="9.611163933649324"><ele>299.0</ele><time>2026-03-28T09:53:56.995Z</time></trkpt><trkpt lat="45.76723225929995" lon="9.611133168523827"><ele>299.0</ele><time>2026-03-28T09:53:57.995Z</time></trkpt><trkpt lat="45.76737977548106" lon="9.61110328974031"><ele>299.0</ele><time>2026-03-28T09:53:58.995Z</time></trkpt><trkpt lat="45.76752613766485" lon="9.611077241284091"><ele>299.0</ele><time>2026-03-28T09:53:59.996Z</time></trkpt><trkpt lat="45.767676481901894" lon="9.611048713113078"><ele>299.0</ele><time>2026-03-28T09:54:00.996Z</time></trkpt><trkpt lat="45.76782345746634" lon="9.611017352475475"><ele>305.6666666666667</ele><time>2026-03-28T09:54:01.996Z</time></trkpt><trkpt lat="45.76798028922395" lon="9.610985184678078"><ele>312.3333333333333</ele><time>2026-03-28T09:54:02.996Z</time></trkpt><trkpt lat="45.76814583671275" lon="9.610951057061017"><ele>319.0</ele><time>2026-03-28T09:54:03.996Z</time></trkpt><trkpt lat="45.76832323869266" lon="9.61091086836599"><ele>319.0</ele><time>2026-03-28T09:54:04.996Z</time></trkpt><trkpt lat="45.76850553241077" lon="9.61089407562836"><ele>319.0</ele><time>2026-03-28T09:54:05.996Z</time></trkpt><trkpt lat="45.76869081867123" lon="9.61089565708032"><ele>319.0</ele><time>2026-03-28T09:54:06.996Z</time></trkpt><trkpt lat="45.76887180771758" lon="9.610909271912346"><ele>319.3333333333333</ele><time>2026-03-28T09:54:07.996Z</time></trkpt><trkpt lat="45.76905200558493" lon="9.610925219600938"><ele>319.6666666666667</ele><time>2026-03-28T09:54:08.996Z</time></trkpt><trkpt lat="45.769216524377015" lon="9.610943647318136"><ele>320.0</ele><time>2026-03-28T09:54:09.996Z</time></trkpt><trkpt lat="45.76936592852282" lon="9.610955662852213"><ele>318.5</ele><time>2026-03-28T09:54:10.996Z</time></trkpt><trkpt lat="45.769501518205495" lon="9.610968333729787"><ele>317.0</ele><time>2026-03-28T09:54:11.996Z</time></trkpt><trkpt lat="45.76963782630739" lon="9.611003664075536"><ele>315.5</ele><time>2026-03-28T09:54:12.996Z</time></trkpt><trkpt lat="45.76976875876665" lon="9.611069432042592"><ele>314.0</ele><time>2026-03-28T09:54:13.996Z</time></trkpt><trkpt lat="45.769881892703424" lon="9.611179588836139"><ele>311.0</ele><time>2026-03-28T09:54:14.996Z</time></trkpt><trkpt lat="45.76998742714106" lon="9.611322524541793"><ele>308.0</ele><time>2026-03-28T09:54:15.996Z</time></trkpt><trkpt lat="45.77008570118623" lon="9.611483597660857"><ele>305.0</ele><time>2026-03-28T09:54:16.996Z</time></trkpt><trkpt lat="45.77017089341477" lon="9.611666025967377"><ele>302.0</ele><time>2026-03-28T09:54:17.996Z</time></trkpt><trkpt lat="45.77024927123213" lon="9.61184484088642"><ele>302.5</ele><time>2026-03-28T09:54:18.996Z</time></trkpt><trkpt lat="45.77032268999578" lon="9.61200809761983"><ele>303.0</ele><time>2026-03-28T09:54:19.996Z</time></trkpt><trkpt lat="45.77039173019025" lon="9.612179585371747"><ele>303.5</ele><time>2026-03-28T09:54:20.996Z</time></trkpt><trkpt lat="45.77045612834895" lon="9.612339757175109"><ele>304.0</ele><time>2026-03-28T09:54:21.996Z</time></trkpt><trkpt lat="45.77052234633546" lon="9.61250684607036"><ele>304.0</ele><time>2026-03-28T09:54:22.996Z</time></trkpt><trkpt lat="45.770595012667194" lon="9.612686068960928"><ele>304.0</ele><time>2026-03-28T09:54:23.996Z</time></trkpt><trkpt lat="45.7706652954031" lon="9.612848234835923"><ele>304.0</ele><time>2026-03-28T09:54:24.996Z</time></trkpt><trkpt lat="45.77072786520926" lon="9.613005681204017"><ele>304.0</ele><time>2026-03-28T09:54:25.996Z</time></trkpt><trkpt lat="45.77078706460948" lon="9.613160308897461"><ele>307.25</ele><time>2026-03-28T09:54:26.996Z</time></trkpt><trkpt lat="45.77085568041751" lon="9.613317598736273"><ele>310.5</ele><time>2026-03-28T09:54:27.996Z</time></trkpt><trkpt lat="45.77092502423431" lon="9.613450932147888"><ele>313.75</ele><time>2026-03-28T09:54:28.996Z</time></trkpt><trkpt lat="45.77100979772289" lon="9.613571960359257"><ele>317.0</ele><time>2026-03-28T09:54:29.996Z</time></trkpt><trkpt lat="45.771106086006846" lon="9.613696964544106"><ele>322.25</ele><time>2026-03-28T09:54:30.996Z</time></trkpt><trkpt lat="45.77123773150723" lon="9.613763158448549"><ele>327.5</ele><time>2026-03-28T09:54:31.996Z</time></trkpt><trkpt lat="45.77136479952892" lon="9.613846613413545"><ele>332.75</ele><time>2026-03-28T09:54:32.996Z</time></trkpt><trkpt lat="45.77149598441553" lon="9.613922660303786"><ele>338.0</ele><time>2026-03-28T09:54:33.996Z</time></trkpt><trkpt lat="45.77162977421074" lon="9.61399955741884"><ele>338.0</ele><time>2026-03-28T09:54:34.996Z</time></trkpt><trkpt lat="45.7717668264739" lon="9.614079902757272"><ele>338.0</ele><time>2026-03-28T09:54:35.996Z</time></trkpt><trkpt lat="45.77191413994927" lon="9.614166957463691"><ele>338.0</ele><time>2026-03-28T09:54:36.996Z</time></trkpt><trkpt lat="45.77207108357778" lon="9.614272099045662"><ele>330.0</ele><time>2026-03-28T09:54:37.996Z</time></trkpt><trkpt lat="45.772235087482386" lon="9.614388918465067"><ele>322.0</ele><time>2026-03-28T09:54:38.996Z</time></trkpt><trkpt lat="45.77239634657176" lon="9.61452133266962"><ele>314.0</ele><time>2026-03-28T09:54:39.996Z</time></trkpt><trkpt lat="45.772561231677464" lon="9.614656304715917"><ele>323.6666666666667</ele><time>2026-03-28T09:54:40.996Z</time></trkpt><trkpt lat="45.77272086653191" lon="9.614784645736755"><ele>333.3333333333333</ele><time>2026-03-28T09:54:41.996Z</time></trkpt><trkpt lat="45.77286385297789" lon="9.614892322859461"><ele>343.0</ele><time>2026-03-28T09:54:42.996Z</time></trkpt><trkpt lat="45.77300740423258" lon="9.614989183990348"><ele>343.0</ele><time>2026-03-28T09:54:43.996Z</time></trkpt><trkpt lat="45.77315445206258" lon="9.615036611231435"><ele>343.0</ele><time>2026-03-28T09:54:44.996Z</time></trkpt><trkpt lat="45.77331041148249" lon="9.615037248499005"><ele>343.0</ele><time>2026-03-28T09:54:45.996Z</time></trkpt><trkpt lat="45.773476673795265" lon="9.615017005939785"><ele>342.3333333333333</ele><time>2026-03-28T09:54:46.996Z</time></trkpt><trkpt lat="45.773645884037805" lon="9.614995488382913"><ele>341.6666666666667</ele><time>2026-03-28T09:54:47.996Z</time></trkpt><trkpt lat="45.77383234680121" lon="9.61499533319142"><ele>341.0</ele><time>2026-03-28T09:54:48.996Z</time></trkpt><trkpt lat="45.77401636044202" lon="9.614976060216694"><ele>341.0</ele><time>2026-03-28T09:54:49.996Z</time></trkpt><trkpt lat="45.774190543872216" lon="9.61494787784994"><ele>341.0</ele><time>2026-03-28T09:54:50.996Z</time></trkpt><trkpt lat="45.774342380575334" lon="9.614870941747835"><ele>341.0</ele><time>2026-03-28T09:54:51.996Z</time></trkpt><trkpt lat="45.77449055150763" lon="9.614833858629922"><ele>348.0</ele><time>2026-03-28T09:54:52.995Z</time></trkpt><trkpt lat="45.77463400215398" lon="9.614766597052883"><ele>355.0</ele><time>2026-03-28T09:54:53.995Z</time></trkpt><trkpt lat="45.77477873604697" lon="9.614673485275413"><ele>362.0</ele><time>2026-03-28T09:54:54.995Z</time></trkpt><trkpt lat="45.77492462145582" lon="9.614530326583035"><ele>359.0</ele><time>2026-03-28T09:54:55.995Z</time></trkpt><trkpt lat="45.7750515063137" lon="9.614365764501441"><ele>356.0</ele><time>2026-03-28T09:54:56.995Z</time></trkpt><trkpt lat="45.77516979249619" lon="9.614207528262735"><ele>353.0</ele><time>2026-03-28T09:54:57.995Z</time></trkpt><trkpt lat="45.775290592539086" lon="9.61404575815884"><ele>353.0</ele><time>2026-03-28T09:54:58.995Z</time></trkpt><trkpt lat="45.77539199036566" lon="9.6138820690822"><ele>353.0</ele><time>2026-03-28T09:54:59.995Z</time></trkpt><trkpt lat="45.775504961182776" lon="9.613752010750702"><ele>353.0</ele><time>2026-03-28T09:55:00.995Z</time></trkpt><trkpt lat="45.7756113174259" lon="9.613623186048299"><ele>353.0</ele><time>2026-03-28T09:55:01.995Z</time></trkpt><trkpt lat="45.77573186804542" lon="9.613503992607209"><ele>348.0</ele><time>2026-03-28T09:55:02.995Z</time></trkpt><trkpt lat="45.77586628318668" lon="9.613404667133576"><ele>343.0</ele><time>2026-03-28T09:55:03.995Z</time></trkpt><trkpt lat="45.77601927063928" lon="9.613313522132707"><ele>338.0</ele><time>2026-03-28T09:55:04.995Z</time></trkpt><trkpt lat="45.77617867250881" lon="9.61322756849379"><ele>338.0</ele><time>2026-03-28T09:55:05.995Z</time></trkpt><trkpt lat="45.77634031050469" lon="9.613165363782445"><ele>338.0</ele><time>2026-03-28T09:55:06.995Z</time></trkpt><trkpt lat="45.77649771564062" lon="9.613106724549448"><ele>338.0</ele><time>2026-03-28T09:55:07.995Z</time></trkpt><trkpt lat="45.77665128028641" lon="9.613066425885352"><ele>338.0</ele><time>2026-03-28T09:55:08.995Z</time></trkpt><trkpt lat="45.776791964649185" lon="9.61304597994258"><ele>338.0</ele><time>2026-03-28T09:55:09.995Z</time></trkpt><trkpt lat="45.77692574396679" lon="9.613050085880886"><ele>338.0</ele><time>2026-03-28T09:55:10.996Z</time></trkpt><trkpt lat="45.77705905281831" lon="9.613081985497674"><ele>338.0</ele><time>2026-03-28T09:55:11.996Z</time></trkpt><trkpt lat="45.777188774492835" lon="9.613139142128237"><ele>337.6666666666667</ele><time>2026-03-28T09:55:12.996Z</time></trkpt><trkpt lat="45.777347886752175" lon="9.613192029308854"><ele>337.3333333333333</ele><time>2026-03-28T09:55:13.996Z</time></trkpt><trkpt lat="45.77751403531786" lon="9.613283884695777"><ele>337.0</ele><time>2026-03-28T09:55:14.996Z</time></trkpt><trkpt lat="45.77767357300253" lon="9.613368301289537"><ele>334.66666666666663</ele><time>2026-03-28T09:55:15.996Z</time></trkpt><trkpt lat="45.77783156180159" lon="9.61345164278557"><ele>332.3333333333333</ele><time>2026-03-28T09:55:16.996Z</time></trkpt><trkpt lat="45.77796767898122" lon="9.613526227727428"><ele>330.0</ele><time>2026-03-28T09:55:17.996Z</time></trkpt><trkpt lat="45.778094635102" lon="9.613598435218455"><ele>330.4</ele><time>2026-03-28T09:55:18.996Z</time></trkpt><trkpt lat="45.778209176516775" lon="9.61366692604384"><ele>330.8</ele><time>2026-03-28T09:55:19.996Z</time></trkpt><trkpt lat="45.778304707146674" lon="9.61372127484263"><ele>331.20000000000005</ele><time>2026-03-28T09:55:20.996Z</time></trkpt><trkpt lat="45.77838861469082" lon="9.613770705716806"><ele>331.6</ele><time>2026-03-28T09:55:21.996Z</time></trkpt><trkpt lat="45.77847099041419" lon="9.613821837902933"><ele>332.0</ele><time>2026-03-28T09:55:22.996Z</time></trkpt><trkpt lat="45.778556510995685" lon="9.6138661062227"><ele>332.0</ele><time>2026-03-28T09:55:23.996Z</time></trkpt><trkpt lat="45.77864326887225" lon="9.613913066454499"><ele>332.0</ele><time>2026-03-28T09:55:24.996Z</time></trkpt><trkpt lat="45.77872640339708" lon="9.613949059265511"><ele>332.0</ele><time>2026-03-28T09:55:25.996Z</time></trkpt><trkpt lat="45.77881967643487" lon="9.614000322469181"><ele>332.0</ele><time>2026-03-28T09:55:26.996Z</time></trkpt><trkpt lat="45.778915406684725" lon="9.614051798898036"><ele>332.0</ele><time>2026-03-28T09:55:27.996Z</time></trkpt><trkpt lat="45.779001383518384" lon="9.614098743860742"><ele>332.0</ele><time>2026-03-28T09:55:28.996Z</time></trkpt><trkpt lat="45.77909266847948" lon="9.614146888012277"><ele>332.0</ele><time>2026-03-28T09:55:29.996Z</time></trkpt><trkpt lat="45.77919001547371" lon="9.614198270728492"><ele>332.0</ele><time>2026-03-28T09:55:30.996Z</time></trkpt><trkpt lat="45.779291435496255" lon="9.6142706470684"><ele>332.0</ele><time>2026-03-28T09:55:31.996Z</time></trkpt><trkpt lat="45.77939221104218" lon="9.614369508068847"><ele>332.0</ele><time>2026-03-28T09:55:32.996Z</time></trkpt><trkpt lat="45.77948341121581" lon="9.614496512176444"><ele>325.25</ele><time>2026-03-28T09:55:33.996Z</time></trkpt><trkpt lat="45.77955539034235" lon="9.6146442032235"><ele>318.5</ele><time>2026-03-28T09:55:34.996Z</time></trkpt><trkpt lat="45.7796101233454" lon="9.614799678024285"><ele>311.75</ele><time>2026-03-28T09:55:35.996Z</time></trkpt><trkpt lat="45.77964911668277" lon="9.614974818095735"><ele>305.0</ele><time>2026-03-28T09:55:36.996Z</time></trkpt><trkpt lat="45.77966780594635" lon="9.615143815089741"><ele>307.75</ele><time>2026-03-28T09:55:37.996Z</time></trkpt><trkpt lat="45.779686598860984" lon="9.615325532603812"><ele>310.5</ele><time>2026-03-28T09:55:38.996Z</time></trkpt><trkpt lat="45.77969474086989" lon="9.615519356340016"><ele>313.25</ele><time>2026-03-28T09:55:39.996Z</time></trkpt><trkpt lat="45.779712537118414" lon="9.615719393767192"><ele>316.0</ele><time>2026-03-28T09:55:40.996Z</time></trkpt><trkpt lat="45.77972613642686" lon="9.615923494323555"><ele>316.0</ele><time>2026-03-28T09:55:41.996Z</time></trkpt><trkpt lat="45.77973791724888" lon="9.616138333460963"><ele>316.0</ele><time>2026-03-28T09:55:42.996Z</time></trkpt><trkpt lat="45.77975722491323" lon="9.616342668450862"><ele>316.0</ele><time>2026-03-28T09:55:43.996Z</time></trkpt><trkpt lat="45.77977300050533" lon="9.616541954599116"><ele>316.0</ele><time>2026-03-28T09:55:44.996Z</time></trkpt><trkpt lat="45.77978872022299" lon="9.61673393513309"><ele>316.3333333333333</ele><time>2026-03-28T09:55:45.996Z</time></trkpt><trkpt lat="45.77981536814588" lon="9.616930192964679"><ele>316.6666666666667</ele><time>2026-03-28T09:55:46.996Z</time></trkpt><trkpt lat="45.77986702562082" lon="9.61716542515769"><ele>317.0</ele><time>2026-03-28T09:55:47.996Z</time></trkpt><trkpt lat="45.779942234174484" lon="9.617424899754788"><ele>318.5</ele><time>2026-03-28T09:55:48.996Z</time></trkpt><trkpt lat="45.78005823804962" lon="9.617704722073901"><ele>320.0</ele><time>2026-03-28T09:55:49.996Z</time></trkpt><trkpt lat="45.780176642177956" lon="9.618012243682333"><ele>311.0</ele><time>2026-03-28T09:55:50.996Z</time></trkpt><trkpt lat="45.78028851085583" lon="9.61830157009679"><ele>302.0</ele><time>2026-03-28T09:55:51.996Z</time></trkpt><trkpt lat="45.78039648374727" lon="9.618591816835803"><ele>303.5</ele><time>2026-03-28T09:55:52.996Z</time></trkpt><trkpt lat="45.780505694494884" lon="9.618887769346221"><ele>305.0</ele><time>2026-03-28T09:55:53.996Z</time></trkpt><trkpt lat="45.78061335853157" lon="9.619183685898937"><ele>305.0</ele><time>2026-03-28T09:55:54.996Z</time></trkpt><trkpt lat="45.78072482394637" lon="9.619482910796359"><ele>305.0</ele><time>2026-03-28T09:55:55.996Z</time></trkpt><trkpt lat="45.78083854867353" lon="9.619784517556882"><ele>308.5</ele><time>2026-03-28T09:55:56.996Z</time></trkpt><trkpt lat="45.780957465879304" lon="9.620091521128614"><ele>312.0</ele><time>2026-03-28T09:55:57.996Z</time></trkpt><trkpt lat="45.78107520170125" lon="9.620402248165302"><ele>312.0</ele><time>2026-03-28T09:55:58.996Z</time></trkpt><trkpt lat="45.78119323086952" lon="9.620713366246108"><ele>312.0</ele><time>2026-03-28T09:55:59.996Z</time></trkpt><trkpt lat="45.78131413317882" lon="9.621028422438284"><ele>314.0</ele><time>2026-03-28T09:56:00.996Z</time></trkpt><trkpt lat="45.781449179172895" lon="9.621340676884197"><ele>316.0</ele><time>2026-03-28T09:56:01.996Z</time></trkpt><trkpt lat="45.78161420179784" lon="9.621645573617043"><ele>316.0</ele><time>2026-03-28T09:56:02.996Z</time></trkpt><trkpt lat="45.78178688072246" lon="9.621937972375633"><ele>316.0</ele><time>2026-03-28T09:56:03.996Z</time></trkpt><trkpt lat="45.78195923348339" lon="9.622201761578676"><ele>311.5</ele><time>2026-03-28T09:56:04.996Z</time></trkpt><trkpt lat="45.78213682241549" lon="9.622485475833518"><ele>307.0</ele><time>2026-03-28T09:56:05.996Z</time></trkpt><trkpt lat="45.782306344534256" lon="9.622799190491483"><ele>309.5</ele><time>2026-03-28T09:56:06.996Z</time></trkpt><trkpt lat="45.78245723993195" lon="9.623146269295406"><ele>312.0</ele><time>2026-03-28T09:56:07.996Z</time></trkpt><trkpt lat="45.78259086944472" lon="9.623522407376917"><ele>302.5</ele><time>2026-03-28T09:56:08.996Z</time></trkpt><trkpt lat="45.78271814608675" lon="9.6239447747954"><ele>293.0</ele><time>2026-03-28T09:56:09.996Z</time></trkpt><trkpt lat="45.782827908828494" lon="9.624397770196186"><ele>295.0</ele><time>2026-03-28T09:56:10.996Z</time></trkpt><trkpt lat="45.782939077934344" lon="9.624817460340498"><ele>297.0</ele><time>2026-03-28T09:56:11.996Z</time></trkpt><trkpt lat="45.783050886053346" lon="9.625197841077055"><ele>302.5</ele><time>2026-03-28T09:56:12.996Z</time></trkpt><trkpt lat="45.78316487751903" lon="9.62552770803795"><ele>308.0</ele><time>2026-03-28T09:56:13.996Z</time></trkpt><trkpt lat="45.78330188873592" lon="9.625854147151086"><ele>303.0</ele><time>2026-03-28T09:56:14.996Z</time></trkpt><trkpt lat="45.78346407571729" lon="9.626188129910245"><ele>298.0</ele><time>2026-03-28T09:56:15.996Z</time></trkpt><trkpt lat="45.78364331110837" lon="9.62650956910821"><ele>298.0</ele><time>2026-03-28T09:56:16.996Z</time></trkpt><trkpt lat="45.78382265667369" lon="9.62679877945283"><ele>298.0</ele><time>2026-03-28T09:56:17.996Z</time></trkpt><trkpt lat="45.783991321350825" lon="9.627078458750788"><ele>306.0</ele><time>2026-03-28T09:56:18.996Z</time></trkpt><trkpt lat="45.78415885130741" lon="9.627350504395071"><ele>314.0</ele><time>2026-03-28T09:56:19.996Z</time></trkpt><trkpt lat="45.78432815306549" lon="9.627617184894547"><ele>311.5</ele><time>2026-03-28T09:56:20.996Z</time></trkpt><trkpt lat="45.78449682617379" lon="9.627886944985175"><ele>309.0</ele><time>2026-03-28T09:56:21.996Z</time></trkpt><trkpt lat="45.78466354371762" lon="9.628162206819793"><ele>309.0</ele><time>2026-03-28T09:56:22.996Z</time></trkpt><trkpt lat="45.78483926278344" lon="9.628431392869226"><ele>309.0</ele><time>2026-03-28T09:56:23.996Z</time></trkpt><trkpt lat="45.78502231302336" lon="9.628680442740249"><ele>309.5</ele><time>2026-03-28T09:56:24.996Z</time></trkpt><trkpt lat="45.78522373630999" lon="9.628913616955362"><ele>310.0</ele><time>2026-03-28T09:56:25.996Z</time></trkpt><trkpt lat="45.785432107628665" lon="9.629105497209599"><ele>310.0</ele><time>2026-03-28T09:56:26.996Z</time></trkpt><trkpt lat="45.78563049883334" lon="9.629289479314497"><ele>310.0</ele><time>2026-03-28T09:56:27.996Z</time></trkpt><trkpt lat="45.785841154307555" lon="9.629466456362218"><ele>305.0</ele><time>2026-03-28T09:56:28.996Z</time></trkpt><trkpt lat="45.78604220873069" lon="9.629626622272816"><ele>300.0</ele><time>2026-03-28T09:56:29.996Z</time></trkpt><trkpt lat="45.786235073215614" lon="9.629794951978507"><ele>300.0</ele><time>2026-03-28T09:56:30.996Z</time></trkpt><trkpt lat="45.7864167554791" lon="9.629949226023268"><ele>300.0</ele><time>2026-03-28T09:56:31.996Z</time></trkpt><trkpt lat="45.786576369547646" lon="9.630093289050755"><ele>300.0</ele><time>2026-03-28T09:56:32.996Z</time></trkpt><trkpt lat="45.78673161234699" lon="9.630256652828463"><ele>308.6666666666667</ele><time>2026-03-28T09:56:33.996Z</time></trkpt><trkpt lat="45.78688095763043" lon="9.630445936223516"><ele>317.33333333333337</ele><time>2026-03-28T09:56:34.996Z</time></trkpt><trkpt lat="45.78701808509261" lon="9.63066298913423"><ele>326.0</ele><time>2026-03-28T09:56:35.996Z</time></trkpt><trkpt lat="45.78712630168317" lon="9.630896042672907"><ele>324.0</ele><time>2026-03-28T09:56:36.996Z</time></trkpt><trkpt lat="45.787214063411106" lon="9.631151809951382"><ele>322.0</ele><time>2026-03-28T09:56:37.996Z</time></trkpt><trkpt lat="45.78731638948253" lon="9.63141166473664"><ele>320.0</ele><time>2026-03-28T09:56:38.996Z</time></trkpt><trkpt lat="45.787415907689315" lon="9.631669151018173"><ele>322.0</ele><time>2026-03-28T09:56:39.996Z</time></trkpt><trkpt lat="45.787415738819405" lon="9.631974044300915"><ele>324.0</ele><time>2026-03-28T09:56:40.996Z</time></trkpt><trkpt lat="45.78745550028154" lon="9.63222408129177"><ele>326.0</ele><time>2026-03-28T09:56:41.996Z</time></trkpt><trkpt lat="45.78748026650533" lon="9.632472106840586"><ele>326.0</ele><time>2026-03-28T09:56:42.996Z</time></trkpt><trkpt lat="45.78751145671873" lon="9.632698731986881"><ele>326.0</ele><time>2026-03-28T09:56:43.996Z</time></trkpt><trkpt lat="45.787551890896204" lon="9.632927444137362"><ele>326.0</ele><time>2026-03-28T09:56:44.996Z</time></trkpt><trkpt lat="45.78759141275078" lon="9.633147800070832"><ele>319.33333333333337</ele><time>2026-03-28T09:56:45.996Z</time></trkpt><trkpt lat="45.78764005788808" lon="9.633366286749526"><ele>312.6666666666667</ele><time>2026-03-28T09:56:46.996Z</time></trkpt><trkpt lat="45.78769455805489" lon="9.633605035194586"><ele>306.0</ele><time>2026-03-28T09:56:47.996Z</time></trkpt><trkpt lat="45.78775232662322" lon="9.633843663048664"><ele>320.3333333333333</ele><time>2026-03-28T09:56:48.996Z</time></trkpt><trkpt lat="45.78781278202081" lon="9.634085136342687"><ele>334.66666666666663</ele><time>2026-03-28T09:56:49.996Z</time></trkpt><trkpt lat="45.787876857492556" lon="9.634313873738334"><ele>349.0</ele><time>2026-03-28T09:56:50.996Z</time></trkpt><trkpt lat="45.787937223947594" lon="9.634537386423858"><ele>349.0</ele><time>2026-03-28T09:56:51.996Z</time></trkpt><trkpt lat="45.787997704780274" lon="9.634757270169425"><ele>349.0</ele><time>2026-03-28T09:56:52.996Z</time></trkpt><trkpt lat="45.78805309556672" lon="9.634976900295227"><ele>349.0</ele><time>2026-03-28T09:56:53.996Z</time></trkpt><trkpt lat="45.788111843114116" lon="9.635196688940919"><ele>341.0</ele><time>2026-03-28T09:56:54.996Z</time></trkpt><trkpt lat="45.788166262104305" lon="9.635402415139467"><ele>333.0</ele><time>2026-03-28T09:56:55.996Z</time></trkpt><trkpt lat="45.78821042271128" lon="9.63560238222786"><ele>325.0</ele><time>2026-03-28T09:56:56.996Z</time></trkpt><trkpt lat="45.7882487445226" lon="9.635803205096469"><ele>317.0</ele><time>2026-03-28T09:56:57.994Z</time></trkpt><trkpt lat="45.788286105298326" lon="9.636005007594976"><ele>310.6666666666667</ele><time>2026-03-28T09:56:58.994Z</time></trkpt><trkpt lat="45.78833586401916" lon="9.63620869703322"><ele>304.3333333333333</ele><time>2026-03-28T09:56:59.993Z</time></trkpt><trkpt lat="45.78840430834448" lon="9.636407558322924"><ele>298.0</ele><time>2026-03-28T09:57:00.993Z</time></trkpt><trkpt lat="45.78848711114849" lon="9.636591545694989"><ele>297.66666666666663</ele><time>2026-03-28T09:57:01.993Z</time></trkpt><trkpt lat="45.78858525062714" lon="9.636760502882423"><ele>297.3333333333333</ele><time>2026-03-28T09:57:02.993Z</time></trkpt><trkpt lat="45.78869209558926" lon="9.636928616969618"><ele>297.0</ele><time>2026-03-28T09:57:03.992Z</time></trkpt><trkpt lat="45.788788886542406" lon="9.637095425456145"><ele>297.0</ele><time>2026-03-28T09:57:04.992Z</time></trkpt><trkpt lat="45.7888802498069" lon="9.637246853967065"><ele>297.0</ele><time>2026-03-28T09:57:05.992Z</time></trkpt><trkpt lat="45.7889554967708" lon="9.637405858876091"><ele>297.0</ele><time>2026-03-28T09:57:06.992Z</time></trkpt><trkpt lat="45.789026153335136" lon="9.637579316125258"><ele>297.0</ele><time>2026-03-28T09:57:07.992Z</time></trkpt><trkpt lat="45.78909005591319" lon="9.637740005475534"><ele>296.0</ele><time>2026-03-28T09:57:08.991Z</time></trkpt><trkpt lat="45.78914500233202" lon="9.637884942514859"><ele>295.0</ele><time>2026-03-28T09:57:09.991Z</time></trkpt><trkpt lat="45.789191521134065" lon="9.638034406914805"><ele>294.0</ele><time>2026-03-28T09:57:10.991Z</time></trkpt><trkpt lat="45.78922849815688" lon="9.638177724475796"><ele>293.0</ele><time>2026-03-28T09:57:11.991Z</time></trkpt><trkpt lat="45.789255832602244" lon="9.638311475663436"><ele>292.0</ele><time>2026-03-28T09:57:12.991Z</time></trkpt><trkpt lat="45.78926665347403" lon="9.638440573698649"><ele>292.0</ele><time>2026-03-28T09:57:13.991Z</time></trkpt><trkpt lat="45.789251528795205" lon="9.638559302466351"><ele>292.0</ele><time>2026-03-28T09:57:14.991Z</time></trkpt><trkpt lat="45.789218815647644" lon="9.63868462741237"><ele>292.0</ele><time>2026-03-28T09:57:15.991Z</time></trkpt><trkpt lat="45.789219098324935" lon="9.638806753675834"><ele>292.0</ele><time>2026-03-28T09:57:16.99Z</time></trkpt><trkpt lat="45.78926656613049" lon="9.638967943195125"><ele>292.0</ele><time>2026-03-28T09:57:17.99Z</time></trkpt><trkpt lat="45.78933905785948" lon="9.639169894770413"><ele>293.0</ele><time>2026-03-28T09:57:18.99Z</time></trkpt><trkpt lat="45.789416394171546" lon="9.63934974193429"><ele>294.0</ele><time>2026-03-28T09:57:19.99Z</time></trkpt><trkpt lat="45.789518489337816" lon="9.639487310979447"><ele>295.0</ele><time>2026-03-28T09:57:20.99Z</time></trkpt><trkpt lat="45.789640201848314" lon="9.639599117133816"><ele>296.0</ele><time>2026-03-28T09:57:21.99Z</time></trkpt><trkpt lat="45.789751079705155" lon="9.639723784087153"><ele>296.0</ele><time>2026-03-28T09:57:22.99Z</time></trkpt><trkpt lat="45.78983371608121" lon="9.639879366260374"><ele>296.0</ele><time>2026-03-28T09:57:23.99Z</time></trkpt><trkpt lat="45.789900633432374" lon="9.640068697128205"><ele>296.0</ele><time>2026-03-28T09:57:24.99Z</time></trkpt><trkpt lat="45.78995970896642" lon="9.640257572453814"><ele>296.0</ele><time>2026-03-28T09:57:25.99Z</time></trkpt><trkpt lat="45.7900243759096" lon="9.640434749554018"><ele>295.75</ele><time>2026-03-28T09:57:26.99Z</time></trkpt><trkpt lat="45.79008494204838" lon="9.640617240490206"><ele>295.5</ele><time>2026-03-28T09:57:27.99Z</time></trkpt><trkpt lat="45.790143381452474" lon="9.640795286554075"><ele>295.25</ele><time>2026-03-28T09:57:28.99Z</time></trkpt><trkpt lat="45.79020221650707" lon="9.640968311272498"><ele>295.0</ele><time>2026-03-28T09:57:29.99Z</time></trkpt><trkpt lat="45.790267570328" lon="9.641136159171994"><ele>295.0</ele><time>2026-03-28T09:57:30.989Z</time></trkpt><trkpt lat="45.79033420174001" lon="9.641310219763563"><ele>295.0</ele><time>2026-03-28T09:57:31.989Z</time></trkpt><trkpt lat="45.7904011309135" lon="9.641487830704692"><ele>295.0</ele><time>2026-03-28T09:57:32.989Z</time></trkpt><trkpt lat="45.79046665405712" lon="9.641669057952049"><ele>295.0</ele><time>2026-03-28T09:57:33.989Z</time></trkpt><trkpt lat="45.79053775696553" lon="9.641880126334105"><ele>294.3333333333333</ele><time>2026-03-28T09:57:34.989Z</time></trkpt><trkpt lat="45.79060144121975" lon="9.642099004732888"><ele>293.6666666666667</ele><time>2026-03-28T09:57:35.989Z</time></trkpt><trkpt lat="45.79065956363086" lon="9.642324096564543"><ele>293.0</ele><time>2026-03-28T09:57:36.989Z</time></trkpt><trkpt lat="45.79070805436849" lon="9.642548819941537"><ele>293.0</ele><time>2026-03-28T09:57:37.989Z</time></trkpt><trkpt lat="45.79075088553417" lon="9.642765739782465"><ele>293.0</ele><time>2026-03-28T09:57:38.989Z</time></trkpt><trkpt lat="45.79079110999832" lon="9.642973942985602"><ele>293.0</ele><time>2026-03-28T09:57:39.989Z</time></trkpt><trkpt lat="45.79082527988563" lon="9.643176948237484"><ele>293.0</ele><time>2026-03-28T09:57:40.989Z</time></trkpt><trkpt lat="45.79086398965264" lon="9.643380231507088"><ele>293.0</ele><time>2026-03-28T09:57:41.989Z</time></trkpt><trkpt lat="45.790900611425315" lon="9.64357404708303"><ele>293.0</ele><time>2026-03-28T09:57:42.989Z</time></trkpt><trkpt lat="45.79093541608589" lon="9.64375419919839"><ele>293.0</ele><time>2026-03-28T09:57:43.989Z</time></trkpt><trkpt lat="45.79097382573629" lon="9.643924844172302"><ele>293.25</ele><time>2026-03-28T09:57:44.989Z</time></trkpt><trkpt lat="45.79100531546186" lon="9.644081323958373"><ele>293.5</ele><time>2026-03-28T09:57:45.989Z</time></trkpt><trkpt lat="45.79104250349737" lon="9.644246986341102"><ele>293.75</ele><time>2026-03-28T09:57:46.989Z</time></trkpt><trkpt lat="45.79108346848805" lon="9.64442146521432"><ele>294.0</ele><time>2026-03-28T09:57:47.989Z</time></trkpt><trkpt lat="45.79113003445309" lon="9.644604922859248"><ele>295.0</ele><time>2026-03-28T09:57:48.989Z</time></trkpt><trkpt lat="45.791173208856314" lon="9.644792064383404"><ele>296.0</ele><time>2026-03-28T09:57:49.989Z</time></trkpt><trkpt lat="45.79121723238262" lon="9.644984269628486"><ele>297.0</ele><time>2026-03-28T09:57:50.989Z</time></trkpt><trkpt lat="45.791267720391495" lon="9.645186019951792"><ele>298.0</ele><time>2026-03-28T09:57:51.989Z</time></trkpt><trkpt lat="45.791320026133704" lon="9.645392873080896"><ele>298.0</ele><time>2026-03-28T09:57:52.989Z</time></trkpt><trkpt lat="45.79136901119782" lon="9.64559091934803"><ele>298.0</ele><time>2026-03-28T09:57:53.989Z</time></trkpt><trkpt lat="45.79141438372647" lon="9.645780943661562"><ele>298.0</ele><time>2026-03-28T09:57:54.989Z</time></trkpt><trkpt lat="45.791440728409334" lon="9.645975856327034"><ele>298.0</ele><time>2026-03-28T09:57:55.989Z</time></trkpt><trkpt lat="45.79148853894527" lon="9.646148744634637"><ele>298.0</ele><time>2026-03-28T09:57:56.989Z</time></trkpt><trkpt lat="45.791525451325825" lon="9.646313515253805"><ele>298.0</ele><time>2026-03-28T09:57:57.989Z</time></trkpt><trkpt lat="45.79155704405377" lon="9.646482395131233"><ele>298.0</ele><time>2026-03-28T09:57:58.989Z</time></trkpt><trkpt lat="45.79159060144744" lon="9.646655189528206"><ele>298.0</ele><time>2026-03-28T09:57:59.989Z</time></trkpt><trkpt lat="45.79162120895425" lon="9.646832961862522"><ele>297.75</ele><time>2026-03-28T09:58:00.989Z</time></trkpt><trkpt lat="45.79165180978429" lon="9.647013425808085"><ele>297.5</ele><time>2026-03-28T09:58:01.989Z</time></trkpt><trkpt lat="45.7916840994767" lon="9.64720429720819"><ele>297.25</ele><time>2026-03-28T09:58:02.989Z</time></trkpt><trkpt lat="45.791719239449094" lon="9.647394420075614"><ele>297.0</ele><time>2026-03-28T09:58:03.989Z</time></trkpt><trkpt lat="45.79175910256104" lon="9.647582008329042"><ele>297.0</ele><time>2026-03-28T09:58:04.989Z</time></trkpt><trkpt lat="45.79179590105297" lon="9.647760205738514"><ele>297.0</ele><time>2026-03-28T09:58:05.989Z</time></trkpt><trkpt lat="45.79183166865489" lon="9.647939525830434"><ele>297.0</ele><time>2026-03-28T09:58:06.989Z</time></trkpt><trkpt lat="45.79186348416403" lon="9.648119710648798"><ele>297.0</ele><time>2026-03-28T09:58:07.989Z</time></trkpt><trkpt lat="45.79189913743492" lon="9.648300049526638"><ele>299.5</ele><time>2026-03-28T09:58:08.989Z</time></trkpt><trkpt lat="45.791929487512704" lon="9.648487538749412"><ele>302.0</ele><time>2026-03-28T09:58:09.989Z</time></trkpt><trkpt lat="45.79195311003068" lon="9.648670154474294"><ele>304.5</ele><time>2026-03-28T09:58:10.989Z</time></trkpt><trkpt lat="45.79197770461029" lon="9.648844244326611"><ele>307.0</ele><time>2026-03-28T09:58:11.989Z</time></trkpt><trkpt lat="45.79199888983471" lon="9.649011931138654"><ele>307.0</ele><time>2026-03-28T09:58:12.989Z</time></trkpt><trkpt lat="45.79202129253426" lon="9.64918047796963"><ele>307.0</ele><time>2026-03-28T09:58:13.989Z</time></trkpt><trkpt lat="45.79204329347558" lon="9.649345588622639"><ele>307.0</ele><time>2026-03-28T09:58:14.989Z</time></trkpt><trkpt lat="45.79204583562024" lon="9.649494816731082"><ele>307.0</ele><time>2026-03-28T09:58:15.989Z</time></trkpt><trkpt lat="45.79206502367742" lon="9.649627271151443"><ele>307.0</ele><time>2026-03-28T09:58:16.989Z</time></trkpt><trkpt lat="45.79208630902393" lon="9.649750900396748"><ele>306.3333333333333</ele><time>2026-03-28T09:58:17.989Z</time></trkpt><trkpt lat="45.792108044096445" lon="9.649854978602953"><ele>305.66666666666663</ele><time>2026-03-28T09:58:18.989Z</time></trkpt><trkpt lat="45.79212623599041" lon="9.64994946244772"><ele>305.0</ele><time>2026-03-28T09:58:19.989Z</time></trkpt><trkpt lat="45.79214455184184" lon="9.650045713027858"><ele>304.3333333333333</ele><time>2026-03-28T09:58:20.989Z</time></trkpt><trkpt lat="45.79216217724364" lon="9.650152687548877"><ele>303.6666666666667</ele><time>2026-03-28T09:58:21.989Z</time></trkpt><trkpt lat="45.79217957482574" lon="9.650275117205288"><ele>303.0</ele><time>2026-03-28T09:58:22.989Z</time></trkpt><trkpt lat="45.79220280736523" lon="9.650402538843943"><ele>302.3333333333333</ele><time>2026-03-28T09:58:23.989Z</time></trkpt><trkpt lat="45.792224666383916" lon="9.650512380994835"><ele>301.6666666666667</ele><time>2026-03-28T09:58:24.989Z</time></trkpt><trkpt lat="45.79224497430263" lon="9.650604037413553"><ele>301.0</ele><time>2026-03-28T09:58:25.989Z</time></trkpt><trkpt lat="45.79226156489657" lon="9.65069787625295"><ele>300.33333333333337</ele><time>2026-03-28T09:58:26.989Z</time></trkpt><trkpt lat="45.79229692845576" lon="9.650870307378879"><ele>299.6666666666667</ele><time>2026-03-28T09:58:28.989Z</time></trkpt><trkpt lat="45.79231293677797" lon="9.65097008914657"><ele>299.0</ele><time>2026-03-28T09:58:29.989Z</time></trkpt><trkpt lat="45.79233220327243" lon="9.651076807541232"><ele>298.83333333333337</ele><time>2026-03-28T09:58:30.989Z</time></trkpt><trkpt lat="45.792352705702484" lon="9.651173020302055"><ele>298.6666666666667</ele><time>2026-03-28T09:58:31.989Z</time></trkpt><trkpt lat="45.792369329347814" lon="9.651262339344763"><ele>298.5</ele><time>2026-03-28T09:58:32.989Z</time></trkpt><trkpt lat="45.792400711354034" lon="9.65142448614099"><ele>298.3333333333333</ele><time>2026-03-28T09:58:34.989Z</time></trkpt><trkpt lat="45.792417186934706" lon="9.651515442287375"><ele>298.16666666666663</ele><time>2026-03-28T09:58:35.989Z</time></trkpt><trkpt lat="45.79243680946351" lon="9.651608715502174"><ele>298.0</ele><time>2026-03-28T09:58:36.989Z</time></trkpt><trkpt lat="45.79245566074866" lon="9.65170677568697"><ele>298.0</ele><time>2026-03-28T09:58:37.989Z</time></trkpt><trkpt lat="45.79247369863427" lon="9.651802975056976"><ele>298.0</ele><time>2026-03-28T09:58:38.989Z</time></trkpt><trkpt lat="45.79249263551014" lon="9.651895295908977"><ele>298.0</ele><time>2026-03-28T09:58:39.989Z</time></trkpt><trkpt lat="45.79253476551178" lon="9.652051003928403"><ele>298.0</ele><time>2026-03-28T09:58:41.989Z</time></trkpt><trkpt lat="45.79256713110301" lon="9.652197071555365"><ele>298.0</ele><time>2026-03-28T09:58:43.989Z</time></trkpt><trkpt lat="45.79258528766548" lon="9.65237017415976"><ele>298.2</ele><time>2026-03-28T09:58:45.989Z</time></trkpt><trkpt lat="45.792633845472565" lon="9.652526587925314"><ele>298.4</ele><time>2026-03-28T09:58:47.989Z</time></trkpt><trkpt lat="45.79266232683814" lon="9.652667039749995"><ele>298.59999999999997</ele><time>2026-03-28T09:58:49.989Z</time></trkpt><trkpt lat="45.79268466339625" lon="9.65278697852835"><ele>298.8</ele><time>2026-03-28T09:58:51.989Z</time></trkpt><trkpt lat="45.792697149084944" lon="9.652885057610089"><ele>299.0</ele><time>2026-03-28T09:58:54.989Z</time></trkpt><trkpt lat="45.79273263791408" lon="9.653036440164001"><ele>300.2</ele><time>2026-03-28T09:59:15.988Z</time></trkpt><trkpt lat="45.79275671890707" lon="9.653181269396722"><ele>301.4</ele><time>2026-03-28T09:59:17.988Z</time></trkpt><trkpt lat="45.79279450409546" lon="9.653357702588181"><ele>302.6</ele><time>2026-03-28T09:59:19.988Z</time></trkpt><trkpt lat="45.79281586363219" lon="9.653459905971248"><ele>303.8</ele><time>2026-03-28T09:59:20.988Z</time></trkpt><trkpt lat="45.79283549861352" lon="9.65355892283103"><ele>305.0</ele><time>2026-03-28T09:59:21.988Z</time></trkpt><trkpt lat="45.79286288579384" lon="9.65368112681643"><ele>305.2</ele><time>2026-03-28T09:59:22.988Z</time></trkpt><trkpt lat="45.79288874785788" lon="9.653810641518787"><ele>305.4</ele><time>2026-03-28T09:59:23.988Z</time></trkpt><trkpt lat="45.792916447680334" lon="9.653937980012325"><ele>305.6</ele><time>2026-03-28T09:59:24.988Z</time></trkpt><trkpt lat="45.792946844129446" lon="9.65407980900311"><ele>305.8</ele><time>2026-03-28T09:59:25.988Z</time></trkpt><trkpt lat="45.79297404285399" lon="9.654217708459926"><ele>306.0</ele><time>2026-03-28T09:59:26.988Z</time></trkpt><trkpt lat="45.793000421749795" lon="9.654353546857196"><ele>305.8</ele><time>2026-03-28T09:59:27.988Z</time></trkpt><trkpt lat="45.793023153019824" lon="9.654492468825008"><ele>305.6</ele><time>2026-03-28T09:59:28.988Z</time></trkpt><trkpt lat="45.793040727041046" lon="9.654640076232283"><ele>305.4</ele><time>2026-03-28T09:59:29.988Z</time></trkpt><trkpt lat="45.79306067984032" lon="9.654798226043587"><ele>305.2</ele><time>2026-03-28T09:59:30.988Z</time></trkpt><trkpt lat="45.79308048385019" lon="9.654960063861456"><ele>305.0</ele><time>2026-03-28T09:59:31.988Z</time></trkpt><trkpt lat="45.79309589227151" lon="9.655121425837446"><ele>305.0</ele><time>2026-03-28T09:59:32.988Z</time></trkpt><trkpt lat="45.793108653502294" lon="9.655266297108595"><ele>305.0</ele><time>2026-03-28T09:59:33.988Z</time></trkpt><trkpt lat="45.79311796137008" lon="9.655397194691787"><ele>305.0</ele><time>2026-03-28T09:59:34.988Z</time></trkpt><trkpt lat="45.79312907181354" lon="9.655519635816391"><ele>305.0</ele><time>2026-03-28T09:59:35.988Z</time></trkpt><trkpt lat="45.79313865909895" lon="9.655633313014715"><ele>305.0</ele><time>2026-03-28T09:59:36.988Z</time></trkpt><trkpt lat="45.79314429008065" lon="9.655742959556315"><ele>305.0</ele><time>2026-03-28T09:59:37.988Z</time></trkpt><trkpt lat="45.79314850380151" lon="9.65584757838373"><ele>304.83333333333337</ele><time>2026-03-28T09:59:38.988Z</time></trkpt><trkpt lat="45.79315473744895" lon="9.655940668023991"><ele>304.6666666666667</ele><time>2026-03-28T09:59:39.988Z</time></trkpt><trkpt lat="45.79317005716692" lon="9.656084280001048"><ele>304.5</ele><time>2026-03-28T09:59:41.988Z</time></trkpt><trkpt lat="45.79317462927158" lon="9.656177573893183"><ele>304.3333333333333</ele><time>2026-03-28T09:59:42.988Z</time></trkpt><trkpt lat="45.79318652277609" lon="9.65628764679149"><ele>304.16666666666663</ele><time>2026-03-28T09:59:43.988Z</time></trkpt><trkpt lat="45.793204555171464" lon="9.65645966207294"><ele>304.0</ele><time>2026-03-28T09:59:44.988Z</time></trkpt><trkpt lat="45.79322375884413" lon="9.656704650199126"><ele>304.3333333333333</ele><time>2026-03-28T09:59:45.988Z</time></trkpt><trkpt lat="45.79324486442332" lon="9.656947938030939"><ele>304.6666666666667</ele><time>2026-03-28T09:59:46.988Z</time></trkpt><trkpt lat="45.793252600846124" lon="9.657184207692396"><ele>305.0</ele><time>2026-03-28T09:59:47.988Z</time></trkpt><trkpt lat="45.79326449831612" lon="9.657419044113793"><ele>305.0</ele><time>2026-03-28T09:59:48.988Z</time></trkpt><trkpt lat="45.79327922276324" lon="9.6576464625586"><ele>305.0</ele><time>2026-03-28T09:59:49.988Z</time></trkpt><trkpt lat="45.793293208861485" lon="9.657876470879415"><ele>305.0</ele><time>2026-03-28T09:59:50.988Z</time></trkpt><trkpt lat="45.793306980721425" lon="9.658095795071475"><ele>305.0</ele><time>2026-03-28T09:59:51.988Z</time></trkpt><trkpt lat="45.79330974296919" lon="9.658299863444986"><ele>305.0</ele><time>2026-03-28T09:59:52.988Z</time></trkpt><trkpt lat="45.79331704634378" lon="9.658499530538817"><ele>305.0</ele><time>2026-03-28T09:59:53.988Z</time></trkpt><trkpt lat="45.793320982721056" lon="9.658676435738272"><ele>305.0</ele><time>2026-03-28T09:59:54.989Z</time></trkpt><trkpt lat="45.79331935920864" lon="9.658840820225867"><ele>305.0</ele><time>2026-03-28T09:59:55.989Z</time></trkpt><trkpt lat="45.79331787274797" lon="9.658985955027346"><ele>305.0</ele><time>2026-03-28T09:59:56.989Z</time></trkpt><trkpt lat="45.79331758207129" lon="9.659120060315662"><ele>305.0</ele><time>2026-03-28T09:59:57.989Z</time></trkpt><trkpt lat="45.79331237657757" lon="9.659235309602304"><ele>305.0</ele><time>2026-03-28T09:59:58.989Z</time></trkpt><trkpt lat="45.793291005713236" lon="9.659342800506424"><ele>305.0</ele><time>2026-03-28T09:59:59.989Z</time></trkpt><trkpt lat="45.79323620772471" lon="9.659444162757941"><ele>305.0</ele><time>2026-03-28T10:00:00.989Z</time></trkpt><trkpt lat="45.79315345634909" lon="9.659524319508064"><ele>305.6</ele><time>2026-03-28T10:00:01.989Z</time></trkpt><trkpt lat="45.79306655365254" lon="9.659563997435928"><ele>306.2</ele><time>2026-03-28T10:00:02.989Z</time></trkpt><trkpt lat="45.79297742097704" lon="9.659649097192371"><ele>306.8</ele><time>2026-03-28T10:00:03.989Z</time></trkpt><trkpt lat="45.79286950992381" lon="9.659718770053594"><ele>307.4</ele><time>2026-03-28T10:00:04.989Z</time></trkpt><trkpt lat="45.79277367441612" lon="9.659787510732274"><ele>308.0</ele><time>2026-03-28T10:00:05.989Z</time></trkpt><trkpt lat="45.79268790956744" lon="9.659856051150568"><ele>307.2</ele><time>2026-03-28T10:00:06.989Z</time></trkpt><trkpt lat="45.79261476770444" lon="9.65992858486337"><ele>306.4</ele><time>2026-03-28T10:00:07.989Z</time></trkpt><trkpt lat="45.79255343380062" lon="9.66000597332497"><ele>305.59999999999997</ele><time>2026-03-28T10:00:08.989Z</time></trkpt><trkpt lat="45.79250568906747" lon="9.660081086536234"><ele>304.8</ele><time>2026-03-28T10:00:09.989Z</time></trkpt><trkpt lat="45.7924397382257" lon="9.66022924330582"><ele>304.0</ele><time>2026-03-28T10:00:11.989Z</time></trkpt><trkpt lat="45.792395854755185" lon="9.660369972733456"><ele>304.0</ele><time>2026-03-28T10:00:13.989Z</time></trkpt><trkpt lat="45.79236846736999" lon="9.660528434355582"><ele>304.0</ele><time>2026-03-28T10:00:15.989Z</time></trkpt><trkpt lat="45.79232766417828" lon="9.660692746614808"><ele>304.0</ele><time>2026-03-28T10:00:17.989Z</time></trkpt><trkpt lat="45.79230449960308" lon="9.660877643814546"><ele>304.0</ele><time>2026-03-28T10:00:19.989Z</time></trkpt><trkpt lat="45.79229611175134" lon="9.66097047598085"><ele>304.0</ele><time>2026-03-28T10:00:20.989Z</time></trkpt><trkpt lat="45.79228748213987" lon="9.66106598398419"><ele>304.66666666666663</ele><time>2026-03-28T10:00:21.989Z</time></trkpt><trkpt lat="45.79228187982715" lon="9.661167103929042"><ele>305.3333333333333</ele><time>2026-03-28T10:00:22.989Z</time></trkpt><trkpt lat="45.79226754909306" lon="9.661272969197233"><ele>306.0</ele><time>2026-03-28T10:00:23.989Z</time></trkpt><trkpt lat="45.79225273677105" lon="9.661391648721342"><ele>306.6666666666667</ele><time>2026-03-28T10:00:24.989Z</time></trkpt><trkpt lat="45.792236633371004" lon="9.661528202560573"><ele>307.33333333333337</ele><time>2026-03-28T10:00:25.989Z</time></trkpt><trkpt lat="45.792229694519136" lon="9.661677141345725"><ele>308.0</ele><time>2026-03-28T10:00:26.989Z</time></trkpt><trkpt lat="45.7922198653198" lon="9.661834943607026"><ele>308.4</ele><time>2026-03-28T10:00:27.989Z</time></trkpt><trkpt lat="45.79221379358757" lon="9.661993276047582"><ele>308.8</ele><time>2026-03-28T10:00:28.989Z</time></trkpt><trkpt lat="45.79220920796109" lon="9.662150442551775"><ele>309.2</ele><time>2026-03-28T10:00:29.989Z</time></trkpt><trkpt lat="45.79220260331797" lon="9.662300679339092"><ele>309.6</ele><time>2026-03-28T10:00:30.989Z</time></trkpt><trkpt lat="45.79218559008552" lon="9.662449342759128"><ele>310.0</ele><time>2026-03-28T10:00:31.989Z</time></trkpt><trkpt lat="45.79218530217282" lon="9.662579355462197"><ele>310.0</ele><time>2026-03-28T10:00:32.989Z</time></trkpt><trkpt lat="45.79217703866626" lon="9.662699014936557"><ele>310.0</ele><time>2026-03-28T10:00:33.989Z</time></trkpt><trkpt lat="45.7921729149184" lon="9.662806781953622"><ele>310.0</ele><time>2026-03-28T10:00:34.989Z</time></trkpt><trkpt lat="45.79216973922002" lon="9.662905240416439"><ele>310.0</ele><time>2026-03-28T10:00:35.989Z</time></trkpt><trkpt lat="45.792164120728145" lon="9.66301085075615"><ele>310.0</ele><time>2026-03-28T10:00:36.989Z</time></trkpt><trkpt lat="45.79216007420343" lon="9.663104613210784"><ele>310.0</ele><time>2026-03-28T10:00:37.989Z</time></trkpt><trkpt lat="45.79215339515389" lon="9.663270981696515"><ele>310.0</ele><time>2026-03-28T10:00:39.989Z</time></trkpt><trkpt lat="45.79214630649886" lon="9.663423295100817"><ele>310.0</ele><time>2026-03-28T10:00:41.989Z</time></trkpt><trkpt lat="45.79215056140643" lon="9.663606975248191"><ele>310.0</ele><time>2026-03-28T10:00:43.989Z</time></trkpt><trkpt lat="45.79215309755515" lon="9.663731642769081"><ele>310.0</ele><time>2026-03-28T10:00:44.989Z</time></trkpt><trkpt lat="45.79215360090671" lon="9.663842906880046"><ele>310.0</ele><time>2026-03-28T10:00:45.989Z</time></trkpt><trkpt lat="45.79217023788762" lon="9.66397610061544"><ele>310.0</ele><time>2026-03-28T10:00:46.989Z</time></trkpt><trkpt lat="45.79220938199996" lon="9.664159549722617"><ele>310.0</ele><time>2026-03-28T10:00:47.989Z</time></trkpt><trkpt lat="45.79226559057297" lon="9.66435675220775"><ele>310.0</ele><time>2026-03-28T10:00:48.989Z</time></trkpt><trkpt lat="45.79232531247129" lon="9.664547454511233"><ele>310.0</ele><time>2026-03-28T10:00:49.989Z</time></trkpt><trkpt lat="45.79238387588143" lon="9.664724364470027"><ele>310.0</ele><time>2026-03-28T10:00:50.989Z</time></trkpt><trkpt lat="45.79244372655715" lon="9.664906697602705"><ele>310.0</ele><time>2026-03-28T10:00:51.989Z</time></trkpt><trkpt lat="45.79250278557001" lon="9.665092319145188"><ele>310.0</ele><time>2026-03-28T10:00:52.989Z</time></trkpt><trkpt lat="45.792561273785324" lon="9.665271455995969"><ele>310.0</ele><time>2026-03-28T10:00:53.989Z</time></trkpt><trkpt lat="45.79261521458767" lon="9.665444491857752"><ele>310.25</ele><time>2026-03-28T10:00:54.989Z</time></trkpt><trkpt lat="45.79265692483504" lon="9.665626368554706"><ele>310.5</ele><time>2026-03-28T10:00:55.989Z</time></trkpt><trkpt lat="45.79271727491795" lon="9.665803136497884"><ele>310.75</ele><time>2026-03-28T10:00:56.989Z</time></trkpt><trkpt lat="45.792774468705986" lon="9.665982655227786"><ele>311.0</ele><time>2026-03-28T10:00:57.989Z</time></trkpt><trkpt lat="45.79282851515765" lon="9.666141421067106"><ele>312.5</ele><time>2026-03-28T10:00:58.989Z</time></trkpt><trkpt lat="45.79288133049583" lon="9.666301249148361"><ele>314.0</ele><time>2026-03-28T10:00:59.989Z</time></trkpt><trkpt lat="45.7929294280052" lon="9.666461432322354"><ele>315.5</ele><time>2026-03-28T10:01:00.989Z</time></trkpt><trkpt lat="45.792982569987075" lon="9.66662040150506"><ele>317.0</ele><time>2026-03-28T10:01:01.989Z</time></trkpt><trkpt lat="45.7930377376703" lon="9.666798778659269"><ele>317.5</ele><time>2026-03-28T10:01:02.989Z</time></trkpt><trkpt lat="45.793097060442506" lon="9.666979719971913"><ele>318.0</ele><time>2026-03-28T10:01:03.989Z</time></trkpt><trkpt lat="45.79316246347318" lon="9.667167768024052"><ele>318.5</ele><time>2026-03-28T10:01:04.989Z</time></trkpt><trkpt lat="45.79322541806193" lon="9.667349224597013"><ele>319.0</ele><time>2026-03-28T10:01:05.989Z</time></trkpt><trkpt lat="45.793281468459554" lon="9.667525562915053"><ele>319.0</ele><time>2026-03-28T10:01:06.989Z</time></trkpt><trkpt lat="45.793340105756776" lon="9.66770263063981"><ele>319.0</ele><time>2026-03-28T10:01:07.989Z</time></trkpt><trkpt lat="45.79340151419374" lon="9.667882949710549"><ele>319.0</ele><time>2026-03-28T10:01:08.989Z</time></trkpt><trkpt lat="45.7934668253386" lon="9.668059081827476"><ele>319.0</ele><time>2026-03-28T10:01:09.988Z</time></trkpt><trkpt lat="45.79353585314435" lon="9.668223911541173"><ele>319.0</ele><time>2026-03-28T10:01:10.988Z</time></trkpt><trkpt lat="45.79362066834552" lon="9.668372964454942"><ele>319.0</ele><time>2026-03-28T10:01:11.988Z</time></trkpt><trkpt lat="45.79371681076331" lon="9.668490603166665"><ele>319.0</ele><time>2026-03-28T10:01:12.988Z</time></trkpt><trkpt lat="45.793818893959035" lon="9.66860147334524"><ele>319.0</ele><time>2026-03-28T10:01:13.987Z</time></trkpt><trkpt lat="45.79391391414181" lon="9.668709554660193"><ele>319.0</ele><time>2026-03-28T10:01:14.987Z</time></trkpt><trkpt lat="45.79401037017278" lon="9.66882337235574"><ele>319.0</ele><time>2026-03-28T10:01:15.988Z</time></trkpt><trkpt lat="45.79410352196939" lon="9.668923649094186"><ele>319.0</ele><time>2026-03-28T10:01:16.987Z</time></trkpt><trkpt lat="45.79418374959399" lon="9.669015884280311"><ele>319.0</ele><time>2026-03-28T10:01:17.987Z</time></trkpt><trkpt lat="45.79425227155861" lon="9.669085305448801"><ele>319.0</ele><time>2026-03-28T10:01:18.987Z</time></trkpt><trkpt lat="45.794310702904575" lon="9.669147783446027"><ele>319.66666666666663</ele><time>2026-03-28T10:01:19.988Z</time></trkpt><trkpt lat="45.79438181837859" lon="9.669224403754699"><ele>320.3333333333333</ele><time>2026-03-28T10:01:21.987Z</time></trkpt><trkpt lat="45.79445659370123" lon="9.669280123186608"><ele>321.0</ele><time>2026-03-28T10:01:23.988Z</time></trkpt><trkpt lat="45.79454610751268" lon="9.669373090517448"><ele>321.6666666666667</ele><time>2026-03-28T10:01:25.988Z</time></trkpt><trkpt lat="45.79461534262408" lon="9.669425741442918"><ele>322.33333333333337</ele><time>2026-03-28T10:01:26.988Z</time></trkpt><trkpt lat="45.79468634451411" lon="9.669466666010393"><ele>323.0</ele><time>2026-03-28T10:01:27.988Z</time></trkpt><trkpt lat="45.794753216381764" lon="9.669495159274787"><ele>321.6666666666667</ele><time>2026-03-28T10:01:28.988Z</time></trkpt><trkpt lat="45.79483168060501" lon="9.669523474615254"><ele>320.33333333333337</ele><time>2026-03-28T10:01:30.988Z</time></trkpt><trkpt lat="45.7949032684892" lon="9.669509870417155"><ele>319.0</ele><time>2026-03-28T10:01:33.988Z</time></trkpt><trkpt lat="45.794972479675735" lon="9.669563014641733"><ele>317.6666666666667</ele><time>2026-03-28T10:01:35.988Z</time></trkpt><trkpt lat="45.79502636639661" lon="9.669610320519096"><ele>316.3333333333333</ele><time>2026-03-28T10:01:36.988Z</time></trkpt><trkpt lat="45.79509974533908" lon="9.669647305898293"><ele>315.0</ele><time>2026-03-28T10:01:38.988Z</time></trkpt><trkpt lat="45.795175990883536" lon="9.669702092444604"><ele>315.0</ele><time>2026-03-28T10:01:39.988Z</time></trkpt><trkpt lat="45.79522024365523" lon="9.669536014304922"><ele>315.0</ele><time>2026-03-28T10:01:40.988Z</time></trkpt><trkpt lat="45.79528802171203" lon="9.669489034310931"><ele>315.0</ele><time>2026-03-28T10:01:41.988Z</time></trkpt><trkpt lat="45.79538608543837" lon="9.669446838453908"><ele>315.0</ele><time>2026-03-28T10:01:42.988Z</time></trkpt><trkpt lat="45.7955048968115" lon="9.66941891820435"><ele>315.0</ele><time>2026-03-28T10:01:43.988Z</time></trkpt><trkpt lat="45.79564745533344" lon="9.669431857045298"><ele>317.75</ele><time>2026-03-28T10:01:44.988Z</time></trkpt><trkpt lat="45.79579009695193" lon="9.66939718613518"><ele>320.5</ele><time>2026-03-28T10:01:45.988Z</time></trkpt><trkpt lat="45.79592221765119" lon="9.669373815191902"><ele>323.25</ele><time>2026-03-28T10:01:46.988Z</time></trkpt><trkpt lat="45.796062738715655" lon="9.669376323854056"><ele>326.0</ele><time>2026-03-28T10:01:47.988Z</time></trkpt><trkpt lat="45.79621467161212" lon="9.669385867522452"><ele>326.0</ele><time>2026-03-28T10:01:48.988Z</time></trkpt><trkpt lat="45.79637303533601" lon="9.669413294684754"><ele>326.0</ele><time>2026-03-28T10:01:49.988Z</time></trkpt><trkpt lat="45.79653904398273" lon="9.669450795733216"><ele>326.0</ele><time>2026-03-28T10:01:50.988Z</time></trkpt><trkpt lat="45.79671309991968" lon="9.669479473842058"><ele>322.0</ele><time>2026-03-28T10:01:51.988Z</time></trkpt><trkpt lat="45.79689392498796" lon="9.669509267219397"><ele>318.0</ele><time>2026-03-28T10:01:52.988Z</time></trkpt><trkpt lat="45.7970627954613" lon="9.669537090948968"><ele>314.0</ele><time>2026-03-28T10:01:53.988Z</time></trkpt><trkpt lat="45.797227137860865" lon="9.669563036628276"><ele>314.0</ele><time>2026-03-28T10:01:54.988Z</time></trkpt><trkpt lat="45.79740141933834" lon="9.669593919724296"><ele>314.0</ele><time>2026-03-28T10:01:55.988Z</time></trkpt><trkpt lat="45.797584353593116" lon="9.669596604934743"><ele>314.0</ele><time>2026-03-28T10:01:56.988Z</time></trkpt><trkpt lat="45.797769265006366" lon="9.6695738757086"><ele>315.33333333333337</ele><time>2026-03-28T10:01:57.988Z</time></trkpt><trkpt lat="45.79795728511902" lon="9.669542927488589"><ele>316.6666666666667</ele><time>2026-03-28T10:01:58.988Z</time></trkpt><trkpt lat="45.79814674135358" lon="9.669512153150725"><ele>318.0</ele><time>2026-03-28T10:01:59.988Z</time></trkpt><trkpt lat="45.79832517831879" lon="9.66949235415569"><ele>318.6666666666667</ele><time>2026-03-28T10:02:00.988Z</time></trkpt><trkpt lat="45.798510432952526" lon="9.669468086936865"><ele>319.33333333333337</ele><time>2026-03-28T10:02:01.988Z</time></trkpt><trkpt lat="45.79869307840935" lon="9.66944061422701"><ele>320.0</ele><time>2026-03-28T10:02:02.988Z</time></trkpt><trkpt lat="45.798873769748525" lon="9.669411906590355"><ele>327.0</ele><time>2026-03-28T10:02:03.988Z</time></trkpt><trkpt lat="45.79905740076891" lon="9.669383248705245"><ele>334.0</ele><time>2026-03-28T10:02:04.988Z</time></trkpt><trkpt lat="45.79923532245372" lon="9.669356791316092"><ele>341.0</ele><time>2026-03-28T10:02:05.988Z</time></trkpt><trkpt lat="45.79941155640641" lon="9.669334016011026"><ele>343.33333333333337</ele><time>2026-03-28T10:02:06.988Z</time></trkpt><trkpt lat="45.7996037850304" lon="9.669342970990682"><ele>345.6666666666667</ele><time>2026-03-28T10:02:07.988Z</time></trkpt><trkpt lat="45.79979000448658" lon="9.669373756222841"><ele>348.0</ele><time>2026-03-28T10:02:08.988Z</time></trkpt><trkpt lat="45.79995771393249" lon="9.669423784473848"><ele>340.6666666666667</ele><time>2026-03-28T10:02:09.988Z</time></trkpt><trkpt lat="45.80011895779038" lon="9.669480798098075"><ele>333.33333333333337</ele><time>2026-03-28T10:02:10.988Z</time></trkpt><trkpt lat="45.80028720741415" lon="9.669527316271086"><ele>326.0</ele><time>2026-03-28T10:02:11.988Z</time></trkpt><trkpt lat="45.8004407823925" lon="9.669565363306413"><ele>326.0</ele><time>2026-03-28T10:02:12.988Z</time></trkpt><trkpt lat="45.800601143408755" lon="9.669617075164627"><ele>326.0</ele><time>2026-03-28T10:02:13.988Z</time></trkpt><trkpt lat="45.80076565862324" lon="9.66969129712169"><ele>326.0</ele><time>2026-03-28T10:02:14.988Z</time></trkpt><trkpt lat="45.80094587810867" lon="9.669776184138271"><ele>330.33333333333337</ele><time>2026-03-28T10:02:15.988Z</time></trkpt><trkpt lat="45.801112713929484" lon="9.669860727771736"><ele>334.6666666666667</ele><time>2026-03-28T10:02:16.988Z</time></trkpt><trkpt lat="45.801285074910524" lon="9.669950495392056"><ele>339.0</ele><time>2026-03-28T10:02:17.988Z</time></trkpt><trkpt lat="45.8014573200885" lon="9.670060070778167"><ele>339.0</ele><time>2026-03-28T10:02:18.988Z</time></trkpt><trkpt lat="45.801621892057334" lon="9.67019240408529"><ele>339.0</ele><time>2026-03-28T10:02:19.988Z</time></trkpt><trkpt lat="45.80179032529061" lon="9.670317544233699"><ele>339.0</ele><time>2026-03-28T10:02:20.988Z</time></trkpt><trkpt lat="45.801956676622" lon="9.670442573539733"><ele>336.6666666666667</ele><time>2026-03-28T10:02:21.988Z</time></trkpt><trkpt lat="45.80212354137169" lon="9.670570293636448"><ele>334.33333333333337</ele><time>2026-03-28T10:02:22.988Z</time></trkpt><trkpt lat="45.80228255703144" lon="9.670707874882131"><ele>332.0</ele><time>2026-03-28T10:02:23.988Z</time></trkpt><trkpt lat="45.802425658485966" lon="9.670871473647253"><ele>332.0</ele><time>2026-03-28T10:02:24.988Z</time></trkpt><trkpt lat="45.802567968144" lon="9.671047641337895"><ele>332.0</ele><time>2026-03-28T10:02:25.988Z</time></trkpt><trkpt lat="45.80271809608664" lon="9.67119982458315"><ele>332.0</ele><time>2026-03-28T10:02:26.988Z</time></trkpt><trkpt lat="45.80287276365129" lon="9.671311014133234"><ele>327.6666666666667</ele><time>2026-03-28T10:02:27.988Z</time></trkpt><trkpt lat="45.8030470904653" lon="9.671353646631097"><ele>323.3333333333333</ele><time>2026-03-28T10:02:28.988Z</time></trkpt><trkpt lat="45.8032510130539" lon="9.671348235177497"><ele>319.0</ele><time>2026-03-28T10:02:29.988Z</time></trkpt><trkpt lat="45.80343131848024" lon="9.67135471949645"><ele>324.3333333333333</ele><time>2026-03-28T10:02:30.988Z</time></trkpt><trkpt lat="45.80359990059298" lon="9.67140230836851"><ele>329.6666666666667</ele><time>2026-03-28T10:02:31.988Z</time></trkpt><trkpt lat="45.80376136042669" lon="9.671479234680731"><ele>335.0</ele><time>2026-03-28T10:02:32.988Z</time></trkpt><trkpt lat="45.80391756343758" lon="9.671587435335185"><ele>335.0</ele><time>2026-03-28T10:02:33.988Z</time></trkpt><trkpt lat="45.80405696439449" lon="9.67172250340019"><ele>335.0</ele><time>2026-03-28T10:02:34.988Z</time></trkpt><trkpt lat="45.804185406069074" lon="9.671864029427836"><ele>335.0</ele><time>2026-03-28T10:02:35.988Z</time></trkpt><trkpt lat="45.80430924935394" lon="9.672016706579582"><ele>336.33333333333337</ele><time>2026-03-28T10:02:36.988Z</time></trkpt><trkpt lat="45.80441565019165" lon="9.672174897021094"><ele>337.6666666666667</ele><time>2026-03-28T10:02:37.988Z</time></trkpt><trkpt lat="45.80451997631116" lon="9.672336162996967"><ele>339.0</ele><time>2026-03-28T10:02:38.988Z</time></trkpt><trkpt lat="45.80462654243943" lon="9.672517817038754"><ele>339.0</ele><time>2026-03-28T10:02:39.988Z</time></trkpt><trkpt lat="45.80472426647398" lon="9.67272007374376"><ele>339.0</ele><time>2026-03-28T10:02:40.988Z</time></trkpt><trkpt lat="45.804828465933106" lon="9.672926166107459"><ele>339.0</ele><time>2026-03-28T10:02:41.988Z</time></trkpt><trkpt lat="45.80492553124975" lon="9.673121385292822"><ele>336.0</ele><time>2026-03-28T10:02:42.988Z</time></trkpt><trkpt lat="45.80501631025553" lon="9.673333712736172"><ele>333.0</ele><time>2026-03-28T10:02:43.988Z</time></trkpt><trkpt lat="45.80509259512888" lon="9.673562017029486"><ele>330.0</ele><time>2026-03-28T10:02:44.988Z</time></trkpt><trkpt lat="45.80515222761906" lon="9.673795983310358"><ele>335.0</ele><time>2026-03-28T10:02:45.988Z</time></trkpt><trkpt lat="45.80521413279649" lon="9.674039510714028"><ele>340.0</ele><time>2026-03-28T10:02:46.988Z</time></trkpt><trkpt lat="45.80527730241572" lon="9.674279859871696"><ele>345.0</ele><time>2026-03-28T10:02:47.988Z</time></trkpt><trkpt lat="45.8053392072263" lon="9.674507592835761"><ele>345.0</ele><time>2026-03-28T10:02:48.988Z</time></trkpt><trkpt lat="45.80539325042172" lon="9.674721500755943"><ele>345.0</ele><time>2026-03-28T10:02:49.988Z</time></trkpt><trkpt lat="45.80544548863497" lon="9.674941423749386"><ele>345.0</ele><time>2026-03-28T10:02:50.988Z</time></trkpt><trkpt lat="45.80550680163645" lon="9.675166768707479"><ele>343.0</ele><time>2026-03-28T10:02:51.988Z</time></trkpt><trkpt lat="45.805566452635176" lon="9.675392443541435"><ele>341.0</ele><time>2026-03-28T10:02:52.988Z</time></trkpt><trkpt lat="45.805625986648074" lon="9.675621148703895"><ele>339.0</ele><time>2026-03-28T10:02:53.988Z</time></trkpt><trkpt lat="45.80569476731046" lon="9.6758557061338"><ele>339.0</ele><time>2026-03-28T10:02:54.988Z</time></trkpt><trkpt lat="45.80576460851758" lon="9.676079439674272"><ele>339.0</ele><time>2026-03-28T10:02:55.988Z</time></trkpt><trkpt lat="45.80584727147131" lon="9.676285033286401"><ele>339.0</ele><time>2026-03-28T10:02:56.988Z</time></trkpt><trkpt lat="45.80592727294686" lon="9.676478927076456"><ele>337.75</ele><time>2026-03-28T10:02:57.988Z</time></trkpt><trkpt lat="45.80599749571249" lon="9.676672297369128"><ele>336.5</ele><time>2026-03-28T10:02:58.988Z</time></trkpt><trkpt lat="45.806060455218955" lon="9.676846555365337"><ele>335.25</ele><time>2026-03-28T10:02:59.988Z</time></trkpt><trkpt lat="45.80612908161151" lon="9.677007729123725"><ele>334.0</ele><time>2026-03-28T10:03:00.988Z</time></trkpt><trkpt lat="45.80620350599081" lon="9.677166290036771"><ele>334.0</ele><time>2026-03-28T10:03:01.988Z</time></trkpt><trkpt lat="45.806299903006135" lon="9.677291513633104"><ele>334.0</ele><time>2026-03-28T10:03:02.988Z</time></trkpt><trkpt lat="45.80642350746029" lon="9.67738331505203"><ele>334.0</ele><time>2026-03-28T10:03:03.988Z</time></trkpt><trkpt lat="45.8065820762868" lon="9.677451463900749"><ele>334.0</ele><time>2026-03-28T10:03:04.988Z</time></trkpt><trkpt lat="45.80672890961597" lon="9.67751725269139"><ele>338.66666666666663</ele><time>2026-03-28T10:03:05.988Z</time></trkpt><trkpt lat="45.80686957917812" lon="9.677595745429434"><ele>343.3333333333333</ele><time>2026-03-28T10:03:06.988Z</time></trkpt><trkpt lat="45.807014679634186" lon="9.677676301577"><ele>348.0</ele><time>2026-03-28T10:03:07.988Z</time></trkpt><trkpt lat="45.80715532256215" lon="9.677764753215406"><ele>343.5</ele><time>2026-03-28T10:03:08.988Z</time></trkpt><trkpt lat="45.8072880973581" lon="9.677839519528321"><ele>339.0</ele><time>2026-03-28T10:03:09.988Z</time></trkpt><trkpt lat="45.807407409276" lon="9.677911572528044"><ele>334.5</ele><time>2026-03-28T10:03:10.988Z</time></trkpt><trkpt lat="45.807528291216116" lon="9.67798266346319"><ele>330.0</ele><time>2026-03-28T10:03:11.988Z</time></trkpt><trkpt lat="45.80762581361732" lon="9.678071027774962"><ele>330.5</ele><time>2026-03-28T10:03:12.988Z</time></trkpt><trkpt lat="45.80771522887815" lon="9.678180113117087"><ele>331.0</ele><time>2026-03-28T10:03:13.988Z</time></trkpt><trkpt lat="45.80777822161427" lon="9.678281117924463"><ele>331.5</ele><time>2026-03-28T10:03:14.989Z</time></trkpt><trkpt lat="45.807832630233555" lon="9.678439891988152"><ele>332.0</ele><time>2026-03-28T10:03:15.987Z</time></trkpt><trkpt lat="45.807858050826574" lon="9.678637377346213"><ele>330.33333333333337</ele><time>2026-03-28T10:03:16.987Z</time></trkpt><trkpt lat="45.80785458237616" lon="9.678877479186617"><ele>328.6666666666667</ele><time>2026-03-28T10:03:17.987Z</time></trkpt><trkpt lat="45.80785901431939" lon="9.679113140393918"><ele>327.0</ele><time>2026-03-28T10:03:18.987Z</time></trkpt><trkpt lat="45.80786934976377" lon="9.679327710117656"><ele>327.25</ele><time>2026-03-28T10:03:19.987Z</time></trkpt><trkpt lat="45.80787769183898" lon="9.67953309507106"><ele>327.5</ele><time>2026-03-28T10:03:20.987Z</time></trkpt><trkpt lat="45.807889135134786" lon="9.67972200623726"><ele>327.75</ele><time>2026-03-28T10:03:21.987Z</time></trkpt><trkpt lat="45.80789411243025" lon="9.679887177477896"><ele>328.0</ele><time>2026-03-28T10:03:22.987Z</time></trkpt><trkpt lat="45.80789792585118" lon="9.68001849420281"><ele>328.0</ele><time>2026-03-28T10:03:23.987Z</time></trkpt><trkpt lat="45.807898781462875" lon="9.680141557288987"><ele>328.0</ele><time>2026-03-28T10:03:24.987Z</time></trkpt><trkpt lat="45.807892588124815" lon="9.68027204659661"><ele>328.0</ele><time>2026-03-28T10:03:25.987Z</time></trkpt><trkpt lat="45.8078869903393" lon="9.680411626889557"><ele>328.0</ele><time>2026-03-28T10:03:26.987Z</time></trkpt><trkpt lat="45.80784050058964" lon="9.680495926849245"><ele>328.0</ele><time>2026-03-28T10:03:27.987Z</time></trkpt><trkpt lat="45.80782514312976" lon="9.680631236822537"><ele>328.0</ele><time>2026-03-28T10:03:29.987Z</time></trkpt><trkpt lat="45.807855770884125" lon="9.680726223502031"><ele>328.59999999999997</ele><time>2026-03-28T10:03:30.987Z</time></trkpt><trkpt lat="45.80789712331245" lon="9.680855343809299"><ele>329.2</ele><time>2026-03-28T10:03:31.987Z</time></trkpt><trkpt lat="45.807925248118316" lon="9.681017077033522"><ele>329.8</ele><time>2026-03-28T10:03:32.987Z</time></trkpt><trkpt lat="45.80795668479138" lon="9.681179611326911"><ele>330.4</ele><time>2026-03-28T10:03:33.987Z</time></trkpt><trkpt lat="45.8079982496532" lon="9.681324383762528"><ele>331.0</ele><time>2026-03-28T10:03:34.987Z</time></trkpt><trkpt lat="45.80804683304925" lon="9.681449619024255"><ele>330.8333333333333</ele><time>2026-03-28T10:03:35.987Z</time></trkpt><trkpt lat="45.808098156679335" lon="9.681557697519587"><ele>330.66666666666663</ele><time>2026-03-28T10:03:36.987Z</time></trkpt><trkpt lat="45.808153667152766" lon="9.681651762127233"><ele>330.5</ele><time>2026-03-28T10:03:37.987Z</time></trkpt><trkpt lat="45.808206856202695" lon="9.681748859252886"><ele>330.3333333333333</ele><time>2026-03-28T10:03:38.987Z</time></trkpt><trkpt lat="45.8082500530115" lon="9.681841577387168"><ele>330.1666666666667</ele><time>2026-03-28T10:03:39.987Z</time></trkpt><trkpt lat="45.808304827747726" lon="9.681965321630058"><ele>330.0</ele><time>2026-03-28T10:03:40.987Z</time></trkpt><trkpt lat="45.80835617119898" lon="9.682109802554567"><ele>330.0</ele><time>2026-03-28T10:03:41.987Z</time></trkpt><trkpt lat="45.80838793829939" lon="9.682252376229552"><ele>330.0</ele><time>2026-03-28T10:03:42.987Z</time></trkpt><trkpt lat="45.80841015328477" lon="9.682404875459763"><ele>330.0</ele><time>2026-03-28T10:03:43.987Z</time></trkpt><trkpt lat="45.808408765449414" lon="9.682545586724984"><ele>330.0</ele><time>2026-03-28T10:03:44.987Z</time></trkpt><trkpt lat="45.808400123846894" lon="9.682667854820723"><ele>330.0</ele><time>2026-03-28T10:03:45.987Z</time></trkpt><trkpt lat="45.80838849691142" lon="9.682765527819566"><ele>330.0</ele><time>2026-03-28T10:03:47.987Z</time></trkpt><trkpt lat="45.8083540424485" lon="9.682851253681436"><ele>330.0</ele><time>2026-03-28T10:03:52.987Z</time></trkpt><trkpt lat="45.80837622494129" lon="9.68298009004332"><ele>330.0</ele><time>2026-03-28T10:10:05.986Z</time></trkpt><trkpt lat="45.80833453984639" lon="9.682902807974536"><ele>330.0</ele><time>2026-03-28T10:16:48.978Z</time></trkpt><trkpt lat="45.808394086590056" lon="9.682940719354946"><ele>330.0</ele><time>2026-03-28T10:19:17.976Z</time></trkpt><trkpt lat="45.80842262289312" lon="9.683049337215417"><ele>330.0</ele><time>2026-03-28T10:19:23.976Z</time></trkpt><trkpt lat="45.80841729751267" lon="9.683164459286512"><ele>330.0</ele><time>2026-03-28T10:19:24.976Z</time></trkpt><trkpt lat="45.80842300406255" lon="9.683322848566535"><ele>330.0</ele><time>2026-03-28T10:19:25.976Z</time></trkpt><trkpt lat="45.808415757824676" lon="9.683460942006432"><ele>330.0</ele><time>2026-03-28T10:19:26.976Z</time></trkpt><trkpt lat="45.80841455299542" lon="9.683611946877438"><ele>330.0</ele><time>2026-03-28T10:19:27.976Z</time></trkpt><trkpt lat="45.80841008280317" lon="9.683779164276627"><ele>330.0</ele><time>2026-03-28T10:19:28.976Z</time></trkpt><trkpt lat="45.80841473181464" lon="9.683948877401757"><ele>330.5</ele><time>2026-03-28T10:19:29.976Z</time></trkpt><trkpt lat="45.80841645777581" lon="9.684124374024307"><ele>331.0</ele><time>2026-03-28T10:19:30.976Z</time></trkpt><trkpt lat="45.80842281605463" lon="9.684309424060984"><ele>331.5</ele><time>2026-03-28T10:19:31.976Z</time></trkpt><trkpt lat="45.80843023290858" lon="9.68448813100993"><ele>332.0</ele><time>2026-03-28T10:19:32.976Z</time></trkpt><trkpt lat="45.80843323814268" lon="9.684681957276288"><ele>332.75</ele><time>2026-03-28T10:19:33.976Z</time></trkpt><trkpt lat="45.80843428358995" lon="9.684880669300709"><ele>333.5</ele><time>2026-03-28T10:19:34.976Z</time></trkpt><trkpt lat="45.80843317679931" lon="9.685062941150893"><ele>334.25</ele><time>2026-03-28T10:19:35.976Z</time></trkpt><trkpt lat="45.80843186368791" lon="9.685244642554718"><ele>335.0</ele><time>2026-03-28T10:19:36.976Z</time></trkpt><trkpt lat="45.808435243937375" lon="9.68541947776197"><ele>335.5</ele><time>2026-03-28T10:19:37.976Z</time></trkpt><trkpt lat="45.80844098758231" lon="9.685611637776448"><ele>336.0</ele><time>2026-03-28T10:19:38.976Z</time></trkpt><trkpt lat="45.80844618552529" lon="9.685813820108166"><ele>336.5</ele><time>2026-03-28T10:19:39.976Z</time></trkpt><trkpt lat="45.808450138126624" lon="9.686041903335019"><ele>337.0</ele><time>2026-03-28T10:19:40.976Z</time></trkpt><trkpt lat="45.80844705287463" lon="9.686271326319382"><ele>339.3333333333333</ele><time>2026-03-28T10:19:41.976Z</time></trkpt><trkpt lat="45.80841748705618" lon="9.686508285505743"><ele>341.6666666666667</ele><time>2026-03-28T10:19:42.976Z</time></trkpt><trkpt lat="45.80837006729361" lon="9.68678005167772"><ele>344.0</ele><time>2026-03-28T10:19:43.976Z</time></trkpt><trkpt lat="45.808320283433645" lon="9.68704525863878"><ele>344.6666666666667</ele><time>2026-03-28T10:19:44.976Z</time></trkpt><trkpt lat="45.80827965431364" lon="9.687292534102268"><ele>345.3333333333333</ele><time>2026-03-28T10:19:45.976Z</time></trkpt><trkpt lat="45.808237366201894" lon="9.687526424193932"><ele>346.0</ele><time>2026-03-28T10:19:46.976Z</time></trkpt><trkpt lat="45.808194659498845" lon="9.687751735735613"><ele>348.5</ele><time>2026-03-28T10:19:47.976Z</time></trkpt><trkpt lat="45.808152829821815" lon="9.687954633155366"><ele>351.0</ele><time>2026-03-28T10:19:48.976Z</time></trkpt><trkpt lat="45.8081113020013" lon="9.688156219608361"><ele>353.5</ele><time>2026-03-28T10:19:49.976Z</time></trkpt><trkpt lat="45.808087962709166" lon="9.688369885502222"><ele>356.0</ele><time>2026-03-28T10:19:50.976Z</time></trkpt><trkpt lat="45.808100134624354" lon="9.688606231121174"><ele>361.0</ele><time>2026-03-28T10:19:51.976Z</time></trkpt><trkpt lat="45.808129525355874" lon="9.688916260675807"><ele>366.0</ele><time>2026-03-28T10:19:52.976Z</time></trkpt><trkpt lat="45.80815268318132" lon="9.689171983694006"><ele>371.0</ele><time>2026-03-28T10:19:53.976Z</time></trkpt><trkpt lat="45.80817792150817" lon="9.689381662553583"><ele>380.0</ele><time>2026-03-28T10:19:54.976Z</time></trkpt><trkpt lat="45.808243020350695" lon="9.689529062391772"><ele>389.0</ele><time>2026-03-28T10:19:55.976Z</time></trkpt><trkpt lat="45.80833423310771" lon="9.689702109649307"><ele>398.0</ele><time>2026-03-28T10:19:56.976Z</time></trkpt><trkpt lat="45.808439968551625" lon="9.689916566954672"><ele>401.0</ele><time>2026-03-28T10:19:57.976Z</time></trkpt><trkpt lat="45.80854015148912" lon="9.69015790640691"><ele>404.0</ele><time>2026-03-28T10:19:58.976Z</time></trkpt><trkpt lat="45.80863078119509" lon="9.690378854855645"><ele>407.0</ele><time>2026-03-28T10:19:59.976Z</time></trkpt><trkpt lat="45.808699386469904" lon="9.690586713111514"><ele>407.0</ele><time>2026-03-28T10:20:00.976Z</time></trkpt><trkpt lat="45.80876214509753" lon="9.690745622800394"><ele>407.0</ele><time>2026-03-28T10:20:01.976Z</time></trkpt><trkpt lat="45.808872946012265" lon="9.690784615695499"><ele>407.0</ele><time>2026-03-28T10:20:02.976Z</time></trkpt><trkpt lat="45.80888693678906" lon="9.690893062830838"><ele>407.0</ele><time>2026-03-28T10:20:03.976Z</time></trkpt><trkpt lat="45.808925170707866" lon="9.691026578583289"><ele>407.0</ele><time>2026-03-28T10:20:04.975Z</time></trkpt><trkpt lat="45.808950512782154" lon="9.691191797448097"><ele>406.0</ele><time>2026-03-28T10:20:05.975Z</time></trkpt><trkpt lat="45.808982226899566" lon="9.691348476008935"><ele>405.0</ele><time>2026-03-28T10:20:06.976Z</time></trkpt><trkpt lat="45.80893766802167" lon="9.691504590647568"><ele>404.0</ele><time>2026-03-28T10:20:07.976Z</time></trkpt><trkpt lat="45.8089451561448" lon="9.691652082180491"><ele>403.0</ele><time>2026-03-28T10:20:08.976Z</time></trkpt><trkpt lat="45.80894884489329" lon="9.691857934034022"><ele>400.0</ele><time>2026-03-28T10:20:09.976Z</time></trkpt><trkpt lat="45.80893748987186" lon="9.692096969781115"><ele>397.0</ele><time>2026-03-28T10:20:10.976Z</time></trkpt><trkpt lat="45.80892429687141" lon="9.692506696589742"><ele>393.6666666666667</ele><time>2026-03-28T10:20:11.976Z</time></trkpt><trkpt lat="45.80896485792807" lon="9.692833424770193"><ele>390.33333333333337</ele><time>2026-03-28T10:20:12.976Z</time></trkpt><trkpt lat="45.809006131918544" lon="9.693104552330984"><ele>387.0</ele><time>2026-03-28T10:20:13.976Z</time></trkpt><trkpt lat="45.809068785838136" lon="9.693371797177338"><ele>390.0</ele><time>2026-03-28T10:20:14.976Z</time></trkpt><trkpt lat="45.8091461038799" lon="9.693655670436586"><ele>393.0</ele><time>2026-03-28T10:20:15.976Z</time></trkpt><trkpt lat="45.8092162033471" lon="9.69391164746063"><ele>396.0</ele><time>2026-03-28T10:20:16.976Z</time></trkpt><trkpt lat="45.80930666716108" lon="9.69417650692338"><ele>395.66666666666663</ele><time>2026-03-28T10:20:17.976Z</time></trkpt><trkpt lat="45.80936259415119" lon="9.694408226645784"><ele>395.3333333333333</ele><time>2026-03-28T10:20:18.976Z</time></trkpt><trkpt lat="45.80939332147938" lon="9.694647029839329"><ele>395.0</ele><time>2026-03-28T10:20:19.976Z</time></trkpt><trkpt lat="45.809423768317586" lon="9.694891299685443"><ele>395.0</ele><time>2026-03-28T10:20:20.976Z</time></trkpt><trkpt lat="45.80944458731248" lon="9.695113829122077"><ele>395.0</ele><time>2026-03-28T10:20:21.976Z</time></trkpt><trkpt lat="45.80967425813448" lon="9.694985661105466"><ele>395.0</ele><time>2026-03-28T10:20:22.976Z</time></trkpt><trkpt lat="45.80974119993018" lon="9.694920103272432"><ele>395.0</ele><time>2026-03-28T10:20:23.976Z</time></trkpt><trkpt lat="45.80980514518708" lon="9.695045295932474"><ele>395.0</ele><time>2026-03-28T10:20:24.976Z</time></trkpt><trkpt lat="45.80987121911559" lon="9.69524582421949"><ele>395.0</ele><time>2026-03-28T10:20:25.976Z</time></trkpt><trkpt lat="45.80993745342882" lon="9.695486518591661"><ele>395.0</ele><time>2026-03-28T10:20:26.976Z</time></trkpt><trkpt lat="45.810005349708284" lon="9.695743697808698"><ele>389.3333333333333</ele><time>2026-03-28T10:20:27.976Z</time></trkpt><trkpt lat="45.810033921542406" lon="9.695977729722555"><ele>383.66666666666663</ele><time>2026-03-28T10:20:28.976Z</time></trkpt><trkpt lat="45.8100821468172" lon="9.696196245115958"><ele>378.0</ele><time>2026-03-28T10:20:29.976Z</time></trkpt><trkpt lat="45.81014100376002" lon="9.696388766217414"><ele>381.0</ele><time>2026-03-28T10:20:30.976Z</time></trkpt><trkpt lat="45.81020032048576" lon="9.696583638603906"><ele>384.0</ele><time>2026-03-28T10:20:31.976Z</time></trkpt><trkpt lat="45.810235011309466" lon="9.696804922236558"><ele>387.0</ele><time>2026-03-28T10:20:32.976Z</time></trkpt><trkpt lat="45.810214563078276" lon="9.697063379203518"><ele>387.0</ele><time>2026-03-28T10:20:33.976Z</time></trkpt><trkpt lat="45.81020068893186" lon="9.697297600686294"><ele>387.0</ele><time>2026-03-28T10:20:34.976Z</time></trkpt><trkpt lat="45.81023245115465" lon="9.697518270122709"><ele>387.0</ele><time>2026-03-28T10:20:35.976Z</time></trkpt><trkpt lat="45.81027081787674" lon="9.697721262284821"><ele>383.75</ele><time>2026-03-28T10:20:36.976Z</time></trkpt><trkpt lat="45.810311616343036" lon="9.69790349681196"><ele>380.5</ele><time>2026-03-28T10:20:37.976Z</time></trkpt><trkpt lat="45.81035871074512" lon="9.698064352704694"><ele>377.25</ele><time>2026-03-28T10:20:38.976Z</time></trkpt><trkpt lat="45.810426749586995" lon="9.698178310683469"><ele>374.0</ele><time>2026-03-28T10:20:39.976Z</time></trkpt><trkpt lat="45.81055522394693" lon="9.69825612181706"><ele>374.0</ele><time>2026-03-28T10:20:40.976Z</time></trkpt><trkpt lat="45.8107009368134" lon="9.698326010656517"><ele>374.0</ele><time>2026-03-28T10:20:41.976Z</time></trkpt><trkpt lat="45.81084548151664" lon="9.69839244275674"><ele>374.0</ele><time>2026-03-28T10:20:42.976Z</time></trkpt><trkpt lat="45.81094554540089" lon="9.698487934491409"><ele>374.0</ele><time>2026-03-28T10:20:43.976Z</time></trkpt><trkpt lat="45.81103413896626" lon="9.698616945581424"><ele>380.75</ele><time>2026-03-28T10:20:44.976Z</time></trkpt><trkpt lat="45.811112413078625" lon="9.69877928454732"><ele>387.5</ele><time>2026-03-28T10:20:45.976Z</time></trkpt><trkpt lat="45.811177408627266" lon="9.698954634000346"><ele>394.25</ele><time>2026-03-28T10:20:46.976Z</time></trkpt><trkpt lat="45.81122782644728" lon="9.699153567135653"><ele>401.0</ele><time>2026-03-28T10:20:47.976Z</time></trkpt><trkpt lat="45.8112707306569" lon="9.699353482837015"><ele>399.0</ele><time>2026-03-28T10:20:48.976Z</time></trkpt><trkpt lat="45.8113191969456" lon="9.69955398578684"><ele>397.0</ele><time>2026-03-28T10:20:49.976Z</time></trkpt><trkpt lat="45.81136119783458" lon="9.699732512715178"><ele>395.0</ele><time>2026-03-28T10:20:50.976Z</time></trkpt><trkpt lat="45.81140116173443" lon="9.699889216082632"><ele>393.0</ele><time>2026-03-28T10:20:51.976Z</time></trkpt><trkpt lat="45.811445130236855" lon="9.70002606533437"><ele>393.0</ele><time>2026-03-28T10:20:52.976Z</time></trkpt><trkpt lat="45.811486012778424" lon="9.700143110363404"><ele>393.0</ele><time>2026-03-28T10:20:53.976Z</time></trkpt><trkpt lat="45.81155727120078" lon="9.70026478869709"><ele>393.0</ele><time>2026-03-28T10:20:54.976Z</time></trkpt><trkpt lat="45.81162322614617" lon="9.7003761692258"><ele>393.0</ele><time>2026-03-28T10:20:55.976Z</time></trkpt><trkpt lat="45.81168038995642" lon="9.700505873070608"><ele>393.0</ele><time>2026-03-28T10:20:56.976Z</time></trkpt><trkpt lat="45.81170720044997" lon="9.700685138474183"><ele>391.25</ele><time>2026-03-28T10:20:57.976Z</time></trkpt><trkpt lat="45.81166232567012" lon="9.700889653448858"><ele>389.5</ele><time>2026-03-28T10:20:58.976Z</time></trkpt><trkpt lat="45.811604733093304" lon="9.70107510835152"><ele>387.75</ele><time>2026-03-28T10:20:59.976Z</time></trkpt><trkpt lat="45.811582678837695" lon="9.701232946479807"><ele>386.0</ele><time>2026-03-28T10:21:00.976Z</time></trkpt><trkpt lat="45.81158492088641" lon="9.70137578014853"><ele>386.0</ele><time>2026-03-28T10:21:01.976Z</time></trkpt><trkpt lat="45.81160632535437" lon="9.701535853623566"><ele>386.0</ele><time>2026-03-28T10:21:02.976Z</time></trkpt><trkpt lat="45.81165267230679" lon="9.7017006112711"><ele>386.0</ele><time>2026-03-28T10:21:03.976Z</time></trkpt><trkpt lat="45.811682816472945" lon="9.701871854563663"><ele>386.0</ele><time>2026-03-28T10:21:04.976Z</time></trkpt><trkpt lat="45.81172202794591" lon="9.7020292717667"><ele>385.8333333333333</ele><time>2026-03-28T10:21:05.976Z</time></trkpt><trkpt lat="45.81174563484427" lon="9.702164534707416"><ele>385.66666666666663</ele><time>2026-03-28T10:21:06.976Z</time></trkpt><trkpt lat="45.811757988864606" lon="9.70227627305283"><ele>385.5</ele><time>2026-03-28T10:21:07.976Z</time></trkpt><trkpt lat="45.81178281867116" lon="9.702395305289672"><ele>385.33333333333337</ele><time>2026-03-28T10:21:08.976Z</time></trkpt><trkpt lat="45.811821698129684" lon="9.702502031353886"><ele>385.1666666666667</ele><time>2026-03-28T10:21:09.976Z</time></trkpt><trkpt lat="45.81187335860516" lon="9.70257716319005"><ele>385.0</ele><time>2026-03-28T10:21:10.976Z</time></trkpt><trkpt lat="45.81196397085973" lon="9.702619785445043"><ele>384.0</ele><time>2026-03-28T10:21:11.976Z</time></trkpt><trkpt lat="45.812089617897726" lon="9.702623446385086"><ele>383.0</ele><time>2026-03-28T10:21:12.976Z</time></trkpt><trkpt lat="45.81221149630359" lon="9.702574976411098"><ele>382.0</ele><time>2026-03-28T10:21:13.976Z</time></trkpt><trkpt lat="45.81231653323291" lon="9.702501689587743"><ele>381.0</ele><time>2026-03-28T10:21:14.976Z</time></trkpt><trkpt lat="45.81242631182572" lon="9.702453078329661"><ele>381.0</ele><time>2026-03-28T10:21:15.976Z</time></trkpt><trkpt lat="45.812534291956304" lon="9.702414465542464"><ele>381.0</ele><time>2026-03-28T10:21:16.976Z</time></trkpt><trkpt lat="45.81263096659097" lon="9.702359343862586"><ele>381.0</ele><time>2026-03-28T10:21:17.976Z</time></trkpt><trkpt lat="45.81273894548911" lon="9.702319121190078"><ele>381.0</ele><time>2026-03-28T10:21:18.976Z</time></trkpt><trkpt lat="45.81285006577731" lon="9.702271162337903"><ele>381.0</ele><time>2026-03-28T10:21:19.976Z</time></trkpt><trkpt lat="45.81295824765669" lon="9.702222114207029"><ele>382.75</ele><time>2026-03-28T10:21:20.976Z</time></trkpt><trkpt lat="45.813058011436866" lon="9.70220467763678"><ele>384.5</ele><time>2026-03-28T10:21:21.976Z</time></trkpt><trkpt lat="45.81316720326184" lon="9.702208552434527"><ele>386.25</ele><time>2026-03-28T10:21:22.976Z</time></trkpt><trkpt lat="45.813292142236186" lon="9.702251311393809"><ele>388.0</ele><time>2026-03-28T10:21:23.976Z</time></trkpt><trkpt lat="45.81343170426143" lon="9.702329286310553"><ele>389.5</ele><time>2026-03-28T10:21:24.976Z</time></trkpt><trkpt lat="45.813557978787976" lon="9.702412233469081"><ele>391.0</ele><time>2026-03-28T10:21:25.976Z</time></trkpt><trkpt lat="45.81367358264594" lon="9.702471297652947"><ele>392.5</ele><time>2026-03-28T10:21:26.976Z</time></trkpt><trkpt lat="45.8137737515869" lon="9.70252725722708"><ele>394.0</ele><time>2026-03-28T10:21:27.976Z</time></trkpt><trkpt lat="45.81386407595449" lon="9.702574267293574"><ele>394.00000000000006</ele><time>2026-03-28T10:21:28.976Z</time></trkpt><trkpt lat="45.813945370745216" lon="9.702616598027436"><ele>394.0</ele><time>2026-03-28T10:21:29.976Z</time></trkpt><trkpt lat="45.81401677682928" lon="9.702653014780633"><ele>394.0</ele><time>2026-03-28T10:21:30.976Z</time></trkpt><trkpt lat="45.814085679744494" lon="9.702689810784229"><ele>394.0</ele><time>2026-03-28T10:21:31.976Z</time></trkpt><trkpt lat="45.81415280711432" lon="9.702745129117957"><ele>394.00000000000006</ele><time>2026-03-28T10:21:32.976Z</time></trkpt><trkpt lat="45.814205230416825" lon="9.702870463661336"><ele>394.0</ele><time>2026-03-28T10:21:33.976Z</time></trkpt><trkpt lat="45.814245411652784" lon="9.703011341022403"><ele>394.25</ele><time>2026-03-28T10:21:34.976Z</time></trkpt><trkpt lat="45.814273828816646" lon="9.703201829664131"><ele>394.5</ele><time>2026-03-28T10:21:35.976Z</time></trkpt><trkpt lat="45.81428984161292" lon="9.703382269169236"><ele>394.75</ele><time>2026-03-28T10:21:36.976Z</time></trkpt><trkpt lat="45.81430358602744" lon="9.703557082978868"><ele>395.0</ele><time>2026-03-28T10:21:37.976Z</time></trkpt><trkpt lat="45.8143130576233" lon="9.703716995837318"><ele>396.2</ele><time>2026-03-28T10:21:38.976Z</time></trkpt><trkpt lat="45.81430981119671" lon="9.703863144197225"><ele>397.4</ele><time>2026-03-28T10:21:39.976Z</time></trkpt><trkpt lat="45.814286863774214" lon="9.703989147429267"><ele>398.6</ele><time>2026-03-28T10:21:40.976Z</time></trkpt><trkpt lat="45.814245001692655" lon="9.704127136256531"><ele>399.8</ele><time>2026-03-28T10:21:41.976Z</time></trkpt><trkpt lat="45.814242324383066" lon="9.704270856020262"><ele>401.0</ele><time>2026-03-28T10:21:42.976Z</time></trkpt><trkpt lat="45.81426548157551" lon="9.704435727262263"><ele>402.25</ele><time>2026-03-28T10:21:43.976Z</time></trkpt><trkpt lat="45.814304848382136" lon="9.704604665605855"><ele>403.5</ele><time>2026-03-28T10:21:44.976Z</time></trkpt><trkpt lat="45.81435301532429" lon="9.70478252031907"><ele>404.75</ele><time>2026-03-28T10:21:45.976Z</time></trkpt><trkpt lat="45.81439451848138" lon="9.704928153864358"><ele>406.0</ele><time>2026-03-28T10:21:46.976Z</time></trkpt><trkpt lat="45.81441451503252" lon="9.705072454230905"><ele>406.4</ele><time>2026-03-28T10:21:47.976Z</time></trkpt><trkpt lat="45.81445787090145" lon="9.705212909374549"><ele>406.8</ele><time>2026-03-28T10:21:48.976Z</time></trkpt><trkpt lat="45.814496231407574" lon="9.705340362322442"><ele>407.2</ele><time>2026-03-28T10:21:49.976Z</time></trkpt><trkpt lat="45.81454241627906" lon="9.705436307483053"><ele>407.59999999999997</ele><time>2026-03-28T10:21:50.976Z</time></trkpt><trkpt lat="45.81460378242068" lon="9.705494068938286"><ele>408.0</ele><time>2026-03-28T10:21:51.976Z</time></trkpt><trkpt lat="45.814699885333354" lon="9.705548223075846"><ele>406.0</ele><time>2026-03-28T10:21:52.976Z</time></trkpt><trkpt lat="45.814816712161715" lon="9.70555974098851"><ele>404.0</ele><time>2026-03-28T10:21:53.976Z</time></trkpt><trkpt lat="45.81494379399694" lon="9.705495429144975"><ele>402.0</ele><time>2026-03-28T10:21:54.976Z</time></trkpt><trkpt lat="45.81506578251808" lon="9.705403931507233"><ele>400.0</ele><time>2026-03-28T10:21:55.976Z</time></trkpt><trkpt lat="45.81519397053878" lon="9.705322777211304"><ele>400.0</ele><time>2026-03-28T10:21:56.976Z</time></trkpt><trkpt lat="45.815309027234065" lon="9.705251539340173"><ele>400.0</ele><time>2026-03-28T10:21:57.976Z</time></trkpt><trkpt lat="45.81541790609677" lon="9.705200201487406"><ele>400.0</ele><time>2026-03-28T10:21:58.976Z</time></trkpt><trkpt lat="45.815535051800445" lon="9.705160421724749"><ele>400.0</ele><time>2026-03-28T10:21:59.976Z</time></trkpt><trkpt lat="45.815656571445416" lon="9.70514980304596"><ele>401.0</ele><time>2026-03-28T10:22:00.976Z</time></trkpt><trkpt lat="45.815788929307324" lon="9.705180916214509"><ele>402.0</ele><time>2026-03-28T10:22:01.976Z</time></trkpt><trkpt lat="45.81590961872615" lon="9.705202807924522"><ele>403.0</ele><time>2026-03-28T10:22:02.976Z</time></trkpt><trkpt lat="45.816022154219326" lon="9.705242077367206"><ele>404.0</ele><time>2026-03-28T10:22:03.976Z</time></trkpt><trkpt lat="45.81614469972562" lon="9.705308056398028"><ele>404.0</ele><time>2026-03-28T10:22:04.976Z</time></trkpt><trkpt lat="45.81625646110879" lon="9.705393711095056"><ele>404.0</ele><time>2026-03-28T10:22:05.976Z</time></trkpt><trkpt lat="45.81636227565853" lon="9.705499720884834"><ele>404.0</ele><time>2026-03-28T10:22:06.976Z</time></trkpt><trkpt lat="45.81647630066362" lon="9.705607282314157"><ele>404.0</ele><time>2026-03-28T10:22:07.976Z</time></trkpt><trkpt lat="45.81657758677561" lon="9.70573008650542"><ele>404.0</ele><time>2026-03-28T10:22:08.976Z</time></trkpt><trkpt lat="45.81667570911927" lon="9.70587347253383"><ele>404.0</ele><time>2026-03-28T10:22:09.975Z</time></trkpt><trkpt lat="45.81676698927619" lon="9.70604559876742"><ele>404.0</ele><time>2026-03-28T10:22:10.975Z</time></trkpt><trkpt lat="45.81683965918408" lon="9.706229840309636"><ele>404.0</ele><time>2026-03-28T10:22:11.975Z</time></trkpt><trkpt lat="45.81691286438389" lon="9.706402250119405"><ele>408.25</ele><time>2026-03-28T10:22:12.975Z</time></trkpt><trkpt lat="45.81698791213662" lon="9.706579514389864"><ele>412.5</ele><time>2026-03-28T10:22:13.975Z</time></trkpt><trkpt lat="45.8170679839463" lon="9.706750832296256"><ele>416.75</ele><time>2026-03-28T10:22:14.975Z</time></trkpt><trkpt lat="45.81715280386717" lon="9.706917558094638"><ele>421.0</ele><time>2026-03-28T10:22:15.975Z</time></trkpt><trkpt lat="45.81721668956204" lon="9.707096005094757"><ele>421.0</ele><time>2026-03-28T10:22:16.975Z</time></trkpt><trkpt lat="45.81725208468668" lon="9.707330162031418"><ele>421.0</ele><time>2026-03-28T10:22:17.975Z</time></trkpt><trkpt lat="45.817267489138175" lon="9.70756170217925"><ele>421.0</ele><time>2026-03-28T10:22:18.975Z</time></trkpt><trkpt lat="45.817274417284445" lon="9.707765882892906"><ele>418.5</ele><time>2026-03-28T10:22:19.975Z</time></trkpt><trkpt lat="45.817290912385275" lon="9.70796407757096"><ele>416.0</ele><time>2026-03-28T10:22:20.975Z</time></trkpt><trkpt lat="45.81730547078815" lon="9.708174303636161"><ele>413.5</ele><time>2026-03-28T10:22:21.975Z</time></trkpt><trkpt lat="45.81734054060248" lon="9.708365166416545"><ele>411.0</ele><time>2026-03-28T10:22:22.975Z</time></trkpt><trkpt lat="45.81740115534083" lon="9.708533425598166"><ele>411.75</ele><time>2026-03-28T10:22:23.975Z</time></trkpt><trkpt lat="45.817500358482974" lon="9.708673369650382"><ele>412.5</ele><time>2026-03-28T10:22:24.975Z</time></trkpt><trkpt lat="45.81761473252865" lon="9.708815395348436"><ele>413.25</ele><time>2026-03-28T10:22:25.975Z</time></trkpt><trkpt lat="45.81774357752751" lon="9.708946329084707"><ele>414.0</ele><time>2026-03-28T10:22:26.975Z</time></trkpt><trkpt lat="45.81786726701692" lon="9.709073248269712"><ele>414.0</ele><time>2026-03-28T10:22:27.975Z</time></trkpt><trkpt lat="45.81797397216841" lon="9.709190824133895"><ele>414.0</ele><time>2026-03-28T10:22:28.975Z</time></trkpt><trkpt lat="45.81808741597649" lon="9.70932130477586"><ele>414.0</ele><time>2026-03-28T10:22:29.975Z</time></trkpt><trkpt lat="45.818202376549074" lon="9.70944653450446"><ele>414.0</ele><time>2026-03-28T10:22:30.975Z</time></trkpt><trkpt lat="45.81831554043819" lon="9.709576840778064"><ele>414.79999999999995</ele><time>2026-03-28T10:22:31.975Z</time></trkpt><trkpt lat="45.81841195633331" lon="9.709692369127895"><ele>415.59999999999997</ele><time>2026-03-28T10:22:32.975Z</time></trkpt><trkpt lat="45.818488637729374" lon="9.709784615658398"><ele>416.4</ele><time>2026-03-28T10:22:33.975Z</time></trkpt><trkpt lat="45.818554753681646" lon="9.709856919628843"><ele>417.2</ele><time>2026-03-28T10:22:34.975Z</time></trkpt><trkpt lat="45.81861135926963" lon="9.709931633329285"><ele>418.0</ele><time>2026-03-28T10:22:35.975Z</time></trkpt><trkpt lat="45.818677115090246" lon="9.71001624227808"><ele>418.0</ele><time>2026-03-28T10:22:36.975Z</time></trkpt><trkpt lat="45.81875254894413" lon="9.7101100715148"><ele>418.0</ele><time>2026-03-28T10:22:37.975Z</time></trkpt><trkpt lat="45.81884972213957" lon="9.710206682857885"><ele>418.0</ele><time>2026-03-28T10:22:38.975Z</time></trkpt><trkpt lat="45.8189615253044" lon="9.710290611935656"><ele>418.0</ele><time>2026-03-28T10:22:39.975Z</time></trkpt><trkpt lat="45.81914221498761" lon="9.710389955528184"><ele>419.6666666666667</ele><time>2026-03-28T10:22:40.975Z</time></trkpt><trkpt lat="45.819337976344485" lon="9.710447377447128"><ele>421.33333333333337</ele><time>2026-03-28T10:22:41.975Z</time></trkpt><trkpt lat="45.81951888060335" lon="9.7105121014176"><ele>423.0</ele><time>2026-03-28T10:22:42.975Z</time></trkpt><trkpt lat="45.819683433339634" lon="9.710639841445593"><ele>423.0</ele><time>2026-03-28T10:22:43.975Z</time></trkpt><trkpt lat="45.8198205144655" lon="9.710755115118435"><ele>423.0</ele><time>2026-03-28T10:22:44.975Z</time></trkpt><trkpt lat="45.81996708955926" lon="9.710885818887492"><ele>423.0</ele><time>2026-03-28T10:22:45.975Z</time></trkpt><trkpt lat="45.82009539454159" lon="9.711040472341672"><ele>427.0</ele><time>2026-03-28T10:22:46.975Z</time></trkpt><trkpt lat="45.820210388762405" lon="9.711213855580702"><ele>431.0</ele><time>2026-03-28T10:22:47.975Z</time></trkpt><trkpt lat="45.82031280915276" lon="9.711378161058748"><ele>435.0</ele><time>2026-03-28T10:22:48.975Z</time></trkpt><trkpt lat="45.82040517965886" lon="9.711518381337578"><ele>435.0</ele><time>2026-03-28T10:22:49.975Z</time></trkpt><trkpt lat="45.820494852881914" lon="9.711663006378615"><ele>435.0</ele><time>2026-03-28T10:22:50.975Z</time></trkpt><trkpt lat="45.82057350646894" lon="9.711790659686862"><ele>435.0</ele><time>2026-03-28T10:22:51.975Z</time></trkpt><trkpt lat="45.82064353093836" lon="9.711937355922277"><ele>435.0</ele><time>2026-03-28T10:22:52.975Z</time></trkpt><trkpt lat="45.82070734874924" lon="9.712081203354481"><ele>432.5</ele><time>2026-03-28T10:22:53.975Z</time></trkpt><trkpt lat="45.82076592925145" lon="9.71224767422878"><ele>430.0</ele><time>2026-03-28T10:22:54.975Z</time></trkpt><trkpt lat="45.82079215302608" lon="9.712437937032286"><ele>427.5</ele><time>2026-03-28T10:22:55.975Z</time></trkpt><trkpt lat="45.82081636167139" lon="9.712634479560421"><ele>425.0</ele><time>2026-03-28T10:22:56.975Z</time></trkpt><trkpt lat="45.82083482469555" lon="9.712820040993375"><ele>424.2</ele><time>2026-03-28T10:22:57.975Z</time></trkpt><trkpt lat="45.82085310203729" lon="9.712975080881755"><ele>423.4</ele><time>2026-03-28T10:22:58.975Z</time></trkpt><trkpt lat="45.82087119785861" lon="9.71313229511441"><ele>422.6</ele><time>2026-03-28T10:22:59.975Z</time></trkpt><trkpt lat="45.820890417793215" lon="9.713258323937248"><ele>421.8</ele><time>2026-03-28T10:23:00.975Z</time></trkpt><trkpt lat="45.82091299780942" lon="9.713368047081072"><ele>421.0</ele><time>2026-03-28T10:23:01.975Z</time></trkpt><trkpt lat="45.82094626582399" lon="9.71346398948797"><ele>423.0</ele><time>2026-03-28T10:23:02.975Z</time></trkpt><trkpt lat="45.82099900070773" lon="9.71353057101694"><ele>425.0</ele><time>2026-03-28T10:23:03.975Z</time></trkpt><trkpt lat="45.82108601316892" lon="9.713580511550102"><ele>427.0</ele><time>2026-03-28T10:23:04.975Z</time></trkpt><trkpt lat="45.82117705629683" lon="9.713621001650433"><ele>429.0</ele><time>2026-03-28T10:23:05.975Z</time></trkpt><trkpt lat="45.82127503489756" lon="9.713640498723434"><ele>431.0</ele><time>2026-03-28T10:23:06.975Z</time></trkpt><trkpt lat="45.821385416873774" lon="9.713641340651531"><ele>431.0</ele><time>2026-03-28T10:23:07.975Z</time></trkpt><trkpt lat="45.82149980457091" lon="9.713645935180113"><ele>431.0</ele><time>2026-03-28T10:23:08.975Z</time></trkpt><trkpt lat="45.82160735428472" lon="9.71365461769464"><ele>431.0</ele><time>2026-03-28T10:23:09.975Z</time></trkpt><trkpt lat="45.82169669990641" lon="9.71366175137354"><ele>431.0</ele><time>2026-03-28T10:23:10.975Z</time></trkpt><trkpt lat="45.821786218570445" lon="9.713684900987214"><ele>431.0</ele><time>2026-03-28T10:23:11.975Z</time></trkpt><trkpt lat="45.821881546333266" lon="9.713719600157107"><ele>432.75</ele><time>2026-03-28T10:23:12.975Z</time></trkpt><trkpt lat="45.821978348355934" lon="9.713783261736229"><ele>434.5</ele><time>2026-03-28T10:23:13.975Z</time></trkpt><trkpt lat="45.82206851077935" lon="9.713885802048816"><ele>436.25</ele><time>2026-03-28T10:23:14.975Z</time></trkpt><trkpt lat="45.82216422765798" lon="9.7139862074201"><ele>438.0</ele><time>2026-03-28T10:23:15.975Z</time></trkpt><trkpt lat="45.82225648112592" lon="9.714092826856367"><ele>438.0</ele><time>2026-03-28T10:23:16.975Z</time></trkpt><trkpt lat="45.82233645365773" lon="9.714213843553814"><ele>437.99999999999994</ele><time>2026-03-28T10:23:17.975Z</time></trkpt><trkpt lat="45.82240428048692" lon="9.714341067886751"><ele>437.99999999999994</ele><time>2026-03-28T10:23:18.975Z</time></trkpt><trkpt lat="45.82245762429813" lon="9.714464335106406"><ele>438.0</ele><time>2026-03-28T10:23:19.975Z</time></trkpt><trkpt lat="45.82249214113255" lon="9.71460884883507"><ele>438.0</ele><time>2026-03-28T10:23:20.975Z</time></trkpt><trkpt lat="45.82249720907535" lon="9.714785391013866"><ele>438.75</ele><time>2026-03-28T10:23:21.975Z</time></trkpt><trkpt lat="45.82247995652904" lon="9.714974141952952"><ele>439.5</ele><time>2026-03-28T10:23:22.975Z</time></trkpt><trkpt lat="45.82247313265719" lon="9.715161715958265"><ele>440.25</ele><time>2026-03-28T10:23:23.976Z</time></trkpt><trkpt lat="45.82248705215923" lon="9.71533303677038"><ele>441.0</ele><time>2026-03-28T10:23:24.976Z</time></trkpt><trkpt lat="45.82252037676772" lon="9.715475040310821"><ele>439.8</ele><time>2026-03-28T10:23:25.976Z</time></trkpt><trkpt lat="45.82257253288555" lon="9.715618453532796"><ele>438.6</ele><time>2026-03-28T10:23:26.976Z</time></trkpt><trkpt lat="45.82261821813374" lon="9.715765434684522"><ele>437.4</ele><time>2026-03-28T10:23:27.976Z</time></trkpt><trkpt lat="45.822656482728256" lon="9.715918025772234"><ele>436.2</ele><time>2026-03-28T10:23:28.976Z</time></trkpt><trkpt lat="45.82268461359025" lon="9.716052632740372"><ele>435.0</ele><time>2026-03-28T10:23:29.976Z</time></trkpt><trkpt lat="45.82271902754528" lon="9.716219115457037"><ele>434.0</ele><time>2026-03-28T10:23:30.976Z</time></trkpt><trkpt lat="45.822750384002916" lon="9.71636834128726"><ele>433.0</ele><time>2026-03-28T10:23:31.976Z</time></trkpt><trkpt lat="45.82278830513755" lon="9.71650837668894"><ele>432.0</ele><time>2026-03-28T10:23:32.976Z</time></trkpt><trkpt lat="45.8228267266377" lon="9.716651249977389"><ele>431.0</ele><time>2026-03-28T10:23:33.976Z</time></trkpt><trkpt lat="45.822934475859576" lon="9.716952166295767"><ele>431.0</ele><time>2026-03-28T10:23:35.976Z</time></trkpt><trkpt lat="45.822999270157005" lon="9.717102147764257"><ele>431.0</ele><time>2026-03-28T10:23:36.976Z</time></trkpt><trkpt lat="45.82305668413955" lon="9.717247760265277"><ele>431.0</ele><time>2026-03-28T10:23:37.976Z</time></trkpt><trkpt lat="45.82311220761158" lon="9.71738753934976"><ele>431.0</ele><time>2026-03-28T10:23:38.976Z</time></trkpt><trkpt lat="45.82317273747048" lon="9.717518887574627"><ele>431.0</ele><time>2026-03-28T10:23:39.976Z</time></trkpt><trkpt lat="45.823229194798365" lon="9.717655414223813"><ele>431.0</ele><time>2026-03-28T10:23:40.976Z</time></trkpt><trkpt lat="45.82328052741459" lon="9.717803106666478"><ele>431.0</ele><time>2026-03-28T10:23:41.976Z</time></trkpt><trkpt lat="45.82332049969603" lon="9.717929929321286"><ele>431.0</ele><time>2026-03-28T10:23:42.976Z</time></trkpt><trkpt lat="45.823351754503385" lon="9.718058628709892"><ele>431.0</ele><time>2026-03-28T10:23:43.976Z</time></trkpt><trkpt lat="45.8233648454207" lon="9.71819273252675"><ele>433.6</ele><time>2026-03-28T10:23:44.976Z</time></trkpt><trkpt lat="45.823365901596205" lon="9.718316647241222"><ele>436.20000000000005</ele><time>2026-03-28T10:23:45.976Z</time></trkpt><trkpt lat="45.82337308763178" lon="9.71844688931559"><ele>438.79999999999995</ele><time>2026-03-28T10:23:46.976Z</time></trkpt><trkpt lat="45.8233835154439" lon="9.718580689829695"><ele>441.4</ele><time>2026-03-28T10:23:47.976Z</time></trkpt><trkpt lat="45.82339199162514" lon="9.718719370386042"><ele>444.0</ele><time>2026-03-28T10:23:48.976Z</time></trkpt><trkpt lat="45.82339297168389" lon="9.718866693749563"><ele>444.8333333333333</ele><time>2026-03-28T10:23:49.976Z</time></trkpt><trkpt lat="45.82337761997046" lon="9.718964491250578"><ele>445.66666666666663</ele><time>2026-03-28T10:23:50.976Z</time></trkpt><trkpt lat="45.823359201206216" lon="9.719074253766447"><ele>446.5</ele><time>2026-03-28T10:23:51.976Z</time></trkpt><trkpt lat="45.82333865459356" lon="9.719179320898194"><ele>447.3333333333333</ele><time>2026-03-28T10:23:52.976Z</time></trkpt><trkpt lat="45.82331514871578" lon="9.719280308901162"><ele>448.16666666666663</ele><time>2026-03-28T10:23:53.976Z</time></trkpt><trkpt lat="45.823270612873046" lon="9.719384794942595"><ele>449.0</ele><time>2026-03-28T10:23:54.976Z</time></trkpt><trkpt lat="45.82319154059127" lon="9.719509651576656"><ele>445.0</ele><time>2026-03-28T10:23:55.976Z</time></trkpt><trkpt lat="45.823101866014234" lon="9.719653732610102"><ele>441.0</ele><time>2026-03-28T10:23:56.976Z</time></trkpt><trkpt lat="45.82299751981573" lon="9.719811603760755"><ele>437.0</ele><time>2026-03-28T10:23:57.976Z</time></trkpt><trkpt lat="45.82290407671118" lon="9.720015006322209"><ele>436.3333333333333</ele><time>2026-03-28T10:23:58.976Z</time></trkpt><trkpt lat="45.82283601769133" lon="9.720254427545715"><ele>435.66666666666663</ele><time>2026-03-28T10:23:59.976Z</time></trkpt><trkpt lat="45.822780447439264" lon="9.720482643488"><ele>435.0</ele><time>2026-03-28T10:24:00.976Z</time></trkpt><trkpt lat="45.82272311980235" lon="9.720715700515663"><ele>435.0</ele><time>2026-03-28T10:24:01.976Z</time></trkpt><trkpt lat="45.822672372127045" lon="9.720964801069618"><ele>435.0</ele><time>2026-03-28T10:24:02.976Z</time></trkpt><trkpt lat="45.82262873292498" lon="9.721219003502418"><ele>435.0</ele><time>2026-03-28T10:24:03.976Z</time></trkpt><trkpt lat="45.8226115177666" lon="9.721462758106428"><ele>437.25</ele><time>2026-03-28T10:24:04.976Z</time></trkpt><trkpt lat="45.82259506588173" lon="9.721672925831417"><ele>439.5</ele><time>2026-03-28T10:24:05.976Z</time></trkpt><trkpt lat="45.82256934778716" lon="9.721860793863359"><ele>441.75</ele><time>2026-03-28T10:24:06.976Z</time></trkpt><trkpt lat="45.822514802033915" lon="9.722036734451237"><ele>444.0</ele><time>2026-03-28T10:24:07.976Z</time></trkpt><trkpt lat="45.822429988325716" lon="9.722201350579011"><ele>444.0</ele><time>2026-03-28T10:24:08.976Z</time></trkpt><trkpt lat="45.82233686400987" lon="9.722386229462604"><ele>444.0</ele><time>2026-03-28T10:24:09.976Z</time></trkpt><trkpt lat="45.82220809611696" lon="9.722566209722746"><ele>444.0</ele><time>2026-03-28T10:24:10.976Z</time></trkpt><trkpt lat="45.82205641555692" lon="9.722737107251248"><ele>446.0</ele><time>2026-03-28T10:24:11.976Z</time></trkpt><trkpt lat="45.82187601221845" lon="9.72288234417508"><ele>448.0</ele><time>2026-03-28T10:24:12.976Z</time></trkpt><trkpt lat="45.82169418248964" lon="9.723033093587002"><ele>450.0</ele><time>2026-03-28T10:24:13.976Z</time></trkpt><trkpt lat="45.82151695337639" lon="9.723207130042024"><ele>450.0</ele><time>2026-03-28T10:24:14.976Z</time></trkpt><trkpt lat="45.821362155495386" lon="9.723374593226563"><ele>450.0</ele><time>2026-03-28T10:24:15.975Z</time></trkpt><trkpt lat="45.82124576329496" lon="9.72355151913036"><ele>450.0</ele><time>2026-03-28T10:24:16.975Z</time></trkpt><trkpt lat="45.82112161573475" lon="9.72375228324764"><ele>453.0</ele><time>2026-03-28T10:24:17.975Z</time></trkpt><trkpt lat="45.82105388952292" lon="9.723967638278175"><ele>456.0</ele><time>2026-03-28T10:24:18.974Z</time></trkpt><trkpt lat="45.821014703697884" lon="9.72423884280983"><ele>459.0</ele><time>2026-03-28T10:24:19.974Z</time></trkpt><trkpt lat="45.82097551130281" lon="9.724545032802737"><ele>460.0</ele><time>2026-03-28T10:24:20.974Z</time></trkpt><trkpt lat="45.82095609722979" lon="9.724849726695213"><ele>461.0</ele><time>2026-03-28T10:24:21.975Z</time></trkpt><trkpt lat="45.82094640558505" lon="9.725128139119075"><ele>462.0</ele><time>2026-03-28T10:24:22.974Z</time></trkpt><trkpt lat="45.82090398061752" lon="9.725397067209125"><ele>460.0</ele><time>2026-03-28T10:24:23.974Z</time></trkpt><trkpt lat="45.820854253024784" lon="9.725649101955614"><ele>458.0</ele><time>2026-03-28T10:24:24.975Z</time></trkpt><trkpt lat="45.820802435927774" lon="9.72587368650071"><ele>456.0</ele><time>2026-03-28T10:24:25.975Z</time></trkpt><trkpt lat="45.82074304351361" lon="9.726130709292057"><ele>455.66666666666663</ele><time>2026-03-28T10:24:26.975Z</time></trkpt><trkpt lat="45.82069008143993" lon="9.72643981445057"><ele>455.3333333333333</ele><time>2026-03-28T10:24:27.975Z</time></trkpt><trkpt lat="45.820701341764604" lon="9.726754876918697"><ele>455.0</ele><time>2026-03-28T10:24:28.975Z</time></trkpt><trkpt lat="45.82071238287202" lon="9.7270477568554"><ele>457.66666666666663</ele><time>2026-03-28T10:24:29.975Z</time></trkpt><trkpt lat="45.82073748740545" lon="9.727316356677607"><ele>460.33333333333337</ele><time>2026-03-28T10:24:30.975Z</time></trkpt><trkpt lat="45.82075273668532" lon="9.727560654356784"><ele>463.0</ele><time>2026-03-28T10:24:31.975Z</time></trkpt><trkpt lat="45.82079783225258" lon="9.72777808639849"><ele>462.6666666666667</ele><time>2026-03-28T10:24:32.975Z</time></trkpt><trkpt lat="45.82081856033703" lon="9.72799998831204"><ele>462.33333333333337</ele><time>2026-03-28T10:24:33.975Z</time></trkpt><trkpt lat="45.82080088793047" lon="9.728280038665615"><ele>462.0</ele><time>2026-03-28T10:24:34.975Z</time></trkpt><trkpt lat="45.82075114265608" lon="9.728590583585031"><ele>462.0</ele><time>2026-03-28T10:24:35.975Z</time></trkpt><trkpt lat="45.82067991978309" lon="9.728931524463944"><ele>462.0</ele><time>2026-03-28T10:24:36.975Z</time></trkpt><trkpt lat="45.82063619049248" lon="9.729290584429393"><ele>463.33333333333337</ele><time>2026-03-28T10:24:37.975Z</time></trkpt><trkpt lat="45.82062532781183" lon="9.729608106504221"><ele>464.6666666666667</ele><time>2026-03-28T10:24:38.975Z</time></trkpt><trkpt lat="45.820617289211576" lon="9.729912608235592"><ele>466.0</ele><time>2026-03-28T10:24:39.975Z</time></trkpt><trkpt lat="45.82060509844545" lon="9.730228321429736"><ele>467.0</ele><time>2026-03-28T10:24:40.975Z</time></trkpt><trkpt lat="45.82058124632757" lon="9.730546131021269"><ele>468.0</ele><time>2026-03-28T10:24:41.975Z</time></trkpt><trkpt lat="45.82054297687394" lon="9.730873893014932"><ele>468.5</ele><time>2026-03-28T10:24:42.975Z</time></trkpt><trkpt lat="45.82049760692558" lon="9.731204566494542"><ele>469.0</ele><time>2026-03-28T10:24:43.975Z</time></trkpt><trkpt lat="45.82044965565166" lon="9.731534722311052"><ele>469.0</ele><time>2026-03-28T10:24:44.975Z</time></trkpt><trkpt lat="45.82041151418748" lon="9.731854003166703"><ele>469.0</ele><time>2026-03-28T10:24:45.975Z</time></trkpt><trkpt lat="45.82037732436188" lon="9.73217249505555"><ele>471.0</ele><time>2026-03-28T10:24:46.975Z</time></trkpt><trkpt lat="45.82036451344404" lon="9.732489189757809"><ele>473.0</ele><time>2026-03-28T10:24:47.975Z</time></trkpt><trkpt lat="45.82035491485681" lon="9.732788456461824"><ele>475.0</ele><time>2026-03-28T10:24:48.975Z</time></trkpt><trkpt lat="45.8203524810589" lon="9.733075376001963"><ele>475.0</ele><time>2026-03-28T10:24:49.975Z</time></trkpt><trkpt lat="45.8203569034285" lon="9.733340005237789"><ele>475.0</ele><time>2026-03-28T10:24:50.975Z</time></trkpt><trkpt lat="45.820355473942286" lon="9.733569747686026"><ele>475.0</ele><time>2026-03-28T10:24:51.975Z</time></trkpt><trkpt lat="45.820347842295455" lon="9.733789020304583"><ele>479.0</ele><time>2026-03-28T10:24:52.975Z</time></trkpt><trkpt lat="45.8202967013573" lon="9.734015859391693"><ele>483.0</ele><time>2026-03-28T10:24:53.975Z</time></trkpt><trkpt lat="45.820226458785314" lon="9.734238146558235"><ele>487.0</ele><time>2026-03-28T10:24:54.975Z</time></trkpt><trkpt lat="45.82015597428197" lon="9.734423555089323"><ele>487.25</ele><time>2026-03-28T10:24:55.975Z</time></trkpt><trkpt lat="45.8200920586735" lon="9.73456576676184"><ele>487.5</ele><time>2026-03-28T10:24:56.975Z</time></trkpt><trkpt lat="45.82000548222631" lon="9.734675295264982"><ele>487.75</ele><time>2026-03-28T10:24:57.975Z</time></trkpt><trkpt lat="45.819887859049686" lon="9.734752589023017"><ele>488.0</ele><time>2026-03-28T10:24:58.975Z</time></trkpt><trkpt lat="45.819698698246626" lon="9.734780075472987"><ele>488.0</ele><time>2026-03-28T10:24:59.975Z</time></trkpt><trkpt lat="45.81952150284027" lon="9.734771205745599"><ele>488.0</ele><time>2026-03-28T10:25:00.975Z</time></trkpt><trkpt lat="45.819354181148036" lon="9.734776963002147"><ele>488.0</ele><time>2026-03-28T10:25:01.975Z</time></trkpt><trkpt lat="45.8191743128065" lon="9.734858435135441"><ele>488.66666666666663</ele><time>2026-03-28T10:25:02.975Z</time></trkpt><trkpt lat="45.819005356037984" lon="9.735023918138404"><ele>489.33333333333337</ele><time>2026-03-28T10:25:03.975Z</time></trkpt><trkpt lat="45.818815846292196" lon="9.73520238120558"><ele>490.0</ele><time>2026-03-28T10:25:04.975Z</time></trkpt><trkpt lat="45.818656882882095" lon="9.735396442034647"><ele>490.6666666666667</ele><time>2026-03-28T10:25:05.975Z</time></trkpt><trkpt lat="45.81851278905101" lon="9.735590523439704"><ele>491.33333333333337</ele><time>2026-03-28T10:25:06.975Z</time></trkpt><trkpt lat="45.81839189452382" lon="9.735777982668463"><ele>492.0</ele><time>2026-03-28T10:25:07.975Z</time></trkpt><trkpt lat="45.818295981586814" lon="9.735994969637389"><ele>490.66666666666663</ele><time>2026-03-28T10:25:08.975Z</time></trkpt><trkpt lat="45.8182035850357" lon="9.736255819943889"><ele>489.3333333333333</ele><time>2026-03-28T10:25:09.975Z</time></trkpt><trkpt lat="45.818131986731444" lon="9.736565820659473"><ele>488.0</ele><time>2026-03-28T10:25:10.975Z</time></trkpt><trkpt lat="45.81806146780695" lon="9.736877436517346"><ele>490.66666666666663</ele><time>2026-03-28T10:25:11.975Z</time></trkpt><trkpt lat="45.81798238797226" lon="9.737138944365597"><ele>493.33333333333337</ele><time>2026-03-28T10:25:12.975Z</time></trkpt><trkpt lat="45.81790353134374" lon="9.737367711484342"><ele>496.0</ele><time>2026-03-28T10:25:13.975Z</time></trkpt><trkpt lat="45.817821744186126" lon="9.737596634137514"><ele>497.6666666666667</ele><time>2026-03-28T10:25:14.975Z</time></trkpt><trkpt lat="45.81773450936452" lon="9.73781383931186"><ele>499.33333333333337</ele><time>2026-03-28T10:25:15.975Z</time></trkpt><trkpt lat="45.81764788699289" lon="9.738014892904706"><ele>501.0</ele><time>2026-03-28T10:25:16.975Z</time></trkpt><trkpt lat="45.817561242441776" lon="9.738229838523115"><ele>494.0</ele><time>2026-03-28T10:25:17.975Z</time></trkpt><trkpt lat="45.81747508374918" lon="9.738438955250224"><ele>487.0</ele><time>2026-03-28T10:25:18.975Z</time></trkpt><trkpt lat="45.817395781485914" lon="9.738656638893648"><ele>480.0</ele><time>2026-03-28T10:25:19.975Z</time></trkpt><trkpt lat="45.81732458830126" lon="9.738888246207626"><ele>480.0</ele><time>2026-03-28T10:25:20.975Z</time></trkpt><trkpt lat="45.817256835402326" lon="9.739103060340181"><ele>480.0</ele><time>2026-03-28T10:25:21.975Z</time></trkpt><trkpt lat="45.817184580413375" lon="9.739310083840198"><ele>480.0</ele><time>2026-03-28T10:25:22.975Z</time></trkpt><trkpt lat="45.81711252825664" lon="9.739489213059388"><ele>482.0</ele><time>2026-03-28T10:25:23.975Z</time></trkpt><trkpt lat="45.81703899685727" lon="9.739657295382566"><ele>484.0</ele><time>2026-03-28T10:25:24.975Z</time></trkpt><trkpt lat="45.816933247267045" lon="9.739820803288264"><ele>486.0</ele><time>2026-03-28T10:25:25.975Z</time></trkpt><trkpt lat="45.81678969336542" lon="9.739926342114773"><ele>486.0</ele><time>2026-03-28T10:25:26.975Z</time></trkpt><trkpt lat="45.816609244638734" lon="9.740003755247441"><ele>486.0</ele><time>2026-03-28T10:25:27.975Z</time></trkpt><trkpt lat="45.816411253656355" lon="9.740038226027085"><ele>486.0</ele><time>2026-03-28T10:25:28.975Z</time></trkpt><trkpt lat="45.816238003516716" lon="9.74004482088957"><ele>486.0</ele><time>2026-03-28T10:25:29.975Z</time></trkpt><trkpt lat="45.81608292362483" lon="9.740060439288802"><ele>486.0</ele><time>2026-03-28T10:25:30.975Z</time></trkpt><trkpt lat="45.81595049073967" lon="9.740143296431812"><ele>486.0</ele><time>2026-03-28T10:25:31.975Z</time></trkpt><trkpt lat="45.81583729199493" lon="9.740261979475353"><ele>486.0</ele><time>2026-03-28T10:25:32.975Z</time></trkpt><trkpt lat="45.815750419711655" lon="9.740416596587323"><ele>486.33333333333337</ele><time>2026-03-28T10:25:33.975Z</time></trkpt><trkpt lat="45.81570418659741" lon="9.74060438199877"><ele>486.6666666666667</ele><time>2026-03-28T10:25:34.975Z</time></trkpt><trkpt lat="45.81569379480751" lon="9.74080331291547"><ele>487.0</ele><time>2026-03-28T10:25:35.975Z</time></trkpt><trkpt lat="45.815703043135805" lon="9.741054876707803"><ele>488.0</ele><time>2026-03-28T10:25:36.975Z</time></trkpt><trkpt lat="45.81574583109153" lon="9.74135739282626"><ele>489.0</ele><time>2026-03-28T10:25:37.975Z</time></trkpt><trkpt lat="45.81575821924105" lon="9.74162488302344"><ele>490.0</ele><time>2026-03-28T10:25:38.975Z</time></trkpt><trkpt lat="45.815745793201025" lon="9.741860384350687"><ele>493.5</ele><time>2026-03-28T10:25:39.975Z</time></trkpt><trkpt lat="45.81571806162384" lon="9.742057851933147"><ele>497.0</ele><time>2026-03-28T10:25:40.975Z</time></trkpt><trkpt lat="45.81567858657211" lon="9.742231894197907"><ele>500.5</ele><time>2026-03-28T10:25:41.975Z</time></trkpt><trkpt lat="45.81561186582665" lon="9.742382212337045"><ele>504.0</ele><time>2026-03-28T10:25:42.975Z</time></trkpt><trkpt lat="45.81552831723908" lon="9.74250639839011"><ele>504.0</ele><time>2026-03-28T10:25:43.975Z</time></trkpt><trkpt lat="45.815389984506545" lon="9.742592082787782"><ele>504.0</ele><time>2026-03-28T10:25:44.975Z</time></trkpt><trkpt lat="45.81524146634226" lon="9.742689487365414"><ele>504.0</ele><time>2026-03-28T10:25:45.975Z</time></trkpt><trkpt lat="45.81507292706662" lon="9.742807864721522"><ele>503.33333333333337</ele><time>2026-03-28T10:25:46.975Z</time></trkpt><trkpt lat="45.81492529110578" lon="9.742952378382155"><ele>502.6666666666667</ele><time>2026-03-28T10:25:47.975Z</time></trkpt><trkpt lat="45.814756223869125" lon="9.74308656816841"><ele>502.0</ele><time>2026-03-28T10:25:48.975Z</time></trkpt><trkpt lat="45.814578518093505" lon="9.743201943983387"><ele>502.0</ele><time>2026-03-28T10:25:49.975Z</time></trkpt><trkpt lat="45.81442331906421" lon="9.743300223973803"><ele>502.0</ele><time>2026-03-28T10:25:50.975Z</time></trkpt><trkpt lat="45.81429092083171" lon="9.743393298022127"><ele>502.0</ele><time>2026-03-28T10:25:51.975Z</time></trkpt><trkpt lat="45.81417555888825" lon="9.743492652866077"><ele>502.5</ele><time>2026-03-28T10:25:52.975Z</time></trkpt><trkpt lat="45.81408784666962" lon="9.743610738384831"><ele>503.0</ele><time>2026-03-28T10:25:53.975Z</time></trkpt><trkpt lat="45.814070793994674" lon="9.74378736481086"><ele>503.5</ele><time>2026-03-28T10:25:54.975Z</time></trkpt><trkpt lat="45.81406470566308" lon="9.743977141068289"><ele>504.0</ele><time>2026-03-28T10:25:55.975Z</time></trkpt><trkpt lat="45.81401612528704" lon="9.744149287039093"><ele>504.0</ele><time>2026-03-28T10:25:56.975Z</time></trkpt><trkpt lat="45.81393155824641" lon="9.744337833632908"><ele>504.0</ele><time>2026-03-28T10:25:57.975Z</time></trkpt><trkpt lat="45.81378428811625" lon="9.744503173480105"><ele>504.0</ele><time>2026-03-28T10:25:58.975Z</time></trkpt><trkpt lat="45.81364519272546" lon="9.744657750671239"><ele>505.75</ele><time>2026-03-28T10:25:59.975Z</time></trkpt><trkpt lat="45.813510475217555" lon="9.744792907727582"><ele>507.5</ele><time>2026-03-28T10:26:00.975Z</time></trkpt><trkpt lat="45.81339425489003" lon="9.744917341095405"><ele>509.25</ele><time>2026-03-28T10:26:01.975Z</time></trkpt><trkpt lat="45.813308745189275" lon="9.74504333393958"><ele>511.0</ele><time>2026-03-28T10:26:02.975Z</time></trkpt><trkpt lat="45.81327005992275" lon="9.74518227477202"><ele>512.75</ele><time>2026-03-28T10:26:03.975Z</time></trkpt><trkpt lat="45.81329396763041" lon="9.745332179112937"><ele>514.5</ele><time>2026-03-28T10:26:04.975Z</time></trkpt><trkpt lat="45.813325559439114" lon="9.745517423463156"><ele>516.25</ele><time>2026-03-28T10:26:05.975Z</time></trkpt><trkpt lat="45.813291015845124" lon="9.745687147040263"><ele>518.0</ele><time>2026-03-28T10:26:06.975Z</time></trkpt><trkpt lat="45.813211518692945" lon="9.745778613888579"><ele>518.0</ele><time>2026-03-28T10:26:07.975Z</time></trkpt><trkpt lat="45.81309161899772" lon="9.74584727325399"><ele>518.0</ele><time>2026-03-28T10:26:08.975Z</time></trkpt><trkpt lat="45.81294497267484" lon="9.745876647992734"><ele>518.0</ele><time>2026-03-28T10:26:09.975Z</time></trkpt><trkpt lat="45.81278434557765" lon="9.745922026574597"><ele>518.0</ele><time>2026-03-28T10:26:10.975Z</time></trkpt><trkpt lat="45.812626139712606" lon="9.74601748436771"><ele>523.0</ele><time>2026-03-28T10:26:11.975Z</time></trkpt><trkpt lat="45.81248507059366" lon="9.746151238302525"><ele>528.0</ele><time>2026-03-28T10:26:12.975Z</time></trkpt><trkpt lat="45.81233281897808" lon="9.746247227333793"><ele>533.0</ele><time>2026-03-28T10:26:13.975Z</time></trkpt><trkpt lat="45.812137257411564" lon="9.746286766384102"><ele>533.0</ele><time>2026-03-28T10:26:14.975Z</time></trkpt><trkpt lat="45.81192539856679" lon="9.746318689749993"><ele>533.0</ele><time>2026-03-28T10:26:15.975Z</time></trkpt><trkpt lat="45.811713927937554" lon="9.746385946816465"><ele>533.0</ele><time>2026-03-28T10:26:16.975Z</time></trkpt><trkpt lat="45.81150408113307" lon="9.746464943386583"><ele>532.0</ele><time>2026-03-28T10:26:17.975Z</time></trkpt><trkpt lat="45.81131113369852" lon="9.746550274234338"><ele>531.0</ele><time>2026-03-28T10:26:18.975Z</time></trkpt><trkpt lat="45.81112861850749" lon="9.746599470966421"><ele>530.0</ele><time>2026-03-28T10:26:19.975Z</time></trkpt><trkpt lat="45.81095561451918" lon="9.746640061053162"><ele>530.0</ele><time>2026-03-28T10:26:20.975Z</time></trkpt><trkpt lat="45.8107855476752" lon="9.74667256894439"><ele>530.0</ele><time>2026-03-28T10:26:21.974Z</time></trkpt><trkpt lat="45.810633469148385" lon="9.746687607186603"><ele>530.0</ele><time>2026-03-28T10:26:22.973Z</time></trkpt><trkpt lat="45.81048969944997" lon="9.746679519888486"><ele>530.0</ele><time>2026-03-28T10:26:23.973Z</time></trkpt><trkpt lat="45.810349881953385" lon="9.74668451999913"><ele>530.0</ele><time>2026-03-28T10:26:24.974Z</time></trkpt><trkpt lat="45.810225104661264" lon="9.746720830223186"><ele>530.0</ele><time>2026-03-28T10:26:25.974Z</time></trkpt><trkpt lat="45.81010520454351" lon="9.7467945040418"><ele>530.0</ele><time>2026-03-28T10:26:26.974Z</time></trkpt><trkpt lat="45.80998431468817" lon="9.746854316452906"><ele>539.0</ele><time>2026-03-28T10:26:27.974Z</time></trkpt><trkpt lat="45.80986823229089" lon="9.746899652826176"><ele>548.0</ele><time>2026-03-28T10:26:28.974Z</time></trkpt><trkpt lat="45.80971758208184" lon="9.746919089106614"><ele>557.0</ele><time>2026-03-28T10:26:29.974Z</time></trkpt><trkpt lat="45.80953950561985" lon="9.746942562407785"><ele>557.0</ele><time>2026-03-28T10:26:30.974Z</time></trkpt><trkpt lat="45.80933422437071" lon="9.746994074681512"><ele>557.0</ele><time>2026-03-28T10:26:31.974Z</time></trkpt><trkpt lat="45.809135005565764" lon="9.747055841925988"><ele>557.0</ele><time>2026-03-28T10:26:32.974Z</time></trkpt><trkpt lat="45.80895014525711" lon="9.747080905427719"><ele>556.3333333333333</ele><time>2026-03-28T10:26:33.973Z</time></trkpt><trkpt lat="45.80876052819134" lon="9.747081714165034"><ele>555.6666666666666</ele><time>2026-03-28T10:26:34.974Z</time></trkpt><trkpt lat="45.8085851225119" lon="9.74709301886821"><ele>555.0</ele><time>2026-03-28T10:26:35.974Z</time></trkpt><trkpt lat="45.80843378769451" lon="9.747116505351135"><ele>555.0</ele><time>2026-03-28T10:26:36.974Z</time></trkpt><trkpt lat="45.80829677567267" lon="9.747158507960506"><ele>555.0</ele><time>2026-03-28T10:26:37.974Z</time></trkpt><trkpt lat="45.80817563295532" lon="9.747205293482613"><ele>555.0</ele><time>2026-03-28T10:26:38.974Z</time></trkpt><trkpt lat="45.80805579665003" lon="9.747206462408355"><ele>555.0</ele><time>2026-03-28T10:26:39.974Z</time></trkpt><trkpt lat="45.807939869505574" lon="9.747128118370528"><ele>555.0</ele><time>2026-03-28T10:26:40.974Z</time></trkpt><trkpt lat="45.807819896117735" lon="9.746988465919483"><ele>555.0</ele><time>2026-03-28T10:26:41.974Z</time></trkpt><trkpt lat="45.80771038833654" lon="9.74685180781859"><ele>555.0</ele><time>2026-03-28T10:26:42.974Z</time></trkpt><trkpt lat="45.807603571981154" lon="9.746790810605797"><ele>555.0</ele><time>2026-03-28T10:26:43.974Z</time></trkpt><trkpt lat="45.807466644709194" lon="9.746774694742387"><ele>557.0</ele><time>2026-03-28T10:26:44.974Z</time></trkpt><trkpt lat="45.80732236328616" lon="9.746816045183667"><ele>559.0</ele><time>2026-03-28T10:26:45.974Z</time></trkpt><trkpt lat="45.80716825799107" lon="9.7468986160271"><ele>561.0</ele><time>2026-03-28T10:26:46.974Z</time></trkpt><trkpt lat="45.806989637018745" lon="9.747001477478278"><ele>561.0</ele><time>2026-03-28T10:26:47.974Z</time></trkpt><trkpt lat="45.80683150449852" lon="9.74702540105818"><ele>561.0</ele><time>2026-03-28T10:26:48.974Z</time></trkpt><trkpt lat="45.80668304126614" lon="9.747008490398688"><ele>561.0</ele><time>2026-03-28T10:26:49.974Z</time></trkpt><trkpt lat="45.80652461229501" lon="9.746922560178202"><ele>564.0</ele><time>2026-03-28T10:26:50.974Z</time></trkpt><trkpt lat="45.8063479825485" lon="9.746881744632164"><ele>567.0</ele><time>2026-03-28T10:26:51.974Z</time></trkpt><trkpt lat="45.80616570284488" lon="9.74693242852925"><ele>570.0</ele><time>2026-03-28T10:26:52.974Z</time></trkpt><trkpt lat="45.805997542778535" lon="9.746964593045496"><ele>573.25</ele><time>2026-03-28T10:26:53.974Z</time></trkpt><trkpt lat="45.80586140957491" lon="9.746964780721225"><ele>576.5</ele><time>2026-03-28T10:26:54.974Z</time></trkpt><trkpt lat="45.80574664019682" lon="9.746919454184471"><ele>579.75</ele><time>2026-03-28T10:26:55.974Z</time></trkpt><trkpt lat="45.80565665246285" lon="9.746830437529322"><ele>583.0</ele><time>2026-03-28T10:26:56.974Z</time></trkpt><trkpt lat="45.80561466315422" lon="9.746708676776077"><ele>577.8</ele><time>2026-03-28T10:26:57.974Z</time></trkpt><trkpt lat="45.80560591423896" lon="9.74658713094582"><ele>572.5999999999999</ele><time>2026-03-28T10:26:58.974Z</time></trkpt><trkpt lat="45.8055839721149" lon="9.74646048784581"><ele>567.4000000000001</ele><time>2026-03-28T10:26:59.974Z</time></trkpt><trkpt lat="45.8055232428019" lon="9.746359351258404"><ele>562.2</ele><time>2026-03-28T10:27:00.974Z</time></trkpt><trkpt lat="45.80541151412997" lon="9.746317727594056"><ele>557.0</ele><time>2026-03-28T10:27:01.974Z</time></trkpt><trkpt lat="45.805273955681855" lon="9.74629526229589"><ele>558.5</ele><time>2026-03-28T10:27:02.974Z</time></trkpt><trkpt lat="45.80513423511455" lon="9.746277253563417"><ele>560.0</ele><time>2026-03-28T10:27:03.974Z</time></trkpt><trkpt lat="45.805012955734824" lon="9.746240384399206"><ele>561.5</ele><time>2026-03-28T10:27:04.974Z</time></trkpt><trkpt lat="45.80490991874736" lon="9.746178584993432"><ele>563.0</ele><time>2026-03-28T10:27:05.974Z</time></trkpt><trkpt lat="45.80481811782698" lon="9.746088244906062"><ele>564.0</ele><time>2026-03-28T10:27:06.974Z</time></trkpt><trkpt lat="45.80474537427677" lon="9.745875216787457"><ele>565.0</ele><time>2026-03-28T10:27:07.974Z</time></trkpt><trkpt lat="45.80470926117131" lon="9.745645629373286"><ele>566.0</ele><time>2026-03-28T10:27:08.974Z</time></trkpt><trkpt lat="45.80469167391139" lon="9.745442549307285"><ele>566.0</ele><time>2026-03-28T10:27:09.974Z</time></trkpt><trkpt lat="45.8046238767984" lon="9.745268197062671"><ele>566.0</ele><time>2026-03-28T10:27:10.974Z</time></trkpt><trkpt lat="45.804528857792114" lon="9.745115402206991"><ele>566.0</ele><time>2026-03-28T10:27:11.974Z</time></trkpt><trkpt lat="45.80446513151127" lon="9.744931311965003"><ele>566.0</ele><time>2026-03-28T10:27:12.974Z</time></trkpt><trkpt lat="45.804432313231466" lon="9.744724780757359"><ele>569.75</ele><time>2026-03-28T10:27:13.974Z</time></trkpt><trkpt lat="45.804408303072115" lon="9.744494966488098"><ele>573.5</ele><time>2026-03-28T10:27:14.974Z</time></trkpt><trkpt lat="45.804389436060646" lon="9.744296425263654"><ele>577.25</ele><time>2026-03-28T10:27:15.974Z</time></trkpt><trkpt lat="45.80436949767127" lon="9.744113707290593"><ele>581.0</ele><time>2026-03-28T10:27:16.974Z</time></trkpt><trkpt lat="45.804332430360525" lon="9.743943809975562"><ele>582.75</ele><time>2026-03-28T10:27:17.974Z</time></trkpt><trkpt lat="45.80426992096656" lon="9.74379381758769"><ele>584.5</ele><time>2026-03-28T10:27:18.974Z</time></trkpt><trkpt lat="45.80417827798458" lon="9.743663666681577"><ele>586.25</ele><time>2026-03-28T10:27:19.974Z</time></trkpt><trkpt lat="45.80405155433013" lon="9.743548843520692"><ele>588.0</ele><time>2026-03-28T10:27:20.974Z</time></trkpt><trkpt lat="45.80396106983602" lon="9.74345776345317"><ele>588.0</ele><time>2026-03-28T10:27:21.974Z</time></trkpt><trkpt lat="45.80387151489586" lon="9.743436608017205"><ele>588.0</ele><time>2026-03-28T10:27:22.974Z</time></trkpt><trkpt lat="45.80379993646312" lon="9.743514481233412"><ele>588.0</ele><time>2026-03-28T10:27:23.974Z</time></trkpt><trkpt lat="45.803713684189056" lon="9.743685617173627"><ele>588.0</ele><time>2026-03-28T10:27:24.974Z</time></trkpt><trkpt lat="45.80364792800468" lon="9.743868490654755"><ele>585.4</ele><time>2026-03-28T10:27:25.974Z</time></trkpt><trkpt lat="45.8036055775793" lon="9.744039394334388"><ele>582.8</ele><time>2026-03-28T10:27:26.974Z</time></trkpt><trkpt lat="45.80356153194524" lon="9.744142825808519"><ele>580.2</ele><time>2026-03-28T10:27:27.974Z</time></trkpt><trkpt lat="45.80350230280735" lon="9.744208868456145"><ele>577.6</ele><time>2026-03-28T10:27:28.974Z</time></trkpt><trkpt lat="45.803386142737196" lon="9.744232815989482"><ele>575.0</ele><time>2026-03-28T10:27:29.974Z</time></trkpt><trkpt lat="45.80325067319431" lon="9.744218750911918"><ele>575.0</ele><time>2026-03-28T10:27:30.974Z</time></trkpt><trkpt lat="45.80313598322658" lon="9.74420471959226"><ele>575.0</ele><time>2026-03-28T10:27:31.974Z</time></trkpt><trkpt lat="45.803048868790945" lon="9.744208904978063"><ele>575.0</ele><time>2026-03-28T10:27:32.974Z</time></trkpt><trkpt lat="45.80295106376086" lon="9.74427306362308"><ele>575.0</ele><time>2026-03-28T10:27:33.974Z</time></trkpt><trkpt lat="45.802804855474236" lon="9.744375277230514"><ele>580.3333333333333</ele><time>2026-03-28T10:27:34.974Z</time></trkpt><trkpt lat="45.802611561693475" lon="9.744412761759872"><ele>585.6666666666666</ele><time>2026-03-28T10:27:35.974Z</time></trkpt><trkpt lat="45.8024251983248" lon="9.744423214796813"><ele>591.0</ele><time>2026-03-28T10:27:36.974Z</time></trkpt><trkpt lat="45.80224383149397" lon="9.744422175997313"><ele>591.0</ele><time>2026-03-28T10:27:37.974Z</time></trkpt><trkpt lat="45.80208127186584" lon="9.744427408775739"><ele>591.0</ele><time>2026-03-28T10:27:38.974Z</time></trkpt><trkpt lat="45.8019315961961" lon="9.744440743542205"><ele>591.0</ele><time>2026-03-28T10:27:39.974Z</time></trkpt><trkpt lat="45.80178579925867" lon="9.744454997196332"><ele>591.75</ele><time>2026-03-28T10:27:40.974Z</time></trkpt><trkpt lat="45.8016442129532" lon="9.744449089837918"><ele>592.5</ele><time>2026-03-28T10:27:41.974Z</time></trkpt><trkpt lat="45.801506650202136" lon="9.744426593545615"><ele>593.25</ele><time>2026-03-28T10:27:42.974Z</time></trkpt><trkpt lat="45.80137190230139" lon="9.744355738074962"><ele>594.0</ele><time>2026-03-28T10:27:43.974Z</time></trkpt><trkpt lat="45.801234008761895" lon="9.744237392538516"><ele>588.6666666666666</ele><time>2026-03-28T10:27:44.974Z</time></trkpt><trkpt lat="45.80109330868113" lon="9.744173979052373"><ele>583.3333333333333</ele><time>2026-03-28T10:27:45.974Z</time></trkpt><trkpt lat="45.800944206196895" lon="9.74416668781947"><ele>578.0</ele><time>2026-03-28T10:27:46.974Z</time></trkpt><trkpt lat="45.80078011141675" lon="9.744214664144778"><ele>578.0</ele><time>2026-03-28T10:27:47.974Z</time></trkpt><trkpt lat="45.8006171216881" lon="9.744323154839611"><ele>578.0</ele><time>2026-03-28T10:27:48.974Z</time></trkpt><trkpt lat="45.80045786016198" lon="9.744433008194314"><ele>578.0</ele><time>2026-03-28T10:27:49.974Z</time></trkpt><trkpt lat="45.80027541796118" lon="9.744478318074034"><ele>579.6666666666666</ele><time>2026-03-28T10:27:50.974Z</time></trkpt><trkpt lat="45.800058314743005" lon="9.744438194900384"><ele>581.3333333333334</ele><time>2026-03-28T10:27:51.974Z</time></trkpt><trkpt lat="45.79987154886513" lon="9.744390902895097"><ele>583.0</ele><time>2026-03-28T10:27:52.974Z</time></trkpt><trkpt lat="45.79969749597648" lon="9.744370279377005"><ele>583.0</ele><time>2026-03-28T10:27:53.974Z</time></trkpt><trkpt lat="45.799539199257495" lon="9.744354943432011"><ele>583.0</ele><time>2026-03-28T10:27:54.974Z</time></trkpt><trkpt lat="45.799395867849114" lon="9.744328344348121"><ele>583.0</ele><time>2026-03-28T10:27:55.974Z</time></trkpt><trkpt lat="45.79924447094143" lon="9.744260007722817"><ele>584.0</ele><time>2026-03-28T10:27:56.974Z</time></trkpt><trkpt lat="45.799104374870346" lon="9.744111350502395"><ele>585.0</ele><time>2026-03-28T10:27:57.974Z</time></trkpt><trkpt lat="45.79899048952069" lon="9.743945910648588"><ele>586.0</ele><time>2026-03-28T10:27:58.974Z</time></trkpt><trkpt lat="45.79888867257806" lon="9.743852388069753"><ele>586.0</ele><time>2026-03-28T10:27:59.974Z</time></trkpt><trkpt lat="45.7988116181417" lon="9.74383684325637"><ele>586.0</ele><time>2026-03-28T10:28:00.974Z</time></trkpt><trkpt lat="45.79874709999072" lon="9.743874424308364"><ele>586.0</ele><time>2026-03-28T10:28:01.974Z</time></trkpt><trkpt lat="45.798659792081" lon="9.743972979990465"><ele>586.0</ele><time>2026-03-28T10:28:02.974Z</time></trkpt><trkpt lat="45.798564946033125" lon="9.744150909910001"><ele>586.0</ele><time>2026-03-28T10:28:03.974Z</time></trkpt><trkpt lat="45.79848495102748" lon="9.74435346068221"><ele>590.3333333333334</ele><time>2026-03-28T10:28:04.974Z</time></trkpt><trkpt lat="45.798478329935605" lon="9.744596927498575"><ele>594.6666666666666</ele><time>2026-03-28T10:28:05.974Z</time></trkpt><trkpt lat="45.79850469052591" lon="9.744776562316922"><ele>599.0</ele><time>2026-03-28T10:28:06.975Z</time></trkpt><trkpt lat="45.79855149747685" lon="9.745078709563339"><ele>602.0</ele><time>2026-03-28T10:28:07.975Z</time></trkpt><trkpt lat="45.79852354357565" lon="9.745342207937645"><ele>605.0</ele><time>2026-03-28T10:28:08.975Z</time></trkpt><trkpt lat="45.7984769790578" lon="9.74554025130472"><ele>608.0</ele><time>2026-03-28T10:28:09.975Z</time></trkpt><trkpt lat="45.79844118277844" lon="9.74567770738274"><ele>611.0</ele><time>2026-03-28T10:28:10.975Z</time></trkpt><trkpt lat="45.798435073294485" lon="9.74580889727623"><ele>611.0</ele><time>2026-03-28T10:28:11.975Z</time></trkpt><trkpt lat="45.79847460576466" lon="9.745885075262228"><ele>611.0</ele><time>2026-03-28T10:28:12.975Z</time></trkpt><trkpt lat="45.798556482386374" lon="9.745948866986733"><ele>611.0</ele><time>2026-03-28T10:28:13.975Z</time></trkpt><trkpt lat="45.79864859151453" lon="9.745963506714466"><ele>611.0</ele><time>2026-03-28T10:28:14.975Z</time></trkpt><trkpt lat="45.79872989319062" lon="9.745906775321712"><ele>611.0</ele><time>2026-03-28T10:28:15.975Z</time></trkpt><trkpt lat="45.79877335189025" lon="9.745739255405592"><ele>612.25</ele><time>2026-03-28T10:28:16.975Z</time></trkpt><trkpt lat="45.79878948550959" lon="9.745548151045448"><ele>613.5</ele><time>2026-03-28T10:28:17.975Z</time></trkpt><trkpt lat="45.79880800189361" lon="9.745371307925689"><ele>614.75</ele><time>2026-03-28T10:28:18.975Z</time></trkpt><trkpt lat="45.79885043468694" lon="9.745237230613041"><ele>616.0</ele><time>2026-03-28T10:28:19.975Z</time></trkpt><trkpt lat="45.798919641108704" lon="9.745158466409714"><ele>616.0</ele><time>2026-03-28T10:28:20.975Z</time></trkpt><trkpt lat="45.799011265183786" lon="9.745169861701406"><ele>616.0</ele><time>2026-03-28T10:28:21.975Z</time></trkpt><trkpt lat="45.79911443127085" lon="9.745213678957965"><ele>616.0</ele><time>2026-03-28T10:28:22.975Z</time></trkpt><trkpt lat="45.799261820292244" lon="9.745284456151248"><ele>616.0</ele><time>2026-03-28T10:28:23.975Z</time></trkpt><trkpt lat="45.799386719951045" lon="9.745354745551692"><ele>617.2</ele><time>2026-03-28T10:28:24.975Z</time></trkpt><trkpt lat="45.79949917797208" lon="9.74540927313925"><ele>618.4000000000001</ele><time>2026-03-28T10:28:25.975Z</time></trkpt><trkpt lat="45.79960290427518" lon="9.745465425464682"><ele>619.6</ele><time>2026-03-28T10:28:26.975Z</time></trkpt><trkpt lat="45.79969419668095" lon="9.745517541477767"><ele>620.8000000000001</ele><time>2026-03-28T10:28:27.974Z</time></trkpt><trkpt lat="45.799768460136676" lon="9.745557156748257"><ele>622.0</ele><time>2026-03-28T10:28:28.974Z</time></trkpt><trkpt lat="45.79982553174986" lon="9.74568672977663"><ele>622.0</ele><time>2026-03-28T10:28:30.973Z</time></trkpt><trkpt lat="45.799775535853" lon="9.745792609843813"><ele>622.0</ele><time>2026-03-28T10:28:31.974Z</time></trkpt><trkpt lat="45.799681046892225" lon="9.745842842900805"><ele>622.0</ele><time>2026-03-28T10:28:32.974Z</time></trkpt><trkpt lat="45.79954575672476" lon="9.745814352626347"><ele>622.0</ele><time>2026-03-28T10:28:33.974Z</time></trkpt><trkpt lat="45.79942293093346" lon="9.745736978284844"><ele>620.8000000000001</ele><time>2026-03-28T10:28:34.974Z</time></trkpt><trkpt lat="45.79932423634366" lon="9.745675014707945"><ele>619.6</ele><time>2026-03-28T10:28:35.974Z</time></trkpt><trkpt lat="45.799238570278725" lon="9.745663926227882"><ele>618.4000000000001</ele><time>2026-03-28T10:28:36.974Z</time></trkpt><trkpt lat="45.799157946285774" lon="9.745729157966691"><ele>617.2</ele><time>2026-03-28T10:28:37.974Z</time></trkpt><trkpt lat="45.79910530415171" lon="9.745843823048775"><ele>616.0</ele><time>2026-03-28T10:28:38.974Z</time></trkpt><trkpt lat="45.799095300835994" lon="9.746040497544817"><ele>617.5</ele><time>2026-03-28T10:28:39.973Z</time></trkpt><trkpt lat="45.79910223134412" lon="9.74623604703435"><ele>619.0</ele><time>2026-03-28T10:28:40.974Z</time></trkpt><trkpt lat="45.799154139092145" lon="9.746410446265106"><ele>620.5</ele><time>2026-03-28T10:28:41.974Z</time></trkpt><trkpt lat="45.7992368500353" lon="9.746543649052606"><ele>622.0</ele><time>2026-03-28T10:28:42.974Z</time></trkpt><trkpt lat="45.79931010022959" lon="9.746633856825591"><ele>626.25</ele><time>2026-03-28T10:28:43.974Z</time></trkpt><trkpt lat="45.79938538271199" lon="9.746672186889977"><ele>630.5</ele><time>2026-03-28T10:28:44.974Z</time></trkpt><trkpt lat="45.79949850307656" lon="9.74662347533265"><ele>634.75</ele><time>2026-03-28T10:28:45.974Z</time></trkpt><trkpt lat="45.79963884358444" lon="9.746535346738172"><ele>639.0</ele><time>2026-03-28T10:28:46.974Z</time></trkpt><trkpt lat="45.799772791378764" lon="9.746437434794345"><ele>639.0</ele><time>2026-03-28T10:28:47.974Z</time></trkpt><trkpt lat="45.799923155776824" lon="9.74637006801463"><ele>639.0</ele><time>2026-03-28T10:28:48.974Z</time></trkpt><trkpt lat="45.800079416044234" lon="9.746336655124448"><ele>639.0</ele><time>2026-03-28T10:28:49.974Z</time></trkpt><trkpt lat="45.80024370303258" lon="9.746324845224214"><ele>641.0</ele><time>2026-03-28T10:28:50.974Z</time></trkpt><trkpt lat="45.80041395005526" lon="9.746327695099097"><ele>643.0</ele><time>2026-03-28T10:28:51.974Z</time></trkpt><trkpt lat="45.80058083478946" lon="9.746354860636153"><ele>645.0</ele><time>2026-03-28T10:28:52.974Z</time></trkpt><trkpt lat="45.80072925497517" lon="9.746377552759624"><ele>645.0</ele><time>2026-03-28T10:28:53.974Z</time></trkpt><trkpt lat="45.800858818122116" lon="9.746414892372254"><ele>645.0</ele><time>2026-03-28T10:28:54.974Z</time></trkpt><trkpt lat="45.80098174561181" lon="9.746466459980986"><ele>645.0</ele><time>2026-03-28T10:28:55.974Z</time></trkpt><trkpt lat="45.80108000760489" lon="9.746535071599626"><ele>645.0</ele><time>2026-03-28T10:28:56.974Z</time></trkpt><trkpt lat="45.80113687502064" lon="9.746635030744748"><ele>646.0</ele><time>2026-03-28T10:28:57.974Z</time></trkpt><trkpt lat="45.801152011617084" lon="9.746759848182084"><ele>647.0</ele><time>2026-03-28T10:28:58.974Z</time></trkpt><trkpt lat="45.80112374056669" lon="9.746902337070816"><ele>648.0</ele><time>2026-03-28T10:28:59.974Z</time></trkpt><trkpt lat="45.8010655336359" lon="9.747075500061715"><ele>649.0</ele><time>2026-03-28T10:29:00.974Z</time></trkpt><trkpt lat="45.80097925072098" lon="9.747265465603544"><ele>649.0</ele><time>2026-03-28T10:29:01.974Z</time></trkpt><trkpt lat="45.80085930378545" lon="9.747414926222909"><ele>649.0</ele><time>2026-03-28T10:29:02.974Z</time></trkpt><trkpt lat="45.80073325250385" lon="9.747491898657012"><ele>649.0</ele><time>2026-03-28T10:29:03.974Z</time></trkpt><trkpt lat="45.800603840460326" lon="9.74756900571335"><ele>649.0</ele><time>2026-03-28T10:29:04.974Z</time></trkpt><trkpt lat="45.800510438793246" lon="9.747693861327418"><ele>650.0</ele><time>2026-03-28T10:29:05.974Z</time></trkpt><trkpt lat="45.80044651842391" lon="9.74784257871606"><ele>651.0</ele><time>2026-03-28T10:29:06.974Z</time></trkpt><trkpt lat="45.800400340151356" lon="9.748035885073364"><ele>652.0</ele><time>2026-03-28T10:29:07.974Z</time></trkpt><trkpt lat="45.80038404334212" lon="9.748278130226677"><ele>653.0</ele><time>2026-03-28T10:29:08.974Z</time></trkpt><trkpt lat="45.80037386597032" lon="9.748495607288085"><ele>655.0</ele><time>2026-03-28T10:29:09.974Z</time></trkpt><trkpt lat="45.80035836278614" lon="9.748680627871945"><ele>657.0</ele><time>2026-03-28T10:29:10.974Z</time></trkpt><trkpt lat="45.80034352086355" lon="9.748837634620472"><ele>659.0</ele><time>2026-03-28T10:29:11.974Z</time></trkpt><trkpt lat="45.80033137718082" lon="9.748943638621634"><ele>661.0</ele><time>2026-03-28T10:29:12.974Z</time></trkpt><trkpt lat="45.80031717523077" lon="9.749062661511786"><ele>663.0</ele><time>2026-03-28T10:29:26.974Z</time></trkpt><trkpt lat="45.800298525426015" lon="9.749160271159656"><ele>663.0</ele><time>2026-03-28T10:29:27.974Z</time></trkpt><trkpt lat="45.800286088015355" lon="9.749307268949071"><ele>663.0</ele><time>2026-03-28T10:29:28.974Z</time></trkpt><trkpt lat="45.80027522955614" lon="9.749465386205232"><ele>663.0</ele><time>2026-03-28T10:29:29.974Z</time></trkpt><trkpt lat="45.800257379723575" lon="9.74963552062938"><ele>663.0</ele><time>2026-03-28T10:29:30.974Z</time></trkpt><trkpt lat="45.800237207890774" lon="9.749815145634228"><ele>664.25</ele><time>2026-03-28T10:29:31.974Z</time></trkpt><trkpt lat="45.80021605321884" lon="9.750023916188434"><ele>665.5</ele><time>2026-03-28T10:29:32.974Z</time></trkpt><trkpt lat="45.80020089919102" lon="9.750233848007623"><ele>666.75</ele><time>2026-03-28T10:29:33.974Z</time></trkpt><trkpt lat="45.80020046223166" lon="9.75041398660824"><ele>668.0</ele><time>2026-03-28T10:29:34.974Z</time></trkpt><trkpt lat="45.800239496870425" lon="9.750579986874817"><ele>668.75</ele><time>2026-03-28T10:29:35.974Z</time></trkpt><trkpt lat="45.80031231592087" lon="9.750730342410385"><ele>669.5</ele><time>2026-03-28T10:29:36.974Z</time></trkpt><trkpt lat="45.80043183501553" lon="9.750832498495862"><ele>670.25</ele><time>2026-03-28T10:29:37.974Z</time></trkpt><trkpt lat="45.80057161650384" lon="9.75086269878024"><ele>671.0</ele><time>2026-03-28T10:29:38.974Z</time></trkpt><trkpt lat="45.800747348720456" lon="9.750843635124102"><ele>671.0</ele><time>2026-03-28T10:29:39.974Z</time></trkpt><trkpt lat="45.800918382484056" lon="9.7508206149"><ele>671.0</ele><time>2026-03-28T10:29:40.974Z</time></trkpt><trkpt lat="45.80108531072649" lon="9.750798378303747"><ele>671.0</ele><time>2026-03-28T10:29:41.974Z</time></trkpt><trkpt lat="45.80123224553041" lon="9.750785196965133"><ele>673.75</ele><time>2026-03-28T10:29:42.974Z</time></trkpt><trkpt lat="45.801360745981654" lon="9.750777172097477"><ele>676.5</ele><time>2026-03-28T10:29:43.974Z</time></trkpt><trkpt lat="45.8014706711567" lon="9.750795916424796"><ele>679.25</ele><time>2026-03-28T10:29:44.974Z</time></trkpt><trkpt lat="45.801561298024716" lon="9.750842943924836"><ele>682.0</ele><time>2026-03-28T10:29:45.974Z</time></trkpt><trkpt lat="45.80165158391149" lon="9.750951323071869"><ele>682.75</ele><time>2026-03-28T10:29:46.974Z</time></trkpt><trkpt lat="45.80173107881151" lon="9.751095810278631"><ele>683.5</ele><time>2026-03-28T10:29:47.974Z</time></trkpt><trkpt lat="45.80180677458875" lon="9.751256719077164"><ele>684.25</ele><time>2026-03-28T10:29:48.974Z</time></trkpt><trkpt lat="45.80187200073209" lon="9.751433578613229"><ele>685.0</ele><time>2026-03-28T10:29:49.974Z</time></trkpt><trkpt lat="45.801915603166925" lon="9.751626899025304"><ele>692.3333333333334</ele><time>2026-03-28T10:29:50.974Z</time></trkpt><trkpt lat="45.80194239629021" lon="9.751853252587269"><ele>699.6666666666666</ele><time>2026-03-28T10:29:51.974Z</time></trkpt><trkpt lat="45.80193516111008" lon="9.752077176209344"><ele>707.0</ele><time>2026-03-28T10:29:52.974Z</time></trkpt><trkpt lat="45.80192923636149" lon="9.75230207893992"><ele>707.6666666666666</ele><time>2026-03-28T10:29:53.974Z</time></trkpt><trkpt lat="45.801928759252704" lon="9.752540249488511"><ele>708.3333333333334</ele><time>2026-03-28T10:29:54.974Z</time></trkpt><trkpt lat="45.801926990335886" lon="9.752779926059882"><ele>709.0</ele><time>2026-03-28T10:29:55.974Z</time></trkpt><trkpt lat="45.80192346327733" lon="9.753014017671134"><ele>709.0</ele><time>2026-03-28T10:29:56.974Z</time></trkpt><trkpt lat="45.80192420608216" lon="9.753257754007091"><ele>709.0</ele><time>2026-03-28T10:29:57.974Z</time></trkpt><trkpt lat="45.80192449930064" lon="9.753472094763183"><ele>709.0</ele><time>2026-03-28T10:29:58.974Z</time></trkpt><trkpt lat="45.80192421690291" lon="9.753699643534814"><ele>709.6666666666667</ele><time>2026-03-28T10:29:59.974Z</time></trkpt><trkpt lat="45.801933588156174" lon="9.753926325826223"><ele>710.3333333333334</ele><time>2026-03-28T10:30:00.974Z</time></trkpt><trkpt lat="45.80196867332916" lon="9.754132328917628"><ele>711.0</ele><time>2026-03-28T10:30:01.974Z</time></trkpt><trkpt lat="45.801995925331376" lon="9.754337977163695"><ele>713.3333333333334</ele><time>2026-03-28T10:30:02.974Z</time></trkpt><trkpt lat="45.80198156039465" lon="9.754569087942036"><ele>715.6666666666667</ele><time>2026-03-28T10:30:03.974Z</time></trkpt><trkpt lat="45.801929590212836" lon="9.754859685074795"><ele>718.0</ele><time>2026-03-28T10:30:04.974Z</time></trkpt><trkpt lat="45.801848326680066" lon="9.755149512448732"><ele>711.0</ele><time>2026-03-28T10:30:05.974Z</time></trkpt><trkpt lat="45.801777516991315" lon="9.755467148930173"><ele>704.0</ele><time>2026-03-28T10:30:06.974Z</time></trkpt><trkpt lat="45.801694183653346" lon="9.755781888227833"><ele>712.0</ele><time>2026-03-28T10:30:07.974Z</time></trkpt><trkpt lat="45.801579776761564" lon="9.756077154449631"><ele>720.0</ele><time>2026-03-28T10:30:08.974Z</time></trkpt><trkpt lat="45.80147151355614" lon="9.756382233707088"><ele>720.0</ele><time>2026-03-28T10:30:09.974Z</time></trkpt><trkpt lat="45.80135604429225" lon="9.756663082084438"><ele>720.0</ele><time>2026-03-28T10:30:10.974Z</time></trkpt><trkpt lat="45.801251598065505" lon="9.756915927686101"><ele>720.0</ele><time>2026-03-28T10:30:11.974Z</time></trkpt><trkpt lat="45.80114753461752" lon="9.757156058022453"><ele>717.0</ele><time>2026-03-28T10:30:12.974Z</time></trkpt><trkpt lat="45.801031603108115" lon="9.757384660254369"><ele>714.0</ele><time>2026-03-28T10:30:13.974Z</time></trkpt><trkpt lat="45.80090769249855" lon="9.757615911777549"><ele>711.0</ele><time>2026-03-28T10:30:14.974Z</time></trkpt><trkpt lat="45.80076221682557" lon="9.757852704186703"><ele>719.0</ele><time>2026-03-28T10:30:15.974Z</time></trkpt><trkpt lat="45.8006037538917" lon="9.75806211548617"><ele>727.0</ele><time>2026-03-28T10:30:16.974Z</time></trkpt><trkpt lat="45.80045655414808" lon="9.7582473701703"><ele>735.0</ele><time>2026-03-28T10:30:17.974Z</time></trkpt><trkpt lat="45.80030908662461" lon="9.758406661085456"><ele>736.6666666666666</ele><time>2026-03-28T10:30:18.974Z</time></trkpt><trkpt lat="45.80014649028613" lon="9.758561099725384"><ele>738.3333333333333</ele><time>2026-03-28T10:30:19.974Z</time></trkpt><trkpt lat="45.79996186639255" lon="9.758681066552857"><ele>740.0</ele><time>2026-03-28T10:30:20.974Z</time></trkpt><trkpt lat="45.799765278369456" lon="9.758768981388073"><ele>740.0</ele><time>2026-03-28T10:30:21.974Z</time></trkpt><trkpt lat="45.79958791285582" lon="9.758880137117345"><ele>740.0</ele><time>2026-03-28T10:30:22.974Z</time></trkpt><trkpt lat="45.79941683404779" lon="9.758969761905844"><ele>740.0</ele><time>2026-03-28T10:30:23.974Z</time></trkpt><trkpt lat="45.79925966053212" lon="9.759069325441427"><ele>738.0</ele><time>2026-03-28T10:30:24.974Z</time></trkpt><trkpt lat="45.79914172403329" lon="9.759167004050616"><ele>736.0</ele><time>2026-03-28T10:30:25.974Z</time></trkpt><trkpt lat="45.79906206852837" lon="9.759241614441182"><ele>734.0</ele><time>2026-03-28T10:30:26.974Z</time></trkpt><trkpt lat="45.79899623684758" lon="9.759258845669352"><ele>732.0</ele><time>2026-03-28T10:30:27.974Z</time></trkpt><trkpt lat="45.79892283759288" lon="9.759249844095168"><ele>730.0</ele><time>2026-03-28T10:30:28.974Z</time></trkpt><trkpt lat="45.798830127236485" lon="9.759142386915038"><ele>730.0</ele><time>2026-03-28T10:30:29.974Z</time></trkpt><trkpt lat="45.798787129174336" lon="9.758995283969382"><ele>730.0</ele><time>2026-03-28T10:30:30.974Z</time></trkpt><trkpt lat="45.79876174314173" lon="9.758853071439308"><ele>730.0</ele><time>2026-03-28T10:30:31.974Z</time></trkpt><trkpt lat="45.79879658249906" lon="9.758731938107612"><ele>730.0</ele><time>2026-03-28T10:30:32.974Z</time></trkpt><trkpt lat="45.79887578623792" lon="9.758545143313874"><ele>729.3333333333334</ele><time>2026-03-28T10:30:33.972Z</time></trkpt><trkpt lat="45.798954104019266" lon="9.758343379095944"><ele>728.6666666666666</ele><time>2026-03-28T10:30:34.974Z</time></trkpt><trkpt lat="45.799054390407676" lon="9.758139289464014"><ele>728.0</ele><time>2026-03-28T10:30:35.976Z</time></trkpt><trkpt lat="45.79911703904161" lon="9.757925621287631"><ele>728.0</ele><time>2026-03-28T10:30:36.977Z</time></trkpt><trkpt lat="45.799178737679725" lon="9.7577102017085"><ele>728.0</ele><time>2026-03-28T10:30:37.979Z</time></trkpt><trkpt lat="45.7992312731311" lon="9.757455943331022"><ele>728.0</ele><time>2026-03-28T10:30:38.98Z</time></trkpt><trkpt lat="45.799243194496924" lon="9.757127775159299"><ele>730.6666666666666</ele><time>2026-03-28T10:30:39.982Z</time></trkpt><trkpt lat="45.799263026748676" lon="9.756795654876433"><ele>733.3333333333334</ele><time>2026-03-28T10:30:40.983Z</time></trkpt><trkpt lat="45.79928222285764" lon="9.756518656760926"><ele>736.0</ele><time>2026-03-28T10:30:41.984Z</time></trkpt><trkpt lat="45.799300025493636" lon="9.756260219816717"><ele>740.3333333333334</ele><time>2026-03-28T10:30:42.985Z</time></trkpt><trkpt lat="45.79932338040628" lon="9.756004606895736"><ele>744.6666666666666</ele><time>2026-03-28T10:30:43.986Z</time></trkpt><trkpt lat="45.79935466660848" lon="9.755754400360662"><ele>749.0</ele><time>2026-03-28T10:30:44.987Z</time></trkpt><trkpt lat="45.799368883941455" lon="9.755505701705948"><ele>739.0</ele><time>2026-03-28T10:30:45.988Z</time></trkpt><trkpt lat="45.7993713964407" lon="9.755262151565876"><ele>729.0</ele><time>2026-03-28T10:30:46.989Z</time></trkpt><trkpt lat="45.799364341766626" lon="9.755032540295145"><ele>719.0</ele><time>2026-03-28T10:30:47.99Z</time></trkpt><trkpt lat="45.799360911104394" lon="9.75483689352607"><ele>716.5</ele><time>2026-03-28T10:30:48.99Z</time></trkpt><trkpt lat="45.79935031219171" lon="9.754647812600844"><ele>714.0</ele><time>2026-03-28T10:30:49.991Z</time></trkpt><trkpt lat="45.79932155086615" lon="9.754491426402884"><ele>711.5</ele><time>2026-03-28T10:30:50.992Z</time></trkpt><trkpt lat="45.7992864350165" lon="9.754340155157633"><ele>709.0</ele><time>2026-03-28T10:30:51.992Z</time></trkpt><trkpt lat="45.799205461450484" lon="9.754199007998038"><ele>716.25</ele><time>2026-03-28T10:30:52.993Z</time></trkpt><trkpt lat="45.79908311740269" lon="9.754052114579206"><ele>723.5</ele><time>2026-03-28T10:30:53.993Z</time></trkpt><trkpt lat="45.79897990302525" lon="9.753943023258747"><ele>730.75</ele><time>2026-03-28T10:30:54.994Z</time></trkpt><trkpt lat="45.79884895269024" lon="9.753868015066073"><ele>738.0</ele><time>2026-03-28T10:30:55.994Z</time></trkpt><trkpt lat="45.79869013857256" lon="9.753811272723503"><ele>738.0</ele><time>2026-03-28T10:30:56.995Z</time></trkpt><trkpt lat="45.798550627844534" lon="9.753758983254105"><ele>738.0</ele><time>2026-03-28T10:30:57.995Z</time></trkpt><trkpt lat="45.79843402704424" lon="9.753717681484785"><ele>738.0</ele><time>2026-03-28T10:30:58.995Z</time></trkpt><trkpt lat="45.798330091024624" lon="9.753702405036554"><ele>738.0</ele><time>2026-03-28T10:30:59.996Z</time></trkpt><trkpt lat="45.79823255768176" lon="9.753679404038236"><ele>738.4</ele><time>2026-03-28T10:31:00.996Z</time></trkpt><trkpt lat="45.7981477831108" lon="9.753646382535575"><ele>738.8</ele><time>2026-03-28T10:31:01.996Z</time></trkpt><trkpt lat="45.79807398222127" lon="9.753555283040397"><ele>739.2</ele><time>2026-03-28T10:31:02.997Z</time></trkpt><trkpt lat="45.798034117404995" lon="9.753411828449478"><ele>739.6</ele><time>2026-03-28T10:31:03.997Z</time></trkpt><trkpt lat="45.798021588488304" lon="9.753238615616851"><ele>740.0</ele><time>2026-03-28T10:31:04.997Z</time></trkpt><trkpt lat="45.79801179057531" lon="9.753037568376646"><ele>740.0</ele><time>2026-03-28T10:31:05.997Z</time></trkpt><trkpt lat="45.79798442508679" lon="9.752798725656918"><ele>740.0</ele><time>2026-03-28T10:31:06.998Z</time></trkpt><trkpt lat="45.79793639914075" lon="9.752513023162178"><ele>740.0</ele><time>2026-03-28T10:31:07.998Z</time></trkpt><trkpt lat="45.79788918841981" lon="9.752256084384154"><ele>737.25</ele><time>2026-03-28T10:31:08.998Z</time></trkpt><trkpt lat="45.797843529796516" lon="9.75204371638543"><ele>734.5</ele><time>2026-03-28T10:31:09.998Z</time></trkpt><trkpt lat="45.79776139845514" lon="9.751893495857795"><ele>731.75</ele><time>2026-03-28T10:31:10.998Z</time></trkpt><trkpt lat="45.79765151316524" lon="9.751723818630326"><ele>729.0</ele><time>2026-03-28T10:31:11.998Z</time></trkpt><trkpt lat="45.79753166476618" lon="9.751571689069028"><ele>735.6666666666666</ele><time>2026-03-28T10:31:12.999Z</time></trkpt><trkpt lat="45.797457427035845" lon="9.751389867874737"><ele>742.3333333333333</ele><time>2026-03-28T10:31:13.999Z</time></trkpt><trkpt lat="45.79743373251579" lon="9.751163084939758"><ele>749.0</ele><time>2026-03-28T10:31:14.999Z</time></trkpt><trkpt lat="45.79741685604188" lon="9.750943945847272"><ele>749.0</ele><time>2026-03-28T10:31:15.999Z</time></trkpt><trkpt lat="45.79737249791248" lon="9.750794028177852"><ele>749.0</ele><time>2026-03-28T10:31:16.999Z</time></trkpt><trkpt lat="45.7972753834497" lon="9.750601458643814"><ele>749.0</ele><time>2026-03-28T10:31:17.999Z</time></trkpt><trkpt lat="45.79714384081269" lon="9.750395975285903"><ele>753.6666666666666</ele><time>2026-03-28T10:31:18.999Z</time></trkpt><trkpt lat="45.79700791371802" lon="9.750179995427297"><ele>758.3333333333334</ele><time>2026-03-28T10:31:20Z</time></trkpt><trkpt lat="45.79686368574483" lon="9.749983760981454"><ele>763.0</ele><time>2026-03-28T10:31:21Z</time></trkpt><trkpt lat="45.79669144510187" lon="9.7497976646735"><ele>763.0</ele><time>2026-03-28T10:31:22Z</time></trkpt><trkpt lat="45.79654290262168" lon="9.74962319591972"><ele>763.0</ele><time>2026-03-28T10:31:23Z</time></trkpt><trkpt lat="45.79641303718932" lon="9.749463798955667"><ele>763.0</ele><time>2026-03-28T10:31:24Z</time></trkpt><trkpt lat="45.79629525151293" lon="9.749306326660863"><ele>764.0</ele><time>2026-03-28T10:31:25Z</time></trkpt><trkpt lat="45.79616709742248" lon="9.749156749066643"><ele>765.0</ele><time>2026-03-28T10:31:26Z</time></trkpt><trkpt lat="45.7960112339411" lon="9.749050961993653"><ele>766.0</ele><time>2026-03-28T10:31:27Z</time></trkpt><trkpt lat="45.79588279694847" lon="9.748991701334274"><ele>766.0</ele><time>2026-03-28T10:31:28Z</time></trkpt><trkpt lat="45.795780481130784" lon="9.748958497676677"><ele>766.0</ele><time>2026-03-28T10:31:29Z</time></trkpt><trkpt lat="45.79569706127055" lon="9.748947223965278"><ele>766.0</ele><time>2026-03-28T10:31:30Z</time></trkpt><trkpt lat="45.79562648469206" lon="9.748976136935312"><ele>766.0</ele><time>2026-03-28T10:31:31Z</time></trkpt><trkpt lat="45.7955824942189" lon="9.74904095868862"><ele>766.0</ele><time>2026-03-28T10:31:32Z</time></trkpt><trkpt lat="45.795577879989786" lon="9.74914780232092"><ele>766.0</ele><time>2026-03-28T10:31:33Z</time></trkpt><trkpt lat="45.79562180825234" lon="9.749219659369379"><ele>766.0</ele><time>2026-03-28T10:31:34Z</time></trkpt><trkpt lat="45.79572041753917" lon="9.74926283054046"><ele>766.0</ele><time>2026-03-28T10:31:35.001Z</time></trkpt><trkpt lat="45.7958236292547" lon="9.749268980569525"><ele>766.0</ele><time>2026-03-28T10:31:36.001Z</time></trkpt><trkpt lat="45.79592893975247" lon="9.749267343555744"><ele>766.0</ele><time>2026-03-28T10:31:37.001Z</time></trkpt><trkpt lat="45.7960301135358" lon="9.749318377925789"><ele>766.0</ele><time>2026-03-28T10:31:38.001Z</time></trkpt><trkpt lat="45.796150958533595" lon="9.749424329422395"><ele>765.0</ele><time>2026-03-28T10:31:39.001Z</time></trkpt><trkpt lat="45.79624964395512" lon="9.749566684527737"><ele>764.0</ele><time>2026-03-28T10:31:40.001Z</time></trkpt><trkpt lat="45.79634327883059" lon="9.749738931505712"><ele>763.0</ele><time>2026-03-28T10:31:41.001Z</time></trkpt><trkpt lat="45.79642966991287" lon="9.749955618621009"><ele>763.0</ele><time>2026-03-28T10:31:42.001Z</time></trkpt><trkpt lat="45.79652334634374" lon="9.750167712739009"><ele>763.0</ele><time>2026-03-28T10:31:43.001Z</time></trkpt><trkpt lat="45.79660620134521" lon="9.750358295075984"><ele>763.0</ele><time>2026-03-28T10:31:44.001Z</time></trkpt><trkpt lat="45.79669758482532" lon="9.750533850756792"><ele>762.75</ele><time>2026-03-28T10:31:45.001Z</time></trkpt><trkpt lat="45.79678155239745" lon="9.750680337051273"><ele>762.5</ele><time>2026-03-28T10:31:46.001Z</time></trkpt><trkpt lat="45.79684976236924" lon="9.750826015810858"><ele>762.25</ele><time>2026-03-28T10:31:47.001Z</time></trkpt><trkpt lat="45.796888031947866" lon="9.751023406328114"><ele>762.0</ele><time>2026-03-28T10:31:48.001Z</time></trkpt><trkpt lat="45.79692025032744" lon="9.751247457267496"><ele>762.0</ele><time>2026-03-28T10:31:49.001Z</time></trkpt><trkpt lat="45.79693429093995" lon="9.751463375607697"><ele>762.0</ele><time>2026-03-28T10:31:50.001Z</time></trkpt><trkpt lat="45.79693828663472" lon="9.751664005170447"><ele>762.0</ele><time>2026-03-28T10:31:51.001Z</time></trkpt><trkpt lat="45.79695521832399" lon="9.751889540671762"><ele>762.0</ele><time>2026-03-28T10:31:52.001Z</time></trkpt><trkpt lat="45.797004423309865" lon="9.752102232976638"><ele>765.25</ele><time>2026-03-28T10:31:53.001Z</time></trkpt><trkpt lat="45.79706989374067" lon="9.752280522986084"><ele>768.5</ele><time>2026-03-28T10:31:54.001Z</time></trkpt><trkpt lat="45.7971452856389" lon="9.75242129366176"><ele>771.75</ele><time>2026-03-28T10:31:55.001Z</time></trkpt><trkpt lat="45.797222793191025" lon="9.75260727823071"><ele>775.0</ele><time>2026-03-28T10:31:56.001Z</time></trkpt><trkpt lat="45.79728389779057" lon="9.752852637698942"><ele>780.0</ele><time>2026-03-28T10:31:57.001Z</time></trkpt><trkpt lat="45.797317390539234" lon="9.75315606093721"><ele>785.0</ele><time>2026-03-28T10:31:58.001Z</time></trkpt><trkpt lat="45.79734448554963" lon="9.753481047943486"><ele>790.0</ele><time>2026-03-28T10:31:59.001Z</time></trkpt><trkpt lat="45.7973794976957" lon="9.753759414027394"><ele>791.25</ele><time>2026-03-28T10:32:00.001Z</time></trkpt><trkpt lat="45.79740443397398" lon="9.754010104726198"><ele>792.5</ele><time>2026-03-28T10:32:01.001Z</time></trkpt><trkpt lat="45.7974393951692" lon="9.754202394149427"><ele>793.75</ele><time>2026-03-28T10:32:02.001Z</time></trkpt><trkpt lat="45.79747644247602" lon="9.754368114793108"><ele>795.0</ele><time>2026-03-28T10:32:03.001Z</time></trkpt><trkpt lat="45.79751392214591" lon="9.754487516845762"><ele>795.0</ele><time>2026-03-28T10:32:04.001Z</time></trkpt><trkpt lat="45.797502497321574" lon="9.754636115578279"><ele>795.0</ele><time>2026-03-28T10:32:06.001Z</time></trkpt><trkpt lat="45.797398237071576" lon="9.75463632772325"><ele>795.0</ele><time>2026-03-28T10:32:08.001Z</time></trkpt><trkpt lat="45.79736231670882" lon="9.75452893953297"><ele>795.0</ele><time>2026-03-28T10:32:09.001Z</time></trkpt><trkpt lat="45.797320694674774" lon="9.754356753430615"><ele>795.0</ele><time>2026-03-28T10:32:10.001Z</time></trkpt><trkpt lat="45.79728119851315" lon="9.754164263030834"><ele>795.0</ele><time>2026-03-28T10:32:11.001Z</time></trkpt><trkpt lat="45.797232483890774" lon="9.753985335146567"><ele>795.0</ele><time>2026-03-28T10:32:12.001Z</time></trkpt><trkpt lat="45.797159553149676" lon="9.753812729035522"><ele>795.0</ele><time>2026-03-28T10:32:13.001Z</time></trkpt><trkpt lat="45.7970596720665" lon="9.75362686404149"><ele>795.0</ele><time>2026-03-28T10:32:14.001Z</time></trkpt><trkpt lat="45.796988310421575" lon="9.753424637689363"><ele>793.3333333333333</ele><time>2026-03-28T10:32:15.001Z</time></trkpt><trkpt lat="45.796896906369305" lon="9.753209627305116"><ele>791.6666666666666</ele><time>2026-03-28T10:32:16.001Z</time></trkpt><trkpt lat="45.796819227924665" lon="9.75301652318168"><ele>790.0</ele><time>2026-03-28T10:32:17.001Z</time></trkpt><trkpt lat="45.79674331434692" lon="9.752819956296177"><ele>796.0</ele><time>2026-03-28T10:32:18.001Z</time></trkpt><trkpt lat="45.79665817386895" lon="9.752636098987278"><ele>802.0</ele><time>2026-03-28T10:32:19.001Z</time></trkpt><trkpt lat="45.796570402193076" lon="9.752444726642434"><ele>808.0</ele><time>2026-03-28T10:32:20.001Z</time></trkpt><trkpt lat="45.796473815253336" lon="9.752257278365185"><ele>808.0</ele><time>2026-03-28T10:32:21.002Z</time></trkpt><trkpt lat="45.796394674541816" lon="9.752049771301264"><ele>808.0</ele><time>2026-03-28T10:32:22.002Z</time></trkpt><trkpt lat="45.79629933434405" lon="9.751862746258107"><ele>808.0</ele><time>2026-03-28T10:32:23.002Z</time></trkpt><trkpt lat="45.796204474678916" lon="9.75170073506675"><ele>804.0</ele><time>2026-03-28T10:32:24.002Z</time></trkpt><trkpt lat="45.796092424082" lon="9.751563673895017"><ele>800.0</ele><time>2026-03-28T10:32:25.002Z</time></trkpt><trkpt lat="45.79596113891651" lon="9.75145518315409"><ele>796.0</ele><time>2026-03-28T10:32:26.002Z</time></trkpt><trkpt lat="45.795809387748726" lon="9.751378640319935"><ele>804.0</ele><time>2026-03-28T10:32:27.002Z</time></trkpt><trkpt lat="45.79563464093793" lon="9.751326636944498"><ele>812.0</ele><time>2026-03-28T10:32:28.002Z</time></trkpt><trkpt lat="45.79545665662395" lon="9.751302456319532"><ele>820.0</ele><time>2026-03-28T10:32:29.002Z</time></trkpt><trkpt lat="45.79527452392932" lon="9.75131967909848"><ele>821.0</ele><time>2026-03-28T10:32:30.002Z</time></trkpt><trkpt lat="45.79510602842563" lon="9.75134772510247"><ele>822.0</ele><time>2026-03-28T10:32:31.002Z</time></trkpt><trkpt lat="45.79495551912434" lon="9.751345804945087"><ele>823.0</ele><time>2026-03-28T10:32:32.002Z</time></trkpt><trkpt lat="45.79480639807692" lon="9.751281737512848"><ele>823.0</ele><time>2026-03-28T10:32:33.002Z</time></trkpt><trkpt lat="45.79465606739799" lon="9.751129667324182"><ele>823.0</ele><time>2026-03-28T10:32:34.002Z</time></trkpt><trkpt lat="45.79450140924843" lon="9.750987218251549"><ele>823.0</ele><time>2026-03-28T10:32:35.002Z</time></trkpt><trkpt lat="45.79435801689538" lon="9.750837287285043"><ele>821.3333333333333</ele><time>2026-03-28T10:32:36.002Z</time></trkpt><trkpt lat="45.794255784227126" lon="9.750664043661532"><ele>819.6666666666667</ele><time>2026-03-28T10:32:37.002Z</time></trkpt><trkpt lat="45.79414348437501" lon="9.750418414071156"><ele>818.0</ele><time>2026-03-28T10:32:38.002Z</time></trkpt><trkpt lat="45.79405501095188" lon="9.75019353048421"><ele>818.0</ele><time>2026-03-28T10:32:39.002Z</time></trkpt><trkpt lat="45.793967908768366" lon="9.750021178796322"><ele>818.0</ele><time>2026-03-28T10:32:40.001Z</time></trkpt><trkpt lat="45.79387072249369" lon="9.749860540341329"><ele>818.0</ele><time>2026-03-28T10:32:41.001Z</time></trkpt><trkpt lat="45.79377497116231" lon="9.749721645899816"><ele>818.0</ele><time>2026-03-28T10:32:42.001Z</time></trkpt><trkpt lat="45.79365080996317" lon="9.749599681018916"><ele>820.0</ele><time>2026-03-28T10:32:43.001Z</time></trkpt><trkpt lat="45.79350308312816" lon="9.749491931042117"><ele>822.0</ele><time>2026-03-28T10:32:44Z</time></trkpt><trkpt lat="45.793338027771654" lon="9.749409263646964"><ele>824.0</ele><time>2026-03-28T10:32:45Z</time></trkpt><trkpt lat="45.793147658109774" lon="9.74936385292913"><ele>824.0</ele><time>2026-03-28T10:32:46Z</time></trkpt><trkpt lat="45.792973807257866" lon="9.749351098897474"><ele>824.0</ele><time>2026-03-28T10:32:47Z</time></trkpt><trkpt lat="45.79281866252462" lon="9.749352614894606"><ele>824.0</ele><time>2026-03-28T10:32:48Z</time></trkpt><trkpt lat="45.79266565106613" lon="9.749351447355048"><ele>825.2</ele><time>2026-03-28T10:32:49Z</time></trkpt><trkpt lat="45.792540583035475" lon="9.749358262056454"><ele>826.4000000000001</ele><time>2026-03-28T10:32:50Z</time></trkpt><trkpt lat="45.79243028910676" lon="9.74937120591249"><ele>827.6</ele><time>2026-03-28T10:32:51Z</time></trkpt><trkpt lat="45.79235802157549" lon="9.749412846311376"><ele>828.8</ele><time>2026-03-28T10:32:52Z</time></trkpt><trkpt lat="45.79234383087243" lon="9.749572045520878"><ele>830.0</ele><time>2026-03-28T10:32:54Z</time></trkpt><trkpt lat="45.792407856327266" lon="9.749640577794395"><ele>833.5</ele><time>2026-03-28T10:32:55Z</time></trkpt><trkpt lat="45.79252263041935" lon="9.749659397534067"><ele>837.0</ele><time>2026-03-28T10:32:56Z</time></trkpt><trkpt lat="45.79265042269862" lon="9.749624930654111"><ele>840.5</ele><time>2026-03-28T10:32:57Z</time></trkpt><trkpt lat="45.792784579469476" lon="9.749574372260314"><ele>844.0</ele><time>2026-03-28T10:32:58Z</time></trkpt><trkpt lat="45.79289069204665" lon="9.749568386943594"><ele>844.0</ele><time>2026-03-28T10:32:59Z</time></trkpt><trkpt lat="45.79301308841537" lon="9.749617302017004"><ele>844.0</ele><time>2026-03-28T10:33:00Z</time></trkpt><trkpt lat="45.79312313927022" lon="9.749722989969195"><ele>844.0</ele><time>2026-03-28T10:33:01Z</time></trkpt><trkpt lat="45.793226227241966" lon="9.749853270672785"><ele>844.0</ele><time>2026-03-28T10:33:02Z</time></trkpt><trkpt lat="45.793327586600256" lon="9.750008760802109"><ele>841.3333333333333</ele><time>2026-03-28T10:33:03Z</time></trkpt><trkpt lat="45.79342056743211" lon="9.750236962848948"><ele>838.6666666666667</ele><time>2026-03-28T10:33:04Z</time></trkpt><trkpt lat="45.79351442878957" lon="9.750484190286114"><ele>836.0</ele><time>2026-03-28T10:33:05Z</time></trkpt><trkpt lat="45.79359636426735" lon="9.750693472799274"><ele>836.0</ele><time>2026-03-28T10:33:06Z</time></trkpt><trkpt lat="45.79368776389863" lon="9.750910672025574"><ele>836.0</ele><time>2026-03-28T10:33:07Z</time></trkpt><trkpt lat="45.793775650862045" lon="9.751124681178013"><ele>836.0</ele><time>2026-03-28T10:33:08Z</time></trkpt><trkpt lat="45.79386173461843" lon="9.751356199239575"><ele>839.0</ele><time>2026-03-28T10:33:09Z</time></trkpt><trkpt lat="45.79394230943246" lon="9.751593286956288"><ele>842.0</ele><time>2026-03-28T10:33:10Z</time></trkpt><trkpt lat="45.79401165214373" lon="9.75181427750703"><ele>845.0</ele><time>2026-03-28T10:33:11Z</time></trkpt><trkpt lat="45.794081444617014" lon="9.752052474361603"><ele>847.6666666666667</ele><time>2026-03-28T10:33:12Z</time></trkpt><trkpt lat="45.79415417450218" lon="9.752267382454074"><ele>850.3333333333333</ele><time>2026-03-28T10:33:13Z</time></trkpt><trkpt lat="45.79422351130016" lon="9.752447322513177"><ele>853.0</ele><time>2026-03-28T10:33:14Z</time></trkpt><trkpt lat="45.79430069808123" lon="9.75261428880419"><ele>854.0</ele><time>2026-03-28T10:33:15Z</time></trkpt><trkpt lat="45.79439087785633" lon="9.75278667422293"><ele>855.0</ele><time>2026-03-28T10:33:16Z</time></trkpt><trkpt lat="45.794493856451545" lon="9.752971788836698"><ele>856.0</ele><time>2026-03-28T10:33:17Z</time></trkpt><trkpt lat="45.79461491262619" lon="9.753143697721567"><ele>856.0</ele><time>2026-03-28T10:33:18Z</time></trkpt><trkpt lat="45.79473849142339" lon="9.753281175917815"><ele>856.0</ele><time>2026-03-28T10:33:19Z</time></trkpt><trkpt lat="45.79486464249735" lon="9.75339915761894"><ele>856.0</ele><time>2026-03-28T10:33:20Z</time></trkpt><trkpt lat="45.794980203977296" lon="9.753529816675522"><ele>858.0</ele><time>2026-03-28T10:33:21Z</time></trkpt><trkpt lat="45.795073188101064" lon="9.753683687314648"><ele>860.0</ele><time>2026-03-28T10:33:22Z</time></trkpt><trkpt lat="45.7951418573542" lon="9.753860516228338"><ele>862.0</ele><time>2026-03-28T10:33:23Z</time></trkpt><trkpt lat="45.795195983006735" lon="9.754042003808015"><ele>864.0</ele><time>2026-03-28T10:33:24Z</time></trkpt><trkpt lat="45.795250031948086" lon="9.754229308868103"><ele>862.5</ele><time>2026-03-28T10:33:25Z</time></trkpt><trkpt lat="45.79529933893793" lon="9.754422378802502"><ele>861.0</ele><time>2026-03-28T10:33:26Z</time></trkpt><trkpt lat="45.79536002617806" lon="9.754616941287871"><ele>859.5</ele><time>2026-03-28T10:33:27Z</time></trkpt><trkpt lat="45.79544659587159" lon="9.754800457379012"><ele>858.0</ele><time>2026-03-28T10:33:28Z</time></trkpt><trkpt lat="45.795558061681156" lon="9.754961969174168"><ele>858.0</ele><time>2026-03-28T10:33:29Z</time></trkpt><trkpt lat="45.79568685845622" lon="9.755119037739293"><ele>858.0</ele><time>2026-03-28T10:33:30Z</time></trkpt><trkpt lat="45.79579180445142" lon="9.755283616204109"><ele>858.0</ele><time>2026-03-28T10:33:31Z</time></trkpt><trkpt lat="45.79589325933612" lon="9.755493283937396"><ele>858.3333333333333</ele><time>2026-03-28T10:33:32Z</time></trkpt><trkpt lat="45.79599713290478" lon="9.755736059682832"><ele>858.6666666666666</ele><time>2026-03-28T10:33:33Z</time></trkpt><trkpt lat="45.79609545781483" lon="9.756010587094861"><ele>859.0</ele><time>2026-03-28T10:33:34Z</time></trkpt><trkpt lat="45.796191658388324" lon="9.75625911541146"><ele>859.0</ele><time>2026-03-28T10:33:35Z</time></trkpt><trkpt lat="45.79627446558624" lon="9.756486564000932"><ele>859.0</ele><time>2026-03-28T10:33:36Z</time></trkpt><trkpt lat="45.79635717343092" lon="9.75670189981333"><ele>859.0</ele><time>2026-03-28T10:33:37Z</time></trkpt><trkpt lat="45.79643087411038" lon="9.756878445688123"><ele>860.4000000000001</ele><time>2026-03-28T10:33:38Z</time></trkpt><trkpt lat="45.796474150417616" lon="9.757017627132623"><ele>861.8000000000001</ele><time>2026-03-28T10:33:39Z</time></trkpt><trkpt lat="45.79648896557667" lon="9.757122694036697"><ele>863.1999999999999</ele><time>2026-03-28T10:33:40Z</time></trkpt><trkpt lat="45.79639470208029" lon="9.757209169139854"><ele>864.5999999999999</ele><time>2026-03-28T10:33:42.001Z</time></trkpt><trkpt lat="45.796321598669216" lon="9.757185636979687"><ele>866.0</ele><time>2026-03-28T10:33:43.001Z</time></trkpt><trkpt lat="45.796226769180635" lon="9.75711337445144"><ele>866.0</ele><time>2026-03-28T10:33:44.001Z</time></trkpt><trkpt lat="45.79612302462132" lon="9.756999312325"><ele>866.0</ele><time>2026-03-28T10:33:45.001Z</time></trkpt><trkpt lat="45.79602486783073" lon="9.756851018638786"><ele>866.0</ele><time>2026-03-28T10:33:46.001Z</time></trkpt><trkpt lat="45.79592414372458" lon="9.7567166894259"><ele>866.0</ele><time>2026-03-28T10:33:47.001Z</time></trkpt><trkpt lat="45.79581614389675" lon="9.756577094194407"><ele>869.0</ele><time>2026-03-28T10:33:48.001Z</time></trkpt><trkpt lat="45.7957211013857" lon="9.756444590994827"><ele>872.0</ele><time>2026-03-28T10:33:49.001Z</time></trkpt><trkpt lat="45.795639661906456" lon="9.756320497896715"><ele>875.0</ele><time>2026-03-28T10:33:50.001Z</time></trkpt><trkpt lat="45.795545005802694" lon="9.756211536408305"><ele>878.0</ele><time>2026-03-28T10:33:51.001Z</time></trkpt><trkpt lat="45.795449604665905" lon="9.756112584514135"><ele>879.25</ele><time>2026-03-28T10:33:52.001Z</time></trkpt><trkpt lat="45.795354046784254" lon="9.756033025698722"><ele>880.5</ele><time>2026-03-28T10:33:53.001Z</time></trkpt><trkpt lat="45.79524093540879" lon="9.755962663272777"><ele>881.75</ele><time>2026-03-28T10:33:54.001Z</time></trkpt><trkpt lat="45.7950994916407" lon="9.75588716133515"><ele>883.0</ele><time>2026-03-28T10:33:55.001Z</time></trkpt><trkpt lat="45.79493586808169" lon="9.755786799581077"><ele>883.0</ele><time>2026-03-28T10:33:56.001Z</time></trkpt><trkpt lat="45.794763977576466" lon="9.755688700382107"><ele>883.0</ele><time>2026-03-28T10:33:57.001Z</time></trkpt><trkpt lat="45.79460092920091" lon="9.755594705157149"><ele>883.0</ele><time>2026-03-28T10:33:58.001Z</time></trkpt><trkpt lat="45.794428979663074" lon="9.755505162397053"><ele>884.3333333333333</ele><time>2026-03-28T10:33:59.001Z</time></trkpt><trkpt lat="45.79423446623089" lon="9.755446305080532"><ele>885.6666666666667</ele><time>2026-03-28T10:34:00.001Z</time></trkpt><trkpt lat="45.79402074788671" lon="9.75541727175211"><ele>887.0</ele><time>2026-03-28T10:34:01.001Z</time></trkpt><trkpt lat="45.79380566705175" lon="9.755405801096353"><ele>887.0</ele><time>2026-03-28T10:34:02.001Z</time></trkpt><trkpt lat="45.793598627431216" lon="9.755392188367788"><ele>887.0</ele><time>2026-03-28T10:34:03.001Z</time></trkpt><trkpt lat="45.793405455064956" lon="9.75538131385072"><ele>887.0</ele><time>2026-03-28T10:34:04.001Z</time></trkpt><trkpt lat="45.7932105427667" lon="9.755375191068232"><ele>889.0</ele><time>2026-03-28T10:34:05.001Z</time></trkpt><trkpt lat="45.79302800889758" lon="9.755401034271154"><ele>891.0</ele><time>2026-03-28T10:34:06.001Z</time></trkpt><trkpt lat="45.792845661537484" lon="9.755464841157861"><ele>893.0</ele><time>2026-03-28T10:34:07.001Z</time></trkpt><trkpt lat="45.79269504028199" lon="9.755550569252161"><ele>895.0</ele><time>2026-03-28T10:34:08.001Z</time></trkpt><trkpt lat="45.792570181225685" lon="9.755619908540078"><ele>897.0</ele><time>2026-03-28T10:34:09.001Z</time></trkpt><trkpt lat="45.79245693814064" lon="9.75564578733771"><ele>899.0</ele><time>2026-03-28T10:34:10.001Z</time></trkpt><trkpt lat="45.79237167934853" lon="9.755606418509489"><ele>901.0</ele><time>2026-03-28T10:34:11.001Z</time></trkpt><trkpt lat="45.79231010561417" lon="9.755501009396081"><ele>903.0</ele><time>2026-03-28T10:34:12.001Z</time></trkpt><trkpt lat="45.79226067991328" lon="9.755332181525683"><ele>900.3333333333333</ele><time>2026-03-28T10:34:13.001Z</time></trkpt><trkpt lat="45.7922119769527" lon="9.755108482767241"><ele>897.6666666666666</ele><time>2026-03-28T10:34:14.001Z</time></trkpt><trkpt lat="45.79216362904596" lon="9.754869478877886"><ele>895.0</ele><time>2026-03-28T10:34:15.001Z</time></trkpt><trkpt lat="45.79214012154576" lon="9.754654659799357"><ele>895.0</ele><time>2026-03-28T10:34:16.001Z</time></trkpt><trkpt lat="45.792155174515976" lon="9.754447237865833"><ele>895.0</ele><time>2026-03-28T10:34:17.001Z</time></trkpt><trkpt lat="45.79223267588036" lon="9.754222687193705"><ele>895.0</ele><time>2026-03-28T10:34:18.001Z</time></trkpt><trkpt lat="45.79232857739127" lon="9.754046016302768"><ele>896.0</ele><time>2026-03-28T10:34:19.001Z</time></trkpt><trkpt lat="45.79240028796982" lon="9.753883640248507"><ele>897.0</ele><time>2026-03-28T10:34:20.001Z</time></trkpt><trkpt lat="45.792442574932835" lon="9.753695291109278"><ele>898.0</ele><time>2026-03-28T10:34:21.001Z</time></trkpt><trkpt lat="45.792445490496306" lon="9.753515911458903"><ele>899.0</ele><time>2026-03-28T10:34:22.001Z</time></trkpt><trkpt lat="45.79242131522014" lon="9.753356397170629"><ele>900.25</ele><time>2026-03-28T10:34:23.001Z</time></trkpt><trkpt lat="45.79235338624444" lon="9.753204120383106"><ele>901.5</ele><time>2026-03-28T10:34:24.001Z</time></trkpt><trkpt lat="45.79224257508751" lon="9.753106161169987"><ele>902.75</ele><time>2026-03-28T10:34:25.001Z</time></trkpt><trkpt lat="45.792104860668836" lon="9.753059964953467"><ele>904.0</ele><time>2026-03-28T10:34:26.001Z</time></trkpt><trkpt lat="45.7919454290776" lon="9.753050048472875"><ele>905.75</ele><time>2026-03-28T10:34:27.001Z</time></trkpt><trkpt lat="45.79180887919386" lon="9.753088147482288"><ele>907.5</ele><time>2026-03-28T10:34:28.001Z</time></trkpt><trkpt lat="45.791686770508804" lon="9.753156177941104"><ele>909.25</ele><time>2026-03-28T10:34:29.001Z</time></trkpt><trkpt lat="45.79156865336242" lon="9.75326879464093"><ele>911.0</ele><time>2026-03-28T10:34:30.001Z</time></trkpt><trkpt lat="45.79145969432449" lon="9.753416696038343"><ele>911.5</ele><time>2026-03-28T10:34:31.001Z</time></trkpt><trkpt lat="45.79135784321025" lon="9.75359047337671"><ele>912.0</ele><time>2026-03-28T10:34:32.001Z</time></trkpt><trkpt lat="45.79127329092473" lon="9.753766487976769"><ele>912.5</ele><time>2026-03-28T10:34:33.001Z</time></trkpt><trkpt lat="45.791197373224" lon="9.753918170923248"><ele>913.0</ele><time>2026-03-28T10:34:34.001Z</time></trkpt><trkpt lat="45.79112483364397" lon="9.754050466531046"><ele>913.0</ele><time>2026-03-28T10:34:35.001Z</time></trkpt><trkpt lat="45.79104159364033" lon="9.754166964504599"><ele>913.0</ele><time>2026-03-28T10:34:36.001Z</time></trkpt><trkpt lat="45.79095631040176" lon="9.754283694858827"><ele>913.0</ele><time>2026-03-28T10:34:37.001Z</time></trkpt><trkpt lat="45.79082657418973" lon="9.754381715529433"><ele>913.0</ele><time>2026-03-28T10:34:38.001Z</time></trkpt><trkpt lat="45.79068913925785" lon="9.754444252342628"><ele>917.0</ele><time>2026-03-28T10:34:39.001Z</time></trkpt><trkpt lat="45.79054892372761" lon="9.754515222349095"><ele>921.0</ele><time>2026-03-28T10:34:40.001Z</time></trkpt><trkpt lat="45.790404973054784" lon="9.754594505463405"><ele>925.0</ele><time>2026-03-28T10:34:41.001Z</time></trkpt><trkpt lat="45.790256539612336" lon="9.754672989459195"><ele>923.5</ele><time>2026-03-28T10:34:42.001Z</time></trkpt><trkpt lat="45.79011244493204" lon="9.754753557459551"><ele>922.0</ele><time>2026-03-28T10:34:43.001Z</time></trkpt><trkpt lat="45.78997233681527" lon="9.754813388694066"><ele>920.5</ele><time>2026-03-28T10:34:44.001Z</time></trkpt><trkpt lat="45.789844197425936" lon="9.754856870396853"><ele>919.0</ele><time>2026-03-28T10:34:45.001Z</time></trkpt><trkpt lat="45.78971063735662" lon="9.75490571884008"><ele>919.0</ele><time>2026-03-28T10:34:46.001Z</time></trkpt><trkpt lat="45.78957615351571" lon="9.754948632932459"><ele>919.0</ele><time>2026-03-28T10:34:47.001Z</time></trkpt><trkpt lat="45.78943509085572" lon="9.755000886217088"><ele>919.0</ele><time>2026-03-28T10:34:48.001Z</time></trkpt><trkpt lat="45.78930872289823" lon="9.755042778289631"><ele>919.0</ele><time>2026-03-28T10:34:49.001Z</time></trkpt><trkpt lat="45.78919143549703" lon="9.75508466200166"><ele>918.75</ele><time>2026-03-28T10:34:50.001Z</time></trkpt><trkpt lat="45.78907621129037" lon="9.755124341228106"><ele>918.5</ele><time>2026-03-28T10:34:51.001Z</time></trkpt><trkpt lat="45.788948244610964" lon="9.755162055206398"><ele>918.25</ele><time>2026-03-28T10:34:52.001Z</time></trkpt><trkpt lat="45.788818927743264" lon="9.755218070889693"><ele>918.0</ele><time>2026-03-28T10:34:53.001Z</time></trkpt><trkpt lat="45.78868836824946" lon="9.75528748006259"><ele>920.75</ele><time>2026-03-28T10:34:54.001Z</time></trkpt><trkpt lat="45.78856448487444" lon="9.755363121651703"><ele>923.5</ele><time>2026-03-28T10:34:55.001Z</time></trkpt><trkpt lat="45.78843503925985" lon="9.755441266471662"><ele>926.25</ele><time>2026-03-28T10:34:56.001Z</time></trkpt><trkpt lat="45.78830038079224" lon="9.755533481169378"><ele>929.0</ele><time>2026-03-28T10:34:57.001Z</time></trkpt><trkpt lat="45.788159656756456" lon="9.755626320843175"><ele>929.0</ele><time>2026-03-28T10:34:58.001Z</time></trkpt><trkpt lat="45.78802163324675" lon="9.755707377160329"><ele>929.0</ele><time>2026-03-28T10:34:59.001Z</time></trkpt><trkpt lat="45.78788622888159" lon="9.755788502127137"><ele>929.0</ele><time>2026-03-28T10:35:00.001Z</time></trkpt><trkpt lat="45.78775754084927" lon="9.75586615090074"><ele>929.0</ele><time>2026-03-28T10:35:01.001Z</time></trkpt><trkpt lat="45.78765096690661" lon="9.755931984511815"><ele>930.8000000000001</ele><time>2026-03-28T10:35:02.001Z</time></trkpt><trkpt lat="45.78756560306822" lon="9.755985514718594"><ele>932.6000000000001</ele><time>2026-03-28T10:35:03.001Z</time></trkpt><trkpt lat="45.78747527666849" lon="9.75602795235407"><ele>934.4</ele><time>2026-03-28T10:35:04.001Z</time></trkpt><trkpt lat="45.78740462005925" lon="9.756070348199328"><ele>936.2</ele><time>2026-03-28T10:35:05.001Z</time></trkpt><trkpt lat="45.78732161731208" lon="9.756099006976024"><ele>938.0</ele><time>2026-03-28T10:35:06.001Z</time></trkpt><trkpt lat="45.787200063229236" lon="9.7561149182939"><ele>938.3333333333334</ele><time>2026-03-28T10:35:08.001Z</time></trkpt><trkpt lat="45.78707445117409" lon="9.756105924954106"><ele>938.6666666666667</ele><time>2026-03-28T10:35:10.001Z</time></trkpt><trkpt lat="45.78700640478212" lon="9.756106018725488"><ele>939.0</ele><time>2026-03-28T10:35:11.001Z</time></trkpt><trkpt lat="45.78693568745029" lon="9.75612042798059"><ele>939.3333333333333</ele><time>2026-03-28T10:35:12.001Z</time></trkpt><trkpt lat="45.78686645918146" lon="9.756137436805203"><ele>939.6666666666666</ele><time>2026-03-28T10:35:13.001Z</time></trkpt><trkpt lat="45.7867905374507" lon="9.756147176903285"><ele>940.0</ele><time>2026-03-28T10:35:14.001Z</time></trkpt><trkpt lat="45.78671482200336" lon="9.756159367212275"><ele>940.9999999999999</ele><time>2026-03-28T10:35:15.001Z</time></trkpt><trkpt lat="45.78664190623023" lon="9.75616715832989"><ele>942.0</ele><time>2026-03-28T10:35:16.001Z</time></trkpt><trkpt lat="45.78655515927894" lon="9.756177772728334"><ele>943.0</ele><time>2026-03-28T10:35:17.001Z</time></trkpt><trkpt lat="45.7864653756202" lon="9.756186530529673"><ele>944.0</ele><time>2026-03-28T10:35:18.002Z</time></trkpt><trkpt lat="45.78638188480047" lon="9.756188830702367"><ele>944.9999999999999</ele><time>2026-03-28T10:35:19.002Z</time></trkpt><trkpt lat="45.78630539476354" lon="9.756195566973537"><ele>946.0</ele><time>2026-03-28T10:35:20.002Z</time></trkpt><trkpt lat="45.78624117356543" lon="9.756198046142424"><ele>946.0</ele><time>2026-03-28T10:35:21.002Z</time></trkpt><trkpt lat="45.78618008488333" lon="9.756221523325241"><ele>945.9999999999999</ele><time>2026-03-28T10:35:22.002Z</time></trkpt><trkpt lat="45.7860675897462" lon="9.756243859742451"><ele>945.9999999999999</ele><time>2026-03-28T10:35:24.002Z</time></trkpt><trkpt lat="45.786004200060106" lon="9.756229590394556"><ele>946.0</ele><time>2026-03-28T10:35:25.002Z</time></trkpt><trkpt lat="45.785887027749794" lon="9.7562432322318"><ele>946.0</ele><time>2026-03-28T10:35:27.002Z</time></trkpt><trkpt lat="45.78577839381062" lon="9.756256100542645"><ele>946.1999999999999</ele><time>2026-03-28T10:35:29.002Z</time></trkpt><trkpt lat="45.785677417024175" lon="9.756349982791237"><ele>946.3999999999999</ele><time>2026-03-28T10:35:31.002Z</time></trkpt><trkpt lat="45.78560468315442" lon="9.756435997628374"><ele>946.6</ele><time>2026-03-28T10:35:33.002Z</time></trkpt><trkpt lat="45.78550785743332" lon="9.756456020062446"><ele>946.8</ele><time>2026-03-28T10:35:35.002Z</time></trkpt><trkpt lat="45.78539777765202" lon="9.756377157590155"><ele>947.0</ele><time>2026-03-28T10:35:37.002Z</time></trkpt><trkpt lat="45.7853169571834" lon="9.75633507839196"><ele>947.0</ele><time>2026-03-28T10:35:39.002Z</time></trkpt><trkpt lat="45.78525158509591" lon="9.756342338941552"><ele>946.9999999999999</ele><time>2026-03-28T10:35:45.002Z</time></trkpt><trkpt lat="45.78517220076669" lon="9.756369986664707"><ele>947.0</ele><time>2026-03-28T10:35:47.002Z</time></trkpt><trkpt lat="45.785104823722484" lon="9.75637131502075"><ele>947.0</ele><time>2026-03-28T10:35:48.002Z</time></trkpt><trkpt lat="45.78503466424075" lon="9.756350383062424"><ele>946.9999999999999</ele><time>2026-03-28T10:35:49.002Z</time></trkpt><trkpt lat="45.78496411259267" lon="9.75632600773701"><ele>947.0</ele><time>2026-03-28T10:35:50.002Z</time></trkpt><trkpt lat="45.78488504312374" lon="9.756305867120608"><ele>947.0</ele><time>2026-03-28T10:35:51.002Z</time></trkpt><trkpt lat="45.78480436844371" lon="9.756271002298975"><ele>946.5</ele><time>2026-03-28T10:35:52.002Z</time></trkpt><trkpt lat="45.78470006745241" lon="9.756240756879947"><ele>946.0</ele><time>2026-03-28T10:35:53.002Z</time></trkpt><trkpt lat="45.78456839861468" lon="9.75620162548666"><ele>945.5</ele><time>2026-03-28T10:35:54.002Z</time></trkpt><trkpt lat="45.78444843112738" lon="9.756138036102815"><ele>945.0</ele><time>2026-03-28T10:35:55.002Z</time></trkpt><trkpt lat="45.7843386444901" lon="9.756095286998617"><ele>945.0</ele><time>2026-03-28T10:35:56.002Z</time></trkpt><trkpt lat="45.78422219418281" lon="9.756058873268984"><ele>945.0</ele><time>2026-03-28T10:35:57.002Z</time></trkpt><trkpt lat="45.78410962509705" lon="9.756020150790864"><ele>945.0</ele><time>2026-03-28T10:35:58.002Z</time></trkpt><trkpt lat="45.78400555307183" lon="9.755974905600597"><ele>945.0</ele><time>2026-03-28T10:35:59.002Z</time></trkpt><trkpt lat="45.78389857288253" lon="9.75593736461232"><ele>947.0</ele><time>2026-03-28T10:36:00.002Z</time></trkpt><trkpt lat="45.7838010340313" lon="9.755906490789451"><ele>949.0</ele><time>2026-03-28T10:36:01.002Z</time></trkpt><trkpt lat="45.78370909387759" lon="9.755883282947583"><ele>951.0</ele><time>2026-03-28T10:36:02.002Z</time></trkpt><trkpt lat="45.783605404065476" lon="9.755860118256422"><ele>953.0</ele><time>2026-03-28T10:36:03.002Z</time></trkpt><trkpt lat="45.783502046049094" lon="9.755812828411143"><ele>955.0</ele><time>2026-03-28T10:36:04.002Z</time></trkpt><trkpt lat="45.78341614843181" lon="9.755764731223332"><ele>955.8</ele><time>2026-03-28T10:36:05.002Z</time></trkpt><trkpt lat="45.78334208743711" lon="9.75574870965842"><ele>956.6</ele><time>2026-03-28T10:36:06.002Z</time></trkpt><trkpt lat="45.783226165269" lon="9.75566443826325"><ele>957.4000000000001</ele><time>2026-03-28T10:36:08.002Z</time></trkpt><trkpt lat="45.78317066043135" lon="9.755620512119426"><ele>958.2</ele><time>2026-03-28T10:36:09.002Z</time></trkpt><trkpt lat="45.78306652704204" lon="9.755544258227138"><ele>959.0</ele><time>2026-03-28T10:36:11.002Z</time></trkpt><trkpt lat="45.7829853138673" lon="9.755475909020381"><ele>959.0</ele><time>2026-03-28T10:36:12.002Z</time></trkpt><trkpt lat="45.78290072425879" lon="9.75537837731604"><ele>959.0000000000001</ele><time>2026-03-28T10:36:13.002Z</time></trkpt><trkpt lat="45.782837945326875" lon="9.755247523410958"><ele>959.0000000000001</ele><time>2026-03-28T10:36:14.002Z</time></trkpt><trkpt lat="45.782800854668075" lon="9.755094284556112"><ele>959.0</ele><time>2026-03-28T10:36:15.002Z</time></trkpt><trkpt lat="45.782770853203594" lon="9.754959480746892"><ele>959.0</ele><time>2026-03-28T10:36:16.002Z</time></trkpt><trkpt lat="45.782734824400364" lon="9.75482556647052"><ele>959.0000000000001</ele><time>2026-03-28T10:36:17.002Z</time></trkpt><trkpt lat="45.78270435002761" lon="9.754702306048218"><ele>959.0</ele><time>2026-03-28T10:36:18.002Z</time></trkpt><trkpt lat="45.78266831927923" lon="9.754591014828097"><ele>959.0</ele><time>2026-03-28T10:36:19.002Z</time></trkpt><trkpt lat="45.78263067115895" lon="9.754506957966216"><ele>959.0</ele><time>2026-03-28T10:36:20.002Z</time></trkpt><trkpt lat="45.78255581088075" lon="9.754415587805505"><ele>959.0000000000001</ele><time>2026-03-28T10:36:22.002Z</time></trkpt><trkpt lat="45.78249066804875" lon="9.754364176460367"><ele>959.0</ele><time>2026-03-28T10:36:24.002Z</time></trkpt><trkpt lat="45.78240433978596" lon="9.754374421911029"><ele>959.0000000000001</ele><time>2026-03-28T10:36:26.002Z</time></trkpt><trkpt lat="45.78228284164793" lon="9.754431200701648"><ele>959.0</ele><time>2026-03-28T10:36:28.002Z</time></trkpt><trkpt lat="45.78221996425395" lon="9.754438042582981"><ele>959.0</ele><time>2026-03-28T10:36:29.002Z</time></trkpt><trkpt lat="45.782146075216566" lon="9.754399642459571"><ele>959.0</ele><time>2026-03-28T10:36:30.002Z</time></trkpt><trkpt lat="45.782084629020765" lon="9.75431302886095"><ele>959.0000000000001</ele><time>2026-03-28T10:36:31.002Z</time></trkpt><trkpt lat="45.78203944801432" lon="9.754198867749844"><ele>959.0</ele><time>2026-03-28T10:36:32.002Z</time></trkpt><trkpt lat="45.78200764961632" lon="9.754082907146374"><ele>960.0</ele><time>2026-03-28T10:36:33.002Z</time></trkpt><trkpt lat="45.78196709324848" lon="9.753961615446817"><ele>961.0000000000001</ele><time>2026-03-28T10:36:34.002Z</time></trkpt><trkpt lat="45.78192913047097" lon="9.75382850504929"><ele>962.0000000000001</ele><time>2026-03-28T10:36:35.002Z</time></trkpt><trkpt lat="45.78189597021513" lon="9.753687777478385"><ele>963.0</ele><time>2026-03-28T10:36:36.002Z</time></trkpt><trkpt lat="45.7818592830262" lon="9.753557811260489"><ele>964.0</ele><time>2026-03-28T10:36:37.002Z</time></trkpt><trkpt lat="45.78182932594123" lon="9.753415368921289"><ele>961.0</ele><time>2026-03-28T10:36:38.002Z</time></trkpt><trkpt lat="45.78180286057934" lon="9.753264387752045"><ele>958.0000000000001</ele><time>2026-03-28T10:36:39.002Z</time></trkpt><trkpt lat="45.781771794105694" lon="9.753118525132674"><ele>955.0000000000001</ele><time>2026-03-28T10:36:40.002Z</time></trkpt><trkpt lat="45.78173970719903" lon="9.752971576527809"><ele>952.0</ele><time>2026-03-28T10:36:41.002Z</time></trkpt><trkpt lat="45.78171754420982" lon="9.752813776762379"><ele>949.0</ele><time>2026-03-28T10:36:42.002Z</time></trkpt><trkpt lat="45.78170018222541" lon="9.752652100831169"><ele>948.6</ele><time>2026-03-28T10:36:43.002Z</time></trkpt><trkpt lat="45.78167447973138" lon="9.752492140600166"><ele>948.2</ele><time>2026-03-28T10:36:44.002Z</time></trkpt><trkpt lat="45.781651764016104" lon="9.752342441681778"><ele>947.8000000000001</ele><time>2026-03-28T10:36:45.002Z</time></trkpt><trkpt lat="45.78161388074979" lon="9.752213651304341"><ele>947.4000000000001</ele><time>2026-03-28T10:36:46.002Z</time></trkpt><trkpt lat="45.781559935179516" lon="9.752110980346702"><ele>947.0</ele><time>2026-03-28T10:36:47.002Z</time></trkpt><trkpt lat="45.78151357712698" lon="9.752017589413025"><ele>947.0000000000001</ele><time>2026-03-28T10:36:48.002Z</time></trkpt><trkpt lat="45.78144117427101" lon="9.751929366106065"><ele>947.0</ele><time>2026-03-28T10:36:50.002Z</time></trkpt><trkpt lat="45.78142664421024" lon="9.75205489759568"><ele>947.0</ele><time>2026-03-28T10:36:56.003Z</time></trkpt><trkpt lat="45.78146736838915" lon="9.752145560020205"><ele>947.0</ele><time>2026-03-28T10:36:57.003Z</time></trkpt><trkpt lat="45.781521760577974" lon="9.75224676281139"><ele>947.0000000000001</ele><time>2026-03-28T10:36:58.003Z</time></trkpt><trkpt lat="45.78157328347222" lon="9.752353260386736"><ele>947.0</ele><time>2026-03-28T10:36:59.003Z</time></trkpt><trkpt lat="45.78160916328495" lon="9.752462279762813"><ele>947.0000000000001</ele><time>2026-03-28T10:37:00.003Z</time></trkpt><trkpt lat="45.781627903033865" lon="9.752570664139155"><ele>947.0</ele><time>2026-03-28T10:37:01.003Z</time></trkpt><trkpt lat="45.78163389192116" lon="9.752700095498453"><ele>947.0</ele><time>2026-03-28T10:37:02.003Z</time></trkpt><trkpt lat="45.78163502758659" lon="9.752834292816326"><ele>947.0</ele><time>2026-03-28T10:37:03.003Z</time></trkpt><trkpt lat="45.78163438921654" lon="9.75296934424069"><ele>947.0000000000001</ele><time>2026-03-28T10:37:04.003Z</time></trkpt><trkpt lat="45.78163218604553" lon="9.753101142808514"><ele>947.0</ele><time>2026-03-28T10:37:05.003Z</time></trkpt><trkpt lat="45.78162661372756" lon="9.753235859990369"><ele>947.3333333333334</ele><time>2026-03-28T10:37:06.003Z</time></trkpt><trkpt lat="45.78161587083994" lon="9.753365825821364"><ele>947.6666666666667</ele><time>2026-03-28T10:37:07.003Z</time></trkpt><trkpt lat="45.78161330734592" lon="9.753495813090106"><ele>948.0</ele><time>2026-03-28T10:37:08.003Z</time></trkpt><trkpt lat="45.78160715632773" lon="9.753615117789282"><ele>948.3333333333333</ele><time>2026-03-28T10:37:09.003Z</time></trkpt><trkpt lat="45.78160336283228" lon="9.753741833504352"><ele>948.6666666666666</ele><time>2026-03-28T10:37:10.003Z</time></trkpt><trkpt lat="45.781601446348844" lon="9.753873962338393"><ele>949.0</ele><time>2026-03-28T10:37:11.003Z</time></trkpt><trkpt lat="45.781599318101094" lon="9.754015062443345"><ele>949.8000000000001</ele><time>2026-03-28T10:37:12.003Z</time></trkpt><trkpt lat="45.78159794847973" lon="9.754153569714596"><ele>950.6000000000001</ele><time>2026-03-28T10:37:13.003Z</time></trkpt><trkpt lat="45.78159617321342" lon="9.754296543906174"><ele>951.4</ele><time>2026-03-28T10:37:14.003Z</time></trkpt><trkpt lat="45.781597680345314" lon="9.754427215645856"><ele>952.2</ele><time>2026-03-28T10:37:15.003Z</time></trkpt><trkpt lat="45.78159679626583" lon="9.754560425892853"><ele>953.0</ele><time>2026-03-28T10:37:16.003Z</time></trkpt><trkpt lat="45.78161685798971" lon="9.754691197944593"><ele>953.0000000000001</ele><time>2026-03-28T10:37:17.003Z</time></trkpt><trkpt lat="45.78164904768807" lon="9.754810029428883"><ele>953.0</ele><time>2026-03-28T10:37:18.003Z</time></trkpt><trkpt lat="45.78170050393368" lon="9.75491484689987"><ele>953.0</ele><time>2026-03-28T10:37:19.003Z</time></trkpt><trkpt lat="45.78176868221046" lon="9.75498833494089"><ele>953.0</ele><time>2026-03-28T10:37:20.003Z</time></trkpt><trkpt lat="45.78182922423048" lon="9.755059612556842"><ele>953.0000000000001</ele><time>2026-03-28T10:37:21.003Z</time></trkpt><trkpt lat="45.78188315447103" lon="9.75512404730648"><ele>953.0</ele><time>2026-03-28T10:37:22.003Z</time></trkpt><trkpt lat="45.781971375778376" lon="9.755238950368225"><ele>953.4</ele><time>2026-03-28T10:37:24.003Z</time></trkpt><trkpt lat="45.78206088135439" lon="9.755364040597275"><ele>953.8</ele><time>2026-03-28T10:37:26.003Z</time></trkpt><trkpt lat="45.7821444506766" lon="9.755481676593167"><ele>954.2</ele><time>2026-03-28T10:37:28.003Z</time></trkpt><trkpt lat="45.78220788934554" lon="9.75558258074843"><ele>954.6</ele><time>2026-03-28T10:37:30.003Z</time></trkpt><trkpt lat="45.78227507159879" lon="9.755660810363599"><ele>955.0</ele><time>2026-03-28T10:37:32.003Z</time></trkpt><trkpt lat="45.782325051742745" lon="9.755728908940284"><ele>954.9999999999999</ele><time>2026-03-28T10:37:35.003Z</time></trkpt><trkpt lat="45.78238996370505" lon="9.755764498461321"><ele>955.0</ele><time>2026-03-28T10:41:14.005Z</time></trkpt><trkpt lat="45.782351794019704" lon="9.755848155994547"><ele>955.0</ele><time>2026-03-28T10:41:32.005Z</time></trkpt><trkpt lat="45.78230855818977" lon="9.755914144281709"><ele>955.0</ele><time>2026-03-28T10:41:46.141Z</time></trkpt><trkpt lat="45.78227839065324" lon="9.75603575371561"><ele>954.9999999999999</ele><time>2026-03-28T10:41:49.144Z</time></trkpt><trkpt lat="45.78222219322417" lon="9.756124645817566"><ele>955.0</ele><time>2026-03-28T10:41:52.143Z</time></trkpt><trkpt lat="45.782200729951974" lon="9.75622926495604"><ele>953.5</ele><time>2026-03-28T10:41:58.141Z</time></trkpt><trkpt lat="45.78217336694403" lon="9.756328767490064"><ele>952.0</ele><time>2026-03-28T10:42:03.143Z</time></trkpt><trkpt lat="45.78207207500524" lon="9.756875819024167"><ele>950.5</ele><time>2026-03-28T10:42:04.144Z</time></trkpt><trkpt lat="45.782049261443916" lon="9.757006285313956"><ele>949.0</ele><time>2026-03-28T10:42:05.144Z</time></trkpt><trkpt lat="45.782257793709945" lon="9.75587069327362"><ele>950.2</ele><time>2026-03-28T10:43:07.894Z</time></trkpt><trkpt lat="45.78226781535637" lon="9.75576788756699"><ele>951.4000000000001</ele><time>2026-03-28T10:48:43.587Z</time></trkpt><trkpt lat="45.782384337575735" lon="9.755675878807054"><ele>952.6</ele><time>2026-03-28T10:48:45.011Z</time></trkpt><trkpt lat="45.78231078697406" lon="9.755765880613533"><ele>953.8</ele><time>2026-03-28T10:48:59.011Z</time></trkpt><trkpt lat="45.782372806990885" lon="9.755683332095236"><ele>955.0</ele><time>2026-03-28T10:51:47.013Z</time></trkpt><trkpt lat="45.782332391655316" lon="9.755754747714088"><ele>954.9999999999999</ele><time>2026-03-28T10:51:50.013Z</time></trkpt><trkpt lat="45.78229698010955" lon="9.755847540965288"><ele>955.0</ele><time>2026-03-28T10:51:52.013Z</time></trkpt><trkpt lat="45.78232229202664" lon="9.755748468662416"><ele>954.9999999999999</ele><time>2026-03-28T10:52:26.013Z</time></trkpt><trkpt lat="45.78224960014945" lon="9.755760706029601"><ele>954.9999999999999</ele><time>2026-03-28T10:53:35.002Z</time></trkpt><trkpt lat="45.78231254506068" lon="9.755716300248734"><ele>955.0</ele><time>2026-03-28T10:54:14.003Z</time></trkpt><trkpt lat="45.782391536568625" lon="9.75567888205482"><ele>954.9999999999999</ele><time>2026-03-28T10:54:45.003Z</time></trkpt><trkpt lat="45.78234487871551" lon="9.755609150801796"><ele>954.9999999999999</ele><time>2026-03-28T10:55:42.001Z</time></trkpt><trkpt lat="45.78241287219506" lon="9.755600458897549"><ele>954.9999999999999</ele><time>2026-03-28T10:56:50.002Z</time></trkpt><trkpt lat="45.782327667023594" lon="9.755648762130171"><ele>955.0</ele><time>2026-03-28T10:58:40.002Z</time></trkpt><trkpt lat="45.78228475358381" lon="9.755721517443112"><ele>955.0</ele><time>2026-03-28T10:59:37.001Z</time></trkpt><trkpt lat="45.78222359178049" lon="9.755673700710297"><ele>955.0</ele><time>2026-03-28T10:59:54.001Z</time></trkpt><trkpt lat="45.782280718349" lon="9.755719374508407"><ele>954.9999999999999</ele><time>2026-03-28T11:00:26.001Z</time></trkpt><trkpt lat="45.78235070206378" lon="9.755736374720152"><ele>955.0</ele><time>2026-03-28T11:00:34.001Z</time></trkpt><trkpt lat="45.782421390210274" lon="9.75581494551155"><ele>955.0</ele><time>2026-03-28T11:05:41.999Z</time></trkpt><trkpt lat="45.78245662184715" lon="9.755990382048585"><ele>955.0</ele><time>2026-03-28T11:05:43.999Z</time></trkpt><trkpt lat="45.78247728645778" lon="9.756124079576253"><ele>955.0</ele><time>2026-03-28T11:05:44.999Z</time></trkpt><trkpt lat="45.782473647496474" lon="9.756248382906104"><ele>955.0</ele><time>2026-03-28T11:05:45.999Z</time></trkpt><trkpt lat="45.782458859917035" lon="9.756355196074596"><ele>955.0</ele><time>2026-03-28T11:05:46.999Z</time></trkpt><trkpt lat="45.78243210880807" lon="9.75646209393631"><ele>954.4</ele><time>2026-03-28T11:05:47.999Z</time></trkpt><trkpt lat="45.78239721566921" lon="9.756575561295808"><ele>953.8</ele><time>2026-03-28T11:05:48.999Z</time></trkpt><trkpt lat="45.7823586519095" lon="9.756741390229207"><ele>953.2</ele><time>2026-03-28T11:05:50.999Z</time></trkpt><trkpt lat="45.782397930750314" lon="9.756922109511729"><ele>952.6</ele><time>2026-03-28T11:05:52.999Z</time></trkpt><trkpt lat="45.782440157502705" lon="9.75700796368204"><ele>952.0</ele><time>2026-03-28T11:05:53.999Z</time></trkpt><trkpt lat="45.78248842454499" lon="9.757079944995265"><ele>951.4999999999999</ele><time>2026-03-28T11:05:54.999Z</time></trkpt><trkpt lat="45.782557084944386" lon="9.757129019141251"><ele>951.0</ele><time>2026-03-28T11:05:55.999Z</time></trkpt><trkpt lat="45.78262994842678" lon="9.757156868155377"><ele>950.5</ele><time>2026-03-28T11:05:56.999Z</time></trkpt><trkpt lat="45.78271368374973" lon="9.75718258815148"><ele>950.0</ele><time>2026-03-28T11:05:57.999Z</time></trkpt><trkpt lat="45.78279919830582" lon="9.757179279802138"><ele>949.4999999999999</ele><time>2026-03-28T11:05:58.999Z</time></trkpt><trkpt lat="45.782891775996895" lon="9.757165116574921"><ele>949.0</ele><time>2026-03-28T11:05:59.999Z</time></trkpt><trkpt lat="45.78298371445016" lon="9.75714769168643"><ele>946.8000000000001</ele><time>2026-03-28T11:06:00.999Z</time></trkpt><trkpt lat="45.783082791835" lon="9.75709421588903"><ele>944.6000000000001</ele><time>2026-03-28T11:06:01.999Z</time></trkpt><trkpt lat="45.783166092134906" lon="9.757040993224425"><ele>942.4</ele><time>2026-03-28T11:06:02.999Z</time></trkpt><trkpt lat="45.783255935216154" lon="9.756981651246138"><ele>940.2</ele><time>2026-03-28T11:06:04Z</time></trkpt><trkpt lat="45.783349904182025" lon="9.756926863942274"><ele>938.0</ele><time>2026-03-28T11:06:05Z</time></trkpt><trkpt lat="45.78344029935824" lon="9.756881000147235"><ele>939.1666666666667</ele><time>2026-03-28T11:06:06Z</time></trkpt><trkpt lat="45.78352135715444" lon="9.756845810066585"><ele>940.3333333333334</ele><time>2026-03-28T11:06:07Z</time></trkpt><trkpt lat="45.78357389323003" lon="9.756791123239674"><ele>941.5</ele><time>2026-03-28T11:06:08Z</time></trkpt><trkpt lat="45.78364523751016" lon="9.75673032805251"><ele>942.6666666666667</ele><time>2026-03-28T11:06:10Z</time></trkpt><trkpt lat="45.78369581458692" lon="9.756669292248253"><ele>943.8333333333334</ele><time>2026-03-28T11:06:12Z</time></trkpt><trkpt lat="45.783813006604525" lon="9.756599383383044"><ele>945.0</ele><time>2026-03-28T11:06:14Z</time></trkpt><trkpt lat="45.78386353917581" lon="9.756545361502237"><ele>945.0</ele><time>2026-03-28T11:06:15Z</time></trkpt><trkpt lat="45.783925883048404" lon="9.75651337813037"><ele>945.0</ele><time>2026-03-28T11:06:16Z</time></trkpt><trkpt lat="45.783999204223264" lon="9.756488294977801"><ele>945.0</ele><time>2026-03-28T11:06:17Z</time></trkpt><trkpt lat="45.78407100157253" lon="9.756477556951568"><ele>945.0</ele><time>2026-03-28T11:06:18Z</time></trkpt><trkpt lat="45.78417072375794" lon="9.7564486606626"><ele>945.0</ele><time>2026-03-28T11:06:19Z</time></trkpt><trkpt lat="45.7842699395649" lon="9.756437469168805"><ele>945.0</ele><time>2026-03-28T11:06:20Z</time></trkpt><trkpt lat="45.78434982656325" lon="9.756431753320129"><ele>944.8571428571429</ele><time>2026-03-28T11:06:21Z</time></trkpt><trkpt lat="45.78442183613416" lon="9.756423581921778"><ele>944.7142857142858</ele><time>2026-03-28T11:06:22Z</time></trkpt><trkpt lat="45.78449380174581" lon="9.756405587371397"><ele>944.5714285714286</ele><time>2026-03-28T11:06:23Z</time></trkpt><trkpt lat="45.78457799531171" lon="9.756384599267927"><ele>944.4285714285714</ele><time>2026-03-28T11:06:24Z</time></trkpt><trkpt lat="45.78464681569915" lon="9.756350310186663"><ele>944.2857142857143</ele><time>2026-03-28T11:06:25Z</time></trkpt><trkpt lat="45.78470785949369" lon="9.756324687404"><ele>944.1428571428571</ele><time>2026-03-28T11:06:26Z</time></trkpt><trkpt lat="45.78476227629585" lon="9.75627658874707"><ele>944.0</ele><time>2026-03-28T11:06:27Z</time></trkpt><trkpt lat="45.784835945993805" lon="9.756282725093206"><ele>944.0</ele><time>2026-03-28T11:06:28Z</time></trkpt><trkpt lat="45.7849338028338" lon="9.756304036093889"><ele>944.0000000000001</ele><time>2026-03-28T11:06:29Z</time></trkpt><trkpt lat="45.785046627661494" lon="9.75632172186485"><ele>944.0000000000001</ele><time>2026-03-28T11:06:31Z</time></trkpt><trkpt lat="45.78516352270229" lon="9.756337267017337"><ele>944.0</ele><time>2026-03-28T11:06:33Z</time></trkpt><trkpt lat="45.78523201997971" lon="9.756359646681334"><ele>944.0</ele><time>2026-03-28T11:06:34Z</time></trkpt><trkpt lat="45.78529371126765" lon="9.756377940476778"><ele>944.5000000000001</ele><time>2026-03-28T11:06:35Z</time></trkpt><trkpt lat="45.78535341334914" lon="9.7564305722135"><ele>945.0</ele><time>2026-03-28T11:06:36Z</time></trkpt><trkpt lat="45.7854286063339" lon="9.756476001572867"><ele>945.5</ele><time>2026-03-28T11:06:37Z</time></trkpt><trkpt lat="45.78548907529562" lon="9.756559391368668"><ele>946.0</ele><time>2026-03-28T11:06:38Z</time></trkpt><trkpt lat="45.78555247225898" lon="9.756630340947188"><ele>946.5000000000001</ele><time>2026-03-28T11:06:39Z</time></trkpt><trkpt lat="45.785632431162526" lon="9.7567165940262"><ele>947.0</ele><time>2026-03-28T11:06:40Z</time></trkpt><trkpt lat="45.78571520658903" lon="9.756810013169435"><ele>947.0000000000001</ele><time>2026-03-28T11:06:41Z</time></trkpt><trkpt lat="45.78578818671357" lon="9.756898912026871"><ele>947.0</ele><time>2026-03-28T11:06:42Z</time></trkpt><trkpt lat="45.785849732630666" lon="9.75699168341672"><ele>947.0</ele><time>2026-03-28T11:06:43Z</time></trkpt><trkpt lat="45.78591440164162" lon="9.757081817001072"><ele>947.0</ele><time>2026-03-28T11:06:44Z</time></trkpt><trkpt lat="45.78597400549303" lon="9.757173117731964"><ele>947.0000000000001</ele><time>2026-03-28T11:06:45Z</time></trkpt><trkpt lat="45.786041387475336" lon="9.75725082389095"><ele>947.0</ele><time>2026-03-28T11:06:46Z</time></trkpt><trkpt lat="45.78610909948188" lon="9.757311471019841"><ele>948.2</ele><time>2026-03-28T11:06:47Z</time></trkpt><trkpt lat="45.786187294448474" lon="9.757379816850767"><ele>949.4000000000001</ele><time>2026-03-28T11:06:49Z</time></trkpt><trkpt lat="45.78627533631749" lon="9.757445573149994"><ele>950.5999999999999</ele><time>2026-03-28T11:06:52Z</time></trkpt><trkpt lat="45.78632638079779" lon="9.757510986239987"><ele>951.8</ele><time>2026-03-28T11:06:53Z</time></trkpt><trkpt lat="45.786390718268116" lon="9.757649006709444"><ele>953.0</ele><time>2026-03-28T11:06:54Z</time></trkpt><trkpt lat="45.78648111044234" lon="9.757798373412259"><ele>953.0</ele><time>2026-03-28T11:06:55Z</time></trkpt><trkpt lat="45.78655717400483" lon="9.757929084249895"><ele>953.0</ele><time>2026-03-28T11:06:56Z</time></trkpt><trkpt lat="45.78664671004711" lon="9.758080288199329"><ele>953.0</ele><time>2026-03-28T11:06:57Z</time></trkpt><trkpt lat="45.7867530089882" lon="9.758258807624463"><ele>953.0</ele><time>2026-03-28T11:06:58Z</time></trkpt><trkpt lat="45.786837718717514" lon="9.758413717649999"><ele>960.25</ele><time>2026-03-28T11:06:59Z</time></trkpt><trkpt lat="45.78691793647754" lon="9.75858830162281"><ele>967.5</ele><time>2026-03-28T11:07:00Z</time></trkpt><trkpt lat="45.78699971569017" lon="9.758741642913686"><ele>974.75</ele><time>2026-03-28T11:07:01Z</time></trkpt><trkpt lat="45.78707997363973" lon="9.758896003778462"><ele>982.0</ele><time>2026-03-28T11:07:02Z</time></trkpt><trkpt lat="45.787163999074764" lon="9.759065498059467"><ele>982.0</ele><time>2026-03-28T11:07:03Z</time></trkpt><trkpt lat="45.78724371944677" lon="9.759244685212368"><ele>982.0</ele><time>2026-03-28T11:07:04Z</time></trkpt><trkpt lat="45.78732261699699" lon="9.759430987317804"><ele>982.0</ele><time>2026-03-28T11:07:05Z</time></trkpt><trkpt lat="45.7873867574944" lon="9.759642129825576"><ele>982.5</ele><time>2026-03-28T11:07:06Z</time></trkpt><trkpt lat="45.78743879795401" lon="9.759837368860568"><ele>983.0</ele><time>2026-03-28T11:07:07Z</time></trkpt><trkpt lat="45.78749225455705" lon="9.76000688299694"><ele>983.5</ele><time>2026-03-28T11:07:08Z</time></trkpt><trkpt lat="45.78757578193045" lon="9.760144806591027"><ele>984.0</ele><time>2026-03-28T11:07:09Z</time></trkpt><trkpt lat="45.7877045347657" lon="9.760282933451409"><ele>984.0</ele><time>2026-03-28T11:07:10Z</time></trkpt><trkpt lat="45.787840936532824" lon="9.760400475434796"><ele>984.0</ele><time>2026-03-28T11:07:11Z</time></trkpt><trkpt lat="45.787989894826" lon="9.760505092341742"><ele>984.0</ele><time>2026-03-28T11:07:12Z</time></trkpt><trkpt lat="45.7881353152733" lon="9.760588854940398"><ele>984.0</ele><time>2026-03-28T11:07:13Z</time></trkpt><trkpt lat="45.788278228982584" lon="9.760673850643999"><ele>984.0</ele><time>2026-03-28T11:07:14Z</time></trkpt><trkpt lat="45.7884135919476" lon="9.760762678555464"><ele>984.0</ele><time>2026-03-28T11:07:15Z</time></trkpt><trkpt lat="45.788549760124766" lon="9.760851696983678"><ele>989.5</ele><time>2026-03-28T11:07:16Z</time></trkpt><trkpt lat="45.78868493229898" lon="9.760954730669972"><ele>995.0</ele><time>2026-03-28T11:07:17Z</time></trkpt><trkpt lat="45.788799011826974" lon="9.761075277226148"><ele>1000.5</ele><time>2026-03-28T11:07:18Z</time></trkpt><trkpt lat="45.78889099820793" lon="9.761202810573643"><ele>1006.0</ele><time>2026-03-28T11:07:19Z</time></trkpt><trkpt lat="45.78898545967724" lon="9.761330201744071"><ele>1006.0</ele><time>2026-03-28T11:07:20Z</time></trkpt><trkpt lat="45.78904951813799" lon="9.761483933507217"><ele>1006.0</ele><time>2026-03-28T11:07:21Z</time></trkpt><trkpt lat="45.78910542447292" lon="9.761629204214268"><ele>1006.0</ele><time>2026-03-28T11:07:22Z</time></trkpt><trkpt lat="45.7891661081232" lon="9.761792884193165"><ele>1006.0</ele><time>2026-03-28T11:07:22.999Z</time></trkpt><trkpt lat="45.78923433037982" lon="9.76193256840917"><ele>1005.6666666666666</ele><time>2026-03-28T11:07:23.999Z</time></trkpt><trkpt lat="45.78933065799882" lon="9.762032515876639"><ele>1005.3333333333333</ele><time>2026-03-28T11:07:24.999Z</time></trkpt><trkpt lat="45.78948489132825" lon="9.762107853454875"><ele>1005.0</ele><time>2026-03-28T11:07:25.999Z</time></trkpt><trkpt lat="45.78963727053541" lon="9.7622139679306"><ele>1007.6666666666667</ele><time>2026-03-28T11:07:26.999Z</time></trkpt><trkpt lat="45.78976098119362" lon="9.762352910958823"><ele>1010.3333333333334</ele><time>2026-03-28T11:07:27.999Z</time></trkpt><trkpt lat="45.78987591781625" lon="9.762518133722134"><ele>1013.0</ele><time>2026-03-28T11:07:28.999Z</time></trkpt><trkpt lat="45.78996735919124" lon="9.762692837906922"><ele>1013.0</ele><time>2026-03-28T11:07:29.999Z</time></trkpt><trkpt lat="45.790051367227" lon="9.762862492198552"><ele>1013.0</ele><time>2026-03-28T11:07:30.999Z</time></trkpt><trkpt lat="45.790132532904245" lon="9.763046870369527"><ele>1013.0</ele><time>2026-03-28T11:07:31.999Z</time></trkpt><trkpt lat="45.79020710621421" lon="9.76325705611676"><ele>1014.0</ele><time>2026-03-28T11:07:32.999Z</time></trkpt><trkpt lat="45.79028134013385" lon="9.763474674736825"><ele>1015.0</ele><time>2026-03-28T11:07:33.999Z</time></trkpt><trkpt lat="45.79035953908782" lon="9.763685773194856"><ele>1016.0</ele><time>2026-03-28T11:07:34.999Z</time></trkpt><trkpt lat="45.79046082258369" lon="9.763869510765385"><ele>1016.0</ele><time>2026-03-28T11:07:35.999Z</time></trkpt><trkpt lat="45.79059945055996" lon="9.764043062418411"><ele>1016.0</ele><time>2026-03-28T11:07:36.999Z</time></trkpt><trkpt lat="45.790749938643366" lon="9.764180484576576"><ele>1016.0</ele><time>2026-03-28T11:07:37.999Z</time></trkpt><trkpt lat="45.790896977430904" lon="9.764343375519271"><ele>1015.6666666666667</ele><time>2026-03-28T11:07:38.999Z</time></trkpt><trkpt lat="45.79103552942501" lon="9.764496532119551"><ele>1015.3333333333333</ele><time>2026-03-28T11:07:39.999Z</time></trkpt><trkpt lat="45.791165618590156" lon="9.764651545636623"><ele>1015.0</ele><time>2026-03-28T11:07:40.999Z</time></trkpt><trkpt lat="45.791304620880304" lon="9.76481601865333"><ele>1015.0</ele><time>2026-03-28T11:07:41.999Z</time></trkpt><trkpt lat="45.791433766740155" lon="9.764969142634447"><ele>1015.0</ele><time>2026-03-28T11:07:42.999Z</time></trkpt><trkpt lat="45.79157327481254" lon="9.765131305161185"><ele>1015.0</ele><time>2026-03-28T11:07:43.999Z</time></trkpt><trkpt lat="45.79171341106155" lon="9.765316269618644"><ele>1014.6666666666666</ele><time>2026-03-28T11:07:44.999Z</time></trkpt><trkpt lat="45.79185113496332" lon="9.765499345362118"><ele>1014.3333333333333</ele><time>2026-03-28T11:07:45.999Z</time></trkpt><trkpt lat="45.791981451924585" lon="9.765656197412977"><ele>1014.0</ele><time>2026-03-28T11:07:46.999Z</time></trkpt><trkpt lat="45.792083795038316" lon="9.76581993687494"><ele>1014.0</ele><time>2026-03-28T11:07:47.999Z</time></trkpt><trkpt lat="45.79217240351887" lon="9.765994202795762"><ele>1014.0</ele><time>2026-03-28T11:07:48.999Z</time></trkpt><trkpt lat="45.79225321327" lon="9.766163619710104"><ele>1014.0</ele><time>2026-03-28T11:07:49.999Z</time></trkpt><trkpt lat="45.79230857208866" lon="9.76633304535793"><ele>1014.0</ele><time>2026-03-28T11:07:50.999Z</time></trkpt><trkpt lat="45.792370880461476" lon="9.766492863275658"><ele>1014.0</ele><time>2026-03-28T11:07:51.999Z</time></trkpt><trkpt lat="45.79244474252308" lon="9.766650244475366"><ele>1014.0</ele><time>2026-03-28T11:07:52.999Z</time></trkpt><trkpt lat="45.79252934758107" lon="9.766816339380581"><ele>1014.0</ele><time>2026-03-28T11:07:53.999Z</time></trkpt><trkpt lat="45.79263166651545" lon="9.76696514568308"><ele>1014.0</ele><time>2026-03-28T11:07:54.999Z</time></trkpt><trkpt lat="45.79274448320662" lon="9.767118715210131"><ele>1011.75</ele><time>2026-03-28T11:07:55.999Z</time></trkpt><trkpt lat="45.79285961663116" lon="9.767259860461827"><ele>1009.5</ele><time>2026-03-28T11:07:56.999Z</time></trkpt><trkpt lat="45.792971998632964" lon="9.767399441112383"><ele>1007.25</ele><time>2026-03-28T11:07:57.999Z</time></trkpt><trkpt lat="45.79306762957458" lon="9.767554524393027"><ele>1005.0</ele><time>2026-03-28T11:07:58.999Z</time></trkpt><trkpt lat="45.7931548541778" lon="9.767674402477468"><ele>1006.3333333333334</ele><time>2026-03-28T11:07:59.999Z</time></trkpt><trkpt lat="45.79319563109323" lon="9.767779076754243"><ele>1007.6666666666667</ele><time>2026-03-28T11:08:00.999Z</time></trkpt><trkpt lat="45.793211973550044" lon="9.767887036176475"><ele>1009.0</ele><time>2026-03-28T11:08:01.999Z</time></trkpt><trkpt lat="45.7932144995511" lon="9.767978524510191"><ele>1010.3333333333334</ele><time>2026-03-28T11:08:02.999Z</time></trkpt><trkpt lat="45.79329832834257" lon="9.768068511398246"><ele>1011.6666666666667</ele><time>2026-03-28T11:08:04.999Z</time></trkpt><trkpt lat="45.7933892907296" lon="9.768133097736284"><ele>1013.0</ele><time>2026-03-28T11:08:05.999Z</time></trkpt><trkpt lat="45.793453721283804" lon="9.768267228469847"><ele>1013.25</ele><time>2026-03-28T11:08:06.999Z</time></trkpt><trkpt lat="45.793522496535665" lon="9.76843083122243"><ele>1013.5</ele><time>2026-03-28T11:08:07.999Z</time></trkpt><trkpt lat="45.79358849261511" lon="9.768567255359732"><ele>1013.75</ele><time>2026-03-28T11:08:08.999Z</time></trkpt><trkpt lat="45.79366238025371" lon="9.768719437103039"><ele>1014.0</ele><time>2026-03-28T11:08:09.999Z</time></trkpt><trkpt lat="45.793762748552915" lon="9.76889385227586"><ele>1014.0</ele><time>2026-03-28T11:08:10.999Z</time></trkpt><trkpt lat="45.79386055107153" lon="9.76904255267291"><ele>1014.0</ele><time>2026-03-28T11:08:11.999Z</time></trkpt><trkpt lat="45.79396352435372" lon="9.769170080805756"><ele>1014.0</ele><time>2026-03-28T11:08:12.999Z</time></trkpt><trkpt lat="45.794049673897376" lon="9.769294373296034"><ele>1014.0</ele><time>2026-03-28T11:08:13.999Z</time></trkpt><trkpt lat="45.79413095270402" lon="9.769443484174689"><ele>1013.0</ele><time>2026-03-28T11:08:14.999Z</time></trkpt><trkpt lat="45.794206584658106" lon="9.769613621699676"><ele>1012.0</ele><time>2026-03-28T11:08:15.999Z</time></trkpt><trkpt lat="45.79426901151437" lon="9.769774149721801"><ele>1011.0</ele><time>2026-03-28T11:08:16.999Z</time></trkpt><trkpt lat="45.79433101221006" lon="9.769930291818115"><ele>1010.0</ele><time>2026-03-28T11:08:17.999Z</time></trkpt><trkpt lat="45.794403008257305" lon="9.770068434849684"><ele>1012.4</ele><time>2026-03-28T11:08:18.999Z</time></trkpt><trkpt lat="45.79446521048445" lon="9.770194306549262"><ele>1014.8</ele><time>2026-03-28T11:08:19.999Z</time></trkpt><trkpt lat="45.79454233203128" lon="9.770300878503031"><ele>1017.2</ele><time>2026-03-28T11:08:20.999Z</time></trkpt><trkpt lat="45.79462063331961" lon="9.770396200272101"><ele>1019.6</ele><time>2026-03-28T11:08:21.999Z</time></trkpt><trkpt lat="45.79473447562283" lon="9.770444320435631"><ele>1022.0</ele><time>2026-03-28T11:08:22.999Z</time></trkpt><trkpt lat="45.79485189910507" lon="9.770465052049023"><ele>1022.0</ele><time>2026-03-28T11:08:23.999Z</time></trkpt><trkpt lat="45.794955157282885" lon="9.770524687855712"><ele>1022.0</ele><time>2026-03-28T11:08:24.999Z</time></trkpt><trkpt lat="45.795051010491285" lon="9.770609586298118"><ele>1022.0</ele><time>2026-03-28T11:08:25.999Z</time></trkpt><trkpt lat="45.79514299507531" lon="9.770697008964415"><ele>1022.0</ele><time>2026-03-28T11:08:26.999Z</time></trkpt><trkpt lat="45.795238550423356" lon="9.770802603457009"><ele>1019.75</ele><time>2026-03-28T11:08:27.999Z</time></trkpt><trkpt lat="45.79533666016345" lon="9.770913612855049"><ele>1017.5</ele><time>2026-03-28T11:08:28.999Z</time></trkpt><trkpt lat="45.79542469443762" lon="9.771027208334742"><ele>1015.25</ele><time>2026-03-28T11:08:29.999Z</time></trkpt><trkpt lat="45.79550820017827" lon="9.771136529235376"><ele>1013.0</ele><time>2026-03-28T11:08:30.999Z</time></trkpt><trkpt lat="45.79558231556409" lon="9.771234730058636"><ele>1013.0</ele><time>2026-03-28T11:08:31.999Z</time></trkpt><trkpt lat="45.7956566911488" lon="9.771329950063055"><ele>1013.0</ele><time>2026-03-28T11:08:32.999Z</time></trkpt><trkpt lat="45.7957342770212" lon="9.77142385803419"><ele>1013.0</ele><time>2026-03-28T11:08:33.999Z</time></trkpt><trkpt lat="45.795826129429116" lon="9.771531737176073"><ele>1013.0</ele><time>2026-03-28T11:08:35Z</time></trkpt><trkpt lat="45.79592295634808" lon="9.771640848334512"><ele>1013.0</ele><time>2026-03-28T11:08:36Z</time></trkpt><trkpt lat="45.796024823302076" lon="9.771761675124694"><ele>1013.25</ele><time>2026-03-28T11:08:37Z</time></trkpt><trkpt lat="45.79613283265386" lon="9.771874189642537"><ele>1013.5</ele><time>2026-03-28T11:08:38Z</time></trkpt><trkpt lat="45.796245013917606" lon="9.77198144600505"><ele>1013.75</ele><time>2026-03-28T11:08:39Z</time></trkpt><trkpt lat="45.796373021532865" lon="9.77207180680843"><ele>1014.0</ele><time>2026-03-28T11:08:40Z</time></trkpt><trkpt lat="45.79650727649715" lon="9.772169169627754"><ele>1014.0</ele><time>2026-03-28T11:08:41Z</time></trkpt><trkpt lat="45.796628788514525" lon="9.772264222468605"><ele>1014.0</ele><time>2026-03-28T11:08:42Z</time></trkpt><trkpt lat="45.796754003752355" lon="9.772358902009733"><ele>1014.0</ele><time>2026-03-28T11:08:43Z</time></trkpt><trkpt lat="45.79686881666049" lon="9.772450479236685"><ele>1014.0</ele><time>2026-03-28T11:08:44Z</time></trkpt><trkpt lat="45.79699156631511" lon="9.772548362368369"><ele>1010.0</ele><time>2026-03-28T11:08:45Z</time></trkpt><trkpt lat="45.79714033926409" lon="9.772630473454685"><ele>1006.0</ele><time>2026-03-28T11:08:46Z</time></trkpt><trkpt lat="45.79731299230469" lon="9.772688205146755"><ele>1002.0</ele><time>2026-03-28T11:08:47Z</time></trkpt><trkpt lat="45.797496073910814" lon="9.772730012486615"><ele>1014.0</ele><time>2026-03-28T11:08:48Z</time></trkpt><trkpt lat="45.79766873593052" lon="9.772736567627195"><ele>1026.0</ele><time>2026-03-28T11:08:49Z</time></trkpt><trkpt lat="45.7978483894895" lon="9.772731760597983"><ele>1038.0</ele><time>2026-03-28T11:08:50Z</time></trkpt><trkpt lat="45.79801421701761" lon="9.772711899064669"><ele>1025.6666666666667</ele><time>2026-03-28T11:08:51Z</time></trkpt><trkpt lat="45.798179780811715" lon="9.772676254872529"><ele>1013.3333333333334</ele><time>2026-03-28T11:08:52Z</time></trkpt><trkpt lat="45.798344275639344" lon="9.772641993157485"><ele>1001.0</ele><time>2026-03-28T11:08:53Z</time></trkpt><trkpt lat="45.79849809161387" lon="9.772559634519578"><ele>1007.0</ele><time>2026-03-28T11:08:54Z</time></trkpt><trkpt lat="45.79866399914079" lon="9.772432838856746"><ele>1013.0</ele><time>2026-03-28T11:08:55Z</time></trkpt><trkpt lat="45.79882776863997" lon="9.772338071869523"><ele>1019.0</ele><time>2026-03-28T11:08:56Z</time></trkpt><trkpt lat="45.798979735992475" lon="9.7722776968631"><ele>1019.0</ele><time>2026-03-28T11:08:57Z</time></trkpt><trkpt lat="45.79912000405596" lon="9.772237110202557"><ele>1019.0</ele><time>2026-03-28T11:08:58Z</time></trkpt><trkpt lat="45.799256633248305" lon="9.772161632384687"><ele>1019.0</ele><time>2026-03-28T11:08:59Z</time></trkpt><trkpt lat="45.7993958800847" lon="9.772024010031195"><ele>1018.25</ele><time>2026-03-28T11:09:00Z</time></trkpt><trkpt lat="45.79953299218504" lon="9.77188594583318"><ele>1017.5</ele><time>2026-03-28T11:09:01Z</time></trkpt><trkpt lat="45.79966122937692" lon="9.771768282577131"><ele>1016.75</ele><time>2026-03-28T11:09:02Z</time></trkpt><trkpt lat="45.79975684801534" lon="9.771676354724704"><ele>1016.0</ele><time>2026-03-28T11:09:03Z</time></trkpt><trkpt lat="45.799848370284884" lon="9.771600453685293"><ele>1016.0</ele><time>2026-03-28T11:09:04Z</time></trkpt><trkpt lat="45.7999278374617" lon="9.771504454866804"><ele>1015.9999999999999</ele><time>2026-03-28T11:09:05Z</time></trkpt><trkpt lat="45.80000092665952" lon="9.771419240859762"><ele>1015.9999999999999</ele><time>2026-03-28T11:09:06Z</time></trkpt><trkpt lat="45.8000627979604" lon="9.77131256960192"><ele>1016.0</ele><time>2026-03-28T11:09:07Z</time></trkpt><trkpt lat="45.80009161596734" lon="9.771151930463168"><ele>1016.0</ele><time>2026-03-28T11:09:08Z</time></trkpt><trkpt lat="45.800117988360576" lon="9.770986457840538"><ele>1016.75</ele><time>2026-03-28T11:09:09Z</time></trkpt><trkpt lat="45.80012302649506" lon="9.770820982927296"><ele>1017.5</ele><time>2026-03-28T11:09:10Z</time></trkpt><trkpt lat="45.8001675283017" lon="9.770706345832922"><ele>1018.25</ele><time>2026-03-28T11:09:11Z</time></trkpt><trkpt lat="45.80025882958819" lon="9.77058428597141"><ele>1019.0</ele><time>2026-03-28T11:09:12Z</time></trkpt><trkpt lat="45.80036987894929" lon="9.770461495156713"><ele>1019.0</ele><time>2026-03-28T11:09:13Z</time></trkpt><trkpt lat="45.800474235977006" lon="9.770344015740353"><ele>1019.0</ele><time>2026-03-28T11:09:14Z</time></trkpt><trkpt lat="45.80059947033995" lon="9.77022763660298"><ele>1019.0</ele><time>2026-03-28T11:09:15Z</time></trkpt><trkpt lat="45.80070556873115" lon="9.77010282855548"><ele>1019.0</ele><time>2026-03-28T11:09:16Z</time></trkpt><trkpt lat="45.800805208171084" lon="9.769975443513758"><ele>1017.5</ele><time>2026-03-28T11:09:17Z</time></trkpt><trkpt lat="45.8009065078728" lon="9.769852404950463"><ele>1016.0</ele><time>2026-03-28T11:09:18Z</time></trkpt><trkpt lat="45.801021684635344" lon="9.76973777806944"><ele>1014.5</ele><time>2026-03-28T11:09:19Z</time></trkpt><trkpt lat="45.80113320294887" lon="9.769621703040967"><ele>1013.0</ele><time>2026-03-28T11:09:20Z</time></trkpt><trkpt lat="45.80123382372889" lon="9.769501121263087"><ele>1016.25</ele><time>2026-03-28T11:09:21Z</time></trkpt><trkpt lat="45.801321160100606" lon="9.769374577732059"><ele>1019.5</ele><time>2026-03-28T11:09:22Z</time></trkpt><trkpt lat="45.80139887130207" lon="9.769247021464073"><ele>1022.75</ele><time>2026-03-28T11:09:23Z</time></trkpt><trkpt lat="45.80145675169198" lon="9.769085669059319"><ele>1026.0</ele><time>2026-03-28T11:09:24Z</time></trkpt><trkpt lat="45.80148335801754" lon="9.768908929518295"><ele>1026.0</ele><time>2026-03-28T11:09:25Z</time></trkpt><trkpt lat="45.80145950954558" lon="9.768699523490948"><ele>1026.0</ele><time>2026-03-28T11:09:26Z</time></trkpt><trkpt lat="45.801423757964514" lon="9.768498194342696"><ele>1026.0</ele><time>2026-03-28T11:09:27Z</time></trkpt><trkpt lat="45.80143022033786" lon="9.768339100813966"><ele>1026.0</ele><time>2026-03-28T11:09:28Z</time></trkpt><trkpt lat="45.80146975374961" lon="9.768228847077815"><ele>1025.6</ele><time>2026-03-28T11:09:28.999Z</time></trkpt><trkpt lat="45.80152487947814" lon="9.768158078869952"><ele>1025.1999999999998</ele><time>2026-03-28T11:09:29.999Z</time></trkpt><trkpt lat="45.801620106277404" lon="9.768103397252787"><ele>1024.8000000000002</ele><time>2026-03-28T11:09:30.999Z</time></trkpt><trkpt lat="45.8017331022732" lon="9.768092457322336"><ele>1024.4</ele><time>2026-03-28T11:09:31.999Z</time></trkpt><trkpt lat="45.801838982594546" lon="9.768123929895475"><ele>1024.0</ele><time>2026-03-28T11:09:32.998Z</time></trkpt><trkpt lat="45.80192614952298" lon="9.76816741872874"><ele>1025.4</ele><time>2026-03-28T11:09:33.998Z</time></trkpt><trkpt lat="45.802023347621784" lon="9.768179193752468"><ele>1026.8000000000002</ele><time>2026-03-28T11:09:34.998Z</time></trkpt><trkpt lat="45.80211216814866" lon="9.768166663449401"><ele>1028.1999999999998</ele><time>2026-03-28T11:09:35.999Z</time></trkpt><trkpt lat="45.80218049161421" lon="9.768067393106882"><ele>1029.6</ele><time>2026-03-28T11:09:36.999Z</time></trkpt><trkpt lat="45.80221267297071" lon="9.76788117684462"><ele>1031.0</ele><time>2026-03-28T11:09:37.998Z</time></trkpt><trkpt lat="45.80224054709399" lon="9.767667376577663"><ele>1031.0</ele><time>2026-03-28T11:09:38.999Z</time></trkpt><trkpt lat="45.802271329544766" lon="9.76745956298235"><ele>1031.0</ele><time>2026-03-28T11:09:39.999Z</time></trkpt><trkpt lat="45.802314189259945" lon="9.767250721769729"><ele>1031.0</ele><time>2026-03-28T11:09:40.998Z</time></trkpt><trkpt lat="45.80235759085588" lon="9.767035024745963"><ele>1024.3333333333335</ele><time>2026-03-28T11:09:41.999Z</time></trkpt><trkpt lat="45.80242926843889" lon="9.766826291822857"><ele>1017.6666666666667</ele><time>2026-03-28T11:09:42.999Z</time></trkpt><trkpt lat="45.80248738091711" lon="9.766621004515697"><ele>1011.0</ele><time>2026-03-28T11:09:43.999Z</time></trkpt><trkpt lat="45.8025655340688" lon="9.766426110086801"><ele>1011.0</ele><time>2026-03-28T11:09:44.999Z</time></trkpt><trkpt lat="45.80263098624261" lon="9.766278063203563"><ele>1011.0</ele><time>2026-03-28T11:09:45.999Z</time></trkpt><trkpt lat="45.8026648696897" lon="9.766129429076184"><ele>1011.0</ele><time>2026-03-28T11:09:46.999Z</time></trkpt><trkpt lat="45.80266880762958" lon="9.765961069920262"><ele>1011.0</ele><time>2026-03-28T11:09:47.999Z</time></trkpt><trkpt lat="45.802636372973126" lon="9.765769322684582"><ele>1012.75</ele><time>2026-03-28T11:09:48.999Z</time></trkpt><trkpt lat="45.80262493801333" lon="9.765590329429925"><ele>1014.5</ele><time>2026-03-28T11:09:49.999Z</time></trkpt><trkpt lat="45.80265296286236" lon="9.765417101924182"><ele>1016.25</ele><time>2026-03-28T11:09:50.999Z</time></trkpt><trkpt lat="45.80271923669565" lon="9.76527964289124"><ele>1018.0</ele><time>2026-03-28T11:09:51.999Z</time></trkpt><trkpt lat="45.802815283479305" lon="9.765190356328729"><ele>1018.0</ele><time>2026-03-28T11:09:52.999Z</time></trkpt><trkpt lat="45.80292580163249" lon="9.765143824741397"><ele>1018.0</ele><time>2026-03-28T11:09:53.999Z</time></trkpt><trkpt lat="45.803042118657494" lon="9.76509329767738"><ele>1018.0</ele><time>2026-03-28T11:09:54.999Z</time></trkpt><trkpt lat="45.8031273487268" lon="9.76499965382697"><ele>1018.0</ele><time>2026-03-28T11:09:55.999Z</time></trkpt><trkpt lat="45.80317673712952" lon="9.764830432699291"><ele>1018.0</ele><time>2026-03-28T11:09:56.999Z</time></trkpt><trkpt lat="45.803192952989626" lon="9.764613808227693"><ele>1018.0</ele><time>2026-03-28T11:09:57.999Z</time></trkpt><trkpt lat="45.80320894110772" lon="9.764407231387981"><ele>1018.0</ele><time>2026-03-28T11:09:58.999Z</time></trkpt><trkpt lat="45.80321744259251" lon="9.764220550365547"><ele>1018.0</ele><time>2026-03-28T11:09:59.999Z</time></trkpt><trkpt lat="45.80324087699612" lon="9.764081411719543"><ele>1012.25</ele><time>2026-03-28T11:10:00.999Z</time></trkpt><trkpt lat="45.80330097768162" lon="9.763963950628547"><ele>1006.5</ele><time>2026-03-28T11:10:01.999Z</time></trkpt><trkpt lat="45.80334655028429" lon="9.763821426325404"><ele>1000.75</ele><time>2026-03-28T11:10:02.999Z</time></trkpt><trkpt lat="45.803353741420906" lon="9.763647348534322"><ele>995.0</ele><time>2026-03-28T11:10:03.999Z</time></trkpt><trkpt lat="45.80331337960553" lon="9.76348069948963"><ele>990.75</ele><time>2026-03-28T11:10:04.999Z</time></trkpt><trkpt lat="45.80328827201409" lon="9.76332418340048"><ele>986.5</ele><time>2026-03-28T11:10:05.999Z</time></trkpt><trkpt lat="45.80330033308162" lon="9.763167476021705"><ele>982.25</ele><time>2026-03-28T11:10:06.999Z</time></trkpt><trkpt lat="45.80335527727174" lon="9.76301406031165"><ele>978.0</ele><time>2026-03-28T11:10:07.999Z</time></trkpt><trkpt lat="45.80344056328681" lon="9.762894294664125"><ele>982.4</ele><time>2026-03-28T11:10:08.999Z</time></trkpt><trkpt lat="45.803553439251395" lon="9.76279984868588"><ele>986.8</ele><time>2026-03-28T11:10:09.999Z</time></trkpt><trkpt lat="45.80365566407176" lon="9.762733493552497"><ele>991.2</ele><time>2026-03-28T11:10:10.999Z</time></trkpt><trkpt lat="45.80374915306187" lon="9.76267161713364"><ele>995.6</ele><time>2026-03-28T11:10:11.999Z</time></trkpt><trkpt lat="45.80381065320111" lon="9.762564581585998"><ele>1000.0</ele><time>2026-03-28T11:10:12.999Z</time></trkpt><trkpt lat="45.80383945581065" lon="9.762392361427597"><ele>1000.0</ele><time>2026-03-28T11:10:13.999Z</time></trkpt><trkpt lat="45.803845736829686" lon="9.762199801950585"><ele>1000.0</ele><time>2026-03-28T11:10:14.999Z</time></trkpt><trkpt lat="45.80387074122707" lon="9.762038636235387"><ele>1000.0</ele><time>2026-03-28T11:10:15.999Z</time></trkpt><trkpt lat="45.803948187882206" lon="9.761837589083255"><ele>1000.0</ele><time>2026-03-28T11:10:16.999Z</time></trkpt><trkpt lat="45.80406245396483" lon="9.761633219328115"><ele>1004.6666666666666</ele><time>2026-03-28T11:10:17.999Z</time></trkpt><trkpt lat="45.80417848594517" lon="9.761464884731986"><ele>1009.3333333333333</ele><time>2026-03-28T11:10:18.999Z</time></trkpt><trkpt lat="45.80429772755687" lon="9.761297610598332"><ele>1014.0</ele><time>2026-03-28T11:10:19.999Z</time></trkpt><trkpt lat="45.804400503526864" lon="9.761138843301405"><ele>1005.25</ele><time>2026-03-28T11:10:20.999Z</time></trkpt><trkpt lat="45.80451419545569" lon="9.760992627627674"><ele>996.5</ele><time>2026-03-28T11:10:21.999Z</time></trkpt><trkpt lat="45.80459597938845" lon="9.760844136181664"><ele>987.75</ele><time>2026-03-28T11:10:22.999Z</time></trkpt><trkpt lat="45.80471261452726" lon="9.760707259185361"><ele>979.0</ele><time>2026-03-28T11:10:23.999Z</time></trkpt><trkpt lat="45.8048134741917" lon="9.760571501315512"><ele>979.0</ele><time>2026-03-28T11:10:24.999Z</time></trkpt><trkpt lat="45.804910973537105" lon="9.76043731194335"><ele>979.0</ele><time>2026-03-28T11:10:25.999Z</time></trkpt><trkpt lat="45.80499920549749" lon="9.76029155009341"><ele>979.0</ele><time>2026-03-28T11:10:26.999Z</time></trkpt><trkpt lat="45.80509073039324" lon="9.760123754528953"><ele>979.0</ele><time>2026-03-28T11:10:27.999Z</time></trkpt><trkpt lat="45.805179818858655" lon="9.759926680902863"><ele>977.0</ele><time>2026-03-28T11:10:28.999Z</time></trkpt><trkpt lat="45.805277687574936" lon="9.75973974103628"><ele>975.0</ele><time>2026-03-28T11:10:29.999Z</time></trkpt><trkpt lat="45.805382426568926" lon="9.75958772790592"><ele>973.0</ele><time>2026-03-28T11:10:31Z</time></trkpt><trkpt lat="45.80549002331133" lon="9.759442889865896"><ele>963.6666666666666</ele><time>2026-03-28T11:10:32Z</time></trkpt><trkpt lat="45.805627326747086" lon="9.759334953350068"><ele>954.3333333333333</ele><time>2026-03-28T11:10:33Z</time></trkpt><trkpt lat="45.80576439891945" lon="9.759258358571218"><ele>945.0</ele><time>2026-03-28T11:10:34Z</time></trkpt><trkpt lat="45.8059177872281" lon="9.759208774761502"><ele>944.0</ele><time>2026-03-28T11:10:35Z</time></trkpt><trkpt lat="45.806062301497896" lon="9.759190379968148"><ele>943.0</ele><time>2026-03-28T11:10:36Z</time></trkpt><trkpt lat="45.8062142667615" lon="9.759209767735749"><ele>942.0</ele><time>2026-03-28T11:10:37Z</time></trkpt><trkpt lat="45.80637924622881" lon="9.75925787954303"><ele>950.6666666666667</ele><time>2026-03-28T11:10:38Z</time></trkpt><trkpt lat="45.80652473384684" lon="9.759367582266345"><ele>959.3333333333334</ele><time>2026-03-28T11:10:39Z</time></trkpt><trkpt lat="45.806658345463646" lon="9.759494618224878"><ele>968.0</ele><time>2026-03-28T11:10:40Z</time></trkpt><trkpt lat="45.80676517259672" lon="9.759608646611872"><ele>964.4</ele><time>2026-03-28T11:10:41Z</time></trkpt><trkpt lat="45.8068514622435" lon="9.759703718930332"><ele>960.8</ele><time>2026-03-28T11:10:42Z</time></trkpt><trkpt lat="45.80693487423926" lon="9.759759965565472"><ele>957.2</ele><time>2026-03-28T11:10:43Z</time></trkpt><trkpt lat="45.807005719812395" lon="9.7597829334291"><ele>953.6</ele><time>2026-03-28T11:10:44Z</time></trkpt><trkpt lat="45.807102447917465" lon="9.759746247847024"><ele>950.0</ele><time>2026-03-28T11:10:45Z</time></trkpt><trkpt lat="45.80721769745099" lon="9.759656013073398"><ele>950.0</ele><time>2026-03-28T11:10:46Z</time></trkpt><trkpt lat="45.80731194068289" lon="9.759609873510529"><ele>950.0</ele><time>2026-03-28T11:10:47Z</time></trkpt><trkpt lat="45.807392236773886" lon="9.759630468989517"><ele>950.0</ele><time>2026-03-28T11:10:48Z</time></trkpt><trkpt lat="45.807510196214004" lon="9.759694157515625"><ele>950.0</ele><time>2026-03-28T11:10:49Z</time></trkpt><trkpt lat="45.80763409186129" lon="9.759776608550544"><ele>950.0</ele><time>2026-03-28T11:10:50Z</time></trkpt><trkpt lat="45.80775693915445" lon="9.759899237490783"><ele>948.0</ele><time>2026-03-28T11:10:51Z</time></trkpt><trkpt lat="45.8078650260955" lon="9.760003392806107"><ele>946.0</ele><time>2026-03-28T11:10:52Z</time></trkpt><trkpt lat="45.807962825653846" lon="9.760147789158115"><ele>944.0</ele><time>2026-03-28T11:10:53Z</time></trkpt><trkpt lat="45.80803983925675" lon="9.760289118276484"><ele>942.0</ele><time>2026-03-28T11:10:54Z</time></trkpt><trkpt lat="45.80808867674446" lon="9.760451995683121"><ele>942.0</ele><time>2026-03-28T11:10:55Z</time></trkpt><trkpt lat="45.80812383584892" lon="9.760611376800698"><ele>942.0</ele><time>2026-03-28T11:10:56Z</time></trkpt><trkpt lat="45.80817044754285" lon="9.760769538360247"><ele>942.0</ele><time>2026-03-28T11:10:57Z</time></trkpt><trkpt lat="45.80823236750622" lon="9.760908431572087"><ele>942.0</ele><time>2026-03-28T11:10:58Z</time></trkpt><trkpt lat="45.808330982224064" lon="9.761019261509167"><ele>948.0</ele><time>2026-03-28T11:10:59Z</time></trkpt><trkpt lat="45.8084622412736" lon="9.761105568756388"><ele>954.0</ele><time>2026-03-28T11:11:00Z</time></trkpt><trkpt lat="45.808596367764345" lon="9.761159871976195"><ele>960.0</ele><time>2026-03-28T11:11:01Z</time></trkpt><trkpt lat="45.80870422856958" lon="9.761219373919504"><ele>966.0</ele><time>2026-03-28T11:11:02Z</time></trkpt><trkpt lat="45.808801677207974" lon="9.761267980735918"><ele>966.0</ele><time>2026-03-28T11:11:03Z</time></trkpt><trkpt lat="45.808907144583465" lon="9.761324430920503"><ele>966.0</ele><time>2026-03-28T11:11:04Z</time></trkpt><trkpt lat="45.80901365073188" lon="9.761322717043626"><ele>966.0</ele><time>2026-03-28T11:11:05Z</time></trkpt><trkpt lat="45.80914427025431" lon="9.761201296808604"><ele>966.0</ele><time>2026-03-28T11:11:06Z</time></trkpt><trkpt lat="45.80928743580176" lon="9.76107180093205"><ele>963.6666666666667</ele><time>2026-03-28T11:11:07Z</time></trkpt><trkpt lat="45.8094337743384" lon="9.76091535352041"><ele>961.3333333333334</ele><time>2026-03-28T11:11:08Z</time></trkpt><trkpt lat="45.80956621313831" lon="9.760766177043315"><ele>959.0</ele><time>2026-03-28T11:11:09Z</time></trkpt><trkpt lat="45.809671522133804" lon="9.760611571108775"><ele>959.0</ele><time>2026-03-28T11:11:10Z</time></trkpt><trkpt lat="45.80976912157391" lon="9.760478660995927"><ele>959.0</ele><time>2026-03-28T11:11:11Z</time></trkpt><trkpt lat="45.80984714202394" lon="9.760312033463764"><ele>959.0</ele><time>2026-03-28T11:11:12Z</time></trkpt><trkpt lat="45.80993070397408" lon="9.760094443643741"><ele>959.0</ele><time>2026-03-28T11:11:13Z</time></trkpt><trkpt lat="45.810025381547455" lon="9.759889285305835"><ele>950.6666666666667</ele><time>2026-03-28T11:11:14Z</time></trkpt><trkpt lat="45.81011641325131" lon="9.759680140409262"><ele>942.3333333333333</ele><time>2026-03-28T11:11:15Z</time></trkpt><trkpt lat="45.810226614421374" lon="9.75948649035894"><ele>934.0</ele><time>2026-03-28T11:11:16Z</time></trkpt><trkpt lat="45.810319464597676" lon="9.759302220992208"><ele>932.6</ele><time>2026-03-28T11:11:17Z</time></trkpt><trkpt lat="45.81040571337482" lon="9.759137589196982"><ele>931.2</ele><time>2026-03-28T11:11:18Z</time></trkpt><trkpt lat="45.81049035314421" lon="9.75899902227011"><ele>929.8000000000001</ele><time>2026-03-28T11:11:19Z</time></trkpt><trkpt lat="45.81054252845527" lon="9.758896290964104"><ele>928.4000000000001</ele><time>2026-03-28T11:11:20Z</time></trkpt><trkpt lat="45.81059343698496" lon="9.758819998568693"><ele>927.0</ele><time>2026-03-28T11:11:21Z</time></trkpt><trkpt lat="45.81066038849977" lon="9.758783846052797"><ele>927.0</ele><time>2026-03-28T11:11:22Z</time></trkpt><trkpt lat="45.81073046830062" lon="9.758802572033728"><ele>927.0</ele><time>2026-03-28T11:11:23Z</time></trkpt><trkpt lat="45.810824245770036" lon="9.758890485448491"><ele>927.0</ele><time>2026-03-28T11:11:24Z</time></trkpt><trkpt lat="45.810914599472284" lon="9.758995324461921"><ele>927.0</ele><time>2026-03-28T11:11:25Z</time></trkpt><trkpt lat="45.81101261924452" lon="9.759125163350523"><ele>927.0</ele><time>2026-03-28T11:11:26Z</time></trkpt><trkpt lat="45.81109841578055" lon="9.75925689774025"><ele>917.5</ele><time>2026-03-28T11:11:27Z</time></trkpt><trkpt lat="45.81114109299341" lon="9.75937067751098"><ele>908.0</ele><time>2026-03-28T11:11:28Z</time></trkpt><trkpt lat="45.811154447509395" lon="9.759541828540646"><ele>898.5</ele><time>2026-03-28T11:11:29Z</time></trkpt><trkpt lat="45.8111560405366" lon="9.759740435345636"><ele>889.0</ele><time>2026-03-28T11:11:30Z</time></trkpt><trkpt lat="45.81117064511423" lon="9.759924952583741"><ele>889.0</ele><time>2026-03-28T11:11:31Z</time></trkpt><trkpt lat="45.81121836679872" lon="9.760126997348742"><ele>889.0</ele><time>2026-03-28T11:11:32Z</time></trkpt><trkpt lat="45.81130488209946" lon="9.760348739327677"><ele>889.0</ele><time>2026-03-28T11:11:33Z</time></trkpt><trkpt lat="45.811368756693604" lon="9.760587348321836"><ele>893.5</ele><time>2026-03-28T11:11:34Z</time></trkpt><trkpt lat="45.81144222779945" lon="9.760772644271658"><ele>898.0</ele><time>2026-03-28T11:11:34.999Z</time></trkpt><trkpt lat="45.81149459298621" lon="9.76091984471004"><ele>902.5</ele><time>2026-03-28T11:11:35.999Z</time></trkpt><trkpt lat="45.81151264747705" lon="9.76110986682299"><ele>907.0</ele><time>2026-03-28T11:11:36.999Z</time></trkpt><trkpt lat="45.81154201922241" lon="9.761372658849737"><ele>908.6666666666666</ele><time>2026-03-28T11:11:37.998Z</time></trkpt><trkpt lat="45.811563389697774" lon="9.761644085394963"><ele>910.3333333333333</ele><time>2026-03-28T11:11:38.998Z</time></trkpt><trkpt lat="45.811574561471666" lon="9.761915405167617"><ele>912.0</ele><time>2026-03-28T11:11:39.998Z</time></trkpt><trkpt lat="45.81159183347848" lon="9.762158208029662"><ele>915.6</ele><time>2026-03-28T11:11:40.998Z</time></trkpt><trkpt lat="45.81161272946403" lon="9.76231934907629"><ele>919.2</ele><time>2026-03-28T11:11:41.999Z</time></trkpt><trkpt lat="45.81163076198844" lon="9.76245196530175"><ele>922.8</ele><time>2026-03-28T11:11:42.999Z</time></trkpt><trkpt lat="45.81167450434491" lon="9.762553165851592"><ele>926.4</ele><time>2026-03-28T11:11:43.998Z</time></trkpt><trkpt lat="45.81180245723647" lon="9.762657030382755"><ele>930.0</ele><time>2026-03-28T11:11:44.998Z</time></trkpt><trkpt lat="45.81197215576472" lon="9.762679961345286"><ele>924.5</ele><time>2026-03-28T11:11:45.998Z</time></trkpt><trkpt lat="45.812081813356805" lon="9.762724137813475"><ele>919.0</ele><time>2026-03-28T11:11:46.999Z</time></trkpt><trkpt lat="45.81217277099698" lon="9.76283249936106"><ele>913.5</ele><time>2026-03-28T11:11:47.998Z</time></trkpt><trkpt lat="45.81226011112869" lon="9.762986958187277"><ele>908.0</ele><time>2026-03-28T11:11:48.998Z</time></trkpt><trkpt lat="45.81232307522535" lon="9.763152076804891"><ele>908.0</ele><time>2026-03-28T11:11:49.998Z</time></trkpt><trkpt lat="45.812353385509" lon="9.763319472205485"><ele>908.0</ele><time>2026-03-28T11:11:50.998Z</time></trkpt><trkpt lat="45.81236015435349" lon="9.76347985258711"><ele>908.0</ele><time>2026-03-28T11:11:51.998Z</time></trkpt><trkpt lat="45.81239102644545" lon="9.763622647956884"><ele>908.0</ele><time>2026-03-28T11:11:52.998Z</time></trkpt><trkpt lat="45.8124431291153" lon="9.763744784652376"><ele>908.0</ele><time>2026-03-28T11:11:53.998Z</time></trkpt><trkpt lat="45.81253083443233" lon="9.763794325167295"><ele>908.0</ele><time>2026-03-28T11:11:54.998Z</time></trkpt><trkpt lat="45.812629632108695" lon="9.763773085284575"><ele>908.0</ele><time>2026-03-28T11:11:55.998Z</time></trkpt><trkpt lat="45.81277638019468" lon="9.763714824458969"><ele>908.0</ele><time>2026-03-28T11:11:56.998Z</time></trkpt><trkpt lat="45.81291662616772" lon="9.763612443144119"><ele>908.0</ele><time>2026-03-28T11:11:57.998Z</time></trkpt><trkpt lat="45.813062079872445" lon="9.763510081074967"><ele>908.0</ele><time>2026-03-28T11:11:58.998Z</time></trkpt><trkpt lat="45.81317802650893" lon="9.763441459447526"><ele>908.0</ele><time>2026-03-28T11:11:59.998Z</time></trkpt><trkpt lat="45.813294955246825" lon="9.763366971165487"><ele>908.0</ele><time>2026-03-28T11:12:00.998Z</time></trkpt><trkpt lat="45.81341896149266" lon="9.76327228913837"><ele>908.0</ele><time>2026-03-28T11:12:01.998Z</time></trkpt><trkpt lat="45.813513447600265" lon="9.763137964099311"><ele>906.0</ele><time>2026-03-28T11:12:02.998Z</time></trkpt><trkpt lat="45.81359793194188" lon="9.76297747771665"><ele>904.0</ele><time>2026-03-28T11:12:03.998Z</time></trkpt><trkpt lat="45.8136752531199" lon="9.762822056122454"><ele>902.0</ele><time>2026-03-28T11:12:04.998Z</time></trkpt><trkpt lat="45.81374683748807" lon="9.762666283432129"><ele>900.0</ele><time>2026-03-28T11:12:05.998Z</time></trkpt><trkpt lat="45.813825287056865" lon="9.762514541865384"><ele>900.0</ele><time>2026-03-28T11:12:06.999Z</time></trkpt><trkpt lat="45.813917135219306" lon="9.762393089322382"><ele>900.0</ele><time>2026-03-28T11:12:07.999Z</time></trkpt><trkpt lat="45.81402350940002" lon="9.76229203528974"><ele>900.0</ele><time>2026-03-28T11:12:08.999Z</time></trkpt><trkpt lat="45.814109548733825" lon="9.762203269493027"><ele>900.0</ele><time>2026-03-28T11:12:09.999Z</time></trkpt><trkpt lat="45.81421307482543" lon="9.762109768245022"><ele>900.0</ele><time>2026-03-28T11:12:10.999Z</time></trkpt><trkpt lat="45.81429782716903" lon="9.761995448160372"><ele>900.0</ele><time>2026-03-28T11:12:11.999Z</time></trkpt><trkpt lat="45.814380603189925" lon="9.761870594166393"><ele>900.0</ele><time>2026-03-28T11:12:12.999Z</time></trkpt><trkpt lat="45.814471346776614" lon="9.761749502782221"><ele>900.0</ele><time>2026-03-28T11:12:13.999Z</time></trkpt><trkpt lat="45.81455750314781" lon="9.761642031278706"><ele>898.75</ele><time>2026-03-28T11:12:14.999Z</time></trkpt><trkpt lat="45.814648290707105" lon="9.761538446645057"><ele>897.5</ele><time>2026-03-28T11:12:15.999Z</time></trkpt><trkpt lat="45.81477024698494" lon="9.761430558787234"><ele>896.25</ele><time>2026-03-28T11:12:16.999Z</time></trkpt><trkpt lat="45.814918356097586" lon="9.761363151365092"><ele>895.0</ele><time>2026-03-28T11:12:17.999Z</time></trkpt><trkpt lat="45.81505211211179" lon="9.761300055408023"><ele>894.0</ele><time>2026-03-28T11:12:18.999Z</time></trkpt><trkpt lat="45.81517459966959" lon="9.761235537632725"><ele>893.0</ele><time>2026-03-28T11:12:19.999Z</time></trkpt><trkpt lat="45.81529277573683" lon="9.761178332069091"><ele>892.0</ele><time>2026-03-28T11:12:20.999Z</time></trkpt><trkpt lat="45.815415891819285" lon="9.761151221998754"><ele>891.0</ele><time>2026-03-28T11:12:21.999Z</time></trkpt><trkpt lat="45.8155463850248" lon="9.761164598084013"><ele>891.0</ele><time>2026-03-28T11:12:22.999Z</time></trkpt><trkpt lat="45.81570827848331" lon="9.761209334284349"><ele>891.0</ele><time>2026-03-28T11:12:23.999Z</time></trkpt><trkpt lat="45.815860997421574" lon="9.761276173687698"><ele>891.0</ele><time>2026-03-28T11:12:24.999Z</time></trkpt><trkpt lat="45.81600457030488" lon="9.76135290993653"><ele>883.6666666666667</ele><time>2026-03-28T11:12:25.999Z</time></trkpt><trkpt lat="45.8161430002077" lon="9.761443247419596"><ele>876.3333333333334</ele><time>2026-03-28T11:12:26.999Z</time></trkpt><trkpt lat="45.816271419408615" lon="9.761558377848422"><ele>869.0</ele><time>2026-03-28T11:12:27.999Z</time></trkpt><trkpt lat="45.816385738899925" lon="9.761692007044813"><ele>869.0</ele><time>2026-03-28T11:12:28.999Z</time></trkpt><trkpt lat="45.81649328608663" lon="9.76182882515059"><ele>869.0</ele><time>2026-03-28T11:12:29.999Z</time></trkpt><trkpt lat="45.816586280909" lon="9.761954239522073"><ele>869.0</ele><time>2026-03-28T11:12:30.999Z</time></trkpt><trkpt lat="45.81668560155563" lon="9.762072017008714"><ele>869.0</ele><time>2026-03-28T11:12:31.999Z</time></trkpt><trkpt lat="45.81678296716134" lon="9.762213943476073"><ele>874.2</ele><time>2026-03-28T11:12:32.999Z</time></trkpt><trkpt lat="45.8168639083048" lon="9.762367165070147"><ele>879.4000000000001</ele><time>2026-03-28T11:12:33.999Z</time></trkpt><trkpt lat="45.816924780721905" lon="9.762523657498036"><ele>884.6</ele><time>2026-03-28T11:12:34.999Z</time></trkpt><trkpt lat="45.81697666899967" lon="9.76264002061284"><ele>889.8</ele><time>2026-03-28T11:12:35.999Z</time></trkpt><trkpt lat="45.81702949094077" lon="9.762723370513703"><ele>895.0</ele><time>2026-03-28T11:12:36.999Z</time></trkpt><trkpt lat="45.817108599620646" lon="9.76276911240264"><ele>895.0</ele><time>2026-03-28T11:12:37.999Z</time></trkpt><trkpt lat="45.817199264554986" lon="9.762736916564842"><ele>895.0</ele><time>2026-03-28T11:12:38.999Z</time></trkpt><trkpt lat="45.81726171727781" lon="9.762619053786816"><ele>895.0</ele><time>2026-03-28T11:12:39.999Z</time></trkpt><trkpt lat="45.81733385094827" lon="9.762453408499189"><ele>895.0</ele><time>2026-03-28T11:12:40.999Z</time></trkpt><trkpt lat="45.817386140968374" lon="9.762271255555314"><ele>895.0</ele><time>2026-03-28T11:12:41.999Z</time></trkpt><trkpt lat="45.817422877394456" lon="9.7620654246218"><ele>895.0</ele><time>2026-03-28T11:12:42.999Z</time></trkpt><trkpt lat="45.81741762351084" lon="9.761871830855702"><ele>895.0</ele><time>2026-03-28T11:12:43.999Z</time></trkpt><trkpt lat="45.81740648065723" lon="9.761691019894565"><ele>895.0</ele><time>2026-03-28T11:12:44.999Z</time></trkpt><trkpt lat="45.81737904297363" lon="9.761509290701522"><ele>890.75</ele><time>2026-03-28T11:12:45.999Z</time></trkpt><trkpt lat="45.81739499686755" lon="9.761325724650696"><ele>886.5</ele><time>2026-03-28T11:12:46.999Z</time></trkpt><trkpt lat="45.81744379651353" lon="9.761128311013795"><ele>882.25</ele><time>2026-03-28T11:12:47.999Z</time></trkpt><trkpt lat="45.81749634990589" lon="9.760962496903215"><ele>878.0</ele><time>2026-03-28T11:12:48.999Z</time></trkpt><trkpt lat="45.817545338798766" lon="9.76081107575532"><ele>874.2</ele><time>2026-03-28T11:12:49.999Z</time></trkpt><trkpt lat="45.81759956884613" lon="9.760715083000946"><ele>870.4</ele><time>2026-03-28T11:12:50.999Z</time></trkpt><trkpt lat="45.81769402402156" lon="9.76063839581825"><ele>866.6000000000001</ele><time>2026-03-28T11:12:51.999Z</time></trkpt><trkpt lat="45.81780260199186" lon="9.760566350995186"><ele>862.8000000000001</ele><time>2026-03-28T11:12:52.999Z</time></trkpt><trkpt lat="45.81789180038085" lon="9.760473157893225"><ele>859.0</ele><time>2026-03-28T11:12:53.999Z</time></trkpt><trkpt lat="45.81796184529871" lon="9.760382961325227"><ele>866.3333333333333</ele><time>2026-03-28T11:12:54.999Z</time></trkpt><trkpt lat="45.817990326234465" lon="9.760279453737098"><ele>873.6666666666666</ele><time>2026-03-28T11:12:55.999Z</time></trkpt><trkpt lat="45.81796574098469" lon="9.760156292516314"><ele>881.0</ele><time>2026-03-28T11:12:56.999Z</time></trkpt><trkpt lat="45.817909108503905" lon="9.760054277241633"><ele>888.3333333333333</ele><time>2026-03-28T11:12:57.999Z</time></trkpt><trkpt lat="45.817869374350124" lon="9.759954943089966"><ele>895.6666666666666</ele><time>2026-03-28T11:12:58.999Z</time></trkpt><trkpt lat="45.81783327474972" lon="9.759871937792854"><ele>903.0</ele><time>2026-03-28T11:12:59.999Z</time></trkpt><trkpt lat="45.8178039690575" lon="9.759738268642813"><ele>903.0</ele><time>2026-03-28T11:13:01.999Z</time></trkpt><trkpt lat="45.81778450770231" lon="9.75962743109027"><ele>903.0</ele><time>2026-03-28T11:13:04.999Z</time></trkpt><trkpt lat="45.81780866261922" lon="9.759455619615432"><ele>903.0</ele><time>2026-03-28T11:13:06.999Z</time></trkpt><trkpt lat="45.817842372525256" lon="9.759321596600058"><ele>903.0</ele><time>2026-03-28T11:13:07.999Z</time></trkpt><trkpt lat="45.8178765779899" lon="9.759185560291867"><ele>903.0</ele><time>2026-03-28T11:13:08.999Z</time></trkpt><trkpt lat="45.81789045040201" lon="9.75904943820073"><ele>903.0</ele><time>2026-03-28T11:13:09.999Z</time></trkpt><trkpt lat="45.817919446459946" lon="9.75892717668887"><ele>903.0</ele><time>2026-03-28T11:13:10.999Z</time></trkpt><trkpt lat="45.81796861291684" lon="9.758810665930513"><ele>903.0</ele><time>2026-03-28T11:13:11.999Z</time></trkpt><trkpt lat="45.818044294507125" lon="9.758704147050896"><ele>903.0</ele><time>2026-03-28T11:13:12.999Z</time></trkpt><trkpt lat="45.818117016253524" lon="9.758609933630906"><ele>903.0</ele><time>2026-03-28T11:13:13.999Z</time></trkpt><trkpt lat="45.81817112586747" lon="9.758506509330298"><ele>900.8333333333334</ele><time>2026-03-28T11:13:14.999Z</time></trkpt><trkpt lat="45.81820233357159" lon="9.75840075008382"><ele>898.6666666666667</ele><time>2026-03-28T11:13:15.999Z</time></trkpt><trkpt lat="45.818219737625085" lon="9.758284291319184"><ele>896.5</ele><time>2026-03-28T11:13:16.999Z</time></trkpt><trkpt lat="45.818235380322044" lon="9.758173778261515"><ele>894.3333333333334</ele><time>2026-03-28T11:13:17.999Z</time></trkpt><trkpt lat="45.81825627225672" lon="9.758012939919215"><ele>892.1666666666667</ele><time>2026-03-28T11:13:19.999Z</time></trkpt><trkpt lat="45.81824660572262" lon="9.757922050330201"><ele>890.0</ele><time>2026-03-28T11:13:20.999Z</time></trkpt><trkpt lat="45.818215898556744" lon="9.75777464163887"><ele>885.0</ele><time>2026-03-28T11:13:22.999Z</time></trkpt><trkpt lat="45.818206956165106" lon="9.757629632900025"><ele>880.0</ele><time>2026-03-28T11:13:25.999Z</time></trkpt><trkpt lat="45.81822021344883" lon="9.757516506773493"><ele>875.0</ele><time>2026-03-28T11:13:27.999Z</time></trkpt><trkpt lat="45.818310972514155" lon="9.757434107563975"><ele>870.0</ele><time>2026-03-28T11:13:29.999Z</time></trkpt><trkpt lat="45.81838608330495" lon="9.757373182063073"><ele>865.0</ele><time>2026-03-28T11:13:30.999Z</time></trkpt><trkpt lat="45.81846237660634" lon="9.757296395638273"><ele>870.8333333333333</ele><time>2026-03-28T11:13:31.999Z</time></trkpt><trkpt lat="45.81854193176069" lon="9.757239667270548"><ele>876.6666666666666</ele><time>2026-03-28T11:13:32.999Z</time></trkpt><trkpt lat="45.8186144447088" lon="9.757180702529187"><ele>882.5</ele><time>2026-03-28T11:13:33.999Z</time></trkpt><trkpt lat="45.818688529092476" lon="9.757148418598742"><ele>888.3333333333333</ele><time>2026-03-28T11:13:34.999Z</time></trkpt><trkpt lat="45.818752723093645" lon="9.7571116919895"><ele>894.1666666666666</ele><time>2026-03-28T11:13:35.999Z</time></trkpt><trkpt lat="45.81881298750223" lon="9.757068545520157"><ele>900.0</ele><time>2026-03-28T11:13:36.999Z</time></trkpt><trkpt lat="45.81889042100789" lon="9.756983035651704"><ele>900.0</ele><time>2026-03-28T11:13:37.999Z</time></trkpt><trkpt lat="45.818976771526344" lon="9.756887058333326"><ele>900.0</ele><time>2026-03-28T11:13:38.999Z</time></trkpt><trkpt lat="45.819064877630005" lon="9.756816327860353"><ele>900.0</ele><time>2026-03-28T11:13:39.999Z</time></trkpt><trkpt lat="45.819165430688614" lon="9.756754392910581"><ele>900.0</ele><time>2026-03-28T11:13:40.998Z</time></trkpt><trkpt lat="45.819269524785994" lon="9.756671576738508"><ele>900.0</ele><time>2026-03-28T11:13:41.999Z</time></trkpt><trkpt lat="45.819383645930195" lon="9.75660668893415"><ele>897.5</ele><time>2026-03-28T11:13:42.999Z</time></trkpt><trkpt lat="45.81949810864468" lon="9.75656194102797"><ele>895.0</ele><time>2026-03-28T11:13:43.999Z</time></trkpt><trkpt lat="45.81960882225902" lon="9.75652514926453"><ele>892.5</ele><time>2026-03-28T11:13:44.998Z</time></trkpt><trkpt lat="45.81971891835304" lon="9.75648600511898"><ele>890.0</ele><time>2026-03-28T11:13:45.998Z</time></trkpt><trkpt lat="45.819823730765286" lon="9.75645669525634"><ele>890.0</ele><time>2026-03-28T11:13:46.998Z</time></trkpt><trkpt lat="45.819924538313785" lon="9.75642344994172"><ele>890.0</ele><time>2026-03-28T11:13:47.998Z</time></trkpt><trkpt lat="45.82002576576529" lon="9.756391138759545"><ele>890.0</ele><time>2026-03-28T11:13:48.998Z</time></trkpt><trkpt lat="45.8201381965227" lon="9.756364314674837"><ele>890.0</ele><time>2026-03-28T11:13:49.998Z</time></trkpt><trkpt lat="45.82026122899628" lon="9.756331604556687"><ele>890.0</ele><time>2026-03-28T11:13:50.999Z</time></trkpt><trkpt lat="45.82039457561173" lon="9.75630751217374"><ele>892.2</ele><time>2026-03-28T11:13:51.999Z</time></trkpt><trkpt lat="45.82051346727928" lon="9.756286419106134"><ele>894.4</ele><time>2026-03-28T11:13:52.998Z</time></trkpt><trkpt lat="45.820625820515254" lon="9.75627130218377"><ele>896.5999999999999</ele><time>2026-03-28T11:13:53.998Z</time></trkpt><trkpt lat="45.82072803325988" lon="9.756267045247919"><ele>898.8</ele><time>2026-03-28T11:13:54.998Z</time></trkpt><trkpt lat="45.820823348978315" lon="9.75627912227406"><ele>901.0</ele><time>2026-03-28T11:13:55.998Z</time></trkpt><trkpt lat="45.820907810862096" lon="9.75631293285033"><ele>898.25</ele><time>2026-03-28T11:13:56.998Z</time></trkpt><trkpt lat="45.82098537555336" lon="9.756358404238174"><ele>895.5</ele><time>2026-03-28T11:13:57.998Z</time></trkpt><trkpt lat="45.821083320903114" lon="9.756427353873935"><ele>892.75</ele><time>2026-03-28T11:13:58.998Z</time></trkpt><trkpt lat="45.82118001438483" lon="9.756525413994176"><ele>890.0</ele><time>2026-03-28T11:13:59.998Z</time></trkpt><trkpt lat="45.82130742091181" lon="9.756625053726408"><ele>890.0</ele><time>2026-03-28T11:14:00.998Z</time></trkpt><trkpt lat="45.82145733841848" lon="9.756712086531596"><ele>890.0</ele><time>2026-03-28T11:14:01.998Z</time></trkpt><trkpt lat="45.82163238966686" lon="9.756765106046611"><ele>890.0</ele><time>2026-03-28T11:14:02.998Z</time></trkpt><trkpt lat="45.82180457181424" lon="9.75686871322013"><ele>898.0</ele><time>2026-03-28T11:14:03.998Z</time></trkpt><trkpt lat="45.82196163225222" lon="9.756976569920292"><ele>906.0</ele><time>2026-03-28T11:14:04.998Z</time></trkpt><trkpt lat="45.82210243367894" lon="9.757079650598701"><ele>914.0</ele><time>2026-03-28T11:14:05.998Z</time></trkpt><trkpt lat="45.82223859138578" lon="9.757205191718773"><ele>914.0</ele><time>2026-03-28T11:14:06.998Z</time></trkpt><trkpt lat="45.82236990036218" lon="9.757319814133899"><ele>914.0</ele><time>2026-03-28T11:14:07.998Z</time></trkpt><trkpt lat="45.82248395262604" lon="9.757416679162201"><ele>914.0</ele><time>2026-03-28T11:14:08.998Z</time></trkpt><trkpt lat="45.822587354515505" lon="9.757525876116631"><ele>914.0</ele><time>2026-03-28T11:14:09.998Z</time></trkpt><trkpt lat="45.822688211304694" lon="9.757634236841856"><ele>917.75</ele><time>2026-03-28T11:14:10.998Z</time></trkpt><trkpt lat="45.82277231849798" lon="9.757751984953465"><ele>921.5</ele><time>2026-03-28T11:14:11.999Z</time></trkpt><trkpt lat="45.82284818272124" lon="9.757876388016882"><ele>925.25</ele><time>2026-03-28T11:14:12.999Z</time></trkpt><trkpt lat="45.8229123846077" lon="9.758020737040972"><ele>929.0</ele><time>2026-03-28T11:14:13.999Z</time></trkpt><trkpt lat="45.822976692179516" lon="9.758158770236161"><ele>929.0</ele><time>2026-03-28T11:14:14.999Z</time></trkpt><trkpt lat="45.823039546974826" lon="9.758279042622764"><ele>929.0000000000001</ele><time>2026-03-28T11:14:15.999Z</time></trkpt><trkpt lat="45.82311895568692" lon="9.758287570903192"><ele>929.0000000000001</ele><time>2026-03-28T11:14:16.999Z</time></trkpt><trkpt lat="45.82320672250945" lon="9.758278981875206"><ele>929.0</ele><time>2026-03-28T11:14:17.999Z</time></trkpt><trkpt lat="45.82328492072765" lon="9.758159887063984"><ele>929.0</ele><time>2026-03-28T11:14:18.999Z</time></trkpt><trkpt lat="45.823338044508226" lon="9.757995040218443"><ele>929.0</ele><time>2026-03-28T11:14:19.999Z</time></trkpt><trkpt lat="45.82337255634928" lon="9.757785280331237"><ele>929.0</ele><time>2026-03-28T11:14:20.999Z</time></trkpt><trkpt lat="45.823387558602974" lon="9.757552151101772"><ele>929.0</ele><time>2026-03-28T11:14:21.999Z</time></trkpt><trkpt lat="45.82338641382728" lon="9.757289619558204"><ele>923.0</ele><time>2026-03-28T11:14:22.999Z</time></trkpt><trkpt lat="45.82339257094025" lon="9.757033844566894"><ele>917.0</ele><time>2026-03-28T11:14:23.999Z</time></trkpt><trkpt lat="45.823394541064296" lon="9.756806984445246"><ele>911.0</ele><time>2026-03-28T11:14:24.999Z</time></trkpt><trkpt lat="45.8234101277265" lon="9.756586225567535"><ele>908.0</ele><time>2026-03-28T11:14:25.999Z</time></trkpt><trkpt lat="45.823447010596816" lon="9.756325506690214"><ele>905.0</ele><time>2026-03-28T11:14:26.999Z</time></trkpt><trkpt lat="45.823472879738354" lon="9.756083009155219"><ele>902.0</ele><time>2026-03-28T11:14:27.999Z</time></trkpt><trkpt lat="45.823519333626095" lon="9.755835814765017"><ele>917.6666666666667</ele><time>2026-03-28T11:14:28.999Z</time></trkpt><trkpt lat="45.823530427806" lon="9.755584030086938"><ele>933.3333333333333</ele><time>2026-03-28T11:14:29.999Z</time></trkpt><trkpt lat="45.82353924209556" lon="9.755308900068913"><ele>949.0</ele><time>2026-03-28T11:14:30.999Z</time></trkpt><trkpt lat="45.82353907644859" lon="9.755031148576535"><ele>949.0</ele><time>2026-03-28T11:14:31.999Z</time></trkpt><trkpt lat="45.82354071421486" lon="9.754764698992059"><ele>949.0</ele><time>2026-03-28T11:14:32.999Z</time></trkpt><trkpt lat="45.823532118055866" lon="9.75451070576719"><ele>949.0</ele><time>2026-03-28T11:14:33.999Z</time></trkpt><trkpt lat="45.82355068467113" lon="9.754265774093478"><ele>947.3333333333333</ele><time>2026-03-28T11:14:34.999Z</time></trkpt><trkpt lat="45.82356396977108" lon="9.754017227335533"><ele>945.6666666666667</ele><time>2026-03-28T11:14:35.999Z</time></trkpt><trkpt lat="45.82357305884841" lon="9.753785699479314"><ele>944.0</ele><time>2026-03-28T11:14:36.999Z</time></trkpt><trkpt lat="45.82355720588854" lon="9.75358649943112"><ele>941.4000000000001</ele><time>2026-03-28T11:14:37.999Z</time></trkpt><trkpt lat="45.82354455127539" lon="9.753399952917645"><ele>938.8000000000001</ele><time>2026-03-28T11:14:38.999Z</time></trkpt><trkpt lat="45.82355270317352" lon="9.753225553132308"><ele>936.1999999999999</ele><time>2026-03-28T11:14:39.999Z</time></trkpt><trkpt lat="45.82357704924423" lon="9.753086382366263"><ele>933.5999999999999</ele><time>2026-03-28T11:14:40.999Z</time></trkpt><trkpt lat="45.82363584158813" lon="9.752986535347539"><ele>931.0</ele><time>2026-03-28T11:14:41.999Z</time></trkpt><trkpt lat="45.82372469948095" lon="9.752903575197472"><ele>931.0</ele><time>2026-03-28T11:14:42.999Z</time></trkpt><trkpt lat="45.82384871983656" lon="9.752839885373742"><ele>931.0</ele><time>2026-03-28T11:14:43.999Z</time></trkpt><trkpt lat="45.823999840294945" lon="9.752755854427559"><ele>931.0</ele><time>2026-03-28T11:14:44.999Z</time></trkpt><trkpt lat="45.82419383156074" lon="9.75267079445016"><ele>928.6666666666666</ele><time>2026-03-28T11:14:45.999Z</time></trkpt><trkpt lat="45.8243527961298" lon="9.752583756364716"><ele>926.3333333333333</ele><time>2026-03-28T11:14:46.999Z</time></trkpt><trkpt lat="45.82450776029703" lon="9.752511839407383"><ele>924.0</ele><time>2026-03-28T11:14:47.999Z</time></trkpt><trkpt lat="45.824670095832865" lon="9.75246823808154"><ele>924.0</ele><time>2026-03-28T11:14:48.999Z</time></trkpt><trkpt lat="45.82483919633524" lon="9.752413836046056"><ele>924.0</ele><time>2026-03-28T11:14:49.999Z</time></trkpt><trkpt lat="45.82500179076466" lon="9.752342790941563"><ele>924.0</ele><time>2026-03-28T11:14:50.999Z</time></trkpt><trkpt lat="45.82513739181383" lon="9.752237083759388"><ele>930.6666666666667</ele><time>2026-03-28T11:14:51.999Z</time></trkpt><trkpt lat="45.82527926615221" lon="9.752125968668679"><ele>937.3333333333334</ele><time>2026-03-28T11:14:52.999Z</time></trkpt><trkpt lat="45.82545300270261" lon="9.752047933620977"><ele>944.0</ele><time>2026-03-28T11:14:53.999Z</time></trkpt><trkpt lat="45.82562273307747" lon="9.751979271212544"><ele>944.0</ele><time>2026-03-28T11:14:54.999Z</time></trkpt><trkpt lat="45.82579647144452" lon="9.751939217270538"><ele>944.0</ele><time>2026-03-28T11:14:55.999Z</time></trkpt><trkpt lat="45.82599103541474" lon="9.75189350925717"><ele>944.0</ele><time>2026-03-28T11:14:56.999Z</time></trkpt><trkpt lat="45.826177664600955" lon="9.751834727714034"><ele>935.6666666666667</ele><time>2026-03-28T11:14:57.999Z</time></trkpt><trkpt lat="45.82637483070432" lon="9.751776301612063"><ele>927.3333333333333</ele><time>2026-03-28T11:14:58.999Z</time></trkpt><trkpt lat="45.8265447005424" lon="9.75170660817452"><ele>919.0</ele><time>2026-03-28T11:14:59.999Z</time></trkpt><trkpt lat="45.82670919721479" lon="9.751630328606867"><ele>923.3333333333333</ele><time>2026-03-28T11:15:00.999Z</time></trkpt><trkpt lat="45.82687021033282" lon="9.751549522066787"><ele>927.6666666666667</ele><time>2026-03-28T11:15:01.999Z</time></trkpt><trkpt lat="45.827022660299505" lon="9.751461608201264"><ele>932.0</ele><time>2026-03-28T11:15:02.999Z</time></trkpt><trkpt lat="45.82715952306552" lon="9.751390705425317"><ele>932.0</ele><time>2026-03-28T11:15:03.999Z</time></trkpt><trkpt lat="45.82731417292304" lon="9.751328142321528"><ele>932.0</ele><time>2026-03-28T11:15:04.999Z</time></trkpt><trkpt lat="45.82746423455985" lon="9.751336169376977"><ele>932.0</ele><time>2026-03-28T11:15:05.999Z</time></trkpt><trkpt lat="45.82762536575572" lon="9.751333777391501"><ele>933.0</ele><time>2026-03-28T11:15:06.999Z</time></trkpt><trkpt lat="45.827785449854396" lon="9.751336224592956"><ele>934.0</ele><time>2026-03-28T11:15:07.999Z</time></trkpt><trkpt lat="45.827931425456455" lon="9.751328859680592"><ele>935.0</ele><time>2026-03-28T11:15:08.999Z</time></trkpt><trkpt lat="45.82806707192165" lon="9.75129554174825"><ele>936.0</ele><time>2026-03-28T11:15:09.999Z</time></trkpt><trkpt lat="45.82817666085236" lon="9.75121535305362"><ele>936.0</ele><time>2026-03-28T11:15:10.999Z</time></trkpt><trkpt lat="45.8282912285196" lon="9.751091049545693"><ele>936.0</ele><time>2026-03-28T11:15:11.999Z</time></trkpt><trkpt lat="45.82840651184888" lon="9.75096806235736"><ele>936.0</ele><time>2026-03-28T11:15:12.999Z</time></trkpt><trkpt lat="45.828535394828734" lon="9.750884346871738"><ele>936.0</ele><time>2026-03-28T11:15:13.999Z</time></trkpt><trkpt lat="45.82865462871465" lon="9.75079295747044"><ele>927.75</ele><time>2026-03-28T11:15:14.999Z</time></trkpt><trkpt lat="45.82875496127268" lon="9.750671460439852"><ele>919.5</ele><time>2026-03-28T11:15:15.999Z</time></trkpt><trkpt lat="45.82883257481098" lon="9.7505504597103"><ele>911.25</ele><time>2026-03-28T11:15:16.999Z</time></trkpt><trkpt lat="45.82893618081523" lon="9.750478260204822"><ele>903.0</ele><time>2026-03-28T11:15:17.999Z</time></trkpt><trkpt lat="45.82904985354667" lon="9.750433442492131"><ele>903.0</ele><time>2026-03-28T11:15:18.999Z</time></trkpt><trkpt lat="45.829163947350004" lon="9.750450159704084"><ele>903.0</ele><time>2026-03-28T11:15:19.999Z</time></trkpt><trkpt lat="45.82927765019295" lon="9.750526681182714"><ele>903.0</ele><time>2026-03-28T11:15:20.999Z</time></trkpt><trkpt lat="45.82940303846472" lon="9.750665914370316"><ele>903.0</ele><time>2026-03-28T11:15:21.999Z</time></trkpt><trkpt lat="45.829530603462864" lon="9.75080283880643"><ele>901.6666666666667</ele><time>2026-03-28T11:15:22.999Z</time></trkpt><trkpt lat="45.82967836302679" lon="9.750912672743933"><ele>900.3333333333334</ele><time>2026-03-28T11:15:23.999Z</time></trkpt><trkpt lat="45.829825063908466" lon="9.751024331879512"><ele>899.0</ele><time>2026-03-28T11:15:24.999Z</time></trkpt><trkpt lat="45.82996333725028" lon="9.75115331384194"><ele>899.0</ele><time>2026-03-28T11:15:25.999Z</time></trkpt><trkpt lat="45.83008765635278" lon="9.751306935769854"><ele>899.0</ele><time>2026-03-28T11:15:26.999Z</time></trkpt><trkpt lat="45.830191430646614" lon="9.751476273949546"><ele>899.0</ele><time>2026-03-28T11:15:27.999Z</time></trkpt><trkpt lat="45.8302863457591" lon="9.751650701398372"><ele>903.0</ele><time>2026-03-28T11:15:28.999Z</time></trkpt><trkpt lat="45.83035954716215" lon="9.751824049565615"><ele>907.0</ele><time>2026-03-28T11:15:29.999Z</time></trkpt><trkpt lat="45.83041852243072" lon="9.751933375357913"><ele>911.0</ele><time>2026-03-28T11:15:30.999Z</time></trkpt><trkpt lat="45.83050000516894" lon="9.752038737758909"><ele>915.0</ele><time>2026-03-28T11:15:31.999Z</time></trkpt><trkpt lat="45.830609961581644" lon="9.752066872775996"><ele>915.0</ele><time>2026-03-28T11:15:32.999Z</time></trkpt><trkpt lat="45.83074795377031" lon="9.752041550506119"><ele>915.0</ele><time>2026-03-28T11:15:33.999Z</time></trkpt><trkpt lat="45.8309480983451" lon="9.751982242857965"><ele>915.0</ele><time>2026-03-28T11:15:34.999Z</time></trkpt><trkpt lat="45.83112108884822" lon="9.751961191244517"><ele>913.3333333333333</ele><time>2026-03-28T11:15:35.999Z</time></trkpt><trkpt lat="45.83128133173026" lon="9.751928018647034"><ele>911.6666666666666</ele><time>2026-03-28T11:15:36.999Z</time></trkpt><trkpt lat="45.831444023636216" lon="9.751898744119877"><ele>910.0</ele><time>2026-03-28T11:15:37.999Z</time></trkpt><trkpt lat="45.83161105454716" lon="9.751832365560976"><ele>900.0</ele><time>2026-03-28T11:15:38.999Z</time></trkpt><trkpt lat="45.83177807298572" lon="9.75176476652324"><ele>890.0</ele><time>2026-03-28T11:15:39.999Z</time></trkpt><trkpt lat="45.83191039676739" lon="9.751699638797659"><ele>880.0</ele><time>2026-03-28T11:15:40.999Z</time></trkpt><trkpt lat="45.83201737265877" lon="9.751645232114857"><ele>870.0</ele><time>2026-03-28T11:15:41.999Z</time></trkpt><trkpt lat="45.83213667435077" lon="9.751686695884642"><ele>868.3333333333333</ele><time>2026-03-28T11:15:42.999Z</time></trkpt><trkpt lat="45.83227166629967" lon="9.751709117685229"><ele>866.6666666666666</ele><time>2026-03-28T11:15:43.999Z</time></trkpt><trkpt lat="45.832441813374714" lon="9.751777864638308"><ele>865.0</ele><time>2026-03-28T11:15:44.999Z</time></trkpt><trkpt lat="45.83261078126266" lon="9.751851611353889"><ele>871.6666666666666</ele><time>2026-03-28T11:15:46Z</time></trkpt><trkpt lat="45.83277235518715" lon="9.75193098307129"><ele>878.3333333333333</ele><time>2026-03-28T11:15:46.998Z</time></trkpt><trkpt lat="45.8329087823127" lon="9.751972386451335"><ele>885.0</ele><time>2026-03-28T11:15:47.997Z</time></trkpt><trkpt lat="45.83305262592682" lon="9.751983425240585"><ele>885.0</ele><time>2026-03-28T11:15:48.998Z</time></trkpt><trkpt lat="45.833245162450204" lon="9.751916297097099"><ele>885.0</ele><time>2026-03-28T11:15:49.998Z</time></trkpt><trkpt lat="45.833431544945384" lon="9.751829005301188"><ele>885.0</ele><time>2026-03-28T11:15:50.998Z</time></trkpt><trkpt lat="45.8336231262749" lon="9.75173871764263"><ele>874.6666666666667</ele><time>2026-03-28T11:15:51.998Z</time></trkpt><trkpt lat="45.83381444943094" lon="9.751638671653115"><ele>864.3333333333334</ele><time>2026-03-28T11:15:52.998Z</time></trkpt><trkpt lat="45.83399120463271" lon="9.75155847352311"><ele>854.0</ele><time>2026-03-28T11:15:53.998Z</time></trkpt><trkpt lat="45.834162218031295" lon="9.751487189238594"><ele>853.25</ele><time>2026-03-28T11:15:54.998Z</time></trkpt><trkpt lat="45.83431281732673" lon="9.75142070079131"><ele>852.5</ele><time>2026-03-28T11:15:55.998Z</time></trkpt><trkpt lat="45.83443190311209" lon="9.751356434202139"><ele>851.75</ele><time>2026-03-28T11:15:56.998Z</time></trkpt><trkpt lat="45.83456005640954" lon="9.751339596355319"><ele>851.0</ele><time>2026-03-28T11:15:57.998Z</time></trkpt><trkpt lat="45.834726395546234" lon="9.751355070446339"><ele>851.0</ele><time>2026-03-28T11:15:58.998Z</time></trkpt><trkpt lat="45.83488176241376" lon="9.751351033679368"><ele>851.0</ele><time>2026-03-28T11:15:59.998Z</time></trkpt><trkpt lat="45.83503264410479" lon="9.751319562370194"><ele>851.0</ele><time>2026-03-28T11:16:00.998Z</time></trkpt><trkpt lat="45.83516701077942" lon="9.751298758822433"><ele>851.0</ele><time>2026-03-28T11:16:01.998Z</time></trkpt><trkpt lat="45.835283079324654" lon="9.751340695083059"><ele>846.0</ele><time>2026-03-28T11:16:02.998Z</time></trkpt><trkpt lat="45.83540875457754" lon="9.751462455432893"><ele>841.0</ele><time>2026-03-28T11:16:03.998Z</time></trkpt><trkpt lat="45.83552790993375" lon="9.751605037707606"><ele>836.0</ele><time>2026-03-28T11:16:04.998Z</time></trkpt><trkpt lat="45.83565269252763" lon="9.751716219316126"><ele>836.0</ele><time>2026-03-28T11:16:05.998Z</time></trkpt><trkpt lat="45.83579239761868" lon="9.751776557644767"><ele>836.0</ele><time>2026-03-28T11:16:06.998Z</time></trkpt><trkpt lat="45.83596224067173" lon="9.751794712055766"><ele>836.0</ele><time>2026-03-28T11:16:07.998Z</time></trkpt><trkpt lat="45.83613894394179" lon="9.751775225216964"><ele>833.0</ele><time>2026-03-28T11:16:08.998Z</time></trkpt><trkpt lat="45.83628561771064" lon="9.751718822198951"><ele>830.0</ele><time>2026-03-28T11:16:09.998Z</time></trkpt><trkpt lat="45.83641851572852" lon="9.751691901942047"><ele>827.0</ele><time>2026-03-28T11:16:10.998Z</time></trkpt><trkpt lat="45.836568539629475" lon="9.751735697259237"><ele>824.0</ele><time>2026-03-28T11:16:11.998Z</time></trkpt><trkpt lat="45.83670902222328" lon="9.751763252062997"><ele>821.25</ele><time>2026-03-28T11:16:12.998Z</time></trkpt><trkpt lat="45.8368463645291" lon="9.75175914095214"><ele>818.5</ele><time>2026-03-28T11:16:13.998Z</time></trkpt><trkpt lat="45.83697754923778" lon="9.751701413316873"><ele>815.75</ele><time>2026-03-28T11:16:14.998Z</time></trkpt><trkpt lat="45.83710325195437" lon="9.751654584156656"><ele>813.0</ele><time>2026-03-28T11:16:15.998Z</time></trkpt><trkpt lat="45.83723452459154" lon="9.75165857247521"><ele>813.0</ele><time>2026-03-28T11:16:16.998Z</time></trkpt><trkpt lat="45.837353139610364" lon="9.751685119888002"><ele>813.0</ele><time>2026-03-28T11:16:17.998Z</time></trkpt><trkpt lat="45.837458372134556" lon="9.751722195448588"><ele>813.0</ele><time>2026-03-28T11:16:18.998Z</time></trkpt><trkpt lat="45.83755814685182" lon="9.751740643317609"><ele>813.0</ele><time>2026-03-28T11:16:19.998Z</time></trkpt><trkpt lat="45.83766530136461" lon="9.751732650338843"><ele>813.0</ele><time>2026-03-28T11:16:20.998Z</time></trkpt><trkpt lat="45.837792282597846" lon="9.751686026936994"><ele>811.0</ele><time>2026-03-28T11:16:21.998Z</time></trkpt><trkpt lat="45.83792601274532" lon="9.751644432846941"><ele>809.0</ele><time>2026-03-28T11:16:22.998Z</time></trkpt><trkpt lat="45.83808731464415" lon="9.751649177126085"><ele>807.0</ele><time>2026-03-28T11:16:23.998Z</time></trkpt><trkpt lat="45.8382664545122" lon="9.751678370160914"><ele>807.0</ele><time>2026-03-28T11:16:24.998Z</time></trkpt><trkpt lat="45.83843177372016" lon="9.751727477376704"><ele>807.0</ele><time>2026-03-28T11:16:25.998Z</time></trkpt><trkpt lat="45.83859557320061" lon="9.751785329171277"><ele>807.0</ele><time>2026-03-28T11:16:26.998Z</time></trkpt><trkpt lat="45.838749766442724" lon="9.751841553458636"><ele>810.5</ele><time>2026-03-28T11:16:27.998Z</time></trkpt><trkpt lat="45.83889773827243" lon="9.75190246249564"><ele>814.0</ele><time>2026-03-28T11:16:28.998Z</time></trkpt><trkpt lat="45.83903841940164" lon="9.751940803749509"><ele>817.5</ele><time>2026-03-28T11:16:29.998Z</time></trkpt><trkpt lat="45.83917145346668" lon="9.751947287961382"><ele>821.0</ele><time>2026-03-28T11:16:30.998Z</time></trkpt><trkpt lat="45.83931098815673" lon="9.751926708878509"><ele>823.75</ele><time>2026-03-28T11:16:31.998Z</time></trkpt><trkpt lat="45.839432976423154" lon="9.751880313730023"><ele>826.5</ele><time>2026-03-28T11:16:32.998Z</time></trkpt><trkpt lat="45.83953092435764" lon="9.751769337253776"><ele>829.25</ele><time>2026-03-28T11:16:33.998Z</time></trkpt><trkpt lat="45.83959711032692" lon="9.751609779284669"><ele>832.0</ele><time>2026-03-28T11:16:34.998Z</time></trkpt><trkpt lat="45.839604936370925" lon="9.751390871559257"><ele>832.0</ele><time>2026-03-28T11:16:35.998Z</time></trkpt><trkpt lat="45.83959261484591" lon="9.751141103581901"><ele>832.0</ele><time>2026-03-28T11:16:36.998Z</time></trkpt><trkpt lat="45.83959199856225" lon="9.750934917970978"><ele>832.0</ele><time>2026-03-28T11:16:37.998Z</time></trkpt><trkpt lat="45.83959971071298" lon="9.75077614794932"><ele>832.0</ele><time>2026-03-28T11:16:38.998Z</time></trkpt><trkpt lat="45.83963989318634" lon="9.750633829741252"><ele>832.0</ele><time>2026-03-28T11:16:39.998Z</time></trkpt><trkpt lat="45.83974528263258" lon="9.750528828105724"><ele>832.0</ele><time>2026-03-28T11:16:40.998Z</time></trkpt><trkpt lat="45.839837933057915" lon="9.750502770080429"><ele>832.0</ele><time>2026-03-28T11:16:41.998Z</time></trkpt><trkpt lat="45.84000094081627" lon="9.750493805706572"><ele>832.0</ele><time>2026-03-28T11:16:42.998Z</time></trkpt><trkpt lat="45.840204146561625" lon="9.750522703339934"><ele>832.0</ele><time>2026-03-28T11:16:43.998Z</time></trkpt><trkpt lat="45.84040041985679" lon="9.750539313807266"><ele>832.0</ele><time>2026-03-28T11:16:44.998Z</time></trkpt><trkpt lat="45.840551717596746" lon="9.7505694726494"><ele>832.0</ele><time>2026-03-28T11:16:45.998Z</time></trkpt><trkpt lat="45.84069349648032" lon="9.75059277225192"><ele>832.0</ele><time>2026-03-28T11:16:46.998Z</time></trkpt><trkpt lat="45.84082183669341" lon="9.750549794165428"><ele>832.0</ele><time>2026-03-28T11:16:47.998Z</time></trkpt><trkpt lat="45.84094208372595" lon="9.75043552981208"><ele>832.0</ele><time>2026-03-28T11:16:48.998Z</time></trkpt><trkpt lat="45.84107129568704" lon="9.750320075993612"><ele>832.0</ele><time>2026-03-28T11:16:49.998Z</time></trkpt><trkpt lat="45.841222600408656" lon="9.750256270427666"><ele>837.0</ele><time>2026-03-28T11:16:50.998Z</time></trkpt><trkpt lat="45.84140726329119" lon="9.750219788440141"><ele>842.0</ele><time>2026-03-28T11:16:51.998Z</time></trkpt><trkpt lat="45.84159763603852" lon="9.750185458629389"><ele>847.0</ele><time>2026-03-28T11:16:52.998Z</time></trkpt><trkpt lat="45.84179071789757" lon="9.750131845475739"><ele>837.3333333333333</ele><time>2026-03-28T11:16:53.998Z</time></trkpt><trkpt lat="45.84196732169707" lon="9.750083900985505"><ele>827.6666666666667</ele><time>2026-03-28T11:16:54.999Z</time></trkpt><trkpt lat="45.84212822787895" lon="9.750048431053546"><ele>818.0</ele><time>2026-03-28T11:16:55.999Z</time></trkpt><trkpt lat="45.84228121375346" lon="9.750010492433887"><ele>818.0</ele><time>2026-03-28T11:16:56.999Z</time></trkpt><trkpt lat="45.84242729435051" lon="9.749953347842919"><ele>818.0</ele><time>2026-03-28T11:16:57.999Z</time></trkpt><trkpt lat="45.84255653304834" lon="9.74990909614499"><ele>818.0</ele><time>2026-03-28T11:16:58.999Z</time></trkpt><trkpt lat="45.84266818031853" lon="9.749851338054508"><ele>818.0</ele><time>2026-03-28T11:16:59.999Z</time></trkpt><trkpt lat="45.84274923011925" lon="9.749799464692499"><ele>818.0</ele><time>2026-03-28T11:17:00.999Z</time></trkpt><trkpt lat="45.84283887489702" lon="9.74979326841702"><ele>818.0</ele><time>2026-03-28T11:17:01.999Z</time></trkpt><trkpt lat="45.84292456303555" lon="9.749852983212872"><ele>818.0</ele><time>2026-03-28T11:17:02.999Z</time></trkpt><trkpt lat="45.84304532340621" lon="9.749936987709525"><ele>818.0</ele><time>2026-03-28T11:17:03.999Z</time></trkpt><trkpt lat="45.84315014329135" lon="9.749986818436613"><ele>818.0</ele><time>2026-03-28T11:17:04.999Z</time></trkpt><trkpt lat="45.8432409501297" lon="9.749942101820684"><ele>818.0</ele><time>2026-03-28T11:17:05.999Z</time></trkpt><trkpt lat="45.8433257884079" lon="9.74982568288595"><ele>818.0</ele><time>2026-03-28T11:17:06.999Z</time></trkpt><trkpt lat="45.84340164418086" lon="9.749634671402019"><ele>818.0</ele><time>2026-03-28T11:17:07.999Z</time></trkpt><trkpt lat="45.84348161059316" lon="9.749434481507707"><ele>818.0</ele><time>2026-03-28T11:17:08.999Z</time></trkpt><trkpt lat="45.84354938553229" lon="9.749223229847766"><ele>816.0</ele><time>2026-03-28T11:17:09.999Z</time></trkpt><trkpt lat="45.843617352604184" lon="9.749044402605694"><ele>814.0</ele><time>2026-03-28T11:17:10.999Z</time></trkpt><trkpt lat="45.84367686475078" lon="9.748910369360427"><ele>812.0</ele><time>2026-03-28T11:17:11.999Z</time></trkpt><trkpt lat="45.84372830946647" lon="9.74881818125059"><ele>810.0</ele><time>2026-03-28T11:17:12.999Z</time></trkpt><trkpt lat="45.843790687942985" lon="9.748760335061059"><ele>808.0</ele><time>2026-03-28T11:17:13.999Z</time></trkpt><trkpt lat="45.84387795203663" lon="9.748774941846445"><ele>808.0</ele><time>2026-03-28T11:17:14.999Z</time></trkpt><trkpt lat="45.84396290348558" lon="9.748801534613174"><ele>808.0</ele><time>2026-03-28T11:17:15.999Z</time></trkpt><trkpt lat="45.844081836251235" lon="9.748876815415183"><ele>808.0</ele><time>2026-03-28T11:17:16.999Z</time></trkpt><trkpt lat="45.84422968666663" lon="9.748943247579094"><ele>808.0</ele><time>2026-03-28T11:17:17.999Z</time></trkpt><trkpt lat="45.84438026434005" lon="9.749006606258325"><ele>800.3333333333333</ele><time>2026-03-28T11:17:18.999Z</time></trkpt><trkpt lat="45.84451361153174" lon="9.749092047837191"><ele>792.6666666666667</ele><time>2026-03-28T11:17:19.999Z</time></trkpt><trkpt lat="45.844656831874964" lon="9.749199156833384"><ele>785.0</ele><time>2026-03-28T11:17:20.999Z</time></trkpt><trkpt lat="45.84479999504473" lon="9.749317937890797"><ele>791.6666666666667</ele><time>2026-03-28T11:17:21.999Z</time></trkpt><trkpt lat="45.84493693709885" lon="9.749382729633483"><ele>798.3333333333333</ele><time>2026-03-28T11:17:22.999Z</time></trkpt><trkpt lat="45.84510317460295" lon="9.749416923406892"><ele>805.0</ele><time>2026-03-28T11:17:23.999Z</time></trkpt><trkpt lat="45.84529144689279" lon="9.749466912444671"><ele>805.0</ele><time>2026-03-28T11:17:24.999Z</time></trkpt><trkpt lat="45.84548810957552" lon="9.749528381590695"><ele>805.0</ele><time>2026-03-28T11:17:25.999Z</time></trkpt><trkpt lat="45.84567745087378" lon="9.749660278431609"><ele>805.0</ele><time>2026-03-28T11:17:26.999Z</time></trkpt><trkpt lat="45.84583220821878" lon="9.749749126646357"><ele>805.0</ele><time>2026-03-28T11:17:27.999Z</time></trkpt><trkpt lat="45.845957576433484" lon="9.749809440077044"><ele>805.0</ele><time>2026-03-28T11:17:28.999Z</time></trkpt><trkpt lat="45.8460630224491" lon="9.749848507448185"><ele>805.0</ele><time>2026-03-28T11:17:29.999Z</time></trkpt><trkpt lat="45.84615867549056" lon="9.749804394006018"><ele>805.0</ele><time>2026-03-28T11:17:30.999Z</time></trkpt><trkpt lat="45.846277512120395" lon="9.749705717179703"><ele>804.3333333333333</ele><time>2026-03-28T11:17:31.999Z</time></trkpt><trkpt lat="45.84638858928111" lon="9.74947933161077"><ele>803.6666666666667</ele><time>2026-03-28T11:17:32.999Z</time></trkpt><trkpt lat="45.84647042525607" lon="9.749270576784445"><ele>803.0</ele><time>2026-03-28T11:17:33.999Z</time></trkpt><trkpt lat="45.84649903485757" lon="9.749049982418937"><ele>800.5</ele><time>2026-03-28T11:17:34.999Z</time></trkpt><trkpt lat="45.84649963350586" lon="9.748835650298151"><ele>798.0</ele><time>2026-03-28T11:17:35.999Z</time></trkpt><trkpt lat="45.84647311543026" lon="9.748615549068992"><ele>795.5</ele><time>2026-03-28T11:17:36.999Z</time></trkpt><trkpt lat="45.84641473128744" lon="9.748426576652015"><ele>793.0</ele><time>2026-03-28T11:17:37.999Z</time></trkpt><trkpt lat="45.84635407673944" lon="9.748291059757117"><ele>792.8</ele><time>2026-03-28T11:17:38.999Z</time></trkpt><trkpt lat="45.84633331814591" lon="9.748189474517774"><ele>792.5999999999999</ele><time>2026-03-28T11:17:39.999Z</time></trkpt><trkpt lat="45.84640472760762" lon="9.748042529429911"><ele>792.4000000000001</ele><time>2026-03-28T11:17:41.999Z</time></trkpt><trkpt lat="45.846474342836245" lon="9.748029951387624"><ele>792.2</ele><time>2026-03-28T11:17:42.999Z</time></trkpt><trkpt lat="45.84657201037708" lon="9.748123206496333"><ele>792.0</ele><time>2026-03-28T11:17:43.999Z</time></trkpt><trkpt lat="45.84667198255466" lon="9.748256992894387"><ele>792.0</ele><time>2026-03-28T11:17:44.999Z</time></trkpt><trkpt lat="45.84678752559555" lon="9.748396871943685"><ele>792.0</ele><time>2026-03-28T11:17:45.999Z</time></trkpt><trkpt lat="45.846888224766175" lon="9.748519698421047"><ele>792.0</ele><time>2026-03-28T11:17:46.999Z</time></trkpt><trkpt lat="45.84697581735474" lon="9.748649906067984"><ele>792.0</ele><time>2026-03-28T11:17:47.999Z</time></trkpt><trkpt lat="45.847075007830284" lon="9.748775117738202"><ele>797.4000000000001</ele><time>2026-03-28T11:17:48.999Z</time></trkpt><trkpt lat="45.84717036217395" lon="9.748886522717896"><ele>802.8000000000001</ele><time>2026-03-28T11:17:49.999Z</time></trkpt><trkpt lat="45.847233340326895" lon="9.748974763470857"><ele>808.2</ele><time>2026-03-28T11:17:50.999Z</time></trkpt><trkpt lat="45.84727141802555" lon="9.749093767638156"><ele>813.6</ele><time>2026-03-28T11:17:51.999Z</time></trkpt><trkpt lat="45.84723597437793" lon="9.749231082872848"><ele>819.0</ele><time>2026-03-28T11:17:52.998Z</time></trkpt><trkpt lat="45.847161825150025" lon="9.749347842496618"><ele>818.8000000000001</ele><time>2026-03-28T11:17:53.998Z</time></trkpt><trkpt lat="45.847055783294415" lon="9.749423210776342"><ele>818.6</ele><time>2026-03-28T11:17:54.998Z</time></trkpt><trkpt lat="45.84697067341105" lon="9.749502155046427"><ele>818.4</ele><time>2026-03-28T11:17:55.997Z</time></trkpt><trkpt lat="45.84692412295847" lon="9.749621938318258"><ele>818.2</ele><time>2026-03-28T11:17:56.997Z</time></trkpt><trkpt lat="45.84690932859812" lon="9.749762291566578"><ele>818.0</ele><time>2026-03-28T11:17:57.997Z</time></trkpt><trkpt lat="45.84693806174741" lon="9.74988936264609"><ele>818.0</ele><time>2026-03-28T11:17:58.998Z</time></trkpt><trkpt lat="45.84702800408691" lon="9.749992334692957"><ele>818.0</ele><time>2026-03-28T11:17:59.997Z</time></trkpt><trkpt lat="45.84713952473707" lon="9.750111037702851"><ele>818.0</ele><time>2026-03-28T11:18:00.997Z</time></trkpt><trkpt lat="45.84722823822856" lon="9.750171452212502"><ele>818.0</ele><time>2026-03-28T11:18:01.997Z</time></trkpt><trkpt lat="45.84733516660762" lon="9.750167145305"><ele>818.0</ele><time>2026-03-28T11:18:02.998Z</time></trkpt><trkpt lat="45.8474627298672" lon="9.750111663636964"><ele>818.0</ele><time>2026-03-28T11:18:03.998Z</time></trkpt><trkpt lat="45.847595724782295" lon="9.750054723024398"><ele>818.0</ele><time>2026-03-28T11:18:04.997Z</time></trkpt><trkpt lat="45.847680276305724" lon="9.749946357222344"><ele>818.0</ele><time>2026-03-28T11:18:05.997Z</time></trkpt><trkpt lat="45.84771939148967" lon="9.749787897174622"><ele>818.25</ele><time>2026-03-28T11:18:06.997Z</time></trkpt><trkpt lat="45.84772993531625" lon="9.749590648384983"><ele>818.5</ele><time>2026-03-28T11:18:07.997Z</time></trkpt><trkpt lat="45.84769437033642" lon="9.749381051621352"><ele>818.75</ele><time>2026-03-28T11:18:08.997Z</time></trkpt><trkpt lat="45.84764588864462" lon="9.74917485068719"><ele>819.0</ele><time>2026-03-28T11:18:09.997Z</time></trkpt><trkpt lat="45.847604571477525" lon="9.74897984977602"><ele>819.0</ele><time>2026-03-28T11:18:10.997Z</time></trkpt><trkpt lat="45.84757253106936" lon="9.748814307631395"><ele>819.0</ele><time>2026-03-28T11:18:11.997Z</time></trkpt><trkpt lat="45.84757178121374" lon="9.748675226184414"><ele>819.0</ele><time>2026-03-28T11:18:12.997Z</time></trkpt><trkpt lat="45.84759939282103" lon="9.748552036325785"><ele>819.0</ele><time>2026-03-28T11:18:13.997Z</time></trkpt><trkpt lat="45.84767121795033" lon="9.748431897012875"><ele>819.0</ele><time>2026-03-28T11:18:14.997Z</time></trkpt><trkpt lat="45.84778897053418" lon="9.748354115601366"><ele>825.6666666666667</ele><time>2026-03-28T11:18:15.997Z</time></trkpt><trkpt lat="45.847921262633776" lon="9.748239893254032"><ele>832.3333333333334</ele><time>2026-03-28T11:18:16.997Z</time></trkpt><trkpt lat="45.84803232462862" lon="9.748062726157594"><ele>839.0</ele><time>2026-03-28T11:18:17.997Z</time></trkpt><trkpt lat="45.84812388441646" lon="9.747891717105704"><ele>839.0</ele><time>2026-03-28T11:18:18.997Z</time></trkpt><trkpt lat="45.84820852593804" lon="9.747735532929775"><ele>839.0</ele><time>2026-03-28T11:18:19.997Z</time></trkpt><trkpt lat="45.848307522886486" lon="9.747596330784612"><ele>839.0</ele><time>2026-03-28T11:18:20.997Z</time></trkpt><trkpt lat="45.84843262185115" lon="9.74747181615636"><ele>839.0</ele><time>2026-03-28T11:18:21.997Z</time></trkpt><trkpt lat="45.848569177468434" lon="9.747362982784864"><ele>842.25</ele><time>2026-03-28T11:18:22.997Z</time></trkpt><trkpt lat="45.84869829960489" lon="9.74728386119551"><ele>845.5</ele><time>2026-03-28T11:18:23.997Z</time></trkpt><trkpt lat="45.84883609711112" lon="9.747217010776804"><ele>848.75</ele><time>2026-03-28T11:18:24.997Z</time></trkpt><trkpt lat="45.84894762301621" lon="9.747143384214692"><ele>852.0</ele><time>2026-03-28T11:18:25.997Z</time></trkpt><trkpt lat="45.84904476544921" lon="9.747024934090176"><ele>850.5</ele><time>2026-03-28T11:18:26.997Z</time></trkpt><trkpt lat="45.84911198516579" lon="9.746868498152716"><ele>849.0</ele><time>2026-03-28T11:18:27.997Z</time></trkpt><trkpt lat="45.849174672964644" lon="9.746687018923533"><ele>847.5</ele><time>2026-03-28T11:18:28.998Z</time></trkpt><trkpt lat="45.84921422889081" lon="9.746509791994182"><ele>846.0</ele><time>2026-03-28T11:18:29.998Z</time></trkpt><trkpt lat="45.84925922708002" lon="9.746329755667055"><ele>847.0</ele><time>2026-03-28T11:18:30.998Z</time></trkpt><trkpt lat="45.84929468760894" lon="9.746168971836234"><ele>848.0</ele><time>2026-03-28T11:18:31.998Z</time></trkpt><trkpt lat="45.84934207522781" lon="9.746035291809546"><ele>849.0</ele><time>2026-03-28T11:18:32.998Z</time></trkpt><trkpt lat="45.84939170813615" lon="9.745941998528698"><ele>850.0</ele><time>2026-03-28T11:18:33.998Z</time></trkpt><trkpt lat="45.84947123828565" lon="9.745883117189702"><ele>851.0</ele><time>2026-03-28T11:18:34.998Z</time></trkpt><trkpt lat="45.84957043516715" lon="9.74582982691893"><ele>851.0</ele><time>2026-03-28T11:18:35.998Z</time></trkpt><trkpt lat="45.84972472739288" lon="9.745788192706835"><ele>851.0</ele><time>2026-03-28T11:18:36.998Z</time></trkpt><trkpt lat="45.849880315508635" lon="9.745753892138765"><ele>851.0</ele><time>2026-03-28T11:18:37.998Z</time></trkpt><trkpt lat="45.8500213554857" lon="9.745749202354848"><ele>855.5</ele><time>2026-03-28T11:18:38.998Z</time></trkpt><trkpt lat="45.85017750435487" lon="9.745772883883433"><ele>860.0</ele><time>2026-03-28T11:18:39.998Z</time></trkpt><trkpt lat="45.85032167858977" lon="9.745796039299966"><ele>864.5</ele><time>2026-03-28T11:18:40.998Z</time></trkpt><trkpt lat="45.850442311658355" lon="9.745797541123293"><ele>869.0</ele><time>2026-03-28T11:18:41.998Z</time></trkpt><trkpt lat="45.850544304127446" lon="9.745761114564713"><ele>869.0</ele><time>2026-03-28T11:18:42.998Z</time></trkpt><trkpt lat="45.85062666641803" lon="9.745678070839382"><ele>869.0000000000001</ele><time>2026-03-28T11:18:43.998Z</time></trkpt><trkpt lat="45.85068553028163" lon="9.745547707081883"><ele>869.0000000000001</ele><time>2026-03-28T11:18:44.998Z</time></trkpt><trkpt lat="45.85071692379948" lon="9.745378270331447"><ele>869.0</ele><time>2026-03-28T11:18:45.998Z</time></trkpt><trkpt lat="45.85070069284922" lon="9.74521036013241"><ele>869.0</ele><time>2026-03-28T11:18:46.998Z</time></trkpt><trkpt lat="45.85063573494004" lon="9.745025507440033"><ele>868.6</ele><time>2026-03-28T11:18:47.998Z</time></trkpt><trkpt lat="45.85054269112538" lon="9.744876765020996"><ele>868.2</ele><time>2026-03-28T11:18:48.998Z</time></trkpt><trkpt lat="45.85048765152233" lon="9.74475130679558"><ele>867.8000000000001</ele><time>2026-03-28T11:18:49.998Z</time></trkpt><trkpt lat="45.850491620835854" lon="9.744624071616716"><ele>867.4000000000001</ele><time>2026-03-28T11:18:50.998Z</time></trkpt><trkpt lat="45.85053543220794" lon="9.744473073166896"><ele>867.0</ele><time>2026-03-28T11:18:51.998Z</time></trkpt><trkpt lat="45.8506167733972" lon="9.744278865421805"><ele>867.0</ele><time>2026-03-28T11:18:52.998Z</time></trkpt><trkpt lat="45.85070430556483" lon="9.744082681827516"><ele>867.0</ele><time>2026-03-28T11:18:53.998Z</time></trkpt><trkpt lat="45.85077096887598" lon="9.743908573987072"><ele>867.0</ele><time>2026-03-28T11:18:54.998Z</time></trkpt><trkpt lat="45.85082578314716" lon="9.743732100060276"><ele>867.0</ele><time>2026-03-28T11:18:55.998Z</time></trkpt><trkpt lat="45.85088591058199" lon="9.743578935855044"><ele>866.0</ele><time>2026-03-28T11:18:56.998Z</time></trkpt><trkpt lat="45.850945294163296" lon="9.743451416188396"><ele>865.0</ele><time>2026-03-28T11:18:57.998Z</time></trkpt><trkpt lat="45.85100976520807" lon="9.743349206446881"><ele>864.0</ele><time>2026-03-28T11:18:58.998Z</time></trkpt><trkpt lat="45.85110830007593" lon="9.743232742214273"><ele>863.0</ele><time>2026-03-28T11:18:59.998Z</time></trkpt><trkpt lat="45.85122213655991" lon="9.743130682480786"><ele>865.0</ele><time>2026-03-28T11:19:00.998Z</time></trkpt><trkpt lat="45.85134430753" lon="9.743029468346162"><ele>867.0</ele><time>2026-03-28T11:19:01.998Z</time></trkpt><trkpt lat="45.85147046261282" lon="9.742916821931386"><ele>869.0</ele><time>2026-03-28T11:19:02.998Z</time></trkpt><trkpt lat="45.85159387394683" lon="9.742799540985672"><ele>871.0</ele><time>2026-03-28T11:19:03.998Z</time></trkpt><trkpt lat="45.851714954907166" lon="9.742676136134204"><ele>874.75</ele><time>2026-03-28T11:19:04.998Z</time></trkpt><trkpt lat="45.85183951619963" lon="9.742559949950207"><ele>878.5</ele><time>2026-03-28T11:19:05.998Z</time></trkpt><trkpt lat="45.85195544989569" lon="9.742451274666978"><ele>882.25</ele><time>2026-03-28T11:19:06.998Z</time></trkpt><trkpt lat="45.85205717654232" lon="9.742344735521835"><ele>886.0</ele><time>2026-03-28T11:19:07.998Z</time></trkpt><trkpt lat="45.85215289659742" lon="9.742252341108577"><ele>886.0</ele><time>2026-03-28T11:19:08.998Z</time></trkpt><trkpt lat="45.85224093139406" lon="9.742165195480782"><ele>885.9999999999999</ele><time>2026-03-28T11:19:09.998Z</time></trkpt><trkpt lat="45.85232088013154" lon="9.742075816089327"><ele>885.9999999999999</ele><time>2026-03-28T11:19:10.998Z</time></trkpt><trkpt lat="45.85239387217977" lon="9.741984227892111"><ele>886.0</ele><time>2026-03-28T11:19:11.998Z</time></trkpt><trkpt lat="45.85246864032603" lon="9.741898006961206"><ele>886.0</ele><time>2026-03-28T11:19:12.998Z</time></trkpt><trkpt lat="45.85253499558792" lon="9.741816005647067"><ele>886.1999999999999</ele><time>2026-03-28T11:19:13.998Z</time></trkpt><trkpt lat="45.85259794829805" lon="9.741748819708818"><ele>886.3999999999999</ele><time>2026-03-28T11:19:14.998Z</time></trkpt><trkpt lat="45.85265652595881" lon="9.74166047220431"><ele>886.6</ele><time>2026-03-28T11:19:15.998Z</time></trkpt><trkpt lat="45.85273411768307" lon="9.741551043146972"><ele>886.8</ele><time>2026-03-28T11:19:16.998Z</time></trkpt><trkpt lat="45.85279666906739" lon="9.74142651237029"><ele>887.0</ele><time>2026-03-28T11:19:17.998Z</time></trkpt><trkpt lat="45.85287743290132" lon="9.741315144362169"><ele>887.0</ele><time>2026-03-28T11:19:18.998Z</time></trkpt><trkpt lat="45.8529642873473" lon="9.741199987866779"><ele>887.0</ele><time>2026-03-28T11:19:19.998Z</time></trkpt><trkpt lat="45.85305986463831" lon="9.741088547444626"><ele>887.0</ele><time>2026-03-28T11:19:20.998Z</time></trkpt><trkpt lat="45.85315830926869" lon="9.740990885509355"><ele>887.0</ele><time>2026-03-28T11:19:21.998Z</time></trkpt><trkpt lat="45.853256874975656" lon="9.740915860311501"><ele>884.25</ele><time>2026-03-28T11:19:22.998Z</time></trkpt><trkpt lat="45.853352985690755" lon="9.740868553709563"><ele>881.5</ele><time>2026-03-28T11:19:23.998Z</time></trkpt><trkpt lat="45.853456378303754" lon="9.74083959957039"><ele>878.75</ele><time>2026-03-28T11:19:24.998Z</time></trkpt><trkpt lat="45.85359086832467" lon="9.740844530005766"><ele>876.0</ele><time>2026-03-28T11:19:25.998Z</time></trkpt><trkpt lat="45.8537146760804" lon="9.740845122190237"><ele>876.0</ele><time>2026-03-28T11:19:26.998Z</time></trkpt><trkpt lat="45.853820277144905" lon="9.7408384544845"><ele>876.0</ele><time>2026-03-28T11:19:27.998Z</time></trkpt><trkpt lat="45.85391568788685" lon="9.740802716832384"><ele>876.0</ele><time>2026-03-28T11:19:28.998Z</time></trkpt><trkpt lat="45.85400750284846" lon="9.740669159505007"><ele>876.0</ele><time>2026-03-28T11:19:29.998Z</time></trkpt><trkpt lat="45.85409197287647" lon="9.740427441458257"><ele>876.0</ele><time>2026-03-28T11:19:30.998Z</time></trkpt><trkpt lat="45.85418570055447" lon="9.740227945542888"><ele>876.0</ele><time>2026-03-28T11:19:31.998Z</time></trkpt><trkpt lat="45.85427186584781" lon="9.740054094252526"><ele>876.0</ele><time>2026-03-28T11:19:32.998Z</time></trkpt><trkpt lat="45.85435171681069" lon="9.7398900202605"><ele>878.25</ele><time>2026-03-28T11:19:33.998Z</time></trkpt><trkpt lat="45.8544251609019" lon="9.739741177698379"><ele>880.5</ele><time>2026-03-28T11:19:34.998Z</time></trkpt><trkpt lat="45.854503488962095" lon="9.739593016406278"><ele>882.75</ele><time>2026-03-28T11:19:35.998Z</time></trkpt><trkpt lat="45.85458194135537" lon="9.739448598849835"><ele>885.0</ele><time>2026-03-28T11:19:36.998Z</time></trkpt><trkpt lat="45.85464802427605" lon="9.73931096036326"><ele>879.6</ele><time>2026-03-28T11:19:37.998Z</time></trkpt><trkpt lat="45.85471533732841" lon="9.739182455682563"><ele>874.2</ele><time>2026-03-28T11:19:38.998Z</time></trkpt><trkpt lat="45.85477684330189" lon="9.739065421257308"><ele>868.8</ele><time>2026-03-28T11:19:39.998Z</time></trkpt><trkpt lat="45.85486616090884" lon="9.7389832144721"><ele>863.4</ele><time>2026-03-28T11:19:40.998Z</time></trkpt><trkpt lat="45.85496324569212" lon="9.738937782271542"><ele>858.0</ele><time>2026-03-28T11:19:41.998Z</time></trkpt><trkpt lat="45.855082504761036" lon="9.738936036339673"><ele>861.0</ele><time>2026-03-28T11:19:42.998Z</time></trkpt><trkpt lat="45.85519675904785" lon="9.738985018825959"><ele>864.0</ele><time>2026-03-28T11:19:43.998Z</time></trkpt><trkpt lat="45.85530616104545" lon="9.739048297444308"><ele>867.0</ele><time>2026-03-28T11:19:44.998Z</time></trkpt><trkpt lat="45.855415811503946" lon="9.739104499194863"><ele>870.0</ele><time>2026-03-28T11:19:45.998Z</time></trkpt><trkpt lat="45.85553744306676" lon="9.739126192707575"><ele>870.0</ele><time>2026-03-28T11:19:46.998Z</time></trkpt><trkpt lat="45.85565390116673" lon="9.739110364295101"><ele>870.0</ele><time>2026-03-28T11:19:47.998Z</time></trkpt><trkpt lat="45.85577102944997" lon="9.73903620555437"><ele>870.0</ele><time>2026-03-28T11:19:48.998Z</time></trkpt><trkpt lat="45.855900553036065" lon="9.73889418991777"><ele>870.0</ele><time>2026-03-28T11:19:49.998Z</time></trkpt><trkpt lat="45.856038835716255" lon="9.73868723762009"><ele>872.6666666666667</ele><time>2026-03-28T11:19:50.998Z</time></trkpt><trkpt lat="45.85617004622632" lon="9.738441090364073"><ele>875.3333333333334</ele><time>2026-03-28T11:19:51.998Z</time></trkpt><trkpt lat="45.85629806669575" lon="9.738182587142838"><ele>878.0</ele><time>2026-03-28T11:19:52.998Z</time></trkpt><trkpt lat="45.85644065581084" lon="9.737919432757158"><ele>861.0</ele><time>2026-03-28T11:19:53.998Z</time></trkpt><trkpt lat="45.85659362983009" lon="9.737671988600614"><ele>844.0</ele><time>2026-03-28T11:19:54.998Z</time></trkpt><trkpt lat="45.85674268840642" lon="9.737427252101433"><ele>846.3333333333333</ele><time>2026-03-28T11:19:55.998Z</time></trkpt><trkpt lat="45.85687392322542" lon="9.737191944122863"><ele>848.6666666666667</ele><time>2026-03-28T11:19:56.998Z</time></trkpt><trkpt lat="45.85701376130777" lon="9.736964747082117"><ele>851.0</ele><time>2026-03-28T11:19:57.998Z</time></trkpt><trkpt lat="45.857140512525476" lon="9.736765191788509"><ele>851.0</ele><time>2026-03-28T11:19:58.997Z</time></trkpt><trkpt lat="45.85726496720344" lon="9.73658881288836"><ele>851.0</ele><time>2026-03-28T11:19:59.997Z</time></trkpt><trkpt lat="45.85739412304779" lon="9.736444758872274"><ele>851.0</ele><time>2026-03-28T11:20:00.997Z</time></trkpt><trkpt lat="45.857540745083234" lon="9.736328389918636"><ele>849.0</ele><time>2026-03-28T11:20:01.997Z</time></trkpt><trkpt lat="45.857673784558386" lon="9.7362099965702"><ele>847.0</ele><time>2026-03-28T11:20:02.998Z</time></trkpt><trkpt lat="45.85781555038188" lon="9.736124276258781"><ele>845.0</ele><time>2026-03-28T11:20:03.998Z</time></trkpt><trkpt lat="45.857963706993395" lon="9.736038531863466"><ele>845.0</ele><time>2026-03-28T11:20:04.997Z</time></trkpt><trkpt lat="45.85810248292884" lon="9.735947985445955"><ele>845.0</ele><time>2026-03-28T11:20:05.997Z</time></trkpt><trkpt lat="45.85822177444055" lon="9.735864202618528"><ele>845.0</ele><time>2026-03-28T11:20:06.997Z</time></trkpt><trkpt lat="45.85835082139278" lon="9.735774887763519"><ele>845.0</ele><time>2026-03-28T11:20:07.997Z</time></trkpt><trkpt lat="45.85847315701012" lon="9.735657103736617"><ele>845.25</ele><time>2026-03-28T11:20:08.997Z</time></trkpt><trkpt lat="45.85857933839274" lon="9.73550707957411"><ele>845.5</ele><time>2026-03-28T11:20:09.997Z</time></trkpt><trkpt lat="45.858666184799795" lon="9.73533709536665"><ele>845.75</ele><time>2026-03-28T11:20:10.998Z</time></trkpt><trkpt lat="45.85874995641467" lon="9.735191979797184"><ele>846.0</ele><time>2026-03-28T11:20:11.998Z</time></trkpt><trkpt lat="45.858833642425544" lon="9.735060002679997"><ele>846.0</ele><time>2026-03-28T11:20:12.998Z</time></trkpt><trkpt lat="45.85894372703167" lon="9.734950356869524"><ele>846.0</ele><time>2026-03-28T11:20:13.998Z</time></trkpt><trkpt lat="45.85905383686959" lon="9.734858287543872"><ele>846.0</ele><time>2026-03-28T11:20:14.998Z</time></trkpt><trkpt lat="45.859188745282225" lon="9.73477514035435"><ele>846.0</ele><time>2026-03-28T11:20:15.998Z</time></trkpt><trkpt lat="45.85932930062192" lon="9.734685110065733"><ele>840.6666666666667</ele><time>2026-03-28T11:20:16.998Z</time></trkpt><trkpt lat="45.859488882737345" lon="9.734573955234312"><ele>835.3333333333334</ele><time>2026-03-28T11:20:17.998Z</time></trkpt><trkpt lat="45.859708384944376" lon="9.734453980654013"><ele>830.0</ele><time>2026-03-28T11:20:18.998Z</time></trkpt><trkpt lat="45.85992264061705" lon="9.734344195943306"><ele>833.0</ele><time>2026-03-28T11:20:19.998Z</time></trkpt><trkpt lat="45.860137529574494" lon="9.734254183304126"><ele>836.0</ele><time>2026-03-28T11:20:20.998Z</time></trkpt><trkpt lat="45.8603542756225" lon="9.73417426836138"><ele>839.0</ele><time>2026-03-28T11:20:21.998Z</time></trkpt><trkpt lat="45.86056433267865" lon="9.734111124522238"><ele>839.0</ele><time>2026-03-28T11:20:22.998Z</time></trkpt><trkpt lat="45.860766406567585" lon="9.734080711981584"><ele>839.0</ele><time>2026-03-28T11:20:23.998Z</time></trkpt><trkpt lat="45.860943768016234" lon="9.734029586444837"><ele>839.0</ele><time>2026-03-28T11:20:24.998Z</time></trkpt><trkpt lat="45.861103242033295" lon="9.733939088486798"><ele>836.3333333333334</ele><time>2026-03-28T11:20:25.998Z</time></trkpt><trkpt lat="45.86125287121657" lon="9.733816387156974"><ele>833.6666666666667</ele><time>2026-03-28T11:20:26.998Z</time></trkpt><trkpt lat="45.8613922395607" lon="9.733662637255183"><ele>831.0</ele><time>2026-03-28T11:20:27.998Z</time></trkpt><trkpt lat="45.861520305074556" lon="9.733517799045204"><ele>831.0</ele><time>2026-03-28T11:20:28.998Z</time></trkpt><trkpt lat="45.86165374733412" lon="9.733385125856927"><ele>831.0</ele><time>2026-03-28T11:20:29.998Z</time></trkpt><trkpt lat="45.86178683388974" lon="9.733295638955708"><ele>831.0</ele><time>2026-03-28T11:20:30.998Z</time></trkpt><trkpt lat="45.86193866869487" lon="9.733227717383983"><ele>835.3333333333333</ele><time>2026-03-28T11:20:31.998Z</time></trkpt><trkpt lat="45.86210786142744" lon="9.733180475232093"><ele>839.6666666666666</ele><time>2026-03-28T11:20:32.998Z</time></trkpt><trkpt lat="45.862260591849406" lon="9.733086654715919"><ele>844.0</ele><time>2026-03-28T11:20:33.998Z</time></trkpt><trkpt lat="45.862408576958266" lon="9.732933874906257"><ele>844.0</ele><time>2026-03-28T11:20:34.998Z</time></trkpt><trkpt lat="45.862537194512775" lon="9.732785064128079"><ele>844.0</ele><time>2026-03-28T11:20:35.998Z</time></trkpt><trkpt lat="45.862648101376244" lon="9.732663341549403"><ele>844.0</ele><time>2026-03-28T11:20:36.998Z</time></trkpt><trkpt lat="45.862768363321194" lon="9.73257119323554"><ele>844.0</ele><time>2026-03-28T11:20:37.998Z</time></trkpt><trkpt lat="45.862891996983635" lon="9.732512662153272"><ele>840.6666666666666</ele><time>2026-03-28T11:20:38.998Z</time></trkpt><trkpt lat="45.86303847748764" lon="9.732472970858268"><ele>837.3333333333333</ele><time>2026-03-28T11:20:39.998Z</time></trkpt><trkpt lat="45.86318166906711" lon="9.732373130795844"><ele>834.0</ele><time>2026-03-28T11:20:40.998Z</time></trkpt><trkpt lat="45.863335852322486" lon="9.73221080323966"><ele>834.6666666666667</ele><time>2026-03-28T11:20:41.998Z</time></trkpt><trkpt lat="45.86348160894296" lon="9.732056300119595"><ele>835.3333333333334</ele><time>2026-03-28T11:20:42.998Z</time></trkpt><trkpt lat="45.86363615528538" lon="9.731933647201815"><ele>836.0</ele><time>2026-03-28T11:20:43.998Z</time></trkpt><trkpt lat="45.863767527262354" lon="9.731825497204948"><ele>828.0</ele><time>2026-03-28T11:20:44.998Z</time></trkpt><trkpt lat="45.86388551792463" lon="9.731724264850643"><ele>820.0</ele><time>2026-03-28T11:20:45.998Z</time></trkpt><trkpt lat="45.86403485804849" lon="9.731665805099118"><ele>812.0</ele><time>2026-03-28T11:20:46.998Z</time></trkpt><trkpt lat="45.864193068246344" lon="9.731624950456212"><ele>814.3333333333334</ele><time>2026-03-28T11:20:47.998Z</time></trkpt><trkpt lat="45.86438773077048" lon="9.731602311338216"><ele>816.6666666666667</ele><time>2026-03-28T11:20:48.998Z</time></trkpt><trkpt lat="45.86455531069419" lon="9.731578223432242"><ele>819.0</ele><time>2026-03-28T11:20:49.998Z</time></trkpt><trkpt lat="45.86471144937738" lon="9.73153380917752"><ele>819.0</ele><time>2026-03-28T11:20:50.998Z</time></trkpt><trkpt lat="45.86484254418835" lon="9.731455624148865"><ele>819.0</ele><time>2026-03-28T11:20:51.998Z</time></trkpt><trkpt lat="45.86496580872603" lon="9.731320998423609"><ele>819.0</ele><time>2026-03-28T11:20:52.998Z</time></trkpt><trkpt lat="45.865088900090264" lon="9.731176631887479"><ele>821.0</ele><time>2026-03-28T11:20:53.998Z</time></trkpt><trkpt lat="45.865236098438565" lon="9.731064409346843"><ele>823.0</ele><time>2026-03-28T11:20:54.998Z</time></trkpt><trkpt lat="45.86541453336583" lon="9.73098512437864"><ele>825.0</ele><time>2026-03-28T11:20:55.998Z</time></trkpt><trkpt lat="45.86558728390116" lon="9.730901496245131"><ele>820.0</ele><time>2026-03-28T11:20:56.998Z</time></trkpt><trkpt lat="45.865752407453755" lon="9.730816623850309"><ele>815.0</ele><time>2026-03-28T11:20:57.998Z</time></trkpt><trkpt lat="45.86591023001582" lon="9.730744208564662"><ele>810.0</ele><time>2026-03-28T11:20:58.998Z</time></trkpt><trkpt lat="45.86603865658451" lon="9.730687453223577"><ele>810.0</ele><time>2026-03-28T11:20:59.998Z</time></trkpt><trkpt lat="45.8661469592313" lon="9.730603881562757"><ele>810.0</ele><time>2026-03-28T11:21:00.998Z</time></trkpt><trkpt lat="45.86624912286821" lon="9.730511680080301"><ele>810.0</ele><time>2026-03-28T11:21:01.998Z</time></trkpt><trkpt lat="45.86632068865602" lon="9.730410821708382"><ele>810.0</ele><time>2026-03-28T11:21:02.998Z</time></trkpt><trkpt lat="45.86637435915849" lon="9.730315353555184"><ele>810.0</ele><time>2026-03-28T11:21:03.998Z</time></trkpt><trkpt lat="45.86643343819917" lon="9.730176009808627"><ele>805.2</ele><time>2026-03-28T11:21:05.998Z</time></trkpt><trkpt lat="45.866484937031245" lon="9.730111339992522"><ele>800.4</ele><time>2026-03-28T11:21:06.998Z</time></trkpt><trkpt lat="45.86659461669569" lon="9.730053016533677"><ele>795.5999999999999</ele><time>2026-03-28T11:21:07.998Z</time></trkpt><trkpt lat="45.86670990552313" lon="9.730015449979899"><ele>790.8</ele><time>2026-03-28T11:21:08.998Z</time></trkpt><trkpt lat="45.86682690886731" lon="9.730012178529257"><ele>786.0</ele><time>2026-03-28T11:21:09.998Z</time></trkpt><trkpt lat="45.866957375805015" lon="9.730037198637245"><ele>785.25</ele><time>2026-03-28T11:21:10.998Z</time></trkpt><trkpt lat="45.86708522094243" lon="9.730106060546705"><ele>784.5</ele><time>2026-03-28T11:21:11.998Z</time></trkpt><trkpt lat="45.86720330020029" lon="9.730228506879179"><ele>783.75</ele><time>2026-03-28T11:21:12.998Z</time></trkpt><trkpt lat="45.867309780644895" lon="9.730348141877146"><ele>783.0</ele><time>2026-03-28T11:21:13.998Z</time></trkpt><trkpt lat="45.8674229308059" lon="9.730435583039583"><ele>787.75</ele><time>2026-03-28T11:21:14.998Z</time></trkpt><trkpt lat="45.867538556633" lon="9.730504821500276"><ele>792.5</ele><time>2026-03-28T11:21:15.998Z</time></trkpt><trkpt lat="45.86766639830876" lon="9.730537060477435"><ele>797.25</ele><time>2026-03-28T11:21:16.998Z</time></trkpt><trkpt lat="45.86779651913551" lon="9.73052795028753"><ele>802.0</ele><time>2026-03-28T11:21:17.998Z</time></trkpt><trkpt lat="45.86794067385992" lon="9.730491757235642"><ele>802.0</ele><time>2026-03-28T11:21:18.998Z</time></trkpt><trkpt lat="45.868086521902526" lon="9.730490167319767"><ele>802.0</ele><time>2026-03-28T11:21:19.998Z</time></trkpt><trkpt lat="45.868214404824066" lon="9.730489108260361"><ele>802.0</ele><time>2026-03-28T11:21:20.998Z</time></trkpt><trkpt lat="45.86832723985061" lon="9.730479982276503"><ele>802.0</ele><time>2026-03-28T11:21:21.998Z</time></trkpt><trkpt lat="45.8684383315761" lon="9.730489349601914"><ele>802.25</ele><time>2026-03-28T11:21:22.998Z</time></trkpt><trkpt lat="45.86855609607628" lon="9.730547271668922"><ele>802.5</ele><time>2026-03-28T11:21:23.998Z</time></trkpt><trkpt lat="45.86867823940016" lon="9.730638628393256"><ele>802.75</ele><time>2026-03-28T11:21:24.998Z</time></trkpt><trkpt lat="45.86881075749338" lon="9.730734327313566"><ele>803.0</ele><time>2026-03-28T11:21:25.998Z</time></trkpt><trkpt lat="45.868948171707046" lon="9.730822330611595"><ele>803.0</ele><time>2026-03-28T11:21:26.998Z</time></trkpt><trkpt lat="45.8690976082812" lon="9.730911459541025"><ele>803.0</ele><time>2026-03-28T11:21:27.998Z</time></trkpt><trkpt lat="45.86922566636433" lon="9.730993125532146"><ele>803.0</ele><time>2026-03-28T11:21:28.998Z</time></trkpt><trkpt lat="45.869352465077704" lon="9.731081742679219"><ele>803.0</ele><time>2026-03-28T11:21:29.998Z</time></trkpt><trkpt lat="45.86948546351818" lon="9.731165622141335"><ele>807.0</ele><time>2026-03-28T11:21:30.998Z</time></trkpt><trkpt lat="45.869633199459095" lon="9.731272207894825"><ele>811.0</ele><time>2026-03-28T11:21:31.998Z</time></trkpt><trkpt lat="45.86976710840152" lon="9.731381172865843"><ele>815.0</ele><time>2026-03-28T11:21:32.998Z</time></trkpt><trkpt lat="45.86989536605857" lon="9.731475235723137"><ele>815.0</ele><time>2026-03-28T11:21:33.998Z</time></trkpt><trkpt lat="45.870028723293494" lon="9.731529356622941"><ele>815.0</ele><time>2026-03-28T11:21:34.998Z</time></trkpt><trkpt lat="45.87016053942367" lon="9.731546477030674"><ele>815.0</ele><time>2026-03-28T11:21:35.998Z</time></trkpt><trkpt lat="45.87030639770021" lon="9.731472836434627"><ele>815.0</ele><time>2026-03-28T11:21:36.998Z</time></trkpt><trkpt lat="45.87045091668387" lon="9.731335812525792"><ele>816.75</ele><time>2026-03-28T11:21:37.998Z</time></trkpt><trkpt lat="45.87059673528114" lon="9.731241454730212"><ele>818.5</ele><time>2026-03-28T11:21:38.998Z</time></trkpt><trkpt lat="45.87070927969547" lon="9.731179004120282"><ele>820.25</ele><time>2026-03-28T11:21:39.998Z</time></trkpt><trkpt lat="45.870814322237294" lon="9.73113021550539"><ele>822.0</ele><time>2026-03-28T11:21:40.998Z</time></trkpt><trkpt lat="45.87097188946311" lon="9.731084605539047"><ele>821.0</ele><time>2026-03-28T11:21:41.998Z</time></trkpt><trkpt lat="45.871146621519955" lon="9.73105441425474"><ele>820.0</ele><time>2026-03-28T11:21:42.998Z</time></trkpt><trkpt lat="45.87130687927854" lon="9.730993953960622"><ele>819.0</ele><time>2026-03-28T11:21:43.999Z</time></trkpt><trkpt lat="45.871461430291916" lon="9.730930491190394"><ele>819.0</ele><time>2026-03-28T11:21:44.999Z</time></trkpt><trkpt lat="45.87158610125251" lon="9.730873173490252"><ele>819.0</ele><time>2026-03-28T11:21:45.999Z</time></trkpt><trkpt lat="45.87172052437439" lon="9.730813105997889"><ele>819.0</ele><time>2026-03-28T11:21:46.999Z</time></trkpt><trkpt lat="45.87186378325985" lon="9.730771054717412"><ele>819.0</ele><time>2026-03-28T11:21:47.999Z</time></trkpt><trkpt lat="45.87199362204862" lon="9.730752258377537"><ele>821.5</ele><time>2026-03-28T11:21:48.999Z</time></trkpt><trkpt lat="45.87210463865301" lon="9.730782227976354"><ele>824.0</ele><time>2026-03-28T11:21:49.999Z</time></trkpt><trkpt lat="45.87220978662413" lon="9.730871254174144"><ele>826.5</ele><time>2026-03-28T11:21:50.999Z</time></trkpt><trkpt lat="45.872321106270796" lon="9.730976264531568"><ele>829.0</ele><time>2026-03-28T11:21:51.999Z</time></trkpt><trkpt lat="45.87242503859484" lon="9.731033778963802"><ele>828.8000000000001</ele><time>2026-03-28T11:21:52.999Z</time></trkpt><trkpt lat="45.87254443253479" lon="9.731060688770404"><ele>828.6</ele><time>2026-03-28T11:21:53.999Z</time></trkpt><trkpt lat="45.87264863007792" lon="9.731035233679819"><ele>828.4</ele><time>2026-03-28T11:21:54.999Z</time></trkpt><trkpt lat="45.87275675129705" lon="9.731014633209266"><ele>828.2</ele><time>2026-03-28T11:21:55.999Z</time></trkpt><trkpt lat="45.87284738564523" lon="9.731004473751566"><ele>828.0</ele><time>2026-03-28T11:21:56.999Z</time></trkpt><trkpt lat="45.87296832556669" lon="9.730978625523246"><ele>828.0</ele><time>2026-03-28T11:21:57.999Z</time></trkpt><trkpt lat="45.873116463793366" lon="9.730937747022779"><ele>828.0</ele><time>2026-03-28T11:21:58.999Z</time></trkpt><trkpt lat="45.873258788723575" lon="9.730885984756265"><ele>828.0</ele><time>2026-03-28T11:21:59.999Z</time></trkpt><trkpt lat="45.87339897742967" lon="9.730840349702898"><ele>828.0</ele><time>2026-03-28T11:22:00.999Z</time></trkpt><trkpt lat="45.87353668048571" lon="9.730808991615637"><ele>829.0</ele><time>2026-03-28T11:22:01.999Z</time></trkpt><trkpt lat="45.873651012734406" lon="9.730779965747677"><ele>830.0</ele><time>2026-03-28T11:22:02.999Z</time></trkpt><trkpt lat="45.873727555532206" lon="9.730762689865402"><ele>831.0</ele><time>2026-03-28T11:22:03.999Z</time></trkpt><trkpt lat="45.87380401256728" lon="9.730732501547385"><ele>832.0</ele><time>2026-03-28T11:22:13.997Z</time></trkpt><trkpt lat="45.87388776442141" lon="9.730703992655737"><ele>833.0</ele><time>2026-03-28T11:22:14.998Z</time></trkpt><trkpt lat="45.87401636814168" lon="9.73066353659366"><ele>833.0</ele><time>2026-03-28T11:22:15.998Z</time></trkpt><trkpt lat="45.87412803218137" lon="9.730632770948494"><ele>833.0</ele><time>2026-03-28T11:22:16.997Z</time></trkpt><trkpt lat="45.874264965037746" lon="9.730589965395529"><ele>833.0</ele><time>2026-03-28T11:22:17.997Z</time></trkpt><trkpt lat="45.874410363036674" lon="9.730545101645225"><ele>833.0</ele><time>2026-03-28T11:22:18.997Z</time></trkpt><trkpt lat="45.874553779812516" lon="9.730495168763559"><ele>833.6666666666667</ele><time>2026-03-28T11:22:19.997Z</time></trkpt><trkpt lat="45.87469366734062" lon="9.730454955566438"><ele>834.3333333333333</ele><time>2026-03-28T11:22:20.997Z</time></trkpt><trkpt lat="45.87484477287883" lon="9.730418683803109"><ele>835.0</ele><time>2026-03-28T11:22:21.997Z</time></trkpt><trkpt lat="45.87499965788591" lon="9.730366399425765"><ele>835.6666666666666</ele><time>2026-03-28T11:22:22.997Z</time></trkpt><trkpt lat="45.87517498118639" lon="9.730322734954875"><ele>836.3333333333333</ele><time>2026-03-28T11:22:23.997Z</time></trkpt><trkpt lat="45.87532915596124" lon="9.73026381511071"><ele>837.0</ele><time>2026-03-28T11:22:24.998Z</time></trkpt><trkpt lat="45.87547572500214" lon="9.73021799928615"><ele>834.5</ele><time>2026-03-28T11:22:25.998Z</time></trkpt><trkpt lat="45.87561490536987" lon="9.73018003122244"><ele>832.0</ele><time>2026-03-28T11:22:26.998Z</time></trkpt><trkpt lat="45.87574174922434" lon="9.730144013250484"><ele>829.5</ele><time>2026-03-28T11:22:27.998Z</time></trkpt><trkpt lat="45.875883197933646" lon="9.730118353217799"><ele>827.0</ele><time>2026-03-28T11:22:28.998Z</time></trkpt><trkpt lat="45.87602843419663" lon="9.730102893756502"><ele>826.75</ele><time>2026-03-28T11:22:29.998Z</time></trkpt><trkpt lat="45.87615928426959" lon="9.73008862269466"><ele>826.5</ele><time>2026-03-28T11:22:30.998Z</time></trkpt><trkpt lat="45.876284784614356" lon="9.730076855250255"><ele>826.25</ele><time>2026-03-28T11:22:31.998Z</time></trkpt><trkpt lat="45.87639819074983" lon="9.730103875138937"><ele>826.0</ele><time>2026-03-28T11:22:32.998Z</time></trkpt><trkpt lat="45.87649924045039" lon="9.730234946742483"><ele>829.3333333333333</ele><time>2026-03-28T11:22:33.998Z</time></trkpt><trkpt lat="45.876626741202806" lon="9.730449693885763"><ele>832.6666666666667</ele><time>2026-03-28T11:22:34.998Z</time></trkpt><trkpt lat="45.87674406568785" lon="9.730640589535074"><ele>836.0</ele><time>2026-03-28T11:22:35.998Z</time></trkpt><trkpt lat="45.87685354479952" lon="9.730795735435608"><ele>836.0</ele><time>2026-03-28T11:22:36.998Z</time></trkpt><trkpt lat="45.87692548920184" lon="9.730958729679472"><ele>836.0</ele><time>2026-03-28T11:22:37.998Z</time></trkpt><trkpt lat="45.87697358900233" lon="9.731135706971168"><ele>836.0</ele><time>2026-03-28T11:22:38.998Z</time></trkpt><trkpt lat="45.87699737091525" lon="9.731332077370908"><ele>836.0</ele><time>2026-03-28T11:22:39.998Z</time></trkpt><trkpt lat="45.877020566515874" lon="9.731524728723594"><ele>837.0</ele><time>2026-03-28T11:22:40.998Z</time></trkpt><trkpt lat="45.877041781067234" lon="9.73174359825963"><ele>838.0</ele><time>2026-03-28T11:22:41.998Z</time></trkpt><trkpt lat="45.877066027070555" lon="9.732000467977795"><ele>839.0</ele><time>2026-03-28T11:22:42.998Z</time></trkpt><trkpt lat="45.87709446117731" lon="9.732241123414187"><ele>841.6666666666667</ele><time>2026-03-28T11:22:43.998Z</time></trkpt><trkpt lat="45.87713667099566" lon="9.73245520894161"><ele>844.3333333333333</ele><time>2026-03-28T11:22:44.998Z</time></trkpt><trkpt lat="45.8771749987547" lon="9.73266761466053"><ele>847.0</ele><time>2026-03-28T11:22:45.998Z</time></trkpt><trkpt lat="45.87721708002651" lon="9.732869362147172"><ele>849.0</ele><time>2026-03-28T11:22:46.998Z</time></trkpt><trkpt lat="45.877258551806015" lon="9.73305928031118"><ele>851.0</ele><time>2026-03-28T11:22:47.998Z</time></trkpt><trkpt lat="45.87729640359868" lon="9.733240798140438"><ele>853.0</ele><time>2026-03-28T11:22:48.998Z</time></trkpt><trkpt lat="45.877332641560635" lon="9.733429999802214"><ele>855.0</ele><time>2026-03-28T11:22:49.998Z</time></trkpt><trkpt lat="45.87737177204834" lon="9.733618611031313"><ele>856.25</ele><time>2026-03-28T11:22:50.998Z</time></trkpt><trkpt lat="45.87740845702289" lon="9.733803142883632"><ele>857.5</ele><time>2026-03-28T11:22:51.998Z</time></trkpt><trkpt lat="45.877454781061125" lon="9.733956469209197"><ele>858.75</ele><time>2026-03-28T11:22:52.998Z</time></trkpt><trkpt lat="45.877511919339135" lon="9.734084568546832"><ele>860.0</ele><time>2026-03-28T11:22:53.998Z</time></trkpt><trkpt lat="45.877575847567094" lon="9.73420536057411"><ele>861.5</ele><time>2026-03-28T11:22:54.998Z</time></trkpt><trkpt lat="45.87765907364977" lon="9.734276469420019"><ele>863.0</ele><time>2026-03-28T11:22:55.998Z</time></trkpt><trkpt lat="45.87775955214707" lon="9.734322852912161"><ele>864.5</ele><time>2026-03-28T11:22:56.998Z</time></trkpt><trkpt lat="45.877877665273424" lon="9.734317969006181"><ele>866.0</ele><time>2026-03-28T11:22:57.998Z</time></trkpt><trkpt lat="45.87800559505007" lon="9.734250938543031"><ele>866.0</ele><time>2026-03-28T11:22:58.998Z</time></trkpt><trkpt lat="45.87813720489001" lon="9.734134837442447"><ele>866.0</ele><time>2026-03-28T11:22:59.998Z</time></trkpt><trkpt lat="45.8782612022157" lon="9.733985509410347"><ele>866.0</ele><time>2026-03-28T11:23:00.998Z</time></trkpt><trkpt lat="45.87836118946143" lon="9.73386528150642"><ele>866.0</ele><time>2026-03-28T11:23:01.998Z</time></trkpt><trkpt lat="45.87845781281223" lon="9.73375391127248"><ele>866.0</ele><time>2026-03-28T11:23:02.998Z</time></trkpt><trkpt lat="45.87856707626134" lon="9.733639995773123"><ele>866.0</ele><time>2026-03-28T11:23:03.998Z</time></trkpt><trkpt lat="45.87867658110759" lon="9.733537534278804"><ele>866.0</ele><time>2026-03-28T11:23:04.998Z</time></trkpt><trkpt lat="45.878768765885724" lon="9.733448904242254"><ele>866.0</ele><time>2026-03-28T11:23:05.998Z</time></trkpt><trkpt lat="45.87885182922811" lon="9.733369777250394"><ele>866.0000000000001</ele><time>2026-03-28T11:23:06.998Z</time></trkpt><trkpt lat="45.878936146777335" lon="9.733310354768944"><ele>866.0</ele><time>2026-03-28T11:23:07.998Z</time></trkpt><trkpt lat="45.879010557833105" lon="9.733300603788333"><ele>866.0</ele><time>2026-03-28T11:23:08.998Z</time></trkpt><trkpt lat="45.87907319580231" lon="9.733342871159952"><ele>866.0</ele><time>2026-03-28T11:23:09.998Z</time></trkpt><trkpt lat="45.879100974996966" lon="9.733442469093259"><ele>866.0000000000001</ele><time>2026-03-28T11:23:10.998Z</time></trkpt><trkpt lat="45.879094513688855" lon="9.733552175048455"><ele>866.0</ele><time>2026-03-28T11:23:11.998Z</time></trkpt><trkpt lat="45.87904902535133" lon="9.733657258427156"><ele>869.25</ele><time>2026-03-28T11:23:12.998Z</time></trkpt><trkpt lat="45.87896820685375" lon="9.733788818940312"><ele>872.5</ele><time>2026-03-28T11:23:13.998Z</time></trkpt><trkpt lat="45.87886089059141" lon="9.733931656357267"><ele>875.75</ele><time>2026-03-28T11:23:14.998Z</time></trkpt><trkpt lat="45.87874736391169" lon="9.734059048721145"><ele>879.0</ele><time>2026-03-28T11:23:15.998Z</time></trkpt><trkpt lat="45.87863671045959" lon="9.734213344877524"><ele>879.0</ele><time>2026-03-28T11:23:16.998Z</time></trkpt><trkpt lat="45.87855440548744" lon="9.734375701323593"><ele>879.0</ele><time>2026-03-28T11:23:17.998Z</time></trkpt><trkpt lat="45.878485200995115" lon="9.73455215882272"><ele>879.0</ele><time>2026-03-28T11:23:18.998Z</time></trkpt><trkpt lat="45.878433022487734" lon="9.734711468961775"><ele>879.0</ele><time>2026-03-28T11:23:19.998Z</time></trkpt><trkpt lat="45.878407218403815" lon="9.73486104994681"><ele>878.4000000000001</ele><time>2026-03-28T11:23:20.998Z</time></trkpt><trkpt lat="45.878419403986186" lon="9.735030554929345"><ele>877.8000000000001</ele><time>2026-03-28T11:23:21.998Z</time></trkpt><trkpt lat="45.87843694574664" lon="9.735176739471772"><ele>877.1999999999999</ele><time>2026-03-28T11:23:22.998Z</time></trkpt><trkpt lat="45.878481471460454" lon="9.735294520344228"><ele>876.5999999999999</ele><time>2026-03-28T11:23:23.998Z</time></trkpt><trkpt lat="45.878557936630656" lon="9.73538234089091"><ele>876.0</ele><time>2026-03-28T11:23:24.998Z</time></trkpt><trkpt lat="45.87867284807973" lon="9.735445846803296"><ele>880.0</ele><time>2026-03-28T11:23:25.998Z</time></trkpt><trkpt lat="45.87878759085663" lon="9.7354913440345"><ele>883.9999999999999</ele><time>2026-03-28T11:23:26.998Z</time></trkpt><trkpt lat="45.87886912965413" lon="9.73553497187291"><ele>887.9999999999999</ele><time>2026-03-28T11:23:27.998Z</time></trkpt><trkpt lat="45.878938389678666" lon="9.735576927830275"><ele>892.0</ele><time>2026-03-28T11:23:28.998Z</time></trkpt><trkpt lat="45.87904198707614" lon="9.7355662413595"><ele>896.0</ele><time>2026-03-28T11:23:29.998Z</time></trkpt><trkpt lat="45.87914004583156" lon="9.735523937496126"><ele>896.0</ele><time>2026-03-28T11:23:30.998Z</time></trkpt><trkpt lat="45.87922478218056" lon="9.735483338743606"><ele>896.0</ele><time>2026-03-28T11:23:31.998Z</time></trkpt><trkpt lat="45.87934044795843" lon="9.735417134440626"><ele>896.0</ele><time>2026-03-28T11:23:33.998Z</time></trkpt><trkpt lat="45.87945174182257" lon="9.735374419552704"><ele>896.0</ele><time>2026-03-28T11:23:34.998Z</time></trkpt><trkpt lat="45.87960301931164" lon="9.735295052384208"><ele>900.3333333333334</ele><time>2026-03-28T11:23:35.998Z</time></trkpt><trkpt lat="45.879747394838155" lon="9.735184545850968"><ele>904.6666666666667</ele><time>2026-03-28T11:23:36.998Z</time></trkpt><trkpt lat="45.87987572905317" lon="9.735043549716112"><ele>909.0</ele><time>2026-03-28T11:23:37.998Z</time></trkpt><trkpt lat="45.87996242440833" lon="9.734889456993882"><ele>909.0</ele><time>2026-03-28T11:23:38.998Z</time></trkpt><trkpt lat="45.880020105415774" lon="9.73472836190295"><ele>909.0</ele><time>2026-03-28T11:23:39.998Z</time></trkpt><trkpt lat="45.880031513742104" lon="9.734531731597475"><ele>909.0</ele><time>2026-03-28T11:23:40.998Z</time></trkpt><trkpt lat="45.88000480798197" lon="9.734327243339262"><ele>909.0</ele><time>2026-03-28T11:23:41.998Z</time></trkpt><trkpt lat="45.87995242113323" lon="9.734136003718092"><ele>907.5</ele><time>2026-03-28T11:23:42.998Z</time></trkpt><trkpt lat="45.87994153712591" lon="9.73397400219601"><ele>906.0</ele><time>2026-03-28T11:23:43.998Z</time></trkpt><trkpt lat="45.87998722235228" lon="9.733820686464712"><ele>904.5</ele><time>2026-03-28T11:23:44.998Z</time></trkpt><trkpt lat="45.880066416404404" lon="9.733709285093008"><ele>903.0</ele><time>2026-03-28T11:23:45.998Z</time></trkpt><trkpt lat="45.8801851463388" lon="9.733616314783928"><ele>910.0</ele><time>2026-03-28T11:23:46.998Z</time></trkpt><trkpt lat="45.88032535946786" lon="9.733542869209996"><ele>917.0</ele><time>2026-03-28T11:23:47.998Z</time></trkpt><trkpt lat="45.88044378136849" lon="9.733434421563167"><ele>924.0</ele><time>2026-03-28T11:23:48.998Z</time></trkpt><trkpt lat="45.88052706063154" lon="9.733261197692181"><ele>931.0</ele><time>2026-03-28T11:23:49.998Z</time></trkpt><trkpt lat="45.88059410142947" lon="9.733021691640607"><ele>931.0</ele><time>2026-03-28T11:23:50.998Z</time></trkpt><trkpt lat="45.88064916729929" lon="9.732776105270883"><ele>931.0</ele><time>2026-03-28T11:23:51.998Z</time></trkpt><trkpt lat="45.880695439969436" lon="9.732552452165152"><ele>931.0</ele><time>2026-03-28T11:23:52.998Z</time></trkpt><trkpt lat="45.88070946119984" lon="9.732332647605169"><ele>928.75</ele><time>2026-03-28T11:23:53.998Z</time></trkpt><trkpt lat="45.880691213167715" lon="9.732078621771583"><ele>926.5</ele><time>2026-03-28T11:23:54.998Z</time></trkpt><trkpt lat="45.88067499327981" lon="9.73185245883911"><ele>924.25</ele><time>2026-03-28T11:23:55.998Z</time></trkpt><trkpt lat="45.88069012972188" lon="9.731705700515048"><ele>922.0</ele><time>2026-03-28T11:23:56.998Z</time></trkpt><trkpt lat="45.88076818990982" lon="9.731576191203475"><ele>922.0</ele><time>2026-03-28T11:23:57.998Z</time></trkpt><trkpt lat="45.88086527286805" lon="9.731400823686311"><ele>922.0</ele><time>2026-03-28T11:23:58.999Z</time></trkpt><trkpt lat="45.88097176248148" lon="9.731200947756617"><ele>922.0</ele><time>2026-03-28T11:23:59.999Z</time></trkpt><trkpt lat="45.881079001399144" lon="9.731002076915898"><ele>926.6666666666666</ele><time>2026-03-28T11:24:00.999Z</time></trkpt><trkpt lat="45.8811956432408" lon="9.730843950752732"><ele>931.3333333333333</ele><time>2026-03-28T11:24:01.999Z</time></trkpt><trkpt lat="45.88132464938114" lon="9.730703491238518"><ele>936.0</ele><time>2026-03-28T11:24:02.999Z</time></trkpt><trkpt lat="45.881473512615585" lon="9.730574082751875"><ele>936.0</ele><time>2026-03-28T11:24:03.999Z</time></trkpt><trkpt lat="45.881575017429874" lon="9.730442550475608"><ele>936.0</ele><time>2026-03-28T11:24:04.999Z</time></trkpt><trkpt lat="45.88166676130616" lon="9.730313427834067"><ele>936.0</ele><time>2026-03-28T11:24:05.999Z</time></trkpt><trkpt lat="45.88178872102028" lon="9.730184436316858"><ele>936.0</ele><time>2026-03-28T11:24:06.999Z</time></trkpt><trkpt lat="45.88195679616478" lon="9.730069521184799"><ele>940.3333333333333</ele><time>2026-03-28T11:24:07.999Z</time></trkpt><trkpt lat="45.88210879829039" lon="9.72995608097824"><ele>944.6666666666666</ele><time>2026-03-28T11:24:08.999Z</time></trkpt><trkpt lat="45.88227263544545" lon="9.729835944759998"><ele>949.0</ele><time>2026-03-28T11:24:09.999Z</time></trkpt><trkpt lat="45.882415081878385" lon="9.729744956042243"><ele>949.0</ele><time>2026-03-28T11:24:10.997Z</time></trkpt><trkpt lat="45.882554753001706" lon="9.729654266998564"><ele>949.0</ele><time>2026-03-28T11:24:11.997Z</time></trkpt><trkpt lat="45.88268534276166" lon="9.729581819328832"><ele>949.0</ele><time>2026-03-28T11:24:12.997Z</time></trkpt><trkpt lat="45.882803203509916" lon="9.729532558997963"><ele>949.0</ele><time>2026-03-28T11:24:13.997Z</time></trkpt><trkpt lat="45.8829261571031" lon="9.7294846856427"><ele>950.5</ele><time>2026-03-28T11:24:14.997Z</time></trkpt><trkpt lat="45.88302527720668" lon="9.729406689493993"><ele>952.0</ele><time>2026-03-28T11:24:15.997Z</time></trkpt><trkpt lat="45.883102655265795" lon="9.729265496887326"><ele>953.5</ele><time>2026-03-28T11:24:16.997Z</time></trkpt><trkpt lat="45.88315157807857" lon="9.72910368528296"><ele>955.0</ele><time>2026-03-28T11:24:17.997Z</time></trkpt><trkpt lat="45.88314740468453" lon="9.728929625094803"><ele>955.0</ele><time>2026-03-28T11:24:18.997Z</time></trkpt><trkpt lat="45.88311009977145" lon="9.728750162976592"><ele>955.0</ele><time>2026-03-28T11:24:19.997Z</time></trkpt><trkpt lat="45.88301315515951" lon="9.728553218473387"><ele>955.0</ele><time>2026-03-28T11:24:20.997Z</time></trkpt><trkpt lat="45.88287962288943" lon="9.728411843035897"><ele>950.6666666666666</ele><time>2026-03-28T11:24:21.997Z</time></trkpt><trkpt lat="45.882706797890904" lon="9.728296322651401"><ele>946.3333333333333</ele><time>2026-03-28T11:24:22.997Z</time></trkpt><trkpt lat="45.88254111116523" lon="9.728154122794065"><ele>942.0</ele><time>2026-03-28T11:24:23.998Z</time></trkpt><trkpt lat="45.88237452461941" lon="9.727979169608563"><ele>942.0</ele><time>2026-03-28T11:24:24.998Z</time></trkpt><trkpt lat="45.882239141187014" lon="9.727788849233683"><ele>942.0</ele><time>2026-03-28T11:24:25.998Z</time></trkpt><trkpt lat="45.88212266873296" lon="9.727611230144978"><ele>942.0</ele><time>2026-03-28T11:24:26.998Z</time></trkpt><trkpt lat="45.88202042842479" lon="9.727456686017252"><ele>942.75</ele><time>2026-03-28T11:24:27.998Z</time></trkpt><trkpt lat="45.88190119466886" lon="9.727358359334099"><ele>943.5</ele><time>2026-03-28T11:24:28.998Z</time></trkpt><trkpt lat="45.881802875508285" lon="9.72726054895617"><ele>944.25</ele><time>2026-03-28T11:24:29.998Z</time></trkpt><trkpt lat="45.881719465333376" lon="9.727168872298268"><ele>945.0</ele><time>2026-03-28T11:24:30.998Z</time></trkpt><trkpt lat="45.881677566322" lon="9.72705319882237"><ele>945.0</ele><time>2026-03-28T11:24:31.998Z</time></trkpt><trkpt lat="45.881678959547926" lon="9.7269052389581"><ele>945.0</ele><time>2026-03-28T11:24:32.998Z</time></trkpt><trkpt lat="45.88171367433719" lon="9.726727875754714"><ele>945.0</ele><time>2026-03-28T11:24:33.998Z</time></trkpt><trkpt lat="45.881794182634586" lon="9.726529914495252"><ele>945.0</ele><time>2026-03-28T11:24:34.998Z</time></trkpt><trkpt lat="45.88187632356094" lon="9.726306155112455"><ele>959.3333333333333</ele><time>2026-03-28T11:24:35.998Z</time></trkpt><trkpt lat="45.88194076098689" lon="9.726035238290793"><ele>973.6666666666666</ele><time>2026-03-28T11:24:36.998Z</time></trkpt><trkpt lat="45.881968256850605" lon="9.725770333543547"><ele>988.0</ele><time>2026-03-28T11:24:37.998Z</time></trkpt><trkpt lat="45.88200327328244" lon="9.725519215134934"><ele>988.0</ele><time>2026-03-28T11:24:38.998Z</time></trkpt><trkpt lat="45.88204878819319" lon="9.725284821708659"><ele>988.0</ele><time>2026-03-28T11:24:39.998Z</time></trkpt><trkpt lat="45.88210583340146" lon="9.72503781425974"><ele>988.0</ele><time>2026-03-28T11:24:40.998Z</time></trkpt><trkpt lat="45.88214225294032" lon="9.724813422872199"><ele>988.25</ele><time>2026-03-28T11:24:41.998Z</time></trkpt><trkpt lat="45.88216911075441" lon="9.724607045140218"><ele>988.5</ele><time>2026-03-28T11:24:42.998Z</time></trkpt><trkpt lat="45.882187233698865" lon="9.724422820918463"><ele>988.75</ele><time>2026-03-28T11:24:43.998Z</time></trkpt><trkpt lat="45.88223280020888" lon="9.724264855675278"><ele>989.0</ele><time>2026-03-28T11:24:44.998Z</time></trkpt><trkpt lat="45.88229010744273" lon="9.724157458593131"><ele>988.0</ele><time>2026-03-28T11:24:45.998Z</time></trkpt><trkpt lat="45.88236580397765" lon="9.724055543895643"><ele>987.0</ele><time>2026-03-28T11:24:46.998Z</time></trkpt><trkpt lat="45.882488737980935" lon="9.723962787729207"><ele>986.0</ele><time>2026-03-28T11:24:47.998Z</time></trkpt><trkpt lat="45.882611862363895" lon="9.723829517565276"><ele>985.0</ele><time>2026-03-28T11:24:48.998Z</time></trkpt><trkpt lat="45.88273391031517" lon="9.723694656579962"><ele>987.6666666666666</ele><time>2026-03-28T11:24:49.998Z</time></trkpt><trkpt lat="45.88284795840193" lon="9.72356206536216"><ele>990.3333333333333</ele><time>2026-03-28T11:24:50.998Z</time></trkpt><trkpt lat="45.88298208400178" lon="9.723458578989925"><ele>993.0</ele><time>2026-03-28T11:24:51.998Z</time></trkpt><trkpt lat="45.883122034858005" lon="9.723369578109956"><ele>993.0</ele><time>2026-03-28T11:24:52.998Z</time></trkpt><trkpt lat="45.88326568756742" lon="9.723274606674918"><ele>993.0</ele><time>2026-03-28T11:24:53.998Z</time></trkpt><trkpt lat="45.883431475975755" lon="9.723206531372734"><ele>993.0</ele><time>2026-03-28T11:24:54.998Z</time></trkpt><trkpt lat="45.8835748294963" lon="9.723155957172645"><ele>999.3333333333333</ele><time>2026-03-28T11:24:55.998Z</time></trkpt><trkpt lat="45.88373534639266" lon="9.723138969891771"><ele>1005.6666666666666</ele><time>2026-03-28T11:24:56.998Z</time></trkpt><trkpt lat="45.883885700060134" lon="9.723168430434017"><ele>1012.0</ele><time>2026-03-28T11:24:57.998Z</time></trkpt><trkpt lat="45.884023686945135" lon="9.723205610863971"><ele>1012.0</ele><time>2026-03-28T11:24:58.998Z</time></trkpt><trkpt lat="45.8841420221617" lon="9.723214903633574"><ele>1012.0</ele><time>2026-03-28T11:24:59.998Z</time></trkpt><trkpt lat="45.884246992643845" lon="9.723168670738458"><ele>1012.0</ele><time>2026-03-28T11:25:00.998Z</time></trkpt><trkpt lat="45.884338156184434" lon="9.723059132707412"><ele>1012.0</ele><time>2026-03-28T11:25:01.998Z</time></trkpt><trkpt lat="45.88442279147519" lon="9.722888192496379"><ele>1015.25</ele><time>2026-03-28T11:25:02.998Z</time></trkpt><trkpt lat="45.88448788710644" lon="9.722745932992204"><ele>1018.5</ele><time>2026-03-28T11:25:03.998Z</time></trkpt><trkpt lat="45.884621071081305" lon="9.72273538353461"><ele>1021.75</ele><time>2026-03-28T11:25:04.998Z</time></trkpt><trkpt lat="45.884757267370695" lon="9.722764821356373"><ele>1025.0</ele><time>2026-03-28T11:25:05.998Z</time></trkpt><trkpt lat="45.88492972277622" lon="9.722817778860115"><ele>1028.25</ele><time>2026-03-28T11:25:06.998Z</time></trkpt><trkpt lat="45.885100953208315" lon="9.722886000175617"><ele>1031.5</ele><time>2026-03-28T11:25:07.998Z</time></trkpt><trkpt lat="45.88523369092701" lon="9.722966933709355"><ele>1034.75</ele><time>2026-03-28T11:25:08.997Z</time></trkpt><trkpt lat="45.88534539991573" lon="9.723010151797087"><ele>1038.0</ele><time>2026-03-28T11:25:09.997Z</time></trkpt><trkpt lat="45.88544153760536" lon="9.723043391404534"><ele>1038.0</ele><time>2026-03-28T11:25:10.996Z</time></trkpt><trkpt lat="45.88552142360477" lon="9.72296498464997"><ele>1038.0</ele><time>2026-03-28T11:25:11.996Z</time></trkpt><trkpt lat="45.8855811746771" lon="9.722890095405313"><ele>1038.0</ele><time>2026-03-28T11:25:12.995Z</time></trkpt><trkpt lat="45.885616631929466" lon="9.722789858551787"><ele>1038.0</ele><time>2026-03-28T11:25:13.995Z</time></trkpt><trkpt lat="45.88560486243907" lon="9.722674403834166"><ele>1038.0</ele><time>2026-03-28T11:25:14.994Z</time></trkpt><trkpt lat="45.885548100210954" lon="9.722530201877472"><ele>1036.5</ele><time>2026-03-28T11:25:15.994Z</time></trkpt><trkpt lat="45.88545103068578" lon="9.72238490849292"><ele>1035.0</ele><time>2026-03-28T11:25:16.993Z</time></trkpt><trkpt lat="45.88536833052619" lon="9.722254379906639"><ele>1033.5</ele><time>2026-03-28T11:25:17.993Z</time></trkpt><trkpt lat="45.88533801324193" lon="9.722111795836266"><ele>1032.0</ele><time>2026-03-28T11:25:18.993Z</time></trkpt><trkpt lat="45.885354993395104" lon="9.721986298902275"><ele>1030.5</ele><time>2026-03-28T11:25:19.992Z</time></trkpt><trkpt lat="45.885412574805535" lon="9.721879921507307"><ele>1029.0</ele><time>2026-03-28T11:25:20.992Z</time></trkpt><trkpt lat="45.885527364663695" lon="9.721779175094843"><ele>1027.5</ele><time>2026-03-28T11:25:21.992Z</time></trkpt><trkpt lat="45.88569506759203" lon="9.721708346471233"><ele>1026.0</ele><time>2026-03-28T11:25:22.991Z</time></trkpt><trkpt lat="45.88589201831299" lon="9.721686052539798"><ele>1032.75</ele><time>2026-03-28T11:25:23.991Z</time></trkpt><trkpt lat="45.88604726442836" lon="9.721668566693946"><ele>1039.5</ele><time>2026-03-28T11:25:24.991Z</time></trkpt><trkpt lat="45.886177045618325" lon="9.72161438323367"><ele>1046.25</ele><time>2026-03-28T11:25:25.991Z</time></trkpt><trkpt lat="45.88627654792883" lon="9.721505161797888"><ele>1053.0</ele><time>2026-03-28T11:25:26.99Z</time></trkpt><trkpt lat="45.88633883415149" lon="9.72129228836269"><ele>1048.5</ele><time>2026-03-28T11:25:27.99Z</time></trkpt><trkpt lat="45.8864018044697" lon="9.721061817879908"><ele>1044.0</ele><time>2026-03-28T11:25:28.99Z</time></trkpt><trkpt lat="45.88645592749068" lon="9.720865820013167"><ele>1039.5</ele><time>2026-03-28T11:25:29.99Z</time></trkpt><trkpt lat="45.88650257370104" lon="9.72070111591729"><ele>1035.0</ele><time>2026-03-28T11:25:30.99Z</time></trkpt><trkpt lat="45.8865544533585" lon="9.720549909644564"><ele>1035.0</ele><time>2026-03-28T11:25:31.99Z</time></trkpt><trkpt lat="45.886622106237766" lon="9.720436878121205"><ele>1035.0</ele><time>2026-03-28T11:25:32.989Z</time></trkpt><trkpt lat="45.88671337320753" lon="9.720349996747888"><ele>1035.0</ele><time>2026-03-28T11:25:33.989Z</time></trkpt><trkpt lat="45.88683894721989" lon="9.720228723865654"><ele>1035.0</ele><time>2026-03-28T11:25:34.989Z</time></trkpt><trkpt lat="45.8869674813694" lon="9.720060190061233"><ele>1041.3333333333333</ele><time>2026-03-28T11:25:35.989Z</time></trkpt><trkpt lat="45.88711186097589" lon="9.719878040083321"><ele>1047.6666666666665</ele><time>2026-03-28T11:25:36.989Z</time></trkpt><trkpt lat="45.88725137540649" lon="9.71970424190512"><ele>1054.0</ele><time>2026-03-28T11:25:37.989Z</time></trkpt><trkpt lat="45.88742923002985" lon="9.71955525073028"><ele>1052.6666666666665</ele><time>2026-03-28T11:25:38.989Z</time></trkpt><trkpt lat="45.88761677671302" lon="9.719419178141235"><ele>1051.3333333333333</ele><time>2026-03-28T11:25:39.989Z</time></trkpt><trkpt lat="45.88779098652278" lon="9.719288273354591"><ele>1050.0</ele><time>2026-03-28T11:25:40.989Z</time></trkpt><trkpt lat="45.88797174078118" lon="9.719206607514534"><ele>1050.0</ele><time>2026-03-28T11:25:41.989Z</time></trkpt><trkpt lat="45.88814471823009" lon="9.719129162284009"><ele>1050.0</ele><time>2026-03-28T11:25:42.988Z</time></trkpt><trkpt lat="45.888330622976355" lon="9.71905098575963"><ele>1050.0</ele><time>2026-03-28T11:25:43.988Z</time></trkpt><trkpt lat="45.88849495144857" lon="9.718976507240864"><ele>1055.75</ele><time>2026-03-28T11:25:44.988Z</time></trkpt><trkpt lat="45.88863742116175" lon="9.718925106770145"><ele>1061.5</ele><time>2026-03-28T11:25:45.988Z</time></trkpt><trkpt lat="45.88875037853552" lon="9.718865187262756"><ele>1067.25</ele><time>2026-03-28T11:25:46.988Z</time></trkpt><trkpt lat="45.88884092077092" lon="9.718806449145093"><ele>1073.0</ele><time>2026-03-28T11:25:47.988Z</time></trkpt><trkpt lat="45.88890533609208" lon="9.718709537739802"><ele>1073.0</ele><time>2026-03-28T11:25:48.988Z</time></trkpt><trkpt lat="45.88891931746791" lon="9.71857153598475"><ele>1073.0</ele><time>2026-03-28T11:25:49.988Z</time></trkpt><trkpt lat="45.888894848427526" lon="9.718422703821423"><ele>1073.0</ele><time>2026-03-28T11:25:50.988Z</time></trkpt><trkpt lat="45.88879038369759" lon="9.7182608583212"><ele>1073.0</ele><time>2026-03-28T11:25:51.988Z</time></trkpt><trkpt lat="45.888662568887035" lon="9.718141569178997"><ele>1068.0</ele><time>2026-03-28T11:25:52.988Z</time></trkpt><trkpt lat="45.88855719949641" lon="9.71801846023836"><ele>1063.0</ele><time>2026-03-28T11:25:53.988Z</time></trkpt><trkpt lat="45.888448400148135" lon="9.717877561002416"><ele>1058.0</ele><time>2026-03-28T11:25:54.988Z</time></trkpt><trkpt lat="45.8883397861631" lon="9.717774054431558"><ele>1053.0</ele><time>2026-03-28T11:25:55.988Z</time></trkpt><trkpt lat="45.88820630647752" lon="9.717702762672289"><ele>1051.6666666666667</ele><time>2026-03-28T11:25:56.988Z</time></trkpt><trkpt lat="45.888024067182016" lon="9.717716355114492"><ele>1050.3333333333335</ele><time>2026-03-28T11:25:57.988Z</time></trkpt><trkpt lat="45.88784155004873" lon="9.717736505969103"><ele>1049.0</ele><time>2026-03-28T11:25:58.988Z</time></trkpt><trkpt lat="45.88768989689997" lon="9.717784112337998"><ele>1039.3333333333335</ele><time>2026-03-28T11:25:59.988Z</time></trkpt><trkpt lat="45.88754302311474" lon="9.717833019821523"><ele>1029.6666666666667</ele><time>2026-03-28T11:26:00.988Z</time></trkpt><trkpt lat="45.88739459810162" lon="9.717844692261936"><ele>1020.0</ele><time>2026-03-28T11:26:01.988Z</time></trkpt><trkpt lat="45.88723607946769" lon="9.717834211533322"><ele>1020.0</ele><time>2026-03-28T11:26:02.988Z</time></trkpt><trkpt lat="45.88707772334631" lon="9.717788952892784"><ele>1020.0</ele><time>2026-03-28T11:26:03.988Z</time></trkpt><trkpt lat="45.88692790326563" lon="9.717694347106137"><ele>1020.0</ele><time>2026-03-28T11:26:04.988Z</time></trkpt><trkpt lat="45.88676228042822" lon="9.717605096637802"><ele>1026.5</ele><time>2026-03-28T11:26:05.988Z</time></trkpt><trkpt lat="45.88661441931477" lon="9.717495304306619"><ele>1033.0</ele><time>2026-03-28T11:26:06.988Z</time></trkpt><trkpt lat="45.8865010793793" lon="9.717402882008102"><ele>1039.5</ele><time>2026-03-28T11:26:07.988Z</time></trkpt><trkpt lat="45.886412487121355" lon="9.717278276606487"><ele>1046.0</ele><time>2026-03-28T11:26:08.988Z</time></trkpt><trkpt lat="45.88634960986971" lon="9.71709986004768"><ele>1046.0</ele><time>2026-03-28T11:26:09.988Z</time></trkpt><trkpt lat="45.88629069703991" lon="9.716907756872441"><ele>1046.0</ele><time>2026-03-28T11:26:10.988Z</time></trkpt><trkpt lat="45.88620893809785" lon="9.716765572458268"><ele>1046.0</ele><time>2026-03-28T11:26:11.988Z</time></trkpt><trkpt lat="45.88611053767914" lon="9.716602610397594"><ele>1046.0</ele><time>2026-03-28T11:26:12.988Z</time></trkpt><trkpt lat="45.88597047487329" lon="9.716517638696132"><ele>1046.6666666666667</ele><time>2026-03-28T11:26:13.988Z</time></trkpt><trkpt lat="45.885815941704365" lon="9.71646867042472"><ele>1047.3333333333333</ele><time>2026-03-28T11:26:14.988Z</time></trkpt><trkpt lat="45.88565967693347" lon="9.716390318648399"><ele>1048.0</ele><time>2026-03-28T11:26:15.988Z</time></trkpt><trkpt lat="45.88549977355406" lon="9.716378882552226"><ele>1048.0</ele><time>2026-03-28T11:26:16.986Z</time></trkpt><trkpt lat="45.88535886661919" lon="9.716316898338029"><ele>1048.0</ele><time>2026-03-28T11:26:17.985Z</time></trkpt><trkpt lat="45.88523012314006" lon="9.716235768745003"><ele>1048.0</ele><time>2026-03-28T11:26:18.985Z</time></trkpt><trkpt lat="45.8851142836731" lon="9.716161753590267"><ele>1048.0</ele><time>2026-03-28T11:26:19.986Z</time></trkpt><trkpt lat="45.88499928143555" lon="9.716124614185123"><ele>1044.5</ele><time>2026-03-28T11:26:20.986Z</time></trkpt><trkpt lat="45.884881440977004" lon="9.716194588548376"><ele>1041.0</ele><time>2026-03-28T11:26:21.986Z</time></trkpt><trkpt lat="45.88475494544345" lon="9.716271229827488"><ele>1037.5</ele><time>2026-03-28T11:26:22.986Z</time></trkpt><trkpt lat="45.88462323760477" lon="9.716360039818058"><ele>1034.0</ele><time>2026-03-28T11:26:23.986Z</time></trkpt><trkpt lat="45.884545325964154" lon="9.716381177024527"><ele>1034.0</ele><time>2026-03-28T11:26:24.986Z</time></trkpt><trkpt lat="45.884473138906216" lon="9.716318369498405"><ele>1034.0</ele><time>2026-03-28T11:26:25.986Z</time></trkpt><trkpt lat="45.88438517732869" lon="9.716197288003634"><ele>1034.0</ele><time>2026-03-28T11:26:26.986Z</time></trkpt><trkpt lat="45.88432493960894" lon="9.716011214906283"><ele>1034.0</ele><time>2026-03-28T11:26:27.986Z</time></trkpt><trkpt lat="45.884252629795014" lon="9.715799094207663"><ele>1036.3333333333335</ele><time>2026-03-28T11:26:28.986Z</time></trkpt><trkpt lat="45.884160520926294" lon="9.715563899303847"><ele>1038.6666666666667</ele><time>2026-03-28T11:26:29.986Z</time></trkpt><trkpt lat="45.88404535261002" lon="9.715274811824791"><ele>1041.0</ele><time>2026-03-28T11:26:30.986Z</time></trkpt><trkpt lat="45.883921677280945" lon="9.715024301435943"><ele>1049.0</ele><time>2026-03-28T11:26:31.986Z</time></trkpt><trkpt lat="45.883800252571625" lon="9.714769525889277"><ele>1057.0</ele><time>2026-03-28T11:26:32.986Z</time></trkpt><trkpt lat="45.883686473600875" lon="9.714513429622464"><ele>1065.0</ele><time>2026-03-28T11:26:33.986Z</time></trkpt><trkpt lat="45.88356974899137" lon="9.714291576838054"><ele>1070.3333333333333</ele><time>2026-03-28T11:26:34.986Z</time></trkpt><trkpt lat="45.88346789470137" lon="9.71406708207201"><ele>1075.6666666666665</ele><time>2026-03-28T11:26:35.986Z</time></trkpt><trkpt lat="45.88336823131847" lon="9.713861900429631"><ele>1081.0</ele><time>2026-03-28T11:26:36.986Z</time></trkpt><trkpt lat="45.88325650583932" lon="9.71365053213515"><ele>1075.0</ele><time>2026-03-28T11:26:37.986Z</time></trkpt><trkpt lat="45.88314163325212" lon="9.713402564528199"><ele>1069.0</ele><time>2026-03-28T11:26:38.986Z</time></trkpt><trkpt lat="45.883034143681925" lon="9.713115345417625"><ele>1063.0</ele><time>2026-03-28T11:26:39.986Z</time></trkpt><trkpt lat="45.882938587112925" lon="9.712832159417049"><ele>1070.0</ele><time>2026-03-28T11:26:40.986Z</time></trkpt><trkpt lat="45.88285462996005" lon="9.712577536765096"><ele>1077.0</ele><time>2026-03-28T11:26:41.986Z</time></trkpt><trkpt lat="45.88277779775637" lon="9.71234079232804"><ele>1084.0</ele><time>2026-03-28T11:26:42.986Z</time></trkpt><trkpt lat="45.88270274835207" lon="9.7121136086993"><ele>1084.0</ele><time>2026-03-28T11:26:43.986Z</time></trkpt><trkpt lat="45.88261726391494" lon="9.71191672604379"><ele>1084.0</ele><time>2026-03-28T11:26:44.986Z</time></trkpt><trkpt lat="45.88252919798909" lon="9.711713070792355"><ele>1084.0</ele><time>2026-03-28T11:26:45.986Z</time></trkpt><trkpt lat="45.882463299345964" lon="9.711530023475804"><ele>1081.5</ele><time>2026-03-28T11:26:46.986Z</time></trkpt><trkpt lat="45.88241327445774" lon="9.71132979736457"><ele>1079.0</ele><time>2026-03-28T11:26:47.986Z</time></trkpt><trkpt lat="45.882384917427125" lon="9.711128558666763"><ele>1076.5</ele><time>2026-03-28T11:26:48.986Z</time></trkpt><trkpt lat="45.882338545617046" lon="9.71095958218744"><ele>1074.0</ele><time>2026-03-28T11:26:49.986Z</time></trkpt><trkpt lat="45.88227976143059" lon="9.710796256672259"><ele>1074.0</ele><time>2026-03-28T11:26:50.986Z</time></trkpt><trkpt lat="45.88217826346451" lon="9.710689754693172"><ele>1074.0</ele><time>2026-03-28T11:26:51.986Z</time></trkpt><trkpt lat="45.882057344171336" lon="9.710627417016482"><ele>1074.0</ele><time>2026-03-28T11:26:52.986Z</time></trkpt><trkpt lat="45.88192939834469" lon="9.710580645350626"><ele>1074.0</ele><time>2026-03-28T11:26:53.986Z</time></trkpt><trkpt lat="45.88182138809536" lon="9.71055500855489"><ele>1071.0</ele><time>2026-03-28T11:26:54.986Z</time></trkpt><trkpt lat="45.88170060363694" lon="9.71056439079648"><ele>1068.0</ele><time>2026-03-28T11:26:55.986Z</time></trkpt><trkpt lat="45.88156900679199" lon="9.710653763844004"><ele>1065.0</ele><time>2026-03-28T11:26:56.986Z</time></trkpt><trkpt lat="45.88145011410364" lon="9.710765542917251"><ele>1062.0</ele><time>2026-03-28T11:26:57.986Z</time></trkpt><trkpt lat="45.88137422135002" lon="9.710936635584625"><ele>1055.6666666666667</ele><time>2026-03-28T11:26:58.986Z</time></trkpt><trkpt lat="45.88131878934812" lon="9.7111541292534"><ele>1049.3333333333335</ele><time>2026-03-28T11:26:59.986Z</time></trkpt><trkpt lat="45.88126630025237" lon="9.711407579644153"><ele>1043.0</ele><time>2026-03-28T11:27:00.986Z</time></trkpt><trkpt lat="45.88119932352897" lon="9.711619474534691"><ele>1043.0</ele><time>2026-03-28T11:27:01.986Z</time></trkpt><trkpt lat="45.88114213924283" lon="9.711803086145824"><ele>1043.0</ele><time>2026-03-28T11:27:02.986Z</time></trkpt><trkpt lat="45.88109843331002" lon="9.711972148256358"><ele>1043.0</ele><time>2026-03-28T11:27:03.986Z</time></trkpt><trkpt lat="45.88105623804373" lon="9.712127895783015"><ele>1043.0</ele><time>2026-03-28T11:27:04.986Z</time></trkpt><trkpt lat="45.881043379278545" lon="9.712289323378696"><ele>1045.6</ele><time>2026-03-28T11:27:05.986Z</time></trkpt><trkpt lat="45.881027468320255" lon="9.712429125197097"><ele>1048.1999999999998</ele><time>2026-03-28T11:27:06.986Z</time></trkpt><trkpt lat="45.88100797071006" lon="9.71253634643565"><ele>1050.8</ele><time>2026-03-28T11:27:07.986Z</time></trkpt><trkpt lat="45.88097099204316" lon="9.712634310530825"><ele>1053.3999999999999</ele><time>2026-03-28T11:27:08.986Z</time></trkpt><trkpt lat="45.880872987340766" lon="9.712677330222396"><ele>1056.0</ele><time>2026-03-28T11:27:09.986Z</time></trkpt><trkpt lat="45.88073196262191" lon="9.712699289767185"><ele>1056.0</ele><time>2026-03-28T11:27:10.986Z</time></trkpt><trkpt lat="45.88055414117645" lon="9.712699555232817"><ele>1056.0</ele><time>2026-03-28T11:27:11.986Z</time></trkpt><trkpt lat="45.880410247042306" lon="9.71267860579632"><ele>1056.0</ele><time>2026-03-28T11:27:12.986Z</time></trkpt><trkpt lat="45.88029040472119" lon="9.712657742957829"><ele>1056.0</ele><time>2026-03-28T11:27:13.986Z</time></trkpt><trkpt lat="45.88018783047487" lon="9.712618158810697"><ele>1056.0</ele><time>2026-03-28T11:27:14.986Z</time></trkpt><trkpt lat="45.88011712255978" lon="9.71256197444853"><ele>1056.0</ele><time>2026-03-28T11:27:15.986Z</time></trkpt><trkpt lat="45.880096876620534" lon="9.712461454759922"><ele>1056.0</ele><time>2026-03-28T11:27:16.986Z</time></trkpt><trkpt lat="45.88010299187903" lon="9.712323746108567"><ele>1056.0</ele><time>2026-03-28T11:27:17.986Z</time></trkpt><trkpt lat="45.88011879659723" lon="9.71214667162177"><ele>1056.0</ele><time>2026-03-28T11:27:18.986Z</time></trkpt><trkpt lat="45.88011902644762" lon="9.711964703595921"><ele>1060.0</ele><time>2026-03-28T11:27:19.986Z</time></trkpt><trkpt lat="45.880132937475736" lon="9.711759841164017"><ele>1064.0</ele><time>2026-03-28T11:27:20.986Z</time></trkpt><trkpt lat="45.880170171733816" lon="9.711561351605262"><ele>1068.0</ele><time>2026-03-28T11:27:21.986Z</time></trkpt><trkpt lat="45.880221016254964" lon="9.71136041221009"><ele>1072.0</ele><time>2026-03-28T11:27:22.986Z</time></trkpt><trkpt lat="45.880263728556166" lon="9.711164386920863"><ele>1074.0</ele><time>2026-03-28T11:27:23.986Z</time></trkpt><trkpt lat="45.88025738107588" lon="9.710964881676288"><ele>1076.0</ele><time>2026-03-28T11:27:24.986Z</time></trkpt><trkpt lat="45.880218790263115" lon="9.710746728264226"><ele>1078.0</ele><time>2026-03-28T11:27:25.986Z</time></trkpt><trkpt lat="45.880166552667596" lon="9.71052148209978"><ele>1078.0</ele><time>2026-03-28T11:27:26.986Z</time></trkpt><trkpt lat="45.88014393580814" lon="9.710321950862543"><ele>1078.0</ele><time>2026-03-28T11:27:27.986Z</time></trkpt><trkpt lat="45.880120819056636" lon="9.710135933263723"><ele>1078.0</ele><time>2026-03-28T11:27:28.986Z</time></trkpt><trkpt lat="45.88007789138083" lon="9.709999682433876"><ele>1078.0</ele><time>2026-03-28T11:27:29.986Z</time></trkpt><trkpt lat="45.87998479709336" lon="9.709897526533021"><ele>1076.0</ele><time>2026-03-28T11:27:30.986Z</time></trkpt><trkpt lat="45.87982855334001" lon="9.709824106868028"><ele>1074.0</ele><time>2026-03-28T11:27:31.986Z</time></trkpt><trkpt lat="45.8797088113917" lon="9.709750467475649"><ele>1072.0</ele><time>2026-03-28T11:27:32.986Z</time></trkpt><trkpt lat="45.87960040243005" lon="9.7096944335124"><ele>1070.0</ele><time>2026-03-28T11:27:33.986Z</time></trkpt><trkpt lat="45.879537031696216" lon="9.709596903518788"><ele>1070.0</ele><time>2026-03-28T11:27:34.986Z</time></trkpt><trkpt lat="45.879540385554435" lon="9.7094439839083"><ele>1070.0</ele><time>2026-03-28T11:27:35.986Z</time></trkpt><trkpt lat="45.87957590317075" lon="9.709258988266338"><ele>1070.0</ele><time>2026-03-28T11:27:36.986Z</time></trkpt><trkpt lat="45.87964960311017" lon="9.709077554459334"><ele>1070.0</ele><time>2026-03-28T11:27:37.986Z</time></trkpt><trkpt lat="45.87974050642981" lon="9.70890306449997"><ele>1069.75</ele><time>2026-03-28T11:27:38.986Z</time></trkpt><trkpt lat="45.879837188449955" lon="9.70872139716523"><ele>1069.5</ele><time>2026-03-28T11:27:39.986Z</time></trkpt><trkpt lat="45.879936644786284" lon="9.708567750060418"><ele>1069.25</ele><time>2026-03-28T11:27:40.986Z</time></trkpt><trkpt lat="45.88004086989177" lon="9.708450538709728"><ele>1069.0</ele><time>2026-03-28T11:27:41.986Z</time></trkpt><trkpt lat="45.88016239097779" lon="9.708375120103016"><ele>1068.5</ele><time>2026-03-28T11:27:42.986Z</time></trkpt><trkpt lat="45.88030238976748" lon="9.708344108719537"><ele>1068.0</ele><time>2026-03-28T11:27:43.986Z</time></trkpt><trkpt lat="45.88043822406106" lon="9.708338442678054"><ele>1067.5</ele><time>2026-03-28T11:27:44.986Z</time></trkpt><trkpt lat="45.880542735852856" lon="9.708321679275173"><ele>1067.0</ele><time>2026-03-28T11:27:45.986Z</time></trkpt><trkpt lat="45.8806232672382" lon="9.708260665965087"><ele>1067.0</ele><time>2026-03-28T11:27:46.986Z</time></trkpt><trkpt lat="45.880682267093945" lon="9.708133675186765"><ele>1067.0</ele><time>2026-03-28T11:27:47.986Z</time></trkpt><trkpt lat="45.88075105929933" lon="9.707983503279456"><ele>1067.0</ele><time>2026-03-28T11:27:48.986Z</time></trkpt><trkpt lat="45.8808092531092" lon="9.707769573950701"><ele>1067.0</ele><time>2026-03-28T11:27:49.986Z</time></trkpt><trkpt lat="45.880854718386374" lon="9.707562663055409"><ele>1063.5</ele><time>2026-03-28T11:27:50.986Z</time></trkpt><trkpt lat="45.88090872207003" lon="9.707393177309264"><ele>1060.0</ele><time>2026-03-28T11:27:51.986Z</time></trkpt><trkpt lat="45.88097516097319" lon="9.707236168666002"><ele>1056.5</ele><time>2026-03-28T11:27:52.986Z</time></trkpt><trkpt lat="45.88104451598205" lon="9.707078203846015"><ele>1053.0</ele><time>2026-03-28T11:27:53.986Z</time></trkpt><trkpt lat="45.88110032564047" lon="9.706927286946026"><ele>1051.4</ele><time>2026-03-28T11:27:54.986Z</time></trkpt><trkpt lat="45.88112642921135" lon="9.70679211974128"><ele>1049.8</ele><time>2026-03-28T11:27:55.986Z</time></trkpt><trkpt lat="45.88111545040381" lon="9.706651606757072"><ele>1048.2</ele><time>2026-03-28T11:27:56.986Z</time></trkpt><trkpt lat="45.88106753538197" lon="9.70650836959047"><ele>1046.6</ele><time>2026-03-28T11:27:57.986Z</time></trkpt><trkpt lat="45.88099540189811" lon="9.70635047052511"><ele>1045.0</ele><time>2026-03-28T11:27:58.986Z</time></trkpt><trkpt lat="45.88092870190052" lon="9.706181630821723"><ele>1048.0</ele><time>2026-03-28T11:27:59.986Z</time></trkpt><trkpt lat="45.88088242101749" lon="9.706000376220576"><ele>1051.0</ele><time>2026-03-28T11:28:00.986Z</time></trkpt><trkpt lat="45.88086335221284" lon="9.705818016709165"><ele>1054.0</ele><time>2026-03-28T11:28:01.986Z</time></trkpt><trkpt lat="45.880864027950345" lon="9.705593011085323"><ele>1057.0</ele><time>2026-03-28T11:28:02.986Z</time></trkpt><trkpt lat="45.880832319544005" lon="9.705359909978114"><ele>1064.3333333333333</ele><time>2026-03-28T11:28:03.986Z</time></trkpt><trkpt lat="45.88076542022306" lon="9.70513171382518"><ele>1071.6666666666667</ele><time>2026-03-28T11:28:04.986Z</time></trkpt><trkpt lat="45.88066449265133" lon="9.704906563707933"><ele>1079.0</ele><time>2026-03-28T11:28:05.986Z</time></trkpt><trkpt lat="45.880573819105784" lon="9.70469830567741"><ele>1079.0</ele><time>2026-03-28T11:28:06.986Z</time></trkpt><trkpt lat="45.880506325392126" lon="9.70451319964654"><ele>1079.0</ele><time>2026-03-28T11:28:07.986Z</time></trkpt><trkpt lat="45.880448784800535" lon="9.70435380551603"><ele>1079.0</ele><time>2026-03-28T11:28:08.986Z</time></trkpt><trkpt lat="45.88033130504647" lon="9.704237137093848"><ele>1079.0</ele><time>2026-03-28T11:28:09.986Z</time></trkpt><trkpt lat="45.88018958921143" lon="9.704180924058933"><ele>1073.5</ele><time>2026-03-28T11:28:10.986Z</time></trkpt><trkpt lat="45.880046018469145" lon="9.704158912836675"><ele>1068.0</ele><time>2026-03-28T11:28:11.986Z</time></trkpt><trkpt lat="45.879919008594804" lon="9.704104076338224"><ele>1062.5</ele><time>2026-03-28T11:28:12.986Z</time></trkpt><trkpt lat="45.8798114889018" lon="9.704028320781713"><ele>1057.0</ele><time>2026-03-28T11:28:13.987Z</time></trkpt><trkpt lat="45.87971786154662" lon="9.703925126112448"><ele>1057.0</ele><time>2026-03-28T11:28:14.987Z</time></trkpt><trkpt lat="45.87963707516753" lon="9.703798137163828"><ele>1057.0</ele><time>2026-03-28T11:28:15.987Z</time></trkpt><trkpt lat="45.879546276408995" lon="9.703709173626624"><ele>1057.0</ele><time>2026-03-28T11:28:16.987Z</time></trkpt><trkpt lat="45.87948956473072" lon="9.703544336532357"><ele>1057.0</ele><time>2026-03-28T11:28:17.987Z</time></trkpt><trkpt lat="45.87943804401527" lon="9.703335704331487"><ele>1067.0</ele><time>2026-03-28T11:28:18.987Z</time></trkpt><trkpt lat="45.87939299699057" lon="9.703082503732986"><ele>1077.0</ele><time>2026-03-28T11:28:19.987Z</time></trkpt><trkpt lat="45.879337703358765" lon="9.702866173726283"><ele>1087.0</ele><time>2026-03-28T11:28:20.987Z</time></trkpt><trkpt lat="45.8792904283159" lon="9.70267266516608"><ele>1077.0</ele><time>2026-03-28T11:28:21.987Z</time></trkpt><trkpt lat="45.879216994357755" lon="9.702498936799305"><ele>1067.0</ele><time>2026-03-28T11:28:22.985Z</time></trkpt><trkpt lat="45.87909789041975" lon="9.70237214172136"><ele>1057.0</ele><time>2026-03-28T11:28:23.985Z</time></trkpt><trkpt lat="45.87899681313801" lon="9.702251166251664"><ele>1047.0</ele><time>2026-03-28T11:28:24.985Z</time></trkpt><trkpt lat="45.87890123149184" lon="9.702149434041589"><ele>1047.0</ele><time>2026-03-28T11:28:25.985Z</time></trkpt><trkpt lat="45.87885793839496" lon="9.70208212846409"><ele>1047.0</ele><time>2026-03-28T11:28:26.985Z</time></trkpt><trkpt lat="45.878880605526724" lon="9.701958974823848"><ele>1047.0</ele><time>2026-03-28T11:28:27.985Z</time></trkpt><trkpt lat="45.878928251124705" lon="9.701816207516233"><ele>1047.0</ele><time>2026-03-28T11:28:28.985Z</time></trkpt><trkpt lat="45.87898083816229" lon="9.701655439339733"><ele>1047.0</ele><time>2026-03-28T11:28:29.985Z</time></trkpt><trkpt lat="45.879036524013884" lon="9.701484807787914"><ele>1045.8</ele><time>2026-03-28T11:28:30.985Z</time></trkpt><trkpt lat="45.87909554982939" lon="9.701328851954736"><ele>1044.6</ele><time>2026-03-28T11:28:31.985Z</time></trkpt><trkpt lat="45.87914024568908" lon="9.701186088283718"><ele>1043.3999999999999</ele><time>2026-03-28T11:28:32.985Z</time></trkpt><trkpt lat="45.8791898440788" lon="9.701049119763162"><ele>1042.2</ele><time>2026-03-28T11:28:33.985Z</time></trkpt><trkpt lat="45.87922123568459" lon="9.700936160074798"><ele>1041.0</ele><time>2026-03-28T11:28:34.985Z</time></trkpt><trkpt lat="45.8792701839326" lon="9.700817282267293"><ele>1041.0</ele><time>2026-03-28T11:28:36.985Z</time></trkpt><trkpt lat="45.879326103525656" lon="9.70072439997671"><ele>1041.0</ele><time>2026-03-28T11:28:38.985Z</time></trkpt><trkpt lat="45.87938261745369" lon="9.700636675390777"><ele>1041.0</ele><time>2026-03-28T11:28:39.985Z</time></trkpt><trkpt lat="45.879443776521335" lon="9.700518811748314"><ele>1041.0</ele><time>2026-03-28T11:28:40.985Z</time></trkpt><trkpt lat="45.87949996801063" lon="9.700407621939855"><ele>1041.0</ele><time>2026-03-28T11:28:41.985Z</time></trkpt><trkpt lat="45.87957470380474" lon="9.70029287780701"><ele>1038.0</ele><time>2026-03-28T11:28:42.985Z</time></trkpt><trkpt lat="45.87965319145104" lon="9.700147278704204"><ele>1035.0</ele><time>2026-03-28T11:28:43.985Z</time></trkpt><trkpt lat="45.879723539407934" lon="9.699974828033936"><ele>1032.0</ele><time>2026-03-28T11:28:44.985Z</time></trkpt><trkpt lat="45.87978251130435" lon="9.699790468562421"><ele>1029.0</ele><time>2026-03-28T11:28:45.985Z</time></trkpt><trkpt lat="45.879825023936625" lon="9.699596667402895"><ele>1026.0</ele><time>2026-03-28T11:28:46.985Z</time></trkpt><trkpt lat="45.87984604750501" lon="9.699406106743982"><ele>1023.0</ele><time>2026-03-28T11:28:47.985Z</time></trkpt><trkpt lat="45.87985468892343" lon="9.699211758962546"><ele>1020.0</ele><time>2026-03-28T11:28:48.985Z</time></trkpt><trkpt lat="45.87985989213038" lon="9.699014432922146"><ele>1017.0</ele><time>2026-03-28T11:28:49.985Z</time></trkpt><trkpt lat="45.87985839417116" lon="9.698866552044633"><ele>1017.0</ele><time>2026-03-28T11:28:50.985Z</time></trkpt><trkpt lat="45.87991580783613" lon="9.698724788081428"><ele>1017.0</ele><time>2026-03-28T11:28:51.985Z</time></trkpt><trkpt lat="45.87999463667437" lon="9.69864096355063"><ele>1017.0</ele><time>2026-03-28T11:28:52.985Z</time></trkpt><trkpt lat="45.880087135901874" lon="9.698587963445531"><ele>1017.0</ele><time>2026-03-28T11:28:53.985Z</time></trkpt><trkpt lat="45.880166514712705" lon="9.698529995665723"><ele>1017.0</ele><time>2026-03-28T11:28:54.985Z</time></trkpt><trkpt lat="45.880218699169156" lon="9.698427056871855"><ele>1019.6</ele><time>2026-03-28T11:28:55.985Z</time></trkpt><trkpt lat="45.8802185807049" lon="9.698319029259931"><ele>1022.2</ele><time>2026-03-28T11:28:56.985Z</time></trkpt><trkpt lat="45.8801368398575" lon="9.698208429310927"><ele>1024.8</ele><time>2026-03-28T11:28:57.985Z</time></trkpt><trkpt lat="45.880045529020066" lon="9.698091182112568"><ele>1027.4</ele><time>2026-03-28T11:28:58.985Z</time></trkpt><trkpt lat="45.87997172739029" lon="9.697971265354056"><ele>1030.0</ele><time>2026-03-28T11:28:59.985Z</time></trkpt><trkpt lat="45.879948780222044" lon="9.697851590807419"><ele>1030.0</ele><time>2026-03-28T11:29:00.985Z</time></trkpt><trkpt lat="45.87996884240347" lon="9.697738414150047"><ele>1030.0</ele><time>2026-03-28T11:29:01.985Z</time></trkpt><trkpt lat="45.88003612266941" lon="9.697727255832797"><ele>1030.0</ele><time>2026-03-28T11:29:05.985Z</time></trkpt><trkpt lat="45.88005744487916" lon="9.697630837852442"><ele>1030.0</ele><time>2026-03-28T11:30:42.985Z</time></trkpt><trkpt lat="45.880102727136666" lon="9.69778185105401"><ele>1030.0</ele><time>2026-03-28T11:47:33.979Z</time></trkpt><trkpt lat="45.8800585017166" lon="9.697709282164032"><ele>1030.0</ele><time>2026-03-28T11:49:41.934Z</time></trkpt><trkpt lat="45.879983300468226" lon="9.697783779841005"><ele>1025.5</ele><time>2026-03-28T11:49:54.934Z</time></trkpt><trkpt lat="45.87999319799944" lon="9.69790042477909"><ele>1021.0</ele><time>2026-03-28T11:49:56.934Z</time></trkpt><trkpt lat="45.880018739120096" lon="9.698063035861168"><ele>1016.5</ele><time>2026-03-28T11:49:58.934Z</time></trkpt><trkpt lat="45.88004982079396" lon="9.698188282968639"><ele>1012.0</ele><time>2026-03-28T11:50:00.934Z</time></trkpt><trkpt lat="45.880062992964426" lon="9.698296481007109"><ele>1007.4999999999999</ele><time>2026-03-28T11:50:02.934Z</time></trkpt><trkpt lat="45.88006252024706" lon="9.698414187888735"><ele>1003.0</ele><time>2026-03-28T11:50:03.934Z</time></trkpt><trkpt lat="45.8800106899938" lon="9.698535268639725"><ele>1002.9999999999999</ele><time>2026-03-28T11:50:04.934Z</time></trkpt><trkpt lat="45.8799078477912" lon="9.698570088087545"><ele>1003.0</ele><time>2026-03-28T11:50:05.933Z</time></trkpt><trkpt lat="45.879848448955975" lon="9.69863773229551"><ele>1003.0</ele><time>2026-03-28T11:50:06.933Z</time></trkpt><trkpt lat="45.8797999373247" lon="9.698713073940308"><ele>1003.0</ele><time>2026-03-28T11:50:07.933Z</time></trkpt><trkpt lat="45.87973808077218" lon="9.698772950586145"><ele>1002.9999999999999</ele><time>2026-03-28T11:50:08.933Z</time></trkpt><trkpt lat="45.879682860657105" lon="9.698866805834223"><ele>1003.0</ele><time>2026-03-28T11:50:09.933Z</time></trkpt><trkpt lat="45.879629479405" lon="9.69895529779806"><ele>1005.8</ele><time>2026-03-28T11:50:10.933Z</time></trkpt><trkpt lat="45.87955758918388" lon="9.699046910967787"><ele>1008.5999999999999</ele><time>2026-03-28T11:50:11.933Z</time></trkpt><trkpt lat="45.87947584353104" lon="9.69913297144746"><ele>1011.4000000000001</ele><time>2026-03-28T11:50:12.933Z</time></trkpt><trkpt lat="45.87939905156989" lon="9.699208183121131"><ele>1014.2</ele><time>2026-03-28T11:50:13.933Z</time></trkpt><trkpt lat="45.8793304334807" lon="9.699297257298106"><ele>1017.0</ele><time>2026-03-28T11:50:14.933Z</time></trkpt><trkpt lat="45.87926882644033" lon="9.69938016874609"><ele>1014.1666666666666</ele><time>2026-03-28T11:50:15.933Z</time></trkpt><trkpt lat="45.87920705442412" lon="9.699475207117004"><ele>1011.3333333333333</ele><time>2026-03-28T11:50:16.933Z</time></trkpt><trkpt lat="45.8791570965833" lon="9.699600701070512"><ele>1008.5</ele><time>2026-03-28T11:50:17.933Z</time></trkpt><trkpt lat="45.87911615328208" lon="9.699729107971004"><ele>1005.6666666666666</ele><time>2026-03-28T11:50:18.933Z</time></trkpt><trkpt lat="45.879084313419476" lon="9.699822600982781"><ele>1002.8333333333333</ele><time>2026-03-28T11:50:19.933Z</time></trkpt><trkpt lat="45.87903592945928" lon="9.699888114746532"><ele>1000.0</ele><time>2026-03-28T11:50:20.933Z</time></trkpt><trkpt lat="45.87894085763854" lon="9.699904446474212"><ele>1000.0</ele><time>2026-03-28T11:50:22.933Z</time></trkpt><trkpt lat="45.87888779101837" lon="9.699764553415294"><ele>1000.0</ele><time>2026-03-28T11:50:24.933Z</time></trkpt><trkpt lat="45.878909035452374" lon="9.699639448467488"><ele>1000.0</ele><time>2026-03-28T11:50:25.933Z</time></trkpt><trkpt lat="45.87896501874403" lon="9.699501311065573"><ele>1000.0</ele><time>2026-03-28T11:50:26.933Z</time></trkpt><trkpt lat="45.87901793756331" lon="9.699407768187289"><ele>1000.0</ele><time>2026-03-28T11:50:27.933Z</time></trkpt><trkpt lat="45.879053186281695" lon="9.699316999408456"><ele>996.8</ele><time>2026-03-28T11:50:28.933Z</time></trkpt><trkpt lat="45.879100318872005" lon="9.699215771215908"><ele>993.6</ele><time>2026-03-28T11:50:29.933Z</time></trkpt><trkpt lat="45.8791759184856" lon="9.699113806441229"><ele>990.4000000000001</ele><time>2026-03-28T11:50:30.933Z</time></trkpt><trkpt lat="45.8792429612567" lon="9.698999118912445"><ele>987.2</ele><time>2026-03-28T11:50:31.933Z</time></trkpt><trkpt lat="45.87933097782744" lon="9.69887925026842"><ele>984.0</ele><time>2026-03-28T11:50:32.933Z</time></trkpt><trkpt lat="45.87942200489866" lon="9.698765320990583"><ele>987.8000000000001</ele><time>2026-03-28T11:50:33.933Z</time></trkpt><trkpt lat="45.87949857168492" lon="9.698676335739032"><ele>991.6000000000001</ele><time>2026-03-28T11:50:34.933Z</time></trkpt><trkpt lat="45.879549155755804" lon="9.698577684485787"><ele>995.4</ele><time>2026-03-28T11:50:35.933Z</time></trkpt><trkpt lat="45.879576566023474" lon="9.698454914274768"><ele>999.2</ele><time>2026-03-28T11:50:36.933Z</time></trkpt><trkpt lat="45.879577565048464" lon="9.69833666137071"><ele>1003.0</ele><time>2026-03-28T11:50:37.933Z</time></trkpt><trkpt lat="45.879536693572625" lon="9.698203476519627"><ele>1003.0</ele><time>2026-03-28T11:50:38.933Z</time></trkpt><trkpt lat="45.87945657884131" lon="9.698058337830586"><ele>1003.0</ele><time>2026-03-28T11:50:39.933Z</time></trkpt><trkpt lat="45.87936923004334" lon="9.697949435855401"><ele>1003.0</ele><time>2026-03-28T11:50:40.933Z</time></trkpt><trkpt lat="45.879306969320695" lon="9.697840760393445"><ele>1003.0</ele><time>2026-03-28T11:50:41.933Z</time></trkpt><trkpt lat="45.8792698719356" lon="9.69771545126162"><ele>1003.0</ele><time>2026-03-28T11:50:42.933Z</time></trkpt><trkpt lat="45.87923467100594" lon="9.6975476451734"><ele>997.0</ele><time>2026-03-28T11:50:43.933Z</time></trkpt><trkpt lat="45.879194456159226" lon="9.697386705814965"><ele>991.0</ele><time>2026-03-28T11:50:44.933Z</time></trkpt><trkpt lat="45.87915171440774" lon="9.697247633676735"><ele>985.0</ele><time>2026-03-28T11:50:45.933Z</time></trkpt><trkpt lat="45.879120283059436" lon="9.697114992385528"><ele>979.0</ele><time>2026-03-28T11:50:46.933Z</time></trkpt><trkpt lat="45.879103471489294" lon="9.697009234553823"><ele>973.0</ele><time>2026-03-28T11:50:47.933Z</time></trkpt><trkpt lat="45.87913249948131" lon="9.696873516094335"><ele>972.5999999999999</ele><time>2026-03-28T11:50:48.933Z</time></trkpt><trkpt lat="45.87916357342919" lon="9.696767502609713"><ele>972.1999999999999</ele><time>2026-03-28T11:50:49.933Z</time></trkpt><trkpt lat="45.879227566414436" lon="9.696692667269385"><ele>971.8</ele><time>2026-03-28T11:50:50.933Z</time></trkpt><trkpt lat="45.879307506872465" lon="9.69656951976971"><ele>971.4</ele><time>2026-03-28T11:50:51.933Z</time></trkpt><trkpt lat="45.87937760789846" lon="9.696429926120162"><ele>971.0</ele><time>2026-03-28T11:50:52.933Z</time></trkpt><trkpt lat="45.879453425523494" lon="9.696277543548046"><ele>974.5</ele><time>2026-03-28T11:50:53.933Z</time></trkpt><trkpt lat="45.879534112208844" lon="9.696121305795733"><ele>978.0</ele><time>2026-03-28T11:50:54.933Z</time></trkpt><trkpt lat="45.879611420195175" lon="9.695985369059537"><ele>981.5</ele><time>2026-03-28T11:50:55.933Z</time></trkpt><trkpt lat="45.87969035791278" lon="9.695861544234827"><ele>985.0</ele><time>2026-03-28T11:50:56.933Z</time></trkpt><trkpt lat="45.87976884762933" lon="9.695756871375645"><ele>985.0</ele><time>2026-03-28T11:50:57.933Z</time></trkpt><trkpt lat="45.879846950244584" lon="9.695649577272743"><ele>985.0</ele><time>2026-03-28T11:50:58.933Z</time></trkpt><trkpt lat="45.87992446176084" lon="9.695539345263027"><ele>985.0</ele><time>2026-03-28T11:50:59.933Z</time></trkpt><trkpt lat="45.88000344740541" lon="9.69546470219786"><ele>985.0</ele><time>2026-03-28T11:51:00.933Z</time></trkpt><trkpt lat="45.880084221284044" lon="9.695397563895778"><ele>985.0</ele><time>2026-03-28T11:51:01.933Z</time></trkpt><trkpt lat="45.88014846984806" lon="9.695336860977976"><ele>992.75</ele><time>2026-03-28T11:51:02.933Z</time></trkpt><trkpt lat="45.88021741313106" lon="9.695276844682999"><ele>1000.5</ele><time>2026-03-28T11:51:03.933Z</time></trkpt><trkpt lat="45.880279964942424" lon="9.69517916944709"><ele>1008.25</ele><time>2026-03-28T11:51:04.933Z</time></trkpt><trkpt lat="45.88032363665012" lon="9.695017524261837"><ele>1016.0</ele><time>2026-03-28T11:51:05.933Z</time></trkpt><trkpt lat="45.880328668683774" lon="9.694793436076829"><ele>1016.0</ele><time>2026-03-28T11:51:06.933Z</time></trkpt><trkpt lat="45.88034704600957" lon="9.694601249461982"><ele>1016.0</ele><time>2026-03-28T11:51:07.933Z</time></trkpt><trkpt lat="45.88039783561326" lon="9.694437030935209"><ele>1016.0</ele><time>2026-03-28T11:51:08.933Z</time></trkpt><trkpt lat="45.8804109144223" lon="9.6942921555552"><ele>1016.0</ele><time>2026-03-28T11:51:09.933Z</time></trkpt><trkpt lat="45.88037510828903" lon="9.694159692518337"><ele>1016.5</ele><time>2026-03-28T11:51:10.933Z</time></trkpt><trkpt lat="45.88032145864361" lon="9.694033187148007"><ele>1017.0</ele><time>2026-03-28T11:51:11.933Z</time></trkpt><trkpt lat="45.88025625292965" lon="9.693882892128018"><ele>1017.5</ele><time>2026-03-28T11:51:12.933Z</time></trkpt><trkpt lat="45.880207908068634" lon="9.693708953980037"><ele>1018.0</ele><time>2026-03-28T11:51:13.933Z</time></trkpt><trkpt lat="45.880190428437224" lon="9.693526325907522"><ele>1018.0</ele><time>2026-03-28T11:51:14.933Z</time></trkpt><trkpt lat="45.88014996373516" lon="9.69338175463953"><ele>1018.0</ele><time>2026-03-28T11:51:15.933Z</time></trkpt><trkpt lat="45.88009123464592" lon="9.693261053353819"><ele>1018.0</ele><time>2026-03-28T11:51:16.933Z</time></trkpt><trkpt lat="45.880003045602336" lon="9.693133917761191"><ele>1018.0</ele><time>2026-03-28T11:51:17.933Z</time></trkpt><trkpt lat="45.879925804745056" lon="9.692984374526292"><ele>1012.0</ele><time>2026-03-28T11:51:18.933Z</time></trkpt><trkpt lat="45.879862275189" lon="9.692851846072145"><ele>1006.0</ele><time>2026-03-28T11:51:19.933Z</time></trkpt><trkpt lat="45.8798406600788" lon="9.692748999191307"><ele>1000.0</ele><time>2026-03-28T11:51:20.933Z</time></trkpt><trkpt lat="45.87982316375739" lon="9.692615368822693"><ele>994.0</ele><time>2026-03-28T11:51:21.933Z</time></trkpt><trkpt lat="45.87979365006071" lon="9.692473891933567"><ele>988.0</ele><time>2026-03-28T11:51:22.933Z</time></trkpt><trkpt lat="45.879727832758824" lon="9.692375850261092"><ele>988.0</ele><time>2026-03-28T11:51:23.933Z</time></trkpt><trkpt lat="45.87961877365412" lon="9.692315230236057"><ele>988.0</ele><time>2026-03-28T11:51:24.933Z</time></trkpt><trkpt lat="45.87950550137122" lon="9.692264613998562"><ele>988.0</ele><time>2026-03-28T11:51:25.933Z</time></trkpt><trkpt lat="45.879401615268485" lon="9.692207403245416"><ele>988.0</ele><time>2026-03-28T11:51:26.933Z</time></trkpt><trkpt lat="45.87929912202647" lon="9.692113234016778"><ele>988.25</ele><time>2026-03-28T11:51:27.933Z</time></trkpt><trkpt lat="45.87920125031326" lon="9.692005232459637"><ele>988.5</ele><time>2026-03-28T11:51:28.932Z</time></trkpt><trkpt lat="45.8791125016145" lon="9.69193470600467"><ele>988.75</ele><time>2026-03-28T11:51:29.932Z</time></trkpt><trkpt lat="45.87901062296874" lon="9.691915145258196"><ele>989.0</ele><time>2026-03-28T11:51:30.932Z</time></trkpt><trkpt lat="45.878884494286325" lon="9.69192835998198"><ele>989.0</ele><time>2026-03-28T11:51:31.932Z</time></trkpt><trkpt lat="45.878750831081256" lon="9.691966432485415"><ele>989.0</ele><time>2026-03-28T11:51:32.932Z</time></trkpt><trkpt lat="45.8786237662518" lon="9.691961070804888"><ele>989.0</ele><time>2026-03-28T11:51:33.932Z</time></trkpt><trkpt lat="45.87851213638211" lon="9.691903273936443"><ele>989.0</ele><time>2026-03-28T11:51:34.932Z</time></trkpt><trkpt lat="45.87841327016235" lon="9.691834018039156"><ele>986.5000000000001</ele><time>2026-03-28T11:51:35.932Z</time></trkpt><trkpt lat="45.87831844306144" lon="9.691774950160568"><ele>984.0</ele><time>2026-03-28T11:51:36.932Z</time></trkpt><trkpt lat="45.87825660950622" lon="9.691713434504567"><ele>981.5</ele><time>2026-03-28T11:51:37.932Z</time></trkpt><trkpt lat="45.87820350452307" lon="9.691609253897642"><ele>979.0</ele><time>2026-03-28T11:51:38.932Z</time></trkpt><trkpt lat="45.87815518794256" lon="9.691518143710672"><ele>976.5000000000001</ele><time>2026-03-28T11:51:39.932Z</time></trkpt><trkpt lat="45.87811630769662" lon="9.691407335225145"><ele>974.0</ele><time>2026-03-28T11:51:40.932Z</time></trkpt><trkpt lat="45.878092606644614" lon="9.69125271792823"><ele>978.25</ele><time>2026-03-28T11:51:41.932Z</time></trkpt><trkpt lat="45.878074758522736" lon="9.691061607874484"><ele>982.5</ele><time>2026-03-28T11:51:42.932Z</time></trkpt><trkpt lat="45.878076313031805" lon="9.6908577884166"><ele>986.75</ele><time>2026-03-28T11:51:43.932Z</time></trkpt><trkpt lat="45.87806516395288" lon="9.690653621299314"><ele>991.0</ele><time>2026-03-28T11:51:44.932Z</time></trkpt><trkpt lat="45.87802869067915" lon="9.690482549744283"><ele>991.0</ele><time>2026-03-28T11:51:45.932Z</time></trkpt><trkpt lat="45.877974015817955" lon="9.690297434770006"><ele>991.0</ele><time>2026-03-28T11:51:46.932Z</time></trkpt><trkpt lat="45.87790481945636" lon="9.690101150341922"><ele>991.0</ele><time>2026-03-28T11:51:47.931Z</time></trkpt><trkpt lat="45.87785217430731" lon="9.689931580806165"><ele>991.0</ele><time>2026-03-28T11:51:48.931Z</time></trkpt><trkpt lat="45.87775892557724" lon="9.689795503908332"><ele>993.0</ele><time>2026-03-28T11:51:49.931Z</time></trkpt><trkpt lat="45.87763508468914" lon="9.689634087256147"><ele>995.0</ele><time>2026-03-28T11:51:50.931Z</time></trkpt><trkpt lat="45.87751546655774" lon="9.689491057688786"><ele>997.0</ele><time>2026-03-28T11:51:51.931Z</time></trkpt><trkpt lat="45.877410260975715" lon="9.689364168575032"><ele>991.5</ele><time>2026-03-28T11:51:52.931Z</time></trkpt><trkpt lat="45.87732093560584" lon="9.689239596355044"><ele>986.0</ele><time>2026-03-28T11:51:53.931Z</time></trkpt><trkpt lat="45.87726071156124" lon="9.689117009229633"><ele>980.5</ele><time>2026-03-28T11:51:54.931Z</time></trkpt><trkpt lat="45.87722905835283" lon="9.688971074436008"><ele>975.0</ele><time>2026-03-28T11:51:55.931Z</time></trkpt><trkpt lat="45.87720627720481" lon="9.688807400641114"><ele>975.0</ele><time>2026-03-28T11:51:56.931Z</time></trkpt><trkpt lat="45.87718184355351" lon="9.688626267926281"><ele>975.0</ele><time>2026-03-28T11:51:57.931Z</time></trkpt><trkpt lat="45.87716428830674" lon="9.688475774994673"><ele>975.0</ele><time>2026-03-28T11:51:58.931Z</time></trkpt><trkpt lat="45.877189128424504" lon="9.688335067186781"><ele>975.0</ele><time>2026-03-28T11:51:59.931Z</time></trkpt><trkpt lat="45.877258679127884" lon="9.6881835840452"><ele>976.25</ele><time>2026-03-28T11:52:00.931Z</time></trkpt><trkpt lat="45.87732338992753" lon="9.688020968992198"><ele>977.5</ele><time>2026-03-28T11:52:01.931Z</time></trkpt><trkpt lat="45.877329896685524" lon="9.687855787807623"><ele>978.75</ele><time>2026-03-28T11:52:02.931Z</time></trkpt><trkpt lat="45.87730093493" lon="9.687674097930858"><ele>980.0</ele><time>2026-03-28T11:52:03.931Z</time></trkpt><trkpt lat="45.877247301760114" lon="9.68750242015328"><ele>981.25</ele><time>2026-03-28T11:52:04.931Z</time></trkpt><trkpt lat="45.877171560261836" lon="9.68734786222708"><ele>982.5</ele><time>2026-03-28T11:52:05.931Z</time></trkpt><trkpt lat="45.877056870735515" lon="9.687207069806078"><ele>983.75</ele><time>2026-03-28T11:52:06.931Z</time></trkpt><trkpt lat="45.87694408158377" lon="9.687063674403674"><ele>985.0</ele><time>2026-03-28T11:52:07.931Z</time></trkpt><trkpt lat="45.87684815363104" lon="9.686924702250653"><ele>982.6</ele><time>2026-03-28T11:52:08.931Z</time></trkpt><trkpt lat="45.87676826994873" lon="9.686792061511117"><ele>980.2</ele><time>2026-03-28T11:52:09.931Z</time></trkpt><trkpt lat="45.876681275740694" lon="9.686673331772942"><ele>977.8</ele><time>2026-03-28T11:52:10.931Z</time></trkpt><trkpt lat="45.876607077733844" lon="9.68656828407239"><ele>975.4</ele><time>2026-03-28T11:52:11.931Z</time></trkpt><trkpt lat="45.87654895054615" lon="9.686455017960508"><ele>973.0</ele><time>2026-03-28T11:52:12.931Z</time></trkpt><trkpt lat="45.87650637773481" lon="9.686335814308121"><ele>973.0</ele><time>2026-03-28T11:52:13.931Z</time></trkpt><trkpt lat="45.87647957708736" lon="9.686220101557133"><ele>973.0</ele><time>2026-03-28T11:52:14.931Z</time></trkpt><trkpt lat="45.87648749245576" lon="9.68609639206934"><ele>973.0</ele><time>2026-03-28T11:52:15.931Z</time></trkpt><trkpt lat="45.87651817130838" lon="9.685925717372898"><ele>973.0</ele><time>2026-03-28T11:52:16.931Z</time></trkpt><trkpt lat="45.87655683014487" lon="9.685725504365234"><ele>973.0</ele><time>2026-03-28T11:52:17.931Z</time></trkpt><trkpt lat="45.876598889286775" lon="9.685505381322164"><ele>974.6666666666666</ele><time>2026-03-28T11:52:18.931Z</time></trkpt><trkpt lat="45.876621753599146" lon="9.685291615745193"><ele>976.3333333333333</ele><time>2026-03-28T11:52:19.931Z</time></trkpt><trkpt lat="45.87664580417657" lon="9.685082118998965"><ele>978.0</ele><time>2026-03-28T11:52:20.931Z</time></trkpt><trkpt lat="45.87666765561746" lon="9.684863566151517"><ele>979.0</ele><time>2026-03-28T11:52:21.931Z</time></trkpt><trkpt lat="45.87668620789163" lon="9.684623524564119"><ele>980.0</ele><time>2026-03-28T11:52:22.931Z</time></trkpt><trkpt lat="45.87668008980638" lon="9.684386620500804"><ele>981.0</ele><time>2026-03-28T11:52:23.931Z</time></trkpt><trkpt lat="45.87666835610153" lon="9.684155811098545"><ele>982.25</ele><time>2026-03-28T11:52:24.931Z</time></trkpt><trkpt lat="45.8766627659344" lon="9.683942405755822"><ele>983.5</ele><time>2026-03-28T11:52:25.931Z</time></trkpt><trkpt lat="45.876648951961975" lon="9.683737135081833"><ele>984.75</ele><time>2026-03-28T11:52:26.931Z</time></trkpt><trkpt lat="45.876617485758274" lon="9.68355385538748"><ele>986.0</ele><time>2026-03-28T11:52:27.931Z</time></trkpt><trkpt lat="45.876565501979904" lon="9.68336592631906"><ele>986.5</ele><time>2026-03-28T11:52:28.931Z</time></trkpt><trkpt lat="45.876517833616404" lon="9.68317324355335"><ele>987.0</ele><time>2026-03-28T11:52:29.931Z</time></trkpt><trkpt lat="45.876463136821734" lon="9.682969835950411"><ele>987.5</ele><time>2026-03-28T11:52:30.931Z</time></trkpt><trkpt lat="45.876403546201956" lon="9.6827696750591"><ele>988.0</ele><time>2026-03-28T11:52:31.931Z</time></trkpt><trkpt lat="45.87633980069785" lon="9.682596643716415"><ele>986.0</ele><time>2026-03-28T11:52:32.931Z</time></trkpt><trkpt lat="45.876256459150895" lon="9.682456409854373"><ele>984.0</ele><time>2026-03-28T11:52:33.931Z</time></trkpt><trkpt lat="45.876152531971925" lon="9.682338558119106"><ele>982.0</ele><time>2026-03-28T11:52:34.931Z</time></trkpt><trkpt lat="45.876042613620456" lon="9.682233559439402"><ele>980.0</ele><time>2026-03-28T11:52:35.931Z</time></trkpt><trkpt lat="45.87590495219309" lon="9.68215267952182"><ele>980.0</ele><time>2026-03-28T11:52:36.931Z</time></trkpt><trkpt lat="45.87573913371567" lon="9.682079883650877"><ele>980.0</ele><time>2026-03-28T11:52:37.931Z</time></trkpt><trkpt lat="45.8755673395112" lon="9.682017749703572"><ele>980.0</ele><time>2026-03-28T11:52:38.931Z</time></trkpt><trkpt lat="45.87541378340857" lon="9.681973460179258"><ele>983.25</ele><time>2026-03-28T11:52:39.931Z</time></trkpt><trkpt lat="45.87527667414689" lon="9.68192389646134"><ele>986.5</ele><time>2026-03-28T11:52:40.931Z</time></trkpt><trkpt lat="45.875153612987" lon="9.681891907318299"><ele>989.75</ele><time>2026-03-28T11:52:41.931Z</time></trkpt><trkpt lat="45.87502093688202" lon="9.68179060143686"><ele>993.0</ele><time>2026-03-28T11:52:42.931Z</time></trkpt><trkpt lat="45.87485905321023" lon="9.681697639740602"><ele>993.0</ele><time>2026-03-28T11:52:43.931Z</time></trkpt><trkpt lat="45.874691886710394" lon="9.681563380587539"><ele>993.0</ele><time>2026-03-28T11:52:44.931Z</time></trkpt><trkpt lat="45.874540336677626" lon="9.68146833185908"><ele>993.0</ele><time>2026-03-28T11:52:45.931Z</time></trkpt><trkpt lat="45.8743957825169" lon="9.681425777902335"><ele>990.2</ele><time>2026-03-28T11:52:46.931Z</time></trkpt><trkpt lat="45.87426281444483" lon="9.68139500046599"><ele>987.4</ele><time>2026-03-28T11:52:47.931Z</time></trkpt><trkpt lat="45.87416006897551" lon="9.681370373203158"><ele>984.6000000000001</ele><time>2026-03-28T11:52:48.931Z</time></trkpt><trkpt lat="45.87408609592699" lon="9.68132778026189"><ele>981.8000000000001</ele><time>2026-03-28T11:52:49.931Z</time></trkpt><trkpt lat="45.87404015544753" lon="9.681216710335473"><ele>979.0</ele><time>2026-03-28T11:52:50.931Z</time></trkpt><trkpt lat="45.87400810168604" lon="9.681106473024206"><ele>982.0</ele><time>2026-03-28T11:52:51.931Z</time></trkpt><trkpt lat="45.874001783523596" lon="9.68101274417234"><ele>985.0000000000001</ele><time>2026-03-28T11:52:52.931Z</time></trkpt><trkpt lat="45.87406680129639" lon="9.680870451877183"><ele>988.0000000000001</ele><time>2026-03-28T11:52:54.931Z</time></trkpt><trkpt lat="45.87417232905545" lon="9.680801156945916"><ele>991.0</ele><time>2026-03-28T11:52:55.931Z</time></trkpt><trkpt lat="45.87428170167888" lon="9.680719094322232"><ele>994.0</ele><time>2026-03-28T11:52:56.931Z</time></trkpt><trkpt lat="45.87436277282142" lon="9.680613568833897"><ele>993.8000000000001</ele><time>2026-03-28T11:52:57.931Z</time></trkpt><trkpt lat="45.874415058083805" lon="9.680472337240326"><ele>993.6000000000001</ele><time>2026-03-28T11:52:58.931Z</time></trkpt><trkpt lat="45.87445288420964" lon="9.680299223549003"><ele>993.4</ele><time>2026-03-28T11:52:59.931Z</time></trkpt><trkpt lat="45.87452484095157" lon="9.68020172839669"><ele>993.2</ele><time>2026-03-28T11:53:00.931Z</time></trkpt><trkpt lat="45.874621516248084" lon="9.680141565853981"><ele>993.0</ele><time>2026-03-28T11:53:01.931Z</time></trkpt><trkpt lat="45.874719294248344" lon="9.680111109938917"><ele>993.0</ele><time>2026-03-28T11:53:02.931Z</time></trkpt><trkpt lat="45.87483478293128" lon="9.680086497355088"><ele>993.0</ele><time>2026-03-28T11:53:03.931Z</time></trkpt><trkpt lat="45.874956360564184" lon="9.680056326782598"><ele>993.0</ele><time>2026-03-28T11:53:04.931Z</time></trkpt><trkpt lat="45.875063986431165" lon="9.679996725228296"><ele>993.0</ele><time>2026-03-28T11:53:05.931Z</time></trkpt><trkpt lat="45.875169093492666" lon="9.679925274719457"><ele>991.4</ele><time>2026-03-28T11:53:06.931Z</time></trkpt><trkpt lat="45.87525362164004" lon="9.679852716773333"><ele>989.8</ele><time>2026-03-28T11:53:07.931Z</time></trkpt><trkpt lat="45.875338193449245" lon="9.67978623669477"><ele>988.2</ele><time>2026-03-28T11:53:08.931Z</time></trkpt><trkpt lat="45.875430625771656" lon="9.679755188227883"><ele>986.6</ele><time>2026-03-28T11:53:09.931Z</time></trkpt><trkpt lat="45.875521869985526" lon="9.679752113398015"><ele>985.0</ele><time>2026-03-28T11:53:10.931Z</time></trkpt><trkpt lat="45.87562114275364" lon="9.679807602366198"><ele>985.0</ele><time>2026-03-28T11:53:11.931Z</time></trkpt><trkpt lat="45.875751348715276" lon="9.679851118588259"><ele>985.0</ele><time>2026-03-28T11:53:12.931Z</time></trkpt><trkpt lat="45.875915506833365" lon="9.679825823143263"><ele>985.0</ele><time>2026-03-28T11:53:13.931Z</time></trkpt><trkpt lat="45.87609454408071" lon="9.67978327476298"><ele>982.6666666666666</ele><time>2026-03-28T11:53:14.931Z</time></trkpt><trkpt lat="45.87627195633886" lon="9.67974459235066"><ele>980.3333333333333</ele><time>2026-03-28T11:53:15.931Z</time></trkpt><trkpt lat="45.87644743459388" lon="9.679719146940057"><ele>978.0</ele><time>2026-03-28T11:53:16.931Z</time></trkpt><trkpt lat="45.876619805870114" lon="9.679705366253643"><ele>980.0</ele><time>2026-03-28T11:53:17.931Z</time></trkpt><trkpt lat="45.87679102249745" lon="9.679704561228824"><ele>982.0</ele><time>2026-03-28T11:53:18.931Z</time></trkpt><trkpt lat="45.87696030149037" lon="9.679698498519857"><ele>984.0</ele><time>2026-03-28T11:53:19.931Z</time></trkpt><trkpt lat="45.877122317162204" lon="9.67967390119728"><ele>984.0</ele><time>2026-03-28T11:53:20.931Z</time></trkpt><trkpt lat="45.87728024846465" lon="9.67962090986049"><ele>984.0</ele><time>2026-03-28T11:53:21.931Z</time></trkpt><trkpt lat="45.877426750358374" lon="9.679539004080235"><ele>984.0</ele><time>2026-03-28T11:53:22.931Z</time></trkpt><trkpt lat="45.87756989547647" lon="9.679442825972806"><ele>977.0</ele><time>2026-03-28T11:53:23.931Z</time></trkpt><trkpt lat="45.877712716335104" lon="9.679327207686468"><ele>970.0</ele><time>2026-03-28T11:53:24.931Z</time></trkpt><trkpt lat="45.87785293983592" lon="9.679198639289996"><ele>963.0</ele><time>2026-03-28T11:53:25.931Z</time></trkpt><trkpt lat="45.87799320323536" lon="9.679068253520427"><ele>963.0</ele><time>2026-03-28T11:53:26.931Z</time></trkpt><trkpt lat="45.87813126119968" lon="9.678936588276205"><ele>963.0</ele><time>2026-03-28T11:53:27.931Z</time></trkpt><trkpt lat="45.87825998983662" lon="9.67880108042596"><ele>963.0</ele><time>2026-03-28T11:53:28.931Z</time></trkpt><trkpt lat="45.878387051617146" lon="9.678664008121418"><ele>960.0</ele><time>2026-03-28T11:53:29.931Z</time></trkpt><trkpt lat="45.87851159792825" lon="9.678538300716243"><ele>957.0</ele><time>2026-03-28T11:53:30.931Z</time></trkpt><trkpt lat="45.87862391150383" lon="9.67842194588574"><ele>954.0</ele><time>2026-03-28T11:53:31.931Z</time></trkpt><trkpt lat="45.87873359330383" lon="9.678336695291824"><ele>951.0</ele><time>2026-03-28T11:53:32.931Z</time></trkpt><trkpt lat="45.87882839973453" lon="9.678287180171772"><ele>951.0</ele><time>2026-03-28T11:53:33.931Z</time></trkpt><trkpt lat="45.87890384195638" lon="9.678252367162495"><ele>950.9999999999999</ele><time>2026-03-28T11:53:34.93Z</time></trkpt><trkpt lat="45.87897837041619" lon="9.678154731677177"><ele>950.9999999999999</ele><time>2026-03-28T11:53:36.93Z</time></trkpt><trkpt lat="45.878994591352374" lon="9.678058863324122"><ele>951.0</ele><time>2026-03-28T11:53:38.93Z</time></trkpt><trkpt lat="45.878854926082525" lon="9.678050378245477"><ele>951.0</ele><time>2026-03-28T11:53:39.93Z</time></trkpt><trkpt lat="45.87875663546137" lon="9.678094344229613"><ele>951.0</ele><time>2026-03-28T11:53:40.93Z</time></trkpt><trkpt lat="45.87862088267743" lon="9.678175007663205"><ele>951.0</ele><time>2026-03-28T11:53:41.93Z</time></trkpt><trkpt lat="45.878490203531754" lon="9.67825265636603"><ele>951.0</ele><time>2026-03-28T11:53:42.93Z</time></trkpt><trkpt lat="45.878363199779656" lon="9.67835151225291"><ele>951.0</ele><time>2026-03-28T11:53:43.93Z</time></trkpt><trkpt lat="45.8782303908903" lon="9.67840674610869"><ele>949.5</ele><time>2026-03-28T11:53:44.93Z</time></trkpt><trkpt lat="45.87810265510348" lon="9.678464283665335"><ele>948.0</ele><time>2026-03-28T11:53:45.93Z</time></trkpt><trkpt lat="45.8779688688287" lon="9.678518120840046"><ele>946.5</ele><time>2026-03-28T11:53:46.929Z</time></trkpt><trkpt lat="45.87783483309297" lon="9.67857123903695"><ele>945.0</ele><time>2026-03-28T11:53:47.929Z</time></trkpt><trkpt lat="45.877697126513986" lon="9.6786108552915"><ele>947.5</ele><time>2026-03-28T11:53:48.929Z</time></trkpt><trkpt lat="45.877563461488485" lon="9.678643106473753"><ele>950.0</ele><time>2026-03-28T11:53:49.929Z</time></trkpt><trkpt lat="45.877434561615004" lon="9.678645625094623"><ele>952.5</ele><time>2026-03-28T11:53:50.929Z</time></trkpt><trkpt lat="45.87732433629121" lon="9.678625741959376"><ele>955.0</ele><time>2026-03-28T11:53:51.929Z</time></trkpt><trkpt lat="45.877233018353245" lon="9.678582792916757"><ele>949.75</ele><time>2026-03-28T11:53:52.929Z</time></trkpt><trkpt lat="45.877152718247906" lon="9.678494584995176"><ele>944.5</ele><time>2026-03-28T11:53:53.929Z</time></trkpt><trkpt lat="45.87709881096496" lon="9.678345698977138"><ele>939.25</ele><time>2026-03-28T11:53:54.929Z</time></trkpt><trkpt lat="45.87706740155906" lon="9.678133735690965"><ele>934.0</ele><time>2026-03-28T11:53:55.929Z</time></trkpt><trkpt lat="45.87704372132949" lon="9.677931668280431"><ele>931.6</ele><time>2026-03-28T11:53:56.929Z</time></trkpt><trkpt lat="45.87701101274277" lon="9.6777600855656"><ele>929.2</ele><time>2026-03-28T11:53:57.929Z</time></trkpt><trkpt lat="45.876976662533785" lon="9.67763448527002"><ele>926.8000000000001</ele><time>2026-03-28T11:53:58.929Z</time></trkpt><trkpt lat="45.876925791184526" lon="9.677552699020353"><ele>924.4000000000001</ele><time>2026-03-28T11:53:59.929Z</time></trkpt><trkpt lat="45.87685355261061" lon="9.67752410119386"><ele>922.0</ele><time>2026-03-28T11:54:00.929Z</time></trkpt><trkpt lat="45.87675543398278" lon="9.677562279113829"><ele>922.0</ele><time>2026-03-28T11:54:01.929Z</time></trkpt><trkpt lat="45.87662647214324" lon="9.677604414432764"><ele>922.0</ele><time>2026-03-28T11:54:02.929Z</time></trkpt><trkpt lat="45.87649529029909" lon="9.677683188723119"><ele>922.0</ele><time>2026-03-28T11:54:03.929Z</time></trkpt><trkpt lat="45.876370243908305" lon="9.677747532948096"><ele>922.0</ele><time>2026-03-28T11:54:04.929Z</time></trkpt><trkpt lat="45.87625755825902" lon="9.677848861422738"><ele>924.8</ele><time>2026-03-28T11:54:05.929Z</time></trkpt><trkpt lat="45.87614298290352" lon="9.67787989562833"><ele>927.6</ele><time>2026-03-28T11:54:06.929Z</time></trkpt><trkpt lat="45.87605136173506" lon="9.677859140069518"><ele>930.3999999999999</ele><time>2026-03-28T11:54:07.929Z</time></trkpt><trkpt lat="45.8759842900474" lon="9.67782766668187"><ele>933.1999999999999</ele><time>2026-03-28T11:54:08.929Z</time></trkpt><trkpt lat="45.87593623763937" lon="9.677749164268521"><ele>936.0</ele><time>2026-03-28T11:54:09.929Z</time></trkpt><trkpt lat="45.875904822712144" lon="9.677616018153888"><ele>936.25</ele><time>2026-03-28T11:54:10.929Z</time></trkpt><trkpt lat="45.875909743544" lon="9.6774458770573"><ele>936.5</ele><time>2026-03-28T11:54:11.929Z</time></trkpt><trkpt lat="45.87592440150832" lon="9.677255369490153"><ele>936.75</ele><time>2026-03-28T11:54:12.929Z</time></trkpt><trkpt lat="45.87594610656311" lon="9.677075342525631"><ele>937.0</ele><time>2026-03-28T11:54:13.929Z</time></trkpt><trkpt lat="45.875948078051124" lon="9.676912559173731"><ele>934.4000000000001</ele><time>2026-03-28T11:54:14.929Z</time></trkpt><trkpt lat="45.87593725167652" lon="9.67680302999051"><ele>931.8000000000001</ele><time>2026-03-28T11:54:15.929Z</time></trkpt><trkpt lat="45.87589280648478" lon="9.676707456662083"><ele>929.2</ele><time>2026-03-28T11:54:16.929Z</time></trkpt><trkpt lat="45.87582731516424" lon="9.676665108351935"><ele>926.6</ele><time>2026-03-28T11:54:17.929Z</time></trkpt><trkpt lat="45.87570970846788" lon="9.676674281672122"><ele>924.0</ele><time>2026-03-28T11:54:18.929Z</time></trkpt><trkpt lat="45.87556480963255" lon="9.67671266095141"><ele>924.0</ele><time>2026-03-28T11:54:19.929Z</time></trkpt><trkpt lat="45.87540435449829" lon="9.676781571818797"><ele>924.0</ele><time>2026-03-28T11:54:20.929Z</time></trkpt><trkpt lat="45.875249438036995" lon="9.676784120763338"><ele>924.0</ele><time>2026-03-28T11:54:21.929Z</time></trkpt><trkpt lat="45.87510392632785" lon="9.676758160508976"><ele>922.25</ele><time>2026-03-28T11:54:22.929Z</time></trkpt><trkpt lat="45.87497789534712" lon="9.676692487922418"><ele>920.5</ele><time>2026-03-28T11:54:23.929Z</time></trkpt><trkpt lat="45.874880035681194" lon="9.676628590939279"><ele>918.75</ele><time>2026-03-28T11:54:24.929Z</time></trkpt><trkpt lat="45.874779785068775" lon="9.67655162385187"><ele>917.0</ele><time>2026-03-28T11:54:25.929Z</time></trkpt><trkpt lat="45.874680076752895" lon="9.676541073158939"><ele>917.0</ele><time>2026-03-28T11:54:26.929Z</time></trkpt><trkpt lat="45.87454704984504" lon="9.67658932537177"><ele>917.0</ele><time>2026-03-28T11:54:27.929Z</time></trkpt><trkpt lat="45.8744346911652" lon="9.676746857043906"><ele>917.0</ele><time>2026-03-28T11:54:28.929Z</time></trkpt><trkpt lat="45.874310541396774" lon="9.676848271913103"><ele>917.0</ele><time>2026-03-28T11:54:29.929Z</time></trkpt><trkpt lat="45.874188104908605" lon="9.676959257017193"><ele>919.5</ele><time>2026-03-28T11:54:30.929Z</time></trkpt><trkpt lat="45.87402865885641" lon="9.676988189562293"><ele>922.0</ele><time>2026-03-28T11:54:31.929Z</time></trkpt><trkpt lat="45.87389261174308" lon="9.677043312840173"><ele>924.5</ele><time>2026-03-28T11:54:32.929Z</time></trkpt><trkpt lat="45.87377874510241" lon="9.677075449123487"><ele>927.0</ele><time>2026-03-28T11:54:33.929Z</time></trkpt><trkpt lat="45.87366850182197" lon="9.677076326715918"><ele>927.0</ele><time>2026-03-28T11:54:34.929Z</time></trkpt><trkpt lat="45.8735274511734" lon="9.677002448816939"><ele>927.0</ele><time>2026-03-28T11:54:35.929Z</time></trkpt><trkpt lat="45.87336190386036" lon="9.676933567011222"><ele>927.0</ele><time>2026-03-28T11:54:36.929Z</time></trkpt><trkpt lat="45.87318447525785" lon="9.67688548057781"><ele>914.3333333333333</ele><time>2026-03-28T11:54:37.929Z</time></trkpt><trkpt lat="45.87303101814206" lon="9.676844069688986"><ele>901.6666666666666</ele><time>2026-03-28T11:54:38.929Z</time></trkpt><trkpt lat="45.872872458460044" lon="9.676806349592542"><ele>889.0</ele><time>2026-03-28T11:54:39.929Z</time></trkpt><trkpt lat="45.872715963720715" lon="9.676769404255896"><ele>889.0</ele><time>2026-03-28T11:54:40.929Z</time></trkpt><trkpt lat="45.87256640730214" lon="9.676716009500653"><ele>889.0</ele><time>2026-03-28T11:54:41.929Z</time></trkpt><trkpt lat="45.87242037896938" lon="9.676703389467745"><ele>889.0</ele><time>2026-03-28T11:54:42.929Z</time></trkpt><trkpt lat="45.872262345748254" lon="9.676701802206125"><ele>889.0</ele><time>2026-03-28T11:54:43.929Z</time></trkpt><trkpt lat="45.87211574947082" lon="9.676725130258317"><ele>889.0</ele><time>2026-03-28T11:54:44.929Z</time></trkpt><trkpt lat="45.87196436349675" lon="9.676731233890724"><ele>889.0</ele><time>2026-03-28T11:54:45.929Z</time></trkpt><trkpt lat="45.87182908897313" lon="9.676724945596504"><ele>889.0</ele><time>2026-03-28T11:54:46.929Z</time></trkpt><trkpt lat="45.87171838284115" lon="9.676736013071183"><ele>888.4000000000001</ele><time>2026-03-28T11:54:47.929Z</time></trkpt><trkpt lat="45.87162967143271" lon="9.676751121876231"><ele>887.8000000000001</ele><time>2026-03-28T11:54:48.929Z</time></trkpt><trkpt lat="45.87154491554279" lon="9.676736844503026"><ele>887.1999999999999</ele><time>2026-03-28T11:54:49.929Z</time></trkpt><trkpt lat="45.87145772286818" lon="9.676664415187183"><ele>886.5999999999999</ele><time>2026-03-28T11:54:50.929Z</time></trkpt><trkpt lat="45.87140015310053" lon="9.67651898061133"><ele>886.0</ele><time>2026-03-28T11:54:51.929Z</time></trkpt><trkpt lat="45.871371393057586" lon="9.676388267638321"><ele>886.0</ele><time>2026-03-28T11:54:52.929Z</time></trkpt><trkpt lat="45.8713419541665" lon="9.676290071821668"><ele>885.9999999999999</ele><time>2026-03-28T11:54:53.929Z</time></trkpt><trkpt lat="45.87126391630884" lon="9.676256612421186"><ele>885.9999999999999</ele><time>2026-03-28T11:54:54.929Z</time></trkpt><trkpt lat="45.87114760151588" lon="9.676274793929084"><ele>886.0</ele><time>2026-03-28T11:54:55.929Z</time></trkpt><trkpt lat="45.8709964922147" lon="9.676344693499205"><ele>886.0</ele><time>2026-03-28T11:54:56.929Z</time></trkpt><trkpt lat="45.87086934800627" lon="9.676383540341568"><ele>886.0</ele><time>2026-03-28T11:54:57.929Z</time></trkpt><trkpt lat="45.870742006857824" lon="9.676297542101157"><ele>886.0</ele><time>2026-03-28T11:54:58.929Z</time></trkpt><trkpt lat="45.87063488682813" lon="9.676163590969203"><ele>886.0</ele><time>2026-03-28T11:54:59.929Z</time></trkpt><trkpt lat="45.87053317267535" lon="9.676071670891615"><ele>886.0</ele><time>2026-03-28T11:55:00.929Z</time></trkpt><trkpt lat="45.87041590723565" lon="9.676040904869046"><ele>882.0</ele><time>2026-03-28T11:55:01.929Z</time></trkpt><trkpt lat="45.87028463561653" lon="9.676058510721367"><ele>878.0</ele><time>2026-03-28T11:55:02.929Z</time></trkpt><trkpt lat="45.87015491087609" lon="9.676091564597824"><ele>874.0</ele><time>2026-03-28T11:55:03.929Z</time></trkpt><trkpt lat="45.87004569053291" lon="9.676123080855254"><ele>870.0</ele><time>2026-03-28T11:55:04.929Z</time></trkpt><trkpt lat="45.86994818566935" lon="9.676179845083828"><ele>870.0</ele><time>2026-03-28T11:55:05.929Z</time></trkpt><trkpt lat="45.869854795600546" lon="9.676272190503859"><ele>870.0</ele><time>2026-03-28T11:55:06.929Z</time></trkpt><trkpt lat="45.869754135227936" lon="9.676401276432916"><ele>870.0</ele><time>2026-03-28T11:55:07.929Z</time></trkpt><trkpt lat="45.86964519877666" lon="9.676527072211892"><ele>870.0</ele><time>2026-03-28T11:55:08.929Z</time></trkpt><trkpt lat="45.869530055421635" lon="9.676628694928226"><ele>870.0</ele><time>2026-03-28T11:55:09.929Z</time></trkpt><trkpt lat="45.869398388453654" lon="9.676703450708779"><ele>870.0</ele><time>2026-03-28T11:55:10.929Z</time></trkpt><trkpt lat="45.869229891135646" lon="9.676731797161784"><ele>870.0</ele><time>2026-03-28T11:55:11.929Z</time></trkpt><trkpt lat="45.869055565969084" lon="9.67673140013969"><ele>866.0</ele><time>2026-03-28T11:55:12.929Z</time></trkpt><trkpt lat="45.86889990215883" lon="9.676736930962997"><ele>862.0</ele><time>2026-03-28T11:55:13.929Z</time></trkpt><trkpt lat="45.86876487131584" lon="9.676727387358548"><ele>858.0</ele><time>2026-03-28T11:55:14.929Z</time></trkpt><trkpt lat="45.86864064324269" lon="9.67670235357825"><ele>854.0</ele><time>2026-03-28T11:55:15.929Z</time></trkpt><trkpt lat="45.86853362463207" lon="9.676646405602108"><ele>854.0000000000001</ele><time>2026-03-28T11:55:16.929Z</time></trkpt><trkpt lat="45.86845010100097" lon="9.676567723354148"><ele>854.0</ele><time>2026-03-28T11:55:17.929Z</time></trkpt><trkpt lat="45.86840578879456" lon="9.676474529340059"><ele>854.0</ele><time>2026-03-28T11:55:18.929Z</time></trkpt><trkpt lat="45.86838833887889" lon="9.676381333201876"><ele>854.0</ele><time>2026-03-28T11:55:19.929Z</time></trkpt><trkpt lat="45.86844181890247" lon="9.676266463952091"><ele>854.0000000000001</ele><time>2026-03-28T11:55:21.929Z</time></trkpt><trkpt lat="45.86852501313581" lon="9.676264976735599"><ele>854.0</ele><time>2026-03-28T11:55:22.929Z</time></trkpt><trkpt lat="45.8686374574514" lon="9.676305635942096"><ele>854.0</ele><time>2026-03-28T11:55:23.929Z</time></trkpt><trkpt lat="45.86876686470503" lon="9.676351361241084"><ele>854.0</ele><time>2026-03-28T11:55:24.929Z</time></trkpt><trkpt lat="45.868888805727295" lon="9.676332263241585"><ele>854.0</ele><time>2026-03-28T11:55:25.929Z</time></trkpt><trkpt lat="45.86901074777025" lon="9.676220101700956"><ele>854.0</ele><time>2026-03-28T11:55:26.929Z</time></trkpt><trkpt lat="45.86914222615155" lon="9.676076271621161"><ele>852.6666666666667</ele><time>2026-03-28T11:55:27.929Z</time></trkpt><trkpt lat="45.869265445355154" lon="9.67594384818376"><ele>851.3333333333333</ele><time>2026-03-28T11:55:28.929Z</time></trkpt><trkpt lat="45.869357070607705" lon="9.675779976878445"><ele>850.0</ele><time>2026-03-28T11:55:29.929Z</time></trkpt><trkpt lat="45.869453694083035" lon="9.675599332750318"><ele>850.0</ele><time>2026-03-28T11:55:30.929Z</time></trkpt><trkpt lat="45.86955289062727" lon="9.675435853240147"><ele>850.0</ele><time>2026-03-28T11:55:31.929Z</time></trkpt><trkpt lat="45.869654210461285" lon="9.67527817602171"><ele>850.0</ele><time>2026-03-28T11:55:32.929Z</time></trkpt><trkpt lat="45.869739890357216" lon="9.67512691930713"><ele>850.0</ele><time>2026-03-28T11:55:33.929Z</time></trkpt><trkpt lat="45.869846204979034" lon="9.67497781862617"><ele>848.5</ele><time>2026-03-28T11:55:34.929Z</time></trkpt><trkpt lat="45.86993987022631" lon="9.674823774569902"><ele>847.0</ele><time>2026-03-28T11:55:35.929Z</time></trkpt><trkpt lat="45.87003138923653" lon="9.674669899273129"><ele>845.5</ele><time>2026-03-28T11:55:36.929Z</time></trkpt><trkpt lat="45.87012399594497" lon="9.67450318322713"><ele>844.0</ele><time>2026-03-28T11:55:37.929Z</time></trkpt><trkpt lat="45.87022423821219" lon="9.67433832460262"><ele>838.0</ele><time>2026-03-28T11:55:38.929Z</time></trkpt><trkpt lat="45.870335778185776" lon="9.674189171286079"><ele>832.0</ele><time>2026-03-28T11:55:39.929Z</time></trkpt><trkpt lat="45.87045221715561" lon="9.674050020733166"><ele>826.0</ele><time>2026-03-28T11:55:40.928Z</time></trkpt><trkpt lat="45.87056181086127" lon="9.673905203770955"><ele>826.0</ele><time>2026-03-28T11:55:41.927Z</time></trkpt><trkpt lat="45.87067108646351" lon="9.673757826854006"><ele>826.0</ele><time>2026-03-28T11:55:42.927Z</time></trkpt><trkpt lat="45.87077249433698" lon="9.6736193269674"><ele>826.0</ele><time>2026-03-28T11:55:43.927Z</time></trkpt><trkpt lat="45.87086449419058" lon="9.673506852261049"><ele>826.0</ele><time>2026-03-28T11:55:44.928Z</time></trkpt><trkpt lat="45.87093123663865" lon="9.673442058131455"><ele>825.4999999999999</ele><time>2026-03-28T11:55:45.928Z</time></trkpt><trkpt lat="45.871002768043866" lon="9.673423313835416"><ele>825.0</ele><time>2026-03-28T11:55:46.927Z</time></trkpt><trkpt lat="45.871078726635474" lon="9.673474930437187"><ele>824.5</ele><time>2026-03-28T11:55:47.927Z</time></trkpt><trkpt lat="45.8711566928489" lon="9.673562728069106"><ele>824.0</ele><time>2026-03-28T11:55:48.927Z</time></trkpt><trkpt lat="45.87121632669222" lon="9.673613005259906"><ele>823.4999999999999</ele><time>2026-03-28T11:55:49.927Z</time></trkpt><trkpt lat="45.871282191754375" lon="9.673484351916281"><ele>823.0</ele><time>2026-03-28T11:55:51.927Z</time></trkpt><trkpt lat="45.871252462600644" lon="9.673326040039353"><ele>820.5999999999999</ele><time>2026-03-28T11:55:52.927Z</time></trkpt><trkpt lat="45.87118358122494" lon="9.673165206735417"><ele>818.1999999999999</ele><time>2026-03-28T11:55:53.928Z</time></trkpt><trkpt lat="45.871118998971234" lon="9.673055092712852"><ele>815.8</ele><time>2026-03-28T11:55:54.928Z</time></trkpt><trkpt lat="45.87104810982813" lon="9.672986576694113"><ele>813.4</ele><time>2026-03-28T11:55:55.928Z</time></trkpt><trkpt lat="45.87094557940845" lon="9.672942406804754"><ele>811.0</ele><time>2026-03-28T11:55:56.928Z</time></trkpt><trkpt lat="45.8708033585143" lon="9.673006774093778"><ele>811.0</ele><time>2026-03-28T11:55:57.928Z</time></trkpt><trkpt lat="45.870655819851706" lon="9.673064292479781"><ele>811.0</ele><time>2026-03-28T11:55:58.928Z</time></trkpt><trkpt lat="45.87052002799488" lon="9.67312454354225"><ele>811.0</ele><time>2026-03-28T11:55:59.928Z</time></trkpt><trkpt lat="45.870406814032556" lon="9.673189217493631"><ele>811.0</ele><time>2026-03-28T11:56:00.928Z</time></trkpt><trkpt lat="45.87029637515534" lon="9.673268380333743"><ele>811.0</ele><time>2026-03-28T11:56:01.928Z</time></trkpt><trkpt lat="45.870187240299906" lon="9.67336655802247"><ele>811.0</ele><time>2026-03-28T11:56:02.928Z</time></trkpt><trkpt lat="45.87007443471628" lon="9.6734748367669"><ele>811.0</ele><time>2026-03-28T11:56:03.928Z</time></trkpt><trkpt lat="45.869946702665914" lon="9.673582750973658"><ele>811.0</ele><time>2026-03-28T11:56:04.928Z</time></trkpt><trkpt lat="45.86981359666969" lon="9.673666619491938"><ele>812.75</ele><time>2026-03-28T11:56:05.928Z</time></trkpt><trkpt lat="45.86969608735563" lon="9.673767059129906"><ele>814.5</ele><time>2026-03-28T11:56:06.928Z</time></trkpt><trkpt lat="45.86956600199603" lon="9.673826989511804"><ele>816.25</ele><time>2026-03-28T11:56:07.928Z</time></trkpt><trkpt lat="45.86945019592056" lon="9.673879576940074"><ele>818.0</ele><time>2026-03-28T11:56:08.927Z</time></trkpt><trkpt lat="45.86933899081951" lon="9.673905180935316"><ele>814.8</ele><time>2026-03-28T11:56:09.927Z</time></trkpt><trkpt lat="45.869232046859466" lon="9.673881263085345"><ele>811.5999999999999</ele><time>2026-03-28T11:56:10.927Z</time></trkpt><trkpt lat="45.86912685862036" lon="9.673810853765449"><ele>808.4000000000001</ele><time>2026-03-28T11:56:11.927Z</time></trkpt><trkpt lat="45.869052254282295" lon="9.673732486903491"><ele>805.2</ele><time>2026-03-28T11:56:12.927Z</time></trkpt><trkpt lat="45.8689916801614" lon="9.673648439954839"><ele>802.0</ele><time>2026-03-28T11:56:13.927Z</time></trkpt><trkpt lat="45.8689211514787" lon="9.673570620051558"><ele>802.0</ele><time>2026-03-28T11:56:14.927Z</time></trkpt><trkpt lat="45.868845584445864" lon="9.673532692630744"><ele>802.0</ele><time>2026-03-28T11:56:15.927Z</time></trkpt><trkpt lat="45.86873238956821" lon="9.673506877486641"><ele>802.0</ele><time>2026-03-28T11:56:16.927Z</time></trkpt><trkpt lat="45.86859449706873" lon="9.673593505771024"><ele>802.0</ele><time>2026-03-28T11:56:17.927Z</time></trkpt><trkpt lat="45.86847528705381" lon="9.673649500430553"><ele>802.8</ele><time>2026-03-28T11:56:18.927Z</time></trkpt><trkpt lat="45.86835632265796" lon="9.673696697195886"><ele>803.6</ele><time>2026-03-28T11:56:19.927Z</time></trkpt><trkpt lat="45.86825467836967" lon="9.673726551095465"><ele>804.4</ele><time>2026-03-28T11:56:20.927Z</time></trkpt><trkpt lat="45.86816936823895" lon="9.673726416748252"><ele>805.1999999999999</ele><time>2026-03-28T11:56:21.927Z</time></trkpt><trkpt lat="45.868075787880336" lon="9.673687167944914"><ele>806.0</ele><time>2026-03-28T11:56:22.927Z</time></trkpt><trkpt lat="45.867994220757524" lon="9.673617919982078"><ele>801.75</ele><time>2026-03-28T11:56:23.927Z</time></trkpt><trkpt lat="45.86791590440289" lon="9.673546807477909"><ele>797.5</ele><time>2026-03-28T11:56:24.927Z</time></trkpt><trkpt lat="45.867879813093694" lon="9.673373609751364"><ele>793.25</ele><time>2026-03-28T11:56:25.927Z</time></trkpt><trkpt lat="45.86785080773605" lon="9.673182756104374"><ele>789.0</ele><time>2026-03-28T11:56:26.927Z</time></trkpt><trkpt lat="45.86781335352564" lon="9.67298300992136"><ele>789.0</ele><time>2026-03-28T11:56:27.927Z</time></trkpt><trkpt lat="45.86776955190865" lon="9.67278077216134"><ele>789.0</ele><time>2026-03-28T11:56:28.927Z</time></trkpt><trkpt lat="45.867720197296386" lon="9.672619601384644"><ele>789.0</ele><time>2026-03-28T11:56:29.927Z</time></trkpt><trkpt lat="45.867650758460535" lon="9.672492060483075"><ele>789.0</ele><time>2026-03-28T11:56:30.927Z</time></trkpt><trkpt lat="45.867566247791075" lon="9.672367483004779"><ele>785.75</ele><time>2026-03-28T11:56:31.927Z</time></trkpt><trkpt lat="45.86745307956251" lon="9.672263018011472"><ele>782.5</ele><time>2026-03-28T11:56:32.927Z</time></trkpt><trkpt lat="45.867332110915996" lon="9.672176770701938"><ele>779.25</ele><time>2026-03-28T11:56:33.927Z</time></trkpt><trkpt lat="45.86720981233084" lon="9.672103158758189"><ele>776.0</ele><time>2026-03-28T11:56:34.927Z</time></trkpt><trkpt lat="45.86707217916561" lon="9.672063517432894"><ele>776.0</ele><time>2026-03-28T11:56:35.927Z</time></trkpt><trkpt lat="45.866935282823256" lon="9.672041132873762"><ele>776.0</ele><time>2026-03-28T11:56:36.927Z</time></trkpt><trkpt lat="45.866796009355696" lon="9.67204453473574"><ele>776.0</ele><time>2026-03-28T11:56:37.927Z</time></trkpt><trkpt lat="45.866673865190215" lon="9.67204290774911"><ele>776.0</ele><time>2026-03-28T11:56:38.927Z</time></trkpt><trkpt lat="45.866586359812125" lon="9.672045586651477"><ele>775.0</ele><time>2026-03-28T11:56:39.927Z</time></trkpt><trkpt lat="45.86650288455736" lon="9.672055152972012"><ele>774.0</ele><time>2026-03-28T11:56:40.927Z</time></trkpt><trkpt lat="45.86639940310405" lon="9.672158460680349"><ele>773.0</ele><time>2026-03-28T11:56:41.927Z</time></trkpt><trkpt lat="45.86632071335278" lon="9.672267884687352"><ele>772.0</ele><time>2026-03-28T11:56:42.927Z</time></trkpt><trkpt lat="45.86623851208089" lon="9.672367108173296"><ele>771.0</ele><time>2026-03-28T11:56:43.927Z</time></trkpt><trkpt lat="45.86614287803716" lon="9.672453584956173"><ele>771.0</ele><time>2026-03-28T11:56:44.927Z</time></trkpt><trkpt lat="45.86602814494074" lon="9.67249223862542"><ele>771.0</ele><time>2026-03-28T11:56:45.927Z</time></trkpt><trkpt lat="45.86590056800003" lon="9.672550424256828"><ele>771.0</ele><time>2026-03-28T11:56:46.927Z</time></trkpt><trkpt lat="45.8657756645743" lon="9.672622366939523"><ele>771.0</ele><time>2026-03-28T11:56:47.927Z</time></trkpt><trkpt lat="45.86565043856183" lon="9.672715181647806"><ele>770.75</ele><time>2026-03-28T11:56:48.927Z</time></trkpt><trkpt lat="45.86552875121453" lon="9.672823735329912"><ele>770.5</ele><time>2026-03-28T11:56:49.927Z</time></trkpt><trkpt lat="45.865416410991074" lon="9.672935158920192"><ele>770.25</ele><time>2026-03-28T11:56:50.927Z</time></trkpt><trkpt lat="45.865326629031664" lon="9.673024846221775"><ele>770.0</ele><time>2026-03-28T11:56:51.927Z</time></trkpt><trkpt lat="45.8652588306763" lon="9.673076089607079"><ele>770.0</ele><time>2026-03-28T11:56:52.927Z</time></trkpt><trkpt lat="45.86517065102324" lon="9.673115784932639"><ele>770.0</ele><time>2026-03-28T11:56:54.927Z</time></trkpt><trkpt lat="45.86514853705419" lon="9.673017065072976"><ele>770.0</ele><time>2026-03-28T11:56:55.927Z</time></trkpt><trkpt lat="45.865184914470326" lon="9.672891370023457"><ele>770.0</ele><time>2026-03-28T11:56:56.927Z</time></trkpt><trkpt lat="45.865275261224355" lon="9.672753034861518"><ele>770.0</ele><time>2026-03-28T11:56:57.927Z</time></trkpt><trkpt lat="45.86536397812236" lon="9.672618335013016"><ele>765.25</ele><time>2026-03-28T11:56:58.927Z</time></trkpt><trkpt lat="45.86544089088307" lon="9.672482797611673"><ele>760.5</ele><time>2026-03-28T11:56:59.927Z</time></trkpt><trkpt lat="45.86554218456679" lon="9.672376124456074"><ele>755.75</ele><time>2026-03-28T11:57:00.927Z</time></trkpt><trkpt lat="45.86563478905676" lon="9.672253705812228"><ele>751.0</ele><time>2026-03-28T11:57:01.927Z</time></trkpt><trkpt lat="45.865729658868936" lon="9.672117156780704"><ele>751.0</ele><time>2026-03-28T11:57:02.927Z</time></trkpt><trkpt lat="45.865850899478495" lon="9.67200445478358"><ele>751.0</ele><time>2026-03-28T11:57:03.927Z</time></trkpt><trkpt lat="45.865972354433865" lon="9.671905032954495"><ele>751.0</ele><time>2026-03-28T11:57:04.927Z</time></trkpt><trkpt lat="45.866073744626114" lon="9.67175615477291"><ele>751.0</ele><time>2026-03-28T11:57:05.927Z</time></trkpt><trkpt lat="45.86616459583466" lon="9.671597554401133"><ele>751.5999999999999</ele><time>2026-03-28T11:57:06.927Z</time></trkpt><trkpt lat="45.866248503111166" lon="9.671440181378467"><ele>752.2</ele><time>2026-03-28T11:57:07.927Z</time></trkpt><trkpt lat="45.86632749722147" lon="9.671297585488809"><ele>752.8</ele><time>2026-03-28T11:57:08.927Z</time></trkpt><trkpt lat="45.866394741075275" lon="9.671193243134534"><ele>753.4000000000001</ele><time>2026-03-28T11:57:09.927Z</time></trkpt><trkpt lat="45.86644738400507" lon="9.671108332664641"><ele>754.0</ele><time>2026-03-28T11:57:10.927Z</time></trkpt><trkpt lat="45.86651005890415" lon="9.671068631916755"><ele>754.0</ele><time>2026-03-28T11:57:11.927Z</time></trkpt><trkpt lat="45.86654280515046" lon="9.670940481004587"><ele>754.0</ele><time>2026-03-28T11:57:13.927Z</time></trkpt><trkpt lat="45.86641819799342" lon="9.67092327250632"><ele>754.0</ele><time>2026-03-28T11:57:15.927Z</time></trkpt><trkpt lat="45.86633638260859" lon="9.671032293748596"><ele>754.0</ele><time>2026-03-28T11:57:16.927Z</time></trkpt><trkpt lat="45.86623733375706" lon="9.67111604312393"><ele>754.0</ele><time>2026-03-28T11:57:17.927Z</time></trkpt><trkpt lat="45.866146972807925" lon="9.6712049576266"><ele>754.0</ele><time>2026-03-28T11:57:18.927Z</time></trkpt><trkpt lat="45.866042427107786" lon="9.671285920573446"><ele>754.0</ele><time>2026-03-28T11:57:19.927Z</time></trkpt><trkpt lat="45.86592108377878" lon="9.671340739565835"><ele>754.0</ele><time>2026-03-28T11:57:20.927Z</time></trkpt><trkpt lat="45.86580057291528" lon="9.67138128368463"><ele>754.0</ele><time>2026-03-28T11:57:21.927Z</time></trkpt><trkpt lat="45.8656727898897" lon="9.671413842419206"><ele>750.3333333333334</ele><time>2026-03-28T11:57:22.927Z</time></trkpt><trkpt lat="45.86555696097462" lon="9.671455685639657"><ele>746.6666666666667</ele><time>2026-03-28T11:57:23.927Z</time></trkpt><trkpt lat="45.865463720098006" lon="9.671470410621115"><ele>743.0</ele><time>2026-03-28T11:57:24.927Z</time></trkpt><trkpt lat="45.86539683798205" lon="9.671478429481331"><ele>739.3333333333334</ele><time>2026-03-28T11:57:25.927Z</time></trkpt><trkpt lat="45.86533529483912" lon="9.671429192123027"><ele>735.6666666666666</ele><time>2026-03-28T11:57:27.927Z</time></trkpt><trkpt lat="45.8653456849507" lon="9.671329570469466"><ele>732.0</ele><time>2026-03-28T11:57:29.927Z</time></trkpt><trkpt lat="45.86546735049085" lon="9.67132763782267"><ele>732.0</ele><time>2026-03-28T11:57:30.927Z</time></trkpt><trkpt lat="45.86555424944821" lon="9.6713178761895"><ele>732.0</ele><time>2026-03-28T11:57:31.927Z</time></trkpt><trkpt lat="45.86565539984299" lon="9.671251264487282"><ele>732.0</ele><time>2026-03-28T11:57:32.927Z</time></trkpt><trkpt lat="45.86575476967106" lon="9.671120956495626"><ele>732.0</ele><time>2026-03-28T11:57:33.927Z</time></trkpt><trkpt lat="45.86583326651493" lon="9.670977570684075"><ele>731.75</ele><time>2026-03-28T11:57:34.927Z</time></trkpt><trkpt lat="45.86589601932927" lon="9.670833511598737"><ele>731.5</ele><time>2026-03-28T11:57:35.927Z</time></trkpt><trkpt lat="45.86595718000449" lon="9.670713719494891"><ele>731.25</ele><time>2026-03-28T11:57:36.927Z</time></trkpt><trkpt lat="45.86603575136251" lon="9.670607696963524"><ele>731.0</ele><time>2026-03-28T11:57:37.927Z</time></trkpt><trkpt lat="45.86615220633245" lon="9.670524163743963"><ele>731.0</ele><time>2026-03-28T11:57:38.927Z</time></trkpt><trkpt lat="45.86624906128185" lon="9.67045160973239"><ele>731.0</ele><time>2026-03-28T11:57:39.927Z</time></trkpt><trkpt lat="45.86632891352479" lon="9.670376939196698"><ele>731.0</ele><time>2026-03-28T11:57:40.927Z</time></trkpt><trkpt lat="45.86639765435037" lon="9.67027560832919"><ele>731.0</ele><time>2026-03-28T11:57:41.927Z</time></trkpt><trkpt lat="45.86646551226518" lon="9.67016819808036"><ele>731.0</ele><time>2026-03-28T11:57:42.927Z</time></trkpt><trkpt lat="45.866521513271145" lon="9.670043767182557"><ele>728.0</ele><time>2026-03-28T11:57:43.927Z</time></trkpt><trkpt lat="45.86660189345933" lon="9.669906386343605"><ele>725.0</ele><time>2026-03-28T11:57:44.927Z</time></trkpt><trkpt lat="45.86669344084962" lon="9.669782374847479"><ele>722.0</ele><time>2026-03-28T11:57:45.927Z</time></trkpt><trkpt lat="45.86680541982845" lon="9.669678917345495"><ele>719.0</ele><time>2026-03-28T11:57:46.925Z</time></trkpt><trkpt lat="45.8669445172928" lon="9.669589083501066"><ele>719.0</ele><time>2026-03-28T11:57:47.926Z</time></trkpt><trkpt lat="45.86707428638149" lon="9.669519179671443"><ele>719.0</ele><time>2026-03-28T11:57:48.926Z</time></trkpt><trkpt lat="45.86719070071702" lon="9.669463898639341"><ele>719.0</ele><time>2026-03-28T11:57:49.925Z</time></trkpt><trkpt lat="45.86730808036733" lon="9.669426859824917"><ele>719.0</ele><time>2026-03-28T11:57:50.925Z</time></trkpt><trkpt lat="45.8674471415768" lon="9.66940446396226"><ele>714.5</ele><time>2026-03-28T11:57:51.925Z</time></trkpt><trkpt lat="45.867576351260254" lon="9.669366369995545"><ele>710.0</ele><time>2026-03-28T11:57:52.925Z</time></trkpt><trkpt lat="45.86769453909902" lon="9.669343853300628"><ele>705.5</ele><time>2026-03-28T11:57:53.926Z</time></trkpt><trkpt lat="45.867802079319915" lon="9.66934438149673"><ele>701.0</ele><time>2026-03-28T11:57:54.926Z</time></trkpt><trkpt lat="45.86789480904523" lon="9.669378952781859"><ele>704.5</ele><time>2026-03-28T11:57:55.925Z</time></trkpt><trkpt lat="45.86799034145717" lon="9.669455560021673"><ele>708.0</ele><time>2026-03-28T11:57:56.925Z</time></trkpt><trkpt lat="45.868106299590536" lon="9.669556175984482"><ele>711.5</ele><time>2026-03-28T11:57:57.925Z</time></trkpt><trkpt lat="45.86823356005014" lon="9.669702313741602"><ele>715.0</ele><time>2026-03-28T11:57:58.926Z</time></trkpt><trkpt lat="45.86834942976413" lon="9.66980005061456"><ele>714.5</ele><time>2026-03-28T11:57:59.925Z</time></trkpt><trkpt lat="45.86846205146091" lon="9.669865195476001"><ele>714.0</ele><time>2026-03-28T11:58:00.925Z</time></trkpt><trkpt lat="45.86858526677504" lon="9.669899295714643"><ele>713.5</ele><time>2026-03-28T11:58:01.925Z</time></trkpt><trkpt lat="45.868723900221916" lon="9.66988243824955"><ele>713.0</ele><time>2026-03-28T11:58:02.925Z</time></trkpt><trkpt lat="45.86888280479939" lon="9.66983276402725"><ele>713.0</ele><time>2026-03-28T11:58:03.925Z</time></trkpt><trkpt lat="45.869064194928896" lon="9.669770301734198"><ele>713.0</ele><time>2026-03-28T11:58:04.925Z</time></trkpt><trkpt lat="45.86923594159207" lon="9.669718725251984"><ele>713.0</ele><time>2026-03-28T11:58:05.925Z</time></trkpt><trkpt lat="45.86939108476771" lon="9.669674303671457"><ele>713.5</ele><time>2026-03-28T11:58:06.925Z</time></trkpt><trkpt lat="45.869543042624315" lon="9.669629767707068"><ele>714.0</ele><time>2026-03-28T11:58:07.925Z</time></trkpt><trkpt lat="45.86967026070738" lon="9.669605036922565"><ele>714.5</ele><time>2026-03-28T11:58:08.925Z</time></trkpt><trkpt lat="45.869776214585116" lon="9.669614674055834"><ele>715.0</ele><time>2026-03-28T11:58:09.925Z</time></trkpt><trkpt lat="45.869872726532314" lon="9.669633180298604"><ele>715.0</ele><time>2026-03-28T11:58:10.925Z</time></trkpt><trkpt lat="45.869985951724296" lon="9.66969544135277"><ele>715.0</ele><time>2026-03-28T11:58:11.925Z</time></trkpt><trkpt lat="45.870099387538" lon="9.669724582916746"><ele>715.0</ele><time>2026-03-28T11:58:12.925Z</time></trkpt><trkpt lat="45.87021281304013" lon="9.66968010431166"><ele>715.0</ele><time>2026-03-28T11:58:13.925Z</time></trkpt><trkpt lat="45.87031124412824" lon="9.669578610282667"><ele>711.75</ele><time>2026-03-28T11:58:14.925Z</time></trkpt><trkpt lat="45.87041031449165" lon="9.669433907491984"><ele>708.5</ele><time>2026-03-28T11:58:15.925Z</time></trkpt><trkpt lat="45.87051326788628" lon="9.669304523421308"><ele>705.25</ele><time>2026-03-28T11:58:16.925Z</time></trkpt><trkpt lat="45.870616923111726" lon="9.669189667057497"><ele>702.0</ele><time>2026-03-28T11:58:17.925Z</time></trkpt><trkpt lat="45.870716437974956" lon="9.669119208676403"><ele>702.0</ele><time>2026-03-28T11:58:18.925Z</time></trkpt><trkpt lat="45.87084925764653" lon="9.669058385132049"><ele>702.0</ele><time>2026-03-28T11:58:19.925Z</time></trkpt><trkpt lat="45.870997675229326" lon="9.669010815049639"><ele>702.0</ele><time>2026-03-28T11:58:20.925Z</time></trkpt><trkpt lat="45.87116151202982" lon="9.668949692749875"><ele>706.0</ele><time>2026-03-28T11:58:21.925Z</time></trkpt><trkpt lat="45.871336708690016" lon="9.668877346278025"><ele>710.0</ele><time>2026-03-28T11:58:22.925Z</time></trkpt><trkpt lat="45.87149620067664" lon="9.668784924702823"><ele>714.0</ele><time>2026-03-28T11:58:23.925Z</time></trkpt><trkpt lat="45.87164391878181" lon="9.668666905596044"><ele>712.0</ele><time>2026-03-28T11:58:24.925Z</time></trkpt><trkpt lat="45.87177645457489" lon="9.668525219064467"><ele>710.0</ele><time>2026-03-28T11:58:25.925Z</time></trkpt><trkpt lat="45.87191230578205" lon="9.668384319897516"><ele>708.0</ele><time>2026-03-28T11:58:26.925Z</time></trkpt><trkpt lat="45.87203731573463" lon="9.668266842080579"><ele>708.0</ele><time>2026-03-28T11:58:27.925Z</time></trkpt><trkpt lat="45.872156546605275" lon="9.66819046174265"><ele>708.0</ele><time>2026-03-28T11:58:28.925Z</time></trkpt><trkpt lat="45.872301444807796" lon="9.668127106207766"><ele>708.0</ele><time>2026-03-28T11:58:29.925Z</time></trkpt><trkpt lat="45.87246485082953" lon="9.668073508448735"><ele>707.0</ele><time>2026-03-28T11:58:30.925Z</time></trkpt><trkpt lat="45.8726260400105" lon="9.668024721156824"><ele>706.0</ele><time>2026-03-28T11:58:31.925Z</time></trkpt><trkpt lat="45.87275993805004" lon="9.667982743256433"><ele>705.0</ele><time>2026-03-28T11:58:32.925Z</time></trkpt><trkpt lat="45.872853428258345" lon="9.667950798683552"><ele>704.0</ele><time>2026-03-28T11:58:33.925Z</time></trkpt><trkpt lat="45.87293721121541" lon="9.667926110578529"><ele>704.0</ele><time>2026-03-28T11:58:34.925Z</time></trkpt><trkpt lat="45.873014726073166" lon="9.667937243287026"><ele>704.0</ele><time>2026-03-28T11:58:35.925Z</time></trkpt><trkpt lat="45.87307410759798" lon="9.668001417169588"><ele>704.0</ele><time>2026-03-28T11:58:36.925Z</time></trkpt><trkpt lat="45.87311925440553" lon="9.668118966445403"><ele>704.0</ele><time>2026-03-28T11:58:37.925Z</time></trkpt><trkpt lat="45.873149418694375" lon="9.668238255039835"><ele>704.0</ele><time>2026-03-28T11:58:38.925Z</time></trkpt><trkpt lat="45.873180146112134" lon="9.668363191404548"><ele>704.0</ele><time>2026-03-28T11:58:39.925Z</time></trkpt><trkpt lat="45.873258673556585" lon="9.668449554070666"><ele>704.0</ele><time>2026-03-28T11:58:40.925Z</time></trkpt><trkpt lat="45.87335939526001" lon="9.668461307180836"><ele>704.0</ele><time>2026-03-28T11:58:41.925Z</time></trkpt><trkpt lat="45.8734769536828" lon="9.668393864742791"><ele>704.0</ele><time>2026-03-28T11:58:42.925Z</time></trkpt><trkpt lat="45.8736023545279" lon="9.668276513328461"><ele>704.0</ele><time>2026-03-28T11:58:43.925Z</time></trkpt><trkpt lat="45.87373421143184" lon="9.668124881850131"><ele>704.5</ele><time>2026-03-28T11:58:44.925Z</time></trkpt><trkpt lat="45.873852733417834" lon="9.668000326110873"><ele>705.0</ele><time>2026-03-28T11:58:45.924Z</time></trkpt><trkpt lat="45.873971809170015" lon="9.667897002132495"><ele>705.5</ele><time>2026-03-28T11:58:46.924Z</time></trkpt><trkpt lat="45.87409226831354" lon="9.667786426375972"><ele>706.0</ele><time>2026-03-28T11:58:47.924Z</time></trkpt><trkpt lat="45.874204271827914" lon="9.667678755962735"><ele>701.0</ele><time>2026-03-28T11:58:48.924Z</time></trkpt><trkpt lat="45.874316358026626" lon="9.667580268988036"><ele>696.0</ele><time>2026-03-28T11:58:49.924Z</time></trkpt><trkpt lat="45.87444236264388" lon="9.667493410792467"><ele>691.0</ele><time>2026-03-28T11:58:50.924Z</time></trkpt><trkpt lat="45.874602172173425" lon="9.667433958733534"><ele>686.0</ele><time>2026-03-28T11:58:51.924Z</time></trkpt><trkpt lat="45.874744952111186" lon="9.667383787571636"><ele>686.0</ele><time>2026-03-28T11:58:52.924Z</time></trkpt><trkpt lat="45.87486959318238" lon="9.667338638883573"><ele>686.0</ele><time>2026-03-28T11:58:53.924Z</time></trkpt><trkpt lat="45.87495876377554" lon="9.667318499910696"><ele>686.0</ele><time>2026-03-28T11:58:54.924Z</time></trkpt><trkpt lat="45.87503916481934" lon="9.667345708404435"><ele>686.0</ele><time>2026-03-28T11:58:55.924Z</time></trkpt><trkpt lat="45.87509907474573" lon="9.66741952837886"><ele>686.0</ele><time>2026-03-28T11:58:56.924Z</time></trkpt><trkpt lat="45.8751388824279" lon="9.667535064477045"><ele>687.0</ele><time>2026-03-28T11:58:57.924Z</time></trkpt><trkpt lat="45.87519908803857" lon="9.667631948977716"><ele>688.0</ele><time>2026-03-28T11:58:58.924Z</time></trkpt><trkpt lat="45.87529966247584" lon="9.66764491238419"><ele>689.0</ele><time>2026-03-28T11:58:59.924Z</time></trkpt><trkpt lat="45.87541279692402" lon="9.667580390290084"><ele>690.0</ele><time>2026-03-28T11:59:00.924Z</time></trkpt><trkpt lat="45.875555721704096" lon="9.667435765501558"><ele>690.0</ele><time>2026-03-28T11:59:01.924Z</time></trkpt><trkpt lat="45.87568841483384" lon="9.667332934440008"><ele>690.0</ele><time>2026-03-28T11:59:02.924Z</time></trkpt><trkpt lat="45.875819540451324" lon="9.667250677523384"><ele>690.0</ele><time>2026-03-28T11:59:03.924Z</time></trkpt><trkpt lat="45.8759601121388" lon="9.667172550400188"><ele>690.0</ele><time>2026-03-28T11:59:04.924Z</time></trkpt><trkpt lat="45.87609315337925" lon="9.667096219672136"><ele>690.0</ele><time>2026-03-28T11:59:05.924Z</time></trkpt><trkpt lat="45.876218117140624" lon="9.667011175212078"><ele>690.0</ele><time>2026-03-28T11:59:06.924Z</time></trkpt><trkpt lat="45.87633407102198" lon="9.666905523594037"><ele>690.0</ele><time>2026-03-28T11:59:07.924Z</time></trkpt><trkpt lat="45.87643978092707" lon="9.666792978548703"><ele>690.0</ele><time>2026-03-28T11:59:08.924Z</time></trkpt><trkpt lat="45.876541443314906" lon="9.666687134358064"><ele>687.8</ele><time>2026-03-28T11:59:09.924Z</time></trkpt><trkpt lat="45.87663300184674" lon="9.666615494573275"><ele>685.6</ele><time>2026-03-28T11:59:10.924Z</time></trkpt><trkpt lat="45.87672158502938" lon="9.666585885035273"><ele>683.4000000000001</ele><time>2026-03-28T11:59:11.924Z</time></trkpt><trkpt lat="45.87678607877738" lon="9.666563613816912"><ele>681.2</ele><time>2026-03-28T11:59:12.924Z</time></trkpt><trkpt lat="45.876879292286695" lon="9.666569632089526"><ele>679.0</ele><time>2026-03-28T11:59:13.924Z</time></trkpt><trkpt lat="45.877020552675205" lon="9.66666680169735"><ele>679.3333333333334</ele><time>2026-03-28T11:59:14.924Z</time></trkpt><trkpt lat="45.87716778665039" lon="9.66677524768301"><ele>679.6666666666666</ele><time>2026-03-28T11:59:15.924Z</time></trkpt><trkpt lat="45.8773081567328" lon="9.666886434022617"><ele>680.0</ele><time>2026-03-28T11:59:16.924Z</time></trkpt><trkpt lat="45.877435542525994" lon="9.666970526208168"><ele>680.0</ele><time>2026-03-28T11:59:17.924Z</time></trkpt><trkpt lat="45.87756034437619" lon="9.667033266282784"><ele>680.0</ele><time>2026-03-28T11:59:18.924Z</time></trkpt><trkpt lat="45.8776838170341" lon="9.667100624583568"><ele>680.0</ele><time>2026-03-28T11:59:19.924Z</time></trkpt><trkpt lat="45.87779757717476" lon="9.667149364552932"><ele>680.0</ele><time>2026-03-28T11:59:20.924Z</time></trkpt><trkpt lat="45.87790729666327" lon="9.667153070478047"><ele>681.25</ele><time>2026-03-28T11:59:21.924Z</time></trkpt><trkpt lat="45.878038370373766" lon="9.667096732712078"><ele>682.5</ele><time>2026-03-28T11:59:22.924Z</time></trkpt><trkpt lat="45.878166302992824" lon="9.666988174975804"><ele>683.75</ele><time>2026-03-28T11:59:23.924Z</time></trkpt><trkpt lat="45.8782852572629" lon="9.666892987379422"><ele>685.0</ele><time>2026-03-28T11:59:24.924Z</time></trkpt><trkpt lat="45.87841781489704" lon="9.666852352601786"><ele>681.25</ele><time>2026-03-28T11:59:25.924Z</time></trkpt><trkpt lat="45.87854341983508" lon="9.666811608814891"><ele>677.5</ele><time>2026-03-28T11:59:26.924Z</time></trkpt><trkpt lat="45.87867793672146" lon="9.66678037755318"><ele>673.75</ele><time>2026-03-28T11:59:27.924Z</time></trkpt><trkpt lat="45.878814668745626" lon="9.666747338641674"><ele>670.0</ele><time>2026-03-28T11:59:28.924Z</time></trkpt><trkpt lat="45.8789475736276" lon="9.666715993421755"><ele>670.0</ele><time>2026-03-28T11:59:29.924Z</time></trkpt><trkpt lat="45.87905278376626" lon="9.666676817837736"><ele>670.0</ele><time>2026-03-28T11:59:30.924Z</time></trkpt><trkpt lat="45.879150017755684" lon="9.666627586051263"><ele>670.0</ele><time>2026-03-28T11:59:31.924Z</time></trkpt><trkpt lat="45.8792272902835" lon="9.666527895780481"><ele>670.0</ele><time>2026-03-28T11:59:32.924Z</time></trkpt><trkpt lat="45.87928403462441" lon="9.666366429860009"><ele>670.0</ele><time>2026-03-28T11:59:33.924Z</time></trkpt><trkpt lat="45.879318288413145" lon="9.666189588593287"><ele>668.4</ele><time>2026-03-28T11:59:34.924Z</time></trkpt><trkpt lat="45.87935327894823" lon="9.666052230109614"><ele>666.8</ele><time>2026-03-28T11:59:35.924Z</time></trkpt><trkpt lat="45.8794076032186" lon="9.66594720659324"><ele>665.2</ele><time>2026-03-28T11:59:36.924Z</time></trkpt><trkpt lat="45.87950138980974" lon="9.665862559811542"><ele>663.6</ele><time>2026-03-28T11:59:37.924Z</time></trkpt><trkpt lat="45.879632008101936" lon="9.665782580919764"><ele>662.0</ele><time>2026-03-28T11:59:38.924Z</time></trkpt><trkpt lat="45.87976018371709" lon="9.665668478127925"><ele>662.0</ele><time>2026-03-28T11:59:39.924Z</time></trkpt><trkpt lat="45.87987196766472" lon="9.66554385683787"><ele>662.0</ele><time>2026-03-28T11:59:40.924Z</time></trkpt><trkpt lat="45.879965460768695" lon="9.665386973081764"><ele>662.0</ele><time>2026-03-28T11:59:41.924Z</time></trkpt><trkpt lat="45.880070881919515" lon="9.665239402087144"><ele>662.0</ele><time>2026-03-28T11:59:42.924Z</time></trkpt><trkpt lat="45.88018598711719" lon="9.665099963058298"><ele>660.0</ele><time>2026-03-28T11:59:43.924Z</time></trkpt><trkpt lat="45.88028641493922" lon="9.664958284614814"><ele>658.0</ele><time>2026-03-28T11:59:44.924Z</time></trkpt><trkpt lat="45.88038274363832" lon="9.664807916458612"><ele>656.0</ele><time>2026-03-28T11:59:45.924Z</time></trkpt><trkpt lat="45.88046103094038" lon="9.664680900320082"><ele>654.0</ele><time>2026-03-28T11:59:46.924Z</time></trkpt><trkpt lat="45.88055127598439" lon="9.664584012904259"><ele>654.0</ele><time>2026-03-28T11:59:47.924Z</time></trkpt><trkpt lat="45.88064823906397" lon="9.66451941341957"><ele>654.0</ele><time>2026-03-28T11:59:48.924Z</time></trkpt><trkpt lat="45.88076575724929" lon="9.664494183082473"><ele>654.0</ele><time>2026-03-28T11:59:49.924Z</time></trkpt><trkpt lat="45.88088817153462" lon="9.664501179681219"><ele>654.0</ele><time>2026-03-28T11:59:50.924Z</time></trkpt><trkpt lat="45.88099268476981" lon="9.664535934993173"><ele>652.0</ele><time>2026-03-28T11:59:51.924Z</time></trkpt><trkpt lat="45.881076183642094" lon="9.664603169151627"><ele>650.0</ele><time>2026-03-28T11:59:52.923Z</time></trkpt><trkpt lat="45.881145334388364" lon="9.664711773455787"><ele>648.0</ele><time>2026-03-28T11:59:53.923Z</time></trkpt><trkpt lat="45.88119299721233" lon="9.664855470450641"><ele>646.0</ele><time>2026-03-28T11:59:54.923Z</time></trkpt><trkpt lat="45.881264835621785" lon="9.664953088619033"><ele>644.0</ele><time>2026-03-28T11:59:55.923Z</time></trkpt><trkpt lat="45.88136074951712" lon="9.66496502070784"><ele>644.0</ele><time>2026-03-28T11:59:56.923Z</time></trkpt><trkpt lat="45.88147384124146" lon="9.664889761913756"><ele>644.0</ele><time>2026-03-28T11:59:57.923Z</time></trkpt><trkpt lat="45.88163234152322" lon="9.6647431026403"><ele>644.0</ele><time>2026-03-28T11:59:58.923Z</time></trkpt><trkpt lat="45.88181829879024" lon="9.664606481999707"><ele>647.3333333333333</ele><time>2026-03-28T11:59:59.923Z</time></trkpt><trkpt lat="45.881988796273944" lon="9.664494703454215"><ele>650.6666666666666</ele><time>2026-03-28T12:00:00.923Z</time></trkpt><trkpt lat="45.882136112867535" lon="9.66438902619598"><ele>654.0</ele><time>2026-03-28T12:00:01.923Z</time></trkpt><trkpt lat="45.88228716022611" lon="9.6642863524625"><ele>648.25</ele><time>2026-03-28T12:00:02.923Z</time></trkpt><trkpt lat="45.88242436166857" lon="9.664190128898376"><ele>642.5</ele><time>2026-03-28T12:00:03.923Z</time></trkpt><trkpt lat="45.88253253997981" lon="9.66409943104401"><ele>636.75</ele><time>2026-03-28T12:00:04.923Z</time></trkpt><trkpt lat="45.8826289617581" lon="9.664034528688635"><ele>631.0</ele><time>2026-03-28T12:00:05.922Z</time></trkpt><trkpt lat="45.88271434556991" lon="9.66401429063103"><ele>628.25</ele><time>2026-03-28T12:00:06.922Z</time></trkpt><trkpt lat="45.88278526454769" lon="9.664030638520584"><ele>625.5</ele><time>2026-03-28T12:00:07.922Z</time></trkpt><trkpt lat="45.88288081853136" lon="9.664108046416354"><ele>622.75</ele><time>2026-03-28T12:00:08.922Z</time></trkpt><trkpt lat="45.88299422882604" lon="9.664215736619347"><ele>620.0</ele><time>2026-03-28T12:00:09.922Z</time></trkpt><trkpt lat="45.88315556225279" lon="9.664351321303096"><ele>620.0</ele><time>2026-03-28T12:00:10.922Z</time></trkpt><trkpt lat="45.88331113640078" lon="9.664429999349068"><ele>620.0</ele><time>2026-03-28T12:00:11.922Z</time></trkpt><trkpt lat="45.88346452515741" lon="9.664464984668086"><ele>620.0</ele><time>2026-03-28T12:00:12.922Z</time></trkpt><trkpt lat="45.88357774921615" lon="9.664501950339533"><ele>620.0</ele><time>2026-03-28T12:00:13.922Z</time></trkpt><trkpt lat="45.88366827610425" lon="9.664546867939679"><ele>620.25</ele><time>2026-03-28T12:00:14.922Z</time></trkpt><trkpt lat="45.88373274926627" lon="9.664642645986923"><ele>620.5</ele><time>2026-03-28T12:00:15.922Z</time></trkpt><trkpt lat="45.88379089387826" lon="9.664753416530838"><ele>620.75</ele><time>2026-03-28T12:00:16.922Z</time></trkpt><trkpt lat="45.88384869662119" lon="9.664921267326807"><ele>621.0</ele><time>2026-03-28T12:00:17.922Z</time></trkpt><trkpt lat="45.88391214141616" lon="9.665086532943613"><ele>621.0</ele><time>2026-03-28T12:00:18.922Z</time></trkpt><trkpt lat="45.88396086185507" lon="9.665252677509496"><ele>621.0</ele><time>2026-03-28T12:00:19.922Z</time></trkpt><trkpt lat="45.88400147519957" lon="9.665382794328107"><ele>621.0</ele><time>2026-03-28T12:00:20.922Z</time></trkpt><trkpt lat="45.8840758489207" lon="9.665443656313428"><ele>621.0</ele><time>2026-03-28T12:00:21.922Z</time></trkpt><trkpt lat="45.88415863951018" lon="9.665414184211615"><ele>621.0</ele><time>2026-03-28T12:00:22.922Z</time></trkpt><trkpt lat="45.88424325397008" lon="9.665358363439326"><ele>620.6666666666666</ele><time>2026-03-28T12:00:23.922Z</time></trkpt><trkpt lat="45.88431159569419" lon="9.665195985808948"><ele>620.3333333333333</ele><time>2026-03-28T12:00:24.922Z</time></trkpt><trkpt lat="45.88438409283389" lon="9.665012466706226"><ele>620.0</ele><time>2026-03-28T12:00:25.922Z</time></trkpt><trkpt lat="45.88443406991716" lon="9.664773553890488"><ele>620.0</ele><time>2026-03-28T12:00:26.922Z</time></trkpt><trkpt lat="45.8844372030488" lon="9.664531288089377"><ele>620.0</ele><time>2026-03-28T12:00:27.922Z</time></trkpt><trkpt lat="45.88443995413754" lon="9.664329609592343"><ele>620.0</ele><time>2026-03-28T12:00:28.922Z</time></trkpt><trkpt lat="45.88446034553718" lon="9.664138021443817"><ele>620.0</ele><time>2026-03-28T12:00:29.922Z</time></trkpt><trkpt lat="45.8844826995218" lon="9.663963706748584"><ele>618.5</ele><time>2026-03-28T12:00:30.922Z</time></trkpt><trkpt lat="45.884500651393516" lon="9.663797140936271"><ele>617.0</ele><time>2026-03-28T12:00:31.922Z</time></trkpt><trkpt lat="45.884514458882094" lon="9.663632688201808"><ele>615.5</ele><time>2026-03-28T12:00:32.922Z</time></trkpt><trkpt lat="45.88453315815531" lon="9.663465778701777"><ele>614.0</ele><time>2026-03-28T12:00:33.922Z</time></trkpt><trkpt lat="45.88455822491489" lon="9.66330671225229"><ele>612.25</ele><time>2026-03-28T12:00:34.922Z</time></trkpt><trkpt lat="45.88459090759298" lon="9.663140563008145"><ele>610.5</ele><time>2026-03-28T12:00:35.922Z</time></trkpt><trkpt lat="45.884640733719316" lon="9.662985641663914"><ele>608.75</ele><time>2026-03-28T12:00:36.922Z</time></trkpt><trkpt lat="45.8847036250982" lon="9.662846419229487"><ele>607.0</ele><time>2026-03-28T12:00:37.922Z</time></trkpt><trkpt lat="45.88478138432009" lon="9.662724962872314"><ele>605.3333333333334</ele><time>2026-03-28T12:00:38.922Z</time></trkpt><trkpt lat="45.88487387401592" lon="9.66263683294009"><ele>603.6666666666667</ele><time>2026-03-28T12:00:39.922Z</time></trkpt><trkpt lat="45.88495221677041" lon="9.662559559214118"><ele>602.0</ele><time>2026-03-28T12:00:40.922Z</time></trkpt><trkpt lat="45.8850227897941" lon="9.66248584762631"><ele>600.3333333333334</ele><time>2026-03-28T12:00:41.922Z</time></trkpt><trkpt lat="45.88508562234744" lon="9.662417131753863"><ele>598.6666666666666</ele><time>2026-03-28T12:00:42.922Z</time></trkpt><trkpt lat="45.885138276387025" lon="9.662359184064961"><ele>597.0</ele><time>2026-03-28T12:00:43.922Z</time></trkpt><trkpt lat="45.88520219274684" lon="9.662294283851352"><ele>597.0</ele><time>2026-03-28T12:00:44.922Z</time></trkpt><trkpt lat="45.88528619765908" lon="9.662202806584501"><ele>597.0</ele><time>2026-03-28T12:00:45.922Z</time></trkpt><trkpt lat="45.885366415293134" lon="9.662117563907042"><ele>597.0</ele><time>2026-03-28T12:00:46.922Z</time></trkpt><trkpt lat="45.885451661405966" lon="9.662028379711764"><ele>597.0</ele><time>2026-03-28T12:00:47.922Z</time></trkpt><trkpt lat="45.88553696330385" lon="9.661948315784366"><ele>597.0</ele><time>2026-03-28T12:00:48.922Z</time></trkpt><trkpt lat="45.88562525143691" lon="9.661844231195241"><ele>595.75</ele><time>2026-03-28T12:00:49.922Z</time></trkpt><trkpt lat="45.88572258875482" lon="9.66173098703845"><ele>594.5</ele><time>2026-03-28T12:00:50.922Z</time></trkpt><trkpt lat="45.88582241677999" lon="9.66163149087084"><ele>593.25</ele><time>2026-03-28T12:00:51.922Z</time></trkpt><trkpt lat="45.88592019198747" lon="9.661537377864509"><ele>592.0</ele><time>2026-03-28T12:00:52.922Z</time></trkpt><trkpt lat="45.88601454801877" lon="9.661443694001376"><ele>590.4</ele><time>2026-03-28T12:00:53.922Z</time></trkpt><trkpt lat="45.886102036848634" lon="9.661354738692346"><ele>588.8000000000001</ele><time>2026-03-28T12:00:54.922Z</time></trkpt><trkpt lat="45.886177475539306" lon="9.661268262485017"><ele>587.2</ele><time>2026-03-28T12:00:55.922Z</time></trkpt><trkpt lat="45.886247290902865" lon="9.661189472720038"><ele>585.6</ele><time>2026-03-28T12:00:56.922Z</time></trkpt><trkpt lat="45.88628392206006" lon="9.661076143732581"><ele>584.0</ele><time>2026-03-28T12:00:57.922Z</time></trkpt><trkpt lat="45.88627762162832" lon="9.660938358440958"><ele>589.3333333333333</ele><time>2026-03-28T12:00:58.922Z</time></trkpt><trkpt lat="45.886226638585875" lon="9.66076324315997"><ele>594.6666666666666</ele><time>2026-03-28T12:00:59.922Z</time></trkpt><trkpt lat="45.886126838103756" lon="9.66056433022882"><ele>600.0</ele><time>2026-03-28T12:01:00.922Z</time></trkpt><trkpt lat="45.88598671788058" lon="9.660343786637556"><ele>596.0</ele><time>2026-03-28T12:01:01.922Z</time></trkpt><trkpt lat="45.88584891851245" lon="9.66013599730456"><ele>592.0</ele><time>2026-03-28T12:01:02.922Z</time></trkpt><trkpt lat="45.88572406427244" lon="9.659939892607724"><ele>588.0</ele><time>2026-03-28T12:01:03.922Z</time></trkpt><trkpt lat="45.885598595342614" lon="9.659743207846029"><ele>588.0</ele><time>2026-03-28T12:01:04.922Z</time></trkpt><trkpt lat="45.885488457412045" lon="9.659545424053993"><ele>588.0</ele><time>2026-03-28T12:01:05.922Z</time></trkpt><trkpt lat="45.88537514187646" lon="9.659368836511016"><ele>588.0</ele><time>2026-03-28T12:01:06.922Z</time></trkpt><trkpt lat="45.88526077635149" lon="9.65918595105609"><ele>592.3333333333334</ele><time>2026-03-28T12:01:07.922Z</time></trkpt><trkpt lat="45.885122327332" lon="9.659061126421461"><ele>596.6666666666667</ele><time>2026-03-28T12:01:08.922Z</time></trkpt><trkpt lat="45.88496398674006" lon="9.658940536458928"><ele>601.0</ele><time>2026-03-28T12:01:09.922Z</time></trkpt><trkpt lat="45.8847976617832" lon="9.65881738092432"><ele>595.6666666666667</ele><time>2026-03-28T12:01:10.922Z</time></trkpt><trkpt lat="45.88462425953629" lon="9.65871199860143"><ele>590.3333333333334</ele><time>2026-03-28T12:01:11.922Z</time></trkpt><trkpt lat="45.884446571057225" lon="9.65858705519113"><ele>585.0</ele><time>2026-03-28T12:01:12.922Z</time></trkpt><trkpt lat="45.88427751885876" lon="9.658468191668893"><ele>578.0</ele><time>2026-03-28T12:01:13.922Z</time></trkpt><trkpt lat="45.88412850528815" lon="9.658348014423616"><ele>571.0</ele><time>2026-03-28T12:01:14.922Z</time></trkpt><trkpt lat="45.88397367480006" lon="9.658274972197518"><ele>564.0</ele><time>2026-03-28T12:01:15.922Z</time></trkpt><trkpt lat="45.88381750955003" lon="9.658237178069419"><ele>564.0</ele><time>2026-03-28T12:01:16.922Z</time></trkpt><trkpt lat="45.88366495498413" lon="9.65824046978458"><ele>564.0</ele><time>2026-03-28T12:01:17.922Z</time></trkpt><trkpt lat="45.8835118964673" lon="9.658222263368042"><ele>564.0</ele><time>2026-03-28T12:01:18.922Z</time></trkpt><trkpt lat="45.88337788276587" lon="9.658187371413517"><ele>564.0</ele><time>2026-03-28T12:01:19.922Z</time></trkpt><trkpt lat="45.88323371285997" lon="9.658102415429962"><ele>561.4</ele><time>2026-03-28T12:01:20.922Z</time></trkpt><trkpt lat="45.88311517468258" lon="9.658011917351383"><ele>558.8</ele><time>2026-03-28T12:01:21.922Z</time></trkpt><trkpt lat="45.883009069141806" lon="9.657902452549015"><ele>556.2</ele><time>2026-03-28T12:01:22.922Z</time></trkpt><trkpt lat="45.88293420034091" lon="9.657830556783138"><ele>553.6</ele><time>2026-03-28T12:01:23.922Z</time></trkpt><trkpt lat="45.882866472851546" lon="9.657809578812738"><ele>551.0</ele><time>2026-03-28T12:01:24.922Z</time></trkpt><trkpt lat="45.88278886773763" lon="9.657843126291416"><ele>551.0</ele><time>2026-03-28T12:01:25.922Z</time></trkpt><trkpt lat="45.882732779562275" lon="9.657973324076126"><ele>551.0</ele><time>2026-03-28T12:01:26.922Z</time></trkpt><trkpt lat="45.88272887786018" lon="9.658133938076814"><ele>551.0</ele><time>2026-03-28T12:01:27.922Z</time></trkpt><trkpt lat="45.88278208437634" lon="9.658252802591532"><ele>551.0</ele><time>2026-03-28T12:01:28.922Z</time></trkpt><trkpt lat="45.882897239674456" lon="9.65835099076577"><ele>551.0</ele><time>2026-03-28T12:01:29.922Z</time></trkpt><trkpt lat="45.88305114976656" lon="9.658426514612605"><ele>551.0</ele><time>2026-03-28T12:01:30.922Z</time></trkpt><trkpt lat="45.88320073501186" lon="9.658513249264574"><ele>551.0</ele><time>2026-03-28T12:01:31.922Z</time></trkpt><trkpt lat="45.8833339924094" lon="9.658585582830405"><ele>550.8</ele><time>2026-03-28T12:01:32.922Z</time></trkpt><trkpt lat="45.883438423732144" lon="9.65866944981108"><ele>550.6</ele><time>2026-03-28T12:01:33.922Z</time></trkpt><trkpt lat="45.88351992178773" lon="9.658760370119564"><ele>550.4</ele><time>2026-03-28T12:01:34.922Z</time></trkpt><trkpt lat="45.883567018375444" lon="9.658848941497498"><ele>550.2</ele><time>2026-03-28T12:01:35.922Z</time></trkpt><trkpt lat="45.883575392531256" lon="9.658994352627504"><ele>550.0</ele><time>2026-03-28T12:01:36.922Z</time></trkpt><trkpt lat="45.88353337054619" lon="9.65915419845702"><ele>550.0</ele><time>2026-03-28T12:01:37.922Z</time></trkpt><trkpt lat="45.88343140658617" lon="9.659318545302327"><ele>550.0</ele><time>2026-03-28T12:01:38.922Z</time></trkpt><trkpt lat="45.88333682193467" lon="9.659461336245423"><ele>550.0</ele><time>2026-03-28T12:01:39.922Z</time></trkpt><trkpt lat="45.883248176473906" lon="9.659555609128631"><ele>550.0</ele><time>2026-03-28T12:01:40.922Z</time></trkpt><trkpt lat="45.883147796573176" lon="9.659568987514188"><ele>549.75</ele><time>2026-03-28T12:01:41.922Z</time></trkpt><trkpt lat="45.883024468411975" lon="9.659515669370707"><ele>549.5</ele><time>2026-03-28T12:01:42.922Z</time></trkpt><trkpt lat="45.8828860907598" lon="9.659424453949805"><ele>549.25</ele><time>2026-03-28T12:01:43.922Z</time></trkpt><trkpt lat="45.88274085146227" lon="9.659307066074565"><ele>549.0</ele><time>2026-03-28T12:01:44.922Z</time></trkpt><trkpt lat="45.88258189936361" lon="9.659183004325152"><ele>545.6666666666666</ele><time>2026-03-28T12:01:45.922Z</time></trkpt><trkpt lat="45.88242556634819" lon="9.659076248786334"><ele>542.3333333333333</ele><time>2026-03-28T12:01:46.922Z</time></trkpt><trkpt lat="45.88227604247481" lon="9.658954093717684"><ele>539.0</ele><time>2026-03-28T12:01:47.922Z</time></trkpt><trkpt lat="45.882133487042275" lon="9.658833152593052"><ele>539.0</ele><time>2026-03-28T12:01:48.922Z</time></trkpt><trkpt lat="45.88200253210812" lon="9.658716814889129"><ele>539.0</ele><time>2026-03-28T12:01:49.922Z</time></trkpt><trkpt lat="45.88187051042664" lon="9.658609325481377"><ele>539.0</ele><time>2026-03-28T12:01:50.922Z</time></trkpt><trkpt lat="45.881745296910935" lon="9.65850095339945"><ele>537.75</ele><time>2026-03-28T12:01:51.922Z</time></trkpt><trkpt lat="45.88162869036662" lon="9.658406618246257"><ele>536.5</ele><time>2026-03-28T12:01:52.922Z</time></trkpt><trkpt lat="45.88151122849262" lon="9.65831091663923"><ele>535.25</ele><time>2026-03-28T12:01:53.922Z</time></trkpt><trkpt lat="45.88140239706364" lon="9.658225812562778"><ele>534.0</ele><time>2026-03-28T12:01:54.922Z</time></trkpt><trkpt lat="45.881286744628056" lon="9.658153352460758"><ele>534.0</ele><time>2026-03-28T12:01:55.922Z</time></trkpt><trkpt lat="45.8811508416655" lon="9.658122174379306"><ele>534.0</ele><time>2026-03-28T12:01:56.922Z</time></trkpt><trkpt lat="45.88103244457353" lon="9.658091412514393"><ele>534.0</ele><time>2026-03-28T12:01:57.922Z</time></trkpt><trkpt lat="45.88091989272753" lon="9.658051374433851"><ele>534.0</ele><time>2026-03-28T12:01:58.921Z</time></trkpt><trkpt lat="45.88083809818969" lon="9.657921065252156"><ele>527.5</ele><time>2026-03-28T12:01:59.92Z</time></trkpt><trkpt lat="45.88078122986932" lon="9.65773958924325"><ele>521.0</ele><time>2026-03-28T12:02:00.92Z</time></trkpt><trkpt lat="45.880708665642615" lon="9.657598132366466"><ele>514.5</ele><time>2026-03-28T12:02:01.92Z</time></trkpt><trkpt lat="45.88065903019658" lon="9.65749006332756"><ele>508.0</ele><time>2026-03-28T12:02:02.921Z</time></trkpt><trkpt lat="45.880534280723566" lon="9.65747659519349"><ele>508.0</ele><time>2026-03-28T12:02:04.92Z</time></trkpt><trkpt lat="45.880466272264435" lon="9.65756048912542"><ele>507.99999999999994</ele><time>2026-03-28T12:02:05.92Z</time></trkpt><trkpt lat="45.880435723164155" lon="9.657694834809806"><ele>507.99999999999994</ele><time>2026-03-28T12:02:06.92Z</time></trkpt><trkpt lat="45.88044528294598" lon="9.657865034278222"><ele>508.0</ele><time>2026-03-28T12:02:07.92Z</time></trkpt><trkpt lat="45.8804699333967" lon="9.65804027998537"><ele>508.0</ele><time>2026-03-28T12:02:08.921Z</time></trkpt><trkpt lat="45.88047835546606" lon="9.658209999665294"><ele>511.00000000000006</ele><time>2026-03-28T12:02:09.921Z</time></trkpt><trkpt lat="45.880470870917534" lon="9.65835334793752"><ele>514.0</ele><time>2026-03-28T12:02:10.92Z</time></trkpt><trkpt lat="45.88044708487671" lon="9.65847130462383"><ele>517.0</ele><time>2026-03-28T12:02:11.92Z</time></trkpt><trkpt lat="45.88039514721673" lon="9.65852463997074"><ele>520.0</ele><time>2026-03-28T12:02:12.92Z</time></trkpt><trkpt lat="45.88032628357462" lon="9.658517044323329"><ele>523.0</ele><time>2026-03-28T12:02:13.92Z</time></trkpt><trkpt lat="45.8802363427069" lon="9.658401423538132"><ele>526.0</ele><time>2026-03-28T12:02:15.92Z</time></trkpt><trkpt lat="45.88020389487453" lon="9.658238245165375"><ele>526.0</ele><time>2026-03-28T12:02:17.92Z</time></trkpt><trkpt lat="45.880190536833275" lon="9.658141967691499"><ele>526.0</ele><time>2026-03-28T12:02:18.92Z</time></trkpt><trkpt lat="45.880171863933796" lon="9.658034340450172"><ele>526.0</ele><time>2026-03-28T12:02:19.92Z</time></trkpt><trkpt lat="45.88013620095134" lon="9.657906899212842"><ele>526.0</ele><time>2026-03-28T12:02:20.92Z</time></trkpt><trkpt lat="45.88010043765571" lon="9.657779959820376"><ele>526.0</ele><time>2026-03-28T12:02:21.92Z</time></trkpt><trkpt lat="45.880045273693014" lon="9.657659575272412"><ele>526.0</ele><time>2026-03-28T12:02:22.92Z</time></trkpt><trkpt lat="45.88000552529904" lon="9.6575505078399"><ele>521.2</ele><time>2026-03-28T12:02:23.92Z</time></trkpt><trkpt lat="45.87996176143478" lon="9.657441009728304"><ele>516.4000000000001</ele><time>2026-03-28T12:02:24.92Z</time></trkpt><trkpt lat="45.87990062223226" lon="9.65736982957274"><ele>511.6</ele><time>2026-03-28T12:02:25.92Z</time></trkpt><trkpt lat="45.879798171283674" lon="9.657361488843678"><ele>506.8</ele><time>2026-03-28T12:02:26.92Z</time></trkpt><trkpt lat="45.87967737869099" lon="9.6573801380296"><ele>502.0</ele><time>2026-03-28T12:02:27.92Z</time></trkpt><trkpt lat="45.87955967385246" lon="9.657391600898016"><ele>502.0</ele><time>2026-03-28T12:02:28.92Z</time></trkpt><trkpt lat="45.87945832360896" lon="9.657308427547967"><ele>502.0</ele><time>2026-03-28T12:02:29.92Z</time></trkpt><trkpt lat="45.87936492292991" lon="9.657183341357037"><ele>502.0</ele><time>2026-03-28T12:02:30.92Z</time></trkpt><trkpt lat="45.879260523635395" lon="9.657093202776782"><ele>502.0</ele><time>2026-03-28T12:02:31.92Z</time></trkpt><trkpt lat="45.87913302993166" lon="9.657031637763518"><ele>500.6666666666667</ele><time>2026-03-28T12:02:32.92Z</time></trkpt><trkpt lat="45.878967603826986" lon="9.657011770961471"><ele>499.33333333333337</ele><time>2026-03-28T12:02:33.92Z</time></trkpt><trkpt lat="45.87878082030883" lon="9.657004066211028"><ele>498.0</ele><time>2026-03-28T12:02:34.92Z</time></trkpt><trkpt lat="45.87857866276633" lon="9.657014023614998"><ele>493.66666666666663</ele><time>2026-03-28T12:02:35.92Z</time></trkpt><trkpt lat="45.87838918080669" lon="9.657006466642102"><ele>489.3333333333333</ele><time>2026-03-28T12:02:36.92Z</time></trkpt><trkpt lat="45.87822251129797" lon="9.656992371601465"><ele>485.0</ele><time>2026-03-28T12:02:37.92Z</time></trkpt><trkpt lat="45.87807008617632" lon="9.656990581101136"><ele>485.0</ele><time>2026-03-28T12:02:38.92Z</time></trkpt><trkpt lat="45.87792103178189" lon="9.656999794936272"><ele>485.0</ele><time>2026-03-28T12:02:39.92Z</time></trkpt><trkpt lat="45.87775841083371" lon="9.657022547690348"><ele>485.0</ele><time>2026-03-28T12:02:40.92Z</time></trkpt><trkpt lat="45.87757373671261" lon="9.65706993602732"><ele>483.0</ele><time>2026-03-28T12:02:41.92Z</time></trkpt><trkpt lat="45.877389478243614" lon="9.657151385385086"><ele>481.0</ele><time>2026-03-28T12:02:42.92Z</time></trkpt><trkpt lat="45.877219218073314" lon="9.657232620847678"><ele>479.0</ele><time>2026-03-28T12:02:43.92Z</time></trkpt><trkpt lat="45.877059886757976" lon="9.657296205354514"><ele>479.0</ele><time>2026-03-28T12:02:44.92Z</time></trkpt><trkpt lat="45.87691852887584" lon="9.657349430744913"><ele>479.0</ele><time>2026-03-28T12:02:45.92Z</time></trkpt><trkpt lat="45.876786697748074" lon="9.657395422822217"><ele>479.0</ele><time>2026-03-28T12:02:46.92Z</time></trkpt><trkpt lat="45.876659256261895" lon="9.657451650712721"><ele>479.0</ele><time>2026-03-28T12:02:47.92Z</time></trkpt><trkpt lat="45.87651918994174" lon="9.657514437898252"><ele>475.66666666666663</ele><time>2026-03-28T12:02:48.92Z</time></trkpt><trkpt lat="45.87634972574392" lon="9.657590012331143"><ele>472.33333333333337</ele><time>2026-03-28T12:02:49.92Z</time></trkpt><trkpt lat="45.87614937609368" lon="9.657684894757956"><ele>469.0</ele><time>2026-03-28T12:02:50.92Z</time></trkpt><trkpt lat="45.87596375646583" lon="9.65775308573991"><ele>470.33333333333337</ele><time>2026-03-28T12:02:51.92Z</time></trkpt><trkpt lat="45.87578825615246" lon="9.657819030945014"><ele>471.66666666666663</ele><time>2026-03-28T12:02:52.92Z</time></trkpt><trkpt lat="45.87562501161721" lon="9.65787072953567"><ele>473.0</ele><time>2026-03-28T12:02:53.92Z</time></trkpt><trkpt lat="45.875480817632265" lon="9.657916589794693"><ele>473.0</ele><time>2026-03-28T12:02:54.92Z</time></trkpt><trkpt lat="45.87535124196991" lon="9.657962261629677"><ele>473.0</ele><time>2026-03-28T12:02:55.92Z</time></trkpt><trkpt lat="45.875232528758886" lon="9.658016600394905"><ele>473.0</ele><time>2026-03-28T12:02:56.92Z</time></trkpt><trkpt lat="45.87513216171296" lon="9.658094242761596"><ele>473.0</ele><time>2026-03-28T12:02:57.92Z</time></trkpt><trkpt lat="45.875067104033626" lon="9.658235312447882"><ele>471.3333333333333</ele><time>2026-03-28T12:02:58.92Z</time></trkpt><trkpt lat="45.8750300021432" lon="9.658381762424655"><ele>469.66666666666663</ele><time>2026-03-28T12:02:59.92Z</time></trkpt><trkpt lat="45.87498309345748" lon="9.658477175585613"><ele>468.0</ele><time>2026-03-28T12:03:00.92Z</time></trkpt><trkpt lat="45.87492009176591" lon="9.658531197850449"><ele>466.33333333333337</ele><time>2026-03-28T12:03:01.92Z</time></trkpt><trkpt lat="45.874847872452975" lon="9.658523905527318"><ele>464.6666666666667</ele><time>2026-03-28T12:03:02.92Z</time></trkpt><trkpt lat="45.87478370021857" lon="9.658430627227935"><ele>463.0</ele><time>2026-03-28T12:03:03.92Z</time></trkpt><trkpt lat="45.87474473697794" lon="9.65829534502085"><ele>463.0</ele><time>2026-03-28T12:03:04.92Z</time></trkpt><trkpt lat="45.874698415519845" lon="9.658155552465855"><ele>462.99999999999994</ele><time>2026-03-28T12:03:05.92Z</time></trkpt><trkpt lat="45.87463265131934" lon="9.658036513531044"><ele>462.99999999999994</ele><time>2026-03-28T12:03:06.92Z</time></trkpt><trkpt lat="45.87453358012908" lon="9.657961395614814"><ele>463.0</ele><time>2026-03-28T12:03:07.92Z</time></trkpt><trkpt lat="45.87441723533694" lon="9.657920377456847"><ele>463.0</ele><time>2026-03-28T12:03:08.92Z</time></trkpt><trkpt lat="45.87432683395862" lon="9.657882782919375"><ele>462.33333333333337</ele><time>2026-03-28T12:03:09.921Z</time></trkpt><trkpt lat="45.87426235936335" lon="9.6578339967522"><ele>461.6666666666667</ele><time>2026-03-28T12:03:10.922Z</time></trkpt><trkpt lat="45.87421518494998" lon="9.657755955357306"><ele>461.0</ele><time>2026-03-28T12:03:11.922Z</time></trkpt><trkpt lat="45.87419919420945" lon="9.657630583361488"><ele>460.33333333333337</ele><time>2026-03-28T12:03:12.923Z</time></trkpt><trkpt lat="45.874228236895206" lon="9.657498253579648"><ele>459.6666666666667</ele><time>2026-03-28T12:03:13.924Z</time></trkpt><trkpt lat="45.874279298805135" lon="9.657351459520749"><ele>459.0</ele><time>2026-03-28T12:03:14.924Z</time></trkpt><trkpt lat="45.87429677549813" lon="9.657230272390542"><ele>456.2</ele><time>2026-03-28T12:03:15.925Z</time></trkpt><trkpt lat="45.87426957578905" lon="9.65711018258875"><ele>453.4</ele><time>2026-03-28T12:03:16.925Z</time></trkpt><trkpt lat="45.87419147013548" lon="9.656992047588902"><ele>450.6</ele><time>2026-03-28T12:03:17.925Z</time></trkpt><trkpt lat="45.87409176525432" lon="9.656905098708666"><ele>447.8</ele><time>2026-03-28T12:03:18.926Z</time></trkpt><trkpt lat="45.8739965900722" lon="9.656853633161543"><ele>445.0</ele><time>2026-03-28T12:03:19.926Z</time></trkpt><trkpt lat="45.873925406798264" lon="9.656836288436057"><ele>445.0</ele><time>2026-03-28T12:03:20.927Z</time></trkpt><trkpt lat="45.87382179218254" lon="9.656948137122267"><ele>445.0</ele><time>2026-03-28T12:03:22.927Z</time></trkpt><trkpt lat="45.87379428717703" lon="9.65709638744237"><ele>445.0</ele><time>2026-03-28T12:03:23.928Z</time></trkpt><trkpt lat="45.87379416643172" lon="9.657233410913529"><ele>445.0</ele><time>2026-03-28T12:03:24.928Z</time></trkpt><trkpt lat="45.87382531157422" lon="9.657365874400845"><ele>445.0</ele><time>2026-03-28T12:03:25.928Z</time></trkpt><trkpt lat="45.873862666894624" lon="9.657474784624045"><ele>445.00000000000006</ele><time>2026-03-28T12:03:26.928Z</time></trkpt><trkpt lat="45.873880893576384" lon="9.657572404629889"><ele>445.0</ele><time>2026-03-28T12:03:27.929Z</time></trkpt><trkpt lat="45.873821027103986" lon="9.657707345514993"><ele>445.0</ele><time>2026-03-28T12:03:29.929Z</time></trkpt><trkpt lat="45.873746758646696" lon="9.657700424885578"><ele>445.0</ele><time>2026-03-28T12:03:30.929Z</time></trkpt><trkpt lat="45.87368604660505" lon="9.657637442968188"><ele>445.00000000000006</ele><time>2026-03-28T12:03:31.929Z</time></trkpt><trkpt lat="45.873651839052044" lon="9.657497955679185"><ele>445.0</ele><time>2026-03-28T12:03:32.93Z</time></trkpt><trkpt lat="45.873637144974865" lon="9.657332156436743"><ele>445.0</ele><time>2026-03-28T12:03:33.93Z</time></trkpt><trkpt lat="45.8736171627719" lon="9.657174454225744"><ele>445.0</ele><time>2026-03-28T12:03:34.93Z</time></trkpt><trkpt lat="45.87358709154227" lon="9.657032047803787"><ele>445.0</ele><time>2026-03-28T12:03:35.93Z</time></trkpt><trkpt lat="45.87354424895641" lon="9.656876769847559"><ele>445.0</ele><time>2026-03-28T12:03:36.93Z</time></trkpt><trkpt lat="45.87350677365867" lon="9.656726869992156"><ele>445.0</ele><time>2026-03-28T12:03:37.93Z</time></trkpt><trkpt lat="45.873479633074915" lon="9.656601554769214"><ele>442.33333333333337</ele><time>2026-03-28T12:03:38.93Z</time></trkpt><trkpt lat="45.87345796379442" lon="9.656492127071562"><ele>439.6666666666667</ele><time>2026-03-28T12:03:39.93Z</time></trkpt><trkpt lat="45.87346062802255" lon="9.656394029115326"><ele>437.0</ele><time>2026-03-28T12:03:40.931Z</time></trkpt><trkpt lat="45.87350351301358" lon="9.656309631442781"><ele>434.33333333333337</ele><time>2026-03-28T12:03:41.931Z</time></trkpt><trkpt lat="45.873569466565364" lon="9.656281598811942"><ele>431.6666666666667</ele><time>2026-03-28T12:03:42.931Z</time></trkpt><trkpt lat="45.87365661443024" lon="9.65631752102372"><ele>429.0</ele><time>2026-03-28T12:03:43.931Z</time></trkpt><trkpt lat="45.87376689849381" lon="9.65638098589024"><ele>429.0</ele><time>2026-03-28T12:03:44.931Z</time></trkpt><trkpt lat="45.87391106303779" lon="9.656418174310803"><ele>429.0</ele><time>2026-03-28T12:03:45.931Z</time></trkpt><trkpt lat="45.87407191148042" lon="9.656385187673006"><ele>429.0</ele><time>2026-03-28T12:03:46.931Z</time></trkpt><trkpt lat="45.87425777766431" lon="9.656296343485515"><ele>429.0</ele><time>2026-03-28T12:03:47.931Z</time></trkpt><trkpt lat="45.874469636494574" lon="9.6561711989261"><ele>429.0</ele><time>2026-03-28T12:03:48.931Z</time></trkpt><trkpt lat="45.87467602242325" lon="9.656073223009033"><ele>429.0</ele><time>2026-03-28T12:03:49.931Z</time></trkpt><trkpt lat="45.874838936034436" lon="9.655991338027885"><ele>427.0</ele><time>2026-03-28T12:03:50.931Z</time></trkpt><trkpt lat="45.87497811751685" lon="9.655919968503179"><ele>425.0</ele><time>2026-03-28T12:03:51.931Z</time></trkpt><trkpt lat="45.875108226647946" lon="9.655859936046733"><ele>423.0</ele><time>2026-03-28T12:03:52.931Z</time></trkpt><trkpt lat="45.87521296763276" lon="9.655801328680786"><ele>421.0</ele><time>2026-03-28T12:03:53.931Z</time></trkpt><trkpt lat="45.87527877005134" lon="9.65574871070263"><ele>421.0</ele><time>2026-03-28T12:03:54.931Z</time></trkpt><trkpt lat="45.87529871431776" lon="9.655627124875611"><ele>421.0</ele><time>2026-03-28T12:03:56.931Z</time></trkpt><trkpt lat="45.87524423579049" lon="9.655522345709048"><ele>421.0</ele><time>2026-03-28T12:03:57.932Z</time></trkpt><trkpt lat="45.87514916215212" lon="9.655515145621893"><ele>421.0</ele><time>2026-03-28T12:03:58.932Z</time></trkpt><trkpt lat="45.87502097492559" lon="9.655579717076531"><ele>421.0</ele><time>2026-03-28T12:03:59.932Z</time></trkpt><trkpt lat="45.87486658455165" lon="9.655666440247876"><ele>418.5</ele><time>2026-03-28T12:04:00.932Z</time></trkpt><trkpt lat="45.87472819048777" lon="9.6557418748426"><ele>416.0</ele><time>2026-03-28T12:04:01.932Z</time></trkpt><trkpt lat="45.874605191468255" lon="9.655777279105164"><ele>413.5</ele><time>2026-03-28T12:04:02.932Z</time></trkpt><trkpt lat="45.87447093843306" lon="9.655797833016072"><ele>411.0</ele><time>2026-03-28T12:04:03.932Z</time></trkpt><trkpt lat="45.8743584813267" lon="9.655805519630814"><ele>409.8</ele><time>2026-03-28T12:04:04.931Z</time></trkpt><trkpt lat="45.87426639990493" lon="9.655822034782174"><ele>408.6</ele><time>2026-03-28T12:04:05.931Z</time></trkpt><trkpt lat="45.874169702086604" lon="9.655816287499702"><ele>407.4</ele><time>2026-03-28T12:04:06.931Z</time></trkpt><trkpt lat="45.87406009704402" lon="9.655775088588008"><ele>406.2</ele><time>2026-03-28T12:04:07.93Z</time></trkpt><trkpt lat="45.87393804230864" lon="9.655723008466998"><ele>405.0</ele><time>2026-03-28T12:04:08.931Z</time></trkpt><trkpt lat="45.873818746746466" lon="9.655603799909814"><ele>405.0</ele><time>2026-03-28T12:04:09.931Z</time></trkpt><trkpt lat="45.87368636048971" lon="9.655467850335539"><ele>405.0</ele><time>2026-03-28T12:04:10.93Z</time></trkpt><trkpt lat="45.87357144527226" lon="9.655309410815418"><ele>405.0</ele><time>2026-03-28T12:04:11.93Z</time></trkpt><trkpt lat="45.87346486524217" lon="9.655151073753126"><ele>403.5</ele><time>2026-03-28T12:04:12.93Z</time></trkpt><trkpt lat="45.87336707814077" lon="9.654996873644652"><ele>402.0</ele><time>2026-03-28T12:04:13.931Z</time></trkpt><trkpt lat="45.873277883389164" lon="9.65486884893801"><ele>400.5</ele><time>2026-03-28T12:04:14.931Z</time></trkpt><trkpt lat="45.8731796431896" lon="9.654786156972522"><ele>399.0</ele><time>2026-03-28T12:04:15.931Z</time></trkpt><trkpt lat="45.87305913142416" lon="9.654760700457457"><ele>399.0</ele><time>2026-03-28T12:04:16.931Z</time></trkpt><trkpt lat="45.87293376054758" lon="9.6547353363831"><ele>399.0</ele><time>2026-03-28T12:04:17.93Z</time></trkpt><trkpt lat="45.87284113113393" lon="9.654701313499292"><ele>399.0</ele><time>2026-03-28T12:04:18.93Z</time></trkpt><trkpt lat="45.8727830873808" lon="9.65461013520272"><ele>399.0</ele><time>2026-03-28T12:04:19.93Z</time></trkpt><trkpt lat="45.87276044064215" lon="9.654481764934811"><ele>399.0</ele><time>2026-03-28T12:04:20.93Z</time></trkpt><trkpt lat="45.872757666695456" lon="9.654324750754412"><ele>396.5</ele><time>2026-03-28T12:04:21.93Z</time></trkpt><trkpt lat="45.87278102677124" lon="9.654148677035067"><ele>394.0</ele><time>2026-03-28T12:04:22.93Z</time></trkpt><trkpt lat="45.87284095380559" lon="9.6539631777165"><ele>391.5</ele><time>2026-03-28T12:04:23.93Z</time></trkpt><trkpt lat="45.872892906797894" lon="9.65377594540844"><ele>389.0</ele><time>2026-03-28T12:04:24.93Z</time></trkpt><trkpt lat="45.872935110083795" lon="9.653595464829639"><ele>388.6</ele><time>2026-03-28T12:04:25.93Z</time></trkpt><trkpt lat="45.872968103925686" lon="9.653446030550763"><ele>388.2</ele><time>2026-03-28T12:04:26.93Z</time></trkpt><trkpt lat="45.87299883497658" lon="9.653310613542661"><ele>387.8</ele><time>2026-03-28T12:04:27.93Z</time></trkpt><trkpt lat="45.873028263816764" lon="9.653193371428532"><ele>387.40000000000003</ele><time>2026-03-28T12:04:28.93Z</time></trkpt><trkpt lat="45.87305126719039" lon="9.653077735749436"><ele>387.0</ele><time>2026-03-28T12:04:29.93Z</time></trkpt><trkpt lat="45.87307519556575" lon="9.65298128251225"><ele>387.0</ele><time>2026-03-28T12:04:30.93Z</time></trkpt><trkpt lat="45.873092007549836" lon="9.652881911395102"><ele>387.0</ele><time>2026-03-28T12:04:32.93Z</time></trkpt><trkpt lat="45.87312125023183" lon="9.652773937953311"><ele>387.0</ele><time>2026-03-28T12:05:06.93Z</time></trkpt><trkpt lat="45.87306968183878" lon="9.652645500580277"><ele>387.0</ele><time>2026-03-28T12:05:08.93Z</time></trkpt><trkpt lat="45.87296780357424" lon="9.652601277211323"><ele>387.0</ele><time>2026-03-28T12:05:09.93Z</time></trkpt><trkpt lat="45.87283439501712" lon="9.652543926288534"><ele>387.75</ele><time>2026-03-28T12:05:10.93Z</time></trkpt><trkpt lat="45.87271111642098" lon="9.652451693332425"><ele>388.5</ele><time>2026-03-28T12:05:11.93Z</time></trkpt><trkpt lat="45.87258522653201" lon="9.652342812914561"><ele>389.25</ele><time>2026-03-28T12:05:12.93Z</time></trkpt><trkpt lat="45.872459865484736" lon="9.652196342006013"><ele>390.0</ele><time>2026-03-28T12:05:13.93Z</time></trkpt><trkpt lat="45.87232942536152" lon="9.652050559394764"><ele>393.0</ele><time>2026-03-28T12:05:14.93Z</time></trkpt><trkpt lat="45.87221270963075" lon="9.651898031477328"><ele>396.0</ele><time>2026-03-28T12:05:15.93Z</time></trkpt><trkpt lat="45.87209849341162" lon="9.651772574382667"><ele>399.0</ele><time>2026-03-28T12:05:16.93Z</time></trkpt><trkpt lat="45.87198185065148" lon="9.65163776064971"><ele>399.0</ele><time>2026-03-28T12:05:17.93Z</time></trkpt><trkpt lat="45.87187066227721" lon="9.651529560367852"><ele>399.0</ele><time>2026-03-28T12:05:18.93Z</time></trkpt><trkpt lat="45.87175947447703" lon="9.651468558213391"><ele>399.0</ele><time>2026-03-28T12:05:19.93Z</time></trkpt><trkpt lat="45.8716342499367" lon="9.65146607798653"><ele>399.0</ele><time>2026-03-28T12:05:20.93Z</time></trkpt><trkpt lat="45.871502805467316" lon="9.651494006856677"><ele>396.0</ele><time>2026-03-28T12:05:21.93Z</time></trkpt><trkpt lat="45.87131857811049" lon="9.651557626078224"><ele>393.0</ele><time>2026-03-28T12:05:22.93Z</time></trkpt><trkpt lat="45.87113286743386" lon="9.651675819094264"><ele>390.0</ele><time>2026-03-28T12:05:23.93Z</time></trkpt><trkpt lat="45.87095379868557" lon="9.651785093195747"><ele>387.3333333333333</ele><time>2026-03-28T12:05:24.93Z</time></trkpt><trkpt lat="45.87078619807086" lon="9.651889133261422"><ele>384.66666666666663</ele><time>2026-03-28T12:05:25.93Z</time></trkpt><trkpt lat="45.87063137315073" lon="9.651984353669542"><ele>382.0</ele><time>2026-03-28T12:05:26.93Z</time></trkpt><trkpt lat="45.87048060044088" lon="9.652075996144525"><ele>382.0</ele><time>2026-03-28T12:05:27.93Z</time></trkpt><trkpt lat="45.87031536710767" lon="9.652176886174999"><ele>382.0</ele><time>2026-03-28T12:05:28.93Z</time></trkpt><trkpt lat="45.87015900248468" lon="9.65228197751931"><ele>382.0</ele><time>2026-03-28T12:05:29.93Z</time></trkpt><trkpt lat="45.86999852883739" lon="9.652418024275198"><ele>383.0</ele><time>2026-03-28T12:05:30.93Z</time></trkpt><trkpt lat="45.86983079407248" lon="9.652529982332517"><ele>384.0</ele><time>2026-03-28T12:05:31.93Z</time></trkpt><trkpt lat="45.86966623535379" lon="9.652632783746318"><ele>385.0</ele><time>2026-03-28T12:05:32.93Z</time></trkpt><trkpt lat="45.86950550411386" lon="9.652725641019616"><ele>384.0</ele><time>2026-03-28T12:05:33.93Z</time></trkpt><trkpt lat="45.869350914293975" lon="9.65280350202552"><ele>383.0</ele><time>2026-03-28T12:05:34.93Z</time></trkpt><trkpt lat="45.86920268283159" lon="9.652886040404823"><ele>382.0</ele><time>2026-03-28T12:05:35.93Z</time></trkpt><trkpt lat="45.869050842313975" lon="9.653016754624154"><ele>382.0</ele><time>2026-03-28T12:05:36.93Z</time></trkpt><trkpt lat="45.86888939863288" lon="9.653201208847449"><ele>382.0</ele><time>2026-03-28T12:05:37.93Z</time></trkpt><trkpt lat="45.868741907554686" lon="9.653382235862622"><ele>382.0</ele><time>2026-03-28T12:05:38.93Z</time></trkpt><trkpt lat="45.86860585217925" lon="9.65355459812211"><ele>381.3333333333333</ele><time>2026-03-28T12:05:39.93Z</time></trkpt><trkpt lat="45.86848413802732" lon="9.65373399108426"><ele>380.6666666666667</ele><time>2026-03-28T12:05:40.93Z</time></trkpt><trkpt lat="45.86838210117445" lon="9.653926609884646"><ele>380.0</ele><time>2026-03-28T12:05:41.93Z</time></trkpt><trkpt lat="45.86830755988354" lon="9.654165967052709"><ele>382.0</ele><time>2026-03-28T12:05:42.93Z</time></trkpt><trkpt lat="45.868243598395495" lon="9.654422688668904"><ele>384.0</ele><time>2026-03-28T12:05:43.93Z</time></trkpt><trkpt lat="45.86818145777289" lon="9.654655134671952"><ele>386.0</ele><time>2026-03-28T12:05:44.93Z</time></trkpt><trkpt lat="45.86811866486385" lon="9.654888537592397"><ele>386.0</ele><time>2026-03-28T12:05:45.93Z</time></trkpt><trkpt lat="45.86807188469623" lon="9.655114736733701"><ele>386.0</ele><time>2026-03-28T12:05:46.93Z</time></trkpt><trkpt lat="45.86803727153463" lon="9.655345263758782"><ele>386.0</ele><time>2026-03-28T12:05:47.93Z</time></trkpt><trkpt lat="45.86800693446799" lon="9.65556090732654"><ele>385.66666666666663</ele><time>2026-03-28T12:05:48.93Z</time></trkpt><trkpt lat="45.867959828086406" lon="9.655784114466721"><ele>385.33333333333337</ele><time>2026-03-28T12:05:49.93Z</time></trkpt><trkpt lat="45.867892230109376" lon="9.655996042763103"><ele>385.0</ele><time>2026-03-28T12:05:50.93Z</time></trkpt><trkpt lat="45.86779789193453" lon="9.656185811914435"><ele>385.0</ele><time>2026-03-28T12:05:51.93Z</time></trkpt><trkpt lat="45.867697752980575" lon="9.656360691778175"><ele>385.0</ele><time>2026-03-28T12:05:52.93Z</time></trkpt><trkpt lat="45.86760303900897" lon="9.656538919584506"><ele>385.0</ele><time>2026-03-28T12:05:53.93Z</time></trkpt><trkpt lat="45.86750222139174" lon="9.656706927012202"><ele>385.0</ele><time>2026-03-28T12:05:54.93Z</time></trkpt><trkpt lat="45.86740457938768" lon="9.656857060892797"><ele>385.0</ele><time>2026-03-28T12:05:55.93Z</time></trkpt><trkpt lat="45.86729621967202" lon="9.657006482251694"><ele>385.0</ele><time>2026-03-28T12:05:56.93Z</time></trkpt><trkpt lat="45.86718384793613" lon="9.657138241260961"><ele>385.0</ele><time>2026-03-28T12:05:57.93Z</time></trkpt><trkpt lat="45.86706815791976" lon="9.65725350643211"><ele>385.0</ele><time>2026-03-28T12:05:58.93Z</time></trkpt><trkpt lat="45.86694411257768" lon="9.657351080240478"><ele>385.0</ele><time>2026-03-28T12:05:59.93Z</time></trkpt><trkpt lat="45.866817561827105" lon="9.657429866237873"><ele>385.0</ele><time>2026-03-28T12:06:00.93Z</time></trkpt><trkpt lat="45.86669836742252" lon="9.657499122399049"><ele>385.0</ele><time>2026-03-28T12:06:01.93Z</time></trkpt><trkpt lat="45.8665770654206" lon="9.657561059839535"><ele>385.25</ele><time>2026-03-28T12:06:02.93Z</time></trkpt><trkpt lat="45.866443489934305" lon="9.657619189719638"><ele>385.5</ele><time>2026-03-28T12:06:03.93Z</time></trkpt><trkpt lat="45.866296883997876" lon="9.65768354035752"><ele>385.75</ele><time>2026-03-28T12:06:04.93Z</time></trkpt><trkpt lat="45.866148912331994" lon="9.657750030267207"><ele>386.0</ele><time>2026-03-28T12:06:05.93Z</time></trkpt><trkpt lat="45.86600161857827" lon="9.657809628522942"><ele>386.25</ele><time>2026-03-28T12:06:06.93Z</time></trkpt><trkpt lat="45.865852828112466" lon="9.657867571345335"><ele>386.5</ele><time>2026-03-28T12:06:07.93Z</time></trkpt><trkpt lat="45.865710130261135" lon="9.657926936411732"><ele>386.75</ele><time>2026-03-28T12:06:08.93Z</time></trkpt><trkpt lat="45.865577879167546" lon="9.657982819994034"><ele>387.0</ele><time>2026-03-28T12:06:09.93Z</time></trkpt><trkpt lat="45.86544820881572" lon="9.658030101751885"><ele>387.0</ele><time>2026-03-28T12:06:10.928Z</time></trkpt><trkpt lat="45.86532229068972" lon="9.658072463919629"><ele>387.0</ele><time>2026-03-28T12:06:11.929Z</time></trkpt><trkpt lat="45.865192538293556" lon="9.658126052710736"><ele>387.0</ele><time>2026-03-28T12:06:12.929Z</time></trkpt><trkpt lat="45.86505944109627" lon="9.658180310349127"><ele>387.0</ele><time>2026-03-28T12:06:13.929Z</time></trkpt><trkpt lat="45.86493873792124" lon="9.658225478597089"><ele>386.5</ele><time>2026-03-28T12:06:14.929Z</time></trkpt><trkpt lat="45.86486176662188" lon="9.658246231832715"><ele>386.0</ele><time>2026-03-28T12:06:15.929Z</time></trkpt><trkpt lat="45.86478198338599" lon="9.658273291381487"><ele>385.5</ele><time>2026-03-28T12:06:16.928Z</time></trkpt><trkpt lat="45.864704010554306" lon="9.658313024444091"><ele>385.0</ele><time>2026-03-28T12:06:17.929Z</time></trkpt><trkpt lat="45.86463023217947" lon="9.658340251766464"><ele>384.5</ele><time>2026-03-28T12:06:18.929Z</time></trkpt><trkpt lat="45.864553894505185" lon="9.658336209253056"><ele>384.0</ele><time>2026-03-28T12:06:20.929Z</time></trkpt><trkpt lat="45.86460026956219" lon="9.6582400011661"><ele>384.0</ele><time>2026-03-28T12:06:24.928Z</time></trkpt><trkpt lat="45.86464265620874" lon="9.658156531490484"><ele>384.0</ele><time>2026-03-28T12:06:25.928Z</time></trkpt><trkpt lat="45.86472102570722" lon="9.658158908014158"><ele>384.0</ele><time>2026-03-28T12:06:27.928Z</time></trkpt><trkpt lat="45.86481786495684" lon="9.65809989610807"><ele>384.0</ele><time>2026-03-28T12:06:56.928Z</time></trkpt><trkpt lat="45.86475841707916" lon="9.658132085844155"><ele>384.0</ele><time>2026-03-28T12:09:42.926Z</time></trkpt><trkpt lat="45.86469805627598" lon="9.658081288012028"><ele>384.0</ele><time>2026-03-28T12:10:03.926Z</time></trkpt><trkpt lat="45.86463498893045" lon="9.658335903103723"><ele>384.0</ele><time>2026-03-28T12:11:03.924Z</time></trkpt><trkpt lat="45.86468043029643" lon="9.658224581504776"><ele>384.0</ele><time>2026-03-28T12:11:15.924Z</time></trkpt><trkpt lat="45.86470829795463" lon="9.65811486225723"><ele>384.0</ele><time>2026-03-28T12:11:19.924Z</time></trkpt><trkpt lat="45.86478099220262" lon="9.65814421180807"><ele>384.0</ele><time>2026-03-28T12:11:51.924Z</time></trkpt><trkpt lat="45.86484634344389" lon="9.658159177700613"><ele>384.0</ele><time>2026-03-28T12:12:49.924Z</time></trkpt><trkpt lat="45.86475541600902" lon="9.658184548422776"><ele>384.0</ele><time>2026-03-28T12:13:19.922Z</time></trkpt><trkpt lat="45.86468970930715" lon="9.658202674322597"><ele>384.0</ele><time>2026-03-28T12:13:20.922Z</time></trkpt><trkpt lat="45.86460579559396" lon="9.658279594357996"><ele>384.0</ele><time>2026-03-28T12:13:22.922Z</time></trkpt><trkpt lat="45.86454375603124" lon="9.658365387784322"><ele>384.0</ele><time>2026-03-28T12:13:24.922Z</time></trkpt><trkpt lat="45.86447918171862" lon="9.658426310908146"><ele>384.0</ele><time>2026-03-28T12:13:25.922Z</time></trkpt><trkpt lat="45.86437333981596" lon="9.658493181921312"><ele>384.0</ele><time>2026-03-28T12:13:26.922Z</time></trkpt><trkpt lat="45.86423062186898" lon="9.658553624206922"><ele>383.25</ele><time>2026-03-28T12:13:27.922Z</time></trkpt><trkpt lat="45.864097081410904" lon="9.658604425378028"><ele>382.5</ele><time>2026-03-28T12:13:28.922Z</time></trkpt><trkpt lat="45.86396646837856" lon="9.658658984282999"><ele>381.75</ele><time>2026-03-28T12:13:29.922Z</time></trkpt><trkpt lat="45.86383713431574" lon="9.658711223155287"><ele>381.0</ele><time>2026-03-28T12:13:30.922Z</time></trkpt><trkpt lat="45.863718830819984" lon="9.658758238204944"><ele>381.0</ele><time>2026-03-28T12:13:31.922Z</time></trkpt><trkpt lat="45.863605890995665" lon="9.658797315801165"><ele>381.0</ele><time>2026-03-28T12:13:32.922Z</time></trkpt><trkpt lat="45.86348433460366" lon="9.658836885769782"><ele>381.0</ele><time>2026-03-28T12:13:33.922Z</time></trkpt><trkpt lat="45.86338869633462" lon="9.658873503343031"><ele>381.0</ele><time>2026-03-28T12:13:34.922Z</time></trkpt><trkpt lat="45.86330678406206" lon="9.658910935046285"><ele>381.0</ele><time>2026-03-28T12:13:35.922Z</time></trkpt><trkpt lat="45.863240073343285" lon="9.658937909876474"><ele>380.6</ele><time>2026-03-28T12:13:36.922Z</time></trkpt><trkpt lat="45.8631731605127" lon="9.65895369783547"><ele>380.20000000000005</ele><time>2026-03-28T12:13:37.922Z</time></trkpt><trkpt lat="45.863057487181266" lon="9.658962885635045"><ele>379.79999999999995</ele><time>2026-03-28T12:13:39.922Z</time></trkpt><trkpt lat="45.862957086188516" lon="9.658964518063842"><ele>379.4</ele><time>2026-03-28T12:13:41.922Z</time></trkpt><trkpt lat="45.86283901252832" lon="9.65895268765345"><ele>379.0</ele><time>2026-03-28T12:13:43.922Z</time></trkpt><trkpt lat="45.86275705060717" lon="9.658932439544458"><ele>379.0</ele><time>2026-03-28T12:13:44.922Z</time></trkpt><trkpt lat="45.86264492080862" lon="9.65889742107289"><ele>379.0</ele><time>2026-03-28T12:13:45.922Z</time></trkpt><trkpt lat="45.86250488528408" lon="9.658858289108862"><ele>379.0</ele><time>2026-03-28T12:13:46.922Z</time></trkpt><trkpt lat="45.862347676293915" lon="9.658779368156818"><ele>379.0</ele><time>2026-03-28T12:13:47.922Z</time></trkpt><trkpt lat="45.8622153541725" lon="9.658645439926755"><ele>385.5</ele><time>2026-03-28T12:13:48.922Z</time></trkpt><trkpt lat="45.862098477930395" lon="9.65852956443427"><ele>392.0</ele><time>2026-03-28T12:13:49.922Z</time></trkpt><trkpt lat="45.86196970408484" lon="9.658465980311483"><ele>398.5</ele><time>2026-03-28T12:13:50.922Z</time></trkpt><trkpt lat="45.86181855486566" lon="9.658463959422724"><ele>405.0</ele><time>2026-03-28T12:13:51.922Z</time></trkpt><trkpt lat="45.8616578875512" lon="9.658520285468772"><ele>398.0</ele><time>2026-03-28T12:13:52.922Z</time></trkpt><trkpt lat="45.86148010833529" lon="9.658642092255771"><ele>391.0</ele><time>2026-03-28T12:13:53.922Z</time></trkpt><trkpt lat="45.861294832046035" lon="9.658764891075183"><ele>384.0</ele><time>2026-03-28T12:13:54.922Z</time></trkpt><trkpt lat="45.86111548158043" lon="9.658862854971417"><ele>386.66666666666663</ele><time>2026-03-28T12:13:55.922Z</time></trkpt><trkpt lat="45.860943785003755" lon="9.65896536368463"><ele>389.3333333333333</ele><time>2026-03-28T12:13:56.922Z</time></trkpt><trkpt lat="45.86076927219034" lon="9.659050375595573"><ele>392.0</ele><time>2026-03-28T12:13:57.922Z</time></trkpt><trkpt lat="45.86059125684979" lon="9.659144457209687"><ele>392.0</ele><time>2026-03-28T12:13:58.922Z</time></trkpt><trkpt lat="45.86041975659902" lon="9.659242293227592"><ele>392.0</ele><time>2026-03-28T12:13:59.922Z</time></trkpt><trkpt lat="45.86023878582447" lon="9.659349291567302"><ele>392.0</ele><time>2026-03-28T12:14:00.922Z</time></trkpt><trkpt lat="45.860060079582624" lon="9.659465226263206"><ele>397.0</ele><time>2026-03-28T12:14:01.922Z</time></trkpt><trkpt lat="45.8598782620073" lon="9.659581993942862"><ele>402.0</ele><time>2026-03-28T12:14:02.922Z</time></trkpt><trkpt lat="45.8596863678415" lon="9.65970065684994"><ele>407.0</ele><time>2026-03-28T12:14:03.922Z</time></trkpt><trkpt lat="45.859479749307766" lon="9.659827115218773"><ele>407.0</ele><time>2026-03-28T12:14:04.922Z</time></trkpt><trkpt lat="45.85929277076516" lon="9.659947762834229"><ele>407.0</ele><time>2026-03-28T12:14:05.922Z</time></trkpt><trkpt lat="45.85909105156909" lon="9.660072110102321"><ele>407.0</ele><time>2026-03-28T12:14:07.065Z</time></trkpt><trkpt lat="45.85891924805659" lon="9.660174310607502"><ele>398.5</ele><time>2026-03-28T12:14:08.065Z</time></trkpt><trkpt lat="45.85874559300883" lon="9.66028714348906"><ele>390.0</ele><time>2026-03-28T12:14:09.064Z</time></trkpt><trkpt lat="45.85824011750961" lon="9.660426984635404"><ele>384.0</ele><time>2026-03-28T12:14:10.922Z</time></trkpt><trkpt lat="45.8580051419383" lon="9.660494975648367"><ele>378.0</ele><time>2026-03-28T12:14:11.922Z</time></trkpt><trkpt lat="45.8577849557611" lon="9.660596508792057"><ele>385.0</ele><time>2026-03-28T12:14:12.922Z</time></trkpt><trkpt lat="45.85757679213895" lon="9.66070846124663"><ele>392.0</ele><time>2026-03-28T12:14:13.922Z</time></trkpt><trkpt lat="45.85738524906978" lon="9.660761622969686"><ele>399.0</ele><time>2026-03-28T12:14:14.922Z</time></trkpt><trkpt lat="45.85719577315028" lon="9.660837889533267"><ele>399.0</ele><time>2026-03-28T12:14:15.922Z</time></trkpt><trkpt lat="45.85701304550927" lon="9.66090982950686"><ele>399.0</ele><time>2026-03-28T12:14:16.922Z</time></trkpt><trkpt lat="45.856830264356816" lon="9.660994984816572"><ele>399.0</ele><time>2026-03-28T12:14:17.922Z</time></trkpt><trkpt lat="45.85664538452662" lon="9.661077976040618"><ele>402.0</ele><time>2026-03-28T12:14:18.922Z</time></trkpt><trkpt lat="45.856459651722155" lon="9.661161648526784"><ele>405.0</ele><time>2026-03-28T12:14:19.922Z</time></trkpt><trkpt lat="45.856275172543555" lon="9.661256401067966"><ele>408.0</ele><time>2026-03-28T12:14:20.922Z</time></trkpt><trkpt lat="45.85606487914971" lon="9.661364675775044"><ele>385.0</ele><time>2026-03-28T12:14:22.064Z</time></trkpt><trkpt lat="45.85542785213767" lon="9.66200372777617"><ele>385.0</ele><time>2026-03-28T12:14:25.922Z</time></trkpt><trkpt lat="45.85521857938518" lon="9.6622975775913"><ele>385.0</ele><time>2026-03-28T12:14:26.922Z</time></trkpt><trkpt lat="45.85508295315794" lon="9.662432065228511"><ele>384.33333333333337</ele><time>2026-03-28T12:14:27.922Z</time></trkpt><trkpt lat="45.85489772992475" lon="9.66256296756167"><ele>383.6666666666667</ele><time>2026-03-28T12:14:28.922Z</time></trkpt><trkpt lat="45.8546813470688" lon="9.662701921490418"><ele>383.0</ele><time>2026-03-28T12:14:29.922Z</time></trkpt><trkpt lat="45.854478049403895" lon="9.662845305192766"><ele>376.0</ele><time>2026-03-28T12:14:30.922Z</time></trkpt><trkpt lat="45.85427810300026" lon="9.662996792511077"><ele>369.0</ele><time>2026-03-28T12:14:31.922Z</time></trkpt><trkpt lat="45.85408539636509" lon="9.663165380368158"><ele>369.0</ele><time>2026-03-28T12:14:32.922Z</time></trkpt><trkpt lat="45.85391448242555" lon="9.663360726641724"><ele>369.0</ele><time>2026-03-28T12:14:33.922Z</time></trkpt><trkpt lat="45.85374536457964" lon="9.663549183023193"><ele>369.0</ele><time>2026-03-28T12:14:34.922Z</time></trkpt><trkpt lat="45.85358416304491" lon="9.663728693151533"><ele>370.3333333333333</ele><time>2026-03-28T12:14:35.922Z</time></trkpt><trkpt lat="45.853414445471216" lon="9.663902809524854"><ele>371.66666666666663</ele><time>2026-03-28T12:14:36.922Z</time></trkpt><trkpt lat="45.853237088755264" lon="9.664095472851914"><ele>373.0</ele><time>2026-03-28T12:14:37.922Z</time></trkpt><trkpt lat="45.853057298473026" lon="9.664291845473844"><ele>382.0</ele><time>2026-03-28T12:14:38.922Z</time></trkpt><trkpt lat="45.852864995420745" lon="9.66449050144115"><ele>391.0</ele><time>2026-03-28T12:14:39.922Z</time></trkpt><trkpt lat="45.852669096623" lon="9.664675362691089"><ele>386.5</ele><time>2026-03-28T12:14:40.922Z</time></trkpt><trkpt lat="45.852465603965776" lon="9.664837107095257"><ele>382.0</ele><time>2026-03-28T12:14:41.922Z</time></trkpt><trkpt lat="45.85226648981938" lon="9.664997131644798"><ele>382.0</ele><time>2026-03-28T12:14:42.922Z</time></trkpt><trkpt lat="45.852061257577176" lon="9.665161048673156"><ele>382.0</ele><time>2026-03-28T12:14:43.922Z</time></trkpt><trkpt lat="45.85186119646923" lon="9.66532358091521"><ele>386.5</ele><time>2026-03-28T12:14:44.922Z</time></trkpt><trkpt lat="45.85165523633794" lon="9.66548032401479"><ele>391.0</ele><time>2026-03-28T12:14:45.922Z</time></trkpt><trkpt lat="45.85144707792665" lon="9.665629587525597"><ele>391.0</ele><time>2026-03-28T12:14:46.922Z</time></trkpt><trkpt lat="45.85121329904077" lon="9.66579680977254"><ele>391.0</ele><time>2026-03-28T12:14:48.064Z</time></trkpt><trkpt lat="45.851010273767294" lon="9.66595864462075"><ele>388.0</ele><time>2026-03-28T12:14:49.064Z</time></trkpt><trkpt lat="45.85079997648572" lon="9.66609807210874"><ele>385.0</ele><time>2026-03-28T12:14:50.064Z</time></trkpt><trkpt lat="45.85060949748938" lon="9.6662433607509"><ele>382.0</ele><time>2026-03-28T12:14:51.063Z</time></trkpt><trkpt lat="45.850463341278434" lon="9.666368851055491"><ele>381.0</ele><time>2026-03-28T12:14:51.922Z</time></trkpt><trkpt lat="45.850320441577274" lon="9.666530632051334"><ele>380.0</ele><time>2026-03-28T12:14:52.922Z</time></trkpt><trkpt lat="45.85012472501939" lon="9.666676111047362"><ele>379.0</ele><time>2026-03-28T12:14:53.922Z</time></trkpt><trkpt lat="45.84994964040815" lon="9.666827682014743"><ele>386.0</ele><time>2026-03-28T12:14:54.922Z</time></trkpt><trkpt lat="45.849781854406636" lon="9.6670205061544"><ele>393.0</ele><time>2026-03-28T12:14:55.922Z</time></trkpt><trkpt lat="45.8496139429418" lon="9.667232428627386"><ele>400.0</ele><time>2026-03-28T12:14:56.922Z</time></trkpt><trkpt lat="45.849442617978376" lon="9.667450756230332"><ele>396.0</ele><time>2026-03-28T12:14:57.922Z</time></trkpt><trkpt lat="45.849259129958554" lon="9.667668713291835"><ele>392.0</ele><time>2026-03-28T12:14:58.922Z</time></trkpt><trkpt lat="45.84907702664887" lon="9.667884451835592"><ele>392.0</ele><time>2026-03-28T12:14:59.922Z</time></trkpt><trkpt lat="45.84889337868686" lon="9.668090858590059"><ele>392.0</ele><time>2026-03-28T12:15:00.922Z</time></trkpt><trkpt lat="45.848708938865556" lon="9.668288425998954"><ele>392.0</ele><time>2026-03-28T12:15:01.922Z</time></trkpt><trkpt lat="45.848518614652" lon="9.668478951026172"><ele>392.0</ele><time>2026-03-28T12:15:02.922Z</time></trkpt><trkpt lat="45.8483233989187" lon="9.66866844748913"><ele>398.0</ele><time>2026-03-28T12:15:03.922Z</time></trkpt><trkpt lat="45.848130245885464" lon="9.668852979615439"><ele>404.0</ele><time>2026-03-28T12:15:04.922Z</time></trkpt><trkpt lat="45.847933321325044" lon="9.669029952469211"><ele>404.0</ele><time>2026-03-28T12:15:05.922Z</time></trkpt><trkpt lat="45.84773970713212" lon="9.6691929988113"><ele>404.0</ele><time>2026-03-28T12:15:06.922Z</time></trkpt><trkpt lat="45.847548382867664" lon="9.669357401172325"><ele>404.0</ele><time>2026-03-28T12:15:07.922Z</time></trkpt><trkpt lat="45.847345030070684" lon="9.669517603926224"><ele>418.3333333333333</ele><time>2026-03-28T12:15:08.922Z</time></trkpt><trkpt lat="45.847152169011636" lon="9.669685231130313"><ele>432.66666666666663</ele><time>2026-03-28T12:15:09.921Z</time></trkpt><trkpt lat="45.846964339337475" lon="9.669846780341052"><ele>447.0</ele><time>2026-03-28T12:15:10.92Z</time></trkpt><trkpt lat="45.846777181806814" lon="9.670012085903133"><ele>457.5</ele><time>2026-03-28T12:15:11.92Z</time></trkpt><trkpt lat="45.84658469731842" lon="9.670175719647442"><ele>468.0</ele><time>2026-03-28T12:15:12.921Z</time></trkpt><trkpt lat="45.846374295455846" lon="9.670335121977304"><ele>496.0</ele><time>2026-03-28T12:15:13.921Z</time></trkpt><trkpt lat="45.84614104239583" lon="9.670528275679887"><ele>524.0</ele><time>2026-03-28T12:15:15.064Z</time></trkpt><trkpt lat="45.84594098639885" lon="9.670684368093182"><ele>524.0</ele><time>2026-03-28T12:15:16.061Z</time></trkpt><trkpt lat="45.84575173735215" lon="9.670848081952167"><ele>524.0</ele><time>2026-03-28T12:15:17.064Z</time></trkpt><trkpt lat="45.845553221779404" lon="9.671018777841105"><ele>528.5</ele><time>2026-03-28T12:15:18.063Z</time></trkpt><trkpt lat="45.845354706097154" lon="9.671186550703785"><ele>533.0</ele><time>2026-03-28T12:15:19.061Z</time></trkpt><trkpt lat="45.84243951272446" lon="9.672392889052402"><ele>415.0</ele><time>2026-03-28T12:15:30.921Z</time></trkpt><trkpt lat="45.84191274658176" lon="9.672505874010188"><ele>433.5</ele><time>2026-03-28T12:15:31.921Z</time></trkpt><trkpt lat="45.841660634159865" lon="9.672597730031736"><ele>452.0</ele><time>2026-03-28T12:15:32.921Z</time></trkpt><trkpt lat="45.84141273840578" lon="9.672697815879216"><ele>457.5</ele><time>2026-03-28T12:15:33.921Z</time></trkpt><trkpt lat="45.84115522844978" lon="9.672791498147394"><ele>463.0</ele><time>2026-03-28T12:15:34.921Z</time></trkpt><trkpt lat="45.84088269337596" lon="9.672882933142267"><ele>489.5</ele><time>2026-03-28T12:15:35.921Z</time></trkpt><trkpt lat="45.840591520521656" lon="9.672990172118311"><ele>516.0</ele><time>2026-03-28T12:15:37.063Z</time></trkpt><trkpt lat="45.84034396415938" lon="9.673085127235163"><ele>352.0</ele><time>2026-03-28T12:15:38.063Z</time></trkpt><trkpt lat="45.826328685700084" lon="9.674123203312819"><ele>352.0</ele><time>2026-03-28T12:16:34.921Z</time></trkpt><trkpt lat="45.825980351185905" lon="9.67422579509026"><ele>352.0</ele><time>2026-03-28T12:16:35.921Z</time></trkpt><trkpt lat="45.825781849008195" lon="9.67417918843687"><ele>349.3333333333333</ele><time>2026-03-28T12:16:36.921Z</time></trkpt><trkpt lat="45.825598941273505" lon="9.674147203936514"><ele>346.6666666666667</ele><time>2026-03-28T12:16:37.921Z</time></trkpt><trkpt lat="45.82542970129763" lon="9.674119191041099"><ele>344.0</ele><time>2026-03-28T12:16:38.921Z</time></trkpt><trkpt lat="45.82526885123316" lon="9.674098564302165"><ele>342.0</ele><time>2026-03-28T12:16:39.921Z</time></trkpt><trkpt lat="45.82510036532342" lon="9.674063303913341"><ele>340.0</ele><time>2026-03-28T12:16:40.921Z</time></trkpt><trkpt lat="45.824931555907796" lon="9.674025943097439"><ele>338.0</ele><time>2026-03-28T12:16:41.921Z</time></trkpt><trkpt lat="45.82476626288106" lon="9.67399328080758"><ele>338.0</ele><time>2026-03-28T12:16:42.921Z</time></trkpt><trkpt lat="45.824609830054555" lon="9.673967353694428"><ele>338.0</ele><time>2026-03-28T12:16:43.921Z</time></trkpt><trkpt lat="45.824456484770295" lon="9.673942397586924"><ele>338.0</ele><time>2026-03-28T12:16:44.921Z</time></trkpt><trkpt lat="45.82433989426385" lon="9.673922486029898"><ele>338.0</ele><time>2026-03-28T12:16:45.921Z</time></trkpt><trkpt lat="45.82425825670036" lon="9.673911844558061"><ele>338.14285714285717</ele><time>2026-03-28T12:16:46.921Z</time></trkpt><trkpt lat="45.82418710923931" lon="9.67390393126611"><ele>338.2857142857143</ele><time>2026-03-28T12:16:47.92Z</time></trkpt><trkpt lat="45.824110965494384" lon="9.67389037305182"><ele>338.42857142857144</ele><time>2026-03-28T12:16:48.92Z</time></trkpt><trkpt lat="45.824037602523894" lon="9.673878426952248"><ele>338.57142857142856</ele><time>2026-03-28T12:16:49.92Z</time></trkpt><trkpt lat="45.82397066651514" lon="9.673866668895574"><ele>338.7142857142857</ele><time>2026-03-28T12:16:50.92Z</time></trkpt><trkpt lat="45.823906241943504" lon="9.673855369675069"><ele>338.85714285714283</ele><time>2026-03-28T12:16:51.92Z</time></trkpt><trkpt lat="45.82381917950002" lon="9.673834164479125"><ele>339.0</ele><time>2026-03-28T12:16:53.92Z</time></trkpt><trkpt lat="45.8237141501165" lon="9.673785473594208"><ele>339.0</ele><time>2026-03-28T12:16:56.92Z</time></trkpt><trkpt lat="45.82364877776567" lon="9.673727151899026"><ele>339.0</ele><time>2026-03-28T12:16:57.92Z</time></trkpt><trkpt lat="45.823573313330826" lon="9.673687650870892"><ele>339.0</ele><time>2026-03-28T12:16:58.92Z</time></trkpt><trkpt lat="45.82348575610045" lon="9.673690137917253"><ele>339.0</ele><time>2026-03-28T12:16:59.92Z</time></trkpt><trkpt lat="45.823369835722325" lon="9.673713871029737"><ele>339.0</ele><time>2026-03-28T12:17:00.92Z</time></trkpt><trkpt lat="45.82323288643314" lon="9.673710227247875"><ele>338.75</ele><time>2026-03-28T12:17:01.92Z</time></trkpt><trkpt lat="45.82312566359186" lon="9.673695656142835"><ele>338.5</ele><time>2026-03-28T12:17:02.92Z</time></trkpt><trkpt lat="45.82299913436068" lon="9.67368667396633"><ele>338.25</ele><time>2026-03-28T12:17:03.92Z</time></trkpt><trkpt lat="45.82285086851666" lon="9.67367438596002"><ele>338.0</ele><time>2026-03-28T12:17:04.92Z</time></trkpt><trkpt lat="45.82270998347837" lon="9.6736685517906"><ele>339.25</ele><time>2026-03-28T12:17:05.92Z</time></trkpt><trkpt lat="45.82257790748321" lon="9.673664185847398"><ele>340.5</ele><time>2026-03-28T12:17:06.92Z</time></trkpt><trkpt lat="45.8224333773887" lon="9.67366594251062"><ele>341.75</ele><time>2026-03-28T12:17:07.92Z</time></trkpt><trkpt lat="45.8222833390087" lon="9.67366085902744"><ele>343.0</ele><time>2026-03-28T12:17:08.92Z</time></trkpt><trkpt lat="45.822141694457244" lon="9.673650324926445"><ele>343.0</ele><time>2026-03-28T12:17:09.92Z</time></trkpt><trkpt lat="45.82199635712464" lon="9.673640995499403"><ele>343.0</ele><time>2026-03-28T12:17:10.92Z</time></trkpt><trkpt lat="45.82185197906558" lon="9.673633802925593"><ele>343.0</ele><time>2026-03-28T12:17:11.92Z</time></trkpt><trkpt lat="45.821712709002256" lon="9.6736247675023"><ele>343.0</ele><time>2026-03-28T12:17:12.92Z</time></trkpt><trkpt lat="45.82157768795532" lon="9.673617713747644"><ele>343.25</ele><time>2026-03-28T12:17:13.92Z</time></trkpt><trkpt lat="45.821450108311396" lon="9.673609758011844"><ele>343.5</ele><time>2026-03-28T12:17:14.92Z</time></trkpt><trkpt lat="45.82131199894378" lon="9.673604789382914"><ele>343.75</ele><time>2026-03-28T12:17:15.919Z</time></trkpt><trkpt lat="45.82115299389158" lon="9.673602343484491"><ele>344.0</ele><time>2026-03-28T12:17:16.919Z</time></trkpt><trkpt lat="45.82098253491394" lon="9.673599140337478"><ele>344.33333333333337</ele><time>2026-03-28T12:17:17.918Z</time></trkpt><trkpt lat="45.82080653142243" lon="9.67358778841633"><ele>344.6666666666667</ele><time>2026-03-28T12:17:18.919Z</time></trkpt><trkpt lat="45.820622241159306" lon="9.67357702383269"><ele>345.0</ele><time>2026-03-28T12:17:19.919Z</time></trkpt><trkpt lat="45.82043589599263" lon="9.67356529157489"><ele>345.0</ele><time>2026-03-28T12:17:20.919Z</time></trkpt><trkpt lat="45.820267252155716" lon="9.67355654913759"><ele>345.0</ele><time>2026-03-28T12:17:21.919Z</time></trkpt><trkpt lat="45.82012246442675" lon="9.673548555707407"><ele>345.0</ele><time>2026-03-28T12:17:22.919Z</time></trkpt><trkpt lat="45.8199891848904" lon="9.67353929901031"><ele>345.0</ele><time>2026-03-28T12:17:23.919Z</time></trkpt><trkpt lat="45.819856710085496" lon="9.673535840350493"><ele>345.25</ele><time>2026-03-28T12:17:24.919Z</time></trkpt><trkpt lat="45.819724601931334" lon="9.673529670701138"><ele>345.5</ele><time>2026-03-28T12:17:25.918Z</time></trkpt><trkpt lat="45.81958931338468" lon="9.673523200363489"><ele>345.75</ele><time>2026-03-28T12:17:26.918Z</time></trkpt><trkpt lat="45.81944777008994" lon="9.67351647749973"><ele>346.0</ele><time>2026-03-28T12:17:27.919Z</time></trkpt><trkpt lat="45.819297677493495" lon="9.67349452935344"><ele>346.0</ele><time>2026-03-28T12:17:28.918Z</time></trkpt><trkpt lat="45.819143000858446" lon="9.67344916092747"><ele>346.0</ele><time>2026-03-28T12:17:29.918Z</time></trkpt><trkpt lat="45.818973956247106" lon="9.673378068594245"><ele>346.0</ele><time>2026-03-28T12:17:30.918Z</time></trkpt><trkpt lat="45.81879482129115" lon="9.673299553786022"><ele>346.0</ele><time>2026-03-28T12:17:31.918Z</time></trkpt><trkpt lat="45.81860131489128" lon="9.673201880113169"><ele>346.0</ele><time>2026-03-28T12:17:32.918Z</time></trkpt><trkpt lat="45.81838699032174" lon="9.673093977431469"><ele>346.0</ele><time>2026-03-28T12:17:33.918Z</time></trkpt><trkpt lat="45.81819338551965" lon="9.673000604919263"><ele>343.66666666666663</ele><time>2026-03-28T12:17:34.918Z</time></trkpt><trkpt lat="45.81801321372626" lon="9.672946493461028"><ele>341.3333333333333</ele><time>2026-03-28T12:17:35.918Z</time></trkpt><trkpt lat="45.81783903491191" lon="9.672920262218843"><ele>339.0</ele><time>2026-03-28T12:17:36.918Z</time></trkpt><trkpt lat="45.81767522501856" lon="9.6729081219015"><ele>338.0</ele><time>2026-03-28T12:17:37.918Z</time></trkpt><trkpt lat="45.81752288516378" lon="9.672916870178407"><ele>337.0</ele><time>2026-03-28T12:17:38.918Z</time></trkpt><trkpt lat="45.81737662793705" lon="9.672940903928682"><ele>336.0</ele><time>2026-03-28T12:17:39.918Z</time></trkpt><trkpt lat="45.8172365303125" lon="9.67296616671232"><ele>335.0</ele><time>2026-03-28T12:17:40.918Z</time></trkpt><trkpt lat="45.81709026744065" lon="9.672971887736628"><ele>335.0</ele><time>2026-03-28T12:17:41.918Z</time></trkpt><trkpt lat="45.81694123769689" lon="9.672973361242402"><ele>335.0</ele><time>2026-03-28T12:17:42.918Z</time></trkpt><trkpt lat="45.81679150426129" lon="9.672973577165594"><ele>335.0</ele><time>2026-03-28T12:17:43.918Z</time></trkpt><trkpt lat="45.81664341691876" lon="9.672976440561857"><ele>335.0</ele><time>2026-03-28T12:17:44.918Z</time></trkpt><trkpt lat="45.816504785110574" lon="9.672978396871656"><ele>334.6666666666667</ele><time>2026-03-28T12:17:45.918Z</time></trkpt><trkpt lat="45.816346488487625" lon="9.672967078140713"><ele>334.3333333333333</ele><time>2026-03-28T12:17:46.918Z</time></trkpt><trkpt lat="45.8161795708039" lon="9.672925803795593"><ele>334.0</ele><time>2026-03-28T12:17:47.918Z</time></trkpt><trkpt lat="45.81604588908112" lon="9.673046873612444"><ele>334.0</ele><time>2026-03-28T12:17:49.061Z</time></trkpt><trkpt lat="45.81574592789768" lon="9.672900668518258"><ele>334.0</ele><time>2026-03-28T12:17:51.918Z</time></trkpt><trkpt lat="45.81557490351096" lon="9.672886836628233"><ele>334.0</ele><time>2026-03-28T12:17:52.918Z</time></trkpt><trkpt lat="45.81546760049314" lon="9.672901608037701"><ele>334.0</ele><time>2026-03-28T12:17:53.918Z</time></trkpt><trkpt lat="45.815346150308805" lon="9.672898829085762"><ele>334.0</ele><time>2026-03-28T12:17:54.918Z</time></trkpt><trkpt lat="45.81522831545239" lon="9.672977739542171"><ele>334.0</ele><time>2026-03-28T12:17:55.918Z</time></trkpt><trkpt lat="45.815122869050995" lon="9.673058733728586"><ele>335.25</ele><time>2026-03-28T12:17:56.918Z</time></trkpt><trkpt lat="45.81500446827979" lon="9.673149678311962"><ele>336.5</ele><time>2026-03-28T12:17:57.918Z</time></trkpt><trkpt lat="45.81487955303558" lon="9.67324555821933"><ele>337.75</ele><time>2026-03-28T12:17:58.918Z</time></trkpt><trkpt lat="45.814752449304216" lon="9.673341490171133"><ele>339.0</ele><time>2026-03-28T12:17:59.918Z</time></trkpt><trkpt lat="45.814624941721554" lon="9.673437726939037"><ele>339.0</ele><time>2026-03-28T12:18:00.918Z</time></trkpt><trkpt lat="45.81448806652981" lon="9.673541033941907"><ele>339.0</ele><time>2026-03-28T12:18:01.918Z</time></trkpt><trkpt lat="45.814344410681166" lon="9.673649738026223"><ele>339.0</ele><time>2026-03-28T12:18:02.918Z</time></trkpt><trkpt lat="45.814208122496915" lon="9.673769012625153"><ele>337.0</ele><time>2026-03-28T12:18:03.918Z</time></trkpt><trkpt lat="45.81404446613243" lon="9.673856843335942"><ele>335.0</ele><time>2026-03-28T12:18:04.918Z</time></trkpt><trkpt lat="45.81387863214489" lon="9.673920413801024"><ele>333.0</ele><time>2026-03-28T12:18:05.918Z</time></trkpt><trkpt lat="45.81370975181178" lon="9.673968520200413"><ele>333.0</ele><time>2026-03-28T12:18:06.918Z</time></trkpt><trkpt lat="45.813549954273164" lon="9.674009339289844"><ele>333.0</ele><time>2026-03-28T12:18:07.918Z</time></trkpt><trkpt lat="45.81338891763537" lon="9.674051249982151"><ele>333.0</ele><time>2026-03-28T12:18:08.918Z</time></trkpt><trkpt lat="45.81323348062098" lon="9.674076484007943"><ele>335.75</ele><time>2026-03-28T12:18:09.918Z</time></trkpt><trkpt lat="45.81309204090567" lon="9.674116998193018"><ele>338.5</ele><time>2026-03-28T12:18:10.918Z</time></trkpt><trkpt lat="45.81297093856628" lon="9.67418282555294"><ele>341.25</ele><time>2026-03-28T12:18:11.918Z</time></trkpt><trkpt lat="45.81286665242867" lon="9.674242853451263"><ele>344.0</ele><time>2026-03-28T12:18:12.918Z</time></trkpt><trkpt lat="45.81279933540517" lon="9.674279019419314"><ele>344.0</ele><time>2026-03-28T12:18:13.918Z</time></trkpt><trkpt lat="45.812711774802246" lon="9.674324119378449"><ele>344.0</ele><time>2026-03-28T12:18:15.918Z</time></trkpt><trkpt lat="45.81262926724828" lon="9.674330720878526"><ele>344.0</ele><time>2026-03-28T12:18:17.918Z</time></trkpt><trkpt lat="45.812574806428415" lon="9.674282247988367"><ele>344.0</ele><time>2026-03-28T12:18:18.918Z</time></trkpt><trkpt lat="45.81251086604877" lon="9.674236174851794"><ele>344.0</ele><time>2026-03-28T12:18:19.918Z</time></trkpt><trkpt lat="45.81242406442408" lon="9.674225027036712"><ele>344.0</ele><time>2026-03-28T12:18:20.918Z</time></trkpt><trkpt lat="45.812347243303684" lon="9.674256614631938"><ele>344.4</ele><time>2026-03-28T12:18:21.918Z</time></trkpt><trkpt lat="45.81227209028779" lon="9.674345518057825"><ele>344.79999999999995</ele><time>2026-03-28T12:18:22.918Z</time></trkpt><trkpt lat="45.81218267016847" lon="9.674437508637595"><ele>345.20000000000005</ele><time>2026-03-28T12:18:23.918Z</time></trkpt><trkpt lat="45.8120824255243" lon="9.674491236830223"><ele>345.6</ele><time>2026-03-28T12:18:24.918Z</time></trkpt><trkpt lat="45.811955259158296" lon="9.674529834197328"><ele>346.0</ele><time>2026-03-28T12:18:25.918Z</time></trkpt><trkpt lat="45.81177380710005" lon="9.674512664636644"><ele>346.0</ele><time>2026-03-28T12:18:26.918Z</time></trkpt><trkpt lat="45.81157378480152" lon="9.674581517786208"><ele>346.0</ele><time>2026-03-28T12:18:27.918Z</time></trkpt><trkpt lat="45.81138094620213" lon="9.674669919832512"><ele>346.0</ele><time>2026-03-28T12:18:28.918Z</time></trkpt><trkpt lat="45.811188185111725" lon="9.67477007530734"><ele>346.0</ele><time>2026-03-28T12:18:29.918Z</time></trkpt><trkpt lat="45.81100609058309" lon="9.674878529898209"><ele>346.0</ele><time>2026-03-28T12:18:30.918Z</time></trkpt><trkpt lat="45.81083017480537" lon="9.674998289713576"><ele>346.0</ele><time>2026-03-28T12:18:31.918Z</time></trkpt><trkpt lat="45.810646266717754" lon="9.675146115829149"><ele>345.0</ele><time>2026-03-28T12:18:32.918Z</time></trkpt><trkpt lat="45.810491121287974" lon="9.675288668093613"><ele>344.0</ele><time>2026-03-28T12:18:33.918Z</time></trkpt><trkpt lat="45.81035259551891" lon="9.675427895329033"><ele>343.0</ele><time>2026-03-28T12:18:34.918Z</time></trkpt><trkpt lat="45.81022544357167" lon="9.675561152877922"><ele>351.3333333333333</ele><time>2026-03-28T12:18:35.918Z</time></trkpt><trkpt lat="45.810075847568754" lon="9.675719538824442"><ele>359.6666666666667</ele><time>2026-03-28T12:18:36.918Z</time></trkpt><trkpt lat="45.809908914979374" lon="9.675897906114338"><ele>368.0</ele><time>2026-03-28T12:18:37.918Z</time></trkpt><trkpt lat="45.809744920805905" lon="9.676086431362256"><ele>361.0</ele><time>2026-03-28T12:18:38.918Z</time></trkpt><trkpt lat="45.80959876888793" lon="9.676261978133493"><ele>354.0</ele><time>2026-03-28T12:18:39.918Z</time></trkpt><trkpt lat="45.809469504635835" lon="9.676412319648785"><ele>347.0</ele><time>2026-03-28T12:18:40.918Z</time></trkpt><trkpt lat="45.80934923023545" lon="9.676532513574386"><ele>356.33333333333337</ele><time>2026-03-28T12:18:41.918Z</time></trkpt><trkpt lat="45.80921420060337" lon="9.676642090048196"><ele>365.6666666666667</ele><time>2026-03-28T12:18:42.918Z</time></trkpt><trkpt lat="45.80904900294517" lon="9.676746888337043"><ele>375.0</ele><time>2026-03-28T12:18:43.918Z</time></trkpt><trkpt lat="45.808870590212614" lon="9.676824997912883"><ele>375.0</ele><time>2026-03-28T12:18:44.918Z</time></trkpt><trkpt lat="45.8086769833896" lon="9.676873050800886"><ele>375.0</ele><time>2026-03-28T12:18:45.918Z</time></trkpt><trkpt lat="45.80847336920511" lon="9.67691412509357"><ele>375.0</ele><time>2026-03-28T12:18:46.918Z</time></trkpt><trkpt lat="45.808263185003305" lon="9.6768895013479"><ele>375.6666666666667</ele><time>2026-03-28T12:18:47.917Z</time></trkpt><trkpt lat="45.80805606501447" lon="9.67682856722143"><ele>376.33333333333337</ele><time>2026-03-28T12:18:48.915Z</time></trkpt><trkpt lat="45.80786012694524" lon="9.676695957878371"><ele>377.0</ele><time>2026-03-28T12:18:49.913Z</time></trkpt><trkpt lat="45.807658889949536" lon="9.676548178735697"><ele>377.0</ele><time>2026-03-28T12:18:50.91Z</time></trkpt><trkpt lat="45.807458758680625" lon="9.676356497592042"><ele>377.0</ele><time>2026-03-28T12:18:51.908Z</time></trkpt><trkpt lat="45.80729006249456" lon="9.676125720572758"><ele>392.0</ele><time>2026-03-28T12:18:52.906Z</time></trkpt><trkpt lat="45.807146880435816" lon="9.675869196261228"><ele>407.0</ele><time>2026-03-28T12:18:53.905Z</time></trkpt><trkpt lat="45.80702592259859" lon="9.675587425522787"><ele>407.0</ele><time>2026-03-28T12:18:54.903Z</time></trkpt><trkpt lat="45.80692697580564" lon="9.67527303875911"><ele>407.0</ele><time>2026-03-28T12:18:55.901Z</time></trkpt><trkpt lat="45.806831423953014" lon="9.674916486480408"><ele>404.5</ele><time>2026-03-28T12:18:56.9Z</time></trkpt><trkpt lat="45.80675447861943" lon="9.67455969154546"><ele>402.0</ele><time>2026-03-28T12:18:57.899Z</time></trkpt><trkpt lat="45.80669564318637" lon="9.674230642751883"><ele>402.0</ele><time>2026-03-28T12:18:58.897Z</time></trkpt><trkpt lat="45.806636372314806" lon="9.673905236685082"><ele>402.0</ele><time>2026-03-28T12:18:59.896Z</time></trkpt><trkpt lat="45.80657721805307" lon="9.673583252388639"><ele>409.5</ele><time>2026-03-28T12:19:00.895Z</time></trkpt><trkpt lat="45.80650325770994" lon="9.673263442413555"><ele>417.0</ele><time>2026-03-28T12:19:01.894Z</time></trkpt><trkpt lat="45.80642048809111" lon="9.672955172925379"><ele>426.5</ele><time>2026-03-28T12:19:02.893Z</time></trkpt><trkpt lat="45.80633639997671" lon="9.672645417844986"><ele>436.0</ele><time>2026-03-28T12:19:03.892Z</time></trkpt><trkpt lat="45.80625103810414" lon="9.672339580892544"><ele>436.0</ele><time>2026-03-28T12:19:04.891Z</time></trkpt><trkpt lat="45.806158741406236" lon="9.672048260038672"><ele>436.0</ele><time>2026-03-28T12:19:05.89Z</time></trkpt><trkpt lat="45.806062557457345" lon="9.671769182000983"><ele>436.0</ele><time>2026-03-28T12:19:06.89Z</time></trkpt><trkpt lat="45.80593491156481" lon="9.671502821588453"><ele>439.33333333333337</ele><time>2026-03-28T12:19:07.889Z</time></trkpt><trkpt lat="45.80581999782031" lon="9.671227849004861"><ele>442.66666666666663</ele><time>2026-03-28T12:19:08.888Z</time></trkpt><trkpt lat="45.80571906663061" lon="9.670976664796473"><ele>446.0</ele><time>2026-03-28T12:19:09.887Z</time></trkpt><trkpt lat="45.80563092986137" lon="9.670723767148827"><ele>446.0</ele><time>2026-03-28T12:19:10.887Z</time></trkpt><trkpt lat="45.80551743731995" lon="9.670472741755752"><ele>446.0</ele><time>2026-03-28T12:19:11.886Z</time></trkpt><trkpt lat="45.805404635830925" lon="9.670214739185859"><ele>446.0</ele><time>2026-03-28T12:19:12.886Z</time></trkpt><trkpt lat="45.805299055858214" lon="9.669953189398722"><ele>444.3333333333333</ele><time>2026-03-28T12:19:13.885Z</time></trkpt><trkpt lat="45.805203886371956" lon="9.66970666206765"><ele>442.66666666666663</ele><time>2026-03-28T12:19:14.885Z</time></trkpt><trkpt lat="45.80512409986591" lon="9.669474843118914"><ele>441.0</ele><time>2026-03-28T12:19:15.884Z</time></trkpt><trkpt lat="45.80504479952013" lon="9.669260423782324"><ele>453.33333333333337</ele><time>2026-03-28T12:19:16.884Z</time></trkpt><trkpt lat="45.80492740369136" lon="9.669032540821725"><ele>465.6666666666667</ele><time>2026-03-28T12:19:18.028Z</time></trkpt><trkpt lat="45.804821944201265" lon="9.668810810808466"><ele>478.0</ele><time>2026-03-28T12:19:19.025Z</time></trkpt><trkpt lat="45.80471321465675" lon="9.668584121514725"><ele>490.33333333333337</ele><time>2026-03-28T12:19:20.024Z</time></trkpt><trkpt lat="45.80460047774106" lon="9.668351348063297"><ele>502.66666666666663</ele><time>2026-03-28T12:19:21.025Z</time></trkpt><trkpt lat="45.804486304197816" lon="9.668118264084058"><ele>515.0</ele><time>2026-03-28T12:19:22.024Z</time></trkpt><trkpt lat="45.80436742298455" lon="9.66787870767075"><ele>504.0</ele><time>2026-03-28T12:19:23.024Z</time></trkpt><trkpt lat="45.80425031411564" lon="9.667646351112477"><ele>493.0</ele><time>2026-03-28T12:19:24.024Z</time></trkpt><trkpt lat="45.804131163932155" lon="9.667414625425115"><ele>482.0</ele><time>2026-03-28T12:19:25.025Z</time></trkpt><trkpt lat="45.804007463828675" lon="9.667176666000945"><ele>488.0</ele><time>2026-03-28T12:19:26.023Z</time></trkpt><trkpt lat="45.80385895042124" lon="9.666896420749147"><ele>494.0</ele><time>2026-03-28T12:19:27.022Z</time></trkpt><trkpt lat="45.803689878082366" lon="9.666584872962071"><ele>494.0</ele><time>2026-03-28T12:19:28.022Z</time></trkpt><trkpt lat="45.803519483424324" lon="9.666271600257266"><ele>494.0</ele><time>2026-03-28T12:19:29.022Z</time></trkpt><trkpt lat="45.80285277470785" lon="9.665095188858794"><ele>514.5</ele><time>2026-03-28T12:19:32.99Z</time></trkpt><trkpt lat="45.80267278808702" lon="9.664794583262902"><ele>535.0</ele><time>2026-03-28T12:19:33.99Z</time></trkpt><trkpt lat="45.80249168985264" lon="9.664495554175712"><ele>555.0</ele><time>2026-03-28T12:19:34.99Z</time></trkpt><trkpt lat="45.80229162979129" lon="9.664220208798387"><ele>575.0</ele><time>2026-03-28T12:19:35.99Z</time></trkpt><trkpt lat="45.80210303365286" lon="9.663931433153708"><ele>575.0</ele><time>2026-03-28T12:19:36.99Z</time></trkpt><trkpt lat="45.80190974580742" lon="9.663649231870533"><ele>575.0</ele><time>2026-03-28T12:19:37.989Z</time></trkpt><trkpt lat="45.8017113556851" lon="9.663374363513155"><ele>578.0</ele><time>2026-03-28T12:19:38.989Z</time></trkpt><trkpt lat="45.801519982787035" lon="9.66309036306792"><ele>581.0</ele><time>2026-03-28T12:19:39.985Z</time></trkpt><trkpt lat="45.80129687199487" lon="9.662851971580372"><ele>587.5</ele><time>2026-03-28T12:19:40.989Z</time></trkpt><trkpt lat="45.801087864796756" lon="9.662592104607151"><ele>594.0</ele><time>2026-03-28T12:19:41.989Z</time></trkpt><trkpt lat="45.80086122934551" lon="9.662364212175394"><ele>578.0</ele><time>2026-03-28T12:19:42.989Z</time></trkpt><trkpt lat="45.80062219280834" lon="9.662164226124126"><ele>562.0</ele><time>2026-03-28T12:19:43.989Z</time></trkpt><trkpt lat="45.80039780160727" lon="9.661932025791016"><ele>542.0</ele><time>2026-03-28T12:19:44.989Z</time></trkpt><trkpt lat="45.8001628833046" lon="9.661723768973127"><ele>522.0</ele><time>2026-03-28T12:19:45.989Z</time></trkpt><trkpt lat="45.79991894516383" lon="9.661536713032131"><ele>522.0</ele><time>2026-03-28T12:19:46.989Z</time></trkpt><trkpt lat="45.79969312411351" lon="9.661309349187905"><ele>522.0</ele><time>2026-03-28T12:19:47.986Z</time></trkpt><trkpt lat="45.79944983019438" lon="9.661118985252497"><ele>502.5</ele><time>2026-03-28T12:19:48.988Z</time></trkpt><trkpt lat="45.79922800603775" lon="9.660882866366633"><ele>483.0</ele><time>2026-03-28T12:19:49.988Z</time></trkpt><trkpt lat="45.7990223" lon="9.6607098"><ele>349.0</ele><time>2026-03-28T12:19:50.988Z</time></trkpt><trkpt lat="45.79400565914692" lon="9.647399326979205"><ele>349.0</ele><time>2026-03-28T12:20:33.877Z</time></trkpt><trkpt lat="45.79399770358886" lon="9.647009989278322"><ele>349.0</ele><time>2026-03-28T12:20:34.877Z</time></trkpt><trkpt lat="45.79406249210078" lon="9.646479008058169"><ele>342.0</ele><time>2026-03-28T12:20:35.877Z</time></trkpt><trkpt lat="45.79413399683178" lon="9.646007351565903"><ele>335.0</ele><time>2026-03-28T12:20:36.877Z</time></trkpt><trkpt lat="45.79419266446596" lon="9.645589202548166"><ele>335.0</ele><time>2026-03-28T12:20:37.877Z</time></trkpt><trkpt lat="45.7942284886679" lon="9.645227382816003"><ele>335.0</ele><time>2026-03-28T12:20:38.877Z</time></trkpt><trkpt lat="45.79425557688965" lon="9.644861744769985"><ele>335.0</ele><time>2026-03-28T12:20:39.875Z</time></trkpt><trkpt lat="45.79426946879925" lon="9.644485183484411"><ele>335.0</ele><time>2026-03-28T12:20:40.875Z</time></trkpt><trkpt lat="45.79425935417804" lon="9.644126684398094"><ele>340.5</ele><time>2026-03-28T12:20:41.875Z</time></trkpt><trkpt lat="45.794225565925395" lon="9.643782000735845"><ele>346.0</ele><time>2026-03-28T12:20:42.875Z</time></trkpt><trkpt lat="45.79417665068208" lon="9.643434213016725"><ele>359.5</ele><time>2026-03-28T12:20:43.875Z</time></trkpt><trkpt lat="45.79413848889098" lon="9.643077099514455"><ele>373.0</ele><time>2026-03-28T12:20:44.875Z</time></trkpt><trkpt lat="45.79410121610982" lon="9.642718144646262"><ele>387.0</ele><time>2026-03-28T12:20:45.875Z</time></trkpt><trkpt lat="45.794063098658675" lon="9.642364119621872"><ele>401.0</ele><time>2026-03-28T12:20:46.874Z</time></trkpt><trkpt lat="45.794025093194676" lon="9.642008104538592"><ele>416.5</ele><time>2026-03-28T12:20:47.874Z</time></trkpt><trkpt lat="45.79398711062836" lon="9.641652314752251"><ele>432.0</ele><time>2026-03-28T12:20:48.874Z</time></trkpt><trkpt lat="45.79394911800115" lon="9.641296441524501"><ele>446.5</ele><time>2026-03-28T12:20:49.875Z</time></trkpt><trkpt lat="45.79390573924496" lon="9.640890130189794"><ele>461.0</ele><time>2026-03-28T12:20:51.018Z</time></trkpt><trkpt lat="45.79362431622213" lon="9.63826458763559"><ele>305.0</ele><time>2026-03-28T12:21:01.307Z</time></trkpt><trkpt lat="45.789973625184224" lon="9.638910677110959"><ele>305.0</ele><time>2026-03-28T12:21:07.874Z</time></trkpt><trkpt lat="45.78989252707397" lon="9.638849396762955"><ele>305.0</ele><time>2026-03-28T12:21:08.874Z</time></trkpt><trkpt lat="45.789640723695584" lon="9.638807698811926"><ele>305.0</ele><time>2026-03-28T12:21:09.874Z</time></trkpt><trkpt lat="45.78955492154855" lon="9.638714778784964"><ele>308.25</ele><time>2026-03-28T12:21:10.874Z</time></trkpt><trkpt lat="45.78947864476883" lon="9.638609458038818"><ele>311.5</ele><time>2026-03-28T12:21:11.874Z</time></trkpt><trkpt lat="45.78936354834251" lon="9.638449119630504"><ele>314.75</ele><time>2026-03-28T12:21:12.874Z</time></trkpt><trkpt lat="45.78929994199249" lon="9.638291087027964"><ele>318.0</ele><time>2026-03-28T12:21:13.874Z</time></trkpt><trkpt lat="45.78925270749647" lon="9.638126694763493"><ele>312.75</ele><time>2026-03-28T12:21:14.874Z</time></trkpt><trkpt lat="45.78918741146939" lon="9.63794974611734"><ele>307.5</ele><time>2026-03-28T12:21:15.874Z</time></trkpt><trkpt lat="45.789098120651715" lon="9.637781782893251"><ele>302.25</ele><time>2026-03-28T12:21:16.874Z</time></trkpt><trkpt lat="45.7890066888091" lon="9.63759265245554"><ele>297.0</ele><time>2026-03-28T12:21:17.874Z</time></trkpt><trkpt lat="45.78891663716328" lon="9.637402739412561"><ele>297.0</ele><time>2026-03-28T12:21:18.874Z</time></trkpt><trkpt lat="45.78883084347735" lon="9.637226480882095"><ele>297.0</ele><time>2026-03-28T12:21:19.874Z</time></trkpt><trkpt lat="45.78873867648366" lon="9.63706290433985"><ele>297.0</ele><time>2026-03-28T12:21:20.874Z</time></trkpt><trkpt lat="45.78864380607433" lon="9.63689827604095"><ele>297.0</ele><time>2026-03-28T12:21:21.874Z</time></trkpt><trkpt lat="45.78854718068657" lon="9.636729482679801"><ele>297.3333333333333</ele><time>2026-03-28T12:21:22.874Z</time></trkpt><trkpt lat="45.78844762735678" lon="9.636556301848987"><ele>297.66666666666663</ele><time>2026-03-28T12:21:23.874Z</time></trkpt><trkpt lat="45.788351374992885" lon="9.6363896413466"><ele>298.0</ele><time>2026-03-28T12:21:24.874Z</time></trkpt><trkpt lat="45.78825240646918" lon="9.636229156254233"><ele>304.3333333333333</ele><time>2026-03-28T12:21:25.874Z</time></trkpt><trkpt lat="45.788165186151026" lon="9.63605316762548"><ele>310.6666666666667</ele><time>2026-03-28T12:21:26.874Z</time></trkpt><trkpt lat="45.788118846465565" lon="9.635788681134908"><ele>317.0</ele><time>2026-03-28T12:21:27.874Z</time></trkpt><trkpt lat="45.78812317637269" lon="9.635311605874255"><ele>327.6666666666667</ele><time>2026-03-28T12:21:28.874Z</time></trkpt><trkpt lat="45.78806822383965" lon="9.635018535317696"><ele>338.3333333333333</ele><time>2026-03-28T12:21:29.874Z</time></trkpt><trkpt lat="45.78800316494029" lon="9.634740865021032"><ele>349.0</ele><time>2026-03-28T12:21:30.874Z</time></trkpt><trkpt lat="45.78793620037962" lon="9.634469049783851"><ele>353.3333333333333</ele><time>2026-03-28T12:21:31.874Z</time></trkpt><trkpt lat="45.787859454591576" lon="9.634215479216573"><ele>357.6666666666667</ele><time>2026-03-28T12:21:32.874Z</time></trkpt><trkpt lat="45.78779698067382" lon="9.633981493808703"><ele>362.0</ele><time>2026-03-28T12:21:33.874Z</time></trkpt><trkpt lat="45.78774491480892" lon="9.63373913638659"><ele>366.0</ele><time>2026-03-28T12:21:34.874Z</time></trkpt><trkpt lat="45.78769599977901" lon="9.633478852465489"><ele>370.0</ele><time>2026-03-28T12:21:35.874Z</time></trkpt><trkpt lat="45.787649281591804" lon="9.633210260228322"><ele>374.0</ele><time>2026-03-28T12:21:36.874Z</time></trkpt><trkpt lat="45.7876066873703" lon="9.632920304553446"><ele>358.0</ele><time>2026-03-28T12:21:37.874Z</time></trkpt><trkpt lat="45.78755634811221" lon="9.632626715516784"><ele>342.0</ele><time>2026-03-28T12:21:38.874Z</time></trkpt><trkpt lat="45.78750953998868" lon="9.632320296845975"><ele>326.0</ele><time>2026-03-28T12:21:39.874Z</time></trkpt><trkpt lat="45.78746775180585" lon="9.632025594209283"><ele>326.0</ele><time>2026-03-28T12:21:40.874Z</time></trkpt><trkpt lat="45.787426672099706" lon="9.631729882250411"><ele>326.0</ele><time>2026-03-28T12:21:41.874Z</time></trkpt><trkpt lat="45.787383133365076" lon="9.631432403165423"><ele>326.0</ele><time>2026-03-28T12:21:42.874Z</time></trkpt><trkpt lat="45.78731143383759" lon="9.631131165710524"><ele>326.0</ele><time>2026-03-28T12:21:43.874Z</time></trkpt><trkpt lat="45.78720510633814" lon="9.630833526633799"><ele>326.0</ele><time>2026-03-28T12:21:44.874Z</time></trkpt><trkpt lat="45.78706888407964" lon="9.63054816058156"><ele>326.0</ele><time>2026-03-28T12:21:45.874Z</time></trkpt><trkpt lat="45.78691689154511" lon="9.630316690477157"><ele>326.0</ele><time>2026-03-28T12:21:46.874Z</time></trkpt><trkpt lat="45.78675408711555" lon="9.630103941301968"><ele>326.0</ele><time>2026-03-28T12:21:47.874Z</time></trkpt><trkpt lat="45.78656432471246" lon="9.629921043286545"><ele>313.0</ele><time>2026-03-28T12:21:48.874Z</time></trkpt><trkpt lat="45.78633306585022" lon="9.629760064999475"><ele>300.0</ele><time>2026-03-28T12:21:49.874Z</time></trkpt><trkpt lat="45.786099027738516" lon="9.629572014832581"><ele>305.0</ele><time>2026-03-28T12:21:50.874Z</time></trkpt><trkpt lat="45.785884446861914" lon="9.629376002832464"><ele>310.0</ele><time>2026-03-28T12:21:51.874Z</time></trkpt><trkpt lat="45.78566655970588" lon="9.629196590372171"><ele>310.0</ele><time>2026-03-28T12:21:52.874Z</time></trkpt><trkpt lat="45.785456926482006" lon="9.629016156416695"><ele>310.0</ele><time>2026-03-28T12:21:53.874Z</time></trkpt><trkpt lat="45.78525425611878" lon="9.628824942130185"><ele>309.5</ele><time>2026-03-28T12:21:54.874Z</time></trkpt><trkpt lat="45.78506266550268" lon="9.62860779732237"><ele>309.0</ele><time>2026-03-28T12:21:55.874Z</time></trkpt><trkpt lat="45.784889284573424" lon="9.628371344018474"><ele>309.0</ele><time>2026-03-28T12:21:56.874Z</time></trkpt><trkpt lat="45.78472848970617" lon="9.628117373639267"><ele>309.0</ele><time>2026-03-28T12:21:57.874Z</time></trkpt><trkpt lat="45.784560258792695" lon="9.627844085108434"><ele>311.5</ele><time>2026-03-28T12:21:58.874Z</time></trkpt><trkpt lat="45.78440459650673" lon="9.627593838556908"><ele>314.0</ele><time>2026-03-28T12:21:59.874Z</time></trkpt><trkpt lat="45.78426160144753" lon="9.627362055133347"><ele>314.0</ele><time>2026-03-28T12:22:00.874Z</time></trkpt><trkpt lat="45.78412848676239" lon="9.627153608308799"><ele>314.0</ele><time>2026-03-28T12:22:01.874Z</time></trkpt><trkpt lat="45.78400521468347" lon="9.626955426064335"><ele>314.0</ele><time>2026-03-28T12:22:02.874Z</time></trkpt><trkpt lat="45.78388334441732" lon="9.626750871419581"><ele>312.0</ele><time>2026-03-28T12:22:03.874Z</time></trkpt><trkpt lat="45.78376213431075" lon="9.62655505962831"><ele>310.0</ele><time>2026-03-28T12:22:04.874Z</time></trkpt><trkpt lat="45.783639062684074" lon="9.626352818207824"><ele>308.0</ele><time>2026-03-28T12:22:05.874Z</time></trkpt><trkpt lat="45.78350808734154" lon="9.626124950111093"><ele>308.0</ele><time>2026-03-28T12:22:06.874Z</time></trkpt><trkpt lat="45.783376617808585" lon="9.625870102713517"><ele>308.0</ele><time>2026-03-28T12:22:07.873Z</time></trkpt><trkpt lat="45.78325221450662" lon="9.625584054501722"><ele>302.5</ele><time>2026-03-28T12:22:08.873Z</time></trkpt><trkpt lat="45.78313795595908" lon="9.625276276788231"><ele>297.0</ele><time>2026-03-28T12:22:09.873Z</time></trkpt><trkpt lat="45.78303814965485" lon="9.624946962160939"><ele>297.0</ele><time>2026-03-28T12:22:10.873Z</time></trkpt><trkpt lat="45.78295094919029" lon="9.624624065970503"><ele>297.0</ele><time>2026-03-28T12:22:11.873Z</time></trkpt><trkpt lat="45.78287818687764" lon="9.624309724350924"><ele>295.0</ele><time>2026-03-28T12:22:12.873Z</time></trkpt><trkpt lat="45.78280343801752" lon="9.624000243549904"><ele>293.0</ele><time>2026-03-28T12:22:13.873Z</time></trkpt><trkpt lat="45.78271902707545" lon="9.62370529309108"><ele>299.33333333333337</ele><time>2026-03-28T12:22:14.873Z</time></trkpt><trkpt lat="45.78263412596575" lon="9.623436413459846"><ele>305.6666666666667</ele><time>2026-03-28T12:22:15.873Z</time></trkpt><trkpt lat="45.78253951217522" lon="9.623172583425715"><ele>312.0</ele><time>2026-03-28T12:22:16.873Z</time></trkpt><trkpt lat="45.7824242680783" lon="9.622907969233756"><ele>310.3333333333333</ele><time>2026-03-28T12:22:17.873Z</time></trkpt><trkpt lat="45.78229744517088" lon="9.622651439295675"><ele>308.66666666666663</ele><time>2026-03-28T12:22:18.873Z</time></trkpt><trkpt lat="45.78216322929623" lon="9.622403506446371"><ele>307.0</ele><time>2026-03-28T12:22:19.873Z</time></trkpt><trkpt lat="45.782022952014" lon="9.622168438191071"><ele>309.3333333333333</ele><time>2026-03-28T12:22:20.873Z</time></trkpt><trkpt lat="45.7818788491491" lon="9.62193957396596"><ele>311.6666666666667</ele><time>2026-03-28T12:22:21.873Z</time></trkpt><trkpt lat="45.78172611149227" lon="9.621699792756997"><ele>314.0</ele><time>2026-03-28T12:22:22.873Z</time></trkpt><trkpt lat="45.78158152248186" lon="9.621454337364264"><ele>315.0</ele><time>2026-03-28T12:22:23.873Z</time></trkpt><trkpt lat="45.78144714607908" lon="9.62118646089707"><ele>316.0</ele><time>2026-03-28T12:22:24.873Z</time></trkpt><trkpt lat="45.78131487153105" lon="9.620871287366194"><ele>314.0</ele><time>2026-03-28T12:22:25.873Z</time></trkpt><trkpt lat="45.78117614481853" lon="9.620507048570618"><ele>312.0</ele><time>2026-03-28T12:22:26.873Z</time></trkpt><trkpt lat="45.781044410061604" lon="9.62014041885395"><ele>314.0</ele><time>2026-03-28T12:22:27.873Z</time></trkpt><trkpt lat="45.78091482169351" lon="9.619781882158879"><ele>316.0</ele><time>2026-03-28T12:22:28.873Z</time></trkpt><trkpt lat="45.78078733872892" lon="9.619433384906017"><ele>310.5</ele><time>2026-03-28T12:22:29.873Z</time></trkpt><trkpt lat="45.78066649011245" lon="9.61910850632142"><ele>305.0</ele><time>2026-03-28T12:22:30.873Z</time></trkpt><trkpt lat="45.780548148179705" lon="9.61878984640417"><ele>303.5</ele><time>2026-03-28T12:22:31.873Z</time></trkpt><trkpt lat="45.78043447816455" lon="9.618479908320397"><ele>302.0</ele><time>2026-03-28T12:22:32.873Z</time></trkpt><trkpt lat="45.78032507124467" lon="9.618173855608868"><ele>302.0</ele><time>2026-03-28T12:22:33.873Z</time></trkpt><trkpt lat="45.780218646796676" lon="9.617872894797348"><ele>302.0</ele><time>2026-03-28T12:22:34.873Z</time></trkpt><trkpt lat="45.78011195709489" lon="9.617573551939516"><ele>307.0</ele><time>2026-03-28T12:22:35.873Z</time></trkpt><trkpt lat="45.78001111533422" lon="9.617279269801848"><ele>312.0</ele><time>2026-03-28T12:22:36.873Z</time></trkpt><trkpt lat="45.77992548628097" lon="9.61699408134808"><ele>317.0</ele><time>2026-03-28T12:22:37.873Z</time></trkpt><trkpt lat="45.779861352469055" lon="9.616703991432217"><ele>317.0</ele><time>2026-03-28T12:22:38.873Z</time></trkpt><trkpt lat="45.77981387874102" lon="9.616414440319765"><ele>317.0</ele><time>2026-03-28T12:22:39.873Z</time></trkpt><trkpt lat="45.77979620873313" lon="9.616143499338996"><ele>317.0</ele><time>2026-03-28T12:22:40.873Z</time></trkpt><trkpt lat="45.77978195788937" lon="9.615862041010994"><ele>316.6666666666667</ele><time>2026-03-28T12:22:41.873Z</time></trkpt><trkpt lat="45.77976752486893" lon="9.615598915131391"><ele>316.3333333333333</ele><time>2026-03-28T12:22:42.873Z</time></trkpt><trkpt lat="45.779754534594744" lon="9.61535977465491"><ele>316.0</ele><time>2026-03-28T12:22:43.873Z</time></trkpt><trkpt lat="45.77974621282628" lon="9.615139544371642"><ele>313.25</ele><time>2026-03-28T12:22:44.873Z</time></trkpt><trkpt lat="45.77972898055667" lon="9.614931642133378"><ele>310.5</ele><time>2026-03-28T12:22:45.872Z</time></trkpt><trkpt lat="45.779711145482075" lon="9.614748574082164"><ele>307.75</ele><time>2026-03-28T12:22:46.872Z</time></trkpt><trkpt lat="45.779655529340644" lon="9.614582682713044"><ele>305.0</ele><time>2026-03-28T12:22:47.872Z</time></trkpt><trkpt lat="45.779567884021795" lon="9.6144405572386"><ele>301.75</ele><time>2026-03-28T12:22:48.872Z</time></trkpt><trkpt lat="45.77947871110569" lon="9.614333266146238"><ele>298.5</ele><time>2026-03-28T12:22:49.872Z</time></trkpt><trkpt lat="45.77938137165916" lon="9.61425207513851"><ele>295.25</ele><time>2026-03-28T12:22:50.872Z</time></trkpt><trkpt lat="45.779260361929595" lon="9.61417267321353"><ele>292.0</ele><time>2026-03-28T12:22:51.872Z</time></trkpt><trkpt lat="45.779147043151404" lon="9.614127963231802"><ele>302.0</ele><time>2026-03-28T12:22:52.872Z</time></trkpt><trkpt lat="45.77902917417446" lon="9.614083840505108"><ele>312.0</ele><time>2026-03-28T12:22:53.872Z</time></trkpt><trkpt lat="45.778915643183296" lon="9.614000818667002"><ele>322.0</ele><time>2026-03-28T12:22:54.872Z</time></trkpt><trkpt lat="45.778791189345164" lon="9.613933558560344"><ele>332.0</ele><time>2026-03-28T12:22:55.872Z</time></trkpt><trkpt lat="45.7786620746554" lon="9.613863581129808"><ele>332.0</ele><time>2026-03-28T12:22:56.872Z</time></trkpt><trkpt lat="45.778536518826826" lon="9.613795101692737"><ele>332.0</ele><time>2026-03-28T12:22:57.871Z</time></trkpt><trkpt lat="45.778387652947934" lon="9.613713908715765"><ele>332.0</ele><time>2026-03-28T12:22:58.871Z</time></trkpt><trkpt lat="45.77820100812027" lon="9.613612362909487"><ele>331.33333333333337</ele><time>2026-03-28T12:22:59.871Z</time></trkpt><trkpt lat="45.77802811099082" lon="9.613518545859211"><ele>330.6666666666667</ele><time>2026-03-28T12:23:00.871Z</time></trkpt><trkpt lat="45.7778467128612" lon="9.613420116038197"><ele>330.0</ele><time>2026-03-28T12:23:01.871Z</time></trkpt><trkpt lat="45.77767356840255" lon="9.613326164776426"><ele>332.3333333333333</ele><time>2026-03-28T12:23:02.871Z</time></trkpt><trkpt lat="45.77750574464618" lon="9.61323530196422"><ele>334.66666666666663</ele><time>2026-03-28T12:23:03.871Z</time></trkpt><trkpt lat="45.77735474666481" lon="9.613153690186442"><ele>337.0</ele><time>2026-03-28T12:23:04.871Z</time></trkpt><trkpt lat="45.77721138023116" lon="9.61308044549444"><ele>337.0</ele><time>2026-03-28T12:23:05.871Z</time></trkpt><trkpt lat="45.77705420947152" lon="9.613044307993437"><ele>337.0</ele><time>2026-03-28T12:23:06.871Z</time></trkpt><trkpt lat="45.77690204407327" lon="9.613016212031434"><ele>337.0</ele><time>2026-03-28T12:23:07.871Z</time></trkpt><trkpt lat="45.77675557526879" lon="9.61302063989984"><ele>337.25</ele><time>2026-03-28T12:23:08.871Z</time></trkpt><trkpt lat="45.7766116604128" lon="9.613050865143967"><ele>337.5</ele><time>2026-03-28T12:23:09.871Z</time></trkpt><trkpt lat="45.776465960493525" lon="9.613111202155535"><ele>337.75</ele><time>2026-03-28T12:23:10.871Z</time></trkpt><trkpt lat="45.776331717563096" lon="9.613172054590683"><ele>338.0</ele><time>2026-03-28T12:23:11.871Z</time></trkpt><trkpt lat="45.77619160278605" lon="9.6131686518926"><ele>338.0</ele><time>2026-03-28T12:23:12.871Z</time></trkpt><trkpt lat="45.77604556833774" lon="9.613235525302095"><ele>338.0</ele><time>2026-03-28T12:23:13.871Z</time></trkpt><trkpt lat="45.77589360503017" lon="9.613325369140918"><ele>338.0</ele><time>2026-03-28T12:23:14.871Z</time></trkpt><trkpt lat="45.77573968738467" lon="9.613431417714096"><ele>333.5</ele><time>2026-03-28T12:23:15.871Z</time></trkpt><trkpt lat="45.77557240643361" lon="9.61360997731856"><ele>329.0</ele><time>2026-03-28T12:23:16.871Z</time></trkpt><trkpt lat="45.77538989447944" lon="9.613844284178962"><ele>324.5</ele><time>2026-03-28T12:23:17.871Z</time></trkpt><trkpt lat="45.77520004688634" lon="9.614134756929788"><ele>320.0</ele><time>2026-03-28T12:23:18.871Z</time></trkpt><trkpt lat="45.77503934745432" lon="9.61440187066517"><ele>334.0</ele><time>2026-03-28T12:23:19.871Z</time></trkpt><trkpt lat="45.77487366890863" lon="9.614609184004289"><ele>348.0</ele><time>2026-03-28T12:23:20.871Z</time></trkpt><trkpt lat="45.77468770785645" lon="9.614791218739567"><ele>362.0</ele><time>2026-03-28T12:23:21.871Z</time></trkpt><trkpt lat="45.77445937190043" lon="9.614796124608263"><ele>351.5</ele><time>2026-03-28T12:23:22.871Z</time></trkpt><trkpt lat="45.77422934694603" lon="9.61488876788868"><ele>341.0</ele><time>2026-03-28T12:23:23.871Z</time></trkpt><trkpt lat="45.77398079806165" lon="9.614932502558688"><ele>341.0</ele><time>2026-03-28T12:23:24.871Z</time></trkpt><trkpt lat="45.773730719919804" lon="9.614957305467657"><ele>341.0</ele><time>2026-03-28T12:23:25.871Z</time></trkpt><trkpt lat="45.773503090153525" lon="9.614979104310516"><ele>341.6666666666667</ele><time>2026-03-28T12:23:26.871Z</time></trkpt><trkpt lat="45.77329934813083" lon="9.614998940929828"><ele>342.3333333333333</ele><time>2026-03-28T12:23:27.871Z</time></trkpt><trkpt lat="45.77311929022171" lon="9.614986308994121"><ele>343.0</ele><time>2026-03-28T12:23:28.871Z</time></trkpt><trkpt lat="45.77295294541679" lon="9.614915441702694"><ele>343.0</ele><time>2026-03-28T12:23:29.871Z</time></trkpt><trkpt lat="45.772771979086144" lon="9.614779037219902"><ele>343.0</ele><time>2026-03-28T12:23:30.871Z</time></trkpt><trkpt lat="45.77256108602508" lon="9.614615416981131"><ele>343.0</ele><time>2026-03-28T12:23:31.871Z</time></trkpt><trkpt lat="45.772317996197145" lon="9.614444985214984"><ele>328.5</ele><time>2026-03-28T12:23:32.871Z</time></trkpt><trkpt lat="45.772090295351084" lon="9.614255916036901"><ele>314.0</ele><time>2026-03-28T12:23:33.871Z</time></trkpt><trkpt lat="45.77188142404031" lon="9.614116358056874"><ele>322.0</ele><time>2026-03-28T12:23:34.871Z</time></trkpt><trkpt lat="45.77168257122579" lon="9.613997312135616"><ele>330.0</ele><time>2026-03-28T12:23:35.871Z</time></trkpt><trkpt lat="45.771490372361" lon="9.613906252914965"><ele>338.0</ele><time>2026-03-28T12:23:36.871Z</time></trkpt><trkpt lat="45.77133556215761" lon="9.61379413552417"><ele>338.0</ele><time>2026-03-28T12:23:37.871Z</time></trkpt><trkpt lat="45.771179602974776" lon="9.613698856254269"><ele>338.0</ele><time>2026-03-28T12:23:38.871Z</time></trkpt><trkpt lat="45.77103637700032" lon="9.613578593692992"><ele>338.0</ele><time>2026-03-28T12:23:39.871Z</time></trkpt><trkpt lat="45.77092998469451" lon="9.613414672396662"><ele>331.0</ele><time>2026-03-28T12:23:40.871Z</time></trkpt><trkpt lat="45.77083318321368" lon="9.613178126142383"><ele>324.0</ele><time>2026-03-28T12:23:41.871Z</time></trkpt><trkpt lat="45.77072435318771" lon="9.612894190687532"><ele>317.0</ele><time>2026-03-28T12:23:42.871Z</time></trkpt><trkpt lat="45.77063510718478" lon="9.612661109742854"><ele>312.6666666666667</ele><time>2026-03-28T12:23:43.871Z</time></trkpt><trkpt lat="45.77054487867157" lon="9.612441511745478"><ele>308.3333333333333</ele><time>2026-03-28T12:23:44.871Z</time></trkpt><trkpt lat="45.77045797649862" lon="9.612227916013213"><ele>304.0</ele><time>2026-03-28T12:23:45.871Z</time></trkpt><trkpt lat="45.77037149654206" lon="9.612009866429982"><ele>303.3333333333333</ele><time>2026-03-28T12:23:46.871Z</time></trkpt><trkpt lat="45.770286606146755" lon="9.611795534025566"><ele>302.6666666666667</ele><time>2026-03-28T12:23:47.871Z</time></trkpt><trkpt lat="45.77019753970625" lon="9.611589455039839"><ele>302.0</ele><time>2026-03-28T12:23:48.871Z</time></trkpt><trkpt lat="45.77009842178907" lon="9.611382598044754"><ele>306.0</ele><time>2026-03-28T12:23:49.871Z</time></trkpt><trkpt lat="45.769966744526954" lon="9.611201249755512"><ele>310.0</ele><time>2026-03-28T12:23:50.871Z</time></trkpt><trkpt lat="45.7698078206757" lon="9.61106219051315"><ele>314.0</ele><time>2026-03-28T12:23:51.871Z</time></trkpt><trkpt lat="45.769677990538604" lon="9.610981587909198"><ele>314.0</ele><time>2026-03-28T12:23:52.871Z</time></trkpt><trkpt lat="45.76948944561809" lon="9.610937827038343"><ele>314.0</ele><time>2026-03-28T12:23:53.871Z</time></trkpt><trkpt lat="45.76926627777451" lon="9.610935816435708"><ele>314.0</ele><time>2026-03-28T12:23:54.871Z</time></trkpt><trkpt lat="45.76905486229928" lon="9.610930435187106"><ele>315.6666666666667</ele><time>2026-03-28T12:23:55.871Z</time></trkpt><trkpt lat="45.768858519618966" lon="9.610916723516858"><ele>317.3333333333333</ele><time>2026-03-28T12:23:56.871Z</time></trkpt><trkpt lat="45.76867121443292" lon="9.610863768853376"><ele>319.0</ele><time>2026-03-28T12:23:57.871Z</time></trkpt><trkpt lat="45.76847540717088" lon="9.610852980418137"><ele>319.0</ele><time>2026-03-28T12:23:58.871Z</time></trkpt><trkpt lat="45.76828574565409" lon="9.6109052345904"><ele>319.0</ele><time>2026-03-28T12:23:59.871Z</time></trkpt><trkpt lat="45.76808738003012" lon="9.610947069319943"><ele>319.0</ele><time>2026-03-28T12:24:00.871Z</time></trkpt><trkpt lat="45.76788988186563" lon="9.610997050361851"><ele>319.0</ele><time>2026-03-28T12:24:01.871Z</time></trkpt><trkpt lat="45.76769408038816" lon="9.611042827367228"><ele>319.0</ele><time>2026-03-28T12:24:02.871Z</time></trkpt><trkpt lat="45.767499679755645" lon="9.611079668772264"><ele>319.0</ele><time>2026-03-28T12:24:03.871Z</time></trkpt><trkpt lat="45.76731553331531" lon="9.611110763073693"><ele>312.3333333333333</ele><time>2026-03-28T12:24:04.871Z</time></trkpt><trkpt lat="45.76714019030025" lon="9.611104052968589"><ele>305.6666666666667</ele><time>2026-03-28T12:24:05.871Z</time></trkpt><trkpt lat="45.76697739804567" lon="9.611137326483519"><ele>299.0</ele><time>2026-03-28T12:24:06.871Z</time></trkpt><trkpt lat="45.766822391821854" lon="9.61116879325252"><ele>298.6666666666667</ele><time>2026-03-28T12:24:07.871Z</time></trkpt><trkpt lat="45.76666822801196" lon="9.611199783424142"><ele>298.3333333333333</ele><time>2026-03-28T12:24:08.871Z</time></trkpt><trkpt lat="45.766516399814776" lon="9.611230516930638"><ele>298.0</ele><time>2026-03-28T12:24:09.871Z</time></trkpt><trkpt lat="45.76636784594085" lon="9.611260939430963"><ele>298.0</ele><time>2026-03-28T12:24:10.871Z</time></trkpt><trkpt lat="45.766226489247316" lon="9.611289888028654"><ele>298.0</ele><time>2026-03-28T12:24:11.871Z</time></trkpt><trkpt lat="45.766087065756395" lon="9.611316364792708"><ele>298.0</ele><time>2026-03-28T12:24:12.871Z</time></trkpt><trkpt lat="45.765949026397074" lon="9.611334018211592"><ele>298.0</ele><time>2026-03-28T12:24:13.871Z</time></trkpt><trkpt lat="45.765817594042396" lon="9.611320312034938"><ele>300.66666666666663</ele><time>2026-03-28T12:24:14.871Z</time></trkpt><trkpt lat="45.76568262272431" lon="9.611295992040487"><ele>303.3333333333333</ele><time>2026-03-28T12:24:15.871Z</time></trkpt><trkpt lat="45.765560142549965" lon="9.611197975272802"><ele>306.0</ele><time>2026-03-28T12:24:16.871Z</time></trkpt><trkpt lat="45.765423689821" lon="9.611042905312633"><ele>306.0</ele><time>2026-03-28T12:24:17.871Z</time></trkpt><trkpt lat="45.76529067829262" lon="9.610836675873525"><ele>306.0</ele><time>2026-03-28T12:24:18.871Z</time></trkpt><trkpt lat="45.765161649418964" lon="9.610620870712724"><ele>306.0</ele><time>2026-03-28T12:24:19.87Z</time></trkpt><trkpt lat="45.76502205184286" lon="9.610411148407012"><ele>306.6666666666667</ele><time>2026-03-28T12:24:20.87Z</time></trkpt><trkpt lat="45.76489451362249" lon="9.610226692534901"><ele>307.33333333333337</ele><time>2026-03-28T12:24:21.87Z</time></trkpt><trkpt lat="45.764775732124455" lon="9.610041757939799"><ele>308.0</ele><time>2026-03-28T12:24:22.87Z</time></trkpt><trkpt lat="45.76465451751552" lon="9.60984646712256"><ele>308.0</ele><time>2026-03-28T12:24:23.87Z</time></trkpt><trkpt lat="45.7645360254333" lon="9.609662635939232"><ele>308.0</ele><time>2026-03-28T12:24:24.87Z</time></trkpt><trkpt lat="45.76441861114933" lon="9.609491123210066"><ele>308.0</ele><time>2026-03-28T12:24:25.87Z</time></trkpt><trkpt lat="45.76429613498601" lon="9.60930707746003"><ele>312.5</ele><time>2026-03-28T12:24:26.87Z</time></trkpt><trkpt lat="45.764136888566235" lon="9.60906558674825"><ele>317.0</ele><time>2026-03-28T12:24:27.87Z</time></trkpt><trkpt lat="45.76396249219153" lon="9.608786457408183"><ele>310.5</ele><time>2026-03-28T12:24:28.87Z</time></trkpt><trkpt lat="45.76379893806286" lon="9.608534662914662"><ele>304.0</ele><time>2026-03-28T12:24:29.87Z</time></trkpt><trkpt lat="45.763651174772995" lon="9.608276510454562"><ele>304.66666666666663</ele><time>2026-03-28T12:24:30.87Z</time></trkpt><trkpt lat="45.76350362682914" lon="9.608045434661928"><ele>305.3333333333333</ele><time>2026-03-28T12:24:31.87Z</time></trkpt><trkpt lat="45.76336322098359" lon="9.607849973464633"><ele>306.0</ele><time>2026-03-28T12:24:32.87Z</time></trkpt><trkpt lat="45.763254362212926" lon="9.607644949403003"><ele>306.0</ele><time>2026-03-28T12:24:33.87Z</time></trkpt><trkpt lat="45.76315250005469" lon="9.607432863484014"><ele>306.0</ele><time>2026-03-28T12:24:34.87Z</time></trkpt><trkpt lat="45.76306009299841" lon="9.607212718236177"><ele>306.0</ele><time>2026-03-28T12:24:35.87Z</time></trkpt><trkpt lat="45.76296927496421" lon="9.607008557546772"><ele>298.6666666666667</ele><time>2026-03-28T12:24:36.87Z</time></trkpt><trkpt lat="45.762884206129584" lon="9.606809049688387"><ele>291.33333333333337</ele><time>2026-03-28T12:24:37.87Z</time></trkpt><trkpt lat="45.76280050698419" lon="9.606601274024959"><ele>284.0</ele><time>2026-03-28T12:24:38.87Z</time></trkpt><trkpt lat="45.76270634628876" lon="9.60640944594876"><ele>287.25</ele><time>2026-03-28T12:24:39.87Z</time></trkpt><trkpt lat="45.7626014154365" lon="9.606240877874848"><ele>290.5</ele><time>2026-03-28T12:24:40.87Z</time></trkpt><trkpt lat="45.76248617443108" lon="9.606105185719581"><ele>293.75</ele><time>2026-03-28T12:24:41.87Z</time></trkpt><trkpt lat="45.762382984988164" lon="9.60599354493186"><ele>297.0</ele><time>2026-03-28T12:24:42.87Z</time></trkpt><trkpt lat="45.7623233956901" lon="9.605862316415065"><ele>297.0</ele><time>2026-03-28T12:24:43.87Z</time></trkpt><trkpt lat="45.762225647894326" lon="9.605762018622084"><ele>297.0</ele><time>2026-03-28T12:24:44.87Z</time></trkpt><trkpt lat="45.76213340499867" lon="9.605666432049038"><ele>297.0</ele><time>2026-03-28T12:24:45.87Z</time></trkpt><trkpt lat="45.762026342420484" lon="9.605583463899475"><ele>297.0</ele><time>2026-03-28T12:24:46.87Z</time></trkpt><trkpt lat="45.761918770501694" lon="9.605508023147912"><ele>301.5</ele><time>2026-03-28T12:24:47.87Z</time></trkpt><trkpt lat="45.761793522001504" lon="9.605473027009023"><ele>306.0</ele><time>2026-03-28T12:24:48.87Z</time></trkpt><trkpt lat="45.761669970104265" lon="9.60547509879776"><ele>310.5</ele><time>2026-03-28T12:24:49.87Z</time></trkpt><trkpt lat="45.76153010038264" lon="9.605518453423999"><ele>315.0</ele><time>2026-03-28T12:24:50.87Z</time></trkpt><trkpt lat="45.761411846741545" lon="9.605580310286099"><ele>315.0</ele><time>2026-03-28T12:24:51.869Z</time></trkpt><trkpt lat="45.76129856340179" lon="9.605644261568791"><ele>315.0</ele><time>2026-03-28T12:24:52.869Z</time></trkpt><trkpt lat="45.76119305482152" lon="9.605705600164605"><ele>315.0</ele><time>2026-03-28T12:24:53.869Z</time></trkpt><trkpt lat="45.76108059299631" lon="9.605772904386809"><ele>315.0</ele><time>2026-03-28T12:24:54.869Z</time></trkpt><trkpt lat="45.760976053658524" lon="9.605846411278838"><ele>316.25</ele><time>2026-03-28T12:24:55.869Z</time></trkpt><trkpt lat="45.76089907573195" lon="9.605971891540463"><ele>317.5</ele><time>2026-03-28T12:24:56.869Z</time></trkpt><trkpt lat="45.760814630491176" lon="9.606103590740965"><ele>318.75</ele><time>2026-03-28T12:24:57.869Z</time></trkpt><trkpt lat="45.76071823317283" lon="9.606311868626312"><ele>320.0</ele><time>2026-03-28T12:24:58.868Z</time></trkpt><trkpt lat="45.76059576738656" lon="9.606572262758888"><ele>320.0</ele><time>2026-03-28T12:24:59.868Z</time></trkpt><trkpt lat="45.76040426082749" lon="9.606823028414938"><ele>320.0</ele><time>2026-03-28T12:25:00.868Z</time></trkpt><trkpt lat="45.76026596361006" lon="9.607130894143397"><ele>319.6666666666667</ele><time>2026-03-28T12:25:01.869Z</time></trkpt><trkpt lat="45.76014266849879" lon="9.607404821834114"><ele>319.3333333333333</ele><time>2026-03-28T12:25:02.869Z</time></trkpt><trkpt lat="45.76002791018398" lon="9.60765687351238"><ele>319.0</ele><time>2026-03-28T12:25:03.869Z</time></trkpt><trkpt lat="45.759914202200655" lon="9.60789011615581"><ele>319.0</ele><time>2026-03-28T12:25:04.869Z</time></trkpt><trkpt lat="45.75979246358536" lon="9.608102564648979"><ele>319.0</ele><time>2026-03-28T12:25:05.869Z</time></trkpt><trkpt lat="45.7596661602126" lon="9.608290160327174"><ele>319.0</ele><time>2026-03-28T12:25:06.869Z</time></trkpt><trkpt lat="45.75953671634133" lon="9.608452671270646"><ele>319.0</ele><time>2026-03-28T12:25:07.869Z</time></trkpt><trkpt lat="45.7594053663751" lon="9.608590284503702"><ele>319.0</ele><time>2026-03-28T12:25:08.869Z</time></trkpt><trkpt lat="45.75928714393267" lon="9.608703147801712"><ele>319.0</ele><time>2026-03-28T12:25:09.869Z</time></trkpt><trkpt lat="45.75916370604935" lon="9.608799868054646"><ele>319.0</ele><time>2026-03-28T12:25:10.868Z</time></trkpt><trkpt lat="45.759035216918654" lon="9.608883791815089"><ele>315.66666666666663</ele><time>2026-03-28T12:25:11.868Z</time></trkpt><trkpt lat="45.758906314540624" lon="9.608955113695027"><ele>312.3333333333333</ele><time>2026-03-28T12:25:12.868Z</time></trkpt><trkpt lat="45.75876090286122" lon="9.609023062291715"><ele>309.0</ele><time>2026-03-28T12:25:13.868Z</time></trkpt><trkpt lat="45.75860311282392" lon="9.609076762517168"><ele>301.6666666666667</ele><time>2026-03-28T12:25:14.868Z</time></trkpt><trkpt lat="45.7584418838438" lon="9.60912049256674"><ele>294.33333333333337</ele><time>2026-03-28T12:25:15.868Z</time></trkpt><trkpt lat="45.75825486445066" lon="9.609167605059092"><ele>287.0</ele><time>2026-03-28T12:25:16.868Z</time></trkpt><trkpt lat="45.75805644960327" lon="9.60921676488454"><ele>287.0</ele><time>2026-03-28T12:25:17.868Z</time></trkpt><trkpt lat="45.75786682931362" lon="9.60926220996037"><ele>287.0</ele><time>2026-03-28T12:25:18.868Z</time></trkpt><trkpt lat="45.757684957688554" lon="9.609308554362816"><ele>287.0</ele><time>2026-03-28T12:25:19.868Z</time></trkpt><trkpt lat="45.757510796254856" lon="9.6093664571956"><ele>283.0</ele><time>2026-03-28T12:25:20.868Z</time></trkpt><trkpt lat="45.75733686270501" lon="9.609443145666928"><ele>279.0</ele><time>2026-03-28T12:25:21.868Z</time></trkpt><trkpt lat="45.75713072198142" lon="9.609568337707636"><ele>275.0</ele><time>2026-03-28T12:25:22.868Z</time></trkpt><trkpt lat="45.75691273438149" lon="9.609737229669152"><ele>283.5</ele><time>2026-03-28T12:25:23.868Z</time></trkpt><trkpt lat="45.75669300069678" lon="9.609941282359388"><ele>292.0</ele><time>2026-03-28T12:25:24.868Z</time></trkpt><trkpt lat="45.756494818113126" lon="9.610129120850806"><ele>292.0</ele><time>2026-03-28T12:25:25.868Z</time></trkpt><trkpt lat="45.756305570871916" lon="9.610295649714917"><ele>292.0</ele><time>2026-03-28T12:25:26.868Z</time></trkpt><trkpt lat="45.756114873803746" lon="9.610437551070536"><ele>292.0</ele><time>2026-03-28T12:25:27.868Z</time></trkpt><trkpt lat="45.75592132801117" lon="9.6105570874231"><ele>291.0</ele><time>2026-03-28T12:25:28.868Z</time></trkpt><trkpt lat="45.755725698801534" lon="9.610651498585698"><ele>290.0</ele><time>2026-03-28T12:25:29.868Z</time></trkpt><trkpt lat="45.75553678862309" lon="9.610744498912725"><ele>289.0</ele><time>2026-03-28T12:25:30.868Z</time></trkpt><trkpt lat="45.755348993063556" lon="9.610770885021976"><ele>287.3333333333333</ele><time>2026-03-28T12:25:31.868Z</time></trkpt><trkpt lat="45.75517456553065" lon="9.610837784487572"><ele>285.6666666666667</ele><time>2026-03-28T12:25:32.868Z</time></trkpt><trkpt lat="45.75500593280716" lon="9.610876105332345"><ele>284.0</ele><time>2026-03-28T12:25:33.868Z</time></trkpt><trkpt lat="45.75483842294967" lon="9.610898928992215"><ele>284.0</ele><time>2026-03-28T12:25:34.868Z</time></trkpt><trkpt lat="45.75467722078125" lon="9.610938870694488"><ele>284.0</ele><time>2026-03-28T12:25:35.868Z</time></trkpt><trkpt lat="45.754513701742496" lon="9.610978128633038"><ele>284.0</ele><time>2026-03-28T12:25:36.868Z</time></trkpt><trkpt lat="45.75435930776066" lon="9.611025176820549"><ele>285.0</ele><time>2026-03-28T12:25:37.868Z</time></trkpt><trkpt lat="45.75419466176004" lon="9.611026880807799"><ele>286.0</ele><time>2026-03-28T12:25:38.868Z</time></trkpt><trkpt lat="45.75402605594806" lon="9.611004032993549"><ele>287.0</ele><time>2026-03-28T12:25:39.868Z</time></trkpt><trkpt lat="45.75385642223464" lon="9.610969404952336"><ele>287.0</ele><time>2026-03-28T12:25:40.868Z</time></trkpt><trkpt lat="45.75368547896342" lon="9.610930882949015"><ele>287.0</ele><time>2026-03-28T12:25:41.868Z</time></trkpt><trkpt lat="45.75351322742944" lon="9.610906296086167"><ele>287.0</ele><time>2026-03-28T12:25:42.868Z</time></trkpt><trkpt lat="45.753337451436806" lon="9.610889910201138"><ele>288.0</ele><time>2026-03-28T12:25:43.868Z</time></trkpt><trkpt lat="45.75316243856156" lon="9.610902798769397"><ele>289.0</ele><time>2026-03-28T12:25:44.868Z</time></trkpt><trkpt lat="45.75299058694036" lon="9.610943039893797"><ele>290.0</ele><time>2026-03-28T12:25:45.868Z</time></trkpt><trkpt lat="45.75281776686525" lon="9.611003125163489"><ele>290.33333333333337</ele><time>2026-03-28T12:25:46.868Z</time></trkpt><trkpt lat="45.7526596935353" lon="9.611071485251239"><ele>290.6666666666667</ele><time>2026-03-28T12:25:47.868Z</time></trkpt><trkpt lat="45.75251511298855" lon="9.61113482305952"><ele>291.0</ele><time>2026-03-28T12:25:48.868Z</time></trkpt><trkpt lat="45.75237648186802" lon="9.611196425182918"><ele>292.3333333333333</ele><time>2026-03-28T12:25:49.868Z</time></trkpt><trkpt lat="45.752236522127966" lon="9.61125867140031"><ele>293.66666666666663</ele><time>2026-03-28T12:25:50.868Z</time></trkpt><trkpt lat="45.7520861104477" lon="9.611325804510786"><ele>295.0</ele><time>2026-03-28T12:25:51.868Z</time></trkpt><trkpt lat="45.75193431919739" lon="9.611392784644993"><ele>293.3333333333333</ele><time>2026-03-28T12:25:52.868Z</time></trkpt><trkpt lat="45.751784171724665" lon="9.61145918650891"><ele>291.6666666666667</ele><time>2026-03-28T12:25:53.868Z</time></trkpt><trkpt lat="45.75163699263455" lon="9.611524275579743"><ele>290.0</ele><time>2026-03-28T12:25:54.868Z</time></trkpt><trkpt lat="45.751484053352236" lon="9.61159191202062"><ele>290.0</ele><time>2026-03-28T12:25:55.868Z</time></trkpt><trkpt lat="45.75133029311954" lon="9.611659911503915"><ele>290.0</ele><time>2026-03-28T12:25:56.868Z</time></trkpt><trkpt lat="45.75118606584416" lon="9.611723695081928"><ele>290.0</ele><time>2026-03-28T12:25:57.868Z</time></trkpt><trkpt lat="45.75105659478802" lon="9.611780188116292"><ele>290.0</ele><time>2026-03-28T12:25:58.868Z</time></trkpt><trkpt lat="45.750935472622274" lon="9.611833033406972"><ele>289.6</ele><time>2026-03-28T12:25:59.868Z</time></trkpt><trkpt lat="45.75084291781448" lon="9.611873356615725"><ele>289.2</ele><time>2026-03-28T12:26:00.868Z</time></trkpt><trkpt lat="45.75076860834331" lon="9.611905671979718"><ele>288.8</ele><time>2026-03-28T12:26:01.868Z</time></trkpt><trkpt lat="45.75070731631942" lon="9.61193232628526"><ele>288.4</ele><time>2026-03-28T12:26:02.868Z</time></trkpt><trkpt lat="45.7506368190552" lon="9.61188284016577"><ele>288.0</ele><time>2026-03-28T12:26:04.868Z</time></trkpt><trkpt lat="45.75066305652846" lon="9.611679674121442"><ele>288.0</ele><time>2026-03-28T12:26:06.868Z</time></trkpt><trkpt lat="45.75067632002148" lon="9.611569511925428"><ele>288.0</ele><time>2026-03-28T12:26:07.868Z</time></trkpt><trkpt lat="45.750685863071325" lon="9.611431805746182"><ele>288.0</ele><time>2026-03-28T12:26:08.868Z</time></trkpt><trkpt lat="45.75069507977339" lon="9.61128241036348"><ele>288.0</ele><time>2026-03-28T12:26:09.868Z</time></trkpt><trkpt lat="45.75071597769333" lon="9.611145172963004"><ele>288.0</ele><time>2026-03-28T12:26:10.868Z</time></trkpt><trkpt lat="45.75074151780384" lon="9.610985809293743"><ele>287.0</ele><time>2026-03-28T12:26:11.868Z</time></trkpt><trkpt lat="45.7507626973986" lon="9.610828150362664"><ele>286.0</ele><time>2026-03-28T12:26:12.868Z</time></trkpt><trkpt lat="45.75077660061573" lon="9.610680965798313"><ele>285.0</ele><time>2026-03-28T12:26:13.868Z</time></trkpt><trkpt lat="45.75077154307848" lon="9.61054561832195"><ele>284.0</ele><time>2026-03-28T12:26:14.868Z</time></trkpt><trkpt lat="45.750722971188445" lon="9.610429599223547"><ele>283.0</ele><time>2026-03-28T12:26:15.868Z</time></trkpt><trkpt lat="45.750639898351" lon="9.61035440799393"><ele>280.66666666666663</ele><time>2026-03-28T12:26:16.868Z</time></trkpt><trkpt lat="45.750524771505624" lon="9.610315238913715"><ele>278.3333333333333</ele><time>2026-03-28T12:26:17.868Z</time></trkpt><trkpt lat="45.750370526298745" lon="9.610260588158319"><ele>276.0</ele><time>2026-03-28T12:26:18.868Z</time></trkpt><trkpt lat="45.75020061561204" lon="9.610216327352951"><ele>276.0</ele><time>2026-03-28T12:26:19.868Z</time></trkpt><trkpt lat="45.75003850153747" lon="9.61017422034503"><ele>276.0</ele><time>2026-03-28T12:26:20.868Z</time></trkpt><trkpt lat="45.749882383042845" lon="9.61013445222289"><ele>276.0</ele><time>2026-03-28T12:26:21.868Z</time></trkpt><trkpt lat="45.7497370783355" lon="9.610099390672355"><ele>276.0</ele><time>2026-03-28T12:26:22.868Z</time></trkpt><trkpt lat="45.74959612434035" lon="9.61006347526356"><ele>276.0</ele><time>2026-03-28T12:26:23.868Z</time></trkpt><trkpt lat="45.749458718799794" lon="9.610026999519027"><ele>276.0</ele><time>2026-03-28T12:26:24.868Z</time></trkpt><trkpt lat="45.74932509413332" lon="9.609993717469216"><ele>276.0</ele><time>2026-03-28T12:26:25.868Z</time></trkpt><trkpt lat="45.74919394414047" lon="9.609961463613987"><ele>275.6</ele><time>2026-03-28T12:26:26.868Z</time></trkpt><trkpt lat="45.7490779503802" lon="9.609933307680908"><ele>275.20000000000005</ele><time>2026-03-28T12:26:27.868Z</time></trkpt><trkpt lat="45.74899587700727" lon="9.609912749248716"><ele>274.79999999999995</ele><time>2026-03-28T12:26:28.868Z</time></trkpt><trkpt lat="45.74893176094618" lon="9.609886906773765"><ele>274.4</ele><time>2026-03-28T12:26:29.868Z</time></trkpt><trkpt lat="45.748893021325785" lon="9.609765232392638"><ele>274.0</ele><time>2026-03-28T12:26:31.868Z</time></trkpt><trkpt lat="45.749001654745065" lon="9.609677657440654"><ele>274.0</ele><time>2026-03-28T12:26:33.868Z</time></trkpt><trkpt lat="45.74910770479229" lon="9.609708813957349"><ele>274.0</ele><time>2026-03-28T12:26:34.868Z</time></trkpt><trkpt lat="45.749255641018124" lon="9.609754676727933"><ele>274.0</ele><time>2026-03-28T12:26:35.868Z</time></trkpt><trkpt lat="45.749417381117816" lon="9.60974000208627"><ele>274.0</ele><time>2026-03-28T12:26:36.867Z</time></trkpt><trkpt lat="45.74959744166034" lon="9.609746388915173"><ele>274.66666666666663</ele><time>2026-03-28T12:26:37.867Z</time></trkpt><trkpt lat="45.7497622048107" lon="9.609731083645615"><ele>275.3333333333333</ele><time>2026-03-28T12:26:38.867Z</time></trkpt><trkpt lat="45.749929591675155" lon="9.609717847284092"><ele>276.0</ele><time>2026-03-28T12:26:39.867Z</time></trkpt><trkpt lat="45.750110760041316" lon="9.609700170659478"><ele>274.3333333333333</ele><time>2026-03-28T12:26:40.867Z</time></trkpt><trkpt lat="45.750290080432954" lon="9.609684805711838"><ele>272.66666666666663</ele><time>2026-03-28T12:26:41.867Z</time></trkpt><trkpt lat="45.75046089553871" lon="9.609675757670495"><ele>271.0</ele><time>2026-03-28T12:26:42.867Z</time></trkpt><trkpt lat="45.75062453859299" lon="9.60966979146169"><ele>271.0</ele><time>2026-03-28T12:26:43.867Z</time></trkpt><trkpt lat="45.750767875507115" lon="9.609652550564617"><ele>271.0</ele><time>2026-03-28T12:26:44.867Z</time></trkpt><trkpt lat="45.75086969838931" lon="9.609633263653302"><ele>271.0</ele><time>2026-03-28T12:26:45.867Z</time></trkpt><trkpt lat="45.75093848136714" lon="9.609606173235179"><ele>271.0</ele><time>2026-03-28T12:26:46.867Z</time></trkpt><trkpt lat="45.75098890439229" lon="9.609439733446926"><ele>271.0</ele><time>2026-03-28T12:26:48.867Z</time></trkpt><trkpt lat="45.75103279937462" lon="9.609345727234146"><ele>269.0</ele><time>2026-03-28T12:26:49.867Z</time></trkpt><trkpt lat="45.751074104243564" lon="9.60925800975771"><ele>267.0</ele><time>2026-03-28T12:26:50.867Z</time></trkpt><trkpt lat="45.751121636628056" lon="9.609135689125555"><ele>265.0</ele><time>2026-03-28T12:26:51.867Z</time></trkpt><trkpt lat="45.751147030579666" lon="9.609006799027439"><ele>263.0</ele><time>2026-03-28T12:26:52.867Z</time></trkpt><trkpt lat="45.75112632162242" lon="9.60885595616996"><ele>261.0</ele><time>2026-03-28T12:26:53.867Z</time></trkpt><trkpt lat="45.75106184474015" lon="9.608680493559229"><ele>258.5</ele><time>2026-03-28T12:26:54.867Z</time></trkpt><trkpt lat="45.750994243112835" lon="9.608503830074627"><ele>256.0</ele><time>2026-03-28T12:26:55.867Z</time></trkpt><trkpt lat="45.75093963883736" lon="9.608335492712829"><ele>253.5</ele><time>2026-03-28T12:26:56.867Z</time></trkpt><trkpt lat="45.75088237889733" lon="9.608180982551108"><ele>251.0</ele><time>2026-03-28T12:26:57.866Z</time></trkpt><trkpt lat="45.75083497401156" lon="9.608058298059998"><ele>251.0</ele><time>2026-03-28T12:26:58.866Z</time></trkpt><trkpt lat="45.75079174116178" lon="9.60795248109943"><ele>251.00000000000003</ele><time>2026-03-28T12:26:59.866Z</time></trkpt><trkpt lat="45.75075675970758" lon="9.607870087372461"><ele>251.00000000000003</ele><time>2026-03-28T12:27:00.866Z</time></trkpt><trkpt lat="45.750710055786186" lon="9.60774585904112"><ele>251.0</ele><time>2026-03-28T12:27:03.865Z</time></trkpt><trkpt lat="45.75072725727658" lon="9.607634289007816"><ele>251.0</ele><time>2026-03-28T12:27:04.866Z</time></trkpt><trkpt lat="45.75078133104586" lon="9.607454561846817"><ele>251.0</ele><time>2026-03-28T12:27:05.866Z</time></trkpt><trkpt lat="45.750838942237614" lon="9.607247023346552"><ele>251.0</ele><time>2026-03-28T12:27:06.866Z</time></trkpt><trkpt lat="45.750889769237496" lon="9.607004126827144"><ele>251.0</ele><time>2026-03-28T12:27:07.865Z</time></trkpt><trkpt lat="45.75092642205352" lon="9.60678213406545"><ele>251.0</ele><time>2026-03-28T12:27:08.865Z</time></trkpt><trkpt lat="45.75096565053562" lon="9.606566576491593"><ele>251.0</ele><time>2026-03-28T12:27:09.866Z</time></trkpt><trkpt lat="45.75100363660915" lon="9.606343030902051"><ele>251.0</ele><time>2026-03-28T12:27:10.866Z</time></trkpt><trkpt lat="45.75103421447013" lon="9.60610895617114"><ele>251.0</ele><time>2026-03-28T12:27:11.866Z</time></trkpt><trkpt lat="45.751044386219554" lon="9.605877560919408"><ele>251.0</ele><time>2026-03-28T12:27:12.866Z</time></trkpt><trkpt lat="45.75102503657209" lon="9.605630175437721"><ele>251.0</ele><time>2026-03-28T12:27:13.866Z</time></trkpt><trkpt lat="45.750979754324284" lon="9.605367210552926"><ele>251.0</ele><time>2026-03-28T12:27:14.866Z</time></trkpt><trkpt lat="45.75090255156393" lon="9.60507188221511"><ele>251.0</ele><time>2026-03-28T12:27:15.866Z</time></trkpt><trkpt lat="45.75084923503082" lon="9.60479109055566"><ele>251.0</ele><time>2026-03-28T12:27:16.866Z</time></trkpt><trkpt lat="45.75079540842458" lon="9.60453590377328"><ele>251.0</ele><time>2026-03-28T12:27:17.866Z</time></trkpt><trkpt lat="45.75073803379294" lon="9.604297548823467"><ele>251.0</ele><time>2026-03-28T12:27:18.866Z</time></trkpt><trkpt lat="45.75068923779759" lon="9.604071049812958"><ele>251.0</ele><time>2026-03-28T12:27:19.866Z</time></trkpt><trkpt lat="45.750643972397405" lon="9.603856988331556"><ele>251.0</ele><time>2026-03-28T12:27:20.866Z</time></trkpt><trkpt lat="45.75059631327552" lon="9.603652704837781"><ele>251.0</ele><time>2026-03-28T12:27:21.866Z</time></trkpt><trkpt lat="45.75055584022744" lon="9.603460093100368"><ele>251.0</ele><time>2026-03-28T12:27:22.866Z</time></trkpt><trkpt lat="45.75052295737767" lon="9.603313028928795"><ele>251.0</ele><time>2026-03-28T12:27:23.866Z</time></trkpt><trkpt lat="45.75049659781469" lon="9.603198629388853"><ele>251.00000000000003</ele><time>2026-03-28T12:27:24.866Z</time></trkpt><trkpt lat="45.75047348548156" lon="9.60309458473764"><ele>251.0</ele><time>2026-03-28T12:27:25.866Z</time></trkpt><trkpt lat="45.75045654953845" lon="9.60298782816261"><ele>251.0</ele><time>2026-03-28T12:27:26.866Z</time></trkpt><trkpt lat="45.75047040549447" lon="9.602885002112457"><ele>251.0</ele><time>2026-03-28T12:27:27.866Z</time></trkpt><trkpt lat="45.75052464356621" lon="9.602801370901487"><ele>251.00000000000003</ele><time>2026-03-28T12:27:28.866Z</time></trkpt><trkpt lat="45.750623807150674" lon="9.602727105987771"><ele>251.0</ele><time>2026-03-28T12:27:29.866Z</time></trkpt><trkpt lat="45.75074540748223" lon="9.602656648519533"><ele>252.25</ele><time>2026-03-28T12:27:30.866Z</time></trkpt><trkpt lat="45.7508459168415" lon="9.602564181992562"><ele>253.5</ele><time>2026-03-28T12:27:31.866Z</time></trkpt><trkpt lat="45.75092579951582" lon="9.602467597083297"><ele>254.75</ele><time>2026-03-28T12:27:32.866Z</time></trkpt><trkpt lat="45.751008396411095" lon="9.602331584224364"><ele>256.0</ele><time>2026-03-28T12:27:33.866Z</time></trkpt><trkpt lat="45.75107929131234" lon="9.602172954834572"><ele>256.0</ele><time>2026-03-28T12:27:34.866Z</time></trkpt><trkpt lat="45.75114136682972" lon="9.602026344196345"><ele>256.0</ele><time>2026-03-28T12:27:35.866Z</time></trkpt><trkpt lat="45.75121225139857" lon="9.60188375743533"><ele>256.0</ele><time>2026-03-28T12:27:36.866Z</time></trkpt><trkpt lat="45.75128721638733" lon="9.601781992446098"><ele>256.0</ele><time>2026-03-28T12:27:37.866Z</time></trkpt><trkpt lat="45.75139604287951" lon="9.601721210917677"><ele>255.99999999999997</ele><time>2026-03-28T12:27:38.866Z</time></trkpt><trkpt lat="45.75149889309812" lon="9.601730739811718"><ele>256.0</ele><time>2026-03-28T12:27:39.866Z</time></trkpt><trkpt lat="45.751580662400066" lon="9.601795271636869"><ele>256.0</ele><time>2026-03-28T12:27:40.866Z</time></trkpt><trkpt lat="45.751644718510875" lon="9.601890952109446"><ele>256.0</ele><time>2026-03-28T12:27:41.866Z</time></trkpt><trkpt lat="45.75169343039514" lon="9.601964330777873"><ele>255.99999999999997</ele><time>2026-03-28T12:27:42.866Z</time></trkpt><trkpt lat="45.75175914964348" lon="9.602001267868673"><ele>256.0</ele><time>2026-03-28T12:27:43.866Z</time></trkpt><trkpt lat="45.751828449011356" lon="9.601995530454623"><ele>259.0</ele><time>2026-03-28T12:27:44.866Z</time></trkpt><trkpt lat="45.75189241902936" lon="9.60193449937954"><ele>262.0</ele><time>2026-03-28T12:27:45.866Z</time></trkpt><trkpt lat="45.75193392519075" lon="9.601831103276318"><ele>265.0</ele><time>2026-03-28T12:27:46.866Z</time></trkpt><trkpt lat="45.751913723406695" lon="9.601697339385252"><ele>268.0</ele><time>2026-03-28T12:27:47.866Z</time></trkpt><trkpt lat="45.7518412444613" lon="9.601593853480383"><ele>271.0</ele><time>2026-03-28T12:27:48.866Z</time></trkpt><trkpt lat="45.75172669660284" lon="9.601540931655746"><ele>271.0</ele><time>2026-03-28T12:27:49.866Z</time></trkpt><trkpt lat="45.75159247136217" lon="9.601480760362044"><ele>271.0</ele><time>2026-03-28T12:27:50.866Z</time></trkpt><trkpt lat="45.7514787892639" lon="9.601426088245885"><ele>271.0</ele><time>2026-03-28T12:27:51.866Z</time></trkpt><trkpt lat="45.751365444262376" lon="9.60141027428206"><ele>271.0</ele><time>2026-03-28T12:27:52.866Z</time></trkpt><trkpt lat="45.75124348215387" lon="9.601465412202563"><ele>271.0</ele><time>2026-03-28T12:27:53.866Z</time></trkpt><trkpt lat="45.75113047111449" lon="9.601587986829268"><ele>271.0</ele><time>2026-03-28T12:27:54.866Z</time></trkpt><trkpt lat="45.75102678666705" lon="9.60171396072903"><ele>271.0</ele><time>2026-03-28T12:27:55.866Z</time></trkpt><trkpt lat="45.75092039418118" lon="9.601831112349897"><ele>271.0</ele><time>2026-03-28T12:27:56.866Z</time></trkpt><trkpt lat="45.750809494757156" lon="9.6019451654551"><ele>268.0</ele><time>2026-03-28T12:27:57.866Z</time></trkpt><trkpt lat="45.75069066433698" lon="9.602037137867143"><ele>265.0</ele><time>2026-03-28T12:27:58.866Z</time></trkpt><trkpt lat="45.750570567221025" lon="9.60210356681793"><ele>262.0</ele><time>2026-03-28T12:27:59.866Z</time></trkpt><trkpt lat="45.75043744722577" lon="9.602141243684196"><ele>259.0</ele><time>2026-03-28T12:28:00.866Z</time></trkpt><trkpt lat="45.750324551326756" lon="9.60215158778148"><ele>259.0</ele><time>2026-03-28T12:28:01.866Z</time></trkpt><trkpt lat="45.750217239597596" lon="9.602148330040443"><ele>259.0</ele><time>2026-03-28T12:28:02.865Z</time></trkpt><trkpt lat="45.7501023603127" lon="9.602139805955497"><ele>259.0</ele><time>2026-03-28T12:28:03.865Z</time></trkpt><trkpt lat="45.749980375662844" lon="9.602116722307853"><ele>259.0</ele><time>2026-03-28T12:28:04.865Z</time></trkpt><trkpt lat="45.74985741506482" lon="9.60210842209964"><ele>261.4</ele><time>2026-03-28T12:28:05.865Z</time></trkpt><trkpt lat="45.749745331038405" lon="9.60209434453858"><ele>263.79999999999995</ele><time>2026-03-28T12:28:06.865Z</time></trkpt><trkpt lat="45.74964301052238" lon="9.602075248006559"><ele>266.20000000000005</ele><time>2026-03-28T12:28:07.865Z</time></trkpt><trkpt lat="45.74954946909644" lon="9.602062037209118"><ele>268.6</ele><time>2026-03-28T12:28:08.865Z</time></trkpt><trkpt lat="45.74945691513995" lon="9.602062417882015"><ele>271.0</ele><time>2026-03-28T12:28:09.865Z</time></trkpt><trkpt lat="45.74934705464216" lon="9.602060300838358"><ele>271.66666666666663</ele><time>2026-03-28T12:28:10.865Z</time></trkpt><trkpt lat="45.74920632406193" lon="9.602065360031338"><ele>272.3333333333333</ele><time>2026-03-28T12:28:11.865Z</time></trkpt><trkpt lat="45.74904999769297" lon="9.60208091504143"><ele>273.0</ele><time>2026-03-28T12:28:12.865Z</time></trkpt><trkpt lat="45.74889170394758" lon="9.60209276337109"><ele>273.0</ele><time>2026-03-28T12:28:13.865Z</time></trkpt><trkpt lat="45.74875282401819" lon="9.60210553627161"><ele>273.0</ele><time>2026-03-28T12:28:14.865Z</time></trkpt><trkpt lat="45.74864145060362" lon="9.602099232046175"><ele>273.0</ele><time>2026-03-28T12:28:15.865Z</time></trkpt><trkpt lat="45.748541669683426" lon="9.602063944083651"><ele>273.0</ele><time>2026-03-28T12:28:16.865Z</time></trkpt><trkpt lat="45.748453424883024" lon="9.601967694357851"><ele>274.0</ele><time>2026-03-28T12:28:17.865Z</time></trkpt><trkpt lat="45.74837929830973" lon="9.601818429331633"><ele>275.0</ele><time>2026-03-28T12:28:18.865Z</time></trkpt><trkpt lat="45.74833137287581" lon="9.601654239450234"><ele>276.0</ele><time>2026-03-28T12:28:19.865Z</time></trkpt><trkpt lat="45.74830836431137" lon="9.60147045828176"><ele>277.0</ele><time>2026-03-28T12:28:20.865Z</time></trkpt><trkpt lat="45.748296617671734" lon="9.601331155250737"><ele>277.0</ele><time>2026-03-28T12:28:21.865Z</time></trkpt><trkpt lat="45.74836143913618" lon="9.601218811879278"><ele>277.0</ele><time>2026-03-28T12:28:22.865Z</time></trkpt><trkpt lat="45.748449050784636" lon="9.601144130262195"><ele>277.0</ele><time>2026-03-28T12:28:23.865Z</time></trkpt><trkpt lat="45.748551252703926" lon="9.601114692786632"><ele>277.0</ele><time>2026-03-28T12:28:24.865Z</time></trkpt><trkpt lat="45.74865511314117" lon="9.601125010290284"><ele>277.0</ele><time>2026-03-28T12:28:25.865Z</time></trkpt><trkpt lat="45.74873149953364" lon="9.601179216035792"><ele>277.0</ele><time>2026-03-28T12:28:26.865Z</time></trkpt><trkpt lat="45.74876814805301" lon="9.601370692300097"><ele>277.0</ele><time>2026-03-28T12:28:28.865Z</time></trkpt><trkpt lat="45.7487445735708" lon="9.60148334357466"><ele>277.0</ele><time>2026-03-28T12:28:29.865Z</time></trkpt><trkpt lat="45.74868269559772" lon="9.601562847319304"><ele>277.0</ele><time>2026-03-28T12:28:30.865Z</time></trkpt><trkpt lat="45.748598167137516" lon="9.601590564872657"><ele>277.0</ele><time>2026-03-28T12:28:31.865Z</time></trkpt><trkpt lat="45.74852464069735" lon="9.601575168834286"><ele>277.0</ele><time>2026-03-28T12:28:32.865Z</time></trkpt><trkpt lat="45.748386445040296" lon="9.601584247829281"><ele>277.0</ele><time>2026-03-28T12:28:34.865Z</time></trkpt><trkpt lat="45.74824635412951" lon="9.601583257253187"><ele>277.0</ele><time>2026-03-28T12:28:35.865Z</time></trkpt><trkpt lat="45.74805707652954" lon="9.601567028680957"><ele>277.0</ele><time>2026-03-28T12:28:36.865Z</time></trkpt><trkpt lat="45.74785101687049" lon="9.601547055139413"><ele>277.0</ele><time>2026-03-28T12:28:37.865Z</time></trkpt><trkpt lat="45.747667621915596" lon="9.60152911848219"><ele>277.0</ele><time>2026-03-28T12:28:38.865Z</time></trkpt><trkpt lat="45.747483734553356" lon="9.601508141286144"><ele>277.0</ele><time>2026-03-28T12:28:39.865Z</time></trkpt><trkpt lat="45.74730127583066" lon="9.60148475971477"><ele>277.0</ele><time>2026-03-28T12:28:40.865Z</time></trkpt><trkpt lat="45.74710911741352" lon="9.601456931713109"><ele>277.0</ele><time>2026-03-28T12:28:41.865Z</time></trkpt><trkpt lat="45.746923535198256" lon="9.601429517735292"><ele>277.0</ele><time>2026-03-28T12:28:42.865Z</time></trkpt><trkpt lat="45.74673456666584" lon="9.601396179988397"><ele>277.0</ele><time>2026-03-28T12:28:43.865Z</time></trkpt><trkpt lat="45.74652704563609" lon="9.601359060668017"><ele>277.0</ele><time>2026-03-28T12:28:44.865Z</time></trkpt><trkpt lat="45.7463192780133" lon="9.601312307543555"><ele>277.0</ele><time>2026-03-28T12:28:45.865Z</time></trkpt><trkpt lat="45.74612795525631" lon="9.60127430293815"><ele>277.0</ele><time>2026-03-28T12:28:46.865Z</time></trkpt><trkpt lat="45.745938243869716" lon="9.601226656979932"><ele>277.0</ele><time>2026-03-28T12:28:47.865Z</time></trkpt><trkpt lat="45.74574121199446" lon="9.60117555217863"><ele>276.0</ele><time>2026-03-28T12:28:48.865Z</time></trkpt><trkpt lat="45.745553545845866" lon="9.601135168323049"><ele>275.0</ele><time>2026-03-28T12:28:49.865Z</time></trkpt><trkpt lat="45.745387339182365" lon="9.601091700566888"><ele>274.0</ele><time>2026-03-28T12:28:50.865Z</time></trkpt><trkpt lat="45.74523952462512" lon="9.601049461385708"><ele>274.25</ele><time>2026-03-28T12:28:51.865Z</time></trkpt><trkpt lat="45.745105541583015" lon="9.601012636521737"><ele>274.5</ele><time>2026-03-28T12:28:52.865Z</time></trkpt><trkpt lat="45.74497710311672" lon="9.600969100587333"><ele>274.75</ele><time>2026-03-28T12:28:53.865Z</time></trkpt><trkpt lat="45.7448593167584" lon="9.600940288813254"><ele>275.0</ele><time>2026-03-28T12:28:54.865Z</time></trkpt><trkpt lat="45.74474533726687" lon="9.600914979283825"><ele>275.0</ele><time>2026-03-28T12:28:55.865Z</time></trkpt><trkpt lat="45.7446384145915" lon="9.600893826287734"><ele>275.0</ele><time>2026-03-28T12:28:56.865Z</time></trkpt><trkpt lat="45.74453346774368" lon="9.600874741245205"><ele>275.0</ele><time>2026-03-28T12:28:57.865Z</time></trkpt><trkpt lat="45.74443517422054" lon="9.600853267601751"><ele>275.0</ele><time>2026-03-28T12:28:58.865Z</time></trkpt><trkpt lat="45.74435043849156" lon="9.600832860211781"><ele>275.0</ele><time>2026-03-28T12:28:59.865Z</time></trkpt><trkpt lat="45.744275203460894" lon="9.60082041677627"><ele>274.4</ele><time>2026-03-28T12:29:00.865Z</time></trkpt><trkpt lat="45.744207428702964" lon="9.600805901805225"><ele>273.8</ele><time>2026-03-28T12:29:01.865Z</time></trkpt><trkpt lat="45.74409381299127" lon="9.600774365636235"><ele>273.2</ele><time>2026-03-28T12:29:03.863Z</time></trkpt><trkpt lat="45.74401329711936" lon="9.600760854567252"><ele>272.6</ele><time>2026-03-28T12:29:05.863Z</time></trkpt><trkpt lat="45.743957769486954" lon="9.600706755525007"><ele>272.0</ele><time>2026-03-28T12:29:07.863Z</time></trkpt><trkpt lat="45.74383457082432" lon="9.600696323645682"><ele>272.0</ele><time>2026-03-28T12:29:23.862Z</time></trkpt><trkpt lat="45.743741643797215" lon="9.600666444469233"><ele>272.0</ele><time>2026-03-28T12:29:24.862Z</time></trkpt><trkpt lat="45.74362942953245" lon="9.600641423237365"><ele>272.0</ele><time>2026-03-28T12:29:25.862Z</time></trkpt><trkpt lat="45.74350838954873" lon="9.600613041243893"><ele>272.0</ele><time>2026-03-28T12:29:26.862Z</time></trkpt><trkpt lat="45.743369041491725" lon="9.600581343369466"><ele>271.0</ele><time>2026-03-28T12:29:27.862Z</time></trkpt><trkpt lat="45.74321658111156" lon="9.600521121139618"><ele>270.0</ele><time>2026-03-28T12:29:28.862Z</time></trkpt><trkpt lat="45.74303344374343" lon="9.600474894966206"><ele>269.0</ele><time>2026-03-28T12:29:29.862Z</time></trkpt><trkpt lat="45.742859207933755" lon="9.600467739715738"><ele>268.75</ele><time>2026-03-28T12:29:30.862Z</time></trkpt><trkpt lat="45.74270549207289" lon="9.600426386192549"><ele>268.5</ele><time>2026-03-28T12:29:31.862Z</time></trkpt><trkpt lat="45.74256655828716" lon="9.600376361071907"><ele>268.25</ele><time>2026-03-28T12:29:32.862Z</time></trkpt><trkpt lat="45.74243526278005" lon="9.600304548255824"><ele>268.0</ele><time>2026-03-28T12:29:33.862Z</time></trkpt><trkpt lat="45.742308410748706" lon="9.60021239188517"><ele>269.0</ele><time>2026-03-28T12:29:34.862Z</time></trkpt><trkpt lat="45.742185425998855" lon="9.600096480000573"><ele>270.0</ele><time>2026-03-28T12:29:35.862Z</time></trkpt><trkpt lat="45.7420741508357" lon="9.599942864748733"><ele>271.0</ele><time>2026-03-28T12:29:36.862Z</time></trkpt><trkpt lat="45.74197741519828" lon="9.599754957581903"><ele>271.0</ele><time>2026-03-28T12:29:37.862Z</time></trkpt><trkpt lat="45.741898729725314" lon="9.599549427369418"><ele>271.0</ele><time>2026-03-28T12:29:38.862Z</time></trkpt><trkpt lat="45.741829767560255" lon="9.59932463162895"><ele>271.0</ele><time>2026-03-28T12:29:39.862Z</time></trkpt><trkpt lat="45.74176390618227" lon="9.59909499862425"><ele>270.66666666666663</ele><time>2026-03-28T12:29:40.862Z</time></trkpt><trkpt lat="45.741694218054626" lon="9.598855156854166"><ele>270.3333333333333</ele><time>2026-03-28T12:29:41.862Z</time></trkpt><trkpt lat="45.74162925868675" lon="9.598619108326083"><ele>270.0</ele><time>2026-03-28T12:29:42.862Z</time></trkpt><trkpt lat="45.74156275989987" lon="9.5983757717232"><ele>270.6666666666667</ele><time>2026-03-28T12:29:43.862Z</time></trkpt><trkpt lat="45.741498574722016" lon="9.598145545727077"><ele>271.33333333333337</ele><time>2026-03-28T12:29:44.862Z</time></trkpt><trkpt lat="45.74143805678372" lon="9.597921132138316"><ele>272.0</ele><time>2026-03-28T12:29:45.862Z</time></trkpt><trkpt lat="45.74138268436317" lon="9.597707301499554"><ele>272.0</ele><time>2026-03-28T12:29:46.862Z</time></trkpt><trkpt lat="45.74132322243043" lon="9.597497541011593"><ele>272.0</ele><time>2026-03-28T12:29:47.862Z</time></trkpt><trkpt lat="45.74126393479976" lon="9.597285536157742"><ele>272.0</ele><time>2026-03-28T12:29:48.862Z</time></trkpt><trkpt lat="45.74120888902029" lon="9.597045534590189"><ele>272.0</ele><time>2026-03-28T12:29:49.862Z</time></trkpt><trkpt lat="45.741166924643466" lon="9.596793473313806"><ele>272.0</ele><time>2026-03-28T12:29:50.862Z</time></trkpt><trkpt lat="45.74114709874229" lon="9.596530800175929"><ele>272.0</ele><time>2026-03-28T12:29:51.862Z</time></trkpt><trkpt lat="45.74114317798085" lon="9.59625073074863"><ele>273.0</ele><time>2026-03-28T12:29:52.862Z</time></trkpt><trkpt lat="45.741150303898614" lon="9.595991709197381"><ele>274.0</ele><time>2026-03-28T12:29:53.862Z</time></trkpt><trkpt lat="45.74115984251072" lon="9.595735630204498"><ele>275.0</ele><time>2026-03-28T12:29:54.862Z</time></trkpt><trkpt lat="45.74117473171716" lon="9.595470808410377"><ele>276.0</ele><time>2026-03-28T12:29:55.862Z</time></trkpt><trkpt lat="45.741189369947044" lon="9.595194159937808"><ele>277.0</ele><time>2026-03-28T12:29:56.862Z</time></trkpt><trkpt lat="45.741205553517865" lon="9.594860965744669"><ele>278.0</ele><time>2026-03-28T12:29:57.862Z</time></trkpt><trkpt lat="45.74122938753441" lon="9.594530315335355"><ele>276.0</ele><time>2026-03-28T12:29:58.862Z</time></trkpt><trkpt lat="45.741259975634996" lon="9.59420555393723"><ele>274.0</ele><time>2026-03-28T12:29:59.862Z</time></trkpt><trkpt lat="45.74128194325509" lon="9.593905991451049"><ele>272.0</ele><time>2026-03-28T12:30:00.862Z</time></trkpt><trkpt lat="45.74129762510156" lon="9.59363543621781"><ele>271.33333333333337</ele><time>2026-03-28T12:30:01.862Z</time></trkpt><trkpt lat="45.74131457068704" lon="9.593385035313833"><ele>270.6666666666667</ele><time>2026-03-28T12:30:02.862Z</time></trkpt><trkpt lat="45.741328951039264" lon="9.593154992257531"><ele>270.0</ele><time>2026-03-28T12:30:03.862Z</time></trkpt><trkpt lat="45.741340923484174" lon="9.592936772318788"><ele>272.25</ele><time>2026-03-28T12:30:04.862Z</time></trkpt><trkpt lat="45.74135206634269" lon="9.592740079384054"><ele>274.5</ele><time>2026-03-28T12:30:05.862Z</time></trkpt><trkpt lat="45.741362682296526" lon="9.592567788053723"><ele>276.75</ele><time>2026-03-28T12:30:06.862Z</time></trkpt><trkpt lat="45.74137504516639" lon="9.592393102108304"><ele>279.0</ele><time>2026-03-28T12:30:07.862Z</time></trkpt><trkpt lat="45.7413845994124" lon="9.592226820866438"><ele>279.0</ele><time>2026-03-28T12:30:08.862Z</time></trkpt><trkpt lat="45.7413967622056" lon="9.592042750973565"><ele>279.0</ele><time>2026-03-28T12:30:09.862Z</time></trkpt><trkpt lat="45.741410516818846" lon="9.591860554848857"><ele>279.0</ele><time>2026-03-28T12:30:10.862Z</time></trkpt><trkpt lat="45.741420585750284" lon="9.59169250957227"><ele>279.0</ele><time>2026-03-28T12:30:11.862Z</time></trkpt><trkpt lat="45.741432680117185" lon="9.59146257605068"><ele>282.0</ele><time>2026-03-28T12:30:12.862Z</time></trkpt><trkpt lat="45.741453903266496" lon="9.59116002431173"><ele>285.0</ele><time>2026-03-28T12:30:13.862Z</time></trkpt><trkpt lat="45.74148323995557" lon="9.590826657431558"><ele>288.0</ele><time>2026-03-28T12:30:14.862Z</time></trkpt><trkpt lat="45.74151168409634" lon="9.590465854923101"><ele>288.3333333333333</ele><time>2026-03-28T12:30:15.862Z</time></trkpt><trkpt lat="45.74153414004956" lon="9.590152263771488"><ele>288.66666666666663</ele><time>2026-03-28T12:30:16.862Z</time></trkpt><trkpt lat="45.74155594997783" lon="9.589843816880666"><ele>289.0</ele><time>2026-03-28T12:30:17.862Z</time></trkpt><trkpt lat="45.74157362113084" lon="9.58955493566465"><ele>289.0</ele><time>2026-03-28T12:30:18.862Z</time></trkpt><trkpt lat="45.74158162624718" lon="9.589274403445174"><ele>289.0</ele><time>2026-03-28T12:30:19.862Z</time></trkpt><trkpt lat="45.7415616783413" lon="9.589024476973798"><ele>289.0</ele><time>2026-03-28T12:30:20.862Z</time></trkpt><trkpt lat="45.74150536656647" lon="9.58879389068295"><ele>290.0</ele><time>2026-03-28T12:30:21.862Z</time></trkpt><trkpt lat="45.74141131103561" lon="9.588568271205734"><ele>291.0</ele><time>2026-03-28T12:30:22.862Z</time></trkpt><trkpt lat="45.74127305850565" lon="9.588332259590935"><ele>292.0</ele><time>2026-03-28T12:30:23.862Z</time></trkpt><trkpt lat="45.74111850230816" lon="9.588101577986919"><ele>291.3333333333333</ele><time>2026-03-28T12:30:24.862Z</time></trkpt><trkpt lat="45.74097268992204" lon="9.587896581414679"><ele>290.6666666666667</ele><time>2026-03-28T12:30:25.862Z</time></trkpt><trkpt lat="45.740832794950805" lon="9.587694137508272"><ele>290.0</ele><time>2026-03-28T12:30:26.862Z</time></trkpt><trkpt lat="45.740699204126614" lon="9.587489406153294"><ele>290.0</ele><time>2026-03-28T12:30:27.862Z</time></trkpt><trkpt lat="45.74057991045605" lon="9.587303257925882"><ele>290.0</ele><time>2026-03-28T12:30:28.862Z</time></trkpt><trkpt lat="45.74046034532664" lon="9.587116925692158"><ele>290.0</ele><time>2026-03-28T12:30:29.862Z</time></trkpt><trkpt lat="45.74032104001412" lon="9.586904662304248"><ele>289.6666666666667</ele><time>2026-03-28T12:30:30.862Z</time></trkpt><trkpt lat="45.74017375319575" lon="9.586678434769908"><ele>289.3333333333333</ele><time>2026-03-28T12:30:31.862Z</time></trkpt><trkpt lat="45.740021758614766" lon="9.586453399146825"><ele>289.0</ele><time>2026-03-28T12:30:32.862Z</time></trkpt><trkpt lat="45.73987748516214" lon="9.586237262660505"><ele>289.66666666666663</ele><time>2026-03-28T12:30:33.862Z</time></trkpt><trkpt lat="45.739739807847975" lon="9.586022395909474"><ele>290.3333333333333</ele><time>2026-03-28T12:30:34.862Z</time></trkpt><trkpt lat="45.739600362124136" lon="9.585805327271741"><ele>291.0</ele><time>2026-03-28T12:30:35.862Z</time></trkpt><trkpt lat="45.73945791150314" lon="9.58559188964422"><ele>291.3333333333333</ele><time>2026-03-28T12:30:36.862Z</time></trkpt><trkpt lat="45.73931411928316" lon="9.585374677803445"><ele>291.66666666666663</ele><time>2026-03-28T12:30:37.862Z</time></trkpt><trkpt lat="45.7391700226358" lon="9.585152569745738"><ele>292.0</ele><time>2026-03-28T12:30:38.862Z</time></trkpt><trkpt lat="45.73902170659317" lon="9.584929590519891"><ele>291.3333333333333</ele><time>2026-03-28T12:30:39.862Z</time></trkpt><trkpt lat="45.73887476425629" lon="9.584702178118336"><ele>290.6666666666667</ele><time>2026-03-28T12:30:40.862Z</time></trkpt><trkpt lat="45.73872833661466" lon="9.584476360345523"><ele>290.0</ele><time>2026-03-28T12:30:41.862Z</time></trkpt><trkpt lat="45.73857532908624" lon="9.584242324949194"><ele>289.0</ele><time>2026-03-28T12:30:42.862Z</time></trkpt><trkpt lat="45.738414960225526" lon="9.583994567162918"><ele>288.0</ele><time>2026-03-28T12:30:43.862Z</time></trkpt><trkpt lat="45.73825827631042" lon="9.58374619875941"><ele>287.3333333333333</ele><time>2026-03-28T12:30:44.862Z</time></trkpt><trkpt lat="45.73810277817859" lon="9.583510462028741"><ele>286.66666666666663</ele><time>2026-03-28T12:30:45.862Z</time></trkpt><trkpt lat="45.737943750920614" lon="9.583290404843481"><ele>286.0</ele><time>2026-03-28T12:30:46.862Z</time></trkpt><trkpt lat="45.73779372369818" lon="9.583085447773168"><ele>286.0</ele><time>2026-03-28T12:30:47.861Z</time></trkpt><trkpt lat="45.737652671188144" lon="9.582912025511238"><ele>286.0</ele><time>2026-03-28T12:30:48.861Z</time></trkpt><trkpt lat="45.73751947627936" lon="9.58275603422425"><ele>286.0</ele><time>2026-03-28T12:30:49.861Z</time></trkpt><trkpt lat="45.737399436722434" lon="9.582620083317432"><ele>286.0</ele><time>2026-03-28T12:30:50.861Z</time></trkpt><trkpt lat="45.73729086630585" lon="9.582504991603301"><ele>286.0</ele><time>2026-03-28T12:30:51.861Z</time></trkpt><trkpt lat="45.737199891058886" lon="9.582402818092655"><ele>286.0</ele><time>2026-03-28T12:30:52.861Z</time></trkpt><trkpt lat="45.73712355716398" lon="9.582287002694649"><ele>286.0</ele><time>2026-03-28T12:30:53.861Z</time></trkpt><trkpt lat="45.737059483515054" lon="9.582134193163045"><ele>286.25</ele><time>2026-03-28T12:30:54.861Z</time></trkpt><trkpt lat="45.73699603620275" lon="9.581987891544347"><ele>286.5</ele><time>2026-03-28T12:30:55.861Z</time></trkpt><trkpt lat="45.736906211181356" lon="9.581868393040232"><ele>286.75</ele><time>2026-03-28T12:30:56.861Z</time></trkpt><trkpt lat="45.73677996788626" lon="9.581764236682817"><ele>287.0</ele><time>2026-03-28T12:30:57.861Z</time></trkpt><trkpt lat="45.73663491739938" lon="9.58164082550196"><ele>286.6666666666667</ele><time>2026-03-28T12:30:58.861Z</time></trkpt><trkpt lat="45.7364881066251" lon="9.581478854170365"><ele>286.3333333333333</ele><time>2026-03-28T12:30:59.861Z</time></trkpt><trkpt lat="45.73634526347309" lon="9.581299708013237"><ele>286.0</ele><time>2026-03-28T12:31:00.861Z</time></trkpt><trkpt lat="45.736198443833544" lon="9.581113520206184"><ele>285.0</ele><time>2026-03-28T12:31:01.861Z</time></trkpt><trkpt lat="45.73603426949107" lon="9.580917003389814"><ele>284.0</ele><time>2026-03-28T12:31:02.861Z</time></trkpt><trkpt lat="45.73587160753537" lon="9.580718238089528"><ele>283.0</ele><time>2026-03-28T12:31:03.861Z</time></trkpt><trkpt lat="45.73571367198678" lon="9.580521471237885"><ele>283.66666666666663</ele><time>2026-03-28T12:31:04.861Z</time></trkpt><trkpt lat="45.7355547342458" lon="9.580326900492754"><ele>284.3333333333333</ele><time>2026-03-28T12:31:05.861Z</time></trkpt><trkpt lat="45.735399071176" lon="9.580132668828643"><ele>285.0</ele><time>2026-03-28T12:31:06.861Z</time></trkpt><trkpt lat="45.735242108633166" lon="9.579938557068568"><ele>284.3333333333333</ele><time>2026-03-28T12:31:07.861Z</time></trkpt><trkpt lat="45.73507495198736" lon="9.57973858869209"><ele>283.66666666666663</ele><time>2026-03-28T12:31:08.861Z</time></trkpt><trkpt lat="45.734911541415485" lon="9.579535472946006"><ele>283.0</ele><time>2026-03-28T12:31:09.86Z</time></trkpt><trkpt lat="45.73475459240157" lon="9.579341271142585"><ele>283.0</ele><time>2026-03-28T12:31:10.86Z</time></trkpt><trkpt lat="45.73459801118883" lon="9.579144375972167"><ele>283.0</ele><time>2026-03-28T12:31:11.86Z</time></trkpt><trkpt lat="45.734441243759576" lon="9.578945468402246"><ele>283.0</ele><time>2026-03-28T12:31:12.86Z</time></trkpt><trkpt lat="45.73428213181065" lon="9.578747216440135"><ele>283.3333333333333</ele><time>2026-03-28T12:31:13.86Z</time></trkpt><trkpt lat="45.73412651902953" lon="9.578556864954962"><ele>283.6666666666667</ele><time>2026-03-28T12:31:14.86Z</time></trkpt><trkpt lat="45.73397021870068" lon="9.578358961083485"><ele>284.0</ele><time>2026-03-28T12:31:15.86Z</time></trkpt><trkpt lat="45.733819712197246" lon="9.578168232008935"><ele>284.0</ele><time>2026-03-28T12:31:16.86Z</time></trkpt><trkpt lat="45.73367065042571" lon="9.57798115792453"><ele>284.0</ele><time>2026-03-28T12:31:17.86Z</time></trkpt><trkpt lat="45.73351762246966" lon="9.577784730567151"><ele>284.0</ele><time>2026-03-28T12:31:18.86Z</time></trkpt><trkpt lat="45.73335385009834" lon="9.577587377199885"><ele>283.33333333333337</ele><time>2026-03-28T12:31:19.86Z</time></trkpt><trkpt lat="45.73318967271733" lon="9.577394255490091"><ele>282.6666666666667</ele><time>2026-03-28T12:31:20.86Z</time></trkpt><trkpt lat="45.73303298416951" lon="9.577199482663406"><ele>282.0</ele><time>2026-03-28T12:31:21.86Z</time></trkpt><trkpt lat="45.73287815080752" lon="9.577004896993103"><ele>282.0</ele><time>2026-03-28T12:31:22.86Z</time></trkpt><trkpt lat="45.73271815878878" lon="9.576807748706978"><ele>282.0</ele><time>2026-03-28T12:31:23.86Z</time></trkpt><trkpt lat="45.73255978215338" lon="9.576610126312778"><ele>282.0</ele><time>2026-03-28T12:31:24.86Z</time></trkpt><trkpt lat="45.73240259680859" lon="9.576411505480944"><ele>282.0</ele><time>2026-03-28T12:31:25.86Z</time></trkpt><trkpt lat="45.73224827121375" lon="9.57621568166025"><ele>282.0</ele><time>2026-03-28T12:31:26.86Z</time></trkpt><trkpt lat="45.732091644729145" lon="9.57602180437408"><ele>282.0</ele><time>2026-03-28T12:31:27.86Z</time></trkpt><trkpt lat="45.73193889543093" lon="9.575825549807824"><ele>281.0</ele><time>2026-03-28T12:31:28.86Z</time></trkpt><trkpt lat="45.731786423522465" lon="9.575630112366595"><ele>280.0</ele><time>2026-03-28T12:31:29.86Z</time></trkpt><trkpt lat="45.731625416331134" lon="9.57542893453328"><ele>279.0</ele><time>2026-03-28T12:31:30.86Z</time></trkpt><trkpt lat="45.73145877910465" lon="9.575218842346718"><ele>279.0</ele><time>2026-03-28T12:31:31.86Z</time></trkpt><trkpt lat="45.73130349822503" lon="9.575019707054519"><ele>279.0</ele><time>2026-03-28T12:31:32.86Z</time></trkpt><trkpt lat="45.731159873719946" lon="9.574828209765702"><ele>279.0</ele><time>2026-03-28T12:31:33.86Z</time></trkpt><trkpt lat="45.73101905195133" lon="9.574633552759755"><ele>279.3333333333333</ele><time>2026-03-28T12:31:34.86Z</time></trkpt><trkpt lat="45.73087746338191" lon="9.574436611031516"><ele>279.66666666666663</ele><time>2026-03-28T12:31:35.86Z</time></trkpt><trkpt lat="45.73073813182698" lon="9.574254734333682"><ele>280.0</ele><time>2026-03-28T12:31:36.86Z</time></trkpt><trkpt lat="45.73060084423479" lon="9.574079789162322"><ele>280.0</ele><time>2026-03-28T12:31:37.86Z</time></trkpt><trkpt lat="45.730478491406274" lon="9.573906427074684"><ele>280.0</ele><time>2026-03-28T12:31:38.86Z</time></trkpt><trkpt lat="45.73036824270165" lon="9.57372487134945"><ele>280.0</ele><time>2026-03-28T12:31:39.86Z</time></trkpt><trkpt lat="45.73026854818254" lon="9.573533191469695"><ele>279.66666666666663</ele><time>2026-03-28T12:31:40.86Z</time></trkpt><trkpt lat="45.73018024918762" lon="9.573333539246422"><ele>279.3333333333333</ele><time>2026-03-28T12:31:41.86Z</time></trkpt><trkpt lat="45.73010202799879" lon="9.57312881026697"><ele>279.0</ele><time>2026-03-28T12:31:42.86Z</time></trkpt><trkpt lat="45.73002802421539" lon="9.572895936453783"><ele>279.3333333333333</ele><time>2026-03-28T12:31:43.86Z</time></trkpt><trkpt lat="45.72995848480174" lon="9.57262173751254"><ele>279.66666666666663</ele><time>2026-03-28T12:31:44.86Z</time></trkpt><trkpt lat="45.72989086174626" lon="9.572305814757398"><ele>280.0</ele><time>2026-03-28T12:31:45.86Z</time></trkpt><trkpt lat="45.72982114083526" lon="9.571968359547938"><ele>281.5</ele><time>2026-03-28T12:31:46.86Z</time></trkpt><trkpt lat="45.72974944391066" lon="9.571635360671511"><ele>283.0</ele><time>2026-03-28T12:31:47.86Z</time></trkpt><trkpt lat="45.7296879829504" lon="9.571335260665718"><ele>283.0</ele><time>2026-03-28T12:31:48.86Z</time></trkpt><trkpt lat="45.72963469851838" lon="9.571059465877761"><ele>283.0</ele><time>2026-03-28T12:31:49.86Z</time></trkpt><trkpt lat="45.72958365638369" lon="9.570772483483271"><ele>283.0</ele><time>2026-03-28T12:31:50.86Z</time></trkpt><trkpt lat="45.729530637664176" lon="9.570485279649787"><ele>282.0</ele><time>2026-03-28T12:31:51.86Z</time></trkpt><trkpt lat="45.729475200394816" lon="9.570203662610343"><ele>281.0</ele><time>2026-03-28T12:31:52.86Z</time></trkpt><trkpt lat="45.729415456491395" lon="9.56992170640546"><ele>280.0</ele><time>2026-03-28T12:31:53.86Z</time></trkpt><trkpt lat="45.72936167297477" lon="9.569644078040607"><ele>278.3333333333333</ele><time>2026-03-28T12:31:54.86Z</time></trkpt><trkpt lat="45.729311937426694" lon="9.569368825166089"><ele>276.6666666666667</ele><time>2026-03-28T12:31:55.86Z</time></trkpt><trkpt lat="45.72925993186816" lon="9.569084540363153"><ele>275.0</ele><time>2026-03-28T12:31:56.86Z</time></trkpt><trkpt lat="45.72920544102262" lon="9.568799016120018"><ele>276.33333333333337</ele><time>2026-03-28T12:31:57.86Z</time></trkpt><trkpt lat="45.729152725915604" lon="9.568517823860264"><ele>277.6666666666667</ele><time>2026-03-28T12:31:58.86Z</time></trkpt><trkpt lat="45.729106963232866" lon="9.568253006218347"><ele>279.0</ele><time>2026-03-28T12:31:59.86Z</time></trkpt><trkpt lat="45.729056818557915" lon="9.56798438114314"><ele>279.3333333333333</ele><time>2026-03-28T12:32:00.859Z</time></trkpt><trkpt lat="45.72900084274534" lon="9.56771699129044"><ele>279.66666666666663</ele><time>2026-03-28T12:32:01.859Z</time></trkpt><trkpt lat="45.72894545487744" lon="9.567453677292711"><ele>280.0</ele><time>2026-03-28T12:32:02.859Z</time></trkpt><trkpt lat="45.72889221377473" lon="9.56719153587205"><ele>280.0</ele><time>2026-03-28T12:32:03.859Z</time></trkpt><trkpt lat="45.728843678610694" lon="9.566942676761162"><ele>280.0</ele><time>2026-03-28T12:32:04.859Z</time></trkpt><trkpt lat="45.7288024356701" lon="9.566701953048062"><ele>280.0</ele><time>2026-03-28T12:32:05.859Z</time></trkpt><trkpt lat="45.72876844348964" lon="9.566466436535348"><ele>280.0</ele><time>2026-03-28T12:32:06.859Z</time></trkpt><trkpt lat="45.728743012918144" lon="9.566230916807372"><ele>280.0</ele><time>2026-03-28T12:32:07.859Z</time></trkpt><trkpt lat="45.728716007882525" lon="9.565976881133318"><ele>280.0</ele><time>2026-03-28T12:32:08.859Z</time></trkpt><trkpt lat="45.72869501849632" lon="9.565735487185595"><ele>280.66666666666663</ele><time>2026-03-28T12:32:09.859Z</time></trkpt><trkpt lat="45.728682569239" lon="9.565506831895384"><ele>281.3333333333333</ele><time>2026-03-28T12:32:10.859Z</time></trkpt><trkpt lat="45.72867185640602" lon="9.565276404560876"><ele>282.0</ele><time>2026-03-28T12:32:11.859Z</time></trkpt><trkpt lat="45.72866611379274" lon="9.565054170449326"><ele>282.0</ele><time>2026-03-28T12:32:12.859Z</time></trkpt><trkpt lat="45.7286640109494" lon="9.564835043802987"><ele>282.0</ele><time>2026-03-28T12:32:13.859Z</time></trkpt><trkpt lat="45.72866644067548" lon="9.56461803150696"><ele>282.0</ele><time>2026-03-28T12:32:14.859Z</time></trkpt><trkpt lat="45.72866979424771" lon="9.564409325327514"><ele>282.0</ele><time>2026-03-28T12:32:15.859Z</time></trkpt><trkpt lat="45.72867781569702" lon="9.564191956386782"><ele>282.0</ele><time>2026-03-28T12:32:16.859Z</time></trkpt><trkpt lat="45.72868979101207" lon="9.563968302297257"><ele>282.0</ele><time>2026-03-28T12:32:17.859Z</time></trkpt><trkpt lat="45.72870232088295" lon="9.563748468438076"><ele>281.6666666666667</ele><time>2026-03-28T12:32:18.859Z</time></trkpt><trkpt lat="45.728715195673416" lon="9.563513814043105"><ele>281.33333333333337</ele><time>2026-03-28T12:32:19.859Z</time></trkpt><trkpt lat="45.72873224976641" lon="9.563281483327767"><ele>281.0</ele><time>2026-03-28T12:32:20.859Z</time></trkpt><trkpt lat="45.72874673809177" lon="9.563066501791551"><ele>281.0</ele><time>2026-03-28T12:32:21.859Z</time></trkpt><trkpt lat="45.72876654708728" lon="9.562865191788035"><ele>281.0</ele><time>2026-03-28T12:32:22.859Z</time></trkpt><trkpt lat="45.72877811714973" lon="9.562672647954813"><ele>281.0</ele><time>2026-03-28T12:32:23.859Z</time></trkpt><trkpt lat="45.72878235063131" lon="9.562490896984118"><ele>281.0</ele><time>2026-03-28T12:32:24.859Z</time></trkpt><trkpt lat="45.728782358066645" lon="9.562324289078619"><ele>281.0</ele><time>2026-03-28T12:32:25.859Z</time></trkpt><trkpt lat="45.72875619757183" lon="9.56215738848268"><ele>281.0</ele><time>2026-03-28T12:32:26.859Z</time></trkpt><trkpt lat="45.72877323306432" lon="9.562007606193047"><ele>281.0</ele><time>2026-03-28T12:32:27.859Z</time></trkpt><trkpt lat="45.728784421330054" lon="9.561857228155171"><ele>281.0</ele><time>2026-03-28T12:32:28.859Z</time></trkpt><trkpt lat="45.72880635417412" lon="9.561708797633486"><ele>281.0</ele><time>2026-03-28T12:32:29.859Z</time></trkpt><trkpt lat="45.72886114850677" lon="9.561590232798766"><ele>280.8</ele><time>2026-03-28T12:32:30.859Z</time></trkpt><trkpt lat="45.728862670496795" lon="9.561448596757085"><ele>280.6</ele><time>2026-03-28T12:32:31.859Z</time></trkpt><trkpt lat="45.72884105660133" lon="9.561297470540865"><ele>280.4</ele><time>2026-03-28T12:32:32.859Z</time></trkpt><trkpt lat="45.72881316906555" lon="9.561138030327456"><ele>280.2</ele><time>2026-03-28T12:32:33.859Z</time></trkpt><trkpt lat="45.72880519651479" lon="9.560975309804446"><ele>280.0</ele><time>2026-03-28T12:32:34.859Z</time></trkpt><trkpt lat="45.72879528743292" lon="9.560784158635657"><ele>280.0</ele><time>2026-03-28T12:32:35.859Z</time></trkpt><trkpt lat="45.728825805609176" lon="9.560565343721196"><ele>280.0</ele><time>2026-03-28T12:32:36.859Z</time></trkpt><trkpt lat="45.72883200066213" lon="9.560336052494435"><ele>280.0</ele><time>2026-03-28T12:32:37.859Z</time></trkpt><trkpt lat="45.728829874413364" lon="9.560092237761593"><ele>280.3333333333333</ele><time>2026-03-28T12:32:38.859Z</time></trkpt><trkpt lat="45.72883113791962" lon="9.559837916528227"><ele>280.6666666666667</ele><time>2026-03-28T12:32:39.859Z</time></trkpt><trkpt lat="45.72882648290822" lon="9.559598266735604"><ele>281.0</ele><time>2026-03-28T12:32:40.859Z</time></trkpt><trkpt lat="45.72881166413995" lon="9.55936447478354"><ele>280.33333333333337</ele><time>2026-03-28T12:32:41.859Z</time></trkpt><trkpt lat="45.72878600697241" lon="9.559147413979147"><ele>279.6666666666667</ele><time>2026-03-28T12:32:42.859Z</time></trkpt><trkpt lat="45.72874605883559" lon="9.558938759977666"><ele>279.0</ele><time>2026-03-28T12:32:43.859Z</time></trkpt><trkpt lat="45.72869690783044" lon="9.55872858123656"><ele>280.0</ele><time>2026-03-28T12:32:44.859Z</time></trkpt><trkpt lat="45.728650293132915" lon="9.55852385556575"><ele>281.0</ele><time>2026-03-28T12:32:45.859Z</time></trkpt><trkpt lat="45.72860938733381" lon="9.558312966159043"><ele>282.0</ele><time>2026-03-28T12:32:46.859Z</time></trkpt><trkpt lat="45.72856251655607" lon="9.558103113010292"><ele>280.75</ele><time>2026-03-28T12:32:47.859Z</time></trkpt><trkpt lat="45.72850909650203" lon="9.557892713402909"><ele>279.5</ele><time>2026-03-28T12:32:48.859Z</time></trkpt><trkpt lat="45.72846151438036" lon="9.557692824829635"><ele>278.25</ele><time>2026-03-28T12:32:49.859Z</time></trkpt><trkpt lat="45.728419686008685" lon="9.557498102112723"><ele>277.0</ele><time>2026-03-28T12:32:50.859Z</time></trkpt><trkpt lat="45.72838301718399" lon="9.557310546876991"><ele>277.0</ele><time>2026-03-28T12:32:51.859Z</time></trkpt><trkpt lat="45.72835569584235" lon="9.557123873075952"><ele>277.0</ele><time>2026-03-28T12:32:52.859Z</time></trkpt><trkpt lat="45.72833035056836" lon="9.556941739166056"><ele>277.0</ele><time>2026-03-28T12:32:53.859Z</time></trkpt><trkpt lat="45.72831071961533" lon="9.556778298779898"><ele>277.0</ele><time>2026-03-28T12:32:54.859Z</time></trkpt><trkpt lat="45.72829811097986" lon="9.556620978596065"><ele>277.6</ele><time>2026-03-28T12:32:55.859Z</time></trkpt><trkpt lat="45.72829208884475" lon="9.556472391362286"><ele>278.2</ele><time>2026-03-28T12:32:56.859Z</time></trkpt><trkpt lat="45.72829072676058" lon="9.55632892918093"><ele>278.8</ele><time>2026-03-28T12:32:57.859Z</time></trkpt><trkpt lat="45.72828821141636" lon="9.556181505710713"><ele>279.4</ele><time>2026-03-28T12:32:58.859Z</time></trkpt><trkpt lat="45.72828417564146" lon="9.55602409209681"><ele>280.0</ele><time>2026-03-28T12:32:59.859Z</time></trkpt><trkpt lat="45.728279436736216" lon="9.555868806198333"><ele>280.0</ele><time>2026-03-28T12:33:00.859Z</time></trkpt><trkpt lat="45.72827395876137" lon="9.555730378684057"><ele>280.0</ele><time>2026-03-28T12:33:01.859Z</time></trkpt><trkpt lat="45.72826893999614" lon="9.555597400276564"><ele>280.0</ele><time>2026-03-28T12:33:02.859Z</time></trkpt><trkpt lat="45.72826602015039" lon="9.555466195191338"><ele>280.0</ele><time>2026-03-28T12:33:03.859Z</time></trkpt><trkpt lat="45.72827247079023" lon="9.555341377733617"><ele>280.0</ele><time>2026-03-28T12:33:04.859Z</time></trkpt><trkpt lat="45.728301093305134" lon="9.55521649290474"><ele>278.8</ele><time>2026-03-28T12:33:05.859Z</time></trkpt><trkpt lat="45.72835819315936" lon="9.555090218859316"><ele>277.6</ele><time>2026-03-28T12:33:06.859Z</time></trkpt><trkpt lat="45.728402557929236" lon="9.554971298909107"><ele>276.4</ele><time>2026-03-28T12:33:07.859Z</time></trkpt><trkpt lat="45.728398558396506" lon="9.554850341444949"><ele>275.2</ele><time>2026-03-28T12:33:08.859Z</time></trkpt><trkpt lat="45.728358452391284" lon="9.554743238602493"><ele>274.0</ele><time>2026-03-28T12:33:09.859Z</time></trkpt><trkpt lat="45.72828071414879" lon="9.554674076380763"><ele>274.0</ele><time>2026-03-28T12:33:10.859Z</time></trkpt><trkpt lat="45.72819737722331" lon="9.554643856934543"><ele>274.0</ele><time>2026-03-28T12:33:11.859Z</time></trkpt><trkpt lat="45.72812138089362" lon="9.554727882394582"><ele>274.0</ele><time>2026-03-28T12:33:12.859Z</time></trkpt><trkpt lat="45.72806268532154" lon="9.554814848639715"><ele>274.0</ele><time>2026-03-28T12:33:13.859Z</time></trkpt><trkpt lat="45.72799894438027" lon="9.554877721534837"><ele>274.0</ele><time>2026-03-28T12:33:14.859Z</time></trkpt><trkpt lat="45.72791398203244" lon="9.554936885047189"><ele>274.0</ele><time>2026-03-28T12:33:15.857Z</time></trkpt><trkpt lat="45.72780990922925" lon="9.554981543863313"><ele>273.25</ele><time>2026-03-28T12:33:16.857Z</time></trkpt><trkpt lat="45.72769113395358" lon="9.554991599693716"><ele>272.5</ele><time>2026-03-28T12:33:17.857Z</time></trkpt><trkpt lat="45.727558617525276" lon="9.55499304609349"><ele>271.75</ele><time>2026-03-28T12:33:18.857Z</time></trkpt><trkpt lat="45.72743647072422" lon="9.55498809205519"><ele>271.0</ele><time>2026-03-28T12:33:19.857Z</time></trkpt><trkpt lat="45.727327133930615" lon="9.554967223650548"><ele>271.0</ele><time>2026-03-28T12:33:20.857Z</time></trkpt><trkpt lat="45.72721370336715" lon="9.554940782244376"><ele>271.0</ele><time>2026-03-28T12:33:21.857Z</time></trkpt><trkpt lat="45.72710603467905" lon="9.554893786033796"><ele>271.0</ele><time>2026-03-28T12:33:22.857Z</time></trkpt><trkpt lat="45.72700997450561" lon="9.554826531407288"><ele>271.0</ele><time>2026-03-28T12:33:23.857Z</time></trkpt><trkpt lat="45.726905251942014" lon="9.55474348082734"><ele>270.75</ele><time>2026-03-28T12:33:24.857Z</time></trkpt><trkpt lat="45.72681258782666" lon="9.554639820594284"><ele>270.5</ele><time>2026-03-28T12:33:25.857Z</time></trkpt><trkpt lat="45.726725258527715" lon="9.554522514397819"><ele>270.25</ele><time>2026-03-28T12:33:26.857Z</time></trkpt><trkpt lat="45.72663535020005" lon="9.554399284271451"><ele>270.0</ele><time>2026-03-28T12:33:27.857Z</time></trkpt><trkpt lat="45.72654952141847" lon="9.554266328135926"><ele>270.0</ele><time>2026-03-28T12:33:28.856Z</time></trkpt><trkpt lat="45.72647306966543" lon="9.554114051277638"><ele>270.0</ele><time>2026-03-28T12:33:29.856Z</time></trkpt><trkpt lat="45.72641046957084" lon="9.553948458023378"><ele>270.0</ele><time>2026-03-28T12:33:30.856Z</time></trkpt><trkpt lat="45.72634775888879" lon="9.553768680200015"><ele>270.0</ele><time>2026-03-28T12:33:31.856Z</time></trkpt><trkpt lat="45.72626809855405" lon="9.553565673730384"><ele>270.3333333333333</ele><time>2026-03-28T12:33:32.856Z</time></trkpt><trkpt lat="45.72619372743117" lon="9.553363456719426"><ele>270.66666666666663</ele><time>2026-03-28T12:33:33.856Z</time></trkpt><trkpt lat="45.72612347409429" lon="9.553170717976935"><ele>271.0</ele><time>2026-03-28T12:33:34.856Z</time></trkpt><trkpt lat="45.72605311092188" lon="9.55298994998085"><ele>271.0</ele><time>2026-03-28T12:33:35.856Z</time></trkpt><trkpt lat="45.725968724816944" lon="9.552834205240185"><ele>271.0</ele><time>2026-03-28T12:33:36.856Z</time></trkpt><trkpt lat="45.72587449816544" lon="9.552707566980576"><ele>271.0</ele><time>2026-03-28T12:33:37.856Z</time></trkpt><trkpt lat="45.725787044479496" lon="9.552580773470995"><ele>271.0</ele><time>2026-03-28T12:33:38.856Z</time></trkpt><trkpt lat="45.725683612427346" lon="9.552479768984757"><ele>271.0</ele><time>2026-03-28T12:33:39.856Z</time></trkpt><trkpt lat="45.72558657929441" lon="9.552404536759278"><ele>271.0</ele><time>2026-03-28T12:33:40.856Z</time></trkpt><trkpt lat="45.72549692807957" lon="9.552336151989696"><ele>271.0</ele><time>2026-03-28T12:33:41.856Z</time></trkpt><trkpt lat="45.72541500644565" lon="9.552283657019439"><ele>271.0</ele><time>2026-03-28T12:33:42.856Z</time></trkpt><trkpt lat="45.725342386082964" lon="9.552238419096797"><ele>271.0</ele><time>2026-03-28T12:33:43.856Z</time></trkpt><trkpt lat="45.72527976273185" lon="9.552200205326391"><ele>271.0</ele><time>2026-03-28T12:33:44.856Z</time></trkpt><trkpt lat="45.72521619821022" lon="9.552160022369048"><ele>270.8</ele><time>2026-03-28T12:33:46.856Z</time></trkpt><trkpt lat="45.725158020945145" lon="9.552120849359632"><ele>270.6</ele><time>2026-03-28T12:33:53.856Z</time></trkpt><trkpt lat="45.72508626937286" lon="9.552063045948765"><ele>270.4</ele><time>2026-03-28T12:33:55.856Z</time></trkpt><trkpt lat="45.725054248723886" lon="9.551843176906118"><ele>270.2</ele><time>2026-03-28T12:33:57.856Z</time></trkpt><trkpt lat="45.72506574502331" lon="9.551700322941148"><ele>270.0</ele><time>2026-03-28T12:33:58.856Z</time></trkpt><trkpt lat="45.72510912269076" lon="9.551535255407721"><ele>270.0</ele><time>2026-03-28T12:33:59.856Z</time></trkpt><trkpt lat="45.72519599960723" lon="9.55136889774535"><ele>270.0</ele><time>2026-03-28T12:34:00.856Z</time></trkpt><trkpt lat="45.72531634644467" lon="9.551180317008177"><ele>270.0</ele><time>2026-03-28T12:34:01.856Z</time></trkpt><trkpt lat="45.725446408137145" lon="9.550982815812478"><ele>270.0</ele><time>2026-03-28T12:34:02.856Z</time></trkpt><trkpt lat="45.72556034379103" lon="9.550801816377625"><ele>270.0</ele><time>2026-03-28T12:34:03.856Z</time></trkpt><trkpt lat="45.72567173978728" lon="9.550628128960637"><ele>270.0</ele><time>2026-03-28T12:34:04.856Z</time></trkpt><trkpt lat="45.72578799097955" lon="9.550462855657297"><ele>269.6666666666667</ele><time>2026-03-28T12:34:05.856Z</time></trkpt><trkpt lat="45.72589668444466" lon="9.550311681460698"><ele>269.33333333333337</ele><time>2026-03-28T12:34:06.856Z</time></trkpt><trkpt lat="45.72600894253185" lon="9.550154977809788"><ele>269.0</ele><time>2026-03-28T12:34:07.856Z</time></trkpt><trkpt lat="45.72612244304475" lon="9.54999267008937"><ele>269.6666666666667</ele><time>2026-03-28T12:34:08.856Z</time></trkpt><trkpt lat="45.72623706079164" lon="9.549825549478237"><ele>270.3333333333333</ele><time>2026-03-28T12:34:09.856Z</time></trkpt><trkpt lat="45.72635215543256" lon="9.549653223407484"><ele>271.0</ele><time>2026-03-28T12:34:10.856Z</time></trkpt><trkpt lat="45.7264702108336" lon="9.549472132715897"><ele>271.3333333333333</ele><time>2026-03-28T12:34:11.856Z</time></trkpt><trkpt lat="45.726580560099855" lon="9.549290675537154"><ele>271.6666666666667</ele><time>2026-03-28T12:34:12.856Z</time></trkpt><trkpt lat="45.726682562692154" lon="9.549089025236585"><ele>272.0</ele><time>2026-03-28T12:34:13.856Z</time></trkpt><trkpt lat="45.726772954363305" lon="9.548877804379018"><ele>271.6666666666667</ele><time>2026-03-28T12:34:14.856Z</time></trkpt><trkpt lat="45.72685261503478" lon="9.548657897649552"><ele>271.3333333333333</ele><time>2026-03-28T12:34:15.856Z</time></trkpt><trkpt lat="45.72692469405497" lon="9.548425422067586"><ele>271.0</ele><time>2026-03-28T12:34:16.856Z</time></trkpt><trkpt lat="45.726983762438856" lon="9.54819648791277"><ele>272.3333333333333</ele><time>2026-03-28T12:34:17.856Z</time></trkpt><trkpt lat="45.72703187944218" lon="9.547961100834003"><ele>273.6666666666667</ele><time>2026-03-28T12:34:18.856Z</time></trkpt><trkpt lat="45.727064755630096" lon="9.547731499345401"><ele>275.0</ele><time>2026-03-28T12:34:19.856Z</time></trkpt><trkpt lat="45.72708793334253" lon="9.547469057155068"><ele>275.0</ele><time>2026-03-28T12:34:20.856Z</time></trkpt><trkpt lat="45.72709984048045" lon="9.547190364409069"><ele>275.0</ele><time>2026-03-28T12:34:21.856Z</time></trkpt><trkpt lat="45.72711696422033" lon="9.54690666400855"><ele>275.0</ele><time>2026-03-28T12:34:22.857Z</time></trkpt><trkpt lat="45.727136721311965" lon="9.546625636397636"><ele>274.6666666666667</ele><time>2026-03-28T12:34:23.86Z</time></trkpt><trkpt lat="45.72715908009891" lon="9.546339210467378"><ele>274.3333333333333</ele><time>2026-03-28T12:34:24.862Z</time></trkpt><trkpt lat="45.727181147731656" lon="9.546057571478066"><ele>274.0</ele><time>2026-03-28T12:34:25.864Z</time></trkpt><trkpt lat="45.72720783922392" lon="9.545778543419381"><ele>274.0</ele><time>2026-03-28T12:34:26.865Z</time></trkpt><trkpt lat="45.72723833799288" lon="9.545492332651916"><ele>274.0</ele><time>2026-03-28T12:34:27.867Z</time></trkpt><trkpt lat="45.72726677742493" lon="9.545188677292147"><ele>274.0</ele><time>2026-03-28T12:34:28.869Z</time></trkpt><trkpt lat="45.72729582986651" lon="9.544885756899127"><ele>273.66666666666663</ele><time>2026-03-28T12:34:29.87Z</time></trkpt><trkpt lat="45.727325197833956" lon="9.544597109133631"><ele>273.3333333333333</ele><time>2026-03-28T12:34:30.872Z</time></trkpt><trkpt lat="45.72735172866059" lon="9.544315184437039"><ele>273.0</ele><time>2026-03-28T12:34:31.873Z</time></trkpt><trkpt lat="45.72737865400471" lon="9.544029435065706"><ele>273.0</ele><time>2026-03-28T12:34:32.874Z</time></trkpt><trkpt lat="45.7274049143455" lon="9.543747008185626"><ele>273.0</ele><time>2026-03-28T12:34:33.875Z</time></trkpt><trkpt lat="45.72742564409824" lon="9.543464284394506"><ele>273.0</ele><time>2026-03-28T12:34:34.877Z</time></trkpt><trkpt lat="45.727440131755095" lon="9.543177635145247"><ele>273.0</ele><time>2026-03-28T12:34:35.878Z</time></trkpt><trkpt lat="45.727452636477004" lon="9.542892856879766"><ele>273.0</ele><time>2026-03-28T12:34:36.879Z</time></trkpt><trkpt lat="45.727463375838944" lon="9.542609672569808"><ele>273.0</ele><time>2026-03-28T12:34:37.879Z</time></trkpt><trkpt lat="45.7274686511971" lon="9.542326991344728"><ele>273.6666666666667</ele><time>2026-03-28T12:34:38.88Z</time></trkpt><trkpt lat="45.72746982665307" lon="9.542045577744744"><ele>274.33333333333337</ele><time>2026-03-28T12:34:39.881Z</time></trkpt><trkpt lat="45.72746695042606" lon="9.541759136633297"><ele>275.0</ele><time>2026-03-28T12:34:40.882Z</time></trkpt><trkpt lat="45.72745996624166" lon="9.541472758265646"><ele>275.6666666666667</ele><time>2026-03-28T12:34:41.882Z</time></trkpt><trkpt lat="45.72744970676499" lon="9.541182819115777"><ele>276.3333333333333</ele><time>2026-03-28T12:34:42.883Z</time></trkpt><trkpt lat="45.72743501352459" lon="9.540885063528652"><ele>277.0</ele><time>2026-03-28T12:34:43.884Z</time></trkpt><trkpt lat="45.72742044146353" lon="9.54060420830011"><ele>277.0</ele><time>2026-03-28T12:34:44.884Z</time></trkpt><trkpt lat="45.727402614873256" lon="9.540341815948853"><ele>277.0</ele><time>2026-03-28T12:34:45.885Z</time></trkpt><trkpt lat="45.72738644046907" lon="9.540079129234586"><ele>277.0</ele><time>2026-03-28T12:34:46.885Z</time></trkpt><trkpt lat="45.727366644631495" lon="9.53981403793138"><ele>277.66666666666663</ele><time>2026-03-28T12:34:47.886Z</time></trkpt><trkpt lat="45.72735116304738" lon="9.53953374711698"><ele>278.3333333333333</ele><time>2026-03-28T12:34:48.886Z</time></trkpt><trkpt lat="45.72733239127265" lon="9.539256805290286"><ele>279.0</ele><time>2026-03-28T12:34:49.887Z</time></trkpt><trkpt lat="45.72731024582727" lon="9.538979421318814"><ele>279.0</ele><time>2026-03-28T12:34:50.887Z</time></trkpt><trkpt lat="45.72728579973937" lon="9.53870766739306"><ele>279.0</ele><time>2026-03-28T12:34:51.887Z</time></trkpt><trkpt lat="45.727264472038954" lon="9.538431661164827"><ele>279.0</ele><time>2026-03-28T12:34:52.888Z</time></trkpt><trkpt lat="45.72724492148045" lon="9.538150720965824"><ele>278.6666666666667</ele><time>2026-03-28T12:34:53.888Z</time></trkpt><trkpt lat="45.727224082840934" lon="9.537868809110277"><ele>278.33333333333337</ele><time>2026-03-28T12:34:54.888Z</time></trkpt><trkpt lat="45.727205848572346" lon="9.537581313200114"><ele>278.0</ele><time>2026-03-28T12:34:55.889Z</time></trkpt><trkpt lat="45.72718561173155" lon="9.53728592313493"><ele>278.6666666666667</ele><time>2026-03-28T12:34:56.889Z</time></trkpt><trkpt lat="45.72716734197803" lon="9.537009049231617"><ele>279.3333333333333</ele><time>2026-03-28T12:34:57.889Z</time></trkpt><trkpt lat="45.72715108181838" lon="9.536741385596905"><ele>280.0</ele><time>2026-03-28T12:34:58.889Z</time></trkpt><trkpt lat="45.72713510674167" lon="9.536481269177195"><ele>280.0</ele><time>2026-03-28T12:34:59.89Z</time></trkpt><trkpt lat="45.72712445709576" lon="9.536228133253763"><ele>280.0</ele><time>2026-03-28T12:35:00.89Z</time></trkpt><trkpt lat="45.727126725960225" lon="9.535980453106054"><ele>280.0</ele><time>2026-03-28T12:35:01.89Z</time></trkpt><trkpt lat="45.727140042370046" lon="9.535732193619422"><ele>280.0</ele><time>2026-03-28T12:35:02.89Z</time></trkpt><trkpt lat="45.72716039313491" lon="9.535455321458844"><ele>280.0</ele><time>2026-03-28T12:35:03.89Z</time></trkpt><trkpt lat="45.7271909984224" lon="9.535171959707498"><ele>280.0</ele><time>2026-03-28T12:35:04.891Z</time></trkpt><trkpt lat="45.727236955628086" lon="9.534923437000641"><ele>280.66666666666663</ele><time>2026-03-28T12:35:05.891Z</time></trkpt><trkpt lat="45.727296218373006" lon="9.534682053586524"><ele>281.3333333333333</ele><time>2026-03-28T12:35:06.891Z</time></trkpt><trkpt lat="45.72736530660004" lon="9.534432158976363"><ele>282.0</ele><time>2026-03-28T12:35:07.891Z</time></trkpt><trkpt lat="45.72744124657119" lon="9.534186227809874"><ele>282.0</ele><time>2026-03-28T12:35:08.891Z</time></trkpt><trkpt lat="45.72752465022799" lon="9.533948539196908"><ele>282.0</ele><time>2026-03-28T12:35:09.891Z</time></trkpt><trkpt lat="45.727615339797865" lon="9.533714362494171"><ele>282.0</ele><time>2026-03-28T12:35:10.891Z</time></trkpt><trkpt lat="45.72770923438037" lon="9.533479669929102"><ele>283.0</ele><time>2026-03-28T12:35:11.891Z</time></trkpt><trkpt lat="45.72780217586533" lon="9.533248162325416"><ele>284.0</ele><time>2026-03-28T12:35:12.891Z</time></trkpt><trkpt lat="45.72789156297278" lon="9.5330302895916"><ele>285.0</ele><time>2026-03-28T12:35:13.892Z</time></trkpt><trkpt lat="45.72797874724494" lon="9.532820619326952"><ele>285.0</ele><time>2026-03-28T12:35:14.892Z</time></trkpt><trkpt lat="45.72806929957138" lon="9.532602997265778"><ele>285.0</ele><time>2026-03-28T12:35:15.892Z</time></trkpt><trkpt lat="45.72816689552237" lon="9.53237849313035"><ele>285.0</ele><time>2026-03-28T12:35:16.892Z</time></trkpt><trkpt lat="45.72826327552147" lon="9.532156071695972"><ele>285.6666666666667</ele><time>2026-03-28T12:35:17.892Z</time></trkpt><trkpt lat="45.72836050062763" lon="9.5319226207389"><ele>286.33333333333337</ele><time>2026-03-28T12:35:18.892Z</time></trkpt><trkpt lat="45.72846364899496" lon="9.531672344913645"><ele>287.0</ele><time>2026-03-28T12:35:19.892Z</time></trkpt><trkpt lat="45.72856516076059" lon="9.53142735031837"><ele>287.6666666666667</ele><time>2026-03-28T12:35:20.892Z</time></trkpt><trkpt lat="45.72865777317087" lon="9.531197024208579"><ele>288.3333333333333</ele><time>2026-03-28T12:35:21.891Z</time></trkpt><trkpt lat="45.728736976922356" lon="9.531004712874234"><ele>289.0</ele><time>2026-03-28T12:35:22.891Z</time></trkpt><trkpt lat="45.728813976226974" lon="9.53082342510998"><ele>289.0</ele><time>2026-03-28T12:35:23.891Z</time></trkpt><trkpt lat="45.72889391615292" lon="9.530649739513333"><ele>289.0</ele><time>2026-03-28T12:35:24.891Z</time></trkpt><trkpt lat="45.72896850401603" lon="9.530473641964422"><ele>289.0</ele><time>2026-03-28T12:35:25.891Z</time></trkpt><trkpt lat="45.72904880515303" lon="9.530262305444307"><ele>288.66666666666663</ele><time>2026-03-28T12:35:26.891Z</time></trkpt><trkpt lat="45.72914901674513" lon="9.530022127090907"><ele>288.3333333333333</ele><time>2026-03-28T12:35:27.891Z</time></trkpt><trkpt lat="45.72924802359775" lon="9.529770896455462"><ele>288.0</ele><time>2026-03-28T12:35:28.891Z</time></trkpt><trkpt lat="45.72933278124571" lon="9.52950611211879"><ele>288.6666666666667</ele><time>2026-03-28T12:35:29.891Z</time></trkpt><trkpt lat="45.72941036901388" lon="9.529235207596326"><ele>289.33333333333337</ele><time>2026-03-28T12:35:30.891Z</time></trkpt><trkpt lat="45.729479091007114" lon="9.528966613649732"><ele>290.0</ele><time>2026-03-28T12:35:31.892Z</time></trkpt><trkpt lat="45.72954055825486" lon="9.528687934564102"><ele>290.0</ele><time>2026-03-28T12:35:32.892Z</time></trkpt><trkpt lat="45.72960288053458" lon="9.528386514513029"><ele>290.0</ele><time>2026-03-28T12:35:33.891Z</time></trkpt><trkpt lat="45.729661693319024" lon="9.528085064870444"><ele>290.0</ele><time>2026-03-28T12:35:34.891Z</time></trkpt><trkpt lat="45.72971323107944" lon="9.52779280586288"><ele>290.0</ele><time>2026-03-28T12:35:35.891Z</time></trkpt><trkpt lat="45.729759273477036" lon="9.527525235002205"><ele>290.0</ele><time>2026-03-28T12:35:36.891Z</time></trkpt><trkpt lat="45.729807319400976" lon="9.527281093527293"><ele>290.0</ele><time>2026-03-28T12:35:37.891Z</time></trkpt><trkpt lat="45.729856635062944" lon="9.527048592620464"><ele>289.6666666666667</ele><time>2026-03-28T12:35:38.891Z</time></trkpt><trkpt lat="45.729908256504686" lon="9.526820809644494"><ele>289.3333333333333</ele><time>2026-03-28T12:35:39.891Z</time></trkpt><trkpt lat="45.7299646347242" lon="9.526590397851779"><ele>289.0</ele><time>2026-03-28T12:35:40.891Z</time></trkpt><trkpt lat="45.73002101586122" lon="9.526348751044273"><ele>289.3333333333333</ele><time>2026-03-28T12:35:41.891Z</time></trkpt><trkpt lat="45.73007349122193" lon="9.526097700414848"><ele>289.6666666666667</ele><time>2026-03-28T12:35:42.891Z</time></trkpt><trkpt lat="45.73012512986264" lon="9.525852450320228"><ele>290.0</ele><time>2026-03-28T12:35:43.891Z</time></trkpt><trkpt lat="45.730179555813734" lon="9.525595046561431"><ele>293.33333333333337</ele><time>2026-03-28T12:35:44.891Z</time></trkpt><trkpt lat="45.73023572508518" lon="9.5253439822628"><ele>296.6666666666667</ele><time>2026-03-28T12:35:45.891Z</time></trkpt><trkpt lat="45.73028655192661" lon="9.525086756159354"><ele>300.0</ele><time>2026-03-28T12:35:46.891Z</time></trkpt><trkpt lat="45.73033224654521" lon="9.524813238941979"><ele>299.0</ele><time>2026-03-28T12:35:47.891Z</time></trkpt><trkpt lat="45.73037250546932" lon="9.524510601461914"><ele>298.0</ele><time>2026-03-28T12:35:48.891Z</time></trkpt><trkpt lat="45.73039275602312" lon="9.524217169550688"><ele>297.0</ele><time>2026-03-28T12:35:49.891Z</time></trkpt><trkpt lat="45.730394689091504" lon="9.523918249435507"><ele>296.3333333333333</ele><time>2026-03-28T12:35:50.891Z</time></trkpt><trkpt lat="45.73038011147275" lon="9.52361486616229"><ele>295.66666666666663</ele><time>2026-03-28T12:35:51.891Z</time></trkpt><trkpt lat="45.730355341364294" lon="9.523313821221262"><ele>295.0</ele><time>2026-03-28T12:35:52.891Z</time></trkpt><trkpt lat="45.73033282716605" lon="9.523013648989105"><ele>295.0</ele><time>2026-03-28T12:35:53.891Z</time></trkpt><trkpt lat="45.73030917113788" lon="9.52270481239147"><ele>295.0</ele><time>2026-03-28T12:35:54.891Z</time></trkpt><trkpt lat="45.73028594066553" lon="9.522398919948634"><ele>295.0</ele><time>2026-03-28T12:35:55.891Z</time></trkpt><trkpt lat="45.73026333123733" lon="9.52210790635729"><ele>294.66666666666663</ele><time>2026-03-28T12:35:56.891Z</time></trkpt><trkpt lat="45.73024199086837" lon="9.52182959398357"><ele>294.3333333333333</ele><time>2026-03-28T12:35:57.891Z</time></trkpt><trkpt lat="45.73022118891702" lon="9.521546225355737"><ele>294.0</ele><time>2026-03-28T12:35:58.891Z</time></trkpt><trkpt lat="45.73019546453822" lon="9.5212367214336"><ele>293.6666666666667</ele><time>2026-03-28T12:35:59.891Z</time></trkpt><trkpt lat="45.73016772952248" lon="9.520914744943779"><ele>293.33333333333337</ele><time>2026-03-28T12:36:00.891Z</time></trkpt><trkpt lat="45.73014550386652" lon="9.520617683688654"><ele>293.0</ele><time>2026-03-28T12:36:01.891Z</time></trkpt><trkpt lat="45.73012484001849" lon="9.520336527135271"><ele>293.0</ele><time>2026-03-28T12:36:02.891Z</time></trkpt><trkpt lat="45.7301026299267" lon="9.5200561332198"><ele>293.0</ele><time>2026-03-28T12:36:03.891Z</time></trkpt><trkpt lat="45.73008452793819" lon="9.519775241360483"><ele>293.0</ele><time>2026-03-28T12:36:04.891Z</time></trkpt><trkpt lat="45.73006419965431" lon="9.519476071058667"><ele>293.33333333333337</ele><time>2026-03-28T12:36:05.891Z</time></trkpt><trkpt lat="45.730043640238044" lon="9.51917432234567"><ele>293.6666666666667</ele><time>2026-03-28T12:36:06.891Z</time></trkpt><trkpt lat="45.730027644352546" lon="9.51887267498748"><ele>294.0</ele><time>2026-03-28T12:36:07.891Z</time></trkpt><trkpt lat="45.73001663741933" lon="9.518578976588778"><ele>294.3333333333333</ele><time>2026-03-28T12:36:08.891Z</time></trkpt><trkpt lat="45.73001497316966" lon="9.518283871842502"><ele>294.66666666666663</ele><time>2026-03-28T12:36:09.891Z</time></trkpt><trkpt lat="45.73003303040271" lon="9.517982404907105"><ele>295.0</ele><time>2026-03-28T12:36:10.891Z</time></trkpt><trkpt lat="45.730064848739204" lon="9.51767846994266"><ele>295.0</ele><time>2026-03-28T12:36:11.891Z</time></trkpt><trkpt lat="45.73010047765872" lon="9.51738531146167"><ele>295.0</ele><time>2026-03-28T12:36:12.891Z</time></trkpt><trkpt lat="45.73014055656406" lon="9.517090396782116"><ele>295.0</ele><time>2026-03-28T12:36:13.891Z</time></trkpt><trkpt lat="45.730186540833444" lon="9.516790609960356"><ele>295.0</ele><time>2026-03-28T12:36:14.891Z</time></trkpt><trkpt lat="45.73023064889425" lon="9.516490934782395"><ele>295.0</ele><time>2026-03-28T12:36:15.891Z</time></trkpt><trkpt lat="45.730269607175615" lon="9.516205434338973"><ele>295.0</ele><time>2026-03-28T12:36:16.891Z</time></trkpt><trkpt lat="45.73031055822631" lon="9.51592013661944"><ele>295.0</ele><time>2026-03-28T12:36:17.891Z</time></trkpt><trkpt lat="45.730353002898866" lon="9.515626407437919"><ele>295.0</ele><time>2026-03-28T12:36:18.891Z</time></trkpt><trkpt lat="45.73039643350277" lon="9.51533278267283"><ele>295.0</ele><time>2026-03-28T12:36:19.891Z</time></trkpt><trkpt lat="45.7304381055646" lon="9.515034810579689"><ele>295.0</ele><time>2026-03-28T12:36:20.891Z</time></trkpt><trkpt lat="45.73048016901966" lon="9.514733598273969"><ele>295.0</ele><time>2026-03-28T12:36:21.891Z</time></trkpt><trkpt lat="45.73052280333152" lon="9.514424278760542"><ele>295.0</ele><time>2026-03-28T12:36:22.891Z</time></trkpt><trkpt lat="45.73056928217491" lon="9.51411163746162"><ele>295.0</ele><time>2026-03-28T12:36:23.891Z</time></trkpt><trkpt lat="45.7306163457696" lon="9.513802800783028"><ele>295.0</ele><time>2026-03-28T12:36:24.891Z</time></trkpt><trkpt lat="45.73066198226936" lon="9.513496370861445"><ele>295.0</ele><time>2026-03-28T12:36:25.891Z</time></trkpt><trkpt lat="45.73070697701726" lon="9.513190949847996"><ele>295.3333333333333</ele><time>2026-03-28T12:36:26.891Z</time></trkpt><trkpt lat="45.730750004351684" lon="9.51288791414501"><ele>295.6666666666667</ele><time>2026-03-28T12:36:27.891Z</time></trkpt><trkpt lat="45.7307927175493" lon="9.512582266257027"><ele>296.0</ele><time>2026-03-28T12:36:28.891Z</time></trkpt><trkpt lat="45.73083675462587" lon="9.512273623167305"><ele>296.6666666666667</ele><time>2026-03-28T12:36:29.891Z</time></trkpt><trkpt lat="45.73088400797739" lon="9.511965033088039"><ele>297.3333333333333</ele><time>2026-03-28T12:36:30.891Z</time></trkpt><trkpt lat="45.73092895001719" lon="9.511657204919825"><ele>298.0</ele><time>2026-03-28T12:36:31.891Z</time></trkpt><trkpt lat="45.73097250087064" lon="9.511351328060753"><ele>299.0</ele><time>2026-03-28T12:36:32.891Z</time></trkpt><trkpt lat="45.73101616103075" lon="9.511042280436769"><ele>300.0</ele><time>2026-03-28T12:36:33.891Z</time></trkpt><trkpt lat="45.73106134533623" lon="9.510738574039532"><ele>301.0</ele><time>2026-03-28T12:36:34.891Z</time></trkpt><trkpt lat="45.73110611993471" lon="9.510438202546354"><ele>303.3333333333333</ele><time>2026-03-28T12:36:35.891Z</time></trkpt><trkpt lat="45.73114517190138" lon="9.510145805883509"><ele>305.6666666666667</ele><time>2026-03-28T12:36:36.891Z</time></trkpt><trkpt lat="45.731187777558766" lon="9.509850921142114"><ele>308.0</ele><time>2026-03-28T12:36:37.891Z</time></trkpt><trkpt lat="45.731231334358924" lon="9.509554873045246"><ele>308.0</ele><time>2026-03-28T12:36:38.891Z</time></trkpt><trkpt lat="45.73127252657379" lon="9.509261583480635"><ele>308.0</ele><time>2026-03-28T12:36:39.891Z</time></trkpt><trkpt lat="45.7313143162558" lon="9.508970169086203"><ele>308.0</ele><time>2026-03-28T12:36:40.891Z</time></trkpt><trkpt lat="45.73135563378083" lon="9.508706826722355"><ele>308.6666666666667</ele><time>2026-03-28T12:36:41.891Z</time></trkpt><trkpt lat="45.731402867366896" lon="9.508420905798902"><ele>309.3333333333333</ele><time>2026-03-28T12:36:42.891Z</time></trkpt><trkpt lat="45.73144728049723" lon="9.50810103859765"><ele>310.0</ele><time>2026-03-28T12:36:43.891Z</time></trkpt><trkpt lat="45.73149206976437" lon="9.507779304849453"><ele>311.66666666666663</ele><time>2026-03-28T12:36:44.891Z</time></trkpt><trkpt lat="45.73153725676961" lon="9.507481008339226"><ele>313.3333333333333</ele><time>2026-03-28T12:36:45.891Z</time></trkpt><trkpt lat="45.73158026524488" lon="9.507184312728947"><ele>315.0</ele><time>2026-03-28T12:36:46.891Z</time></trkpt><trkpt lat="45.731613863793136" lon="9.506887020071469"><ele>315.6666666666667</ele><time>2026-03-28T12:36:47.891Z</time></trkpt><trkpt lat="45.73163790369929" lon="9.506583430472691"><ele>316.33333333333337</ele><time>2026-03-28T12:36:48.891Z</time></trkpt><trkpt lat="45.73165103414699" lon="9.50629406386678"><ele>317.0</ele><time>2026-03-28T12:36:49.891Z</time></trkpt><trkpt lat="45.73165495614201" lon="9.506017099561479"><ele>315.0</ele><time>2026-03-28T12:36:50.891Z</time></trkpt><trkpt lat="45.731657426343915" lon="9.505765459120017"><ele>313.0</ele><time>2026-03-28T12:36:51.891Z</time></trkpt><trkpt lat="45.73166232447881" lon="9.50553348910162"><ele>311.0</ele><time>2026-03-28T12:36:52.891Z</time></trkpt><trkpt lat="45.73166755088214" lon="9.505312902800496"><ele>310.33333333333337</ele><time>2026-03-28T12:36:53.891Z</time></trkpt><trkpt lat="45.73166588147309" lon="9.505091548536702"><ele>309.6666666666667</ele><time>2026-03-28T12:36:54.891Z</time></trkpt><trkpt lat="45.731667378476175" lon="9.504851589154235"><ele>309.0</ele><time>2026-03-28T12:36:55.891Z</time></trkpt><trkpt lat="45.731661441073264" lon="9.504623899089186"><ele>308.6666666666667</ele><time>2026-03-28T12:36:56.891Z</time></trkpt><trkpt lat="45.73164638008713" lon="9.504406796435076"><ele>308.33333333333337</ele><time>2026-03-28T12:36:57.891Z</time></trkpt><trkpt lat="45.73162739049258" lon="9.504173220040338"><ele>308.0</ele><time>2026-03-28T12:36:58.891Z</time></trkpt><trkpt lat="45.73160349360147" lon="9.503929241490432"><ele>307.33333333333337</ele><time>2026-03-28T12:36:59.891Z</time></trkpt><trkpt lat="45.73156789200412" lon="9.503650030143856"><ele>306.6666666666667</ele><time>2026-03-28T12:37:00.891Z</time></trkpt><trkpt lat="45.731533747877826" lon="9.503353732171554"><ele>306.0</ele><time>2026-03-28T12:37:01.891Z</time></trkpt><trkpt lat="45.73150288978221" lon="9.503059061837499"><ele>306.0</ele><time>2026-03-28T12:37:02.891Z</time></trkpt><trkpt lat="45.73148336362266" lon="9.502780412502936"><ele>306.0</ele><time>2026-03-28T12:37:03.891Z</time></trkpt><trkpt lat="45.73146887402705" lon="9.502523535938304"><ele>306.0</ele><time>2026-03-28T12:37:04.891Z</time></trkpt><trkpt lat="45.731463108239836" lon="9.502261200639616"><ele>305.3333333333333</ele><time>2026-03-28T12:37:05.891Z</time></trkpt><trkpt lat="45.73146289445554" lon="9.501987939927716"><ele>304.66666666666663</ele><time>2026-03-28T12:37:06.891Z</time></trkpt><trkpt lat="45.731474553757096" lon="9.501714175621496"><ele>304.0</ele><time>2026-03-28T12:37:07.891Z</time></trkpt><trkpt lat="45.73149603599281" lon="9.501449141772389"><ele>303.66666666666663</ele><time>2026-03-28T12:37:08.891Z</time></trkpt><trkpt lat="45.73153059633883" lon="9.501182817952337"><ele>303.3333333333333</ele><time>2026-03-28T12:37:09.891Z</time></trkpt><trkpt lat="45.731574704620066" lon="9.500907754840377"><ele>303.0</ele><time>2026-03-28T12:37:10.891Z</time></trkpt><trkpt lat="45.731617860235744" lon="9.500631677474804"><ele>302.0</ele><time>2026-03-28T12:37:11.891Z</time></trkpt><trkpt lat="45.731659724186706" lon="9.500354578108654"><ele>301.0</ele><time>2026-03-28T12:37:12.891Z</time></trkpt><trkpt lat="45.731700460707984" lon="9.500080178830109"><ele>300.0</ele><time>2026-03-28T12:37:13.891Z</time></trkpt><trkpt lat="45.731745939606434" lon="9.499802938572808"><ele>298.3333333333333</ele><time>2026-03-28T12:37:14.891Z</time></trkpt><trkpt lat="45.73178777524998" lon="9.499528182794233"><ele>296.66666666666663</ele><time>2026-03-28T12:37:15.891Z</time></trkpt><trkpt lat="45.73183380410358" lon="9.499199081019635"><ele>295.0</ele><time>2026-03-28T12:37:16.891Z</time></trkpt><trkpt lat="45.731887470161354" lon="9.498833548471547"><ele>299.0</ele><time>2026-03-28T12:37:17.891Z</time></trkpt><trkpt lat="45.73194987229621" lon="9.498481224427788"><ele>303.0</ele><time>2026-03-28T12:37:18.891Z</time></trkpt><trkpt lat="45.732007748939616" lon="9.498152037308321"><ele>302.0</ele><time>2026-03-28T12:37:19.891Z</time></trkpt><trkpt lat="45.73205906792095" lon="9.497836811367051"><ele>301.0</ele><time>2026-03-28T12:37:20.891Z</time></trkpt><trkpt lat="45.732108715472734" lon="9.497539777715518"><ele>300.0</ele><time>2026-03-28T12:37:21.891Z</time></trkpt><trkpt lat="45.732159917782525" lon="9.497251149655073"><ele>298.3333333333333</ele><time>2026-03-28T12:37:22.891Z</time></trkpt><trkpt lat="45.732205937378005" lon="9.496978373584737"><ele>296.66666666666663</ele><time>2026-03-28T12:37:23.891Z</time></trkpt><trkpt lat="45.7322508703504" lon="9.496704975413477"><ele>295.0</ele><time>2026-03-28T12:37:24.891Z</time></trkpt><trkpt lat="45.73229397689082" lon="9.49642537646752"><ele>292.66666666666663</ele><time>2026-03-28T12:37:25.891Z</time></trkpt><trkpt lat="45.73233663042716" lon="9.496141969109088"><ele>290.3333333333333</ele><time>2026-03-28T12:37:26.891Z</time></trkpt><trkpt lat="45.73237797107504" lon="9.495853948915917"><ele>288.0</ele><time>2026-03-28T12:37:27.89Z</time></trkpt><trkpt lat="45.73242743154071" lon="9.495560970493294"><ele>288.0</ele><time>2026-03-28T12:37:28.889Z</time></trkpt><trkpt lat="45.732484983693276" lon="9.495281911191116"><ele>288.0</ele><time>2026-03-28T12:37:29.889Z</time></trkpt><trkpt lat="45.732548751133564" lon="9.49502547242691"><ele>288.0</ele><time>2026-03-28T12:37:30.89Z</time></trkpt><trkpt lat="45.73261981154033" lon="9.494788786527725"><ele>288.5</ele><time>2026-03-28T12:37:31.89Z</time></trkpt><trkpt lat="45.73268821302128" lon="9.494577321063735"><ele>289.0</ele><time>2026-03-28T12:37:32.89Z</time></trkpt><trkpt lat="45.73274287712038" lon="9.494403993010557"><ele>289.5</ele><time>2026-03-28T12:37:33.89Z</time></trkpt><trkpt lat="45.73278589908237" lon="9.49425652320199"><ele>290.0</ele><time>2026-03-28T12:37:34.89Z</time></trkpt><trkpt lat="45.732814965267366" lon="9.49410959110132"><ele>290.4</ele><time>2026-03-28T12:37:35.89Z</time></trkpt><trkpt lat="45.7328445960279" lon="9.493966896243483"><ele>290.8</ele><time>2026-03-28T12:37:36.89Z</time></trkpt><trkpt lat="45.73288622088497" lon="9.493838436260907"><ele>291.2</ele><time>2026-03-28T12:37:37.89Z</time></trkpt><trkpt lat="45.73295565211351" lon="9.493726228358447"><ele>291.6</ele><time>2026-03-28T12:37:38.89Z</time></trkpt><trkpt lat="45.73301456786668" lon="9.493595078343276"><ele>292.0</ele><time>2026-03-28T12:37:39.89Z</time></trkpt><trkpt lat="45.733031417264286" lon="9.493424333279302"><ele>292.0</ele><time>2026-03-28T12:37:40.89Z</time></trkpt><trkpt lat="45.73306091578075" lon="9.49327073159154"><ele>292.0</ele><time>2026-03-28T12:37:41.89Z</time></trkpt><trkpt lat="45.73309436470624" lon="9.493121781875336"><ele>292.0</ele><time>2026-03-28T12:37:42.89Z</time></trkpt><trkpt lat="45.73312458046949" lon="9.492965050760029"><ele>292.0</ele><time>2026-03-28T12:37:43.89Z</time></trkpt><trkpt lat="45.73317219290257" lon="9.49281706398153"><ele>292.0</ele><time>2026-03-28T12:37:44.89Z</time></trkpt><trkpt lat="45.733219912678784" lon="9.492663354481921"><ele>290.75</ele><time>2026-03-28T12:37:45.89Z</time></trkpt><trkpt lat="45.73326043647612" lon="9.492490147029066"><ele>289.5</ele><time>2026-03-28T12:37:46.89Z</time></trkpt><trkpt lat="45.73330208092448" lon="9.492319073726383"><ele>288.25</ele><time>2026-03-28T12:37:47.89Z</time></trkpt><trkpt lat="45.733354360307146" lon="9.492164177773065"><ele>287.0</ele><time>2026-03-28T12:37:48.89Z</time></trkpt><trkpt lat="45.73340239366465" lon="9.49198694471929"><ele>286.25</ele><time>2026-03-28T12:37:49.89Z</time></trkpt><trkpt lat="45.73345425850213" lon="9.491786649403966"><ele>285.5</ele><time>2026-03-28T12:37:50.89Z</time></trkpt><trkpt lat="45.73350822438144" lon="9.491594438556707"><ele>284.75</ele><time>2026-03-28T12:37:51.89Z</time></trkpt><trkpt lat="45.73356072198469" lon="9.49141674356141"><ele>284.0</ele><time>2026-03-28T12:37:52.89Z</time></trkpt><trkpt lat="45.73361070260835" lon="9.491245631834422"><ele>281.75</ele><time>2026-03-28T12:37:53.89Z</time></trkpt><trkpt lat="45.73365528646261" lon="9.491077135523923"><ele>279.5</ele><time>2026-03-28T12:37:54.89Z</time></trkpt><trkpt lat="45.73370361489895" lon="9.490891397252454"><ele>277.25</ele><time>2026-03-28T12:37:55.89Z</time></trkpt><trkpt lat="45.73375900602169" lon="9.490687344226256"><ele>275.0</ele><time>2026-03-28T12:37:56.89Z</time></trkpt><trkpt lat="45.73381946224181" lon="9.490446915210239"><ele>274.0</ele><time>2026-03-28T12:37:57.89Z</time></trkpt><trkpt lat="45.733892501704055" lon="9.490175723688997"><ele>273.0</ele><time>2026-03-28T12:37:58.89Z</time></trkpt><trkpt lat="45.733975591413255" lon="9.489896214545723"><ele>272.0</ele><time>2026-03-28T12:37:59.89Z</time></trkpt><trkpt lat="45.73405473231355" lon="9.48961628245797"><ele>271.33333333333337</ele><time>2026-03-28T12:38:00.89Z</time></trkpt><trkpt lat="45.73413543316489" lon="9.489343871998456"><ele>270.6666666666667</ele><time>2026-03-28T12:38:01.89Z</time></trkpt><trkpt lat="45.734209639247126" lon="9.489088863803033"><ele>270.0</ele><time>2026-03-28T12:38:02.89Z</time></trkpt><trkpt lat="45.734277948514254" lon="9.488844876839863"><ele>268.6666666666667</ele><time>2026-03-28T12:38:03.89Z</time></trkpt><trkpt lat="45.73435274236312" lon="9.488612613240909"><ele>267.33333333333337</ele><time>2026-03-28T12:38:04.89Z</time></trkpt><trkpt lat="45.734432768523135" lon="9.488398769491665"><ele>266.0</ele><time>2026-03-28T12:38:05.89Z</time></trkpt><trkpt lat="45.734508947316996" lon="9.488193017421994"><ele>266.0</ele><time>2026-03-28T12:38:06.89Z</time></trkpt><trkpt lat="45.73458635780527" lon="9.488005083348666"><ele>266.0</ele><time>2026-03-28T12:38:07.89Z</time></trkpt><trkpt lat="45.73466812375203" lon="9.487844497043673"><ele>266.0</ele><time>2026-03-28T12:38:08.89Z</time></trkpt><trkpt lat="45.73475011631485" lon="9.487697856062693"><ele>266.0</ele><time>2026-03-28T12:38:09.89Z</time></trkpt><trkpt lat="45.73483114811509" lon="9.48756622952965"><ele>266.40000000000003</ele><time>2026-03-28T12:38:10.89Z</time></trkpt><trkpt lat="45.73491479643752" lon="9.487443203747924"><ele>266.8</ele><time>2026-03-28T12:38:11.89Z</time></trkpt><trkpt lat="45.73499694292374" lon="9.48732807751444"><ele>267.20000000000005</ele><time>2026-03-28T12:38:12.89Z</time></trkpt><trkpt lat="45.73507571365887" lon="9.487222250517073"><ele>267.6</ele><time>2026-03-28T12:38:13.89Z</time></trkpt><trkpt lat="45.73515445633046" lon="9.487121203596793"><ele>268.0</ele><time>2026-03-28T12:38:14.89Z</time></trkpt><trkpt lat="45.73523759372591" lon="9.487026791845834"><ele>268.2</ele><time>2026-03-28T12:38:15.89Z</time></trkpt><trkpt lat="45.73532420597781" lon="9.48693549331277"><ele>268.4</ele><time>2026-03-28T12:38:16.89Z</time></trkpt><trkpt lat="45.73541269023126" lon="9.486850994822921"><ele>268.59999999999997</ele><time>2026-03-28T12:38:17.89Z</time></trkpt><trkpt lat="45.73549905158368" lon="9.486771521925965"><ele>268.8</ele><time>2026-03-28T12:38:18.89Z</time></trkpt><trkpt lat="45.73558053899272" lon="9.486692181966859"><ele>269.0</ele><time>2026-03-28T12:38:19.89Z</time></trkpt><trkpt lat="45.73565605805719" lon="9.486621122486445"><ele>269.0</ele><time>2026-03-28T12:38:20.89Z</time></trkpt><trkpt lat="45.73572525494813" lon="9.486550901355612"><ele>269.0</ele><time>2026-03-28T12:38:21.89Z</time></trkpt><trkpt lat="45.735792229288776" lon="9.48649042214319"><ele>269.0</ele><time>2026-03-28T12:38:22.89Z</time></trkpt><trkpt lat="45.73586164170859" lon="9.48642725191101"><ele>269.0</ele><time>2026-03-28T12:38:23.89Z</time></trkpt><trkpt lat="45.73593518990833" lon="9.486362357203214"><ele>269.0</ele><time>2026-03-28T12:38:24.89Z</time></trkpt><trkpt lat="45.736010216520256" lon="9.48630011637275"><ele>269.0</ele><time>2026-03-28T12:38:25.89Z</time></trkpt><trkpt lat="45.73608343933029" lon="9.486233659733074"><ele>268.5</ele><time>2026-03-28T12:38:26.89Z</time></trkpt><trkpt lat="45.73615536883707" lon="9.486167604068408"><ele>268.0</ele><time>2026-03-28T12:38:27.89Z</time></trkpt><trkpt lat="45.73622997215252" lon="9.48609832904301"><ele>267.5</ele><time>2026-03-28T12:38:28.89Z</time></trkpt><trkpt lat="45.736295069833304" lon="9.48603997881521"><ele>267.0</ele><time>2026-03-28T12:38:29.89Z</time></trkpt><trkpt lat="45.73635401014544" lon="9.485987554147849"><ele>266.5</ele><time>2026-03-28T12:38:30.89Z</time></trkpt><trkpt lat="45.73641435381105" lon="9.485934254121734"><ele>266.0</ele><time>2026-03-28T12:38:31.89Z</time></trkpt><trkpt lat="45.73648886392473" lon="9.485883417936469"><ele>266.0</ele><time>2026-03-28T12:38:32.89Z</time></trkpt><trkpt lat="45.73656426661977" lon="9.485849970852195"><ele>266.0</ele><time>2026-03-28T12:38:33.89Z</time></trkpt><trkpt lat="45.73664162023151" lon="9.485824299100832"><ele>266.0</ele><time>2026-03-28T12:38:34.89Z</time></trkpt><trkpt lat="45.736713738017734" lon="9.485815090816208"><ele>266.0</ele><time>2026-03-28T12:38:35.89Z</time></trkpt><trkpt lat="45.73679508349139" lon="9.48584331923567"><ele>266.0</ele><time>2026-03-28T12:38:36.89Z</time></trkpt><trkpt lat="45.736876885247426" lon="9.485886637803176"><ele>266.0</ele><time>2026-03-28T12:38:37.89Z</time></trkpt><trkpt lat="45.736963361215274" lon="9.485929122268217"><ele>265.5</ele><time>2026-03-28T12:38:38.89Z</time></trkpt><trkpt lat="45.73704955456072" lon="9.485922359729106"><ele>265.0</ele><time>2026-03-28T12:38:39.89Z</time></trkpt><trkpt lat="45.73714005861447" lon="9.48587283438559"><ele>264.5</ele><time>2026-03-28T12:38:40.89Z</time></trkpt><trkpt lat="45.737218963750536" lon="9.485835471161181"><ele>264.0</ele><time>2026-03-28T12:38:41.89Z</time></trkpt><trkpt lat="45.737299719688174" lon="9.485836673225394"><ele>263.5</ele><time>2026-03-28T12:38:42.89Z</time></trkpt><trkpt lat="45.737389902650506" lon="9.485871154224553"><ele>263.0</ele><time>2026-03-28T12:38:43.89Z</time></trkpt><trkpt lat="45.73747362318473" lon="9.485935847643033"><ele>263.0</ele><time>2026-03-28T12:38:44.89Z</time></trkpt><trkpt lat="45.73754592633475" lon="9.48602666053626"><ele>263.0</ele><time>2026-03-28T12:38:45.89Z</time></trkpt><trkpt lat="45.73761253321375" lon="9.486150140080662"><ele>263.0</ele><time>2026-03-28T12:38:46.89Z</time></trkpt><trkpt lat="45.737679142013825" lon="9.486274428775856"><ele>263.0</ele><time>2026-03-28T12:38:47.89Z</time></trkpt><trkpt lat="45.737746526406724" lon="9.48639156829193"><ele>263.0</ele><time>2026-03-28T12:38:48.89Z</time></trkpt><trkpt lat="45.737818860721326" lon="9.486502453822293"><ele>262.83333333333337</ele><time>2026-03-28T12:38:49.89Z</time></trkpt><trkpt lat="45.737887474256496" lon="9.48660050445486"><ele>262.6666666666667</ele><time>2026-03-28T12:38:50.89Z</time></trkpt><trkpt lat="45.73797109892088" lon="9.486645216511635"><ele>262.5</ele><time>2026-03-28T12:38:51.89Z</time></trkpt><trkpt lat="45.73806102398736" lon="9.486656642162936"><ele>262.3333333333333</ele><time>2026-03-28T12:38:52.89Z</time></trkpt><trkpt lat="45.738146440276935" lon="9.486638581356543"><ele>262.16666666666663</ele><time>2026-03-28T12:38:53.89Z</time></trkpt><trkpt lat="45.738225681594514" lon="9.486596036058614"><ele>262.0</ele><time>2026-03-28T12:38:54.89Z</time></trkpt><trkpt lat="45.73829926112179" lon="9.486538540344762"><ele>262.0</ele><time>2026-03-28T12:38:55.89Z</time></trkpt><trkpt lat="45.738362146543594" lon="9.486447758766696"><ele>262.0</ele><time>2026-03-28T12:38:56.89Z</time></trkpt><trkpt lat="45.738415808226705" lon="9.486325807314032"><ele>262.0</ele><time>2026-03-28T12:38:57.89Z</time></trkpt><trkpt lat="45.73845716170869" lon="9.486175331583475"><ele>262.0</ele><time>2026-03-28T12:38:58.89Z</time></trkpt><trkpt lat="45.73848555772876" lon="9.4860209678606"><ele>262.0</ele><time>2026-03-28T12:38:59.89Z</time></trkpt><trkpt lat="45.73850006814821" lon="9.485877243157216"><ele>261.5</ele><time>2026-03-28T12:39:00.89Z</time></trkpt><trkpt lat="45.738510081802595" lon="9.485748194373416"><ele>261.0</ele><time>2026-03-28T12:39:01.89Z</time></trkpt><trkpt lat="45.73852232026066" lon="9.485634140962429"><ele>260.5</ele><time>2026-03-28T12:39:02.89Z</time></trkpt><trkpt lat="45.738542190358125" lon="9.48552240097214"><ele>260.0</ele><time>2026-03-28T12:39:03.89Z</time></trkpt><trkpt lat="45.7385664227799" lon="9.485413585691736"><ele>259.5</ele><time>2026-03-28T12:39:04.89Z</time></trkpt><trkpt lat="45.73859227610197" lon="9.485309539471862"><ele>259.0</ele><time>2026-03-28T12:39:05.89Z</time></trkpt><trkpt lat="45.738619505751366" lon="9.485195668923698"><ele>260.66666666666663</ele><time>2026-03-28T12:39:06.89Z</time></trkpt><trkpt lat="45.73865308978406" lon="9.485073284417195"><ele>262.3333333333333</ele><time>2026-03-28T12:39:07.89Z</time></trkpt><trkpt lat="45.73868500798848" lon="9.484961677770263"><ele>264.0</ele><time>2026-03-28T12:39:08.89Z</time></trkpt><trkpt lat="45.73871822548801" lon="9.484846827151836"><ele>265.6666666666667</ele><time>2026-03-28T12:39:09.89Z</time></trkpt><trkpt lat="45.73874975156772" lon="9.484721061343347"><ele>267.33333333333337</ele><time>2026-03-28T12:39:10.89Z</time></trkpt><trkpt lat="45.73877402497088" lon="9.484607534487782"><ele>269.0</ele><time>2026-03-28T12:39:11.89Z</time></trkpt><trkpt lat="45.73878534310997" lon="9.484494032144307"><ele>269.0</ele><time>2026-03-28T12:39:12.89Z</time></trkpt><trkpt lat="45.73879022792804" lon="9.484381699625176"><ele>269.0</ele><time>2026-03-28T12:39:13.89Z</time></trkpt><trkpt lat="45.73879694108606" lon="9.48426586955811"><ele>269.0</ele><time>2026-03-28T12:39:14.89Z</time></trkpt><trkpt lat="45.73880819694161" lon="9.484134425648744"><ele>269.0</ele><time>2026-03-28T12:39:15.89Z</time></trkpt><trkpt lat="45.73882467628545" lon="9.484038843312552"><ele>269.0</ele><time>2026-03-28T12:39:16.89Z</time></trkpt><trkpt lat="45.73883567642036" lon="9.483944710516612"><ele>269.0</ele><time>2026-03-28T12:39:17.89Z</time></trkpt><trkpt lat="45.7388495578631" lon="9.483791898020977"><ele>267.59999999999997</ele><time>2026-03-28T12:39:19.89Z</time></trkpt><trkpt lat="45.73886977943677" lon="9.483618882594714"><ele>266.2</ele><time>2026-03-28T12:39:21.89Z</time></trkpt><trkpt lat="45.73889243078308" lon="9.483513872042401"><ele>264.79999999999995</ele><time>2026-03-28T12:39:22.889Z</time></trkpt><trkpt lat="45.73892500578471" lon="9.483328043180787"><ele>263.4</ele><time>2026-03-28T12:39:24.889Z</time></trkpt><trkpt lat="45.73894647218447" lon="9.483219233997744"><ele>262.0</ele><time>2026-03-28T12:39:25.889Z</time></trkpt><trkpt lat="45.73896822079099" lon="9.483122592367693"><ele>262.0</ele><time>2026-03-28T12:39:26.889Z</time></trkpt><trkpt lat="45.738995709175526" lon="9.483015372946289"><ele>262.0</ele><time>2026-03-28T12:39:27.889Z</time></trkpt><trkpt lat="45.739033442607095" lon="9.482907173855294"><ele>262.0</ele><time>2026-03-28T12:39:28.889Z</time></trkpt><trkpt lat="45.73907484771754" lon="9.482807539410116"><ele>262.0</ele><time>2026-03-28T12:39:29.889Z</time></trkpt><trkpt lat="45.73911975102594" lon="9.482717811077706"><ele>262.0</ele><time>2026-03-28T12:39:30.889Z</time></trkpt><trkpt lat="45.73916319829158" lon="9.48264620894121"><ele>262.0</ele><time>2026-03-28T12:39:31.889Z</time></trkpt><trkpt lat="45.73920434025757" lon="9.482577077406308"><ele>261.8333333333333</ele><time>2026-03-28T12:39:32.889Z</time></trkpt><trkpt lat="45.73925821118074" lon="9.482510421663893"><ele>261.66666666666663</ele><time>2026-03-28T12:39:33.888Z</time></trkpt><trkpt lat="45.73931954587775" lon="9.482448071439764"><ele>261.5</ele><time>2026-03-28T12:39:34.888Z</time></trkpt><trkpt lat="45.73939670221354" lon="9.482380754407977"><ele>261.3333333333333</ele><time>2026-03-28T12:39:35.888Z</time></trkpt><trkpt lat="45.73948783371518" lon="9.482305587731343"><ele>261.1666666666667</ele><time>2026-03-28T12:39:36.888Z</time></trkpt><trkpt lat="45.73956587468464" lon="9.482214875299444"><ele>261.0</ele><time>2026-03-28T12:39:37.888Z</time></trkpt><trkpt lat="45.739632200860605" lon="9.482100831248514"><ele>260.8333333333333</ele><time>2026-03-28T12:39:38.888Z</time></trkpt><trkpt lat="45.73968012977123" lon="9.481973851562543"><ele>260.6666666666667</ele><time>2026-03-28T12:39:39.888Z</time></trkpt><trkpt lat="45.73972193924993" lon="9.481855971992957"><ele>260.5</ele><time>2026-03-28T12:39:40.887Z</time></trkpt><trkpt lat="45.739757769728975" lon="9.481745612585238"><ele>260.33333333333337</ele><time>2026-03-28T12:39:41.887Z</time></trkpt><trkpt lat="45.739790027321376" lon="9.481646287621713"><ele>260.1666666666667</ele><time>2026-03-28T12:39:42.888Z</time></trkpt><trkpt lat="45.73982020119648" lon="9.481557009938154"><ele>260.0</ele><time>2026-03-28T12:39:43.887Z</time></trkpt><trkpt lat="45.73984901931008" lon="9.48146786534241"><ele>260.0</ele><time>2026-03-28T12:39:44.887Z</time></trkpt><trkpt lat="45.73988181684237" lon="9.481376583603325"><ele>260.0</ele><time>2026-03-28T12:39:45.888Z</time></trkpt><trkpt lat="45.739915486228696" lon="9.481279213012323"><ele>260.0</ele><time>2026-03-28T12:39:46.888Z</time></trkpt><trkpt lat="45.739951727950356" lon="9.481166872121914"><ele>260.0</ele><time>2026-03-28T12:39:47.888Z</time></trkpt><trkpt lat="45.73996937433686" lon="9.481060995175222"><ele>260.0</ele><time>2026-03-28T12:39:48.888Z</time></trkpt><trkpt lat="45.739960950625594" lon="9.480952882467575"><ele>260.0</ele><time>2026-03-28T12:39:49.888Z</time></trkpt><trkpt lat="45.739930154750105" lon="9.480862101479499"><ele>260.1666666666667</ele><time>2026-03-28T12:39:50.888Z</time></trkpt><trkpt lat="45.73989216582806" lon="9.48078758779168"><ele>260.33333333333337</ele><time>2026-03-28T12:39:51.888Z</time></trkpt><trkpt lat="45.739839917085014" lon="9.480727111146383"><ele>260.5</ele><time>2026-03-28T12:39:52.888Z</time></trkpt><trkpt lat="45.73977000154746" lon="9.480689038535516"><ele>260.6666666666667</ele><time>2026-03-28T12:39:53.888Z</time></trkpt><trkpt lat="45.73968583666713" lon="9.480690487619333"><ele>260.8333333333333</ele><time>2026-03-28T12:39:54.888Z</time></trkpt><trkpt lat="45.73960008629281" lon="9.480728628440731"><ele>261.0</ele><time>2026-03-28T12:39:55.888Z</time></trkpt><trkpt lat="45.73951477683625" lon="9.480793999564886"><ele>261.0</ele><time>2026-03-28T12:39:56.888Z</time></trkpt><trkpt lat="45.73943785623351" lon="9.480862171402213"><ele>261.0</ele><time>2026-03-28T12:39:57.888Z</time></trkpt><trkpt lat="45.73937621788487" lon="9.480933364925962"><ele>261.0</ele><time>2026-03-28T12:39:58.888Z</time></trkpt><trkpt lat="45.73932060401423" lon="9.480993460757102"><ele>261.0</ele><time>2026-03-28T12:39:59.888Z</time></trkpt><trkpt lat="45.73924350499752" lon="9.481031748095951"><ele>261.0</ele><time>2026-03-28T12:40:00.888Z</time></trkpt><trkpt lat="45.73918387319505" lon="9.48110051042865"><ele>261.0</ele><time>2026-03-28T12:40:01.888Z</time></trkpt><trkpt lat="45.739129329028735" lon="9.481165180567231"><ele>261.1666666666667</ele><time>2026-03-28T12:40:02.888Z</time></trkpt><trkpt lat="45.73908424483798" lon="9.481238391432973"><ele>261.3333333333333</ele><time>2026-03-28T12:40:03.888Z</time></trkpt><trkpt lat="45.73900807850726" lon="9.481263887778608"><ele>261.5</ele><time>2026-03-28T12:40:04.888Z</time></trkpt><trkpt lat="45.73893959879945" lon="9.481241548045706"><ele>261.66666666666663</ele><time>2026-03-28T12:40:05.888Z</time></trkpt><trkpt lat="45.73889337727475" lon="9.481168950292881"><ele>261.8333333333333</ele><time>2026-03-28T12:40:06.888Z</time></trkpt><trkpt lat="45.73887285185852" lon="9.481052072306847"><ele>262.0</ele><time>2026-03-28T12:40:07.888Z</time></trkpt><trkpt lat="45.738892344919996" lon="9.480939536403271"><ele>262.0</ele><time>2026-03-28T12:40:08.888Z</time></trkpt><trkpt lat="45.738955954776685" lon="9.480809408480761"><ele>262.0</ele><time>2026-03-28T12:40:09.888Z</time></trkpt><trkpt lat="45.73902705177998" lon="9.480718639092906"><ele>262.0</ele><time>2026-03-28T12:40:10.888Z</time></trkpt><trkpt lat="45.73909831901182" lon="9.480624487200515"><ele>262.0</ele><time>2026-03-28T12:40:11.888Z</time></trkpt><trkpt lat="45.73916610816534" lon="9.480535560307182"><ele>262.0</ele><time>2026-03-28T12:40:12.888Z</time></trkpt><trkpt lat="45.73922901372017" lon="9.480441705665898"><ele>262.5</ele><time>2026-03-28T12:40:13.888Z</time></trkpt><trkpt lat="45.739299244254816" lon="9.480342379917401"><ele>263.0</ele><time>2026-03-28T12:40:14.888Z</time></trkpt><trkpt lat="45.73935917846407" lon="9.480247906086145"><ele>263.5</ele><time>2026-03-28T12:40:15.888Z</time></trkpt><trkpt lat="45.73940627823773" lon="9.480152984599709"><ele>264.0</ele><time>2026-03-28T12:40:16.888Z</time></trkpt><trkpt lat="45.739437292126304" lon="9.480041689835879"><ele>264.5</ele><time>2026-03-28T12:40:17.888Z</time></trkpt><trkpt lat="45.73946524661008" lon="9.47994328382154"><ele>265.0</ele><time>2026-03-28T12:40:18.888Z</time></trkpt><trkpt lat="45.73948707571928" lon="9.479854103576379"><ele>265.5</ele><time>2026-03-28T12:40:19.888Z</time></trkpt><trkpt lat="45.739508596725386" lon="9.479741757318168"><ele>266.0</ele><time>2026-03-28T12:40:20.888Z</time></trkpt><trkpt lat="45.73952821839954" lon="9.479621539764805"><ele>266.5</ele><time>2026-03-28T12:40:21.888Z</time></trkpt><trkpt lat="45.73954571329267" lon="9.479495802009302"><ele>267.0</ele><time>2026-03-28T12:40:22.888Z</time></trkpt><trkpt lat="45.73956241053795" lon="9.479383884884678"><ele>267.5</ele><time>2026-03-28T12:40:23.888Z</time></trkpt><trkpt lat="45.73957803483991" lon="9.479273765698252"><ele>268.0</ele><time>2026-03-28T12:40:24.888Z</time></trkpt><trkpt lat="45.73959268536732" lon="9.479160460526696"><ele>268.0</ele><time>2026-03-28T12:40:25.888Z</time></trkpt><trkpt lat="45.73960305097242" lon="9.479064621785792"><ele>268.0</ele><time>2026-03-28T12:40:26.888Z</time></trkpt><trkpt lat="45.73962028227677" lon="9.478962515153396"><ele>268.0</ele><time>2026-03-28T12:40:27.888Z</time></trkpt><trkpt lat="45.73963271689321" lon="9.478851819453485"><ele>268.0</ele><time>2026-03-28T12:40:28.888Z</time></trkpt><trkpt lat="45.73964979763107" lon="9.478738454790241"><ele>268.0</ele><time>2026-03-28T12:40:29.888Z</time></trkpt><trkpt lat="45.73966930644663" lon="9.478624184028835"><ele>268.0</ele><time>2026-03-28T12:40:30.888Z</time></trkpt><trkpt lat="45.73968707723459" lon="9.478512913655806"><ele>268.0</ele><time>2026-03-28T12:40:31.888Z</time></trkpt><trkpt lat="45.73970165618659" lon="9.478393910512839"><ele>268.0</ele><time>2026-03-28T12:40:32.888Z</time></trkpt><trkpt lat="45.73972485238319" lon="9.478244484817209"><ele>268.0</ele><time>2026-03-28T12:40:33.888Z</time></trkpt><trkpt lat="45.739747480001434" lon="9.478092047526692"><ele>268.0</ele><time>2026-03-28T12:40:34.888Z</time></trkpt><trkpt lat="45.73976823962789" lon="9.477963321293466"><ele>268.0</ele><time>2026-03-28T12:40:35.888Z</time></trkpt><trkpt lat="45.739790772047" lon="9.477815907968365"><ele>268.0</ele><time>2026-03-28T12:40:36.888Z</time></trkpt><trkpt lat="45.73981344797825" lon="9.477656632803402"><ele>268.0</ele><time>2026-03-28T12:40:37.888Z</time></trkpt><trkpt lat="45.73983118190471" lon="9.47749568491066"><ele>268.0</ele><time>2026-03-28T12:40:38.888Z</time></trkpt><trkpt lat="45.73985395044323" lon="9.477335916747487"><ele>268.0</ele><time>2026-03-28T12:40:39.888Z</time></trkpt><trkpt lat="45.739877469415006" lon="9.477175165923764"><ele>267.6</ele><time>2026-03-28T12:40:40.888Z</time></trkpt><trkpt lat="45.73990067712163" lon="9.477015037029913"><ele>267.20000000000005</ele><time>2026-03-28T12:40:41.888Z</time></trkpt><trkpt lat="45.739925328107205" lon="9.476862529739835"><ele>266.8</ele><time>2026-03-28T12:40:42.888Z</time></trkpt><trkpt lat="45.73994739077852" lon="9.476717978132072"><ele>266.40000000000003</ele><time>2026-03-28T12:40:43.888Z</time></trkpt><trkpt lat="45.73997578340428" lon="9.476559130381156"><ele>266.0</ele><time>2026-03-28T12:40:44.888Z</time></trkpt><trkpt lat="45.73999861185224" lon="9.476388785559871"><ele>265.83333333333337</ele><time>2026-03-28T12:40:45.888Z</time></trkpt><trkpt lat="45.740024285895565" lon="9.47624332261229"><ele>265.6666666666667</ele><time>2026-03-28T12:40:46.888Z</time></trkpt><trkpt lat="45.74005256110174" lon="9.476112053891066"><ele>265.5</ele><time>2026-03-28T12:40:47.888Z</time></trkpt><trkpt lat="45.74006677691114" lon="9.476004571699018"><ele>265.3333333333333</ele><time>2026-03-28T12:40:48.888Z</time></trkpt><trkpt lat="45.74008574892979" lon="9.475887292437118"><ele>265.16666666666663</ele><time>2026-03-28T12:40:49.888Z</time></trkpt><trkpt lat="45.74009931647172" lon="9.475784256711286"><ele>265.0</ele><time>2026-03-28T12:40:50.888Z</time></trkpt><trkpt lat="45.740117135734835" lon="9.475669710788708"><ele>265.0</ele><time>2026-03-28T12:40:51.888Z</time></trkpt><trkpt lat="45.74013634156046" lon="9.475537909035994"><ele>265.0</ele><time>2026-03-28T12:40:52.888Z</time></trkpt><trkpt lat="45.74014850974309" lon="9.475437731936351"><ele>265.0</ele><time>2026-03-28T12:40:53.888Z</time></trkpt><trkpt lat="45.740162789428496" lon="9.475348800245737"><ele>265.0</ele><time>2026-03-28T12:40:54.888Z</time></trkpt><trkpt lat="45.7401845434114" lon="9.47519923490432"><ele>265.0</ele><time>2026-03-28T12:40:56.888Z</time></trkpt><trkpt lat="45.740212942136964" lon="9.475008117246245"><ele>265.0</ele><time>2026-03-28T12:40:58.888Z</time></trkpt><trkpt lat="45.7402340810412" lon="9.474891643743533"><ele>265.0</ele><time>2026-03-28T12:40:59.888Z</time></trkpt><trkpt lat="45.74024692808821" lon="9.474756499741066"><ele>265.0</ele><time>2026-03-28T12:41:00.888Z</time></trkpt><trkpt lat="45.74026304614499" lon="9.474610405562904"><ele>265.0</ele><time>2026-03-28T12:41:01.888Z</time></trkpt><trkpt lat="45.74028200489721" lon="9.474470128268964"><ele>265.0</ele><time>2026-03-28T12:41:02.888Z</time></trkpt><trkpt lat="45.7403026972566" lon="9.47433050830505"><ele>265.2</ele><time>2026-03-28T12:41:03.888Z</time></trkpt><trkpt lat="45.740324558269855" lon="9.474200230003424"><ele>265.4</ele><time>2026-03-28T12:41:04.888Z</time></trkpt><trkpt lat="45.74034630300978" lon="9.474079937563333"><ele>265.6</ele><time>2026-03-28T12:41:05.888Z</time></trkpt><trkpt lat="45.74036716772586" lon="9.473956282844401"><ele>265.8</ele><time>2026-03-28T12:41:06.888Z</time></trkpt><trkpt lat="45.74042396976637" lon="9.473847472046176"><ele>266.0</ele><time>2026-03-28T12:41:07.888Z</time></trkpt><trkpt lat="45.74050619540401" lon="9.473712694707602"><ele>266.0</ele><time>2026-03-28T12:41:08.888Z</time></trkpt><trkpt lat="45.74059534103965" lon="9.473593369811422"><ele>266.0</ele><time>2026-03-28T12:41:09.888Z</time></trkpt><trkpt lat="45.74066338908765" lon="9.473465559685575"><ele>266.0</ele><time>2026-03-28T12:41:10.888Z</time></trkpt><trkpt lat="45.74074164343386" lon="9.473326488569205"><ele>266.0</ele><time>2026-03-28T12:41:11.888Z</time></trkpt><trkpt lat="45.740808293688836" lon="9.47320448564332"><ele>266.0</ele><time>2026-03-28T12:41:12.888Z</time></trkpt><trkpt lat="45.7408284808172" lon="9.473065919227757"><ele>266.0</ele><time>2026-03-28T12:41:13.888Z</time></trkpt><trkpt lat="45.74078508867175" lon="9.472930926280505"><ele>266.0</ele><time>2026-03-28T12:41:14.888Z</time></trkpt><trkpt lat="45.740736970744095" lon="9.472816247997201"><ele>266.0</ele><time>2026-03-28T12:41:15.888Z</time></trkpt><trkpt lat="45.7407042363918" lon="9.472681807509376"><ele>266.0</ele><time>2026-03-28T12:41:16.888Z</time></trkpt><trkpt lat="45.74065335431652" lon="9.472579854212759"><ele>265.8</ele><time>2026-03-28T12:41:17.888Z</time></trkpt><trkpt lat="45.740637136869516" lon="9.472453607385575"><ele>265.6</ele><time>2026-03-28T12:41:18.888Z</time></trkpt><trkpt lat="45.74061772686729" lon="9.472309319513448"><ele>265.4</ele><time>2026-03-28T12:41:19.888Z</time></trkpt><trkpt lat="45.74062374422217" lon="9.472167843901046"><ele>265.2</ele><time>2026-03-28T12:41:20.888Z</time></trkpt><trkpt lat="45.740641118359285" lon="9.472033841040403"><ele>265.0</ele><time>2026-03-28T12:41:21.888Z</time></trkpt><trkpt lat="45.74066181228401" lon="9.471913095651955"><ele>264.66666666666663</ele><time>2026-03-28T12:41:22.888Z</time></trkpt><trkpt lat="45.74068343953829" lon="9.47179775674765"><ele>264.3333333333333</ele><time>2026-03-28T12:41:23.888Z</time></trkpt><trkpt lat="45.74070036914491" lon="9.471701564375174"><ele>264.0</ele><time>2026-03-28T12:41:24.888Z</time></trkpt><trkpt lat="45.740722148570725" lon="9.471609982397032"><ele>263.6666666666667</ele><time>2026-03-28T12:41:25.888Z</time></trkpt><trkpt lat="45.7407494266137" lon="9.4715048663871"><ele>263.33333333333337</ele><time>2026-03-28T12:41:26.888Z</time></trkpt><trkpt lat="45.74077506356079" lon="9.471392518339648"><ele>263.0</ele><time>2026-03-28T12:41:27.888Z</time></trkpt><trkpt lat="45.74081282701478" lon="9.471283433648214"><ele>263.0</ele><time>2026-03-28T12:41:28.888Z</time></trkpt><trkpt lat="45.74085534384593" lon="9.47119752950954"><ele>263.0</ele><time>2026-03-28T12:41:29.887Z</time></trkpt><trkpt lat="45.7409056364452" lon="9.471092879272417"><ele>263.0</ele><time>2026-03-28T12:41:30.887Z</time></trkpt><trkpt lat="45.74095379581026" lon="9.470966716348945"><ele>263.0</ele><time>2026-03-28T12:41:31.887Z</time></trkpt><trkpt lat="45.74102664781545" lon="9.470846050906726"><ele>263.0</ele><time>2026-03-28T12:41:32.887Z</time></trkpt><trkpt lat="45.741124177983906" lon="9.470731694330931"><ele>263.25</ele><time>2026-03-28T12:41:33.887Z</time></trkpt><trkpt lat="45.74123610117084" lon="9.470622234877608"><ele>263.5</ele><time>2026-03-28T12:41:34.887Z</time></trkpt><trkpt lat="45.74135720755517" lon="9.470517813337732"><ele>263.75</ele><time>2026-03-28T12:41:35.887Z</time></trkpt><trkpt lat="45.74149014235022" lon="9.470423765238383"><ele>264.0</ele><time>2026-03-28T12:41:36.887Z</time></trkpt><trkpt lat="45.74163684195636" lon="9.470324861696676"><ele>264.3333333333333</ele><time>2026-03-28T12:41:37.887Z</time></trkpt><trkpt lat="45.74180636720697" lon="9.47019630407288"><ele>264.66666666666663</ele><time>2026-03-28T12:41:38.887Z</time></trkpt><trkpt lat="45.741978377224854" lon="9.470077872904822"><ele>265.0</ele><time>2026-03-28T12:41:39.886Z</time></trkpt><trkpt lat="45.74212801284142" lon="9.469978208598947"><ele>265.0</ele><time>2026-03-28T12:41:40.886Z</time></trkpt><trkpt lat="45.742253193019295" lon="9.469893493267328"><ele>265.0</ele><time>2026-03-28T12:41:41.886Z</time></trkpt><trkpt lat="45.74236154416228" lon="9.469816721860365"><ele>265.0</ele><time>2026-03-28T12:41:42.886Z</time></trkpt><trkpt lat="45.74245551073104" lon="9.469751457256834"><ele>265.0</ele><time>2026-03-28T12:41:43.886Z</time></trkpt><trkpt lat="45.742530230370036" lon="9.469703976385567"><ele>265.0</ele><time>2026-03-28T12:41:44.886Z</time></trkpt><trkpt lat="45.742636308471894" lon="9.46964730849555"><ele>265.0</ele><time>2026-03-28T12:41:46.886Z</time></trkpt><trkpt lat="45.742704620384366" lon="9.469648242984906"><ele>265.0</ele><time>2026-03-28T12:41:47.886Z</time></trkpt><trkpt lat="45.74277363411856" lon="9.469627618877556"><ele>265.0</ele><time>2026-03-28T12:41:48.886Z</time></trkpt><trkpt lat="45.742840477093004" lon="9.46954974100503"><ele>265.0</ele><time>2026-03-28T12:41:49.886Z</time></trkpt><trkpt lat="45.74290119984968" lon="9.469439845564155"><ele>265.0</ele><time>2026-03-28T12:41:50.886Z</time></trkpt><trkpt lat="45.74299112438422" lon="9.469358181213611"><ele>265.0</ele><time>2026-03-28T12:41:51.886Z</time></trkpt><trkpt lat="45.74310726722395" lon="9.469272917144211"><ele>264.5</ele><time>2026-03-28T12:41:52.885Z</time></trkpt><trkpt lat="45.7432315375659" lon="9.469178097030872"><ele>264.0</ele><time>2026-03-28T12:41:53.885Z</time></trkpt><trkpt lat="45.7433679825081" lon="9.46908253541031"><ele>263.5</ele><time>2026-03-28T12:41:54.885Z</time></trkpt><trkpt lat="45.743509197401835" lon="9.468997678151357"><ele>263.0</ele><time>2026-03-28T12:41:55.885Z</time></trkpt><trkpt lat="45.74365029480001" lon="9.468931473198865"><ele>262.33333333333337</ele><time>2026-03-28T12:41:56.885Z</time></trkpt><trkpt lat="45.743800313331185" lon="9.468893244210976"><ele>261.6666666666667</ele><time>2026-03-28T12:41:57.885Z</time></trkpt><trkpt lat="45.743942822551766" lon="9.468891488376379"><ele>261.0</ele><time>2026-03-28T12:41:58.885Z</time></trkpt><trkpt lat="45.74409752954475" lon="9.468931132789905"><ele>261.0</ele><time>2026-03-28T12:41:59.885Z</time></trkpt><trkpt lat="45.74423999052289" lon="9.468993994347908"><ele>261.0</ele><time>2026-03-28T12:42:00.885Z</time></trkpt><trkpt lat="45.744378435042314" lon="9.46906480066217"><ele>261.0</ele><time>2026-03-28T12:42:01.885Z</time></trkpt><trkpt lat="45.744531777210305" lon="9.469136715850164"><ele>259.3333333333333</ele><time>2026-03-28T12:42:02.885Z</time></trkpt><trkpt lat="45.74471460666128" lon="9.469227415771886"><ele>257.66666666666663</ele><time>2026-03-28T12:42:03.885Z</time></trkpt><trkpt lat="45.74489238857908" lon="9.469355074676413"><ele>256.0</ele><time>2026-03-28T12:42:04.885Z</time></trkpt><trkpt lat="45.74508359568822" lon="9.469467372142725"><ele>256.0</ele><time>2026-03-28T12:42:05.885Z</time></trkpt><trkpt lat="45.745277537311686" lon="9.469581275628423"><ele>256.0</ele><time>2026-03-28T12:42:06.885Z</time></trkpt><trkpt lat="45.745479741674274" lon="9.469683059705428"><ele>256.0</ele><time>2026-03-28T12:42:07.885Z</time></trkpt><trkpt lat="45.74566791445528" lon="9.469804379032118"><ele>256.3333333333333</ele><time>2026-03-28T12:42:08.885Z</time></trkpt><trkpt lat="45.74584979093126" lon="9.469910283759225"><ele>256.6666666666667</ele><time>2026-03-28T12:42:09.885Z</time></trkpt><trkpt lat="45.746036766877836" lon="9.470015745365574"><ele>257.0</ele><time>2026-03-28T12:42:10.885Z</time></trkpt><trkpt lat="45.7462141806202" lon="9.470092748935475"><ele>255.66666666666669</ele><time>2026-03-28T12:42:11.885Z</time></trkpt><trkpt lat="45.74639215298665" lon="9.470140063411067"><ele>254.33333333333331</ele><time>2026-03-28T12:42:12.885Z</time></trkpt><trkpt lat="45.74657375069776" lon="9.470159579703802"><ele>253.0</ele><time>2026-03-28T12:42:13.885Z</time></trkpt><trkpt lat="45.7467628004191" lon="9.470150396143973"><ele>253.0</ele><time>2026-03-28T12:42:14.885Z</time></trkpt><trkpt lat="45.74695037706739" lon="9.470106843703192"><ele>253.0</ele><time>2026-03-28T12:42:15.885Z</time></trkpt><trkpt lat="45.747126151938886" lon="9.470049164115462"><ele>253.0</ele><time>2026-03-28T12:42:16.885Z</time></trkpt><trkpt lat="45.747296724241494" lon="9.469989524010543"><ele>253.0</ele><time>2026-03-28T12:42:17.885Z</time></trkpt><trkpt lat="45.74747351457919" lon="9.46990406204359"><ele>253.0</ele><time>2026-03-28T12:42:18.885Z</time></trkpt><trkpt lat="45.747666889189496" lon="9.469799501130378"><ele>253.0</ele><time>2026-03-28T12:42:19.885Z</time></trkpt><trkpt lat="45.7478710711216" lon="9.469680169995593"><ele>251.0</ele><time>2026-03-28T12:42:20.885Z</time></trkpt><trkpt lat="45.74807997085434" lon="9.469547623173197"><ele>249.0</ele><time>2026-03-28T12:42:21.885Z</time></trkpt><trkpt lat="45.7482842728274" lon="9.469401106669826"><ele>249.0</ele><time>2026-03-28T12:42:22.885Z</time></trkpt><trkpt lat="45.748471158697114" lon="9.469220000794914"><ele>249.0</ele><time>2026-03-28T12:42:23.885Z</time></trkpt><trkpt lat="45.74863141165579" lon="9.469005435244497"><ele>249.0</ele><time>2026-03-28T12:42:24.885Z</time></trkpt><trkpt lat="45.74877419074748" lon="9.468756353965396"><ele>248.0</ele><time>2026-03-28T12:42:25.885Z</time></trkpt><trkpt lat="45.748969032858845" lon="9.46818164386303"><ele>247.0</ele><time>2026-03-28T12:42:27.885Z</time></trkpt><trkpt lat="45.74902701624457" lon="9.467880963458276"><ele>246.33333333333331</ele><time>2026-03-28T12:42:28.885Z</time></trkpt><trkpt lat="45.74907537498514" lon="9.467603693363904"><ele>245.66666666666669</ele><time>2026-03-28T12:42:29.885Z</time></trkpt><trkpt lat="45.749128484698055" lon="9.467345952152142"><ele>245.0</ele><time>2026-03-28T12:42:30.885Z</time></trkpt><trkpt lat="45.74921895569314" lon="9.466881080882704"><ele>244.0</ele><time>2026-03-28T12:42:32.885Z</time></trkpt><trkpt lat="45.74927671487203" lon="9.46668781086116"><ele>243.0</ele><time>2026-03-28T12:42:33.885Z</time></trkpt><trkpt lat="45.7493611997834" lon="9.466519420803234"><ele>242.0</ele><time>2026-03-28T12:42:34.885Z</time></trkpt><trkpt lat="45.749479600487" lon="9.466360515675108"><ele>241.0</ele><time>2026-03-28T12:42:35.885Z</time></trkpt><trkpt lat="45.74963663329738" lon="9.46620109319024"><ele>240.0</ele><time>2026-03-28T12:42:36.885Z</time></trkpt><trkpt lat="45.749820271143854" lon="9.466032344545482"><ele>239.0</ele><time>2026-03-28T12:42:37.885Z</time></trkpt><trkpt lat="45.750002982080545" lon="9.465858882144117"><ele>239.0</ele><time>2026-03-28T12:42:38.885Z</time></trkpt><trkpt lat="45.7501759435509" lon="9.465696368731653"><ele>239.0</ele><time>2026-03-28T12:42:39.885Z</time></trkpt><trkpt lat="45.750351909059624" lon="9.46552201731855"><ele>239.0</ele><time>2026-03-28T12:42:40.885Z</time></trkpt><trkpt lat="45.75053408970232" lon="9.465336108234261"><ele>238.0</ele><time>2026-03-28T12:42:41.885Z</time></trkpt><trkpt lat="45.75071939491407" lon="9.46513788210973"><ele>237.0</ele><time>2026-03-28T12:42:42.885Z</time></trkpt><trkpt lat="45.75090221672882" lon="9.46494819119931"><ele>241.33333333333331</ele><time>2026-03-28T12:42:43.885Z</time></trkpt><trkpt lat="45.751065316365015" lon="9.464769234962903"><ele>245.66666666666666</ele><time>2026-03-28T12:42:44.885Z</time></trkpt><trkpt lat="45.75121169219914" lon="9.464583705910913"><ele>250.0</ele><time>2026-03-28T12:42:45.885Z</time></trkpt><trkpt lat="45.75133094461355" lon="9.464382379883077"><ele>250.0</ele><time>2026-03-28T12:42:46.885Z</time></trkpt><trkpt lat="45.75143370714702" lon="9.464155253166075"><ele>250.0</ele><time>2026-03-28T12:42:47.885Z</time></trkpt><trkpt lat="45.75151393985366" lon="9.463898120917248"><ele>250.0</ele><time>2026-03-28T12:42:48.885Z</time></trkpt><trkpt lat="45.75158722017851" lon="9.463638886424503"><ele>249.66666666666666</ele><time>2026-03-28T12:42:49.885Z</time></trkpt><trkpt lat="45.75168637576751" lon="9.463391126160765"><ele>249.33333333333331</ele><time>2026-03-28T12:42:50.885Z</time></trkpt><trkpt lat="45.75179498798146" lon="9.463147242693275"><ele>249.0</ele><time>2026-03-28T12:42:51.885Z</time></trkpt><trkpt lat="45.75191104482285" lon="9.462909667754243"><ele>249.0</ele><time>2026-03-28T12:42:52.885Z</time></trkpt><trkpt lat="45.752033846094896" lon="9.46264247900269"><ele>249.0</ele><time>2026-03-28T12:42:53.885Z</time></trkpt><trkpt lat="45.752173328729974" lon="9.462340229979787"><ele>242.0</ele><time>2026-03-28T12:42:54.885Z</time></trkpt><trkpt lat="45.75230946001414" lon="9.462039810624415"><ele>235.0</ele><time>2026-03-28T12:42:55.885Z</time></trkpt><trkpt lat="45.752448447696494" lon="9.461753630539247"><ele>235.0</ele><time>2026-03-28T12:42:56.885Z</time></trkpt><trkpt lat="45.752575505439104" lon="9.461481992390235"><ele>235.0</ele><time>2026-03-28T12:42:57.885Z</time></trkpt><trkpt lat="45.752683008709425" lon="9.4612349971024"><ele>235.0</ele><time>2026-03-28T12:42:58.885Z</time></trkpt><trkpt lat="45.75278752188166" lon="9.460993938979636"><ele>234.66666666666666</ele><time>2026-03-28T12:42:59.885Z</time></trkpt><trkpt lat="45.75288731833417" lon="9.460767941261874"><ele>234.33333333333331</ele><time>2026-03-28T12:43:00.885Z</time></trkpt><trkpt lat="45.752992874541505" lon="9.460553028020811"><ele>234.0</ele><time>2026-03-28T12:43:01.885Z</time></trkpt><trkpt lat="45.75310933117817" lon="9.460352059198035"><ele>234.0</ele><time>2026-03-28T12:43:02.885Z</time></trkpt><trkpt lat="45.75324153066493" lon="9.460140245868562"><ele>234.0</ele><time>2026-03-28T12:43:03.885Z</time></trkpt><trkpt lat="45.75338293053691" lon="9.459907265257268"><ele>234.0</ele><time>2026-03-28T12:43:04.885Z</time></trkpt><trkpt lat="45.75351987384941" lon="9.459669674980374"><ele>235.33333333333331</ele><time>2026-03-28T12:43:05.885Z</time></trkpt><trkpt lat="45.75365263277446" lon="9.459433172746609"><ele>236.66666666666666</ele><time>2026-03-28T12:43:06.885Z</time></trkpt><trkpt lat="45.75378452655731" lon="9.459203676129492"><ele>238.0</ele><time>2026-03-28T12:43:07.885Z</time></trkpt><trkpt lat="45.75391275619045" lon="9.458982376472278"><ele>232.33333333333331</ele><time>2026-03-28T12:43:08.885Z</time></trkpt><trkpt lat="45.75402857311474" lon="9.45877559894303"><ele>226.66666666666669</ele><time>2026-03-28T12:43:09.885Z</time></trkpt><trkpt lat="45.75413778598941" lon="9.45858210812349"><ele>221.0</ele><time>2026-03-28T12:43:10.885Z</time></trkpt><trkpt lat="45.75425104119458" lon="9.458402628270756"><ele>221.0</ele><time>2026-03-28T12:43:11.885Z</time></trkpt><trkpt lat="45.75436617076107" lon="9.458236968780433"><ele>221.0</ele><time>2026-03-28T12:43:12.885Z</time></trkpt><trkpt lat="45.754488068626195" lon="9.458081174350744"><ele>221.0</ele><time>2026-03-28T12:43:13.885Z</time></trkpt><trkpt lat="45.75460884810626" lon="9.457931031675656"><ele>222.0</ele><time>2026-03-28T12:43:14.885Z</time></trkpt><trkpt lat="45.75472441705517" lon="9.457774012394568"><ele>223.0</ele><time>2026-03-28T12:43:15.885Z</time></trkpt><trkpt lat="45.754832577525626" lon="9.457604458294437"><ele>224.0</ele><time>2026-03-28T12:43:16.885Z</time></trkpt><trkpt lat="45.75492493881832" lon="9.457441266037241"><ele>224.0</ele><time>2026-03-28T12:43:17.885Z</time></trkpt><trkpt lat="45.75501758811571" lon="9.457280862594567"><ele>224.0</ele><time>2026-03-28T12:43:18.885Z</time></trkpt><trkpt lat="45.75510443178222" lon="9.457120153211237"><ele>224.0</ele><time>2026-03-28T12:43:19.885Z</time></trkpt><trkpt lat="45.755190067861506" lon="9.456969860140337"><ele>224.0</ele><time>2026-03-28T12:43:20.885Z</time></trkpt><trkpt lat="45.75528054387201" lon="9.456827880417134"><ele>224.75</ele><time>2026-03-28T12:43:21.885Z</time></trkpt><trkpt lat="45.7553815760762" lon="9.456705611867847"><ele>225.5</ele><time>2026-03-28T12:43:22.885Z</time></trkpt><trkpt lat="45.7554920994192" lon="9.456608888002675"><ele>226.25</ele><time>2026-03-28T12:43:23.885Z</time></trkpt><trkpt lat="45.7556179643098" lon="9.456506819880953"><ele>227.0</ele><time>2026-03-28T12:43:24.885Z</time></trkpt><trkpt lat="45.75575547959799" lon="9.456400796300011"><ele>227.0</ele><time>2026-03-28T12:43:25.885Z</time></trkpt><trkpt lat="45.755895550008574" lon="9.456299710743313"><ele>227.0</ele><time>2026-03-28T12:43:26.885Z</time></trkpt><trkpt lat="45.7560338571756" lon="9.45619471814593"><ele>227.0</ele><time>2026-03-28T12:43:27.885Z</time></trkpt><trkpt lat="45.75615847687222" lon="9.456092749239867"><ele>225.25</ele><time>2026-03-28T12:43:28.885Z</time></trkpt><trkpt lat="45.75627719462017" lon="9.455979101005322"><ele>223.5</ele><time>2026-03-28T12:43:29.885Z</time></trkpt><trkpt lat="45.756393198039206" lon="9.455833942069823"><ele>221.75</ele><time>2026-03-28T12:43:30.885Z</time></trkpt><trkpt lat="45.75649455436139" lon="9.4556862356158"><ele>220.0</ele><time>2026-03-28T12:43:31.885Z</time></trkpt><trkpt lat="45.75657762761012" lon="9.455536359247127"><ele>218.5</ele><time>2026-03-28T12:43:32.885Z</time></trkpt><trkpt lat="45.75665178124784" lon="9.455393165882507"><ele>217.0</ele><time>2026-03-28T12:43:33.885Z</time></trkpt><trkpt lat="45.756723341188916" lon="9.45525783728591"><ele>215.5</ele><time>2026-03-28T12:43:34.885Z</time></trkpt><trkpt lat="45.756792728782756" lon="9.455130624100242"><ele>214.0</ele><time>2026-03-28T12:43:35.885Z</time></trkpt><trkpt lat="45.756856005698985" lon="9.455009392318747"><ele>214.39999999999998</ele><time>2026-03-28T12:43:36.885Z</time></trkpt><trkpt lat="45.75692016288731" lon="9.45488906918515"><ele>214.79999999999998</ele><time>2026-03-28T12:43:37.885Z</time></trkpt><trkpt lat="45.75697584060028" lon="9.454768093506903"><ele>215.20000000000002</ele><time>2026-03-28T12:43:38.885Z</time></trkpt><trkpt lat="45.75703035027913" lon="9.454636245991743"><ele>215.60000000000002</ele><time>2026-03-28T12:43:39.885Z</time></trkpt><trkpt lat="45.757094731743116" lon="9.45449620850579"><ele>216.0</ele><time>2026-03-28T12:43:40.885Z</time></trkpt><trkpt lat="45.75717944664088" lon="9.454342362048765"><ele>216.0</ele><time>2026-03-28T12:43:41.885Z</time></trkpt><trkpt lat="45.757278990154205" lon="9.45419444241046"><ele>216.0</ele><time>2026-03-28T12:43:42.885Z</time></trkpt><trkpt lat="45.7573795008732" lon="9.454049489538269"><ele>216.0</ele><time>2026-03-28T12:43:43.885Z</time></trkpt><trkpt lat="45.75748848179221" lon="9.453912269163274"><ele>216.0</ele><time>2026-03-28T12:43:44.885Z</time></trkpt><trkpt lat="45.757612361618044" lon="9.453786143407306"><ele>214.33333333333331</ele><time>2026-03-28T12:43:45.884Z</time></trkpt><trkpt lat="45.7577621282268" lon="9.45365499150336"><ele>212.66666666666666</ele><time>2026-03-28T12:43:46.884Z</time></trkpt><trkpt lat="45.75792436709628" lon="9.453537949497433"><ele>211.0</ele><time>2026-03-28T12:43:47.884Z</time></trkpt><trkpt lat="45.75808680917457" lon="9.453430639473792"><ele>211.0</ele><time>2026-03-28T12:43:48.884Z</time></trkpt><trkpt lat="45.758245036157064" lon="9.453315519319023"><ele>211.0</ele><time>2026-03-28T12:43:49.884Z</time></trkpt><trkpt lat="45.75840589623979" lon="9.453202140346372"><ele>211.0</ele><time>2026-03-28T12:43:50.884Z</time></trkpt><trkpt lat="45.758558108150105" lon="9.453093424579052"><ele>210.33333333333331</ele><time>2026-03-28T12:43:51.884Z</time></trkpt><trkpt lat="45.758702882569814" lon="9.452982848325728"><ele>209.66666666666669</ele><time>2026-03-28T12:43:52.883Z</time></trkpt><trkpt lat="45.758848533171744" lon="9.45287738463476"><ele>209.0</ele><time>2026-03-28T12:43:53.883Z</time></trkpt><trkpt lat="45.758993840063745" lon="9.45277375593236"><ele>209.0</ele><time>2026-03-28T12:43:54.884Z</time></trkpt><trkpt lat="45.75913147585815" lon="9.452655349665635"><ele>209.0</ele><time>2026-03-28T12:43:55.883Z</time></trkpt><trkpt lat="45.75925944235528" lon="9.452515471433228"><ele>209.0</ele><time>2026-03-28T12:43:56.883Z</time></trkpt><trkpt lat="45.75939244820602" lon="9.452353640493147"><ele>208.66666666666669</ele><time>2026-03-28T12:43:57.884Z</time></trkpt><trkpt lat="45.75953101691448" lon="9.452167639000457"><ele>208.33333333333331</ele><time>2026-03-28T12:43:58.884Z</time></trkpt><trkpt lat="45.75969266830512" lon="9.451940377311898"><ele>208.0</ele><time>2026-03-28T12:43:59.884Z</time></trkpt><trkpt lat="45.75987484041928" lon="9.45171097469913"><ele>208.0</ele><time>2026-03-28T12:44:00.884Z</time></trkpt><trkpt lat="45.760051678928164" lon="9.451500117119231"><ele>208.0</ele><time>2026-03-28T12:44:01.884Z</time></trkpt><trkpt lat="45.76021323658318" lon="9.451310425986971"><ele>208.0</ele><time>2026-03-28T12:44:02.884Z</time></trkpt><trkpt lat="45.760363957019344" lon="9.451129796521279"><ele>206.0</ele><time>2026-03-28T12:44:03.884Z</time></trkpt><trkpt lat="45.76050230051724" lon="9.450957932216669"><ele>204.0</ele><time>2026-03-28T12:44:04.884Z</time></trkpt><trkpt lat="45.76063334103601" lon="9.45079232734192"><ele>202.0</ele><time>2026-03-28T12:44:05.884Z</time></trkpt><trkpt lat="45.76076239538953" lon="9.450627164249454"><ele>202.0</ele><time>2026-03-28T12:44:06.884Z</time></trkpt><trkpt lat="45.760906398098626" lon="9.450437243139586"><ele>202.0</ele><time>2026-03-28T12:44:07.884Z</time></trkpt><trkpt lat="45.7610509069738" lon="9.450257405956522"><ele>202.0</ele><time>2026-03-28T12:44:08.884Z</time></trkpt><trkpt lat="45.761194154926564" lon="9.450085781083674"><ele>203.0</ele><time>2026-03-28T12:44:09.884Z</time></trkpt><trkpt lat="45.7613230306444" lon="9.449926273813706"><ele>204.0</ele><time>2026-03-28T12:44:10.884Z</time></trkpt><trkpt lat="45.76143386519209" lon="9.449784305364544"><ele>205.0</ele><time>2026-03-28T12:44:11.884Z</time></trkpt><trkpt lat="45.761548637680306" lon="9.449620043498301"><ele>205.33333333333331</ele><time>2026-03-28T12:44:12.884Z</time></trkpt><trkpt lat="45.76168926474555" lon="9.449443343564965"><ele>205.66666666666669</ele><time>2026-03-28T12:44:13.884Z</time></trkpt><trkpt lat="45.761821920376036" lon="9.449282006295858"><ele>206.0</ele><time>2026-03-28T12:44:14.884Z</time></trkpt><trkpt lat="45.761946816879515" lon="9.449119779444045"><ele>205.66666666666669</ele><time>2026-03-28T12:44:15.884Z</time></trkpt><trkpt lat="45.76206958557352" lon="9.448964252781794"><ele>205.33333333333331</ele><time>2026-03-28T12:44:16.884Z</time></trkpt><trkpt lat="45.76220046022233" lon="9.44879204393625"><ele>205.0</ele><time>2026-03-28T12:44:17.884Z</time></trkpt><trkpt lat="45.76234279164905" lon="9.448612687110591"><ele>205.0</ele><time>2026-03-28T12:44:18.884Z</time></trkpt><trkpt lat="45.762483282536465" lon="9.448439482758129"><ele>205.0</ele><time>2026-03-28T12:44:19.884Z</time></trkpt><trkpt lat="45.762623956165655" lon="9.448274417529655"><ele>205.0</ele><time>2026-03-28T12:44:20.884Z</time></trkpt><trkpt lat="45.762770286698206" lon="9.44810702634216"><ele>205.33333333333331</ele><time>2026-03-28T12:44:21.884Z</time></trkpt><trkpt lat="45.76292516998115" lon="9.44794312150716"><ele>205.66666666666669</ele><time>2026-03-28T12:44:22.884Z</time></trkpt><trkpt lat="45.76309354523887" lon="9.447789030312109"><ele>206.0</ele><time>2026-03-28T12:44:23.884Z</time></trkpt><trkpt lat="45.763264723931194" lon="9.447653114620499"><ele>206.0</ele><time>2026-03-28T12:44:24.884Z</time></trkpt><trkpt lat="45.76343711090711" lon="9.447528632822438"><ele>206.0</ele><time>2026-03-28T12:44:25.884Z</time></trkpt><trkpt lat="45.7636032860213" lon="9.44741197440417"><ele>206.0</ele><time>2026-03-28T12:44:26.884Z</time></trkpt><trkpt lat="45.76376372110846" lon="9.447294103549336"><ele>205.33333333333334</ele><time>2026-03-28T12:44:27.884Z</time></trkpt><trkpt lat="45.763937085660785" lon="9.447173520753886"><ele>204.66666666666669</ele><time>2026-03-28T12:44:28.884Z</time></trkpt><trkpt lat="45.7641183447557" lon="9.44704208207464"><ele>204.0</ele><time>2026-03-28T12:44:29.884Z</time></trkpt><trkpt lat="45.76430525493273" lon="9.44690663929696"><ele>202.66666666666669</ele><time>2026-03-28T12:44:30.884Z</time></trkpt><trkpt lat="45.76449444597091" lon="9.446766922836055"><ele>201.33333333333334</ele><time>2026-03-28T12:44:31.884Z</time></trkpt><trkpt lat="45.7646843224755" lon="9.446629318862255"><ele>200.0</ele><time>2026-03-28T12:44:32.884Z</time></trkpt><trkpt lat="45.76486219573608" lon="9.44650511879298"><ele>200.0</ele><time>2026-03-28T12:44:33.884Z</time></trkpt><trkpt lat="45.765036492646985" lon="9.446381656875"><ele>200.0</ele><time>2026-03-28T12:44:34.884Z</time></trkpt><trkpt lat="45.76522607372566" lon="9.446253054269505"><ele>200.0</ele><time>2026-03-28T12:44:35.884Z</time></trkpt><trkpt lat="45.76541264468924" lon="9.446127093369405"><ele>200.33333333333334</ele><time>2026-03-28T12:44:36.884Z</time></trkpt><trkpt lat="45.765602380444065" lon="9.446003831326559"><ele>200.66666666666669</ele><time>2026-03-28T12:44:37.884Z</time></trkpt><trkpt lat="45.76579370052768" lon="9.445883275046217"><ele>201.0</ele><time>2026-03-28T12:44:38.884Z</time></trkpt><trkpt lat="45.76599089581684" lon="9.445774461745645"><ele>201.66666666666669</ele><time>2026-03-28T12:44:39.884Z</time></trkpt><trkpt lat="45.76619170953912" lon="9.44567145324775"><ele>202.33333333333334</ele><time>2026-03-28T12:44:40.884Z</time></trkpt><trkpt lat="45.76638555338823" lon="9.44557964640948"><ele>203.0</ele><time>2026-03-28T12:44:41.884Z</time></trkpt><trkpt lat="45.76657844132417" lon="9.445496862891012"><ele>201.33333333333334</ele><time>2026-03-28T12:44:42.884Z</time></trkpt><trkpt lat="45.766773264024174" lon="9.445413825009341"><ele>199.66666666666669</ele><time>2026-03-28T12:44:43.884Z</time></trkpt><trkpt lat="45.76697358119312" lon="9.445320021873385"><ele>198.0</ele><time>2026-03-28T12:44:44.884Z</time></trkpt><trkpt lat="45.76717921649221" lon="9.44523105047352"><ele>198.0</ele><time>2026-03-28T12:44:45.884Z</time></trkpt><trkpt lat="45.76738677589312" lon="9.44513858440731"><ele>198.0</ele><time>2026-03-28T12:44:46.884Z</time></trkpt><trkpt lat="45.76759632450518" lon="9.445043643041851"><ele>198.0</ele><time>2026-03-28T12:44:47.884Z</time></trkpt><trkpt lat="45.76780603164712" lon="9.444946639474137"><ele>200.5</ele><time>2026-03-28T12:44:48.884Z</time></trkpt><trkpt lat="45.76802473643375" lon="9.444851772285855"><ele>203.0</ele><time>2026-03-28T12:44:49.884Z</time></trkpt><trkpt lat="45.7682623405262" lon="9.444743932647143"><ele>198.0</ele><time>2026-03-28T12:44:50.884Z</time></trkpt><trkpt lat="45.76852042157167" lon="9.44462534802829"><ele>193.0</ele><time>2026-03-28T12:44:51.884Z</time></trkpt><trkpt lat="45.7687967681902" lon="9.444502552357854"><ele>193.0</ele><time>2026-03-28T12:44:52.884Z</time></trkpt><trkpt lat="45.76907180870074" lon="9.444381012023621"><ele>193.0</ele><time>2026-03-28T12:44:53.884Z</time></trkpt><trkpt lat="45.76933246607491" lon="9.44428060253887"><ele>195.5</ele><time>2026-03-28T12:44:54.884Z</time></trkpt><trkpt lat="45.769584207824316" lon="9.444182730631564"><ele>198.0</ele><time>2026-03-28T12:44:55.884Z</time></trkpt><trkpt lat="45.76982135038437" lon="9.444078093785519"><ele>198.0</ele><time>2026-03-28T12:44:56.884Z</time></trkpt><trkpt lat="45.77005005593993" lon="9.443973033510964"><ele>198.0</ele><time>2026-03-28T12:44:57.884Z</time></trkpt><trkpt lat="45.770282157202104" lon="9.443869867206205"><ele>197.5</ele><time>2026-03-28T12:44:58.884Z</time></trkpt><trkpt lat="45.77052343355055" lon="9.443763380387132"><ele>197.0</ele><time>2026-03-28T12:44:59.884Z</time></trkpt><trkpt lat="45.77077104738071" lon="9.443650634132181"><ele>197.0</ele><time>2026-03-28T12:45:00.884Z</time></trkpt><trkpt lat="45.77101605318511" lon="9.4435381079833"><ele>197.0</ele><time>2026-03-28T12:45:01.884Z</time></trkpt><trkpt lat="45.771242253510856" lon="9.443443590549307"><ele>198.0</ele><time>2026-03-28T12:45:02.884Z</time></trkpt><trkpt lat="45.77146576596624" lon="9.443366829786203"><ele>199.0</ele><time>2026-03-28T12:45:03.884Z</time></trkpt><trkpt lat="45.771684735599166" lon="9.443318014560248"><ele>201.0</ele><time>2026-03-28T12:45:04.884Z</time></trkpt><trkpt lat="45.77190497026766" lon="9.443299979225868"><ele>203.0</ele><time>2026-03-28T12:45:05.884Z</time></trkpt><trkpt lat="45.77213593164507" lon="9.443311881385029"><ele>203.0</ele><time>2026-03-28T12:45:06.884Z</time></trkpt><trkpt lat="45.77236521434275" lon="9.443340161629733"><ele>203.0</ele><time>2026-03-28T12:45:07.884Z</time></trkpt><trkpt lat="45.77257932631158" lon="9.443375543225606"><ele>203.0</ele><time>2026-03-28T12:45:08.884Z</time></trkpt><trkpt lat="45.772794567760336" lon="9.44340468392396"><ele>202.33333333333334</ele><time>2026-03-28T12:45:09.884Z</time></trkpt><trkpt lat="45.77300695152497" lon="9.443422122352775"><ele>201.66666666666669</ele><time>2026-03-28T12:45:10.884Z</time></trkpt><trkpt lat="45.773220133920844" lon="9.443430172566629"><ele>201.0</ele><time>2026-03-28T12:45:11.884Z</time></trkpt><trkpt lat="45.77344246153705" lon="9.443445257036444"><ele>201.0</ele><time>2026-03-28T12:45:12.884Z</time></trkpt><trkpt lat="45.773679876972004" lon="9.443455868978328"><ele>201.0</ele><time>2026-03-28T12:45:13.884Z</time></trkpt><trkpt lat="45.773920564111215" lon="9.44348052329475"><ele>201.0</ele><time>2026-03-28T12:45:14.884Z</time></trkpt><trkpt lat="45.774146391854245" lon="9.443494840597555"><ele>201.0</ele><time>2026-03-28T12:45:15.884Z</time></trkpt><trkpt lat="45.77435800639033" lon="9.443484969208102"><ele>201.0</ele><time>2026-03-28T12:45:16.884Z</time></trkpt><trkpt lat="45.77456762108255" lon="9.443467202762326"><ele>202.33333333333331</ele><time>2026-03-28T12:45:17.884Z</time></trkpt><trkpt lat="45.77477439302181" lon="9.443425856058669"><ele>203.66666666666666</ele><time>2026-03-28T12:45:18.884Z</time></trkpt><trkpt lat="45.774981650996175" lon="9.44336141505483"><ele>205.0</ele><time>2026-03-28T12:45:19.884Z</time></trkpt><trkpt lat="45.77518337086271" lon="9.443298888892889"><ele>206.0</ele><time>2026-03-28T12:45:20.884Z</time></trkpt><trkpt lat="45.77539403584636" lon="9.443258081632191"><ele>207.0</ele><time>2026-03-28T12:45:21.884Z</time></trkpt><trkpt lat="45.775595113735676" lon="9.443221661746621"><ele>208.0</ele><time>2026-03-28T12:45:22.884Z</time></trkpt><trkpt lat="45.77578257925963" lon="9.443172941287786"><ele>208.0</ele><time>2026-03-28T12:45:23.884Z</time></trkpt><trkpt lat="45.77597026657494" lon="9.443105071392889"><ele>208.0</ele><time>2026-03-28T12:45:24.884Z</time></trkpt><trkpt lat="45.776155436654115" lon="9.443016658152064"><ele>208.0</ele><time>2026-03-28T12:45:25.884Z</time></trkpt><trkpt lat="45.77633857127893" lon="9.442907623489242"><ele>206.0</ele><time>2026-03-28T12:45:26.884Z</time></trkpt><trkpt lat="45.77651827905061" lon="9.442783077296838"><ele>204.0</ele><time>2026-03-28T12:45:27.884Z</time></trkpt><trkpt lat="45.77670950614983" lon="9.44264523722399"><ele>202.0</ele><time>2026-03-28T12:45:28.884Z</time></trkpt><trkpt lat="45.7769114472414" lon="9.442503003719972"><ele>202.0</ele><time>2026-03-28T12:45:29.884Z</time></trkpt><trkpt lat="45.77711042211084" lon="9.44236673101127"><ele>202.0</ele><time>2026-03-28T12:45:30.884Z</time></trkpt><trkpt lat="45.77730578052787" lon="9.442231665898403"><ele>202.0</ele><time>2026-03-28T12:45:31.884Z</time></trkpt><trkpt lat="45.77749417669684" lon="9.442091451397385"><ele>201.33333333333331</ele><time>2026-03-28T12:45:32.884Z</time></trkpt><trkpt lat="45.77768309277756" lon="9.4419514960775"><ele>200.66666666666669</ele><time>2026-03-28T12:45:33.884Z</time></trkpt><trkpt lat="45.77788085450691" lon="9.441822182806375"><ele>200.0</ele><time>2026-03-28T12:45:34.884Z</time></trkpt><trkpt lat="45.77810646523791" lon="9.441708282094396"><ele>199.5</ele><time>2026-03-28T12:45:35.884Z</time></trkpt><trkpt lat="45.778337595932406" lon="9.44162356602386"><ele>199.0</ele><time>2026-03-28T12:45:36.884Z</time></trkpt><trkpt lat="45.778549704839634" lon="9.44158900564769"><ele>200.66666666666666</ele><time>2026-03-28T12:45:37.884Z</time></trkpt><trkpt lat="45.77875810749387" lon="9.441575872773653"><ele>202.33333333333331</ele><time>2026-03-28T12:45:38.884Z</time></trkpt><trkpt lat="45.778970205225924" lon="9.441548734223378"><ele>204.0</ele><time>2026-03-28T12:45:39.884Z</time></trkpt><trkpt lat="45.7791744683641" lon="9.441509603530223"><ele>204.66666666666669</ele><time>2026-03-28T12:45:40.884Z</time></trkpt><trkpt lat="45.77938508911164" lon="9.441481524876185"><ele>205.33333333333334</ele><time>2026-03-28T12:45:41.884Z</time></trkpt><trkpt lat="45.77958858005029" lon="9.441463975296877"><ele>206.0</ele><time>2026-03-28T12:45:42.884Z</time></trkpt><trkpt lat="45.779795762209275" lon="9.441456115077964"><ele>206.0</ele><time>2026-03-28T12:45:43.884Z</time></trkpt><trkpt lat="45.7799967384729" lon="9.441459535712232"><ele>206.0</ele><time>2026-03-28T12:45:44.884Z</time></trkpt><trkpt lat="45.780192594858285" lon="9.441466720854951"><ele>206.0</ele><time>2026-03-28T12:45:45.884Z</time></trkpt><trkpt lat="45.78038217358976" lon="9.4414655814637"><ele>206.33333333333334</ele><time>2026-03-28T12:45:46.884Z</time></trkpt><trkpt lat="45.780566479036835" lon="9.441463529244022"><ele>206.66666666666669</ele><time>2026-03-28T12:45:47.884Z</time></trkpt><trkpt lat="45.78075190986911" lon="9.44146164071265"><ele>207.0</ele><time>2026-03-28T12:45:48.884Z</time></trkpt><trkpt lat="45.78093551548645" lon="9.441460073297524"><ele>206.66666666666669</ele><time>2026-03-28T12:45:49.884Z</time></trkpt><trkpt lat="45.78111125220077" lon="9.441459503906492"><ele>206.33333333333334</ele><time>2026-03-28T12:45:50.884Z</time></trkpt><trkpt lat="45.78129350600672" lon="9.441459350398254"><ele>206.0</ele><time>2026-03-28T12:45:51.882Z</time></trkpt><trkpt lat="45.78147854947949" lon="9.441452189726052"><ele>206.0</ele><time>2026-03-28T12:45:52.882Z</time></trkpt><trkpt lat="45.78166706931157" lon="9.441444502217815"><ele>206.0</ele><time>2026-03-28T12:45:53.882Z</time></trkpt><trkpt lat="45.781844928087295" lon="9.441434184730486"><ele>206.0</ele><time>2026-03-28T12:45:54.882Z</time></trkpt><trkpt lat="45.78201621376226" lon="9.441428123137023"><ele>205.66666666666669</ele><time>2026-03-28T12:45:55.882Z</time></trkpt><trkpt lat="45.78218226255752" lon="9.441429096468458"><ele>205.33333333333331</ele><time>2026-03-28T12:45:56.882Z</time></trkpt><trkpt lat="45.7823404622536" lon="9.441439781940762"><ele>205.0</ele><time>2026-03-28T12:45:57.882Z</time></trkpt><trkpt lat="45.782492516705375" lon="9.441449587423932"><ele>205.0</ele><time>2026-03-28T12:45:58.882Z</time></trkpt><trkpt lat="45.78263584355888" lon="9.441455682044415"><ele>205.0</ele><time>2026-03-28T12:45:59.882Z</time></trkpt><trkpt lat="45.782775155083534" lon="9.441458877611316"><ele>205.0</ele><time>2026-03-28T12:46:00.882Z</time></trkpt><trkpt lat="45.782920479319785" lon="9.441457177114314"><ele>205.0</ele><time>2026-03-28T12:46:01.882Z</time></trkpt><trkpt lat="45.78305562979272" lon="9.441444113425858"><ele>204.75</ele><time>2026-03-28T12:46:02.882Z</time></trkpt><trkpt lat="45.783184496883855" lon="9.441435080078874"><ele>204.5</ele><time>2026-03-28T12:46:03.882Z</time></trkpt><trkpt lat="45.78330683290259" lon="9.441425947875942"><ele>204.25</ele><time>2026-03-28T12:46:04.881Z</time></trkpt><trkpt lat="45.783419098605464" lon="9.441412917313071"><ele>204.0</ele><time>2026-03-28T12:46:05.881Z</time></trkpt><trkpt lat="45.783522691794076" lon="9.441400989902597"><ele>204.0</ele><time>2026-03-28T12:46:06.881Z</time></trkpt><trkpt lat="45.7836068195854" lon="9.441381845008035"><ele>204.0</ele><time>2026-03-28T12:46:07.881Z</time></trkpt><trkpt lat="45.783681441813634" lon="9.441355215332946"><ele>204.0</ele><time>2026-03-28T12:46:08.881Z</time></trkpt><trkpt lat="45.78375412544398" lon="9.44133692417601"><ele>204.0</ele><time>2026-03-28T12:46:09.881Z</time></trkpt><trkpt lat="45.78383350108842" lon="9.441333808110276"><ele>204.0</ele><time>2026-03-28T12:46:10.881Z</time></trkpt><trkpt lat="45.78394199703378" lon="9.441348091366335"><ele>204.0</ele><time>2026-03-28T12:46:11.881Z</time></trkpt><trkpt lat="45.78408809102222" lon="9.441345225984833"><ele>204.0</ele><time>2026-03-28T12:46:12.881Z</time></trkpt><trkpt lat="45.78423282260552" lon="9.441334924013761"><ele>204.0</ele><time>2026-03-28T12:46:13.881Z</time></trkpt><trkpt lat="45.784382931229054" lon="9.44136465895061"><ele>204.0</ele><time>2026-03-28T12:46:14.881Z</time></trkpt><trkpt lat="45.78452859493477" lon="9.44139727358849"><ele>204.0</ele><time>2026-03-28T12:46:15.881Z</time></trkpt><trkpt lat="45.78467794873529" lon="9.441415882073663"><ele>204.5</ele><time>2026-03-28T12:46:16.881Z</time></trkpt><trkpt lat="45.784821910508875" lon="9.441424008912945"><ele>205.0</ele><time>2026-03-28T12:46:17.881Z</time></trkpt><trkpt lat="45.78496299756179" lon="9.44142343593126"><ele>205.5</ele><time>2026-03-28T12:46:18.881Z</time></trkpt><trkpt lat="45.7851032983414" lon="9.441417032537283"><ele>206.0</ele><time>2026-03-28T12:46:19.881Z</time></trkpt><trkpt lat="45.78524073027449" lon="9.441404740956909"><ele>206.0</ele><time>2026-03-28T12:46:20.881Z</time></trkpt><trkpt lat="45.785373785190856" lon="9.441395491426965"><ele>206.0</ele><time>2026-03-28T12:46:21.881Z</time></trkpt><trkpt lat="45.78550948399502" lon="9.44138212783059"><ele>206.0</ele><time>2026-03-28T12:46:22.881Z</time></trkpt><trkpt lat="45.785641206761774" lon="9.441364704227361"><ele>206.0</ele><time>2026-03-28T12:46:23.881Z</time></trkpt><trkpt lat="45.785771223696884" lon="9.441320282121204"><ele>206.0</ele><time>2026-03-28T12:46:24.881Z</time></trkpt><trkpt lat="45.785903684085895" lon="9.441244969345561"><ele>206.0</ele><time>2026-03-28T12:46:25.881Z</time></trkpt><trkpt lat="45.786033259512564" lon="9.441155720688851"><ele>206.0</ele><time>2026-03-28T12:46:26.881Z</time></trkpt><trkpt lat="45.78615469121663" lon="9.441069646543225"><ele>206.0</ele><time>2026-03-28T12:46:27.881Z</time></trkpt><trkpt lat="45.78627543918089" lon="9.440988901663262"><ele>206.0</ele><time>2026-03-28T12:46:28.881Z</time></trkpt><trkpt lat="45.78640017330993" lon="9.44093725508577"><ele>206.0</ele><time>2026-03-28T12:46:29.881Z</time></trkpt><trkpt lat="45.78653547244728" lon="9.440925395522308"><ele>206.0</ele><time>2026-03-28T12:46:30.881Z</time></trkpt><trkpt lat="45.78667723728064" lon="9.440933396239636"><ele>206.0</ele><time>2026-03-28T12:46:31.881Z</time></trkpt><trkpt lat="45.78682984826424" lon="9.440938911713461"><ele>205.5</ele><time>2026-03-28T12:46:32.881Z</time></trkpt><trkpt lat="45.786991691307676" lon="9.440934101805219"><ele>205.0</ele><time>2026-03-28T12:46:33.881Z</time></trkpt><trkpt lat="45.78713391984628" lon="9.440924254229445"><ele>204.5</ele><time>2026-03-28T12:46:34.881Z</time></trkpt><trkpt lat="45.78727491197412" lon="9.440914081352433"><ele>204.0</ele><time>2026-03-28T12:46:35.881Z</time></trkpt><trkpt lat="45.78740766721474" lon="9.440905793042068"><ele>204.0</ele><time>2026-03-28T12:46:36.881Z</time></trkpt><trkpt lat="45.78752253993565" lon="9.440893182124846"><ele>204.0</ele><time>2026-03-28T12:46:37.881Z</time></trkpt><trkpt lat="45.78761811776221" lon="9.440876811997198"><ele>204.0</ele><time>2026-03-28T12:46:38.881Z</time></trkpt><trkpt lat="45.78770283993978" lon="9.440867406759182"><ele>204.0</ele><time>2026-03-28T12:46:39.881Z</time></trkpt><trkpt lat="45.787779441246364" lon="9.440867599563573"><ele>204.0</ele><time>2026-03-28T12:46:40.881Z</time></trkpt><trkpt lat="45.7878722087274" lon="9.440861484691986"><ele>204.39999999999998</ele><time>2026-03-28T12:46:41.881Z</time></trkpt><trkpt lat="45.78796235765874" lon="9.440806456477416"><ele>204.8</ele><time>2026-03-28T12:46:42.881Z</time></trkpt><trkpt lat="45.78803773873278" lon="9.440722267387331"><ele>205.2</ele><time>2026-03-28T12:46:43.881Z</time></trkpt><trkpt lat="45.78811812894059" lon="9.440648654875467"><ele>205.60000000000002</ele><time>2026-03-28T12:46:44.881Z</time></trkpt><trkpt lat="45.78821711016628" lon="9.440599506098769"><ele>206.0</ele><time>2026-03-28T12:46:45.881Z</time></trkpt><trkpt lat="45.788317310640586" lon="9.440555330391842"><ele>206.0</ele><time>2026-03-28T12:46:46.881Z</time></trkpt><trkpt lat="45.78841476920671" lon="9.440503753664386"><ele>206.0</ele><time>2026-03-28T12:46:47.881Z</time></trkpt><trkpt lat="45.788517932479394" lon="9.440445675280008"><ele>206.0</ele><time>2026-03-28T12:46:48.881Z</time></trkpt><trkpt lat="45.788623292297615" lon="9.440385271557709"><ele>206.0</ele><time>2026-03-28T12:46:49.881Z</time></trkpt><trkpt lat="45.78873571151518" lon="9.44032487604501"><ele>206.0</ele><time>2026-03-28T12:46:50.881Z</time></trkpt><trkpt lat="45.78884856766334" lon="9.440270227321625"><ele>206.5</ele><time>2026-03-28T12:46:51.881Z</time></trkpt><trkpt lat="45.788950692478934" lon="9.440216456100176"><ele>207.0</ele><time>2026-03-28T12:46:52.881Z</time></trkpt><trkpt lat="45.78905741125002" lon="9.44015522113725"><ele>207.5</ele><time>2026-03-28T12:46:53.881Z</time></trkpt><trkpt lat="45.78917383192005" lon="9.44009175298122"><ele>208.0</ele><time>2026-03-28T12:46:54.881Z</time></trkpt><trkpt lat="45.78929668487913" lon="9.440029375786388"><ele>208.2</ele><time>2026-03-28T12:46:55.881Z</time></trkpt><trkpt lat="45.78941149150878" lon="9.439971750140481"><ele>208.4</ele><time>2026-03-28T12:46:56.881Z</time></trkpt><trkpt lat="45.789525614342004" lon="9.439913263299381"><ele>208.6</ele><time>2026-03-28T12:46:57.881Z</time></trkpt><trkpt lat="45.78962322489049" lon="9.439868090618571"><ele>208.79999999999998</ele><time>2026-03-28T12:46:58.881Z</time></trkpt><trkpt lat="45.78970382629694" lon="9.439827193108803"><ele>209.0</ele><time>2026-03-28T12:46:59.881Z</time></trkpt><trkpt lat="45.78978357023985" lon="9.439787334049718"><ele>209.00000000000003</ele><time>2026-03-28T12:47:00.881Z</time></trkpt><trkpt lat="45.789857723629936" lon="9.439750268252808"><ele>209.0</ele><time>2026-03-28T12:47:01.881Z</time></trkpt><trkpt lat="45.789922823386476" lon="9.439719996754341"><ele>209.0</ele><time>2026-03-28T12:47:02.881Z</time></trkpt><trkpt lat="45.78998373659432" lon="9.439693527467863"><ele>209.0</ele><time>2026-03-28T12:47:03.881Z</time></trkpt><trkpt lat="45.79009574318781" lon="9.43965132218888"><ele>209.00000000000003</ele><time>2026-03-28T12:47:05.881Z</time></trkpt><trkpt lat="45.790206059939734" lon="9.439671990159715"><ele>209.0</ele><time>2026-03-28T12:47:07.881Z</time></trkpt><trkpt lat="45.79030405425484" lon="9.43978275916514"><ele>209.83333333333334</ele><time>2026-03-28T12:47:09.881Z</time></trkpt><trkpt lat="45.790352229275896" lon="9.43984406454029"><ele>210.66666666666669</ele><time>2026-03-28T12:47:10.881Z</time></trkpt><trkpt lat="45.79047336321565" lon="9.439868899912065"><ele>211.5</ele><time>2026-03-28T12:47:12.881Z</time></trkpt><trkpt lat="45.790521257156136" lon="9.439804799079344"><ele>212.33333333333331</ele><time>2026-03-28T12:47:13.881Z</time></trkpt><trkpt lat="45.79055047462682" lon="9.439694603137726"><ele>213.16666666666666</ele><time>2026-03-28T12:47:14.881Z</time></trkpt><trkpt lat="45.79054470930929" lon="9.439578490942003"><ele>214.0</ele><time>2026-03-28T12:47:15.881Z</time></trkpt><trkpt lat="45.790588472213514" lon="9.439462403633826"><ele>214.0</ele><time>2026-03-28T12:47:16.881Z</time></trkpt><trkpt lat="45.790613005321475" lon="9.439360670243776"><ele>213.99999999999997</ele><time>2026-03-28T12:47:17.881Z</time></trkpt><trkpt lat="45.7907114026152" lon="9.43933984428734"><ele>213.99999999999997</ele><time>2026-03-28T12:47:18.881Z</time></trkpt><trkpt lat="45.79079563487895" lon="9.439294046903012"><ele>214.0</ele><time>2026-03-28T12:47:19.881Z</time></trkpt><trkpt lat="45.79089951960775" lon="9.439237679758294"><ele>214.0</ele><time>2026-03-28T12:47:20.881Z</time></trkpt><trkpt lat="45.79103585872539" lon="9.439164001102666"><ele>214.5</ele><time>2026-03-28T12:47:21.881Z</time></trkpt><trkpt lat="45.79117679107359" lon="9.439088916418656"><ele>215.0</ele><time>2026-03-28T12:47:22.881Z</time></trkpt><trkpt lat="45.791314256362355" lon="9.439029404017754"><ele>215.5</ele><time>2026-03-28T12:47:23.881Z</time></trkpt><trkpt lat="45.79144344910924" lon="9.438975775411567"><ele>216.0</ele><time>2026-03-28T12:47:24.881Z</time></trkpt><trkpt lat="45.791563511341735" lon="9.438911842385181"><ele>216.0</ele><time>2026-03-28T12:47:25.881Z</time></trkpt><trkpt lat="45.79167830379977" lon="9.43884323930223"><ele>216.0</ele><time>2026-03-28T12:47:26.881Z</time></trkpt><trkpt lat="45.79178265967986" lon="9.438780564852125"><ele>216.0</ele><time>2026-03-28T12:47:27.881Z</time></trkpt><trkpt lat="45.7918803077569" lon="9.438704692564022"><ele>216.0</ele><time>2026-03-28T12:47:28.881Z</time></trkpt><trkpt lat="45.79196785884963" lon="9.43862480671534"><ele>216.4</ele><time>2026-03-28T12:47:29.881Z</time></trkpt><trkpt lat="45.79205180072828" lon="9.438555771794453"><ele>216.8</ele><time>2026-03-28T12:47:30.881Z</time></trkpt><trkpt lat="45.792138054161384" lon="9.438494561833702"><ele>217.20000000000002</ele><time>2026-03-28T12:47:31.881Z</time></trkpt><trkpt lat="45.79222198144084" lon="9.438429161452952"><ele>217.60000000000002</ele><time>2026-03-28T12:47:32.881Z</time></trkpt><trkpt lat="45.79231131570484" lon="9.438352202967492"><ele>218.0</ele><time>2026-03-28T12:47:33.881Z</time></trkpt><trkpt lat="45.792408648054526" lon="9.438269873213823"><ele>218.0</ele><time>2026-03-28T12:47:34.881Z</time></trkpt><trkpt lat="45.79251432894327" lon="9.438183270642217"><ele>218.0</ele><time>2026-03-28T12:47:35.881Z</time></trkpt><trkpt lat="45.79261542072715" lon="9.438100523025103"><ele>218.0</ele><time>2026-03-28T12:47:36.881Z</time></trkpt><trkpt lat="45.79270419190214" lon="9.438019623712057"><ele>218.0</ele><time>2026-03-28T12:47:37.881Z</time></trkpt><trkpt lat="45.79278913681397" lon="9.43794324066764"><ele>218.0</ele><time>2026-03-28T12:47:38.881Z</time></trkpt><trkpt lat="45.79285651648217" lon="9.437876205432392"><ele>218.16666666666669</ele><time>2026-03-28T12:47:39.881Z</time></trkpt><trkpt lat="45.79292063328929" lon="9.437815539517308"><ele>218.33333333333334</ele><time>2026-03-28T12:47:40.881Z</time></trkpt><trkpt lat="45.79298084176828" lon="9.437759736399697"><ele>218.5</ele><time>2026-03-28T12:47:41.881Z</time></trkpt><trkpt lat="45.79304269289875" lon="9.437711243911957"><ele>218.66666666666669</ele><time>2026-03-28T12:47:42.881Z</time></trkpt><trkpt lat="45.793114965421246" lon="9.437655276639465"><ele>218.83333333333334</ele><time>2026-03-28T12:47:43.881Z</time></trkpt><trkpt lat="45.79318545739965" lon="9.437597815020146"><ele>219.0</ele><time>2026-03-28T12:47:44.881Z</time></trkpt><trkpt lat="45.793258464819026" lon="9.437526262120855"><ele>219.0</ele><time>2026-03-28T12:47:45.881Z</time></trkpt><trkpt lat="45.79333975539911" lon="9.437462313549023"><ele>218.99999999999997</ele><time>2026-03-28T12:47:46.881Z</time></trkpt><trkpt lat="45.79341881809351" lon="9.437396045633928"><ele>218.99999999999997</ele><time>2026-03-28T12:47:47.881Z</time></trkpt><trkpt lat="45.79351008774349" lon="9.437329573994024"><ele>219.0</ele><time>2026-03-28T12:47:48.881Z</time></trkpt><trkpt lat="45.79361465018855" lon="9.437295431489881"><ele>219.0</ele><time>2026-03-28T12:47:49.881Z</time></trkpt><trkpt lat="45.79371685482077" lon="9.437230774825661"><ele>219.0</ele><time>2026-03-28T12:47:50.881Z</time></trkpt><trkpt lat="45.793802747533476" lon="9.437140210546362"><ele>218.99999999999997</ele><time>2026-03-28T12:47:51.881Z</time></trkpt><trkpt lat="45.793904147683186" lon="9.437079299529254"><ele>218.99999999999997</ele><time>2026-03-28T12:47:52.881Z</time></trkpt><trkpt lat="45.79400122731549" lon="9.437005910840552"><ele>219.0</ele><time>2026-03-28T12:47:53.881Z</time></trkpt><trkpt lat="45.79409214755114" lon="9.436929713627409"><ele>219.0</ele><time>2026-03-28T12:47:54.881Z</time></trkpt><trkpt lat="45.79418196443775" lon="9.436853866690141"><ele>219.0</ele><time>2026-03-28T12:47:55.881Z</time></trkpt><trkpt lat="45.7942705878219" lon="9.436783518336236"><ele>218.99999999999997</ele><time>2026-03-28T12:47:56.881Z</time></trkpt><trkpt lat="45.79435915762057" lon="9.436711968360514"><ele>218.99999999999997</ele><time>2026-03-28T12:47:57.88Z</time></trkpt><trkpt lat="45.79446269114719" lon="9.436669747587924"><ele>219.0</ele><time>2026-03-28T12:47:58.88Z</time></trkpt><trkpt lat="45.79455602035898" lon="9.436593907512805"><ele>219.0</ele><time>2026-03-28T12:47:59.88Z</time></trkpt><trkpt lat="45.79465722623128" lon="9.436505780844811"><ele>219.66666666666669</ele><time>2026-03-28T12:48:00.88Z</time></trkpt><trkpt lat="45.79476928815308" lon="9.43641166264429"><ele>220.33333333333334</ele><time>2026-03-28T12:48:01.88Z</time></trkpt><trkpt lat="45.79491750071058" lon="9.436287466863408"><ele>221.0</ele><time>2026-03-28T12:48:02.88Z</time></trkpt><trkpt lat="45.79506666082255" lon="9.436163428563603"><ele>220.0</ele><time>2026-03-28T12:48:03.88Z</time></trkpt><trkpt lat="45.79520976404613" lon="9.436050915143317"><ele>219.0</ele><time>2026-03-28T12:48:04.88Z</time></trkpt><trkpt lat="45.795355882732096" lon="9.435940517217308"><ele>218.0</ele><time>2026-03-28T12:48:05.88Z</time></trkpt><trkpt lat="45.795501898018514" lon="9.435856403626504"><ele>218.0</ele><time>2026-03-28T12:48:06.88Z</time></trkpt><trkpt lat="45.79562529414357" lon="9.435758951829186"><ele>218.0</ele><time>2026-03-28T12:48:07.88Z</time></trkpt><trkpt lat="45.79572423818254" lon="9.435688823420902"><ele>218.0</ele><time>2026-03-28T12:48:08.88Z</time></trkpt><trkpt lat="45.79581089393697" lon="9.435625676339304"><ele>218.0</ele><time>2026-03-28T12:48:09.88Z</time></trkpt><trkpt lat="45.79589101145453" lon="9.435569473134251"><ele>218.0</ele><time>2026-03-28T12:48:10.88Z</time></trkpt><trkpt lat="45.7959485457576" lon="9.43552540357859"><ele>218.16666666666669</ele><time>2026-03-28T12:48:11.88Z</time></trkpt><trkpt lat="45.79601255441297" lon="9.435475561988673"><ele>218.33333333333334</ele><time>2026-03-28T12:48:13.88Z</time></trkpt><trkpt lat="45.79608243629258" lon="9.435425570996038"><ele>218.5</ele><time>2026-03-28T12:48:15.88Z</time></trkpt><trkpt lat="45.79616220082161" lon="9.43536073293968"><ele>218.66666666666669</ele><time>2026-03-28T12:48:17.88Z</time></trkpt><trkpt lat="45.79623050726658" lon="9.43530747280155"><ele>218.83333333333334</ele><time>2026-03-28T12:48:19.88Z</time></trkpt><trkpt lat="45.79632070340795" lon="9.435243437844928"><ele>219.0</ele><time>2026-03-28T12:48:21.88Z</time></trkpt><trkpt lat="45.796437397715934" lon="9.435142331107226"><ele>218.2</ele><time>2026-03-28T12:48:23.88Z</time></trkpt><trkpt lat="45.796524137407125" lon="9.435057901292687"><ele>217.39999999999998</ele><time>2026-03-28T12:48:24.88Z</time></trkpt><trkpt lat="45.796616544285264" lon="9.434983300110142"><ele>216.6</ele><time>2026-03-28T12:48:25.88Z</time></trkpt><trkpt lat="45.79672047478322" lon="9.434920411167827"><ele>215.8</ele><time>2026-03-28T12:48:26.88Z</time></trkpt><trkpt lat="45.796812340467355" lon="9.43485757726885"><ele>215.0</ele><time>2026-03-28T12:48:27.88Z</time></trkpt><trkpt lat="45.79689305738296" lon="9.434800983865234"><ele>214.66666666666669</ele><time>2026-03-28T12:48:28.88Z</time></trkpt><trkpt lat="45.79696221846595" lon="9.434756190735888"><ele>214.33333333333334</ele><time>2026-03-28T12:48:29.88Z</time></trkpt><trkpt lat="45.797024113142996" lon="9.434712287129974"><ele>214.0</ele><time>2026-03-28T12:48:30.88Z</time></trkpt><trkpt lat="45.797083185637305" lon="9.434670823073965"><ele>213.66666666666669</ele><time>2026-03-28T12:48:31.88Z</time></trkpt><trkpt lat="45.7971443540965" lon="9.434619694254572"><ele>213.33333333333334</ele><time>2026-03-28T12:48:32.88Z</time></trkpt><trkpt lat="45.797224230737086" lon="9.434538771488018"><ele>213.0</ele><time>2026-03-28T12:48:33.88Z</time></trkpt><trkpt lat="45.79730282878945" lon="9.434450318458678"><ele>212.83333333333334</ele><time>2026-03-28T12:48:34.88Z</time></trkpt><trkpt lat="45.797376058595376" lon="9.434386655080923"><ele>212.66666666666669</ele><time>2026-03-28T12:48:35.88Z</time></trkpt><trkpt lat="45.79744863623288" lon="9.434332788925959"><ele>212.5</ele><time>2026-03-28T12:48:36.88Z</time></trkpt><trkpt lat="45.79751764544521" lon="9.434281423131377"><ele>212.33333333333334</ele><time>2026-03-28T12:48:37.88Z</time></trkpt><trkpt lat="45.79758002013156" lon="9.434236609797038"><ele>212.16666666666669</ele><time>2026-03-28T12:48:38.88Z</time></trkpt><trkpt lat="45.79768694617605" lon="9.434157371623295"><ele>212.0</ele><time>2026-03-28T12:48:40.88Z</time></trkpt><trkpt lat="45.79776908188501" lon="9.434098323206866"><ele>212.0</ele><time>2026-03-28T12:48:42.88Z</time></trkpt><trkpt lat="45.797822919925984" lon="9.434039349319887"><ele>212.0</ele><time>2026-03-28T12:49:19.88Z</time></trkpt><trkpt lat="45.79795895309151" lon="9.43391994758031"><ele>212.0</ele><time>2026-03-28T12:49:21.88Z</time></trkpt><trkpt lat="45.798065276681754" lon="9.433824216419787"><ele>212.0</ele><time>2026-03-28T12:49:22.88Z</time></trkpt><trkpt lat="45.798184685634276" lon="9.433742818804552"><ele>212.0</ele><time>2026-03-28T12:49:23.88Z</time></trkpt><trkpt lat="45.79831618980135" lon="9.433644340889972"><ele>212.0</ele><time>2026-03-28T12:49:24.88Z</time></trkpt><trkpt lat="45.79845695951066" lon="9.433535114659374"><ele>212.0</ele><time>2026-03-28T12:49:25.88Z</time></trkpt><trkpt lat="45.79860315552377" lon="9.433418515424583"><ele>212.0</ele><time>2026-03-28T12:49:26.88Z</time></trkpt><trkpt lat="45.79875797929539" lon="9.433305416471196"><ele>212.0</ele><time>2026-03-28T12:49:27.88Z</time></trkpt><trkpt lat="45.79891481084876" lon="9.433183873068415"><ele>212.0</ele><time>2026-03-28T12:49:28.88Z</time></trkpt><trkpt lat="45.799066350313744" lon="9.43306481152559"><ele>212.33333333333334</ele><time>2026-03-28T12:49:29.88Z</time></trkpt><trkpt lat="45.79922220439621" lon="9.432942810344516"><ele>212.66666666666669</ele><time>2026-03-28T12:49:30.88Z</time></trkpt><trkpt lat="45.79936912801101" lon="9.432830382311234"><ele>213.0</ele><time>2026-03-28T12:49:31.88Z</time></trkpt><trkpt lat="45.79951298724146" lon="9.432719891768102"><ele>214.0</ele><time>2026-03-28T12:49:32.88Z</time></trkpt><trkpt lat="45.79965558610011" lon="9.432606746653134"><ele>215.0</ele><time>2026-03-28T12:49:33.88Z</time></trkpt><trkpt lat="45.799793640672426" lon="9.432490974143125"><ele>216.0</ele><time>2026-03-28T12:49:34.88Z</time></trkpt><trkpt lat="45.79991493602489" lon="9.43239901327623"><ele>216.0</ele><time>2026-03-28T12:49:35.88Z</time></trkpt><trkpt lat="45.80002333539024" lon="9.43230912938966"><ele>216.0</ele><time>2026-03-28T12:49:36.88Z</time></trkpt><trkpt lat="45.800136536723336" lon="9.432226051061631"><ele>216.0</ele><time>2026-03-28T12:49:37.88Z</time></trkpt><trkpt lat="45.80023704973441" lon="9.432146028304933"><ele>216.0</ele><time>2026-03-28T12:49:38.88Z</time></trkpt><trkpt lat="45.8003284718711" lon="9.432071151081622"><ele>216.33333333333334</ele><time>2026-03-28T12:49:39.88Z</time></trkpt><trkpt lat="45.800407475784844" lon="9.432006240003545"><ele>216.66666666666669</ele><time>2026-03-28T12:49:40.88Z</time></trkpt><trkpt lat="45.800481339748366" lon="9.431970494007027"><ele>217.0</ele><time>2026-03-28T12:49:41.88Z</time></trkpt><trkpt lat="45.80054418200941" lon="9.431917846276004"><ele>217.33333333333334</ele><time>2026-03-28T12:49:42.88Z</time></trkpt><trkpt lat="45.800641737861866" lon="9.43183807220084"><ele>217.66666666666669</ele><time>2026-03-28T12:49:44.882Z</time></trkpt><trkpt lat="45.800710445417245" lon="9.431781888134314"><ele>218.0</ele><time>2026-03-28T12:49:47.887Z</time></trkpt><trkpt lat="45.800771375493284" lon="9.431730645333564"><ele>218.0</ele><time>2026-03-28T12:50:00.899Z</time></trkpt><trkpt lat="45.80084627728086" lon="9.431663813730392"><ele>218.0</ele><time>2026-03-28T12:50:01.9Z</time></trkpt><trkpt lat="45.800946918028146" lon="9.431571644123741"><ele>218.0</ele><time>2026-03-28T12:50:02.9Z</time></trkpt><trkpt lat="45.80104630822129" lon="9.431473008118852"><ele>218.0</ele><time>2026-03-28T12:50:03.899Z</time></trkpt><trkpt lat="45.80114369985887" lon="9.431369369802308"><ele>218.0</ele><time>2026-03-28T12:50:04.9Z</time></trkpt><trkpt lat="45.80124148682553" lon="9.431262007053808"><ele>218.0</ele><time>2026-03-28T12:50:05.9Z</time></trkpt><trkpt lat="45.80132712623259" lon="9.431159999975902"><ele>218.0</ele><time>2026-03-28T12:50:06.901Z</time></trkpt><trkpt lat="45.801408552374355" lon="9.431058083324697"><ele>218.0</ele><time>2026-03-28T12:50:07.902Z</time></trkpt><trkpt lat="45.801489516214204" lon="9.430961320653251"><ele>218.0</ele><time>2026-03-28T12:50:08.902Z</time></trkpt><trkpt lat="45.80157066605905" lon="9.430868229254877"><ele>218.0</ele><time>2026-03-28T12:50:09.902Z</time></trkpt><trkpt lat="45.801641701746775" lon="9.430766651222989"><ele>218.0</ele><time>2026-03-28T12:50:10.902Z</time></trkpt><trkpt lat="45.801719621500446" lon="9.430644357093163"><ele>218.0</ele><time>2026-03-28T12:50:11.903Z</time></trkpt><trkpt lat="45.801805911849605" lon="9.430522936542253"><ele>218.0</ele><time>2026-03-28T12:50:12.902Z</time></trkpt><trkpt lat="45.801882841545975" lon="9.430400113810053"><ele>219.0</ele><time>2026-03-28T12:50:13.903Z</time></trkpt><trkpt lat="45.80195384500231" lon="9.430266128382078"><ele>220.0</ele><time>2026-03-28T12:50:14.904Z</time></trkpt><trkpt lat="45.802034894473145" lon="9.43011509170147"><ele>221.0</ele><time>2026-03-28T12:50:15.903Z</time></trkpt><trkpt lat="45.80212145146324" lon="9.42996631454326"><ele>222.0</ele><time>2026-03-28T12:50:16.903Z</time></trkpt><trkpt lat="45.80221307711674" lon="9.429810815931685"><ele>222.0</ele><time>2026-03-28T12:50:17.904Z</time></trkpt><trkpt lat="45.802284830405256" lon="9.429674253856525"><ele>222.0</ele><time>2026-03-28T12:50:18.904Z</time></trkpt><trkpt lat="45.80236266199772" lon="9.4295504601956"><ele>222.0</ele><time>2026-03-28T12:50:19.904Z</time></trkpt><trkpt lat="45.80243032039544" lon="9.429433493318442"><ele>222.0</ele><time>2026-03-28T12:50:20.904Z</time></trkpt><trkpt lat="45.80250281155843" lon="9.429301398256348"><ele>222.25</ele><time>2026-03-28T12:50:21.904Z</time></trkpt><trkpt lat="45.80257697397603" lon="9.42916696867862"><ele>222.5</ele><time>2026-03-28T12:50:22.904Z</time></trkpt><trkpt lat="45.8026550861396" lon="9.429004334827827"><ele>222.75</ele><time>2026-03-28T12:50:23.905Z</time></trkpt><trkpt lat="45.80275292367257" lon="9.428815674439594"><ele>223.0</ele><time>2026-03-28T12:50:24.905Z</time></trkpt><trkpt lat="45.802859029485056" lon="9.428644525683682"><ele>223.0</ele><time>2026-03-28T12:50:25.905Z</time></trkpt><trkpt lat="45.8029760321925" lon="9.428465056646022"><ele>223.0</ele><time>2026-03-28T12:50:26.905Z</time></trkpt><trkpt lat="45.803096771997815" lon="9.428269183105192"><ele>223.0</ele><time>2026-03-28T12:50:27.905Z</time></trkpt><trkpt lat="45.80320611094089" lon="9.428057298281802"><ele>224.33333333333331</ele><time>2026-03-28T12:50:28.905Z</time></trkpt><trkpt lat="45.80331962043285" lon="9.427859326197673"><ele>225.66666666666669</ele><time>2026-03-28T12:50:29.905Z</time></trkpt><trkpt lat="45.80343018189787" lon="9.427672787123752"><ele>227.0</ele><time>2026-03-28T12:50:30.905Z</time></trkpt><trkpt lat="45.8035418391605" lon="9.427496432147365"><ele>227.0</ele><time>2026-03-28T12:50:31.905Z</time></trkpt><trkpt lat="45.80365542089886" lon="9.427325442952217"><ele>227.0</ele><time>2026-03-28T12:50:32.906Z</time></trkpt><trkpt lat="45.80376835138205" lon="9.427178664774265"><ele>227.0</ele><time>2026-03-28T12:50:33.906Z</time></trkpt><trkpt lat="45.80388363778977" lon="9.42704904914901"><ele>224.75</ele><time>2026-03-28T12:50:34.906Z</time></trkpt><trkpt lat="45.80399217796735" lon="9.426941268970628"><ele>222.5</ele><time>2026-03-28T12:50:35.906Z</time></trkpt><trkpt lat="45.8040946757999" lon="9.426851195114448"><ele>220.25</ele><time>2026-03-28T12:50:36.906Z</time></trkpt><trkpt lat="45.80419091019874" lon="9.426781098531112"><ele>218.0</ele><time>2026-03-28T12:50:37.906Z</time></trkpt><trkpt lat="45.80427760797472" lon="9.426713267339807"><ele>219.2</ele><time>2026-03-28T12:50:38.906Z</time></trkpt><trkpt lat="45.804360586134514" lon="9.426649970585807"><ele>220.4</ele><time>2026-03-28T12:50:39.906Z</time></trkpt><trkpt lat="45.8044520689145" lon="9.426590611124931"><ele>221.59999999999997</ele><time>2026-03-28T12:50:40.906Z</time></trkpt><trkpt lat="45.80455939129498" lon="9.426532115013089"><ele>222.79999999999998</ele><time>2026-03-28T12:50:41.906Z</time></trkpt><trkpt lat="45.80467684698863" lon="9.426452798137088"><ele>224.0</ele><time>2026-03-28T12:50:42.906Z</time></trkpt><trkpt lat="45.804800611618205" lon="9.426347387282178"><ele>223.5</ele><time>2026-03-28T12:50:43.906Z</time></trkpt><trkpt lat="45.80491619434726" lon="9.42624032928311"><ele>223.0</ele><time>2026-03-28T12:50:44.906Z</time></trkpt><trkpt lat="45.80502398321055" lon="9.426156559208174"><ele>222.5</ele><time>2026-03-28T12:50:45.906Z</time></trkpt><trkpt lat="45.80512369014151" lon="9.4260741048921"><ele>222.0</ele><time>2026-03-28T12:50:46.906Z</time></trkpt><trkpt lat="45.80522006469163" lon="9.425993616759076"><ele>222.0</ele><time>2026-03-28T12:50:47.906Z</time></trkpt><trkpt lat="45.80531131366558" lon="9.42593035936014"><ele>222.0</ele><time>2026-03-28T12:50:48.906Z</time></trkpt><trkpt lat="45.8053970915056" lon="9.425861495800445"><ele>222.0</ele><time>2026-03-28T12:50:49.906Z</time></trkpt><trkpt lat="45.805487496960396" lon="9.425794862110422"><ele>222.0</ele><time>2026-03-28T12:50:50.906Z</time></trkpt><trkpt lat="45.805589797657504" lon="9.425708887888366"><ele>222.0</ele><time>2026-03-28T12:50:51.906Z</time></trkpt><trkpt lat="45.805711511839895" lon="9.425603129166683"><ele>222.0</ele><time>2026-03-28T12:50:52.906Z</time></trkpt><trkpt lat="45.80585542305809" lon="9.425487620059853"><ele>222.0</ele><time>2026-03-28T12:50:53.906Z</time></trkpt><trkpt lat="45.805992418176324" lon="9.425372353154083"><ele>222.0</ele><time>2026-03-28T12:50:54.906Z</time></trkpt><trkpt lat="45.80613410239833" lon="9.425270839528174"><ele>222.5</ele><time>2026-03-28T12:50:55.906Z</time></trkpt><trkpt lat="45.806258198733445" lon="9.425182157042567"><ele>223.0</ele><time>2026-03-28T12:50:56.906Z</time></trkpt><trkpt lat="45.80638170208788" lon="9.425090192388135"><ele>223.5</ele><time>2026-03-28T12:50:57.907Z</time></trkpt><trkpt lat="45.8065286106455" lon="9.424975327566102"><ele>224.0</ele><time>2026-03-28T12:50:58.907Z</time></trkpt><trkpt lat="45.80668758361742" lon="9.424854461743017"><ele>224.33333333333334</ele><time>2026-03-28T12:50:59.907Z</time></trkpt><trkpt lat="45.806837753394944" lon="9.424738172158246"><ele>224.66666666666669</ele><time>2026-03-28T12:51:00.907Z</time></trkpt><trkpt lat="45.80697961795201" lon="9.42461724654105"><ele>225.0</ele><time>2026-03-28T12:51:01.907Z</time></trkpt><trkpt lat="45.80711809167094" lon="9.424510858244593"><ele>225.0</ele><time>2026-03-28T12:51:02.907Z</time></trkpt><trkpt lat="45.807260823631765" lon="9.424403160414878"><ele>225.0</ele><time>2026-03-28T12:51:03.907Z</time></trkpt><trkpt lat="45.8073989612198" lon="9.424308682114479"><ele>225.0</ele><time>2026-03-28T12:51:04.907Z</time></trkpt><trkpt lat="45.807535426108046" lon="9.424230827465314"><ele>226.0</ele><time>2026-03-28T12:51:05.907Z</time></trkpt><trkpt lat="45.807675440643365" lon="9.424167978932058"><ele>227.0</ele><time>2026-03-28T12:51:06.907Z</time></trkpt><trkpt lat="45.80782517241558" lon="9.424118991469204"><ele>228.0</ele><time>2026-03-28T12:51:07.907Z</time></trkpt><trkpt lat="45.8079820038985" lon="9.42405811698079"><ele>228.0</ele><time>2026-03-28T12:51:08.907Z</time></trkpt><trkpt lat="45.80817086434207" lon="9.424011498135444"><ele>228.0</ele><time>2026-03-28T12:51:09.907Z</time></trkpt><trkpt lat="45.80837870931232" lon="9.423913952697811"><ele>228.0</ele><time>2026-03-28T12:51:10.907Z</time></trkpt><trkpt lat="45.80858425226282" lon="9.423860904884512"><ele>226.66666666666669</ele><time>2026-03-28T12:51:11.907Z</time></trkpt><trkpt lat="45.80876758454753" lon="9.423804269360131"><ele>225.33333333333334</ele><time>2026-03-28T12:51:12.907Z</time></trkpt><trkpt lat="45.80893864867889" lon="9.423759644255371"><ele>224.0</ele><time>2026-03-28T12:51:13.907Z</time></trkpt><trkpt lat="45.809094077857424" lon="9.423728255999695"><ele>224.0</ele><time>2026-03-28T12:51:14.907Z</time></trkpt><trkpt lat="45.80924465104798" lon="9.423709045438677"><ele>224.0</ele><time>2026-03-28T12:51:15.907Z</time></trkpt><trkpt lat="45.80939904738535" lon="9.423706157915207"><ele>224.0</ele><time>2026-03-28T12:51:16.907Z</time></trkpt><trkpt lat="45.809543089500735" lon="9.423713851414142"><ele>223.5</ele><time>2026-03-28T12:51:17.907Z</time></trkpt><trkpt lat="45.80967670838332" lon="9.423730246615925"><ele>223.0</ele><time>2026-03-28T12:51:18.907Z</time></trkpt><trkpt lat="45.809802605600844" lon="9.423776527957454"><ele>222.5</ele><time>2026-03-28T12:51:19.907Z</time></trkpt><trkpt lat="45.80993190569527" lon="9.423819395841146"><ele>222.0</ele><time>2026-03-28T12:51:20.907Z</time></trkpt><trkpt lat="45.81005464775927" lon="9.42385869422795"><ele>222.8</ele><time>2026-03-28T12:51:21.907Z</time></trkpt><trkpt lat="45.81017098341456" lon="9.423886659062203"><ele>223.6</ele><time>2026-03-28T12:51:22.907Z</time></trkpt><trkpt lat="45.81028192493874" lon="9.423915561493112"><ele>224.40000000000003</ele><time>2026-03-28T12:51:23.907Z</time></trkpt><trkpt lat="45.81038666767897" lon="9.423951455947545"><ele>225.20000000000002</ele><time>2026-03-28T12:51:24.907Z</time></trkpt><trkpt lat="45.81049178453548" lon="9.423986432922165"><ele>226.0</ele><time>2026-03-28T12:51:25.907Z</time></trkpt><trkpt lat="45.810611033155595" lon="9.424021934764179"><ele>226.0</ele><time>2026-03-28T12:51:26.907Z</time></trkpt><trkpt lat="45.81075927053356" lon="9.424068786650166"><ele>226.0</ele><time>2026-03-28T12:51:27.907Z</time></trkpt><trkpt lat="45.810933821789774" lon="9.424114371104068"><ele>226.0</ele><time>2026-03-28T12:51:28.907Z</time></trkpt><trkpt lat="45.811122711524575" lon="9.424169648163033"><ele>224.33333333333331</ele><time>2026-03-28T12:51:29.907Z</time></trkpt><trkpt lat="45.81130450524268" lon="9.42422693310115"><ele>222.66666666666669</ele><time>2026-03-28T12:51:30.907Z</time></trkpt><trkpt lat="45.81147736855002" lon="9.424270884118409"><ele>221.0</ele><time>2026-03-28T12:51:31.907Z</time></trkpt><trkpt lat="45.811637680907666" lon="9.424295864706437"><ele>221.0</ele><time>2026-03-28T12:51:32.907Z</time></trkpt><trkpt lat="45.81177129603686" lon="9.4243139549206"><ele>221.0</ele><time>2026-03-28T12:51:33.907Z</time></trkpt><trkpt lat="45.81190003747735" lon="9.424328975459941"><ele>221.0</ele><time>2026-03-28T12:51:34.907Z</time></trkpt><trkpt lat="45.8120430993482" lon="9.42432365668406"><ele>221.0</ele><time>2026-03-28T12:51:35.907Z</time></trkpt><trkpt lat="45.81218270750678" lon="9.424282810837592"><ele>221.5</ele><time>2026-03-28T12:51:36.907Z</time></trkpt><trkpt lat="45.81231700437147" lon="9.424229411929158"><ele>222.0</ele><time>2026-03-28T12:51:37.907Z</time></trkpt><trkpt lat="45.81244735365233" lon="9.424171178530814"><ele>222.5</ele><time>2026-03-28T12:51:38.907Z</time></trkpt><trkpt lat="45.81257796138175" lon="9.424113943537002"><ele>223.0</ele><time>2026-03-28T12:51:39.907Z</time></trkpt><trkpt lat="45.81270606034912" lon="9.424055213038343"><ele>223.25</ele><time>2026-03-28T12:51:40.907Z</time></trkpt><trkpt lat="45.812829443201295" lon="9.42400388097523"><ele>223.5</ele><time>2026-03-28T12:51:41.907Z</time></trkpt><trkpt lat="45.812951007453265" lon="9.423957207520637"><ele>223.75</ele><time>2026-03-28T12:51:42.907Z</time></trkpt><trkpt lat="45.81306841080503" lon="9.423915973016218"><ele>224.0</ele><time>2026-03-28T12:51:43.907Z</time></trkpt><trkpt lat="45.813180059054076" lon="9.42386655288783"><ele>224.0</ele><time>2026-03-28T12:51:44.907Z</time></trkpt><trkpt lat="45.81328991363408" lon="9.423821332293294"><ele>224.0</ele><time>2026-03-28T12:51:45.907Z</time></trkpt><trkpt lat="45.81339948225959" lon="9.423772885068404"><ele>224.0</ele><time>2026-03-28T12:51:46.907Z</time></trkpt><trkpt lat="45.813505208221585" lon="9.423713593678029"><ele>224.0</ele><time>2026-03-28T12:51:47.907Z</time></trkpt><trkpt lat="45.81360730755772" lon="9.423655911064792"><ele>223.39999999999998</ele><time>2026-03-28T12:51:48.907Z</time></trkpt><trkpt lat="45.81371139591474" lon="9.42362424032388"><ele>222.79999999999998</ele><time>2026-03-28T12:51:49.907Z</time></trkpt><trkpt lat="45.81380881029601" lon="9.42358992768588"><ele>222.20000000000002</ele><time>2026-03-28T12:51:50.907Z</time></trkpt><trkpt lat="45.81389712274554" lon="9.423551510247105"><ele>221.60000000000002</ele><time>2026-03-28T12:51:51.907Z</time></trkpt><trkpt lat="45.81398023277381" lon="9.423526826016355"><ele>221.0</ele><time>2026-03-28T12:51:52.907Z</time></trkpt><trkpt lat="45.814060875833576" lon="9.423469415290594"><ele>221.0</ele><time>2026-03-28T12:51:53.907Z</time></trkpt><trkpt lat="45.8141427030976" lon="9.423384843903342"><ele>221.00000000000003</ele><time>2026-03-28T12:51:54.907Z</time></trkpt><trkpt lat="45.814214015340575" lon="9.423272294705574"><ele>221.00000000000003</ele><time>2026-03-28T12:51:55.907Z</time></trkpt><trkpt lat="45.81428527273335" lon="9.42315043892286"><ele>221.0</ele><time>2026-03-28T12:51:56.907Z</time></trkpt><trkpt lat="45.81435831276948" lon="9.423013914219366"><ele>221.0</ele><time>2026-03-28T12:51:57.907Z</time></trkpt><trkpt lat="45.81442368264064" lon="9.422891040854454"><ele>223.8</ele><time>2026-03-28T12:51:58.907Z</time></trkpt><trkpt lat="45.81448291271278" lon="9.422765318173822"><ele>226.60000000000002</ele><time>2026-03-28T12:51:59.907Z</time></trkpt><trkpt lat="45.814536686857394" lon="9.42265410047445"><ele>229.4</ele><time>2026-03-28T12:52:00.907Z</time></trkpt><trkpt lat="45.814588592028905" lon="9.4225428228921"><ele>232.2</ele><time>2026-03-28T12:52:01.907Z</time></trkpt><trkpt lat="45.81463360866429" lon="9.422449014759426"><ele>235.0</ele><time>2026-03-28T12:52:02.907Z</time></trkpt><trkpt lat="45.814684309923166" lon="9.422358809728463"><ele>235.0</ele><time>2026-03-28T12:52:03.907Z</time></trkpt><trkpt lat="45.81474248484576" lon="9.422284954233346"><ele>235.0</ele><time>2026-03-28T12:52:04.907Z</time></trkpt><trkpt lat="45.81481415337659" lon="9.422201908010415"><ele>235.0</ele><time>2026-03-28T12:52:05.907Z</time></trkpt><trkpt lat="45.81489787990128" lon="9.42212081755424"><ele>235.0</ele><time>2026-03-28T12:52:06.907Z</time></trkpt><trkpt lat="45.81499117309638" lon="9.422022724788038"><ele>235.0</ele><time>2026-03-28T12:52:07.907Z</time></trkpt><trkpt lat="45.81507491049775" lon="9.42193735507075"><ele>233.6</ele><time>2026-03-28T12:52:08.907Z</time></trkpt><trkpt lat="45.81515855970848" lon="9.421854236671786"><ele>232.2</ele><time>2026-03-28T12:52:09.906Z</time></trkpt><trkpt lat="45.81523155761083" lon="9.421775920729138"><ele>230.8</ele><time>2026-03-28T12:52:10.906Z</time></trkpt><trkpt lat="45.81531808074524" lon="9.421686807809015"><ele>229.4</ele><time>2026-03-28T12:52:11.906Z</time></trkpt><trkpt lat="45.8154021827956" lon="9.421607031961312"><ele>228.0</ele><time>2026-03-28T12:52:12.906Z</time></trkpt><trkpt lat="45.815510598581035" lon="9.421490859601509"><ele>228.0</ele><time>2026-03-28T12:52:13.906Z</time></trkpt><trkpt lat="45.815647640204006" lon="9.421345588572299"><ele>228.0</ele><time>2026-03-28T12:52:14.906Z</time></trkpt><trkpt lat="45.81578411471744" lon="9.421202528215467"><ele>228.0</ele><time>2026-03-28T12:52:15.906Z</time></trkpt><trkpt lat="45.815909601837774" lon="9.42107852251263"><ele>225.75</ele><time>2026-03-28T12:52:16.906Z</time></trkpt><trkpt lat="45.816003530192816" lon="9.420934483225121"><ele>223.5</ele><time>2026-03-28T12:52:17.906Z</time></trkpt><trkpt lat="45.81611414525805" lon="9.420801196668682"><ele>221.25</ele><time>2026-03-28T12:52:18.906Z</time></trkpt><trkpt lat="45.81620905128632" lon="9.420683914334886"><ele>219.0</ele><time>2026-03-28T12:52:19.906Z</time></trkpt><trkpt lat="45.816299640580205" lon="9.420575374518995"><ele>217.6</ele><time>2026-03-28T12:52:20.906Z</time></trkpt><trkpt lat="45.816384261394106" lon="9.420469402143556"><ele>216.2</ele><time>2026-03-28T12:52:21.905Z</time></trkpt><trkpt lat="45.816460233204246" lon="9.420366872127431"><ele>214.79999999999998</ele><time>2026-03-28T12:52:22.905Z</time></trkpt><trkpt lat="45.81652718174674" lon="9.420273829333022"><ele>213.39999999999998</ele><time>2026-03-28T12:52:23.905Z</time></trkpt><trkpt lat="45.81659069827208" lon="9.420185026772161"><ele>212.0</ele><time>2026-03-28T12:52:24.905Z</time></trkpt><trkpt lat="45.81666555250919" lon="9.420084684955947"><ele>212.0</ele><time>2026-03-28T12:52:25.905Z</time></trkpt><trkpt lat="45.816755448973" lon="9.419975093983687"><ele>212.0</ele><time>2026-03-28T12:52:26.905Z</time></trkpt><trkpt lat="45.81684823667152" lon="9.419865861382071"><ele>212.0</ele><time>2026-03-28T12:52:27.905Z</time></trkpt><trkpt lat="45.816932438545884" lon="9.419763881406192"><ele>212.0</ele><time>2026-03-28T12:52:28.905Z</time></trkpt><trkpt lat="45.817015823430935" lon="9.419667092176008"><ele>211.39999999999998</ele><time>2026-03-28T12:52:29.906Z</time></trkpt><trkpt lat="45.81708862636859" lon="9.419572217951623"><ele>210.79999999999998</ele><time>2026-03-28T12:52:30.906Z</time></trkpt><trkpt lat="45.81715762096978" lon="9.41948659594636"><ele>210.2</ele><time>2026-03-28T12:52:31.906Z</time></trkpt><trkpt lat="45.817247152561215" lon="9.419399669246166"><ele>209.6</ele><time>2026-03-28T12:52:32.906Z</time></trkpt><trkpt lat="45.81736807539385" lon="9.41929743781906"><ele>209.0</ele><time>2026-03-28T12:52:33.906Z</time></trkpt><trkpt lat="45.81750598764868" lon="9.419205944713998"><ele>209.0</ele><time>2026-03-28T12:52:34.906Z</time></trkpt><trkpt lat="45.81764097480099" lon="9.419131815837192"><ele>209.0</ele><time>2026-03-28T12:52:35.906Z</time></trkpt><trkpt lat="45.817791704361454" lon="9.419064835836354"><ele>209.0</ele><time>2026-03-28T12:52:36.906Z</time></trkpt><trkpt lat="45.81795178815231" lon="9.419021677054557"><ele>209.5</ele><time>2026-03-28T12:52:37.906Z</time></trkpt><trkpt lat="45.818099799507856" lon="9.418996182737853"><ele>210.0</ele><time>2026-03-28T12:52:38.906Z</time></trkpt><trkpt lat="45.81825048653401" lon="9.418980835272414"><ele>210.5</ele><time>2026-03-28T12:52:39.906Z</time></trkpt><trkpt lat="45.818387376494805" lon="9.4189853857897"><ele>211.0</ele><time>2026-03-28T12:52:40.906Z</time></trkpt><trkpt lat="45.818509481353075" lon="9.419003721079353"><ele>211.0</ele><time>2026-03-28T12:52:41.906Z</time></trkpt><trkpt lat="45.81861983951975" lon="9.41902358459438"><ele>211.0</ele><time>2026-03-28T12:52:42.906Z</time></trkpt><trkpt lat="45.81872307196026" lon="9.419049838658601"><ele>211.0</ele><time>2026-03-28T12:52:43.906Z</time></trkpt><trkpt lat="45.81880396274316" lon="9.419059537057048"><ele>211.0</ele><time>2026-03-28T12:52:44.906Z</time></trkpt><trkpt lat="45.8189090987274" lon="9.41906130860868"><ele>211.0</ele><time>2026-03-28T12:52:46.906Z</time></trkpt><trkpt lat="45.818992795514646" lon="9.419027705145"><ele>211.0</ele><time>2026-03-28T12:52:48.906Z</time></trkpt><trkpt lat="45.819092391255914" lon="9.41900921570761"><ele>211.0</ele><time>2026-03-28T12:52:50.906Z</time></trkpt><trkpt lat="45.81920343293342" lon="9.41900999886364"><ele>211.0</ele><time>2026-03-28T12:52:52.906Z</time></trkpt><trkpt lat="45.81931822237871" lon="9.419030204442803"><ele>211.0</ele><time>2026-03-28T12:52:54.906Z</time></trkpt><trkpt lat="45.819411179708204" lon="9.419009968111265"><ele>211.0</ele><time>2026-03-28T12:52:56.906Z</time></trkpt><trkpt lat="45.81954557962725" lon="9.418981512607921"><ele>210.99999999999997</ele><time>2026-03-28T12:52:58.906Z</time></trkpt><trkpt lat="45.819618223249925" lon="9.418941631807396"><ele>211.0</ele><time>2026-03-28T12:52:59.906Z</time></trkpt><trkpt lat="45.81966335426172" lon="9.418867111908007"><ele>211.0</ele><time>2026-03-28T12:53:00.906Z</time></trkpt><trkpt lat="45.81966033242711" lon="9.418768104027286"><ele>211.0</ele><time>2026-03-28T12:53:01.906Z</time></trkpt><trkpt lat="45.81965573745688" lon="9.418636614365417"><ele>210.99999999999997</ele><time>2026-03-28T12:53:02.906Z</time></trkpt><trkpt lat="45.81969273144315" lon="9.418464025372856"><ele>211.0</ele><time>2026-03-28T12:53:03.906Z</time></trkpt><trkpt lat="45.819764035243075" lon="9.41825293615076"><ele>209.0</ele><time>2026-03-28T12:53:04.906Z</time></trkpt><trkpt lat="45.819844212055635" lon="9.418039132511636"><ele>207.0</ele><time>2026-03-28T12:53:05.906Z</time></trkpt><trkpt lat="45.81991431267371" lon="9.41783918373189"><ele>205.0</ele><time>2026-03-28T12:53:06.906Z</time></trkpt><trkpt lat="45.81999345349324" lon="9.417641351825589"><ele>205.0</ele><time>2026-03-28T12:53:07.906Z</time></trkpt><trkpt lat="45.820072729884714" lon="9.417453598852038"><ele>205.0</ele><time>2026-03-28T12:53:08.906Z</time></trkpt><trkpt lat="45.82014617375961" lon="9.417260422850758"><ele>205.0</ele><time>2026-03-28T12:53:09.906Z</time></trkpt><trkpt lat="45.820222134437046" lon="9.41706379826802"><ele>205.0</ele><time>2026-03-28T12:53:10.906Z</time></trkpt><trkpt lat="45.82031045274293" lon="9.416880219033256"><ele>205.0</ele><time>2026-03-28T12:53:11.906Z</time></trkpt><trkpt lat="45.82041371118282" lon="9.416734672296998"><ele>205.0</ele><time>2026-03-28T12:53:12.906Z</time></trkpt><trkpt lat="45.820518130836604" lon="9.416601793953753"><ele>205.0</ele><time>2026-03-28T12:53:13.906Z</time></trkpt><trkpt lat="45.82062803217385" lon="9.41647906689254"><ele>205.0</ele><time>2026-03-28T12:53:14.906Z</time></trkpt><trkpt lat="45.820764130799915" lon="9.416369323644352"><ele>205.0</ele><time>2026-03-28T12:53:15.906Z</time></trkpt><trkpt lat="45.82091402906847" lon="9.416233419947089"><ele>205.0</ele><time>2026-03-28T12:53:16.906Z</time></trkpt><trkpt lat="45.82107607739071" lon="9.416101844970932"><ele>203.66666666666666</ele><time>2026-03-28T12:53:17.906Z</time></trkpt><trkpt lat="45.82123113931303" lon="9.415982974969365"><ele>202.33333333333331</ele><time>2026-03-28T12:53:18.906Z</time></trkpt><trkpt lat="45.821380738751266" lon="9.415863505198633"><ele>201.0</ele><time>2026-03-28T12:53:19.906Z</time></trkpt><trkpt lat="45.82153249449078" lon="9.415743196915413"><ele>201.0</ele><time>2026-03-28T12:53:20.906Z</time></trkpt><trkpt lat="45.82167855228024" lon="9.415626574336684"><ele>201.0</ele><time>2026-03-28T12:53:21.906Z</time></trkpt><trkpt lat="45.82181981904026" lon="9.415515411825638"><ele>201.0</ele><time>2026-03-28T12:53:22.906Z</time></trkpt><trkpt lat="45.82195293044283" lon="9.415423418132445"><ele>200.75</ele><time>2026-03-28T12:53:23.906Z</time></trkpt><trkpt lat="45.82208363983678" lon="9.415348188905412"><ele>200.5</ele><time>2026-03-28T12:53:24.906Z</time></trkpt><trkpt lat="45.822203615239864" lon="9.415282774851061"><ele>200.25</ele><time>2026-03-28T12:53:25.906Z</time></trkpt><trkpt lat="45.822307544783754" lon="9.415227114759382"><ele>200.0</ele><time>2026-03-28T12:53:26.906Z</time></trkpt><trkpt lat="45.822405825800594" lon="9.415177790655909"><ele>200.00000000000003</ele><time>2026-03-28T12:53:27.906Z</time></trkpt><trkpt lat="45.822499453273785" lon="9.415138571913458"><ele>200.0</ele><time>2026-03-28T12:53:28.906Z</time></trkpt><trkpt lat="45.82258338175747" lon="9.415112128480382"><ele>200.0</ele><time>2026-03-28T12:53:29.906Z</time></trkpt><trkpt lat="45.8226639630422" lon="9.415091184464227"><ele>200.0</ele><time>2026-03-28T12:53:30.906Z</time></trkpt><trkpt lat="45.82274563989394" lon="9.415079905163438"><ele>200.00000000000003</ele><time>2026-03-28T12:53:31.906Z</time></trkpt><trkpt lat="45.82282850103546" lon="9.415082709697064"><ele>200.0</ele><time>2026-03-28T12:53:32.906Z</time></trkpt><trkpt lat="45.82290998645327" lon="9.415103449027695"><ele>200.16666666666669</ele><time>2026-03-28T12:53:33.906Z</time></trkpt><trkpt lat="45.823000667649985" lon="9.415126952812647"><ele>200.33333333333334</ele><time>2026-03-28T12:53:34.906Z</time></trkpt><trkpt lat="45.82307722549968" lon="9.415112269879833"><ele>200.5</ele><time>2026-03-28T12:53:35.906Z</time></trkpt><trkpt lat="45.823136926519524" lon="9.415060946927749"><ele>200.66666666666669</ele><time>2026-03-28T12:53:36.906Z</time></trkpt><trkpt lat="45.823168522342534" lon="9.414957445337976"><ele>200.83333333333334</ele><time>2026-03-28T12:53:37.906Z</time></trkpt><trkpt lat="45.82317349224484" lon="9.414821856574363"><ele>201.0</ele><time>2026-03-28T12:53:38.906Z</time></trkpt><trkpt lat="45.82322420227543" lon="9.414712707780252"><ele>201.0</ele><time>2026-03-28T12:53:39.906Z</time></trkpt><trkpt lat="45.82328823773389" lon="9.414615516364458"><ele>201.0</ele><time>2026-03-28T12:53:40.906Z</time></trkpt><trkpt lat="45.823376195754705" lon="9.414512495477933"><ele>201.0</ele><time>2026-03-28T12:53:41.906Z</time></trkpt><trkpt lat="45.82348642457355" lon="9.414407805002446"><ele>201.0</ele><time>2026-03-28T12:53:42.906Z</time></trkpt><trkpt lat="45.823606598631116" lon="9.414304353895059"><ele>202.0</ele><time>2026-03-28T12:53:43.906Z</time></trkpt><trkpt lat="45.82372941806108" lon="9.414204929080272"><ele>203.0</ele><time>2026-03-28T12:53:44.906Z</time></trkpt><trkpt lat="45.82386388762822" lon="9.41409879909246"><ele>204.0</ele><time>2026-03-28T12:53:45.906Z</time></trkpt><trkpt lat="45.82400989568433" lon="9.413982112717761"><ele>204.0</ele><time>2026-03-28T12:53:46.906Z</time></trkpt><trkpt lat="45.824168659335115" lon="9.413854654438813"><ele>204.0</ele><time>2026-03-28T12:53:47.906Z</time></trkpt><trkpt lat="45.82432684847929" lon="9.413722332893665"><ele>204.0</ele><time>2026-03-28T12:53:48.906Z</time></trkpt><trkpt lat="45.824483733765454" lon="9.413593767519593"><ele>205.0</ele><time>2026-03-28T12:53:49.906Z</time></trkpt><trkpt lat="45.82464708432394" lon="9.413456091683575"><ele>206.0</ele><time>2026-03-28T12:53:50.906Z</time></trkpt><trkpt lat="45.8248139015504" lon="9.413312260995141"><ele>207.0</ele><time>2026-03-28T12:53:51.906Z</time></trkpt><trkpt lat="45.82497835126608" lon="9.41317214334022"><ele>207.0</ele><time>2026-03-28T12:53:52.906Z</time></trkpt><trkpt lat="45.82514128069786" lon="9.413036226190126"><ele>207.0</ele><time>2026-03-28T12:53:53.906Z</time></trkpt><trkpt lat="45.825302175485845" lon="9.412904398736432"><ele>207.0</ele><time>2026-03-28T12:53:54.906Z</time></trkpt><trkpt lat="45.82544890480803" lon="9.412775257717284"><ele>204.66666666666669</ele><time>2026-03-28T12:53:55.906Z</time></trkpt><trkpt lat="45.82559697040221" lon="9.412648101472664"><ele>202.33333333333334</ele><time>2026-03-28T12:53:56.906Z</time></trkpt><trkpt lat="45.825744298425604" lon="9.412514817709294"><ele>200.0</ele><time>2026-03-28T12:53:57.906Z</time></trkpt><trkpt lat="45.82590209827232" lon="9.412377945955711"><ele>200.0</ele><time>2026-03-28T12:53:58.906Z</time></trkpt><trkpt lat="45.8260745736459" lon="9.412241659546925"><ele>200.0</ele><time>2026-03-28T12:53:59.906Z</time></trkpt><trkpt lat="45.826268557342516" lon="9.412093237733059"><ele>200.0</ele><time>2026-03-28T12:54:00.906Z</time></trkpt><trkpt lat="45.82645778017322" lon="9.411941188449775"><ele>200.0</ele><time>2026-03-28T12:54:01.906Z</time></trkpt><trkpt lat="45.82663472417217" lon="9.411796871544801"><ele>200.0</ele><time>2026-03-28T12:54:02.906Z</time></trkpt><trkpt lat="45.8267990745567" lon="9.411663000771782"><ele>200.0</ele><time>2026-03-28T12:54:03.906Z</time></trkpt><trkpt lat="45.82695770918566" lon="9.411531445466759"><ele>200.66666666666669</ele><time>2026-03-28T12:54:04.906Z</time></trkpt><trkpt lat="45.82711170764642" lon="9.411405665279368"><ele>201.33333333333331</ele><time>2026-03-28T12:54:05.906Z</time></trkpt><trkpt lat="45.827257859302556" lon="9.411283004947578"><ele>202.0</ele><time>2026-03-28T12:54:06.906Z</time></trkpt><trkpt lat="45.827394333663534" lon="9.411163862017956"><ele>202.0</ele><time>2026-03-28T12:54:07.906Z</time></trkpt><trkpt lat="45.82753147203248" lon="9.411047293892027"><ele>202.0</ele><time>2026-03-28T12:54:08.906Z</time></trkpt><trkpt lat="45.82767804724009" lon="9.410924142706383"><ele>202.0</ele><time>2026-03-28T12:54:09.906Z</time></trkpt><trkpt lat="45.827842100967366" lon="9.410787705040617"><ele>201.33333333333331</ele><time>2026-03-28T12:54:10.906Z</time></trkpt><trkpt lat="45.8280287188872" lon="9.410648946014774"><ele>200.66666666666669</ele><time>2026-03-28T12:54:11.906Z</time></trkpt><trkpt lat="45.82819526284971" lon="9.410525820013538"><ele>200.0</ele><time>2026-03-28T12:54:12.906Z</time></trkpt><trkpt lat="45.82836765117116" lon="9.41038679043343"><ele>200.33333333333334</ele><time>2026-03-28T12:54:13.906Z</time></trkpt><trkpt lat="45.828549525140296" lon="9.410234194112467"><ele>200.66666666666669</ele><time>2026-03-28T12:54:14.906Z</time></trkpt><trkpt lat="45.8287249831401" lon="9.410087942580049"><ele>201.0</ele><time>2026-03-28T12:54:15.905Z</time></trkpt><trkpt lat="45.82888216573199" lon="9.40995280813067"><ele>201.0</ele><time>2026-03-28T12:54:16.904Z</time></trkpt><trkpt lat="45.829020898329766" lon="9.409843441446224"><ele>201.0</ele><time>2026-03-28T12:54:17.904Z</time></trkpt><trkpt lat="45.82913899412543" lon="9.409748707967333"><ele>201.0</ele><time>2026-03-28T12:54:18.904Z</time></trkpt><trkpt lat="45.82923307209508" lon="9.409666229869782"><ele>201.0</ele><time>2026-03-28T12:54:19.904Z</time></trkpt><trkpt lat="45.82931292423794" lon="9.409601301799215"><ele>201.33333333333334</ele><time>2026-03-28T12:54:20.904Z</time></trkpt><trkpt lat="45.82939795275135" lon="9.409530167623632"><ele>201.66666666666669</ele><time>2026-03-28T12:54:22.904Z</time></trkpt><trkpt lat="45.829491733249455" lon="9.40945695167741"><ele>202.0</ele><time>2026-03-28T12:54:30.905Z</time></trkpt><trkpt lat="45.8295596838596" lon="9.40942406446971"><ele>202.33333333333334</ele><time>2026-03-28T12:54:31.905Z</time></trkpt><trkpt lat="45.829652516147426" lon="9.409404962820934"><ele>202.66666666666669</ele><time>2026-03-28T12:54:32.905Z</time></trkpt><trkpt lat="45.8297291546725" lon="9.409380474339915"><ele>203.0</ele><time>2026-03-28T12:54:33.905Z</time></trkpt><trkpt lat="45.82978941427414" lon="9.409326061247414"><ele>203.0</ele><time>2026-03-28T12:54:34.905Z</time></trkpt><trkpt lat="45.82984407012821" lon="9.409227166325701"><ele>203.0</ele><time>2026-03-28T12:54:35.905Z</time></trkpt><trkpt lat="45.829915467668066" lon="9.409109288804952"><ele>203.0</ele><time>2026-03-28T12:54:36.905Z</time></trkpt><trkpt lat="45.83001078870593" lon="9.40899163501212"><ele>203.0</ele><time>2026-03-28T12:54:37.905Z</time></trkpt><trkpt lat="45.83013951094544" lon="9.408878451087904"><ele>203.66666666666669</ele><time>2026-03-28T12:54:38.905Z</time></trkpt><trkpt lat="45.830263988196904" lon="9.40877636876995"><ele>204.33333333333331</ele><time>2026-03-28T12:54:39.905Z</time></trkpt><trkpt lat="45.83040455160393" lon="9.408656798307202"><ele>205.0</ele><time>2026-03-28T12:54:40.905Z</time></trkpt><trkpt lat="45.83058491112892" lon="9.408503963555434"><ele>205.0</ele><time>2026-03-28T12:54:41.905Z</time></trkpt><trkpt lat="45.830775651752155" lon="9.408345168585171"><ele>205.0</ele><time>2026-03-28T12:54:42.905Z</time></trkpt><trkpt lat="45.83094272017078" lon="9.408187255001698"><ele>205.0</ele><time>2026-03-28T12:54:43.905Z</time></trkpt><trkpt lat="45.83109082917792" lon="9.408014391100542"><ele>204.66666666666666</ele><time>2026-03-28T12:54:44.905Z</time></trkpt><trkpt lat="45.83122113638072" lon="9.407837483319483"><ele>204.33333333333331</ele><time>2026-03-28T12:54:45.905Z</time></trkpt><trkpt lat="45.83135350424287" lon="9.407667646536554"><ele>204.0</ele><time>2026-03-28T12:54:46.905Z</time></trkpt><trkpt lat="45.83148455206338" lon="9.407507722473058"><ele>204.0</ele><time>2026-03-28T12:54:47.905Z</time></trkpt><trkpt lat="45.83161246397169" lon="9.407359820461956"><ele>204.0</ele><time>2026-03-28T12:54:48.905Z</time></trkpt><trkpt lat="45.83174273806008" lon="9.407214175557137"><ele>204.0</ele><time>2026-03-28T12:54:49.905Z</time></trkpt><trkpt lat="45.831875801139745" lon="9.407072288705889"><ele>203.0</ele><time>2026-03-28T12:54:50.905Z</time></trkpt><trkpt lat="45.832008143348126" lon="9.406943158079287"><ele>202.0</ele><time>2026-03-28T12:54:51.905Z</time></trkpt><trkpt lat="45.832138546796834" lon="9.40683238545215"><ele>201.0</ele><time>2026-03-28T12:54:52.905Z</time></trkpt><trkpt lat="45.832275936394964" lon="9.40674009348394"><ele>201.0</ele><time>2026-03-28T12:54:53.905Z</time></trkpt><trkpt lat="45.83242052481378" lon="9.40668376792337"><ele>201.0</ele><time>2026-03-28T12:54:54.905Z</time></trkpt><trkpt lat="45.83257241709949" lon="9.40666366222337"><ele>201.0</ele><time>2026-03-28T12:54:55.905Z</time></trkpt><trkpt lat="45.832719583833466" lon="9.406662648030082"><ele>200.0</ele><time>2026-03-28T12:54:56.905Z</time></trkpt><trkpt lat="45.83287261708305" lon="9.406670938520248"><ele>199.0</ele><time>2026-03-28T12:54:57.905Z</time></trkpt><trkpt lat="45.83302032195523" lon="9.406693153485183"><ele>198.0</ele><time>2026-03-28T12:54:58.905Z</time></trkpt><trkpt lat="45.83315417595719" lon="9.406726388215198"><ele>197.0</ele><time>2026-03-28T12:54:59.905Z</time></trkpt><trkpt lat="45.83328229920082" lon="9.406777295080833"><ele>197.0</ele><time>2026-03-28T12:55:00.905Z</time></trkpt><trkpt lat="45.83339969595875" lon="9.40686693196756"><ele>197.0</ele><time>2026-03-28T12:55:01.905Z</time></trkpt><trkpt lat="45.833496520811295" lon="9.406937135369878"><ele>197.0</ele><time>2026-03-28T12:55:02.905Z</time></trkpt><trkpt lat="45.83358011942682" lon="9.407002827042614"><ele>197.0</ele><time>2026-03-28T12:55:03.905Z</time></trkpt><trkpt lat="45.83364530047149" lon="9.407056868010452"><ele>197.0</ele><time>2026-03-28T12:55:04.905Z</time></trkpt><trkpt lat="45.83370030895089" lon="9.407104586873478"><ele>197.6</ele><time>2026-03-28T12:55:05.905Z</time></trkpt><trkpt lat="45.83380001119733" lon="9.407190186893063"><ele>198.2</ele><time>2026-03-28T12:55:07.905Z</time></trkpt><trkpt lat="45.83387811931519" lon="9.407272434687405"><ele>198.8</ele><time>2026-03-28T12:55:09.905Z</time></trkpt><trkpt lat="45.83395453532953" lon="9.407406134315165"><ele>199.4</ele><time>2026-03-28T12:55:11.905Z</time></trkpt><trkpt lat="45.833998113450114" lon="9.407504913159254"><ele>200.0</ele><time>2026-03-28T12:55:12.905Z</time></trkpt><trkpt lat="45.834057735663656" lon="9.407594854726657"><ele>200.0</ele><time>2026-03-28T12:55:13.905Z</time></trkpt><trkpt lat="45.834132649469" lon="9.407659477530427"><ele>200.0</ele><time>2026-03-28T12:55:14.905Z</time></trkpt><trkpt lat="45.83421217346205" lon="9.407706013296421"><ele>200.0</ele><time>2026-03-28T12:55:15.905Z</time></trkpt><trkpt lat="45.834300131830865" lon="9.407748345339542"><ele>200.0</ele><time>2026-03-28T12:55:16.905Z</time></trkpt><trkpt lat="45.83439324215706" lon="9.407783177768739"><ele>200.0</ele><time>2026-03-28T12:55:17.905Z</time></trkpt><trkpt lat="45.83448598585593" lon="9.40780301137042"><ele>200.8</ele><time>2026-03-28T12:55:18.905Z</time></trkpt><trkpt lat="45.83457740988864" lon="9.40780484044165"><ele>201.6</ele><time>2026-03-28T12:55:19.905Z</time></trkpt><trkpt lat="45.83466903574515" lon="9.407807646275216"><ele>202.39999999999998</ele><time>2026-03-28T12:55:20.905Z</time></trkpt><trkpt lat="45.834763831070106" lon="9.407816651864518"><ele>203.2</ele><time>2026-03-28T12:55:21.905Z</time></trkpt><trkpt lat="45.83487096080735" lon="9.407828298046464"><ele>204.0</ele><time>2026-03-28T12:55:22.905Z</time></trkpt><trkpt lat="45.83498133041833" lon="9.407840066786276"><ele>204.0</ele><time>2026-03-28T12:55:23.905Z</time></trkpt><trkpt lat="45.83508803008875" lon="9.407848550808197"><ele>204.0</ele><time>2026-03-28T12:55:24.905Z</time></trkpt><trkpt lat="45.83520008119885" lon="9.407859880629358"><ele>204.0</ele><time>2026-03-28T12:55:25.905Z</time></trkpt><trkpt lat="45.83530883528516" lon="9.40787033665473"><ele>204.0</ele><time>2026-03-28T12:55:26.905Z</time></trkpt><trkpt lat="45.83541115539598" lon="9.407883568581825"><ele>204.0</ele><time>2026-03-28T12:55:27.905Z</time></trkpt><trkpt lat="45.83550924411213" lon="9.407893123241944"><ele>204.0</ele><time>2026-03-28T12:55:28.905Z</time></trkpt><trkpt lat="45.83561621658213" lon="9.407901274049259"><ele>204.0</ele><time>2026-03-28T12:55:29.905Z</time></trkpt><trkpt lat="45.835724948008185" lon="9.407907861940997"><ele>204.0</ele><time>2026-03-28T12:55:30.905Z</time></trkpt><trkpt lat="45.83583957945499" lon="9.407914408050368"><ele>204.0</ele><time>2026-03-28T12:55:31.905Z</time></trkpt><trkpt lat="45.83595416425627" lon="9.40792247838351"><ele>204.0</ele><time>2026-03-28T12:55:32.905Z</time></trkpt><trkpt lat="45.83606278343713" lon="9.407930082225432"><ele>203.39999999999998</ele><time>2026-03-28T12:55:33.905Z</time></trkpt><trkpt lat="45.836169506501506" lon="9.407940902505132"><ele>202.8</ele><time>2026-03-28T12:55:34.905Z</time></trkpt><trkpt lat="45.83628150261393" lon="9.407957628288763"><ele>202.2</ele><time>2026-03-28T12:55:35.905Z</time></trkpt><trkpt lat="45.836385483217406" lon="9.407964776902388"><ele>201.60000000000002</ele><time>2026-03-28T12:55:36.905Z</time></trkpt><trkpt lat="45.83647957692411" lon="9.407970548693887"><ele>201.0</ele><time>2026-03-28T12:55:37.905Z</time></trkpt><trkpt lat="45.83657743624932" lon="9.40797045227124"><ele>201.0</ele><time>2026-03-28T12:55:38.905Z</time></trkpt><trkpt lat="45.83667096035599" lon="9.407975079400883"><ele>201.0</ele><time>2026-03-28T12:55:39.905Z</time></trkpt><trkpt lat="45.83675595951569" lon="9.40797625791137"><ele>201.0</ele><time>2026-03-28T12:55:40.905Z</time></trkpt><trkpt lat="45.836852030944" lon="9.407975449168463"><ele>201.0</ele><time>2026-03-28T12:55:41.905Z</time></trkpt><trkpt lat="45.83695260182593" lon="9.40797820576913"><ele>201.0</ele><time>2026-03-28T12:55:42.905Z</time></trkpt><trkpt lat="45.83703433452816" lon="9.407967959880528"><ele>201.0</ele><time>2026-03-28T12:55:43.905Z</time></trkpt><trkpt lat="45.83710892570944" lon="9.407948928235385"><ele>201.0</ele><time>2026-03-28T12:55:44.905Z</time></trkpt><trkpt lat="45.83717669509225" lon="9.40792572719614"><ele>201.0</ele><time>2026-03-28T12:55:45.905Z</time></trkpt><trkpt lat="45.837295478365455" lon="9.407841348452084"><ele>201.0</ele><time>2026-03-28T12:55:47.905Z</time></trkpt><trkpt lat="45.83735558441085" lon="9.407782147116556"><ele>201.0</ele><time>2026-03-28T12:55:48.905Z</time></trkpt><trkpt lat="45.837453174068315" lon="9.407714518480212"><ele>201.0</ele><time>2026-03-28T12:55:50.905Z</time></trkpt><trkpt lat="45.83751652228168" lon="9.407673153617594"><ele>201.0</ele><time>2026-03-28T12:55:52.905Z</time></trkpt><trkpt lat="45.83758741829527" lon="9.407597399233074"><ele>201.0</ele><time>2026-03-28T12:55:54.905Z</time></trkpt><trkpt lat="45.837661736499435" lon="9.407617311983236"><ele>201.0</ele><time>2026-03-28T12:55:55.905Z</time></trkpt><trkpt lat="45.83777984821156" lon="9.407540074601433"><ele>201.0</ele><time>2026-03-28T12:55:57.905Z</time></trkpt><trkpt lat="45.83783602396658" lon="9.407466144746389"><ele>201.0</ele><time>2026-03-28T12:55:58.905Z</time></trkpt><trkpt lat="45.83791348854081" lon="9.407434499625356"><ele>201.0</ele><time>2026-03-28T12:55:59.905Z</time></trkpt><trkpt lat="45.837975404324894" lon="9.40739491959526"><ele>201.0</ele><time>2026-03-28T12:56:00.905Z</time></trkpt><trkpt lat="45.83804022976364" lon="9.407357307939213"><ele>201.0</ele><time>2026-03-28T12:56:01.905Z</time></trkpt><trkpt lat="45.83811434485365" lon="9.407306738624094"><ele>201.0</ele><time>2026-03-28T12:56:02.905Z</time></trkpt><trkpt lat="45.838190472508295" lon="9.407234515005571"><ele>201.0</ele><time>2026-03-28T12:56:03.905Z</time></trkpt><trkpt lat="45.838264840452965" lon="9.407149439231262"><ele>201.0</ele><time>2026-03-28T12:56:04.905Z</time></trkpt><trkpt lat="45.838340218372565" lon="9.407061851721986"><ele>201.0</ele><time>2026-03-28T12:56:05.905Z</time></trkpt><trkpt lat="45.838413421358176" lon="9.40699431637173"><ele>201.0</ele><time>2026-03-28T12:56:06.905Z</time></trkpt><trkpt lat="45.838501553592366" lon="9.406919765818309"><ele>201.0</ele><time>2026-03-28T12:56:07.905Z</time></trkpt><trkpt lat="45.83860584135475" lon="9.406829153679784"><ele>201.0</ele><time>2026-03-28T12:56:08.905Z</time></trkpt><trkpt lat="45.83870635978091" lon="9.4067456055381"><ele>201.0</ele><time>2026-03-28T12:56:09.905Z</time></trkpt><trkpt lat="45.83880599926993" lon="9.406667642602521"><ele>201.0</ele><time>2026-03-28T12:56:10.905Z</time></trkpt><trkpt lat="45.838908062978355" lon="9.406587410183292"><ele>201.0</ele><time>2026-03-28T12:56:11.905Z</time></trkpt><trkpt lat="45.83900171723065" lon="9.406511284289884"><ele>201.0</ele><time>2026-03-28T12:56:12.905Z</time></trkpt><trkpt lat="45.83908789582105" lon="9.40643968680512"><ele>201.0</ele><time>2026-03-28T12:56:13.905Z</time></trkpt><trkpt lat="45.83916098988825" lon="9.406368963025127"><ele>201.0</ele><time>2026-03-28T12:56:14.905Z</time></trkpt><trkpt lat="45.839221640755305" lon="9.406300294498822"><ele>201.0</ele><time>2026-03-28T12:56:15.905Z</time></trkpt><trkpt lat="45.839280270832816" lon="9.406229787788666"><ele>201.0</ele><time>2026-03-28T12:56:16.905Z</time></trkpt><trkpt lat="45.83934446375369" lon="9.406140138548142"><ele>201.0</ele><time>2026-03-28T12:56:18.905Z</time></trkpt><trkpt lat="45.839388237802325" lon="9.406061086119498"><ele>201.0</ele><time>2026-03-28T12:56:20.905Z</time></trkpt><trkpt lat="45.8394512213357" lon="9.405971084754631"><ele>201.0</ele><time>2026-03-28T12:56:22.903Z</time></trkpt><trkpt lat="45.839552061496605" lon="9.405865685440752"><ele>201.16666666666666</ele><time>2026-03-28T12:56:24.903Z</time></trkpt><trkpt lat="45.83961030127126" lon="9.405817511504733"><ele>201.33333333333331</ele><time>2026-03-28T12:56:25.904Z</time></trkpt><trkpt lat="45.83966067908756" lon="9.40575180347564"><ele>201.5</ele><time>2026-03-28T12:56:26.904Z</time></trkpt><trkpt lat="45.839699572489494" lon="9.405680359076111"><ele>201.66666666666666</ele><time>2026-03-28T12:56:27.903Z</time></trkpt><trkpt lat="45.83975768538889" lon="9.405542163482455"><ele>201.83333333333331</ele><time>2026-03-28T12:56:29.904Z</time></trkpt><trkpt lat="45.839846692973396" lon="9.405427203234648"><ele>202.0</ele><time>2026-03-28T12:56:31.903Z</time></trkpt><trkpt lat="45.83991613427834" lon="9.405384005039041"><ele>202.49999999999997</ele><time>2026-03-28T12:56:32.903Z</time></trkpt><trkpt lat="45.83999019537706" lon="9.405349267524356"><ele>203.0</ele><time>2026-03-28T12:56:33.903Z</time></trkpt><trkpt lat="45.84006155792796" lon="9.405323764497723"><ele>203.5</ele><time>2026-03-28T12:56:34.903Z</time></trkpt><trkpt lat="45.84013053878201" lon="9.405298820852254"><ele>204.0</ele><time>2026-03-28T12:56:35.903Z</time></trkpt><trkpt lat="45.84019192600705" lon="9.405274125283768"><ele>204.49999999999997</ele><time>2026-03-28T12:56:36.903Z</time></trkpt><trkpt lat="45.840301159177486" lon="9.40521109980707"><ele>205.0</ele><time>2026-03-28T12:56:38.903Z</time></trkpt><trkpt lat="45.84036999713066" lon="9.405117293348933"><ele>204.99999999999997</ele><time>2026-03-28T12:56:40.903Z</time></trkpt><trkpt lat="45.8403919988403" lon="9.405028207197185"><ele>205.0</ele><time>2026-03-28T12:56:42.903Z</time></trkpt><trkpt lat="45.84039584573399" lon="9.404926325783817"><ele>205.0</ele><time>2026-03-28T12:56:46.903Z</time></trkpt><trkpt lat="45.840335560371436" lon="9.404769620808153"><ele>205.0</ele><time>2026-03-28T12:56:50.903Z</time></trkpt><trkpt lat="45.84027682238458" lon="9.404706067414518"><ele>204.99999999999997</ele><time>2026-03-28T12:56:51.903Z</time></trkpt><trkpt lat="45.84021658989982" lon="9.404661347109133"><ele>205.0</ele><time>2026-03-28T12:56:52.903Z</time></trkpt><trkpt lat="45.840145697790724" lon="9.404554795244222"><ele>205.33333333333331</ele><time>2026-03-28T12:56:53.903Z</time></trkpt><trkpt lat="45.84007555986994" lon="9.404364897464395"><ele>205.66666666666669</ele><time>2026-03-28T12:56:54.903Z</time></trkpt><trkpt lat="45.839997496076286" lon="9.404178966414287"><ele>206.0</ele><time>2026-03-28T12:56:55.903Z</time></trkpt><trkpt lat="45.839895451758565" lon="9.403963555834745"><ele>206.0</ele><time>2026-03-28T12:56:56.903Z</time></trkpt><trkpt lat="45.83981607281538" lon="9.403836443914463"><ele>206.0</ele><time>2026-03-28T12:56:57.903Z</time></trkpt><trkpt lat="45.83975203163481" lon="9.403704469338065"><ele>206.0</ele><time>2026-03-28T12:56:58.903Z</time></trkpt><trkpt lat="45.83969331569982" lon="9.403590326913676"><ele>206.0</ele><time>2026-03-28T12:56:59.903Z</time></trkpt><trkpt lat="45.839638290362196" lon="9.403463318045006"><ele>206.0</ele><time>2026-03-28T12:57:00.903Z</time></trkpt><trkpt lat="45.839584621841716" lon="9.40332905234087"><ele>205.60000000000002</ele><time>2026-03-28T12:57:01.903Z</time></trkpt><trkpt lat="45.839530846214906" lon="9.403204893107599"><ele>205.2</ele><time>2026-03-28T12:57:02.903Z</time></trkpt><trkpt lat="45.83947851689869" lon="9.403069760248941"><ele>204.8</ele><time>2026-03-28T12:57:03.903Z</time></trkpt><trkpt lat="45.83943069212064" lon="9.402947292301063"><ele>204.39999999999998</ele><time>2026-03-28T12:57:04.903Z</time></trkpt><trkpt lat="45.83939005080319" lon="9.402814994368445"><ele>204.0</ele><time>2026-03-28T12:57:05.903Z</time></trkpt><trkpt lat="45.83935181468207" lon="9.402683502036604"><ele>203.79999999999998</ele><time>2026-03-28T12:57:06.903Z</time></trkpt><trkpt lat="45.839325207710296" lon="9.402536655891348"><ele>203.6</ele><time>2026-03-28T12:57:07.903Z</time></trkpt><trkpt lat="45.83930459182895" lon="9.402373284767041"><ele>203.4</ele><time>2026-03-28T12:57:08.903Z</time></trkpt><trkpt lat="45.83929150173382" lon="9.402230224930554"><ele>203.2</ele><time>2026-03-28T12:57:09.903Z</time></trkpt><trkpt lat="45.8392795382114" lon="9.402114444875888"><ele>203.0</ele><time>2026-03-28T12:57:10.903Z</time></trkpt><trkpt lat="45.83926460582712" lon="9.40199492672656"><ele>202.66666666666669</ele><time>2026-03-28T12:57:11.903Z</time></trkpt><trkpt lat="45.839249564817486" lon="9.401896426755549"><ele>202.33333333333334</ele><time>2026-03-28T12:57:12.903Z</time></trkpt><trkpt lat="45.83923233805276" lon="9.401803347810889"><ele>202.0</ele><time>2026-03-28T12:57:13.903Z</time></trkpt><trkpt lat="45.839212464502154" lon="9.401703953903361"><ele>201.66666666666669</ele><time>2026-03-28T12:57:14.903Z</time></trkpt><trkpt lat="45.83919578538307" lon="9.401602007202017"><ele>201.33333333333334</ele><time>2026-03-28T12:57:15.903Z</time></trkpt><trkpt lat="45.839179172036296" lon="9.401476985054499"><ele>201.0</ele><time>2026-03-28T12:57:16.903Z</time></trkpt><trkpt lat="45.83915862473795" lon="9.401329794417508"><ele>200.5</ele><time>2026-03-28T12:57:17.903Z</time></trkpt><trkpt lat="45.839137487731826" lon="9.401143450661815"><ele>200.0</ele><time>2026-03-28T12:57:18.903Z</time></trkpt><trkpt lat="45.83911379724783" lon="9.400954921610444"><ele>199.5</ele><time>2026-03-28T12:57:19.903Z</time></trkpt><trkpt lat="45.839090996540925" lon="9.400771489644926"><ele>199.0</ele><time>2026-03-28T12:57:20.903Z</time></trkpt><trkpt lat="45.83906547535075" lon="9.400593800258502"><ele>198.75</ele><time>2026-03-28T12:57:21.903Z</time></trkpt><trkpt lat="45.839038593351354" lon="9.40039959226816"><ele>198.5</ele><time>2026-03-28T12:57:22.903Z</time></trkpt><trkpt lat="45.839009077520906" lon="9.400189775734297"><ele>198.25</ele><time>2026-03-28T12:57:23.903Z</time></trkpt><trkpt lat="45.838983767337396" lon="9.39996391685594"><ele>198.0</ele><time>2026-03-28T12:57:24.903Z</time></trkpt><trkpt lat="45.83895788234435" lon="9.399741520094324"><ele>198.0</ele><time>2026-03-28T12:57:25.903Z</time></trkpt><trkpt lat="45.8389334336812" lon="9.39951910721686"><ele>198.0</ele><time>2026-03-28T12:57:26.903Z</time></trkpt><trkpt lat="45.83890286180105" lon="9.399292633178058"><ele>198.0</ele><time>2026-03-28T12:57:27.903Z</time></trkpt><trkpt lat="45.83886326718314" lon="9.399052652608232"><ele>198.0</ele><time>2026-03-28T12:57:28.903Z</time></trkpt><trkpt lat="45.83881920873107" lon="9.398797298197847"><ele>198.0</ele><time>2026-03-28T12:57:29.903Z</time></trkpt><trkpt lat="45.83878015263361" lon="9.398528010909988"><ele>198.0</ele><time>2026-03-28T12:57:30.903Z</time></trkpt><trkpt lat="45.8387392038528" lon="9.398237291252473"><ele>198.66666666666669</ele><time>2026-03-28T12:57:31.903Z</time></trkpt><trkpt lat="45.8386978731873" lon="9.39792611300107"><ele>199.33333333333334</ele><time>2026-03-28T12:57:32.903Z</time></trkpt><trkpt lat="45.83865758513281" lon="9.397625474255037"><ele>200.0</ele><time>2026-03-28T12:57:33.903Z</time></trkpt><trkpt lat="45.83862216006542" lon="9.397301159815566"><ele>200.0</ele><time>2026-03-28T12:57:34.903Z</time></trkpt><trkpt lat="45.83858442619505" lon="9.396942665479166"><ele>200.0</ele><time>2026-03-28T12:57:35.903Z</time></trkpt><trkpt lat="45.838551379654554" lon="9.396542108914812"><ele>200.0</ele><time>2026-03-28T12:57:36.903Z</time></trkpt><trkpt lat="45.838539206173074" lon="9.39611948811967"><ele>200.0</ele><time>2026-03-28T12:57:37.903Z</time></trkpt><trkpt lat="45.838535421546496" lon="9.39569191684129"><ele>203.0</ele><time>2026-03-28T12:57:38.903Z</time></trkpt><trkpt lat="45.83853738328714" lon="9.395284365064182"><ele>206.0</ele><time>2026-03-28T12:57:39.903Z</time></trkpt><trkpt lat="45.838539837190105" lon="9.394892642486996"><ele>207.5</ele><time>2026-03-28T12:57:40.903Z</time></trkpt><trkpt lat="45.838549169078185" lon="9.394516828201185"><ele>209.0</ele><time>2026-03-28T12:57:41.903Z</time></trkpt><trkpt lat="45.83856565115034" lon="9.39414539747848"><ele>212.0</ele><time>2026-03-28T12:57:42.903Z</time></trkpt><trkpt lat="45.83859624693732" lon="9.393770134209102"><ele>215.0</ele><time>2026-03-28T12:57:43.903Z</time></trkpt><trkpt lat="45.83862737989923" lon="9.393391855127646"><ele>215.0</ele><time>2026-03-28T12:57:44.903Z</time></trkpt><trkpt lat="45.83865635933099" lon="9.393027329277123"><ele>215.0</ele><time>2026-03-28T12:57:45.903Z</time></trkpt><trkpt lat="45.83868932594837" lon="9.39265803827662"><ele>224.5</ele><time>2026-03-28T12:57:46.903Z</time></trkpt><trkpt lat="45.83872279559484" lon="9.392291476920967"><ele>234.0</ele><time>2026-03-28T12:57:47.903Z</time></trkpt><trkpt lat="45.83876747731485" lon="9.391923847151617"><ele>236.5</ele><time>2026-03-28T12:57:48.903Z</time></trkpt><trkpt lat="45.838803357344204" lon="9.391554671246332"><ele>239.0</ele><time>2026-03-28T12:57:49.903Z</time></trkpt><trkpt lat="45.829168299074" lon="9.353274493360521"><ele>237.33333333333334</ele><time>2026-03-28T12:59:34.903Z</time></trkpt><trkpt lat="45.828997397991905" lon="9.353024183822868"><ele>235.66666666666669</ele><time>2026-03-28T12:59:35.903Z</time></trkpt><trkpt lat="45.828879327501014" lon="9.352810883807585"><ele>234.0</ele><time>2026-03-28T12:59:36.903Z</time></trkpt><trkpt lat="45.82869480107451" lon="9.352542026702817"><ele>234.0</ele><time>2026-03-28T12:59:37.903Z</time></trkpt><trkpt lat="45.8285079452254" lon="9.352337113901298"><ele>234.0</ele><time>2026-03-28T12:59:38.903Z</time></trkpt><trkpt lat="45.828323967843595" lon="9.352143768018202"><ele>232.0</ele><time>2026-03-28T12:59:39.903Z</time></trkpt><trkpt lat="45.82813659164221" lon="9.351946535530303"><ele>230.0</ele><time>2026-03-28T12:59:40.901Z</time></trkpt><trkpt lat="45.82793131150384" lon="9.351750565958257"><ele>230.0</ele><time>2026-03-28T12:59:41.901Z</time></trkpt><trkpt lat="45.827719729354776" lon="9.3515563126481"><ele>230.0</ele><time>2026-03-28T12:59:42.901Z</time></trkpt><trkpt lat="45.827506461042915" lon="9.351374682177735"><ele>231.5</ele><time>2026-03-28T12:59:43.901Z</time></trkpt><trkpt lat="45.8272952894436" lon="9.351189955290868"><ele>233.0</ele><time>2026-03-28T12:59:44.901Z</time></trkpt><trkpt lat="45.827081067294436" lon="9.35100643594705"><ele>233.0</ele><time>2026-03-28T12:59:45.901Z</time></trkpt><trkpt lat="45.82686264083126" lon="9.35082347718935"><ele>233.0</ele><time>2026-03-28T12:59:46.901Z</time></trkpt><trkpt lat="45.82663796500017" lon="9.350637523083087"><ele>231.5</ele><time>2026-03-28T12:59:47.901Z</time></trkpt><trkpt lat="45.826399503579545" lon="9.35044144603722"><ele>230.0</ele><time>2026-03-28T12:59:48.901Z</time></trkpt><trkpt lat="45.826172260958884" lon="9.350250476566913"><ele>231.5</ele><time>2026-03-28T12:59:49.901Z</time></trkpt><trkpt lat="45.825940478524195" lon="9.350056678414536"><ele>233.0</ele><time>2026-03-28T12:59:50.901Z</time></trkpt><trkpt lat="45.825721815062295" lon="9.349854159439385"><ele>229.5</ele><time>2026-03-28T12:59:51.901Z</time></trkpt><trkpt lat="45.825513425798654" lon="9.349640699133694"><ele>226.0</ele><time>2026-03-28T12:59:52.901Z</time></trkpt><trkpt lat="45.82531817710101" lon="9.34940609526892"><ele>226.5</ele><time>2026-03-28T12:59:53.901Z</time></trkpt><trkpt lat="45.82512998339641" lon="9.349150773700746"><ele>227.0</ele><time>2026-03-28T12:59:54.901Z</time></trkpt><trkpt lat="45.82496285178943" lon="9.348870279255955"><ele>227.0</ele><time>2026-03-28T12:59:55.901Z</time></trkpt><trkpt lat="45.82481007481368" lon="9.34857274627885"><ele>227.0</ele><time>2026-03-28T12:59:56.901Z</time></trkpt><trkpt lat="45.824678863513924" lon="9.34826062787708"><ele>229.0</ele><time>2026-03-28T12:59:57.901Z</time></trkpt><trkpt lat="45.82457951010228" lon="9.347934683198737"><ele>231.0</ele><time>2026-03-28T12:59:58.901Z</time></trkpt><trkpt lat="45.824495786514106" lon="9.347595165477474"><ele>231.0</ele><time>2026-03-28T12:59:59.901Z</time></trkpt><trkpt lat="45.8244302254084" lon="9.347238457836573"><ele>231.0</ele><time>2026-03-28T13:00:00.901Z</time></trkpt><trkpt lat="45.82439378822652" lon="9.346875834432943"><ele>233.0</ele><time>2026-03-28T13:00:01.901Z</time></trkpt><trkpt lat="45.82437005039334" lon="9.346508341149923"><ele>235.0</ele><time>2026-03-28T13:00:02.901Z</time></trkpt><trkpt lat="45.82436378225387" lon="9.346129829518837"><ele>235.0</ele><time>2026-03-28T13:00:03.901Z</time></trkpt><trkpt lat="45.82437045251099" lon="9.345747758328393"><ele>235.0</ele><time>2026-03-28T13:00:04.901Z</time></trkpt><trkpt lat="45.82439147055598" lon="9.345352613285682"><ele>232.5</ele><time>2026-03-28T13:00:05.901Z</time></trkpt><trkpt lat="45.824416916324246" lon="9.344960999345075"><ele>230.0</ele><time>2026-03-28T13:00:06.901Z</time></trkpt><trkpt lat="45.82444041484467" lon="9.344565359219066"><ele>229.5</ele><time>2026-03-28T13:00:07.901Z</time></trkpt><trkpt lat="45.82446924517211" lon="9.344152085383305"><ele>229.0</ele><time>2026-03-28T13:00:08.901Z</time></trkpt><trkpt lat="45.82449621775026" lon="9.343749734789133"><ele>232.5</ele><time>2026-03-28T13:00:09.901Z</time></trkpt><trkpt lat="45.824519431285005" lon="9.34338078163286"><ele>236.0</ele><time>2026-03-28T13:00:10.901Z</time></trkpt><trkpt lat="45.824539413388656" lon="9.34298613986802"><ele>239.5</ele><time>2026-03-28T13:00:11.901Z</time></trkpt><trkpt lat="45.82456371664115" lon="9.342609356955453"><ele>243.0</ele><time>2026-03-28T13:00:12.901Z</time></trkpt><trkpt lat="45.82459119500868" lon="9.3422339481072"><ele>243.5</ele><time>2026-03-28T13:00:13.901Z</time></trkpt><trkpt lat="45.82461841715411" lon="9.341862064948636"><ele>244.0</ele><time>2026-03-28T13:00:14.901Z</time></trkpt><trkpt lat="45.824636113246335" lon="9.34148927282274"><ele>241.0</ele><time>2026-03-28T13:00:15.901Z</time></trkpt><trkpt lat="45.82465568863757" lon="9.341125345948917"><ele>238.0</ele><time>2026-03-28T13:00:16.901Z</time></trkpt><trkpt lat="45.82467525411795" lon="9.340754924690255"><ele>235.5</ele><time>2026-03-28T13:00:17.901Z</time></trkpt><trkpt lat="45.824698201093916" lon="9.34037975368441"><ele>233.0</ele><time>2026-03-28T13:00:18.901Z</time></trkpt><trkpt lat="45.824723398629516" lon="9.340002799855123"><ele>234.5</ele><time>2026-03-28T13:00:19.901Z</time></trkpt><trkpt lat="45.82474627839241" lon="9.339627619311555"><ele>236.0</ele><time>2026-03-28T13:00:20.901Z</time></trkpt><trkpt lat="45.824762908617764" lon="9.339249092451166"><ele>237.0</ele><time>2026-03-28T13:00:21.901Z</time></trkpt><trkpt lat="45.82476119676168" lon="9.338880081903515"><ele>238.0</ele><time>2026-03-28T13:00:22.901Z</time></trkpt><trkpt lat="45.82474570637602" lon="9.338517715269509"><ele>238.0</ele><time>2026-03-28T13:00:23.901Z</time></trkpt><trkpt lat="45.824735655890926" lon="9.338156231452762"><ele>238.0</ele><time>2026-03-28T13:00:24.901Z</time></trkpt><trkpt lat="45.82472225798933" lon="9.337800038397232"><ele>239.5</ele><time>2026-03-28T13:00:25.901Z</time></trkpt><trkpt lat="45.824702741388336" lon="9.337440459077428"><ele>241.0</ele><time>2026-03-28T13:00:26.901Z</time></trkpt><trkpt lat="45.82468329001731" lon="9.337079684866932"><ele>242.5</ele><time>2026-03-28T13:00:27.901Z</time></trkpt><trkpt lat="45.82466675391616" lon="9.336721256459104"><ele>244.0</ele><time>2026-03-28T13:00:28.901Z</time></trkpt><trkpt lat="45.82465331844776" lon="9.336362203644686"><ele>245.5</ele><time>2026-03-28T13:00:29.901Z</time></trkpt><trkpt lat="45.824645561003415" lon="9.33602130051808"><ele>247.0</ele><time>2026-03-28T13:00:30.901Z</time></trkpt><trkpt lat="45.8246495102988" lon="9.335692469076312"><ele>247.0</ele><time>2026-03-28T13:00:31.901Z</time></trkpt><trkpt lat="45.8246504610998" lon="9.335382176863675"><ele>247.0</ele><time>2026-03-28T13:00:32.901Z</time></trkpt><trkpt lat="45.82465791915393" lon="9.335073757586526"><ele>247.0</ele><time>2026-03-28T13:00:33.901Z</time></trkpt><trkpt lat="45.82464905519862" lon="9.334761951945076"><ele>247.0</ele><time>2026-03-28T13:00:34.901Z</time></trkpt><trkpt lat="45.82463417292073" lon="9.334434712148763"><ele>247.0</ele><time>2026-03-28T13:00:35.901Z</time></trkpt><trkpt lat="45.824620954980105" lon="9.334085828278381"><ele>247.5</ele><time>2026-03-28T13:00:36.901Z</time></trkpt><trkpt lat="45.824617464504826" lon="9.333724602666626"><ele>248.0</ele><time>2026-03-28T13:00:37.901Z</time></trkpt><trkpt lat="45.824611613985255" lon="9.333372150610243"><ele>249.5</ele><time>2026-03-28T13:00:38.901Z</time></trkpt><trkpt lat="45.82460674654673" lon="9.333007131518569"><ele>251.0</ele><time>2026-03-28T13:00:39.901Z</time></trkpt><trkpt lat="45.82459531615985" lon="9.332664824430367"><ele>251.0</ele><time>2026-03-28T13:00:40.901Z</time></trkpt><trkpt lat="45.824558833372116" lon="9.332320071721462"><ele>251.0</ele><time>2026-03-28T13:00:41.901Z</time></trkpt><trkpt lat="45.824523863000046" lon="9.331980128958122"><ele>252.0</ele><time>2026-03-28T13:00:42.901Z</time></trkpt><trkpt lat="45.82449685181851" lon="9.33166827538553"><ele>253.0</ele><time>2026-03-28T13:00:43.901Z</time></trkpt><trkpt lat="45.82448014558064" lon="9.331380749193606"><ele>254.0</ele><time>2026-03-28T13:00:44.901Z</time></trkpt><trkpt lat="45.82446679760224" lon="9.331118077840824"><ele>254.66666666666669</ele><time>2026-03-28T13:00:45.901Z</time></trkpt><trkpt lat="45.82445824354626" lon="9.330869968123475"><ele>255.33333333333331</ele><time>2026-03-28T13:00:46.901Z</time></trkpt><trkpt lat="45.824451609112835" lon="9.33062930638566"><ele>256.0</ele><time>2026-03-28T13:00:47.901Z</time></trkpt><trkpt lat="45.82443937878609" lon="9.330397271970725"><ele>258.66666666666663</ele><time>2026-03-28T13:00:48.901Z</time></trkpt><trkpt lat="45.82442038141468" lon="9.3301777750968"><ele>261.3333333333333</ele><time>2026-03-28T13:00:49.901Z</time></trkpt><trkpt lat="45.824396675395434" lon="9.32996423870571"><ele>264.0</ele><time>2026-03-28T13:00:50.901Z</time></trkpt><trkpt lat="45.82437340875684" lon="9.329743698785654"><ele>266.0</ele><time>2026-03-28T13:00:51.901Z</time></trkpt><trkpt lat="45.82435472884768" lon="9.329514837055164"><ele>268.0</ele><time>2026-03-28T13:00:52.901Z</time></trkpt><trkpt lat="45.82434500320742" lon="9.32928829262211"><ele>270.0</ele><time>2026-03-28T13:00:53.901Z</time></trkpt><trkpt lat="45.824335325395694" lon="9.329079451487123"><ele>270.75</ele><time>2026-03-28T13:00:54.901Z</time></trkpt><trkpt lat="45.824324099317955" lon="9.328881223362517"><ele>271.5</ele><time>2026-03-28T13:00:55.901Z</time></trkpt><trkpt lat="45.824303314889356" lon="9.328684144773126"><ele>272.25</ele><time>2026-03-28T13:00:56.901Z</time></trkpt><trkpt lat="45.824291595978785" lon="9.328472362987478"><ele>273.0</ele><time>2026-03-28T13:00:57.901Z</time></trkpt><trkpt lat="45.824269721439684" lon="9.3282644738792"><ele>264.75</ele><time>2026-03-28T13:00:58.901Z</time></trkpt><trkpt lat="45.82425034283906" lon="9.328043485694721"><ele>256.5</ele><time>2026-03-28T13:00:59.901Z</time></trkpt><trkpt lat="45.82422553128994" lon="9.327849574878377"><ele>248.25</ele><time>2026-03-28T13:01:00.901Z</time></trkpt><trkpt lat="45.8241995795795" lon="9.327651124795008"><ele>240.0</ele><time>2026-03-28T13:01:01.901Z</time></trkpt><trkpt lat="45.82416430098534" lon="9.32744562869558"><ele>240.0</ele><time>2026-03-28T13:01:02.901Z</time></trkpt><trkpt lat="45.8241242201497" lon="9.32725942722808"><ele>240.0</ele><time>2026-03-28T13:01:03.901Z</time></trkpt><trkpt lat="45.82409843904659" lon="9.32707569738322"><ele>240.0</ele><time>2026-03-28T13:01:04.901Z</time></trkpt><trkpt lat="45.82407785412094" lon="9.326897380085725"><ele>240.0</ele><time>2026-03-28T13:01:05.901Z</time></trkpt><trkpt lat="45.82405017337806" lon="9.326737077943752"><ele>241.0</ele><time>2026-03-28T13:01:06.902Z</time></trkpt><trkpt lat="45.82401256687807" lon="9.326564626585258"><ele>242.0</ele><time>2026-03-28T13:01:07.902Z</time></trkpt><trkpt lat="45.82396875465723" lon="9.326350821611475"><ele>243.0</ele><time>2026-03-28T13:01:08.902Z</time></trkpt><trkpt lat="45.823928389720315" lon="9.326112314291029"><ele>243.0</ele><time>2026-03-28T13:01:09.902Z</time></trkpt><trkpt lat="45.823883746276756" lon="9.325855522134512"><ele>243.0</ele><time>2026-03-28T13:01:10.902Z</time></trkpt><trkpt lat="45.82383903333003" lon="9.325579207759528"><ele>243.0</ele><time>2026-03-28T13:01:11.902Z</time></trkpt><trkpt lat="45.82380208415575" lon="9.32530175557016"><ele>245.0</ele><time>2026-03-28T13:01:12.902Z</time></trkpt><trkpt lat="45.82376431436076" lon="9.32505889874335"><ele>247.0</ele><time>2026-03-28T13:01:13.902Z</time></trkpt><trkpt lat="45.82373269635598" lon="9.324843808010119"><ele>249.0</ele><time>2026-03-28T13:01:14.902Z</time></trkpt><trkpt lat="45.82368192810437" lon="9.324635715438685"><ele>251.33333333333331</ele><time>2026-03-28T13:01:15.902Z</time></trkpt><trkpt lat="45.823588910185705" lon="9.324413141390574"><ele>253.66666666666666</ele><time>2026-03-28T13:01:16.902Z</time></trkpt><trkpt lat="45.82346837724801" lon="9.32420290617162"><ele>256.0</ele><time>2026-03-28T13:01:17.902Z</time></trkpt><trkpt lat="45.82336662449607" lon="9.323980879148802"><ele>249.33333333333331</ele><time>2026-03-28T13:01:18.902Z</time></trkpt><trkpt lat="45.823261060542265" lon="9.323768103228453"><ele>242.66666666666669</ele><time>2026-03-28T13:01:19.902Z</time></trkpt><trkpt lat="45.82316176870675" lon="9.323536724080483"><ele>236.0</ele><time>2026-03-28T13:01:20.902Z</time></trkpt><trkpt lat="45.823063054957125" lon="9.3233066276745"><ele>236.0</ele><time>2026-03-28T13:01:21.902Z</time></trkpt><trkpt lat="45.822961838300124" lon="9.32309286433731"><ele>236.0</ele><time>2026-03-28T13:01:22.902Z</time></trkpt><trkpt lat="45.82286313170529" lon="9.322889200380288"><ele>236.0</ele><time>2026-03-28T13:01:23.902Z</time></trkpt><trkpt lat="45.82276253218716" lon="9.322678375669511"><ele>234.33333333333334</ele><time>2026-03-28T13:01:24.902Z</time></trkpt><trkpt lat="45.8226588660831" lon="9.322466655171443"><ele>232.66666666666669</ele><time>2026-03-28T13:01:25.902Z</time></trkpt><trkpt lat="45.822552435710705" lon="9.322256403625474"><ele>231.0</ele><time>2026-03-28T13:01:26.902Z</time></trkpt><trkpt lat="45.82244029766509" lon="9.322043660894442"><ele>231.0</ele><time>2026-03-28T13:01:27.902Z</time></trkpt><trkpt lat="45.82232917130282" lon="9.321828591788428"><ele>231.0</ele><time>2026-03-28T13:01:28.902Z</time></trkpt><trkpt lat="45.822216640364346" lon="9.321603552943175"><ele>231.0</ele><time>2026-03-28T13:01:29.902Z</time></trkpt><trkpt lat="45.822105140187865" lon="9.321374729969575"><ele>231.33333333333331</ele><time>2026-03-28T13:01:30.902Z</time></trkpt><trkpt lat="45.821988899387804" lon="9.321149012896987"><ele>231.66666666666666</ele><time>2026-03-28T13:01:31.902Z</time></trkpt><trkpt lat="45.82185914707349" lon="9.320950353555972"><ele>232.0</ele><time>2026-03-28T13:01:32.902Z</time></trkpt><trkpt lat="45.82171201809927" lon="9.320789732187942"><ele>232.0</ele><time>2026-03-28T13:01:33.902Z</time></trkpt><trkpt lat="45.82156999510755" lon="9.320640590506144"><ele>232.0</ele><time>2026-03-28T13:01:34.902Z</time></trkpt><trkpt lat="45.82143241581556" lon="9.320462634961158"><ele>232.0</ele><time>2026-03-28T13:01:35.902Z</time></trkpt><trkpt lat="45.82130596677046" lon="9.320292527349784"><ele>234.0</ele><time>2026-03-28T13:01:36.902Z</time></trkpt><trkpt lat="45.821177448201404" lon="9.320104440263624"><ele>236.0</ele><time>2026-03-28T13:01:37.902Z</time></trkpt><trkpt lat="45.82105146902303" lon="9.319899433288413"><ele>238.0</ele><time>2026-03-28T13:01:38.902Z</time></trkpt><trkpt lat="45.82093376561942" lon="9.319674653980393"><ele>238.0</ele><time>2026-03-28T13:01:39.902Z</time></trkpt><trkpt lat="45.82082197094535" lon="9.319421619972573"><ele>238.0</ele><time>2026-03-28T13:01:40.902Z</time></trkpt><trkpt lat="45.820723707719" lon="9.319154052944972"><ele>238.0</ele><time>2026-03-28T13:01:41.902Z</time></trkpt><trkpt lat="45.82064196415623" lon="9.318891119860462"><ele>238.66666666666666</ele><time>2026-03-28T13:01:42.902Z</time></trkpt><trkpt lat="45.820568946890724" lon="9.318651418204057"><ele>239.33333333333331</ele><time>2026-03-28T13:01:43.902Z</time></trkpt><trkpt lat="45.82048686955029" lon="9.318417280228338"><ele>240.0</ele><time>2026-03-28T13:01:44.902Z</time></trkpt><trkpt lat="45.820391639478856" lon="9.318185169782451"><ele>241.0</ele><time>2026-03-28T13:01:45.902Z</time></trkpt><trkpt lat="45.820315475543104" lon="9.317949230275298"><ele>242.0</ele><time>2026-03-28T13:01:46.9Z</time></trkpt><trkpt lat="45.820229740309344" lon="9.317716081349287"><ele>243.0</ele><time>2026-03-28T13:01:47.9Z</time></trkpt><trkpt lat="45.82014542523292" lon="9.317501500862816"><ele>243.0</ele><time>2026-03-28T13:01:48.9Z</time></trkpt><trkpt lat="45.82008150765049" lon="9.317298422318176"><ele>243.0</ele><time>2026-03-28T13:01:49.9Z</time></trkpt><trkpt lat="45.820024540400105" lon="9.317110135569862"><ele>243.0</ele><time>2026-03-28T13:01:50.9Z</time></trkpt><trkpt lat="45.81996282566575" lon="9.31693031683492"><ele>243.0</ele><time>2026-03-28T13:01:51.9Z</time></trkpt><trkpt lat="45.819901669426116" lon="9.316766803303317"><ele>243.5</ele><time>2026-03-28T13:01:52.9Z</time></trkpt><trkpt lat="45.81983994890653" lon="9.3166012122354"><ele>244.0</ele><time>2026-03-28T13:01:53.9Z</time></trkpt><trkpt lat="45.81978175134322" lon="9.31644828097681"><ele>244.5</ele><time>2026-03-28T13:01:54.9Z</time></trkpt><trkpt lat="45.81972616063867" lon="9.316295560763399"><ele>245.0</ele><time>2026-03-28T13:01:55.9Z</time></trkpt><trkpt lat="45.81967423752652" lon="9.316144394405008"><ele>245.8</ele><time>2026-03-28T13:01:56.9Z</time></trkpt><trkpt lat="45.819636032099396" lon="9.315991754007522"><ele>246.6</ele><time>2026-03-28T13:01:57.9Z</time></trkpt><trkpt lat="45.81961123753003" lon="9.315836509124418"><ele>247.39999999999998</ele><time>2026-03-28T13:01:58.899Z</time></trkpt><trkpt lat="45.81960411338425" lon="9.315688271598718"><ele>248.2</ele><time>2026-03-28T13:01:59.9Z</time></trkpt><trkpt lat="45.81957994870891" lon="9.315556889352555"><ele>249.0</ele><time>2026-03-28T13:02:00.9Z</time></trkpt><trkpt lat="45.81950357171522" lon="9.315457441480591"><ele>249.0</ele><time>2026-03-28T13:02:01.9Z</time></trkpt><trkpt lat="45.81940426413507" lon="9.315362661025155"><ele>249.0</ele><time>2026-03-28T13:02:02.9Z</time></trkpt><trkpt lat="45.819337768804694" lon="9.315227311851139"><ele>249.0</ele><time>2026-03-28T13:02:03.9Z</time></trkpt><trkpt lat="45.8192919585526" lon="9.315065184775513"><ele>249.0</ele><time>2026-03-28T13:02:04.9Z</time></trkpt><trkpt lat="45.81925670025098" lon="9.314880660454072"><ele>249.25</ele><time>2026-03-28T13:02:05.9Z</time></trkpt><trkpt lat="45.819226458104296" lon="9.31472053439309"><ele>249.5</ele><time>2026-03-28T13:02:06.9Z</time></trkpt><trkpt lat="45.819196875632414" lon="9.314577922461414"><ele>249.75</ele><time>2026-03-28T13:02:07.9Z</time></trkpt><trkpt lat="45.81915133038303" lon="9.314417137554383"><ele>250.0</ele><time>2026-03-28T13:02:08.9Z</time></trkpt><trkpt lat="45.81910375557542" lon="9.314245141204037"><ele>250.0</ele><time>2026-03-28T13:02:09.9Z</time></trkpt><trkpt lat="45.81906460980192" lon="9.314065295876453"><ele>250.0</ele><time>2026-03-28T13:02:10.9Z</time></trkpt><trkpt lat="45.81902442346234" lon="9.313879627455966"><ele>250.0</ele><time>2026-03-28T13:02:11.9Z</time></trkpt><trkpt lat="45.81898034293243" lon="9.31369625938841"><ele>250.0</ele><time>2026-03-28T13:02:12.9Z</time></trkpt><trkpt lat="45.81893642622676" lon="9.313500401279647"><ele>251.33333333333331</ele><time>2026-03-28T13:02:13.9Z</time></trkpt><trkpt lat="45.81888924293881" lon="9.313308006877989"><ele>252.66666666666669</ele><time>2026-03-28T13:02:14.9Z</time></trkpt><trkpt lat="45.81883224152056" lon="9.313091319924453"><ele>254.0</ele><time>2026-03-28T13:02:15.9Z</time></trkpt><trkpt lat="45.818765306654605" lon="9.312823511710457"><ele>255.33333333333334</ele><time>2026-03-28T13:02:16.9Z</time></trkpt><trkpt lat="45.81869492680548" lon="9.312522257456067"><ele>256.6666666666667</ele><time>2026-03-28T13:02:17.9Z</time></trkpt><trkpt lat="45.818638385444025" lon="9.312250124517863"><ele>258.0</ele><time>2026-03-28T13:02:18.9Z</time></trkpt><trkpt lat="45.81858869447849" lon="9.312005255200724"><ele>258.6666666666667</ele><time>2026-03-28T13:02:19.9Z</time></trkpt><trkpt lat="45.81853481368935" lon="9.311775895274"><ele>259.33333333333337</ele><time>2026-03-28T13:02:20.9Z</time></trkpt><trkpt lat="45.818490911817456" lon="9.311563568261077"><ele>260.0</ele><time>2026-03-28T13:02:21.9Z</time></trkpt><trkpt lat="45.81844750712748" lon="9.311360767503304"><ele>261.5</ele><time>2026-03-28T13:02:22.9Z</time></trkpt><trkpt lat="45.81840928915343" lon="9.311162783113346"><ele>263.0</ele><time>2026-03-28T13:02:23.9Z</time></trkpt><trkpt lat="45.81836218918547" lon="9.310982319269277"><ele>264.5</ele><time>2026-03-28T13:02:24.9Z</time></trkpt><trkpt lat="45.818318391466136" lon="9.31080564422403"><ele>266.0</ele><time>2026-03-28T13:02:25.9Z</time></trkpt><trkpt lat="45.818278425710815" lon="9.310633029338762"><ele>267.5</ele><time>2026-03-28T13:02:26.9Z</time></trkpt><trkpt lat="45.81823013342352" lon="9.31047612548535"><ele>269.0</ele><time>2026-03-28T13:02:27.9Z</time></trkpt><trkpt lat="45.81817363941867" lon="9.310297438920559"><ele>270.5</ele><time>2026-03-28T13:02:28.9Z</time></trkpt><trkpt lat="45.8181191680121" lon="9.310104684342807"><ele>272.0</ele><time>2026-03-28T13:02:29.9Z</time></trkpt><trkpt lat="45.818075082968704" lon="9.309894347768758"><ele>273.33333333333337</ele><time>2026-03-28T13:02:30.9Z</time></trkpt><trkpt lat="45.81802404023266" lon="9.309649117241648"><ele>274.6666666666667</ele><time>2026-03-28T13:02:31.9Z</time></trkpt><trkpt lat="45.81797563846551" lon="9.309382428836557"><ele>276.0</ele><time>2026-03-28T13:02:32.9Z</time></trkpt><trkpt lat="45.817932064660454" lon="9.309123418646495"><ele>276.6666666666667</ele><time>2026-03-28T13:02:33.9Z</time></trkpt><trkpt lat="45.81789009058034" lon="9.308889162880302"><ele>277.33333333333337</ele><time>2026-03-28T13:02:34.9Z</time></trkpt><trkpt lat="45.81785527752651" lon="9.308650998880161"><ele>278.0</ele><time>2026-03-28T13:02:35.9Z</time></trkpt><trkpt lat="45.81781233844253" lon="9.308427070172469"><ele>278.0</ele><time>2026-03-28T13:02:36.9Z</time></trkpt><trkpt lat="45.81776475916385" lon="9.308206760773816"><ele>278.0</ele><time>2026-03-28T13:02:37.9Z</time></trkpt><trkpt lat="45.81772661605199" lon="9.308007579924487"><ele>278.0</ele><time>2026-03-28T13:02:38.9Z</time></trkpt><trkpt lat="45.81769314873779" lon="9.307818356570923"><ele>278.0</ele><time>2026-03-28T13:02:39.9Z</time></trkpt><trkpt lat="45.81766141884683" lon="9.307647391510624"><ele>277.5</ele><time>2026-03-28T13:02:40.9Z</time></trkpt><trkpt lat="45.817626962298384" lon="9.307485338885158"><ele>277.0</ele><time>2026-03-28T13:02:41.9Z</time></trkpt><trkpt lat="45.8175906193994" lon="9.307320267357595"><ele>276.5</ele><time>2026-03-28T13:02:42.9Z</time></trkpt><trkpt lat="45.81755472634505" lon="9.30715028986003"><ele>276.0</ele><time>2026-03-28T13:02:43.9Z</time></trkpt><trkpt lat="45.81752319700944" lon="9.307008010072877"><ele>276.0</ele><time>2026-03-28T13:02:44.9Z</time></trkpt><trkpt lat="45.81749865015283" lon="9.306908895506748"><ele>276.0</ele><time>2026-03-28T13:02:45.9Z</time></trkpt><trkpt lat="45.81748229068485" lon="9.306798083118993"><ele>276.0</ele><time>2026-03-28T13:02:46.9Z</time></trkpt><trkpt lat="45.81746088555993" lon="9.306652178834435"><ele>276.0</ele><time>2026-03-28T13:02:47.9Z</time></trkpt><trkpt lat="45.817433632016275" lon="9.306470918810987"><ele>276.0</ele><time>2026-03-28T13:02:48.9Z</time></trkpt><trkpt lat="45.817390453121526" lon="9.306256850882624"><ele>276.6666666666667</ele><time>2026-03-28T13:02:49.9Z</time></trkpt><trkpt lat="45.8173397558974" lon="9.305982751194305"><ele>277.33333333333337</ele><time>2026-03-28T13:02:50.9Z</time></trkpt><trkpt lat="45.81728750007811" lon="9.305685877740688"><ele>278.0</ele><time>2026-03-28T13:02:51.9Z</time></trkpt><trkpt lat="45.81723447853144" lon="9.305397358315977"><ele>279.33333333333337</ele><time>2026-03-28T13:02:52.9Z</time></trkpt><trkpt lat="45.817179788439724" lon="9.305102993318812"><ele>280.6666666666667</ele><time>2026-03-28T13:02:53.9Z</time></trkpt><trkpt lat="45.81711946674241" lon="9.304788273132113"><ele>282.0</ele><time>2026-03-28T13:02:54.9Z</time></trkpt><trkpt lat="45.817065797169874" lon="9.30449218275572"><ele>286.0</ele><time>2026-03-28T13:02:55.9Z</time></trkpt><trkpt lat="45.817015636686826" lon="9.304223671612208"><ele>290.0</ele><time>2026-03-28T13:02:56.9Z</time></trkpt><trkpt lat="45.8169640246244" lon="9.303958351082656"><ele>294.0</ele><time>2026-03-28T13:02:57.9Z</time></trkpt><trkpt lat="45.81690786787458" lon="9.303694737533029"><ele>295.3333333333333</ele><time>2026-03-28T13:02:58.9Z</time></trkpt><trkpt lat="45.816840667802055" lon="9.303450712978009"><ele>296.66666666666663</ele><time>2026-03-28T13:02:59.9Z</time></trkpt><trkpt lat="45.81677074721879" lon="9.303198934110636"><ele>298.0</ele><time>2026-03-28T13:03:00.9Z</time></trkpt><trkpt lat="45.816681817365854" lon="9.302952201711642"><ele>292.66666666666663</ele><time>2026-03-28T13:03:01.9Z</time></trkpt><trkpt lat="45.81658204043884" lon="9.302709749993774"><ele>287.3333333333333</ele><time>2026-03-28T13:03:02.9Z</time></trkpt><trkpt lat="45.816471388839425" lon="9.302457347064879"><ele>282.0</ele><time>2026-03-28T13:03:03.9Z</time></trkpt><trkpt lat="45.81636311798933" lon="9.30219193196019"><ele>282.0</ele><time>2026-03-28T13:03:04.9Z</time></trkpt><trkpt lat="45.816266730316165" lon="9.301925819544948"><ele>282.0</ele><time>2026-03-28T13:03:05.9Z</time></trkpt><trkpt lat="45.81618556757519" lon="9.30167277344652"><ele>282.0</ele><time>2026-03-28T13:03:06.9Z</time></trkpt><trkpt lat="45.816125236638285" lon="9.30143371957925"><ele>283.0</ele><time>2026-03-28T13:03:07.9Z</time></trkpt><trkpt lat="45.81608806704267" lon="9.301204729491015"><ele>284.0</ele><time>2026-03-28T13:03:08.9Z</time></trkpt><trkpt lat="45.81605888768225" lon="9.300974875826576"><ele>285.0</ele><time>2026-03-28T13:03:09.9Z</time></trkpt><trkpt lat="45.81603221587262" lon="9.300732918908233"><ele>284.5</ele><time>2026-03-28T13:03:10.9Z</time></trkpt><trkpt lat="45.816014231915645" lon="9.300504206916548"><ele>284.0</ele><time>2026-03-28T13:03:11.9Z</time></trkpt><trkpt lat="45.816002670924526" lon="9.300315174433887"><ele>283.5</ele><time>2026-03-28T13:03:12.9Z</time></trkpt><trkpt lat="45.815993286083284" lon="9.300188182539976"><ele>283.0</ele><time>2026-03-28T13:03:13.9Z</time></trkpt><trkpt lat="45.81598978744721" lon="9.300077674091533"><ele>283.0</ele><time>2026-03-28T13:03:14.9Z</time></trkpt><trkpt lat="45.815992277840316" lon="9.299966628394845"><ele>283.0</ele><time>2026-03-28T13:03:15.9Z</time></trkpt><trkpt lat="45.8160022562295" lon="9.299854376887525"><ele>283.0</ele><time>2026-03-28T13:03:16.9Z</time></trkpt><trkpt lat="45.81601022104271" lon="9.29974557721266"><ele>283.0</ele><time>2026-03-28T13:03:17.9Z</time></trkpt><trkpt lat="45.81600826943003" lon="9.299645101108352"><ele>283.0</ele><time>2026-03-28T13:03:18.9Z</time></trkpt><trkpt lat="45.816001441391315" lon="9.299547694835386"><ele>283.0</ele><time>2026-03-28T13:03:19.9Z</time></trkpt><trkpt lat="45.815997224294435" lon="9.299422403863039"><ele>283.0</ele><time>2026-03-28T13:03:20.9Z</time></trkpt><trkpt lat="45.8159923477965" lon="9.299291185438927"><ele>283.0</ele><time>2026-03-28T13:03:21.9Z</time></trkpt><trkpt lat="45.81599473173239" lon="9.29916545956487"><ele>283.0</ele><time>2026-03-28T13:03:22.9Z</time></trkpt><trkpt lat="45.815991123136975" lon="9.299055747188808"><ele>283.0</ele><time>2026-03-28T13:03:23.9Z</time></trkpt><trkpt lat="45.81598650516068" lon="9.298954767665814"><ele>283.0</ele><time>2026-03-28T13:03:24.9Z</time></trkpt><trkpt lat="45.815975080239845" lon="9.298860248410186"><ele>283.0</ele><time>2026-03-28T13:03:25.9Z</time></trkpt><trkpt lat="45.81595962498366" lon="9.29875561015302"><ele>281.2</ele><time>2026-03-28T13:03:26.9Z</time></trkpt><trkpt lat="45.81594328852607" lon="9.298629610108591"><ele>279.4</ele><time>2026-03-28T13:03:27.9Z</time></trkpt><trkpt lat="45.815938663196505" lon="9.298497249991584"><ele>277.59999999999997</ele><time>2026-03-28T13:03:28.9Z</time></trkpt><trkpt lat="45.81594061755335" lon="9.298352817204911"><ele>275.8</ele><time>2026-03-28T13:03:29.9Z</time></trkpt><trkpt lat="45.81595705936499" lon="9.298182410760772"><ele>274.0</ele><time>2026-03-28T13:03:30.9Z</time></trkpt><trkpt lat="45.81597351014696" lon="9.298003759328854"><ele>274.0</ele><time>2026-03-28T13:03:31.9Z</time></trkpt><trkpt lat="45.815981868998506" lon="9.29782032280076"><ele>274.0</ele><time>2026-03-28T13:03:32.9Z</time></trkpt><trkpt lat="45.81597848998905" lon="9.297631886274939"><ele>274.0</ele><time>2026-03-28T13:03:33.9Z</time></trkpt><trkpt lat="45.815971241642096" lon="9.297442474802384"><ele>274.0</ele><time>2026-03-28T13:03:34.9Z</time></trkpt><trkpt lat="45.81596056973285" lon="9.29725067467132"><ele>274.0</ele><time>2026-03-28T13:03:35.9Z</time></trkpt><trkpt lat="45.81594045672248" lon="9.297055272693509"><ele>274.0</ele><time>2026-03-28T13:03:36.9Z</time></trkpt><trkpt lat="45.81590229901415" lon="9.29684282430491"><ele>274.0</ele><time>2026-03-28T13:03:37.9Z</time></trkpt><trkpt lat="45.81586096199972" lon="9.296627172002127"><ele>274.0</ele><time>2026-03-28T13:03:38.9Z</time></trkpt><trkpt lat="45.8158272224936" lon="9.29640910255206"><ele>274.0</ele><time>2026-03-28T13:03:39.9Z</time></trkpt><trkpt lat="45.81578805581298" lon="9.29619597689378"><ele>274.0</ele><time>2026-03-28T13:03:40.9Z</time></trkpt><trkpt lat="45.815744589609054" lon="9.295991992930523"><ele>274.0</ele><time>2026-03-28T13:03:41.9Z</time></trkpt><trkpt lat="45.815698722210634" lon="9.295792196221676"><ele>274.0</ele><time>2026-03-28T13:03:42.9Z</time></trkpt><trkpt lat="45.81565084727458" lon="9.295588341533728"><ele>273.75</ele><time>2026-03-28T13:03:43.9Z</time></trkpt><trkpt lat="45.815605278770576" lon="9.295400875607868"><ele>273.5</ele><time>2026-03-28T13:03:44.9Z</time></trkpt><trkpt lat="45.81554979409584" lon="9.295214032367557"><ele>273.25</ele><time>2026-03-28T13:03:45.9Z</time></trkpt><trkpt lat="45.815491068504045" lon="9.295038219304276"><ele>273.0</ele><time>2026-03-28T13:03:46.9Z</time></trkpt><trkpt lat="45.81542914330331" lon="9.294868993764892"><ele>273.3333333333333</ele><time>2026-03-28T13:03:47.9Z</time></trkpt><trkpt lat="45.8153636366744" lon="9.294678522966208"><ele>273.66666666666663</ele><time>2026-03-28T13:03:48.9Z</time></trkpt><trkpt lat="45.815290702042624" lon="9.294474636041624"><ele>274.0</ele><time>2026-03-28T13:03:49.9Z</time></trkpt><trkpt lat="45.81521666791615" lon="9.294273147895028"><ele>271.3333333333333</ele><time>2026-03-28T13:03:50.9Z</time></trkpt><trkpt lat="45.8151448433362" lon="9.294074976543097"><ele>268.6666666666667</ele><time>2026-03-28T13:03:51.9Z</time></trkpt><trkpt lat="45.81507000791753" lon="9.293877905589124"><ele>266.0</ele><time>2026-03-28T13:03:52.899Z</time></trkpt><trkpt lat="45.81500005288746" lon="9.293680351932299"><ele>265.6666666666667</ele><time>2026-03-28T13:03:53.899Z</time></trkpt><trkpt lat="45.814939720994104" lon="9.29348721479268"><ele>265.3333333333333</ele><time>2026-03-28T13:03:54.899Z</time></trkpt><trkpt lat="45.814880165914055" lon="9.293287612286266"><ele>265.0</ele><time>2026-03-28T13:03:55.898Z</time></trkpt><trkpt lat="45.81481916902245" lon="9.293080064137637"><ele>265.0</ele><time>2026-03-28T13:03:56.898Z</time></trkpt><trkpt lat="45.81476411773871" lon="9.292878992952422"><ele>265.0</ele><time>2026-03-28T13:03:57.898Z</time></trkpt><trkpt lat="45.81472409767356" lon="9.292688263732462"><ele>265.0</ele><time>2026-03-28T13:03:58.899Z</time></trkpt><trkpt lat="45.81469131298791" lon="9.292502355849622"><ele>265.0</ele><time>2026-03-28T13:03:59.898Z</time></trkpt><trkpt lat="45.814661609531555" lon="9.292327224213004"><ele>266.25</ele><time>2026-03-28T13:04:00.898Z</time></trkpt><trkpt lat="45.81463441696294" lon="9.292164392390738"><ele>267.5</ele><time>2026-03-28T13:04:01.898Z</time></trkpt><trkpt lat="45.814597318404765" lon="9.292006857277542"><ele>268.75</ele><time>2026-03-28T13:04:02.898Z</time></trkpt><trkpt lat="45.81455739155128" lon="9.29184993391579"><ele>270.0</ele><time>2026-03-28T13:04:03.898Z</time></trkpt><trkpt lat="45.81452344195667" lon="9.291705766064641"><ele>270.0</ele><time>2026-03-28T13:04:04.898Z</time></trkpt><trkpt lat="45.814494593763065" lon="9.291559553765095"><ele>270.0</ele><time>2026-03-28T13:04:05.898Z</time></trkpt><trkpt lat="45.81448691447015" lon="9.291395773389285"><ele>270.0</ele><time>2026-03-28T13:04:06.898Z</time></trkpt><trkpt lat="45.81449548374917" lon="9.291230915396813"><ele>270.0</ele><time>2026-03-28T13:04:07.898Z</time></trkpt><trkpt lat="45.81446824217978" lon="9.291078284238358"><ele>270.0</ele><time>2026-03-28T13:04:08.898Z</time></trkpt><trkpt lat="45.81439648387017" lon="9.290923740687715"><ele>269.0</ele><time>2026-03-28T13:04:09.898Z</time></trkpt><trkpt lat="45.814284612635106" lon="9.290763567552686"><ele>268.0</ele><time>2026-03-28T13:04:10.898Z</time></trkpt><trkpt lat="45.81419840961172" lon="9.290540007858485"><ele>267.0</ele><time>2026-03-28T13:04:11.898Z</time></trkpt><trkpt lat="45.81411957196516" lon="9.290248853539017"><ele>267.0</ele><time>2026-03-28T13:04:12.898Z</time></trkpt><trkpt lat="45.81404372615923" lon="9.28992480580716"><ele>267.0</ele><time>2026-03-28T13:04:13.898Z</time></trkpt><trkpt lat="45.81397112382794" lon="9.289603190732992"><ele>267.0</ele><time>2026-03-28T13:04:14.898Z</time></trkpt><trkpt lat="45.81391119127476" lon="9.289300553975696"><ele>267.0</ele><time>2026-03-28T13:04:15.898Z</time></trkpt><trkpt lat="45.813865241123054" lon="9.289031646266801"><ele>267.0</ele><time>2026-03-28T13:04:16.898Z</time></trkpt><trkpt lat="45.81383265605576" lon="9.288784556617069"><ele>268.0</ele><time>2026-03-28T13:04:17.898Z</time></trkpt><trkpt lat="45.81380671577481" lon="9.28855809169621"><ele>269.0</ele><time>2026-03-28T13:04:18.898Z</time></trkpt><trkpt lat="45.81377996363609" lon="9.288343599968801"><ele>270.0</ele><time>2026-03-28T13:04:19.898Z</time></trkpt><trkpt lat="45.813750284960555" lon="9.288149845806068"><ele>270.25</ele><time>2026-03-28T13:04:20.898Z</time></trkpt><trkpt lat="45.81372474686206" lon="9.28796685617946"><ele>270.5</ele><time>2026-03-28T13:04:21.898Z</time></trkpt><trkpt lat="45.8137022076554" lon="9.287790509298123"><ele>270.75</ele><time>2026-03-28T13:04:22.898Z</time></trkpt><trkpt lat="45.81368197512883" lon="9.28762619049822"><ele>271.0</ele><time>2026-03-28T13:04:23.898Z</time></trkpt><trkpt lat="45.813661138571796" lon="9.287481352540855"><ele>271.0</ele><time>2026-03-28T13:04:24.898Z</time></trkpt><trkpt lat="45.81365027278166" lon="9.287342742495792"><ele>271.0</ele><time>2026-03-28T13:04:25.898Z</time></trkpt><trkpt lat="45.81364358179574" lon="9.287234659019113"><ele>271.0</ele><time>2026-03-28T13:04:26.898Z</time></trkpt><trkpt lat="45.8136409180986" lon="9.287125191827736"><ele>271.0</ele><time>2026-03-28T13:04:28.898Z</time></trkpt><trkpt lat="45.81361708779034" lon="9.28702939161811"><ele>271.0</ele><time>2026-03-28T13:05:25.882Z</time></trkpt><trkpt lat="45.81366888270698" lon="9.286882716434112"><ele>271.0</ele><time>2026-03-28T13:05:27.882Z</time></trkpt><trkpt lat="45.813723927640034" lon="9.286829746999715"><ele>270.25</ele><time>2026-03-28T13:05:28.882Z</time></trkpt><trkpt lat="45.813828933864464" lon="9.286824675366764"><ele>269.5</ele><time>2026-03-28T13:05:29.882Z</time></trkpt><trkpt lat="45.81396080058781" lon="9.286839066350925"><ele>268.75</ele><time>2026-03-28T13:05:30.881Z</time></trkpt><trkpt lat="45.814088345585795" lon="9.286862247154474"><ele>268.0</ele><time>2026-03-28T13:05:31.881Z</time></trkpt><trkpt lat="45.81422088423184" lon="9.286848800415505"><ele>269.5</ele><time>2026-03-28T13:05:32.881Z</time></trkpt><trkpt lat="45.81434792943574" lon="9.286767671109084"><ele>271.0</ele><time>2026-03-28T13:05:33.881Z</time></trkpt><trkpt lat="45.814455239753315" lon="9.286632464817043"><ele>272.5</ele><time>2026-03-28T13:05:34.881Z</time></trkpt><trkpt lat="45.814538131075686" lon="9.286447318704422"><ele>274.0</ele><time>2026-03-28T13:05:35.881Z</time></trkpt><trkpt lat="45.8145816762029" lon="9.286239483216042"><ele>274.0</ele><time>2026-03-28T13:05:36.881Z</time></trkpt><trkpt lat="45.8146271185619" lon="9.286009960483568"><ele>274.0</ele><time>2026-03-28T13:05:37.881Z</time></trkpt><trkpt lat="45.814664575086915" lon="9.28580479463103"><ele>274.0</ele><time>2026-03-28T13:05:38.881Z</time></trkpt><trkpt lat="45.81469342944077" lon="9.285610231983293"><ele>274.3333333333333</ele><time>2026-03-28T13:05:39.881Z</time></trkpt><trkpt lat="45.81472467186918" lon="9.285385218158172"><ele>274.6666666666667</ele><time>2026-03-28T13:05:40.881Z</time></trkpt><trkpt lat="45.81475968992091" lon="9.285156514374219"><ele>275.0</ele><time>2026-03-28T13:05:41.881Z</time></trkpt><trkpt lat="45.814795559973774" lon="9.284936484291801"><ele>275.25</ele><time>2026-03-28T13:05:42.881Z</time></trkpt><trkpt lat="45.814828748464045" lon="9.284731702426619"><ele>275.5</ele><time>2026-03-28T13:05:43.88Z</time></trkpt><trkpt lat="45.8148549905246" lon="9.284555833888598"><ele>275.75</ele><time>2026-03-28T13:05:44.88Z</time></trkpt><trkpt lat="45.81488366382399" lon="9.284380631083323"><ele>276.0</ele><time>2026-03-28T13:05:45.88Z</time></trkpt><trkpt lat="45.8149096799276" lon="9.284188855239293"><ele>276.0</ele><time>2026-03-28T13:05:46.88Z</time></trkpt><trkpt lat="45.814935975784756" lon="9.283991980806961"><ele>276.0</ele><time>2026-03-28T13:05:47.88Z</time></trkpt><trkpt lat="45.814963054173376" lon="9.283796486751632"><ele>276.0</ele><time>2026-03-28T13:05:48.88Z</time></trkpt><trkpt lat="45.81499698801365" lon="9.283614953502605"><ele>276.0</ele><time>2026-03-28T13:05:49.88Z</time></trkpt><trkpt lat="45.81502737270811" lon="9.283431065620713"><ele>276.5</ele><time>2026-03-28T13:05:50.88Z</time></trkpt><trkpt lat="45.815058717872155" lon="9.283237825682264"><ele>277.0</ele><time>2026-03-28T13:05:51.88Z</time></trkpt><trkpt lat="45.8150977913367" lon="9.283051925495737"><ele>277.5</ele><time>2026-03-28T13:05:52.88Z</time></trkpt><trkpt lat="45.815142428253694" lon="9.282868394980806"><ele>278.0</ele><time>2026-03-28T13:05:53.88Z</time></trkpt><trkpt lat="45.81520440639801" lon="9.28268243388159"><ele>280.75</ele><time>2026-03-28T13:05:54.88Z</time></trkpt><trkpt lat="45.81527022354529" lon="9.282511118405901"><ele>283.5</ele><time>2026-03-28T13:05:55.88Z</time></trkpt><trkpt lat="45.81533266130762" lon="9.282338880508405"><ele>286.25</ele><time>2026-03-28T13:05:56.88Z</time></trkpt><trkpt lat="45.815393431050836" lon="9.28216532881997"><ele>289.0</ele><time>2026-03-28T13:05:57.88Z</time></trkpt><trkpt lat="45.81545551561465" lon="9.281993348371893"><ele>289.5</ele><time>2026-03-28T13:05:58.879Z</time></trkpt><trkpt lat="45.81551311209418" lon="9.28182409292778"><ele>290.0</ele><time>2026-03-28T13:05:59.878Z</time></trkpt><trkpt lat="45.815572469626844" lon="9.281654216108885"><ele>290.5</ele><time>2026-03-28T13:06:00.878Z</time></trkpt><trkpt lat="45.815633108598014" lon="9.281474769640615"><ele>291.0</ele><time>2026-03-28T13:06:01.878Z</time></trkpt><trkpt lat="45.81570032696812" lon="9.28128950661729"><ele>291.0</ele><time>2026-03-28T13:06:02.878Z</time></trkpt><trkpt lat="45.81577344855295" lon="9.281078193005973"><ele>291.0</ele><time>2026-03-28T13:06:03.878Z</time></trkpt><trkpt lat="45.81586221627153" lon="9.280830133038666"><ele>291.0</ele><time>2026-03-28T13:06:04.879Z</time></trkpt><trkpt lat="45.81594885070921" lon="9.280576690074133"><ele>295.0</ele><time>2026-03-28T13:06:05.878Z</time></trkpt><trkpt lat="45.816031844099264" lon="9.280333249193099"><ele>299.0</ele><time>2026-03-28T13:06:06.878Z</time></trkpt><trkpt lat="45.81611486287848" lon="9.280104155624699"><ele>303.0</ele><time>2026-03-28T13:06:07.878Z</time></trkpt><trkpt lat="45.81619424119685" lon="9.279895243586827"><ele>304.3333333333333</ele><time>2026-03-28T13:06:08.878Z</time></trkpt><trkpt lat="45.816265403158205" lon="9.279700924389733"><ele>305.66666666666663</ele><time>2026-03-28T13:06:09.878Z</time></trkpt><trkpt lat="45.81631520522356" lon="9.279485000577976"><ele>307.0</ele><time>2026-03-28T13:06:10.879Z</time></trkpt><trkpt lat="45.81633656129579" lon="9.279218793550797"><ele>309.3333333333333</ele><time>2026-03-28T13:06:11.878Z</time></trkpt><trkpt lat="45.81631635400951" lon="9.278911743209099"><ele>311.6666666666667</ele><time>2026-03-28T13:06:12.878Z</time></trkpt><trkpt lat="45.816264902958025" lon="9.278584422348779"><ele>314.0</ele><time>2026-03-28T13:06:13.878Z</time></trkpt><trkpt lat="45.81618342161849" lon="9.278251400989085"><ele>312.33333333333337</ele><time>2026-03-28T13:06:14.878Z</time></trkpt><trkpt lat="45.81609533178019" lon="9.277931319105207"><ele>310.6666666666667</ele><time>2026-03-28T13:06:15.878Z</time></trkpt><trkpt lat="45.81601463355605" lon="9.277659968223308"><ele>309.0</ele><time>2026-03-28T13:06:16.878Z</time></trkpt><trkpt lat="45.81595426989448" lon="9.277401489025229"><ele>310.6666666666667</ele><time>2026-03-28T13:06:17.878Z</time></trkpt><trkpt lat="45.81589218247891" lon="9.27713662145213"><ele>312.33333333333337</ele><time>2026-03-28T13:06:18.878Z</time></trkpt><trkpt lat="45.81582758663592" lon="9.276856812537758"><ele>314.0</ele><time>2026-03-28T13:06:19.878Z</time></trkpt><trkpt lat="45.815763231158954" lon="9.276588108101597"><ele>315.6666666666667</ele><time>2026-03-28T13:06:20.878Z</time></trkpt><trkpt lat="45.81570565811675" lon="9.276324870701249"><ele>317.3333333333333</ele><time>2026-03-28T13:06:21.878Z</time></trkpt><trkpt lat="45.81564152954903" lon="9.27606943445103"><ele>319.0</ele><time>2026-03-28T13:06:22.878Z</time></trkpt><trkpt lat="45.81558551892283" lon="9.275789547791398"><ele>322.3333333333333</ele><time>2026-03-28T13:06:23.878Z</time></trkpt><trkpt lat="45.81554620086081" lon="9.275505541170368"><ele>325.6666666666667</ele><time>2026-03-28T13:06:24.878Z</time></trkpt><trkpt lat="45.815530620590394" lon="9.27519934658287"><ele>329.0</ele><time>2026-03-28T13:06:25.878Z</time></trkpt><trkpt lat="45.81551181394947" lon="9.274885182214621"><ele>331.0</ele><time>2026-03-28T13:06:26.878Z</time></trkpt><trkpt lat="45.81548959014192" lon="9.274578977528487"><ele>333.0</ele><time>2026-03-28T13:06:27.878Z</time></trkpt><trkpt lat="45.81545722308324" lon="9.274274877247397"><ele>335.0</ele><time>2026-03-28T13:06:28.878Z</time></trkpt><trkpt lat="45.815441426961954" lon="9.273977781657921"><ele>337.0</ele><time>2026-03-28T13:06:29.878Z</time></trkpt><trkpt lat="45.81541350904128" lon="9.273678362922773"><ele>339.0</ele><time>2026-03-28T13:06:30.878Z</time></trkpt><trkpt lat="45.815384425231876" lon="9.273380477389104"><ele>341.0</ele><time>2026-03-28T13:06:31.878Z</time></trkpt><trkpt lat="45.81536262058082" lon="9.273108397922348"><ele>340.5</ele><time>2026-03-28T13:06:32.878Z</time></trkpt><trkpt lat="45.815344802141496" lon="9.272859843576255"><ele>340.0</ele><time>2026-03-28T13:06:33.878Z</time></trkpt><trkpt lat="45.81534172143032" lon="9.272647250889017"><ele>339.5</ele><time>2026-03-28T13:06:34.878Z</time></trkpt><trkpt lat="45.815351413384995" lon="9.272466747700332"><ele>339.0</ele><time>2026-03-28T13:06:35.878Z</time></trkpt><trkpt lat="45.81539994411707" lon="9.272305221340005"><ele>338.3333333333333</ele><time>2026-03-28T13:06:36.878Z</time></trkpt><trkpt lat="45.815496393567635" lon="9.272147846596617"><ele>337.66666666666663</ele><time>2026-03-28T13:06:37.878Z</time></trkpt><trkpt lat="45.815650051319" lon="9.272016717429448"><ele>337.0</ele><time>2026-03-28T13:06:38.878Z</time></trkpt><trkpt lat="45.81579753367059" lon="9.271923300478152"><ele>337.0</ele><time>2026-03-28T13:06:39.878Z</time></trkpt><trkpt lat="45.815922596428344" lon="9.271809659149275"><ele>337.0</ele><time>2026-03-28T13:06:40.878Z</time></trkpt><trkpt lat="45.81603546182733" lon="9.271658499547943"><ele>337.0</ele><time>2026-03-28T13:06:41.878Z</time></trkpt><trkpt lat="45.816128276520516" lon="9.271448198155483"><ele>341.0</ele><time>2026-03-28T13:06:42.878Z</time></trkpt><trkpt lat="45.816184397579626" lon="9.271166957670983"><ele>345.0</ele><time>2026-03-28T13:06:43.878Z</time></trkpt><trkpt lat="45.81624404152816" lon="9.270859931360013"><ele>349.0</ele><time>2026-03-28T13:06:44.878Z</time></trkpt><trkpt lat="45.8162941061788" lon="9.270580243877642"><ele>349.0</ele><time>2026-03-28T13:06:45.878Z</time></trkpt><trkpt lat="45.81634933802233" lon="9.270336600770944"><ele>349.0</ele><time>2026-03-28T13:06:46.878Z</time></trkpt><trkpt lat="45.81640492465016" lon="9.270124154318808"><ele>349.0</ele><time>2026-03-28T13:06:47.878Z</time></trkpt><trkpt lat="45.81644922620603" lon="9.26993274673052"><ele>349.0</ele><time>2026-03-28T13:06:48.878Z</time></trkpt><trkpt lat="45.816480389952886" lon="9.269784005501618"><ele>349.0</ele><time>2026-03-28T13:06:49.878Z</time></trkpt><trkpt lat="45.816511337377634" lon="9.269669181976544"><ele>349.0</ele><time>2026-03-28T13:06:50.878Z</time></trkpt><trkpt lat="45.816564543775755" lon="9.269599544158428"><ele>349.0</ele><time>2026-03-28T13:06:51.878Z</time></trkpt><trkpt lat="45.816639344593035" lon="9.269590141278675"><ele>349.0</ele><time>2026-03-28T13:06:52.878Z</time></trkpt><trkpt lat="45.81671026289126" lon="9.269643938912322"><ele>349.0</ele><time>2026-03-28T13:06:53.878Z</time></trkpt><trkpt lat="45.81675428275156" lon="9.269781747569638"><ele>349.0</ele><time>2026-03-28T13:06:54.878Z</time></trkpt><trkpt lat="45.81676505077517" lon="9.26998874939388"><ele>349.0</ele><time>2026-03-28T13:06:55.878Z</time></trkpt><trkpt lat="45.81675165739353" lon="9.270222847536939"><ele>349.0</ele><time>2026-03-28T13:06:56.878Z</time></trkpt><trkpt lat="45.816736461374155" lon="9.270430262399596"><ele>349.66666666666663</ele><time>2026-03-28T13:06:57.878Z</time></trkpt><trkpt lat="45.81673159692424" lon="9.270650374267676"><ele>350.3333333333333</ele><time>2026-03-28T13:06:58.878Z</time></trkpt><trkpt lat="45.816719966495455" lon="9.270869294437638"><ele>351.0</ele><time>2026-03-28T13:06:59.878Z</time></trkpt><trkpt lat="45.81671325368149" lon="9.271115416278159"><ele>351.0</ele><time>2026-03-28T13:07:00.878Z</time></trkpt><trkpt lat="45.81671247233656" lon="9.271367889554822"><ele>351.0</ele><time>2026-03-28T13:07:01.878Z</time></trkpt><trkpt lat="45.81670768842412" lon="9.2716276780183"><ele>351.0</ele><time>2026-03-28T13:07:02.878Z</time></trkpt><trkpt lat="45.816711208430206" lon="9.27190940609861"><ele>350.6666666666667</ele><time>2026-03-28T13:07:03.878Z</time></trkpt><trkpt lat="45.816703579082244" lon="9.27217640677021"><ele>350.33333333333337</ele><time>2026-03-28T13:07:04.878Z</time></trkpt><trkpt lat="45.816695786583985" lon="9.272457782239425"><ele>350.0</ele><time>2026-03-28T13:07:05.878Z</time></trkpt><trkpt lat="45.81668544394905" lon="9.272741486697143"><ele>351.33333333333337</ele><time>2026-03-28T13:07:06.878Z</time></trkpt><trkpt lat="45.81667120606578" lon="9.273057744997779"><ele>352.6666666666667</ele><time>2026-03-28T13:07:07.878Z</time></trkpt><trkpt lat="45.81664274468935" lon="9.273336521875548"><ele>354.0</ele><time>2026-03-28T13:07:08.878Z</time></trkpt><trkpt lat="45.816612573434696" lon="9.27360850335727"><ele>355.6666666666667</ele><time>2026-03-28T13:07:09.878Z</time></trkpt><trkpt lat="45.816570580383214" lon="9.273852737224905"><ele>357.33333333333337</ele><time>2026-03-28T13:07:10.878Z</time></trkpt><trkpt lat="45.81653212638708" lon="9.274101241344413"><ele>359.0</ele><time>2026-03-28T13:07:11.878Z</time></trkpt><trkpt lat="45.816530844250416" lon="9.274321517865943"><ele>359.0</ele><time>2026-03-28T13:07:12.878Z</time></trkpt><trkpt lat="45.81656998596005" lon="9.274539622829874"><ele>359.0</ele><time>2026-03-28T13:07:13.878Z</time></trkpt><trkpt lat="45.81663140993185" lon="9.274734209620846"><ele>359.0</ele><time>2026-03-28T13:07:14.878Z</time></trkpt><trkpt lat="45.816694811321405" lon="9.274889143755697"><ele>359.0</ele><time>2026-03-28T13:07:15.878Z</time></trkpt><trkpt lat="45.816753269798" lon="9.275022668204754"><ele>358.2</ele><time>2026-03-28T13:07:16.878Z</time></trkpt><trkpt lat="45.81681512632396" lon="9.275099065940907"><ele>357.4</ele><time>2026-03-28T13:07:17.878Z</time></trkpt><trkpt lat="45.8168928507309" lon="9.275115426593164"><ele>356.6</ele><time>2026-03-28T13:07:18.878Z</time></trkpt><trkpt lat="45.81696947590762" lon="9.2750297008594"><ele>355.8</ele><time>2026-03-28T13:07:19.878Z</time></trkpt><trkpt lat="45.81700393583903" lon="9.274908850846682"><ele>355.0</ele><time>2026-03-28T13:07:20.878Z</time></trkpt><trkpt lat="45.81697429507955" lon="9.27476732031594"><ele>356.3333333333333</ele><time>2026-03-28T13:07:21.878Z</time></trkpt><trkpt lat="45.81690002240527" lon="9.274571226923587"><ele>357.6666666666667</ele><time>2026-03-28T13:07:22.878Z</time></trkpt><trkpt lat="45.816820716021326" lon="9.274373926578571"><ele>359.0</ele><time>2026-03-28T13:07:23.878Z</time></trkpt><trkpt lat="45.81678218209054" lon="9.27416896768367"><ele>359.0</ele><time>2026-03-28T13:07:24.878Z</time></trkpt><trkpt lat="45.81678980080204" lon="9.273962245271395"><ele>359.0</ele><time>2026-03-28T13:07:25.878Z</time></trkpt><trkpt lat="45.816838209699014" lon="9.27373422050715"><ele>359.0</ele><time>2026-03-28T13:07:26.878Z</time></trkpt><trkpt lat="45.81689927875031" lon="9.273493049084669"><ele>369.0</ele><time>2026-03-28T13:07:27.878Z</time></trkpt><trkpt lat="45.81695693627716" lon="9.273242741532366"><ele>379.0</ele><time>2026-03-28T13:07:28.878Z</time></trkpt><trkpt lat="45.817012418800104" lon="9.272987077029642"><ele>389.0</ele><time>2026-03-28T13:07:29.878Z</time></trkpt><trkpt lat="45.81706601656865" lon="9.272734240941194"><ele>389.0</ele><time>2026-03-28T13:07:30.878Z</time></trkpt><trkpt lat="45.81712726545259" lon="9.272472066277953"><ele>389.0</ele><time>2026-03-28T13:07:31.878Z</time></trkpt><trkpt lat="45.817183691745655" lon="9.272204456976757"><ele>389.0</ele><time>2026-03-28T13:07:32.878Z</time></trkpt><trkpt lat="45.8172391851064" lon="9.271940066928265"><ele>387.3333333333333</ele><time>2026-03-28T13:07:33.878Z</time></trkpt><trkpt lat="45.817285543716615" lon="9.271689363400752"><ele>385.66666666666663</ele><time>2026-03-28T13:07:34.878Z</time></trkpt><trkpt lat="45.81734148908042" lon="9.271433545534569"><ele>384.0</ele><time>2026-03-28T13:07:35.878Z</time></trkpt><trkpt lat="45.81739906976231" lon="9.271146391971"><ele>381.5</ele><time>2026-03-28T13:07:36.878Z</time></trkpt><trkpt lat="45.81746319269821" lon="9.27082766502455"><ele>379.0</ele><time>2026-03-28T13:07:37.878Z</time></trkpt><trkpt lat="45.817528949175916" lon="9.270511907491686"><ele>377.66666666666663</ele><time>2026-03-28T13:07:38.878Z</time></trkpt><trkpt lat="45.81758952071334" lon="9.270215974823756"><ele>376.3333333333333</ele><time>2026-03-28T13:07:39.878Z</time></trkpt><trkpt lat="45.817647719245215" lon="9.269924346551496"><ele>375.0</ele><time>2026-03-28T13:07:40.878Z</time></trkpt><trkpt lat="45.817714048941674" lon="9.269635210262392"><ele>379.0</ele><time>2026-03-28T13:07:41.878Z</time></trkpt><trkpt lat="45.81778217152786" lon="9.269361847933087"><ele>383.0</ele><time>2026-03-28T13:07:42.878Z</time></trkpt><trkpt lat="45.817874941871466" lon="9.269114777318372"><ele>387.0</ele><time>2026-03-28T13:07:43.878Z</time></trkpt><trkpt lat="45.818004216726735" lon="9.268886704739675"><ele>387.0</ele><time>2026-03-28T13:07:44.878Z</time></trkpt><trkpt lat="45.81815316417199" lon="9.268674576246205"><ele>387.0</ele><time>2026-03-28T13:07:45.878Z</time></trkpt><trkpt lat="45.81833577747541" lon="9.268476444022573"><ele>387.0</ele><time>2026-03-28T13:07:46.878Z</time></trkpt><trkpt lat="45.81851520327099" lon="9.26831380569208"><ele>386.33333333333337</ele><time>2026-03-28T13:07:47.878Z</time></trkpt><trkpt lat="45.81867377467358" lon="9.268151688649457"><ele>385.6666666666667</ele><time>2026-03-28T13:07:48.878Z</time></trkpt><trkpt lat="45.818828525018525" lon="9.267999901128944"><ele>385.0</ele><time>2026-03-28T13:07:49.878Z</time></trkpt><trkpt lat="45.8189706561815" lon="9.267847869142132"><ele>383.6666666666667</ele><time>2026-03-28T13:07:50.878Z</time></trkpt><trkpt lat="45.81910578995528" lon="9.267706777598171"><ele>382.33333333333337</ele><time>2026-03-28T13:07:51.878Z</time></trkpt><trkpt lat="45.81923019988984" lon="9.267576854411177"><ele>381.0</ele><time>2026-03-28T13:07:52.878Z</time></trkpt><trkpt lat="45.8193399359332" lon="9.267469197445006"><ele>381.0</ele><time>2026-03-28T13:07:53.878Z</time></trkpt><trkpt lat="45.819437333811564" lon="9.267371350316454"><ele>381.0</ele><time>2026-03-28T13:07:54.878Z</time></trkpt><trkpt lat="45.81954035353675" lon="9.26726846201409"><ele>381.0</ele><time>2026-03-28T13:07:55.878Z</time></trkpt><trkpt lat="45.819650622099715" lon="9.267157216003715"><ele>381.0</ele><time>2026-03-28T13:07:56.878Z</time></trkpt><trkpt lat="45.81976478834021" lon="9.26704206724074"><ele>380.5</ele><time>2026-03-28T13:07:57.878Z</time></trkpt><trkpt lat="45.8198820808499" lon="9.26692289134302"><ele>380.0</ele><time>2026-03-28T13:07:58.878Z</time></trkpt><trkpt lat="45.819991608824346" lon="9.26680485192435"><ele>379.5</ele><time>2026-03-28T13:07:59.878Z</time></trkpt><trkpt lat="45.82009887241756" lon="9.266695828265895"><ele>379.0</ele><time>2026-03-28T13:08:00.878Z</time></trkpt><trkpt lat="45.820199800657115" lon="9.266599647707181"><ele>379.0</ele><time>2026-03-28T13:08:01.878Z</time></trkpt><trkpt lat="45.82029312890295" lon="9.266518958695029"><ele>379.0</ele><time>2026-03-28T13:08:02.878Z</time></trkpt><trkpt lat="45.82037707491378" lon="9.26645276663029"><ele>379.0</ele><time>2026-03-28T13:08:03.878Z</time></trkpt><trkpt lat="45.820448575723994" lon="9.26641219277844"><ele>379.0</ele><time>2026-03-28T13:08:04.877Z</time></trkpt><trkpt lat="45.82051365117717" lon="9.266421645451356"><ele>379.0</ele><time>2026-03-28T13:08:05.877Z</time></trkpt><trkpt lat="45.82061233987188" lon="9.266519815154039"><ele>379.0</ele><time>2026-03-28T13:08:07.877Z</time></trkpt><trkpt lat="45.82068661583571" lon="9.266536427630022"><ele>379.0</ele><time>2026-03-28T13:08:08.877Z</time></trkpt><trkpt lat="45.82080489040669" lon="9.266527520586212"><ele>379.0</ele><time>2026-03-28T13:08:09.877Z</time></trkpt><trkpt lat="45.82090930504564" lon="9.266522444018161"><ele>379.0</ele><time>2026-03-28T13:08:10.877Z</time></trkpt><trkpt lat="45.82100215665815" lon="9.266536124860696"><ele>379.0</ele><time>2026-03-28T13:08:11.877Z</time></trkpt><trkpt lat="45.82108987040772" lon="9.266558277847125"><ele>378.79999999999995</ele><time>2026-03-28T13:08:12.877Z</time></trkpt><trkpt lat="45.8211824101971" lon="9.2665926727954"><ele>378.59999999999997</ele><time>2026-03-28T13:08:13.877Z</time></trkpt><trkpt lat="45.82126863762026" lon="9.266634155075279"><ele>378.4</ele><time>2026-03-28T13:08:14.876Z</time></trkpt><trkpt lat="45.82135149997774" lon="9.266681836782102"><ele>378.2</ele><time>2026-03-28T13:08:15.876Z</time></trkpt><trkpt lat="45.82144539850863" lon="9.266744279343127"><ele>378.0</ele><time>2026-03-28T13:08:16.876Z</time></trkpt><trkpt lat="45.82153983017616" lon="9.26681242115989"><ele>378.0</ele><time>2026-03-28T13:08:17.877Z</time></trkpt><trkpt lat="45.821613411003675" lon="9.266859480353306"><ele>378.0</ele><time>2026-03-28T13:08:18.877Z</time></trkpt><trkpt lat="45.82171560353071" lon="9.26692782998608"><ele>378.0</ele><time>2026-03-28T13:08:20.877Z</time></trkpt><trkpt lat="45.821806093454754" lon="9.26699691784486"><ele>378.0</ele><time>2026-03-28T13:08:22.877Z</time></trkpt><trkpt lat="45.82188199952186" lon="9.267020001172988"><ele>378.0</ele><time>2026-03-28T13:08:25.877Z</time></trkpt><trkpt lat="45.82197183106363" lon="9.26704730649141"><ele>378.0</ele><time>2026-03-28T13:10:03.877Z</time></trkpt><trkpt lat="45.821901454539905" lon="9.267028076617718"><ele>378.0</ele><time>2026-03-28T13:14:09.873Z</time></trkpt><trkpt lat="45.82181405429574" lon="9.267008937739641"><ele>378.0</ele><time>2026-03-28T13:17:57.869Z</time></trkpt><trkpt lat="45.8216911374589" lon="9.266943926486755"><ele>378.0</ele><time>2026-03-28T13:17:58.869Z</time></trkpt><trkpt lat="45.821538895463654" lon="9.266829859461339"><ele>378.0</ele><time>2026-03-28T13:17:59.869Z</time></trkpt><trkpt lat="45.82140706214792" lon="9.266727753741025"><ele>378.0</ele><time>2026-03-28T13:18:00.869Z</time></trkpt><trkpt lat="45.821293970773596" lon="9.266667708082574"><ele>378.0</ele><time>2026-03-28T13:18:01.869Z</time></trkpt><trkpt lat="45.82118839097964" lon="9.266614682028038"><ele>378.0</ele><time>2026-03-28T13:18:02.869Z</time></trkpt><trkpt lat="45.82107430546377" lon="9.266568455486803"><ele>378.0</ele><time>2026-03-28T13:18:03.869Z</time></trkpt><trkpt lat="45.82093883008784" lon="9.26653896004285"><ele>378.0</ele><time>2026-03-28T13:18:04.869Z</time></trkpt><trkpt lat="45.82081288311731" lon="9.26649137151784"><ele>378.0</ele><time>2026-03-28T13:18:05.869Z</time></trkpt><trkpt lat="45.82071359501762" lon="9.266487538188898"><ele>378.0</ele><time>2026-03-28T13:18:06.869Z</time></trkpt><trkpt lat="45.82064107736415" lon="9.266500994185986"><ele>378.0</ele><time>2026-03-28T13:18:11.869Z</time></trkpt><trkpt lat="45.82055914888782" lon="9.266309986207155"><ele>378.0</ele><time>2026-03-28T13:18:19.869Z</time></trkpt><trkpt lat="45.82059006197842" lon="9.266211885539544"><ele>378.0</ele><time>2026-03-28T13:18:20.869Z</time></trkpt><trkpt lat="45.82061936697256" lon="9.266091053348722"><ele>378.0</ele><time>2026-03-28T13:18:21.869Z</time></trkpt><trkpt lat="45.82064400382379" lon="9.265970776765048"><ele>378.0</ele><time>2026-03-28T13:18:22.869Z</time></trkpt><trkpt lat="45.82066212943198" lon="9.265832580746164"><ele>378.0</ele><time>2026-03-28T13:18:23.869Z</time></trkpt><trkpt lat="45.82068488385174" lon="9.265692473393107"><ele>378.2</ele><time>2026-03-28T13:18:24.869Z</time></trkpt><trkpt lat="45.820710490263274" lon="9.265555165407672"><ele>378.4</ele><time>2026-03-28T13:18:25.869Z</time></trkpt><trkpt lat="45.82073344525554" lon="9.265421181428064"><ele>378.59999999999997</ele><time>2026-03-28T13:18:26.869Z</time></trkpt><trkpt lat="45.8207616076223" lon="9.265277624016786"><ele>378.79999999999995</ele><time>2026-03-28T13:18:27.869Z</time></trkpt><trkpt lat="45.820818493076686" lon="9.265119176437164"><ele>379.0</ele><time>2026-03-28T13:18:28.869Z</time></trkpt><trkpt lat="45.820899612317106" lon="9.264973723005413"><ele>379.25</ele><time>2026-03-28T13:18:29.869Z</time></trkpt><trkpt lat="45.82100660875674" lon="9.264844826179933"><ele>379.5</ele><time>2026-03-28T13:18:30.869Z</time></trkpt><trkpt lat="45.82113435773133" lon="9.264752591858036"><ele>379.75</ele><time>2026-03-28T13:18:31.869Z</time></trkpt><trkpt lat="45.82129232986929" lon="9.264693848147733"><ele>380.0</ele><time>2026-03-28T13:18:32.869Z</time></trkpt><trkpt lat="45.82148667034844" lon="9.264670249274593"><ele>380.0</ele><time>2026-03-28T13:18:33.869Z</time></trkpt><trkpt lat="45.821689390435225" lon="9.264660607243012"><ele>380.0</ele><time>2026-03-28T13:18:34.868Z</time></trkpt><trkpt lat="45.821865517858555" lon="9.26465475108098"><ele>380.0</ele><time>2026-03-28T13:18:35.867Z</time></trkpt><trkpt lat="45.82203674723494" lon="9.264656572145054"><ele>380.6666666666667</ele><time>2026-03-28T13:18:36.867Z</time></trkpt><trkpt lat="45.822195533516556" lon="9.264653412459968"><ele>381.3333333333333</ele><time>2026-03-28T13:18:37.867Z</time></trkpt><trkpt lat="45.82235922522913" lon="9.264636906749821"><ele>382.0</ele><time>2026-03-28T13:18:38.867Z</time></trkpt><trkpt lat="45.822522235599074" lon="9.264584575123132"><ele>381.3333333333333</ele><time>2026-03-28T13:18:39.867Z</time></trkpt><trkpt lat="45.82267899067442" lon="9.264476833271711"><ele>380.6666666666667</ele><time>2026-03-28T13:18:40.867Z</time></trkpt><trkpt lat="45.82281131618902" lon="9.264323585900758"><ele>380.0</ele><time>2026-03-28T13:18:41.867Z</time></trkpt><trkpt lat="45.822916925465506" lon="9.264147270683834"><ele>380.0</ele><time>2026-03-28T13:18:42.867Z</time></trkpt><trkpt lat="45.82298426224964" lon="9.263956274415722"><ele>380.0</ele><time>2026-03-28T13:18:43.867Z</time></trkpt><trkpt lat="45.82303696397018" lon="9.263747261506735"><ele>380.0</ele><time>2026-03-28T13:18:44.867Z</time></trkpt><trkpt lat="45.823084803277254" lon="9.26353011957419"><ele>381.6666666666667</ele><time>2026-03-28T13:18:45.867Z</time></trkpt><trkpt lat="45.823136380808734" lon="9.263319236648515"><ele>383.33333333333337</ele><time>2026-03-28T13:18:46.867Z</time></trkpt><trkpt lat="45.82318819751122" lon="9.263110363999575"><ele>385.0</ele><time>2026-03-28T13:18:47.867Z</time></trkpt><trkpt lat="45.82323766288776" lon="9.262906564743162"><ele>385.6666666666667</ele><time>2026-03-28T13:18:48.867Z</time></trkpt><trkpt lat="45.82329213514831" lon="9.262709390867746"><ele>386.33333333333337</ele><time>2026-03-28T13:18:49.867Z</time></trkpt><trkpt lat="45.82334487233638" lon="9.262504674517519"><ele>387.0</ele><time>2026-03-28T13:18:50.867Z</time></trkpt><trkpt lat="45.82339478992982" lon="9.262290109701086"><ele>385.75</ele><time>2026-03-28T13:18:51.867Z</time></trkpt><trkpt lat="45.823443026165556" lon="9.2620816279312"><ele>384.5</ele><time>2026-03-28T13:18:52.867Z</time></trkpt><trkpt lat="45.82348669751578" lon="9.26188857499797"><ele>383.25</ele><time>2026-03-28T13:18:53.867Z</time></trkpt><trkpt lat="45.823534340401935" lon="9.261696527551269"><ele>382.0</ele><time>2026-03-28T13:18:54.867Z</time></trkpt><trkpt lat="45.82357688630104" lon="9.261519925891939"><ele>382.5</ele><time>2026-03-28T13:18:55.867Z</time></trkpt><trkpt lat="45.823615481795855" lon="9.261342116398797"><ele>383.0</ele><time>2026-03-28T13:18:56.867Z</time></trkpt><trkpt lat="45.823657038202725" lon="9.261173824879252"><ele>383.5</ele><time>2026-03-28T13:18:57.867Z</time></trkpt><trkpt lat="45.823697834020216" lon="9.261017085477702"><ele>384.0</ele><time>2026-03-28T13:18:58.867Z</time></trkpt><trkpt lat="45.823739821003265" lon="9.260855977095922"><ele>384.0</ele><time>2026-03-28T13:18:59.867Z</time></trkpt><trkpt lat="45.82377215924542" lon="9.260706408176347"><ele>384.0</ele><time>2026-03-28T13:19:00.867Z</time></trkpt><trkpt lat="45.82378778815585" lon="9.260579103499119"><ele>384.0</ele><time>2026-03-28T13:19:01.867Z</time></trkpt><trkpt lat="45.8237921524346" lon="9.260440056013147"><ele>384.0</ele><time>2026-03-28T13:19:02.867Z</time></trkpt><trkpt lat="45.82377184066784" lon="9.26031311517968"><ele>384.0</ele><time>2026-03-28T13:19:03.867Z</time></trkpt><trkpt lat="45.823745407288655" lon="9.260217035507768"><ele>385.0</ele><time>2026-03-28T13:19:04.867Z</time></trkpt><trkpt lat="45.82372559762415" lon="9.260121539500892"><ele>386.0</ele><time>2026-03-28T13:19:05.867Z</time></trkpt><trkpt lat="45.82371565051603" lon="9.259964450046526"><ele>387.0</ele><time>2026-03-28T13:19:07.867Z</time></trkpt><trkpt lat="45.82373130580459" lon="9.259865503651168"><ele>388.0</ele><time>2026-03-28T13:19:09.867Z</time></trkpt><trkpt lat="45.82383821568477" lon="9.259750937907716"><ele>389.0</ele><time>2026-03-28T13:19:11.867Z</time></trkpt><trkpt lat="45.82394769463977" lon="9.259838535568564"><ele>389.0</ele><time>2026-03-28T13:19:12.867Z</time></trkpt><trkpt lat="45.824065949259726" lon="9.259924538789033"><ele>389.0</ele><time>2026-03-28T13:19:13.867Z</time></trkpt><trkpt lat="45.82419419082654" lon="9.26006843936112"><ele>389.0</ele><time>2026-03-28T13:19:14.867Z</time></trkpt><trkpt lat="45.82431647340442" lon="9.260207396950808"><ele>388.3333333333333</ele><time>2026-03-28T13:19:15.867Z</time></trkpt><trkpt lat="45.82445685179533" lon="9.260340522802327"><ele>387.66666666666663</ele><time>2026-03-28T13:19:16.867Z</time></trkpt><trkpt lat="45.82460567330819" lon="9.260519604797533"><ele>387.0</ele><time>2026-03-28T13:19:17.867Z</time></trkpt><trkpt lat="45.82479465578527" lon="9.260665223839164"><ele>387.0</ele><time>2026-03-28T13:19:18.867Z</time></trkpt><trkpt lat="45.82499969946171" lon="9.260802507358134"><ele>387.0</ele><time>2026-03-28T13:19:19.867Z</time></trkpt><trkpt lat="45.825214847633276" lon="9.26094644738447"><ele>394.5</ele><time>2026-03-28T13:19:20.867Z</time></trkpt><trkpt lat="45.82542875481168" lon="9.261089557250662"><ele>402.0</ele><time>2026-03-28T13:19:21.867Z</time></trkpt><trkpt lat="45.82564536660063" lon="9.26123563627356"><ele>402.0</ele><time>2026-03-28T13:19:22.867Z</time></trkpt><trkpt lat="45.825864922378564" lon="9.261382745349175"><ele>402.0</ele><time>2026-03-28T13:19:23.867Z</time></trkpt><trkpt lat="45.82606514396774" lon="9.261516368197185"><ele>398.66666666666663</ele><time>2026-03-28T13:19:24.867Z</time></trkpt><trkpt lat="45.82626807709253" lon="9.261652613338603"><ele>395.3333333333333</ele><time>2026-03-28T13:19:25.867Z</time></trkpt><trkpt lat="45.82647315992527" lon="9.261764222364597"><ele>392.0</ele><time>2026-03-28T13:19:26.867Z</time></trkpt><trkpt lat="45.82665949375216" lon="9.261899360887517"><ele>397.66666666666663</ele><time>2026-03-28T13:19:27.867Z</time></trkpt><trkpt lat="45.82686395419436" lon="9.26198592654077"><ele>403.33333333333337</ele><time>2026-03-28T13:19:28.867Z</time></trkpt><trkpt lat="45.82708727033664" lon="9.262052832242317"><ele>409.0</ele><time>2026-03-28T13:19:29.867Z</time></trkpt><trkpt lat="45.82727989222165" lon="9.262104941808616"><ele>409.0</ele><time>2026-03-28T13:19:30.867Z</time></trkpt><trkpt lat="45.8274529660854" lon="9.262151220882036"><ele>409.0</ele><time>2026-03-28T13:19:31.867Z</time></trkpt><trkpt lat="45.82762436383016" lon="9.262197256101304"><ele>409.0</ele><time>2026-03-28T13:19:32.867Z</time></trkpt><trkpt lat="45.82778113926314" lon="9.262216923636279"><ele>414.0</ele><time>2026-03-28T13:19:33.867Z</time></trkpt><trkpt lat="45.827936878483065" lon="9.262259655569306"><ele>419.0</ele><time>2026-03-28T13:19:34.867Z</time></trkpt><trkpt lat="45.8280874088837" lon="9.262340036222204"><ele>424.0</ele><time>2026-03-28T13:19:35.867Z</time></trkpt><trkpt lat="45.82824024643851" lon="9.26238919334643"><ele>420.0</ele><time>2026-03-28T13:19:36.867Z</time></trkpt><trkpt lat="45.82839381274661" lon="9.262518336121067"><ele>416.0</ele><time>2026-03-28T13:19:37.867Z</time></trkpt><trkpt lat="45.82856958785663" lon="9.262663705032642"><ele>412.0</ele><time>2026-03-28T13:19:38.867Z</time></trkpt><trkpt lat="45.82873543080929" lon="9.262841793708628"><ele>412.0</ele><time>2026-03-28T13:19:39.867Z</time></trkpt><trkpt lat="45.828914036123976" lon="9.263033413710414"><ele>412.0</ele><time>2026-03-28T13:19:40.867Z</time></trkpt><trkpt lat="45.82908396415615" lon="9.263238983882735"><ele>412.0</ele><time>2026-03-28T13:19:41.867Z</time></trkpt><trkpt lat="45.829250985239206" lon="9.26342586177131"><ele>409.6666666666667</ele><time>2026-03-28T13:19:42.867Z</time></trkpt><trkpt lat="45.82940987636729" lon="9.263617711800856"><ele>407.33333333333337</ele><time>2026-03-28T13:19:43.867Z</time></trkpt><trkpt lat="45.82956714049589" lon="9.263833280532511"><ele>405.0</ele><time>2026-03-28T13:19:44.867Z</time></trkpt><trkpt lat="45.82970180405904" lon="9.264090558283296"><ele>405.0</ele><time>2026-03-28T13:19:45.867Z</time></trkpt><trkpt lat="45.82984252632419" lon="9.264367313966465"><ele>405.0</ele><time>2026-03-28T13:19:46.867Z</time></trkpt><trkpt lat="45.83000256111089" lon="9.264703978378867"><ele>417.0</ele><time>2026-03-28T13:19:47.867Z</time></trkpt><trkpt lat="45.83018434432535" lon="9.265044976337167"><ele>429.0</ele><time>2026-03-28T13:19:48.867Z</time></trkpt><trkpt lat="45.830361853775756" lon="9.265420675944481"><ele>414.5</ele><time>2026-03-28T13:19:49.867Z</time></trkpt><trkpt lat="45.83053172396028" lon="9.265798625604956"><ele>400.0</ele><time>2026-03-28T13:19:50.867Z</time></trkpt><trkpt lat="45.83069875778327" lon="9.266159185872706"><ele>396.0</ele><time>2026-03-28T13:19:51.867Z</time></trkpt><trkpt lat="45.83086945133581" lon="9.26649874904012"><ele>392.0</ele><time>2026-03-28T13:19:52.867Z</time></trkpt><trkpt lat="45.83105812259302" lon="9.26681119441356"><ele>391.5</ele><time>2026-03-28T13:19:53.867Z</time></trkpt><trkpt lat="45.83125196243589" lon="9.267109036139013"><ele>391.0</ele><time>2026-03-28T13:19:54.867Z</time></trkpt><trkpt lat="45.8314586788418" lon="9.26740845528128"><ele>391.0</ele><time>2026-03-28T13:19:55.867Z</time></trkpt><trkpt lat="45.83165765752797" lon="9.267692351775437"><ele>391.0</ele><time>2026-03-28T13:19:56.867Z</time></trkpt><trkpt lat="45.83184806655607" lon="9.267961551539592"><ele>400.5</ele><time>2026-03-28T13:19:57.867Z</time></trkpt><trkpt lat="45.83202744505255" lon="9.268223132922534"><ele>410.0</ele><time>2026-03-28T13:19:58.868Z</time></trkpt><trkpt lat="45.832211504231914" lon="9.268485649745271"><ele>410.0</ele><time>2026-03-28T13:19:59.868Z</time></trkpt><trkpt lat="45.83237558654182" lon="9.268731791797062"><ele>410.0</ele><time>2026-03-28T13:20:00.868Z</time></trkpt><trkpt lat="45.83253444334534" lon="9.268964803460493"><ele>415.0</ele><time>2026-03-28T13:20:01.868Z</time></trkpt><trkpt lat="45.832687768053724" lon="9.269191688941135"><ele>420.0</ele><time>2026-03-28T13:20:02.869Z</time></trkpt><trkpt lat="45.83282429169401" lon="9.269404950075565"><ele>425.0</ele><time>2026-03-28T13:20:03.869Z</time></trkpt><trkpt lat="45.83296177976171" lon="9.269609564668405"><ele>415.3333333333333</ele><time>2026-03-28T13:20:04.869Z</time></trkpt><trkpt lat="45.83309988353957" lon="9.269809977566313"><ele>405.66666666666663</ele><time>2026-03-28T13:20:05.869Z</time></trkpt><trkpt lat="45.83322922715964" lon="9.270004803083419"><ele>396.0</ele><time>2026-03-28T13:20:06.87Z</time></trkpt><trkpt lat="45.83337603995039" lon="9.270197475508366"><ele>401.0</ele><time>2026-03-28T13:20:07.87Z</time></trkpt><trkpt lat="45.83354472943529" lon="9.270438261232337"><ele>406.0</ele><time>2026-03-28T13:20:08.87Z</time></trkpt><trkpt lat="45.83374707900446" lon="9.270668215816038"><ele>406.0</ele><time>2026-03-28T13:20:09.87Z</time></trkpt><trkpt lat="45.83394755662994" lon="9.270887101515559"><ele>406.0</ele><time>2026-03-28T13:20:10.87Z</time></trkpt><trkpt lat="45.83412464382488" lon="9.271080372483816"><ele>406.0</ele><time>2026-03-28T13:20:11.87Z</time></trkpt><trkpt lat="45.83428944833112" lon="9.271261618903422"><ele>406.0</ele><time>2026-03-28T13:20:12.87Z</time></trkpt><trkpt lat="45.83444033491173" lon="9.271427559105309"><ele>406.0</ele><time>2026-03-28T13:20:13.871Z</time></trkpt><trkpt lat="45.834580148374975" lon="9.27157582375339"><ele>403.6666666666667</ele><time>2026-03-28T13:20:14.871Z</time></trkpt><trkpt lat="45.834721923834756" lon="9.271704986611809"><ele>401.33333333333337</ele><time>2026-03-28T13:20:15.871Z</time></trkpt><trkpt lat="45.83485599894383" lon="9.271813253804241"><ele>399.0</ele><time>2026-03-28T13:20:16.871Z</time></trkpt><trkpt lat="45.834995811983575" lon="9.271885301157978"><ele>408.0</ele><time>2026-03-28T13:20:17.871Z</time></trkpt><trkpt lat="45.83514238613118" lon="9.27198775015242"><ele>417.0</ele><time>2026-03-28T13:20:18.871Z</time></trkpt><trkpt lat="45.83527967625354" lon="9.272077550006204"><ele>426.0</ele><time>2026-03-28T13:20:19.871Z</time></trkpt><trkpt lat="45.83541424412001" lon="9.272161128197293"><ele>426.0</ele><time>2026-03-28T13:20:20.871Z</time></trkpt><trkpt lat="45.83557669023307" lon="9.27224712263847"><ele>426.0</ele><time>2026-03-28T13:20:21.871Z</time></trkpt><trkpt lat="45.835766017637674" lon="9.272395836912214"><ele>426.0</ele><time>2026-03-28T13:20:22.871Z</time></trkpt><trkpt lat="45.83596906259048" lon="9.272514667468924"><ele>419.0</ele><time>2026-03-28T13:20:23.871Z</time></trkpt><trkpt lat="45.83614783059411" lon="9.272658853739689"><ele>412.0</ele><time>2026-03-28T13:20:24.871Z</time></trkpt><trkpt lat="45.83631178438178" lon="9.272775965934557"><ele>405.0</ele><time>2026-03-28T13:20:25.872Z</time></trkpt><trkpt lat="45.83647106728851" lon="9.272835609853303"><ele>405.0</ele><time>2026-03-28T13:20:26.872Z</time></trkpt><trkpt lat="45.83661007510992" lon="9.272933293987567"><ele>405.0</ele><time>2026-03-28T13:20:27.872Z</time></trkpt><trkpt lat="45.83675086729017" lon="9.273019486646058"><ele>405.0</ele><time>2026-03-28T13:20:28.872Z</time></trkpt><trkpt lat="45.83689540248044" lon="9.273106761583378"><ele>400.75</ele><time>2026-03-28T13:20:29.872Z</time></trkpt><trkpt lat="45.83703763359889" lon="9.273193287945993"><ele>396.5</ele><time>2026-03-28T13:20:30.872Z</time></trkpt><trkpt lat="45.837176759724336" lon="9.273276828000087"><ele>392.25</ele><time>2026-03-28T13:20:31.872Z</time></trkpt><trkpt lat="45.837310267483986" lon="9.27335418539572"><ele>388.0</ele><time>2026-03-28T13:20:32.872Z</time></trkpt><trkpt lat="45.837445620374844" lon="9.273417745147409"><ele>388.0</ele><time>2026-03-28T13:20:33.872Z</time></trkpt><trkpt lat="45.8375893029515" lon="9.273485696215333"><ele>388.0</ele><time>2026-03-28T13:20:34.872Z</time></trkpt><trkpt lat="45.8377363691294" lon="9.273545987996483"><ele>388.0</ele><time>2026-03-28T13:20:35.872Z</time></trkpt><trkpt lat="45.83788764309822" lon="9.273593344768296"><ele>385.6666666666667</ele><time>2026-03-28T13:20:36.872Z</time></trkpt><trkpt lat="45.83803870356041" lon="9.273617123649263"><ele>383.33333333333337</ele><time>2026-03-28T13:20:37.872Z</time></trkpt><trkpt lat="45.8381896101669" lon="9.273627321338669"><ele>381.0</ele><time>2026-03-28T13:20:38.872Z</time></trkpt><trkpt lat="45.838339592636046" lon="9.273623086175675"><ele>380.6666666666667</ele><time>2026-03-28T13:20:39.872Z</time></trkpt><trkpt lat="45.8384863196166" lon="9.273615601636862"><ele>380.33333333333337</ele><time>2026-03-28T13:20:40.87Z</time></trkpt><trkpt lat="45.83863917342093" lon="9.273602042182217"><ele>380.0</ele><time>2026-03-28T13:20:41.87Z</time></trkpt><trkpt lat="45.83879574708358" lon="9.273583527860216"><ele>380.0</ele><time>2026-03-28T13:20:42.87Z</time></trkpt><trkpt lat="45.83898327235394" lon="9.273558799047862"><ele>380.0</ele><time>2026-03-28T13:20:43.871Z</time></trkpt><trkpt lat="45.83920161964715" lon="9.27353993622386"><ele>380.0</ele><time>2026-03-28T13:20:44.87Z</time></trkpt><trkpt lat="45.83944009285943" lon="9.27352018565974"><ele>382.0</ele><time>2026-03-28T13:20:45.87Z</time></trkpt><trkpt lat="45.83969450026056" lon="9.273485587799055"><ele>384.0</ele><time>2026-03-28T13:20:46.871Z</time></trkpt><trkpt lat="45.83996650154488" lon="9.273447083511208"><ele>385.0</ele><time>2026-03-28T13:20:47.871Z</time></trkpt><trkpt lat="45.840241288107535" lon="9.273421893978796"><ele>386.0</ele><time>2026-03-28T13:20:48.871Z</time></trkpt><trkpt lat="45.840524184123716" lon="9.273416328691011"><ele>386.0</ele><time>2026-03-28T13:20:49.87Z</time></trkpt><trkpt lat="45.84079781410358" lon="9.273399895910597"><ele>386.0</ele><time>2026-03-28T13:20:50.871Z</time></trkpt><trkpt lat="45.84105186403204" lon="9.273381435838733"><ele>389.5</ele><time>2026-03-28T13:20:51.871Z</time></trkpt><trkpt lat="45.84129127881572" lon="9.273363380216466"><ele>393.0</ele><time>2026-03-28T13:20:52.871Z</time></trkpt><trkpt lat="45.84151698893642" lon="9.273346555575657"><ele>393.0</ele><time>2026-03-28T13:20:53.87Z</time></trkpt><trkpt lat="45.84172928264555" lon="9.273328134975092"><ele>393.0</ele><time>2026-03-28T13:20:54.87Z</time></trkpt><trkpt lat="45.84192753991136" lon="9.273314369842382"><ele>393.0</ele><time>2026-03-28T13:20:55.87Z</time></trkpt><trkpt lat="45.842105481635826" lon="9.273305481811246"><ele>393.5</ele><time>2026-03-28T13:20:56.87Z</time></trkpt><trkpt lat="45.84226083712758" lon="9.273292023172253"><ele>394.0</ele><time>2026-03-28T13:20:57.87Z</time></trkpt><trkpt lat="45.84238730491748" lon="9.273294286930076"><ele>394.5</ele><time>2026-03-28T13:20:58.87Z</time></trkpt><trkpt lat="45.842494837317446" lon="9.273322536420288"><ele>395.0</ele><time>2026-03-28T13:20:59.87Z</time></trkpt><trkpt lat="45.84260112955125" lon="9.273335898339003"><ele>395.3333333333333</ele><time>2026-03-28T13:21:00.87Z</time></trkpt><trkpt lat="45.842717293511505" lon="9.273283443714893"><ele>395.66666666666663</ele><time>2026-03-28T13:21:01.87Z</time></trkpt><trkpt lat="45.84287373444121" lon="9.273222786324574"><ele>396.0</ele><time>2026-03-28T13:21:02.87Z</time></trkpt><trkpt lat="45.84306947329432" lon="9.27320222011659"><ele>396.0</ele><time>2026-03-28T13:21:03.87Z</time></trkpt><trkpt lat="45.84330898558983" lon="9.273176837632187"><ele>396.0</ele><time>2026-03-28T13:21:04.87Z</time></trkpt><trkpt lat="45.843539273016525" lon="9.27313741378951"><ele>395.5</ele><time>2026-03-28T13:21:05.87Z</time></trkpt><trkpt lat="45.843770832032895" lon="9.2731158216722"><ele>395.0</ele><time>2026-03-28T13:21:06.87Z</time></trkpt><trkpt lat="45.84399522170887" lon="9.273094491502837"><ele>395.0</ele><time>2026-03-28T13:21:07.87Z</time></trkpt><trkpt lat="45.84421511413179" lon="9.27307618070064"><ele>395.0</ele><time>2026-03-28T13:21:08.87Z</time></trkpt><trkpt lat="45.84442225927353" lon="9.27305372232494"><ele>395.0</ele><time>2026-03-28T13:21:09.87Z</time></trkpt><trkpt lat="45.84461488880029" lon="9.273044176094176"><ele>394.0</ele><time>2026-03-28T13:21:10.87Z</time></trkpt><trkpt lat="45.84480432216702" lon="9.273035039647034"><ele>393.0</ele><time>2026-03-28T13:21:11.87Z</time></trkpt><trkpt lat="45.84499404078366" lon="9.273023600897718"><ele>392.0</ele><time>2026-03-28T13:21:12.87Z</time></trkpt><trkpt lat="45.84518551325287" lon="9.27300840762304"><ele>391.3333333333333</ele><time>2026-03-28T13:21:13.87Z</time></trkpt><trkpt lat="45.84537190244111" lon="9.272989243942694"><ele>390.66666666666663</ele><time>2026-03-28T13:21:14.87Z</time></trkpt><trkpt lat="45.84556326608075" lon="9.272974905045842"><ele>390.0</ele><time>2026-03-28T13:21:15.87Z</time></trkpt><trkpt lat="45.845750740799865" lon="9.272961541468238"><ele>390.0</ele><time>2026-03-28T13:21:16.87Z</time></trkpt><trkpt lat="45.845915500828966" lon="9.272947079561279"><ele>390.0</ele><time>2026-03-28T13:21:17.87Z</time></trkpt><trkpt lat="45.84606958999461" lon="9.272924533144154"><ele>390.0</ele><time>2026-03-28T13:21:18.87Z</time></trkpt><trkpt lat="45.84625835631654" lon="9.272913145247971"><ele>391.0</ele><time>2026-03-28T13:21:19.87Z</time></trkpt><trkpt lat="45.84646938497219" lon="9.272903429124867"><ele>392.0</ele><time>2026-03-28T13:21:20.87Z</time></trkpt><trkpt lat="45.84668591697772" lon="9.272876306798437"><ele>393.0</ele><time>2026-03-28T13:21:21.87Z</time></trkpt><trkpt lat="45.84690592223814" lon="9.272849048189455"><ele>393.33333333333337</ele><time>2026-03-28T13:21:22.87Z</time></trkpt><trkpt lat="45.84712869989436" lon="9.272825170031851"><ele>393.6666666666667</ele><time>2026-03-28T13:21:23.87Z</time></trkpt><trkpt lat="45.84734346176281" lon="9.272806295578828"><ele>394.0</ele><time>2026-03-28T13:21:24.87Z</time></trkpt><trkpt lat="45.84754275774131" lon="9.272785927848881"><ele>394.0</ele><time>2026-03-28T13:21:25.87Z</time></trkpt><trkpt lat="45.847727088720504" lon="9.27276550676279"><ele>394.0</ele><time>2026-03-28T13:21:26.87Z</time></trkpt><trkpt lat="45.84787190794366" lon="9.272743889005023"><ele>394.0</ele><time>2026-03-28T13:21:27.87Z</time></trkpt><trkpt lat="45.84799411070664" lon="9.27272831330637"><ele>394.0</ele><time>2026-03-28T13:21:28.87Z</time></trkpt><trkpt lat="45.8480978736009" lon="9.27271860131496"><ele>394.0</ele><time>2026-03-28T13:21:29.87Z</time></trkpt><trkpt lat="45.84819872892531" lon="9.2727072676595"><ele>394.0</ele><time>2026-03-28T13:21:30.87Z</time></trkpt><trkpt lat="45.848288607254965" lon="9.272698613151473"><ele>394.0</ele><time>2026-03-28T13:21:31.87Z</time></trkpt><trkpt lat="45.848373720753635" lon="9.27269507467768"><ele>394.0</ele><time>2026-03-28T13:21:32.87Z</time></trkpt><trkpt lat="45.84846902763566" lon="9.272686286257573"><ele>395.25</ele><time>2026-03-28T13:21:33.87Z</time></trkpt><trkpt lat="45.848583217446944" lon="9.272717453122386"><ele>396.5</ele><time>2026-03-28T13:21:34.87Z</time></trkpt><trkpt lat="45.84871439324756" lon="9.272759490835531"><ele>397.75</ele><time>2026-03-28T13:21:35.87Z</time></trkpt><trkpt lat="45.84884826562105" lon="9.272818946466456"><ele>399.0</ele><time>2026-03-28T13:21:36.87Z</time></trkpt><trkpt lat="45.84896109715432" lon="9.272912462467715"><ele>399.0</ele><time>2026-03-28T13:21:37.87Z</time></trkpt><trkpt lat="45.84905347523698" lon="9.272985816008061"><ele>399.0</ele><time>2026-03-28T13:21:38.87Z</time></trkpt><trkpt lat="45.849118144454266" lon="9.273068092176393"><ele>399.0</ele><time>2026-03-28T13:21:39.87Z</time></trkpt><trkpt lat="45.84921835834834" lon="9.273158291833465"><ele>399.0</ele><time>2026-03-28T13:21:41.87Z</time></trkpt><trkpt lat="45.849313987237615" lon="9.273210542027995"><ele>399.0</ele><time>2026-03-28T13:21:43.87Z</time></trkpt><trkpt lat="45.849396938346615" lon="9.273304019835578"><ele>399.75</ele><time>2026-03-28T13:21:45.87Z</time></trkpt><trkpt lat="45.84945336380575" lon="9.273354450937775"><ele>400.5</ele><time>2026-03-28T13:21:46.87Z</time></trkpt><trkpt lat="45.84967445858583" lon="9.273456069765885"><ele>401.25</ele><time>2026-03-28T13:21:48.87Z</time></trkpt><trkpt lat="45.849799876848444" lon="9.273519195017476"><ele>402.0</ele><time>2026-03-28T13:21:49.87Z</time></trkpt><trkpt lat="45.84993501280015" lon="9.273588201445515"><ele>402.0</ele><time>2026-03-28T13:21:50.87Z</time></trkpt><trkpt lat="45.85007798128022" lon="9.273673842423333"><ele>402.0</ele><time>2026-03-28T13:21:51.87Z</time></trkpt><trkpt lat="45.850208357754894" lon="9.273749728232197"><ele>402.0</ele><time>2026-03-28T13:21:52.87Z</time></trkpt><trkpt lat="45.85032370357954" lon="9.273812241820174"><ele>402.0</ele><time>2026-03-28T13:21:53.87Z</time></trkpt><trkpt lat="45.850441126516635" lon="9.273887937324554"><ele>401.8</ele><time>2026-03-28T13:21:54.87Z</time></trkpt><trkpt lat="45.85055071428171" lon="9.273956155686673"><ele>401.6</ele><time>2026-03-28T13:21:55.87Z</time></trkpt><trkpt lat="45.85065416531192" lon="9.27395471928778"><ele>401.40000000000003</ele><time>2026-03-28T13:21:56.87Z</time></trkpt><trkpt lat="45.850745434042004" lon="9.273940175716184"><ele>401.20000000000005</ele><time>2026-03-28T13:21:57.87Z</time></trkpt><trkpt lat="45.85085972379109" lon="9.2739189736821"><ele>401.0</ele><time>2026-03-28T13:21:58.87Z</time></trkpt><trkpt lat="45.85097788914816" lon="9.273893695901847"><ele>400.4</ele><time>2026-03-28T13:21:59.87Z</time></trkpt><trkpt lat="45.85107656496855" lon="9.273887203989881"><ele>399.8</ele><time>2026-03-28T13:22:00.87Z</time></trkpt><trkpt lat="45.851157466979295" lon="9.27388834384311"><ele>399.2</ele><time>2026-03-28T13:22:01.87Z</time></trkpt><trkpt lat="45.851246816428045" lon="9.273899299643931"><ele>398.59999999999997</ele><time>2026-03-28T13:22:03.87Z</time></trkpt><trkpt lat="45.851327386060234" lon="9.274001381135841"><ele>398.0</ele><time>2026-03-28T13:22:35.87Z</time></trkpt><trkpt lat="45.85138732388596" lon="9.274109845096865"><ele>397.99999999999994</ele><time>2026-03-28T13:22:37.87Z</time></trkpt><trkpt lat="45.85144401867847" lon="9.274212900619208"><ele>398.0</ele><time>2026-03-28T13:22:39.87Z</time></trkpt><trkpt lat="45.8515060840408" lon="9.27432666467302"><ele>398.0</ele><time>2026-03-28T13:22:41.87Z</time></trkpt><trkpt lat="45.851555433231866" lon="9.274417120348534"><ele>398.0</ele><time>2026-03-28T13:22:43.87Z</time></trkpt><trkpt lat="45.85159847131668" lon="9.27449600791871"><ele>397.99999999999994</ele><time>2026-03-28T13:22:45.87Z</time></trkpt><trkpt lat="45.851656502876466" lon="9.2746090764179"><ele>398.0</ele><time>2026-03-28T13:22:47.869Z</time></trkpt><trkpt lat="45.85172630156786" lon="9.274767061993106"><ele>397.66666666666663</ele><time>2026-03-28T13:22:49.869Z</time></trkpt><trkpt lat="45.8517837456958" lon="9.27487045373927"><ele>397.3333333333333</ele><time>2026-03-28T13:22:50.869Z</time></trkpt><trkpt lat="45.8518031254212" lon="9.274970173623718"><ele>397.0</ele><time>2026-03-28T13:22:51.869Z</time></trkpt><trkpt lat="45.85183452204835" lon="9.275054247218794"><ele>396.66666666666663</ele><time>2026-03-28T13:22:52.869Z</time></trkpt><trkpt lat="45.851891957342346" lon="9.275208046909361"><ele>396.3333333333333</ele><time>2026-03-28T13:22:54.869Z</time></trkpt><trkpt lat="45.851922406571965" lon="9.275289552664372"><ele>396.0</ele><time>2026-03-28T13:22:55.869Z</time></trkpt><trkpt lat="45.85197918793078" lon="9.275438462670651"><ele>396.0</ele><time>2026-03-28T13:22:57.869Z</time></trkpt><trkpt lat="45.85201868189584" lon="9.275526918271561"><ele>396.0</ele><time>2026-03-28T13:22:58.869Z</time></trkpt><trkpt lat="45.852074356647044" lon="9.27563093204123"><ele>396.0</ele><time>2026-03-28T13:22:59.869Z</time></trkpt><trkpt lat="45.85214515946031" lon="9.275711128004827"><ele>396.0</ele><time>2026-03-28T13:23:00.869Z</time></trkpt><trkpt lat="45.8522162961344" lon="9.275757505245968"><ele>396.0</ele><time>2026-03-28T13:23:01.869Z</time></trkpt><trkpt lat="45.85227434363403" lon="9.27581396390488"><ele>396.0</ele><time>2026-03-28T13:23:02.869Z</time></trkpt><trkpt lat="45.85216517265874" lon="9.275892558854311"><ele>395.75</ele><time>2026-03-28T13:23:03.869Z</time></trkpt><trkpt lat="45.852340740751856" lon="9.27599367168496"><ele>395.5</ele><time>2026-03-28T13:23:04.869Z</time></trkpt><trkpt lat="45.85240073411903" lon="9.276042262208298"><ele>395.25</ele><time>2026-03-28T13:23:06.869Z</time></trkpt><trkpt lat="45.85250914130199" lon="9.276039969778376"><ele>395.0</ele><time>2026-03-28T13:23:10.869Z</time></trkpt><trkpt lat="45.852595241213585" lon="9.276036093634088"><ele>394.25</ele><time>2026-03-28T13:23:12.869Z</time></trkpt><trkpt lat="45.85267083899723" lon="9.276032690288217"><ele>393.5</ele><time>2026-03-28T13:23:14.869Z</time></trkpt><trkpt lat="45.852742278852745" lon="9.276029476136394"><ele>392.75</ele><time>2026-03-28T13:23:17.869Z</time></trkpt><trkpt lat="45.85281329392689" lon="9.276026279097778"><ele>392.0</ele><time>2026-03-28T13:23:21.869Z</time></trkpt><trkpt lat="45.85292650342322" lon="9.276329835401379"><ele>392.0</ele><time>2026-03-28T13:24:03.869Z</time></trkpt><trkpt lat="45.852867107838556" lon="9.276363655878697"><ele>392.0</ele><time>2026-03-28T13:24:13.869Z</time></trkpt><trkpt lat="45.85286791155534" lon="9.276471777012322"><ele>392.0</ele><time>2026-03-28T13:24:20.869Z</time></trkpt><trkpt lat="45.852899031293845" lon="9.276559768043397"><ele>392.0</ele><time>2026-03-28T13:24:28.869Z</time></trkpt><trkpt lat="45.852895644276025" lon="9.27665862405998"><ele>392.0</ele><time>2026-03-28T13:24:33.869Z</time></trkpt><trkpt lat="45.852922101216464" lon="9.276756321046374"><ele>392.0</ele><time>2026-03-28T13:24:40.869Z</time></trkpt><trkpt lat="45.85294080817317" lon="9.276847571078292"><ele>392.0</ele><time>2026-03-28T13:24:47.869Z</time></trkpt><trkpt lat="45.852992516328094" lon="9.276916060552788"><ele>391.8</ele><time>2026-03-28T13:24:55.868Z</time></trkpt><trkpt lat="45.85303205469366" lon="9.277002513691405"><ele>391.6</ele><time>2026-03-28T13:25:06.867Z</time></trkpt><trkpt lat="45.85306323910101" lon="9.277081871313392"><ele>391.40000000000003</ele><time>2026-03-28T13:25:12.867Z</time></trkpt><trkpt lat="45.85310409524225" lon="9.277171172212228"><ele>391.20000000000005</ele><time>2026-03-28T13:25:15.867Z</time></trkpt><trkpt lat="45.8531413347055" lon="9.27726314145694"><ele>391.0</ele><time>2026-03-28T13:25:20.867Z</time></trkpt><trkpt lat="45.85296941972543" lon="9.277108228236475"><ele>393.0</ele><time>2026-03-28T13:25:25.867Z</time></trkpt><trkpt lat="45.85319615989679" lon="9.277358610793119"><ele>395.0</ele><time>2026-03-28T13:25:26.867Z</time></trkpt><trkpt lat="45.85305229400593" lon="9.277357300602796"><ele>397.0</ele><time>2026-03-28T13:25:31.867Z</time></trkpt><trkpt lat="45.853024230065266" lon="9.277460458505015"><ele>395.5</ele><time>2026-03-28T13:25:45.867Z</time></trkpt><trkpt lat="45.852954664604816" lon="9.277150206981432"><ele>394.0</ele><time>2026-03-28T13:26:35.009Z</time></trkpt><trkpt lat="45.8529447960281" lon="9.277058089938928"><ele>392.5</ele><time>2026-03-28T13:26:57.009Z</time></trkpt><trkpt lat="45.852948178089726" lon="9.276845890165628"><ele>391.0</ele><time>2026-03-28T13:26:58.009Z</time></trkpt><trkpt lat="45.8529062317541" lon="9.276914134507805"><ele>391.0</ele><time>2026-03-28T13:30:48.007Z</time></trkpt><trkpt lat="45.852885933824446" lon="9.276805455647153"><ele>391.0</ele><time>2026-03-28T13:41:05.971Z</time></trkpt></trkseg></trk></gpx>